﻿<?xml version="1.0" encoding="utf-8"?><gpx creator="Garmin Desktop App" version="1.1" xsi:schemaLocation="http://www.topografix.com/GPX/1/1 http://www.topografix.com/GPX/1/1/gpx.xsd http://www.garmin.com/xmlschemas/WaypointExtension/v1 http://www8.garmin.com/xmlschemas/WaypointExtensionv1.xsd http://www.garmin.com/xmlschemas/TrackPointExtension/v1 http://www.garmin.com/xmlschemas/TrackPointExtensionv1.xsd http://www.garmin.com/xmlschemas/GpxExtensions/v3 http://www8.garmin.com/xmlschemas/GpxExtensionsv3.xsd http://www.garmin.com/xmlschemas/ActivityExtension/v1 http://www8.garmin.com/xmlschemas/ActivityExtensionv1.xsd http://www.garmin.com/xmlschemas/AdventuresExtensions/v1 http://www8.garmin.com/xmlschemas/AdventuresExtensionv1.xsd http://www.garmin.com/xmlschemas/PressureExtension/v1 http://www.garmin.com/xmlschemas/PressureExtensionv1.xsd http://www.garmin.com/xmlschemas/TripExtensions/v1 http://www.garmin.com/xmlschemas/TripExtensionsv1.xsd http://www.garmin.com/xmlschemas/TripMetaDataExtensions/v1 http://www.garmin.com/xmlschemas/TripMetaDataExtensionsv1.xsd http://www.garmin.com/xmlschemas/ViaPointTransportationModeExtensions/v1 http://www.garmin.com/xmlschemas/ViaPointTransportationModeExtensionsv1.xsd http://www.garmin.com/xmlschemas/CreationTimeExtension/v1 http://www.garmin.com/xmlschemas/CreationTimeExtensionsv1.xsd http://www.garmin.com/xmlschemas/AccelerationExtension/v1 http://www.garmin.com/xmlschemas/AccelerationExtensionv1.xsd http://www.garmin.com/xmlschemas/PowerExtension/v1 http://www.garmin.com/xmlschemas/PowerExtensionv1.xsd http://www.garmin.com/xmlschemas/VideoExtension/v1 http://www.garmin.com/xmlschemas/VideoExtensionv1.xsd" xmlns="http://www.topografix.com/GPX/1/1" xmlns:xsi="http://www.w3.org/2001/XMLSchema-instance" xmlns:wptx1="http://www.garmin.com/xmlschemas/WaypointExtension/v1" xmlns:gpxtrx="http://www.garmin.com/xmlschemas/GpxExtensions/v3" xmlns:gpxtpx="http://www.garmin.com/xmlschemas/TrackPointExtension/v1" xmlns:gpxx="http://www.garmin.com/xmlschemas/GpxExtensions/v3" xmlns:trp="http://www.garmin.com/xmlschemas/TripExtensions/v1" xmlns:adv="http://www.garmin.com/xmlschemas/AdventuresExtensions/v1" xmlns:prs="http://www.garmin.com/xmlschemas/PressureExtension/v1" xmlns:tmd="http://www.garmin.com/xmlschemas/TripMetaDataExtensions/v1" xmlns:vptm="http://www.garmin.com/xmlschemas/ViaPointTransportationModeExtensions/v1" xmlns:ctx="http://www.garmin.com/xmlschemas/CreationTimeExtension/v1" xmlns:gpxacc="http://www.garmin.com/xmlschemas/AccelerationExtension/v1" xmlns:gpxpx="http://www.garmin.com/xmlschemas/PowerExtension/v1" xmlns:vidx1="http://www.garmin.com/xmlschemas/VideoExtension/v1">

  <metadata>
    <link href="http://www.garmin.com">
      <text>Garmin International</text>
    </link>
    <time>2025-04-29T01:45:48Z</time>
    <bounds maxlat="42.819919036701322" maxlon="-2.844003969803453" minlat="42.576162982732058" minlon="-4.258661018684506" />
  </metadata>

  <trk>
    <name>250428_G_Track</name>
    <extensions>
      <gpxx:TrackExtension>
        <gpxx:DisplayColor>DarkGray</gpxx:DisplayColor>
      </gpxx:TrackExtension>
    </extensions>
    <trkseg>
      <trkpt lat="42.57689799182117" lon="-2.848330959677696">
        <ele>472.13999999999999</ele>
        <time>2025-04-28T07:03:14Z</time>
      </trkpt>
      <trkpt lat="42.576806964352727" lon="-2.848485019057989">
        <ele>474.06999999999999</ele>
        <time>2025-04-28T07:03:37Z</time>
      </trkpt>
      <trkpt lat="42.576806964352727" lon="-2.848485019057989">
        <ele>474.55000000000001</ele>
        <time>2025-04-28T07:03:38Z</time>
      </trkpt>
      <trkpt lat="42.576806964352727" lon="-2.848485019057989">
        <ele>474.55000000000001</ele>
        <time>2025-04-28T07:03:39Z</time>
      </trkpt>
      <trkpt lat="42.577078035101295" lon="-2.848891038447619">
        <ele>474.06999999999999</ele>
        <time>2025-04-28T07:03:50Z</time>
      </trkpt>
      <trkpt lat="42.577064959332347" lon="-2.849191026762128">
        <ele>474.06999999999999</ele>
        <time>2025-04-28T07:03:57Z</time>
      </trkpt>
      <trkpt lat="42.577049033716321" lon="-2.849250035360456">
        <ele>474.55000000000001</ele>
        <time>2025-04-28T07:03:58Z</time>
      </trkpt>
      <trkpt lat="42.577029000967741" lon="-2.849294040352106">
        <ele>475.02999999999997</ele>
        <time>2025-04-28T07:03:59Z</time>
      </trkpt>
      <trkpt lat="42.577008968219161" lon="-2.849338967353106">
        <ele>475.02999999999997</ele>
        <time>2025-04-28T07:04:00Z</time>
      </trkpt>
      <trkpt lat="42.576992036774755" lon="-2.849379032850266">
        <ele>475.50999999999999</ele>
        <time>2025-04-28T07:04:01Z</time>
      </trkpt>
      <trkpt lat="42.576972004026175" lon="-2.849423959851265">
        <ele>475.50999999999999</ele>
        <time>2025-04-28T07:04:02Z</time>
      </trkpt>
      <trkpt lat="42.576883994042873" lon="-2.849623030051589">
        <ele>475.50999999999999</ele>
        <time>2025-04-28T07:04:06Z</time>
      </trkpt>
      <trkpt lat="42.576822973787785" lon="-2.849760996177793">
        <ele>475.50999999999999</ele>
        <time>2025-04-28T07:04:09Z</time>
      </trkpt>
      <trkpt lat="42.576729012653232" lon="-2.849980015307665">
        <ele>474.55000000000001</ele>
        <time>2025-04-28T07:04:13Z</time>
      </trkpt>
      <trkpt lat="42.576681990176439" lon="-2.850101971998811">
        <ele>474.06999999999999</ele>
        <time>2025-04-28T07:04:15Z</time>
      </trkpt>
      <trkpt lat="42.576659023761749" lon="-2.850161986425519">
        <ele>474.06999999999999</ele>
        <time>2025-04-28T07:04:16Z</time>
      </trkpt>
      <trkpt lat="42.576635973528028" lon="-2.850222000852227">
        <ele>474.06999999999999</ele>
        <time>2025-04-28T07:04:17Z</time>
      </trkpt>
      <trkpt lat="42.576497001573443" lon="-2.850537998601794">
        <ele>472.13999999999999</ele>
        <time>2025-04-28T07:04:22Z</time>
      </trkpt>
      <trkpt lat="42.576373033225536" lon="-2.850704966112971">
        <ele>471.18000000000001</ele>
        <time>2025-04-28T07:04:26Z</time>
      </trkpt>
      <trkpt lat="42.576366998255253" lon="-2.850746959447861">
        <ele>471.18000000000001</ele>
        <time>2025-04-28T07:04:27Z</time>
      </trkpt>
      <trkpt lat="42.576315030455589" lon="-2.850884003564715">
        <ele>469.74000000000001</ele>
        <time>2025-04-28T07:04:30Z</time>
      </trkpt>
      <trkpt lat="42.57627597078681" lon="-2.850938988849521">
        <ele>469.25999999999999</ele>
        <time>2025-04-28T07:04:31Z</time>
      </trkpt>
      <trkpt lat="42.57616801187396" lon="-2.851095981895924">
        <ele>467.81999999999999</ele>
        <time>2025-04-28T07:04:34Z</time>
      </trkpt>
      <trkpt lat="42.576162982732058" lon="-2.851102016866207">
        <ele>467.33999999999997</ele>
        <time>2025-04-28T07:04:35Z</time>
      </trkpt>
      <trkpt lat="42.576187960803509" lon="-2.851131018251181">
        <ele>467.33999999999997</ele>
        <time>2025-04-28T07:04:36Z</time>
      </trkpt>
      <trkpt lat="42.57623003795743" lon="-2.851181980222464">
        <ele>467.33999999999997</ele>
        <time>2025-04-28T07:04:37Z</time>
      </trkpt>
      <trkpt lat="42.576268007978797" lon="-2.851225985214114">
        <ele>467.33999999999997</ele>
        <time>2025-04-28T07:04:38Z</time>
      </trkpt>
      <trkpt lat="42.576306983828545" lon="-2.851272001862526">
        <ele>467.33999999999997</ele>
        <time>2025-04-28T07:04:39Z</time>
      </trkpt>
      <trkpt lat="42.576388958841562" lon="-2.851368980482221">
        <ele>466.38</ele>
        <time>2025-04-28T07:04:41Z</time>
      </trkpt>
      <trkpt lat="42.576420977711678" lon="-2.85138700157404">
        <ele>466.38</ele>
        <time>2025-04-28T07:04:42Z</time>
      </trkpt>
      <trkpt lat="42.576462971046567" lon="-2.851398987695575">
        <ele>465.89999999999998</ele>
        <time>2025-04-28T07:04:43Z</time>
      </trkpt>
      <trkpt lat="42.576495995745063" lon="-2.851408962160349">
        <ele>465.42000000000002</ele>
        <time>2025-04-28T07:04:44Z</time>
      </trkpt>
      <trkpt lat="42.576549975201488" lon="-2.851423965767026">
        <ele>464.93000000000001</ele>
        <time>2025-04-28T07:04:45Z</time>
      </trkpt>
      <trkpt lat="42.57655399851501" lon="-2.851421032100916">
        <ele>463.97000000000003</ele>
        <time>2025-04-28T07:04:46Z</time>
      </trkpt>
      <trkpt lat="42.576599009335041" lon="-2.851390019059181">
        <ele>463.49000000000001</ele>
        <time>2025-04-28T07:04:47Z</time>
      </trkpt>
      <trkpt lat="42.576744016259909" lon="-2.851289017125964">
        <ele>462.05000000000001</ele>
        <time>2025-04-28T07:04:49Z</time>
      </trkpt>
      <trkpt lat="42.576815010979772" lon="-2.851239982992411">
        <ele>461.56999999999999</ele>
        <time>2025-04-28T07:04:50Z</time>
      </trkpt>
      <trkpt lat="42.577042998746037" lon="-2.851080978289247">
        <ele>459.64999999999998</ele>
        <time>2025-04-28T07:04:54Z</time>
      </trkpt>
      <trkpt lat="42.577125979587436" lon="-2.851080978289247">
        <ele>459.17000000000002</ele>
        <time>2025-04-28T07:04:55Z</time>
      </trkpt>
      <trkpt lat="42.577214995399117" lon="-2.851080978289247">
        <ele>458.69</ele>
        <time>2025-04-28T07:04:57Z</time>
      </trkpt>
      <trkpt lat="42.577265035361052" lon="-2.850919039919972">
        <ele>457.72000000000003</ele>
        <time>2025-04-28T07:04:58Z</time>
      </trkpt>
      <trkpt lat="42.577290013432503" lon="-2.850841004401445">
        <ele>457.24000000000001</ele>
        <time>2025-04-28T07:04:59Z</time>
      </trkpt>
      <trkpt lat="42.577319014817476" lon="-2.850746037438512">
        <ele>455.80000000000001</ele>
        <time>2025-04-28T07:05:00Z</time>
      </trkpt>
      <trkpt lat="42.577351033687592" lon="-2.850644029676914">
        <ele>455.31999999999999</ele>
        <time>2025-04-28T07:05:01Z</time>
      </trkpt>
      <trkpt lat="42.577501991763711" lon="-2.850212026387453">
        <ele>452.92000000000002</ele>
        <time>2025-04-28T07:05:05Z</time>
      </trkpt>
      <trkpt lat="42.57773601450026" lon="-2.849827967584133">
        <ele>451.95999999999998</ele>
        <time>2025-04-28T07:05:10Z</time>
      </trkpt>
      <trkpt lat="42.577811032533646" lon="-2.849783962592483">
        <ele>452.44</ele>
        <time>2025-04-28T07:05:11Z</time>
      </trkpt>
      <trkpt lat="42.577900970354676" lon="-2.849728977307677">
        <ele>452.92000000000002</ele>
        <time>2025-04-28T07:05:12Z</time>
      </trkpt>
      <trkpt lat="42.577946987003088" lon="-2.849742975085974">
        <ele>453.88</ele>
        <time>2025-04-28T07:05:13Z</time>
      </trkpt>
      <trkpt lat="42.57803700864315" lon="-2.849769964814186">
        <ele>454.36000000000001</ele>
        <time>2025-04-28T07:05:14Z</time>
      </trkpt>
      <trkpt lat="42.578133987262845" lon="-2.849811036139727">
        <ele>454.36000000000001</ele>
        <time>2025-04-28T07:05:15Z</time>
      </trkpt>
      <trkpt lat="42.578848041594028" lon="-2.850525006651878">
        <ele>451</ele>
        <time>2025-04-28T07:05:24Z</time>
      </trkpt>
      <trkpt lat="42.579017020761967" lon="-2.850689962506294">
        <ele>450.02999999999997</ele>
        <time>2025-04-28T07:05:27Z</time>
      </trkpt>
      <trkpt lat="42.579017020761967" lon="-2.850770009681583">
        <ele>450.02999999999997</ele>
        <time>2025-04-28T07:05:28Z</time>
      </trkpt>
      <trkpt lat="42.579012997448444" lon="-2.850861037150025">
        <ele>450.02999999999997</ele>
        <time>2025-04-28T07:05:29Z</time>
      </trkpt>
      <trkpt lat="42.579005034640431" lon="-2.850966984406114">
        <ele>449.55000000000001</ele>
        <time>2025-04-28T07:05:30Z</time>
      </trkpt>
      <trkpt lat="42.578996988013387" lon="-2.851081984117627">
        <ele>449.55000000000001</ele>
        <time>2025-04-28T07:05:31Z</time>
      </trkpt>
      <trkpt lat="42.578929010778666" lon="-2.852360978722572">
        <ele>448.11000000000001</ele>
        <time>2025-04-28T07:05:40Z</time>
      </trkpt>
      <trkpt lat="42.578958012163639" lon="-2.852472960948944">
        <ele>448.58999999999997</ele>
        <time>2025-04-28T07:05:41Z</time>
      </trkpt>
      <trkpt lat="42.578992964699864" lon="-2.852577986195684">
        <ele>448.58999999999997</ele>
        <time>2025-04-28T07:05:42Z</time>
      </trkpt>
      <trkpt lat="42.579047027975321" lon="-2.852686028927565">
        <ele>448.58999999999997</ele>
        <time>2025-04-28T07:05:43Z</time>
      </trkpt>
      <trkpt lat="42.579102013260126" lon="-2.852794993668795">
        <ele>449.06999999999999</ele>
        <time>2025-04-28T07:05:44Z</time>
      </trkpt>
      <trkpt lat="42.579167978838086" lon="-2.852905970066786">
        <ele>449.06999999999999</ele>
        <time>2025-04-28T07:05:45Z</time>
      </trkpt>
      <trkpt lat="42.579723028466105" lon="-2.853992013260722">
        <ele>451.48000000000002</ele>
        <time>2025-04-28T07:05:54Z</time>
      </trkpt>
      <trkpt lat="42.580360975116491" lon="-2.855228008702397">
        <ele>453.39999999999998</ele>
        <time>2025-04-28T07:06:04Z</time>
      </trkpt>
      <trkpt lat="42.580934967845678" lon="-2.856275998055935">
        <ele>455.80000000000001</ele>
        <time>2025-04-28T07:06:14Z</time>
      </trkpt>
      <trkpt lat="42.580976039171219" lon="-2.856400972232223">
        <ele>456.27999999999997</ele>
        <time>2025-04-28T07:06:15Z</time>
      </trkpt>
      <trkpt lat="42.581015015020967" lon="-2.856527036055923">
        <ele>456.27999999999997</ele>
        <time>2025-04-28T07:06:16Z</time>
      </trkpt>
      <trkpt lat="42.581052985042334" lon="-2.856934983283281">
        <ele>456.27999999999997</ele>
        <time>2025-04-28T07:06:19Z</time>
      </trkpt>
      <trkpt lat="42.581047033891082" lon="-2.857068004086614">
        <ele>456.75999999999999</ele>
        <time>2025-04-28T07:06:20Z</time>
      </trkpt>
      <trkpt lat="42.581034963950515" lon="-2.857350977137685">
        <ele>457.24000000000001</ele>
        <time>2025-04-28T07:06:22Z</time>
      </trkpt>
      <trkpt lat="42.581042004749179" lon="-2.857503024861217">
        <ele>457.24000000000001</ele>
        <time>2025-04-28T07:06:23Z</time>
      </trkpt>
      <trkpt lat="42.581050973385572" lon="-2.85766001790762">
        <ele>457.72000000000003</ele>
        <time>2025-04-28T07:06:24Z</time>
      </trkpt>
      <trkpt lat="42.581092966720462" lon="-2.857827991247177">
        <ele>458.20999999999998</ele>
        <time>2025-04-28T07:06:25Z</time>
      </trkpt>
      <trkpt lat="42.58115298114717" lon="-2.857982972636819">
        <ele>458.69</ele>
        <time>2025-04-28T07:06:26Z</time>
      </trkpt>
      <trkpt lat="42.581220036372542" lon="-2.858138959854841">
        <ele>459.17000000000002</ele>
        <time>2025-04-28T07:06:27Z</time>
      </trkpt>
      <trkpt lat="42.581308968365192" lon="-2.858264017850161">
        <ele>460.13</ele>
        <time>2025-04-28T07:06:28Z</time>
      </trkpt>
      <trkpt lat="42.581401001662016" lon="-2.85839200951159">
        <ele>460.13</ele>
        <time>2025-04-28T07:06:29Z</time>
      </trkpt>
      <trkpt lat="42.581520024687052" lon="-2.858474990352988">
        <ele>460.61000000000001</ele>
        <time>2025-04-28T07:06:30Z</time>
      </trkpt>
      <trkpt lat="42.581639969721437" lon="-2.858525030314922">
        <ele>460.61000000000001</ele>
        <time>2025-04-28T07:06:31Z</time>
      </trkpt>
      <trkpt lat="42.581764021888375" lon="-2.858513966202736">
        <ele>460.61000000000001</ele>
        <time>2025-04-28T07:06:32Z</time>
      </trkpt>
      <trkpt lat="42.581892013549805" lon="-2.858502985909581">
        <ele>461.08999999999997</ele>
        <time>2025-04-28T07:06:33Z</time>
      </trkpt>
      <trkpt lat="42.582021011039615" lon="-2.858489993959665">
        <ele>461.56999999999999</ele>
        <time>2025-04-28T07:06:34Z</time>
      </trkpt>
      <trkpt lat="42.582155959680676" lon="-2.858510026708245">
        <ele>462.05000000000001</ele>
        <time>2025-04-28T07:06:35Z</time>
      </trkpt>
      <trkpt lat="42.582285040989518" lon="-2.858566017821431">
        <ele>462.52999999999997</ele>
        <time>2025-04-28T07:06:36Z</time>
      </trkpt>
      <trkpt lat="42.582411020994186" lon="-2.858645981177688">
        <ele>462.52999999999997</ele>
        <time>2025-04-28T07:06:37Z</time>
      </trkpt>
      <trkpt lat="42.583674006164074" lon="-2.859420971944928">
        <ele>467.81999999999999</ele>
        <time>2025-04-28T07:06:47Z</time>
      </trkpt>
      <trkpt lat="42.584641026332974" lon="-2.860052967444062">
        <ele>469.74000000000001</ele>
        <time>2025-04-28T07:06:57Z</time>
      </trkpt>
      <trkpt lat="42.58534200489521" lon="-2.860464015975595">
        <ele>471.66000000000003</ele>
        <time>2025-04-28T07:07:03Z</time>
      </trkpt>
      <trkpt lat="42.585472008213401" lon="-2.860509026795626">
        <ele>472.13999999999999</ele>
        <time>2025-04-28T07:07:04Z</time>
      </trkpt>
      <trkpt lat="42.585605029016733" lon="-2.860535010695458">
        <ele>472.63</ele>
        <time>2025-04-28T07:07:05Z</time>
      </trkpt>
      <trkpt lat="42.585742995142937" lon="-2.860528975725174">
        <ele>473.11000000000001</ele>
        <time>2025-04-28T07:07:06Z</time>
      </trkpt>
      <trkpt lat="42.585889007896185" lon="-2.860507015138865">
        <ele>473.11000000000001</ele>
        <time>2025-04-28T07:07:07Z</time>
      </trkpt>
      <trkpt lat="42.586038038134575" lon="-2.860452029854059">
        <ele>473.11000000000001</ele>
        <time>2025-04-28T07:07:08Z</time>
      </trkpt>
      <trkpt lat="42.586186984553933" lon="-2.860385980457068">
        <ele>473.58999999999997</ele>
        <time>2025-04-28T07:07:09Z</time>
      </trkpt>
      <trkpt lat="42.586337020620704" lon="-2.860320014879108">
        <ele>473.58999999999997</ele>
        <time>2025-04-28T07:07:10Z</time>
      </trkpt>
      <trkpt lat="42.587851965799928" lon="-2.859652983024716">
        <ele>476.47000000000003</ele>
        <time>2025-04-28T07:07:20Z</time>
      </trkpt>
      <trkpt lat="42.588225966319442" lon="-2.859391970559955">
        <ele>475.50999999999999</ele>
        <time>2025-04-28T07:07:23Z</time>
      </trkpt>
      <trkpt lat="42.588338032364845" lon="-2.859356012195349">
        <ele>475.50999999999999</ele>
        <time>2025-04-28T07:07:24Z</time>
      </trkpt>
      <trkpt lat="42.588458983227611" lon="-2.859342014417052">
        <ele>475.50999999999999</ele>
        <time>2025-04-28T07:07:25Z</time>
      </trkpt>
      <trkpt lat="42.588580017909408" lon="-2.859383001923561">
        <ele>475.50999999999999</ele>
        <time>2025-04-28T07:07:26Z</time>
      </trkpt>
      <trkpt lat="42.588710021227598" lon="-2.859426001086831">
        <ele>475.50999999999999</ele>
        <time>2025-04-28T07:07:27Z</time>
      </trkpt>
      <trkpt lat="42.588948989287019" lon="-2.859590034931898">
        <ele>475.50999999999999</ele>
        <time>2025-04-28T07:07:29Z</time>
      </trkpt>
      <trkpt lat="42.589050997048616" lon="-2.859692964702845">
        <ele>475.02999999999997</ele>
        <time>2025-04-28T07:07:30Z</time>
      </trkpt>
      <trkpt lat="42.589116962626576" lon="-2.859837971627712">
        <ele>474.55000000000001</ele>
        <time>2025-04-28T07:07:31Z</time>
      </trkpt>
      <trkpt lat="42.589157028123736" lon="-2.860010974109173">
        <ele>474.55000000000001</ele>
        <time>2025-04-28T07:07:32Z</time>
      </trkpt>
      <trkpt lat="42.589175971224904" lon="-2.860199986025691">
        <ele>474.06999999999999</ele>
        <time>2025-04-28T07:07:33Z</time>
      </trkpt>
      <trkpt lat="42.589196003973484" lon="-2.860394027084112">
        <ele>473.58999999999997</ele>
        <time>2025-04-28T07:07:34Z</time>
      </trkpt>
      <trkpt lat="42.589216958731413" lon="-2.860592007637024">
        <ele>473.11000000000001</ele>
        <time>2025-04-28T07:07:35Z</time>
      </trkpt>
      <trkpt lat="42.589274039492011" lon="-2.86114496178925">
        <ele>471.18000000000001</ele>
        <time>2025-04-28T07:07:38Z</time>
      </trkpt>
      <trkpt lat="42.589334975928068" lon="-2.861267002299428">
        <ele>470.69999999999999</ele>
        <time>2025-04-28T07:07:39Z</time>
      </trkpt>
      <trkpt lat="42.589400019496679" lon="-2.861375967040658">
        <ele>469.74000000000001</ele>
        <time>2025-04-28T07:07:40Z</time>
      </trkpt>
      <trkpt lat="42.589503033086658" lon="-2.86146598868072">
        <ele>469.25999999999999</ele>
        <time>2025-04-28T07:07:41Z</time>
      </trkpt>
      <trkpt lat="42.58961602114141" lon="-2.861538995057344">
        <ele>468.30000000000001</ele>
        <time>2025-04-28T07:07:42Z</time>
      </trkpt>
      <trkpt lat="42.589744012802839" lon="-2.861599009484053">
        <ele>467.33999999999997</ele>
        <time>2025-04-28T07:07:43Z</time>
      </trkpt>
      <trkpt lat="42.58987502194941" lon="-2.861660029739142">
        <ele>466.86000000000001</ele>
        <time>2025-04-28T07:07:44Z</time>
      </trkpt>
      <trkpt lat="42.590010976418853" lon="-2.861663969233632">
        <ele>465.89999999999998</ele>
        <time>2025-04-28T07:07:45Z</time>
      </trkpt>
      <trkpt lat="42.590149026364088" lon="-2.861668998375535">
        <ele>464.44999999999999</ele>
        <time>2025-04-28T07:07:46Z</time>
      </trkpt>
      <trkpt lat="42.590287998318672" lon="-2.861674027517438">
        <ele>463.49000000000001</ele>
        <time>2025-04-28T07:07:47Z</time>
      </trkpt>
      <trkpt lat="42.590554039925337" lon="-2.861697999760509">
        <ele>462.05000000000001</ele>
        <time>2025-04-28T07:07:49Z</time>
      </trkpt>
      <trkpt lat="42.590683959424496" lon="-2.861736975610256">
        <ele>461.08999999999997</ele>
        <time>2025-04-28T07:07:50Z</time>
      </trkpt>
      <trkpt lat="42.590807005763054" lon="-2.861805958673358">
        <ele>460.61000000000001</ele>
        <time>2025-04-28T07:07:51Z</time>
      </trkpt>
      <trkpt lat="42.59092996828258" lon="-2.861883994191885">
        <ele>460.13</ele>
        <time>2025-04-28T07:07:52Z</time>
      </trkpt>
      <trkpt lat="42.591026024892926" lon="-2.861997988075018">
        <ele>459.64999999999998</ele>
        <time>2025-04-28T07:07:53Z</time>
      </trkpt>
      <trkpt lat="42.591117974370718" lon="-2.862120028585196">
        <ele>458.20999999999998</ele>
        <time>2025-04-28T07:07:54Z</time>
      </trkpt>
      <trkpt lat="42.591300029307604" lon="-2.862360002472997">
        <ele>456.75999999999999</ele>
        <time>2025-04-28T07:07:56Z</time>
      </trkpt>
      <trkpt lat="42.591392984613776" lon="-2.86245203576982">
        <ele>456.27999999999997</ele>
        <time>2025-04-28T07:07:57Z</time>
      </trkpt>
      <trkpt lat="42.591502033174038" lon="-2.862511966377497">
        <ele>455.31999999999999</ele>
        <time>2025-04-28T07:07:58Z</time>
      </trkpt>
      <trkpt lat="42.59161502122879" lon="-2.862552031874657">
        <ele>454.36000000000001</ele>
        <time>2025-04-28T07:07:59Z</time>
      </trkpt>
      <trkpt lat="42.591728009283543" lon="-2.862510960549116">
        <ele>453.88</ele>
        <time>2025-04-28T07:08:00Z</time>
      </trkpt>
      <trkpt lat="42.591843008995056" lon="-2.862450024113059">
        <ele>453.39999999999998</ele>
        <time>2025-04-28T07:08:01Z</time>
      </trkpt>
      <trkpt lat="42.591920038685203" lon="-2.862326977774501">
        <ele>452.92000000000002</ele>
        <time>2025-04-28T07:08:02Z</time>
      </trkpt>
      <trkpt lat="42.591962032020092" lon="-2.862166967242956">
        <ele>452.92000000000002</ele>
        <time>2025-04-28T07:08:03Z</time>
      </trkpt>
      <trkpt lat="42.591998996213078" lon="-2.86198097281158">
        <ele>452.92000000000002</ele>
        <time>2025-04-28T07:08:04Z</time>
      </trkpt>
      <trkpt lat="42.591973012313247" lon="-2.861797995865345">
        <ele>452.92000000000002</ele>
        <time>2025-04-28T07:08:05Z</time>
      </trkpt>
      <trkpt lat="42.591947028413415" lon="-2.861605966463685">
        <ele>452.92000000000002</ele>
        <time>2025-04-28T07:08:06Z</time>
      </trkpt>
      <trkpt lat="42.591897994279861" lon="-2.861200030893087">
        <ele>452.92000000000002</ele>
        <time>2025-04-28T07:08:08Z</time>
      </trkpt>
      <trkpt lat="42.591912997886539" lon="-2.861010013148189">
        <ele>452.44</ele>
        <time>2025-04-28T07:08:09Z</time>
      </trkpt>
      <trkpt lat="42.591944010928273" lon="-2.860812032595277">
        <ele>452.44</ele>
        <time>2025-04-28T07:08:10Z</time>
      </trkpt>
      <trkpt lat="42.592009976506233" lon="-2.860641963779926">
        <ele>451.95999999999998</ele>
        <time>2025-04-28T07:08:11Z</time>
      </trkpt>
      <trkpt lat="42.592102009803057" lon="-2.860482037067413">
        <ele>451.95999999999998</ele>
        <time>2025-04-28T07:08:12Z</time>
      </trkpt>
      <trkpt lat="42.592189013957977" lon="-2.860328983515501">
        <ele>451.48000000000002</ele>
        <time>2025-04-28T07:08:13Z</time>
      </trkpt>
      <trkpt lat="42.592294039204717" lon="-2.860242985188961">
        <ele>451.48000000000002</ele>
        <time>2025-04-28T07:08:14Z</time>
      </trkpt>
      <trkpt lat="42.592413984239101" lon="-2.860179031267762">
        <ele>451.48000000000002</ele>
        <time>2025-04-28T07:08:15Z</time>
      </trkpt>
      <trkpt lat="42.592534013092518" lon="-2.860126979649067">
        <ele>451.48000000000002</ele>
        <time>2025-04-28T07:08:16Z</time>
      </trkpt>
      <trkpt lat="42.592662004753947" lon="-2.860096972435713">
        <ele>452.44</ele>
        <time>2025-04-28T07:08:17Z</time>
      </trkpt>
      <trkpt lat="42.593719968572259" lon="-2.859690031036735">
        <ele>452.44</ele>
        <time>2025-04-28T07:08:25Z</time>
      </trkpt>
      <trkpt lat="42.594793019816279" lon="-2.858681017532945">
        <ele>452.92000000000002</ele>
        <time>2025-04-28T07:08:33Z</time>
      </trkpt>
      <trkpt lat="42.595312027260661" lon="-2.857759008184075">
        <ele>452.92000000000002</ele>
        <time>2025-04-28T07:08:38Z</time>
      </trkpt>
      <trkpt lat="42.595412023365498" lon="-2.857573013752699">
        <ele>452.44</ele>
        <time>2025-04-28T07:08:39Z</time>
      </trkpt>
      <trkpt lat="42.596908025443554" lon="-2.855635033920407">
        <ele>453.39999999999998</ele>
        <time>2025-04-28T07:08:51Z</time>
      </trkpt>
      <trkpt lat="42.597057977691293" lon="-2.855515005066991">
        <ele>454.36000000000001</ele>
        <time>2025-04-28T07:08:52Z</time>
      </trkpt>
      <trkpt lat="42.597218994051218" lon="-2.855401011183858">
        <ele>455.31999999999999</ele>
        <time>2025-04-28T07:08:53Z</time>
      </trkpt>
      <trkpt lat="42.598076965659857" lon="-2.85499700345099">
        <ele>460.13</ele>
        <time>2025-04-28T07:08:58Z</time>
      </trkpt>
      <trkpt lat="42.598259020596743" lon="-2.854959033429623">
        <ele>461.56999999999999</ele>
        <time>2025-04-28T07:08:59Z</time>
      </trkpt>
      <trkpt lat="42.600164981558919" lon="-2.854853002354503">
        <ele>466.38</ele>
        <time>2025-04-28T07:09:09Z</time>
      </trkpt>
      <trkpt lat="42.601426960900426" lon="-2.854709001258016">
        <ele>466.86000000000001</ele>
        <time>2025-04-28T07:09:16Z</time>
      </trkpt>
      <trkpt lat="42.602396998554468" lon="-2.854442959651351">
        <ele>466.86000000000001</ele>
        <time>2025-04-28T07:09:22Z</time>
      </trkpt>
      <trkpt lat="42.602514009922743" lon="-2.854315973818302">
        <ele>466.86000000000001</ele>
        <time>2025-04-28T07:09:23Z</time>
      </trkpt>
      <trkpt lat="42.602621968835592" lon="-2.854174990206957">
        <ele>467.33999999999997</ele>
        <time>2025-04-28T07:09:24Z</time>
      </trkpt>
      <trkpt lat="42.602727999910712" lon="-2.854037024080753">
        <ele>467.81999999999999</ele>
        <time>2025-04-28T07:09:25Z</time>
      </trkpt>
      <trkpt lat="42.602832019329071" lon="-2.85390299744904">
        <ele>468.30000000000001</ele>
        <time>2025-04-28T07:09:26Z</time>
      </trkpt>
      <trkpt lat="42.602907037362456" lon="-2.853741981089115">
        <ele>469.25999999999999</ele>
        <time>2025-04-28T07:09:27Z</time>
      </trkpt>
      <trkpt lat="42.602970991283655" lon="-2.85357803106308">
        <ele>469.74000000000001</ele>
        <time>2025-04-28T07:09:28Z</time>
      </trkpt>
      <trkpt lat="42.603034023195505" lon="-2.853418020531535">
        <ele>470.69999999999999</ele>
        <time>2025-04-28T07:09:29Z</time>
      </trkpt>
      <trkpt lat="42.603095965459943" lon="-2.853260021656752">
        <ele>471.66000000000003</ele>
        <time>2025-04-28T07:09:30Z</time>
      </trkpt>
      <trkpt lat="42.603160003200173" lon="-2.853093976154923">
        <ele>472.13999999999999</ele>
        <time>2025-04-28T07:09:31Z</time>
      </trkpt>
      <trkpt lat="42.603784035891294" lon="-2.851519016548991">
        <ele>475.99000000000001</ele>
        <time>2025-04-28T07:09:39Z</time>
      </trkpt>
      <trkpt lat="42.604000037536025" lon="-2.850909987464547">
        <ele>475.50999999999999</ele>
        <time>2025-04-28T07:09:42Z</time>
      </trkpt>
      <trkpt lat="42.604101039469242" lon="-2.850694991648197">
        <ele>475.02999999999997</ele>
        <time>2025-04-28T07:09:43Z</time>
      </trkpt>
      <trkpt lat="42.604202963411808" lon="-2.85057001747191">
        <ele>474.55000000000001</ele>
        <time>2025-04-28T07:09:44Z</time>
      </trkpt>
      <trkpt lat="42.605614978820086" lon="-2.84879095852375">
        <ele>471.18000000000001</ele>
        <time>2025-04-28T07:09:54Z</time>
      </trkpt>
      <trkpt lat="42.606960022822022" lon="-2.846820037811995">
        <ele>467.33999999999997</ele>
        <time>2025-04-28T07:10:04Z</time>
      </trkpt>
      <trkpt lat="42.607231009751558" lon="-2.846492975950241">
        <ele>467.33999999999997</ele>
        <time>2025-04-28T07:10:06Z</time>
      </trkpt>
      <trkpt lat="42.607391020283103" lon="-2.84636196680367">
        <ele>467.81999999999999</ele>
        <time>2025-04-28T07:10:07Z</time>
      </trkpt>
      <trkpt lat="42.607554970309138" lon="-2.846228023990989">
        <ele>467.81999999999999</ele>
        <time>2025-04-28T07:10:08Z</time>
      </trkpt>
      <trkpt lat="42.609354984015226" lon="-2.845248011872172">
        <ele>462.05000000000001</ele>
        <time>2025-04-28T07:10:18Z</time>
      </trkpt>
      <trkpt lat="42.610025033354759" lon="-2.845180034637451">
        <ele>461.08999999999997</ele>
        <time>2025-04-28T07:10:22Z</time>
      </trkpt>
      <trkpt lat="42.610138021409512" lon="-2.845241976901889">
        <ele>461.08999999999997</ele>
        <time>2025-04-28T07:10:23Z</time>
      </trkpt>
      <trkpt lat="42.610238017514348" lon="-2.845309032127261">
        <ele>461.08999999999997</ele>
        <time>2025-04-28T07:10:24Z</time>
      </trkpt>
      <trkpt lat="42.610272970050573" lon="-2.845446998253465">
        <ele>460.61000000000001</ele>
        <time>2025-04-28T07:10:25Z</time>
      </trkpt>
      <trkpt lat="42.610281016677618" lon="-2.845575995743275">
        <ele>460.13</ele>
        <time>2025-04-28T07:10:26Z</time>
      </trkpt>
      <trkpt lat="42.610281016677618" lon="-2.845733994618058">
        <ele>459.64999999999998</ele>
        <time>2025-04-28T07:10:27Z</time>
      </trkpt>
      <trkpt lat="42.610281016677618" lon="-2.845901967957616">
        <ele>459.17000000000002</ele>
        <time>2025-04-28T07:10:28Z</time>
      </trkpt>
      <trkpt lat="42.610281016677618" lon="-2.84621000289917">
        <ele>458.20999999999998</ele>
        <time>2025-04-28T07:10:30Z</time>
      </trkpt>
      <trkpt lat="42.610334996134043" lon="-2.846335982903838">
        <ele>457.72000000000003</ele>
        <time>2025-04-28T07:10:31Z</time>
      </trkpt>
      <trkpt lat="42.610398028045893" lon="-2.846412006765604">
        <ele>457.24000000000001</ele>
        <time>2025-04-28T07:10:32Z</time>
      </trkpt>
      <trkpt lat="42.610473968088627" lon="-2.846489036455751">
        <ele>456.75999999999999</ele>
        <time>2025-04-28T07:10:33Z</time>
      </trkpt>
      <trkpt lat="42.610559966415167" lon="-2.846489036455751">
        <ele>456.27999999999997</ele>
        <time>2025-04-28T07:10:34Z</time>
      </trkpt>
      <trkpt lat="42.610659040510654" lon="-2.846489036455751">
        <ele>455.80000000000001</ele>
        <time>2025-04-28T07:10:35Z</time>
      </trkpt>
      <trkpt lat="42.61073799803853" lon="-2.846429022029042">
        <ele>455.80000000000001</ele>
        <time>2025-04-28T07:10:36Z</time>
      </trkpt>
      <trkpt lat="42.610819973051548" lon="-2.846328020095825">
        <ele>455.80000000000001</ele>
        <time>2025-04-28T07:10:37Z</time>
      </trkpt>
      <trkpt lat="42.610913012176752" lon="-2.846234980970621">
        <ele>455.80000000000001</ele>
        <time>2025-04-28T07:10:38Z</time>
      </trkpt>
      <trkpt lat="42.611012002453208" lon="-2.846178989857435">
        <ele>455.80000000000001</ele>
        <time>2025-04-28T07:10:39Z</time>
      </trkpt>
      <trkpt lat="42.61112499050796" lon="-2.846194999292493">
        <ele>456.75999999999999</ele>
        <time>2025-04-28T07:10:40Z</time>
      </trkpt>
      <trkpt lat="42.611247031018138" lon="-2.846231041476131">
        <ele>457.72000000000003</ele>
        <time>2025-04-28T07:10:41Z</time>
      </trkpt>
      <trkpt lat="42.61135901324451" lon="-2.84631603397429">
        <ele>457.72000000000003</ele>
        <time>2025-04-28T07:10:42Z</time>
      </trkpt>
      <trkpt lat="42.611474012956023" lon="-2.846431033685803">
        <ele>457.24000000000001</ele>
        <time>2025-04-28T07:10:43Z</time>
      </trkpt>
      <trkpt lat="42.611583983525634" lon="-2.846568999812007">
        <ele>457.24000000000001</ele>
        <time>2025-04-28T07:10:44Z</time>
      </trkpt>
      <trkpt lat="42.611698983237147" lon="-2.846714006736875">
        <ele>456.75999999999999</ele>
        <time>2025-04-28T07:10:45Z</time>
      </trkpt>
      <trkpt lat="42.612792989239097" lon="-2.848012028262019">
        <ele>457.24000000000001</ele>
        <time>2025-04-28T07:10:54Z</time>
      </trkpt>
      <trkpt lat="42.612939001992345" lon="-2.848106995224953">
        <ele>457.24000000000001</ele>
        <time>2025-04-28T07:10:55Z</time>
      </trkpt>
      <trkpt lat="42.613090965896845" lon="-2.848195005208254">
        <ele>457.72000000000003</ele>
        <time>2025-04-28T07:10:56Z</time>
      </trkpt>
      <trkpt lat="42.613961007446051" lon="-2.848806967958808">
        <ele>458.20999999999998</ele>
        <time>2025-04-28T07:11:02Z</time>
      </trkpt>
      <trkpt lat="42.614108026027679" lon="-2.848871005699039">
        <ele>458.69</ele>
        <time>2025-04-28T07:11:03Z</time>
      </trkpt>
      <trkpt lat="42.614258984103799" lon="-2.848905958235264">
        <ele>458.69</ele>
        <time>2025-04-28T07:11:04Z</time>
      </trkpt>
      <trkpt lat="42.614412037655711" lon="-2.848899001255631">
        <ele>458.69</ele>
        <time>2025-04-28T07:11:05Z</time>
      </trkpt>
      <trkpt lat="42.614572970196605" lon="-2.848878968507052">
        <ele>458.20999999999998</ele>
        <time>2025-04-28T07:11:06Z</time>
      </trkpt>
      <trkpt lat="42.614720994606614" lon="-2.848862037062645">
        <ele>457.72000000000003</ele>
        <time>2025-04-28T07:11:07Z</time>
      </trkpt>
      <trkpt lat="42.615773007273674" lon="-2.848794981837273">
        <ele>458.20999999999998</ele>
        <time>2025-04-28T07:11:15Z</time>
      </trkpt>
      <trkpt lat="42.615906028077006" lon="-2.848800010979176">
        <ele>459.17000000000002</ele>
        <time>2025-04-28T07:11:16Z</time>
      </trkpt>
      <trkpt lat="42.616042988374829" lon="-2.848805962130427">
        <ele>459.64999999999998</ele>
        <time>2025-04-28T07:11:17Z</time>
      </trkpt>
      <trkpt lat="42.616271981969476" lon="-2.848815014585853">
        <ele>460.13</ele>
        <time>2025-04-28T07:11:19Z</time>
      </trkpt>
      <trkpt lat="42.616717983037233" lon="-2.848862037062645">
        <ele>460.61000000000001</ele>
        <time>2025-04-28T07:11:22Z</time>
      </trkpt>
      <trkpt lat="42.616800963878632" lon="-2.848881985992193">
        <ele>461.08999999999997</ele>
        <time>2025-04-28T07:11:23Z</time>
      </trkpt>
      <trkpt lat="42.61690397746861" lon="-2.848949041217566">
        <ele>461.56999999999999</ele>
        <time>2025-04-28T07:11:24Z</time>
      </trkpt>
      <trkpt lat="42.617266997694969" lon="-2.849279036745429">
        <ele>462.05000000000001</ele>
        <time>2025-04-28T07:11:29Z</time>
      </trkpt>
      <trkpt lat="42.617381997406483" lon="-2.849323963746429">
        <ele>462.52999999999997</ele>
        <time>2025-04-28T07:11:30Z</time>
      </trkpt>
      <trkpt lat="42.617837972939014" lon="-2.849499983713031">
        <ele>462.05000000000001</ele>
        <time>2025-04-28T07:11:34Z</time>
      </trkpt>
      <trkpt lat="42.617967976257205" lon="-2.849549017846584">
        <ele>461.56999999999999</ele>
        <time>2025-04-28T07:11:35Z</time>
      </trkpt>
      <trkpt lat="42.618107032030821" lon="-2.84956100396812">
        <ele>461.08999999999997</ele>
        <time>2025-04-28T07:11:36Z</time>
      </trkpt>
      <trkpt lat="42.618237035349011" lon="-2.849523033946753">
        <ele>461.08999999999997</ele>
        <time>2025-04-28T07:11:37Z</time>
      </trkpt>
      <trkpt lat="42.618365027010441" lon="-2.849483974277973">
        <ele>460.61000000000001</ele>
        <time>2025-04-28T07:11:38Z</time>
      </trkpt>
      <trkpt lat="42.618494024500251" lon="-2.849444998428226">
        <ele>460.61000000000001</ele>
        <time>2025-04-28T07:11:39Z</time>
      </trkpt>
      <trkpt lat="42.619635974988341" lon="-2.8490249812603">
        <ele>459.64999999999998</ele>
        <time>2025-04-28T07:11:48Z</time>
      </trkpt>
      <trkpt lat="42.619766984134912" lon="-2.848954992368817">
        <ele>460.13</ele>
        <time>2025-04-28T07:11:49Z</time>
      </trkpt>
      <trkpt lat="42.619875026866794" lon="-2.848847033455968">
        <ele>460.13</ele>
        <time>2025-04-28T07:11:50Z</time>
      </trkpt>
      <trkpt lat="42.62008398771286" lon="-2.848600018769503">
        <ele>461.56999999999999</ele>
        <time>2025-04-28T07:11:52Z</time>
      </trkpt>
      <trkpt lat="42.621169025078416" lon="-2.847252963110805">
        <ele>462.05000000000001</ele>
        <time>2025-04-28T07:12:02Z</time>
      </trkpt>
      <trkpt lat="42.622229000553489" lon="-2.846315028145909">
        <ele>461.08999999999997</ele>
        <time>2025-04-28T07:12:11Z</time>
      </trkpt>
      <trkpt lat="42.6228759996593" lon="-2.845496032387018">
        <ele>464.44999999999999</ele>
        <time>2025-04-28T07:12:17Z</time>
      </trkpt>
      <trkpt lat="42.622995022684336" lon="-2.845380026847124">
        <ele>464.44999999999999</ele>
        <time>2025-04-28T07:12:18Z</time>
      </trkpt>
      <trkpt lat="42.623590975999832" lon="-2.844884991645813">
        <ele>463.00999999999999</ele>
        <time>2025-04-28T07:12:23Z</time>
      </trkpt>
      <trkpt lat="42.62375601567328" lon="-2.84470796585083">
        <ele>462.05000000000001</ele>
        <time>2025-04-28T07:12:25Z</time>
      </trkpt>
      <trkpt lat="42.623863974586129" lon="-2.844635965302587">
        <ele>462.05000000000001</ele>
        <time>2025-04-28T07:12:26Z</time>
      </trkpt>
      <trkpt lat="42.62397201731801" lon="-2.844568993896246">
        <ele>461.56999999999999</ele>
        <time>2025-04-28T07:12:27Z</time>
      </trkpt>
      <trkpt lat="42.625343967229128" lon="-2.844057027250528">
        <ele>459.17000000000002</ele>
        <time>2025-04-28T07:12:37Z</time>
      </trkpt>
      <trkpt lat="42.626187019050121" lon="-2.844003969803453">
        <ele>463.00999999999999</ele>
        <time>2025-04-28T07:12:43Z</time>
      </trkpt>
      <trkpt lat="42.626320961862803" lon="-2.844044035300612">
        <ele>463.97000000000003</ele>
        <time>2025-04-28T07:12:44Z</time>
      </trkpt>
      <trkpt lat="42.626437973231077" lon="-2.844123998656869">
        <ele>463.97000000000003</ele>
        <time>2025-04-28T07:12:45Z</time>
      </trkpt>
      <trkpt lat="42.626564959064126" lon="-2.84421100281179">
        <ele>463.97000000000003</ele>
        <time>2025-04-28T07:12:46Z</time>
      </trkpt>
      <trkpt lat="42.626696974039078" lon="-2.844302030280232">
        <ele>463.49000000000001</ele>
        <time>2025-04-28T07:12:47Z</time>
      </trkpt>
      <trkpt lat="42.626834018155932" lon="-2.844395991414785">
        <ele>463.00999999999999</ele>
        <time>2025-04-28T07:12:48Z</time>
      </trkpt>
      <trkpt lat="42.627986026927829" lon="-2.845304002985358">
        <ele>453.88</ele>
        <time>2025-04-28T07:12:57Z</time>
      </trkpt>
      <trkpt lat="42.628922034054995" lon="-2.846403960138559">
        <ele>449.06999999999999</ele>
        <time>2025-04-28T07:13:06Z</time>
      </trkpt>
      <trkpt lat="42.629960970953107" lon="-2.848170027136803">
        <ele>452.44</ele>
        <time>2025-04-28T07:13:18Z</time>
      </trkpt>
      <trkpt lat="42.630085023120046" lon="-2.848485019057989">
        <ele>453.88</ele>
        <time>2025-04-28T07:13:20Z</time>
      </trkpt>
      <trkpt lat="42.630131039768457" lon="-2.848649974912405">
        <ele>454.36000000000001</ele>
        <time>2025-04-28T07:13:21Z</time>
      </trkpt>
      <trkpt lat="42.630604030564427" lon="-2.850317973643541">
        <ele>459.17000000000002</ele>
        <time>2025-04-28T07:13:31Z</time>
      </trkpt>
      <trkpt lat="42.630919022485614" lon="-2.851222967728972">
        <ele>463.00999999999999</ele>
        <time>2025-04-28T07:13:37Z</time>
      </trkpt>
      <trkpt lat="42.630994040518999" lon="-2.851354982703924">
        <ele>463.49000000000001</ele>
        <time>2025-04-28T07:13:38Z</time>
      </trkpt>
      <trkpt lat="42.631069980561733" lon="-2.851488003507257">
        <ele>463.97000000000003</ele>
        <time>2025-04-28T07:13:39Z</time>
      </trkpt>
      <trkpt lat="42.63204999268055" lon="-2.852735985070467">
        <ele>464.93000000000001</ele>
        <time>2025-04-28T07:13:48Z</time>
      </trkpt>
      <trkpt lat="42.632551984861493" lon="-2.853277958929539">
        <ele>464.93000000000001</ele>
        <time>2025-04-28T07:13:53Z</time>
      </trkpt>
      <trkpt lat="42.633367041125894" lon="-2.854336006566882">
        <ele>465.42000000000002</ele>
        <time>2025-04-28T07:14:00Z</time>
      </trkpt>
      <trkpt lat="42.633482962846756" lon="-2.85446198657155">
        <ele>464.93000000000001</ele>
        <time>2025-04-28T07:14:01Z</time>
      </trkpt>
      <trkpt lat="42.633621012791991" lon="-2.854520995169878">
        <ele>464.93000000000001</ele>
        <time>2025-04-28T07:14:02Z</time>
      </trkpt>
      <trkpt lat="42.633758978918195" lon="-2.854581009596586">
        <ele>463.97000000000003</ele>
        <time>2025-04-28T07:14:03Z</time>
      </trkpt>
      <trkpt lat="42.634421987459064" lon="-2.854902958497405">
        <ele>461.56999999999999</ele>
        <time>2025-04-28T07:14:08Z</time>
      </trkpt>
      <trkpt lat="42.634532963857055" lon="-2.855021981522441">
        <ele>460.61000000000001</ele>
        <time>2025-04-28T07:14:09Z</time>
      </trkpt>
      <trkpt lat="42.634648969396949" lon="-2.855145027860999">
        <ele>460.13</ele>
        <time>2025-04-28T07:14:10Z</time>
      </trkpt>
      <trkpt lat="42.634761035442352" lon="-2.855276959016919">
        <ele>459.64999999999998</ele>
        <time>2025-04-28T07:14:11Z</time>
      </trkpt>
      <trkpt lat="42.634871006011963" lon="-2.85542800091207">
        <ele>458.69</ele>
        <time>2025-04-28T07:14:12Z</time>
      </trkpt>
      <trkpt lat="42.63598102144897" lon="-2.856834987178445">
        <ele>456.75999999999999</ele>
        <time>2025-04-28T07:14:22Z</time>
      </trkpt>
      <trkpt lat="42.636904958635569" lon="-2.858009040355682">
        <ele>457.24000000000001</ele>
        <time>2025-04-28T07:14:31Z</time>
      </trkpt>
      <trkpt lat="42.63697000220418" lon="-2.858164021745324">
        <ele>457.72000000000003</ele>
        <time>2025-04-28T07:14:32Z</time>
      </trkpt>
      <trkpt lat="42.637182986363769" lon="-2.858617985621095">
        <ele>458.20999999999998</ele>
        <time>2025-04-28T07:14:35Z</time>
      </trkpt>
      <trkpt lat="42.637273008003831" lon="-2.858745977282524">
        <ele>459.17000000000002</ele>
        <time>2025-04-28T07:14:36Z</time>
      </trkpt>
      <trkpt lat="42.6373799610883" lon="-2.858868017792702">
        <ele>459.64999999999998</ele>
        <time>2025-04-28T07:14:37Z</time>
      </trkpt>
      <trkpt lat="42.637772988528013" lon="-2.859307983890176">
        <ele>462.52999999999997</ele>
        <time>2025-04-28T07:14:41Z</time>
      </trkpt>
      <trkpt lat="42.637864015996456" lon="-2.859438993036747">
        <ele>463.49000000000001</ele>
        <time>2025-04-28T07:14:42Z</time>
      </trkpt>
      <trkpt lat="42.637960994616151" lon="-2.859577964991331">
        <ele>463.97000000000003</ele>
        <time>2025-04-28T07:14:43Z</time>
      </trkpt>
      <trkpt lat="42.638012962415814" lon="-2.859769994392991">
        <ele>464.44999999999999</ele>
        <time>2025-04-28T07:14:44Z</time>
      </trkpt>
      <trkpt lat="42.63806501403451" lon="-2.85996101796627">
        <ele>465.42000000000002</ele>
        <time>2025-04-28T07:14:45Z</time>
      </trkpt>
      <trkpt lat="42.638112036511302" lon="-2.860136032104492">
        <ele>465.42000000000002</ele>
        <time>2025-04-28T07:14:46Z</time>
      </trkpt>
      <trkpt lat="42.638164004310966" lon="-2.860349016264081">
        <ele>465.42000000000002</ele>
        <time>2025-04-28T07:14:47Z</time>
      </trkpt>
      <trkpt lat="42.638187976554036" lon="-2.860552025958896">
        <ele>465.89999999999998</ele>
        <time>2025-04-28T07:14:48Z</time>
      </trkpt>
      <trkpt lat="42.638208009302616" lon="-2.860759980976582">
        <ele>466.38</ele>
        <time>2025-04-28T07:14:49Z</time>
      </trkpt>
      <trkpt lat="42.638226030394435" lon="-2.86096902564168">
        <ele>466.86000000000001</ele>
        <time>2025-04-28T07:14:50Z</time>
      </trkpt>
      <trkpt lat="42.638242039829493" lon="-2.861168012022972">
        <ele>467.33999999999997</ele>
        <time>2025-04-28T07:14:51Z</time>
      </trkpt>
      <trkpt lat="42.638286966830492" lon="-2.861512005329132">
        <ele>468.77999999999997</ele>
        <time>2025-04-28T07:14:53Z</time>
      </trkpt>
      <trkpt lat="42.638318985700607" lon="-2.861653994768858">
        <ele>469.25999999999999</ele>
        <time>2025-04-28T07:14:54Z</time>
      </trkpt>
      <trkpt lat="42.638347987085581" lon="-2.861782992258668">
        <ele>470.22000000000003</ele>
        <time>2025-04-28T07:14:55Z</time>
      </trkpt>
      <trkpt lat="42.638369025662541" lon="-2.861874019727111">
        <ele>471.18000000000001</ele>
        <time>2025-04-28T07:14:56Z</time>
      </trkpt>
      <trkpt lat="42.638313034549356" lon="-2.862048028036952">
        <ele>472.13999999999999</ele>
        <time>2025-04-28T07:14:57Z</time>
      </trkpt>
      <trkpt lat="42.638264000415802" lon="-2.862200997769833">
        <ele>472.63</ele>
        <time>2025-04-28T07:14:58Z</time>
      </trkpt>
      <trkpt lat="42.638215972110629" lon="-2.862350028008223">
        <ele>473.58999999999997</ele>
        <time>2025-04-28T07:14:59Z</time>
      </trkpt>
      <trkpt lat="42.638175990432501" lon="-2.86247500218451">
        <ele>475.02999999999997</ele>
        <time>2025-04-28T07:15:00Z</time>
      </trkpt>
      <trkpt lat="42.638175990432501" lon="-2.862613974139094">
        <ele>475.99000000000001</ele>
        <time>2025-04-28T07:15:01Z</time>
      </trkpt>
      <trkpt lat="42.638175990432501" lon="-2.862742971628904">
        <ele>477.43000000000001</ele>
        <time>2025-04-28T07:15:02Z</time>
      </trkpt>
      <trkpt lat="42.638175990432501" lon="-2.862867023795843">
        <ele>477.91000000000003</ele>
        <time>2025-04-28T07:15:03Z</time>
      </trkpt>
      <trkpt lat="42.638154029846191" lon="-2.862965008243918">
        <ele>478.38999999999999</ele>
        <time>2025-04-28T07:15:04Z</time>
      </trkpt>
      <trkpt lat="42.638097032904625" lon="-2.863063998520374">
        <ele>478.87</ele>
        <time>2025-04-28T07:15:05Z</time>
      </trkpt>
      <trkpt lat="42.638029977679253" lon="-2.863181009888649">
        <ele>478.87</ele>
        <time>2025-04-28T07:15:06Z</time>
      </trkpt>
      <trkpt lat="42.637962000444531" lon="-2.863300032913685">
        <ele>478.87</ele>
        <time>2025-04-28T07:15:07Z</time>
      </trkpt>
      <trkpt lat="42.637917995452881" lon="-2.863447973504663">
        <ele>479.35000000000002</ele>
        <time>2025-04-28T07:15:08Z</time>
      </trkpt>
      <trkpt lat="42.637917995452881" lon="-2.863633967936039">
        <ele>479.35000000000002</ele>
        <time>2025-04-28T07:15:09Z</time>
      </trkpt>
      <trkpt lat="42.637948002666235" lon="-2.863779980689287">
        <ele>480.31999999999999</ele>
        <time>2025-04-28T07:15:10Z</time>
      </trkpt>
      <trkpt lat="42.63797901570797" lon="-2.86393404006958">
        <ele>480.80000000000001</ele>
        <time>2025-04-28T07:15:11Z</time>
      </trkpt>
      <trkpt lat="42.638007011264563" lon="-2.864078041166067">
        <ele>481.27999999999997</ele>
        <time>2025-04-28T07:15:12Z</time>
      </trkpt>
      <trkpt lat="42.638026038184762" lon="-2.864221036434174">
        <ele>482.24000000000001</ele>
        <time>2025-04-28T07:15:13Z</time>
      </trkpt>
      <trkpt lat="42.638026038184762" lon="-2.864375011995435">
        <ele>483.19999999999999</ele>
        <time>2025-04-28T07:15:14Z</time>
      </trkpt>
      <trkpt lat="42.637993013486266" lon="-2.864525970071554">
        <ele>484.16000000000003</ele>
        <time>2025-04-28T07:15:15Z</time>
      </trkpt>
      <trkpt lat="42.637950014322996" lon="-2.864683968946338">
        <ele>484.63999999999999</ele>
        <time>2025-04-28T07:15:16Z</time>
      </trkpt>
      <trkpt lat="42.637909026816487" lon="-2.864835010841489">
        <ele>485.12</ele>
        <time>2025-04-28T07:15:17Z</time>
      </trkpt>
      <trkpt lat="42.637845994904637" lon="-2.86494598723948">
        <ele>485.60000000000002</ele>
        <time>2025-04-28T07:15:18Z</time>
      </trkpt>
      <trkpt lat="42.637752033770084" lon="-2.865069033578038">
        <ele>485.60000000000002</ele>
        <time>2025-04-28T07:15:19Z</time>
      </trkpt>
      <trkpt lat="42.63765899464488" lon="-2.865190990269184">
        <ele>486.07999999999998</ele>
        <time>2025-04-28T07:15:20Z</time>
      </trkpt>
      <trkpt lat="42.637567967176437" lon="-2.865311019122601">
        <ele>486.07999999999998</ele>
        <time>2025-04-28T07:15:21Z</time>
      </trkpt>
      <trkpt lat="42.637478029355407" lon="-2.865444039925933">
        <ele>486.07999999999998</ele>
        <time>2025-04-28T07:15:22Z</time>
      </trkpt>
      <trkpt lat="42.637416003271937" lon="-2.865599021315575">
        <ele>486.07999999999998</ele>
        <time>2025-04-28T07:15:23Z</time>
      </trkpt>
      <trkpt lat="42.637355988845229" lon="-2.865746961906552">
        <ele>486.07999999999998</ele>
        <time>2025-04-28T07:15:24Z</time>
      </trkpt>
      <trkpt lat="42.637302009388804" lon="-2.865884006023407">
        <ele>485.60000000000002</ele>
        <time>2025-04-28T07:15:25Z</time>
      </trkpt>
      <trkpt lat="42.637275019660592" lon="-2.866038987413049">
        <ele>485.60000000000002</ele>
        <time>2025-04-28T07:15:26Z</time>
      </trkpt>
      <trkpt lat="42.637275019660592" lon="-2.866193968802691">
        <ele>485.60000000000002</ele>
        <time>2025-04-28T07:15:27Z</time>
      </trkpt>
      <trkpt lat="42.637316007167101" lon="-2.866344004869461">
        <ele>485.60000000000002</ele>
        <time>2025-04-28T07:15:28Z</time>
      </trkpt>
      <trkpt lat="42.637366969138384" lon="-2.866487000137568">
        <ele>486.07999999999998</ele>
        <time>2025-04-28T07:15:29Z</time>
      </trkpt>
      <trkpt lat="42.63742103241384" lon="-2.866637036204338">
        <ele>486.07999999999998</ele>
        <time>2025-04-28T07:15:30Z</time>
      </trkpt>
      <trkpt lat="42.637467971071601" lon="-2.866766033694148">
        <ele>486.07999999999998</ele>
        <time>2025-04-28T07:15:31Z</time>
      </trkpt>
      <trkpt lat="42.637492027133703" lon="-2.866958985105157">
        <ele>485.60000000000002</ele>
        <time>2025-04-28T07:15:32Z</time>
      </trkpt>
      <trkpt lat="42.637510970234871" lon="-2.867110027000308">
        <ele>485.60000000000002</ele>
        <time>2025-04-28T07:15:33Z</time>
      </trkpt>
      <trkpt lat="42.637488003820181" lon="-2.867315970361233">
        <ele>485.12</ele>
        <time>2025-04-28T07:15:34Z</time>
      </trkpt>
      <trkpt lat="42.63746696524322" lon="-2.86750397644937">
        <ele>485.12</ele>
        <time>2025-04-28T07:15:35Z</time>
      </trkpt>
      <trkpt lat="42.637446010485291" lon="-2.867693994194269">
        <ele>484.63999999999999</ele>
        <time>2025-04-28T07:15:36Z</time>
      </trkpt>
      <trkpt lat="42.637424971908331" lon="-2.867885017767549">
        <ele>484.63999999999999</ele>
        <time>2025-04-28T07:15:37Z</time>
      </trkpt>
      <trkpt lat="42.637404017150402" lon="-2.868067994713783">
        <ele>484.63999999999999</ele>
        <time>2025-04-28T07:15:38Z</time>
      </trkpt>
      <trkpt lat="42.637384990230203" lon="-2.868238985538483">
        <ele>484.63999999999999</ele>
        <time>2025-04-28T07:15:39Z</time>
      </trkpt>
      <trkpt lat="42.637398988008499" lon="-2.868413999676704">
        <ele>484.16000000000003</ele>
        <time>2025-04-28T07:15:40Z</time>
      </trkpt>
      <trkpt lat="42.637445004656911" lon="-2.868795040994883">
        <ele>484.63999999999999</ele>
        <time>2025-04-28T07:15:42Z</time>
      </trkpt>
      <trkpt lat="42.637469982728362" lon="-2.869000984355807">
        <ele>484.63999999999999</ele>
        <time>2025-04-28T07:15:43Z</time>
      </trkpt>
      <trkpt lat="42.637494960799813" lon="-2.869212962687016">
        <ele>484.63999999999999</ele>
        <time>2025-04-28T07:15:44Z</time>
      </trkpt>
      <trkpt lat="42.637538965791464" lon="-2.869413960725069">
        <ele>484.63999999999999</ele>
        <time>2025-04-28T07:15:45Z</time>
      </trkpt>
      <trkpt lat="42.637601997703314" lon="-2.869583023712039">
        <ele>485.12</ele>
        <time>2025-04-28T07:15:46Z</time>
      </trkpt>
      <trkpt lat="42.637663017958403" lon="-2.869744040071964">
        <ele>485.12</ele>
        <time>2025-04-28T07:15:47Z</time>
      </trkpt>
      <trkpt lat="42.637720014899969" lon="-2.869893992319703">
        <ele>485.12</ele>
        <time>2025-04-28T07:15:48Z</time>
      </trkpt>
      <trkpt lat="42.637753039598465" lon="-2.870063977316022">
        <ele>485.12</ele>
        <time>2025-04-28T07:15:49Z</time>
      </trkpt>
      <trkpt lat="42.63776502572" lon="-2.870257012546063">
        <ele>485.12</ele>
        <time>2025-04-28T07:15:50Z</time>
      </trkpt>
      <trkpt lat="42.637828979641199" lon="-2.871278012171388">
        <ele>484.16000000000003</ele>
        <time>2025-04-28T07:15:55Z</time>
      </trkpt>
      <trkpt lat="42.637862004339695" lon="-2.871451014652848">
        <ele>484.16000000000003</ele>
        <time>2025-04-28T07:15:56Z</time>
      </trkpt>
      <trkpt lat="42.637909026816487" lon="-2.871632985770702">
        <ele>484.16000000000003</ele>
        <time>2025-04-28T07:15:57Z</time>
      </trkpt>
      <trkpt lat="42.63795898295939" lon="-2.871826021000743">
        <ele>484.16000000000003</ele>
        <time>2025-04-28T07:15:58Z</time>
      </trkpt>
      <trkpt lat="42.638003993779421" lon="-2.872002040967345">
        <ele>484.16000000000003</ele>
        <time>2025-04-28T07:15:59Z</time>
      </trkpt>
      <trkpt lat="42.638085968792439" lon="-2.872182000428438">
        <ele>484.63999999999999</ele>
        <time>2025-04-28T07:16:00Z</time>
      </trkpt>
      <trkpt lat="42.638156963512301" lon="-2.872337987646461">
        <ele>484.63999999999999</ele>
        <time>2025-04-28T07:16:01Z</time>
      </trkpt>
      <trkpt lat="42.638226030394435" lon="-2.872491041198373">
        <ele>484.63999999999999</ele>
        <time>2025-04-28T07:16:02Z</time>
      </trkpt>
      <trkpt lat="42.638300964608788" lon="-2.872654991224408">
        <ele>485.12</ele>
        <time>2025-04-28T07:16:03Z</time>
      </trkpt>
      <trkpt lat="42.638353016227484" lon="-2.872838973999023">
        <ele>485.12</ele>
        <time>2025-04-28T07:16:04Z</time>
      </trkpt>
      <trkpt lat="42.638390986248851" lon="-2.873021028935909">
        <ele>485.12</ele>
        <time>2025-04-28T07:16:05Z</time>
      </trkpt>
      <trkpt lat="42.63842904008925" lon="-2.873204005882144">
        <ele>485.12</ele>
        <time>2025-04-28T07:16:06Z</time>
      </trkpt>
      <trkpt lat="42.638464998453856" lon="-2.873373990878463">
        <ele>485.60000000000002</ele>
        <time>2025-04-28T07:16:07Z</time>
      </trkpt>
      <trkpt lat="42.638499028980732" lon="-2.873537018895149">
        <ele>485.60000000000002</ele>
        <time>2025-04-28T07:16:08Z</time>
      </trkpt>
      <trkpt lat="42.638543033972383" lon="-2.873660987243056">
        <ele>486.56</ele>
        <time>2025-04-28T07:16:09Z</time>
      </trkpt>
      <trkpt lat="42.638633977621794" lon="-2.873769029974937">
        <ele>487.05000000000001</ele>
        <time>2025-04-28T07:16:10Z</time>
      </trkpt>
      <trkpt lat="42.638834975659847" lon="-2.874007998034358">
        <ele>488.00999999999999</ele>
        <time>2025-04-28T07:16:12Z</time>
      </trkpt>
      <trkpt lat="42.638930026441813" lon="-2.874159039929509">
        <ele>488.97000000000003</ele>
        <time>2025-04-28T07:16:13Z</time>
      </trkpt>
      <trkpt lat="42.639258010312915" lon="-2.874769996851683">
        <ele>489.93000000000001</ele>
        <time>2025-04-28T07:16:17Z</time>
      </trkpt>
      <trkpt lat="42.639320036396384" lon="-2.874944005161524">
        <ele>489.93000000000001</ele>
        <time>2025-04-28T07:16:18Z</time>
      </trkpt>
      <trkpt lat="42.640084968879819" lon="-2.8771470207721">
        <ele>491.85000000000002</ele>
        <time>2025-04-28T07:16:30Z</time>
      </trkpt>
      <trkpt lat="42.640233999118209" lon="-2.877499982714653">
        <ele>492.32999999999998</ele>
        <time>2025-04-28T07:16:32Z</time>
      </trkpt>
      <trkpt lat="42.640591990202665" lon="-2.878145975992084">
        <ele>492.32999999999998</ele>
        <time>2025-04-28T07:16:36Z</time>
      </trkpt>
      <trkpt lat="42.640662984922528" lon="-2.878323001787067">
        <ele>492.32999999999998</ele>
        <time>2025-04-28T07:16:37Z</time>
      </trkpt>
      <trkpt lat="42.641349965706468" lon="-2.879907013848424">
        <ele>493.29000000000002</ele>
        <time>2025-04-28T07:16:46Z</time>
      </trkpt>
      <trkpt lat="42.642187988385558" lon="-2.881149966269732">
        <ele>498.57999999999998</ele>
        <time>2025-04-28T07:16:54Z</time>
      </trkpt>
      <trkpt lat="42.642273986712098" lon="-2.881249962374568">
        <ele>499.06</ele>
        <time>2025-04-28T07:16:55Z</time>
      </trkpt>
      <trkpt lat="42.642324026674032" lon="-2.881375020369887">
        <ele>499.54000000000002</ele>
        <time>2025-04-28T07:16:56Z</time>
      </trkpt>
      <trkpt lat="42.642367025837302" lon="-2.881505023688078">
        <ele>499.54000000000002</ele>
        <time>2025-04-28T07:16:57Z</time>
      </trkpt>
      <trkpt lat="42.642396027222276" lon="-2.881671991199255">
        <ele>499.54000000000002</ele>
        <time>2025-04-28T07:16:58Z</time>
      </trkpt>
      <trkpt lat="42.64242603443563" lon="-2.88185203447938">
        <ele>499.54000000000002</ele>
        <time>2025-04-28T07:16:59Z</time>
      </trkpt>
      <trkpt lat="42.642589984461665" lon="-2.88258402608335">
        <ele>499.54000000000002</ele>
        <time>2025-04-28T07:17:03Z</time>
      </trkpt>
      <trkpt lat="42.642671959474683" lon="-2.882741019129753">
        <ele>499.54000000000002</ele>
        <time>2025-04-28T07:17:04Z</time>
      </trkpt>
      <trkpt lat="42.642983011901379" lon="-2.883332027122378">
        <ele>499.06</ele>
        <time>2025-04-28T07:17:08Z</time>
      </trkpt>
      <trkpt lat="42.64298896305263" lon="-2.883472004905343">
        <ele>499.06</ele>
        <time>2025-04-28T07:17:09Z</time>
      </trkpt>
      <trkpt lat="42.642997009679675" lon="-2.883628997951746">
        <ele>499.06</ele>
        <time>2025-04-28T07:17:10Z</time>
      </trkpt>
      <trkpt lat="42.643003966659307" lon="-2.883791020140052">
        <ele>498.57999999999998</ele>
        <time>2025-04-28T07:17:11Z</time>
      </trkpt>
      <trkpt lat="42.643012013286352" lon="-2.883952036499977">
        <ele>498.57999999999998</ele>
        <time>2025-04-28T07:17:12Z</time>
      </trkpt>
      <trkpt lat="42.643018970265985" lon="-2.88410902954638">
        <ele>498.10000000000002</ele>
        <time>2025-04-28T07:17:13Z</time>
      </trkpt>
      <trkpt lat="42.643059035763144" lon="-2.884267028421164">
        <ele>498.10000000000002</ele>
        <time>2025-04-28T07:17:14Z</time>
      </trkpt>
      <trkpt lat="42.643143022432923" lon="-2.884351015090942">
        <ele>498.10000000000002</ele>
        <time>2025-04-28T07:17:15Z</time>
      </trkpt>
      <trkpt lat="42.643236983567476" lon="-2.884444976225495">
        <ele>497.62</ele>
        <time>2025-04-28T07:17:16Z</time>
      </trkpt>
      <trkpt lat="42.643339997157454" lon="-2.884547989815474">
        <ele>497.62</ele>
        <time>2025-04-28T07:17:17Z</time>
      </trkpt>
      <trkpt lat="42.644007029011846" lon="-2.885318035259843">
        <ele>499.06</ele>
        <time>2025-04-28T07:17:24Z</time>
      </trkpt>
      <trkpt lat="42.644029995426536" lon="-2.885435968637466">
        <ele>499.06</ele>
        <time>2025-04-28T07:17:25Z</time>
      </trkpt>
      <trkpt lat="42.644054973497987" lon="-2.885584998875856">
        <ele>498.57999999999998</ele>
        <time>2025-04-28T07:17:26Z</time>
      </trkpt>
      <trkpt lat="42.644042987376451" lon="-2.885705027729273">
        <ele>498.57999999999998</ele>
        <time>2025-04-28T07:17:27Z</time>
      </trkpt>
      <trkpt lat="42.644027983769774" lon="-2.885848022997379">
        <ele>498.57999999999998</ele>
        <time>2025-04-28T07:17:28Z</time>
      </trkpt>
      <trkpt lat="42.644013985991478" lon="-2.885975008830428">
        <ele>498.57999999999998</ele>
        <time>2025-04-28T07:17:29Z</time>
      </trkpt>
      <trkpt lat="42.644066959619522" lon="-2.886060001328588">
        <ele>499.06</ele>
        <time>2025-04-28T07:17:30Z</time>
      </trkpt>
      <trkpt lat="42.644127979874611" lon="-2.886138036847115">
        <ele>499.06</ele>
        <time>2025-04-28T07:17:31Z</time>
      </trkpt>
      <trkpt lat="42.644200986251235" lon="-2.886228980496526">
        <ele>499.54000000000002</ele>
        <time>2025-04-28T07:17:32Z</time>
      </trkpt>
      <trkpt lat="42.644286984577775" lon="-2.886336017400026">
        <ele>499.54000000000002</ele>
        <time>2025-04-28T07:17:33Z</time>
      </trkpt>
      <trkpt lat="42.644373988732696" lon="-2.886459985747933">
        <ele>499.54000000000002</ele>
        <time>2025-04-28T07:17:34Z</time>
      </trkpt>
      <trkpt lat="42.644451018422842" lon="-2.886617984622717">
        <ele>499.06</ele>
        <time>2025-04-28T07:17:35Z</time>
      </trkpt>
      <trkpt lat="42.64453299343586" lon="-2.886789981275797">
        <ele>498.57999999999998</ele>
        <time>2025-04-28T07:17:36Z</time>
      </trkpt>
      <trkpt lat="42.644621003419161" lon="-2.886971030384302">
        <ele>498.10000000000002</ele>
        <time>2025-04-28T07:17:37Z</time>
      </trkpt>
      <trkpt lat="42.645372021943331" lon="-2.888559987768531">
        <ele>498.10000000000002</ele>
        <time>2025-04-28T07:17:46Z</time>
      </trkpt>
      <trkpt lat="42.645374033600092" lon="-2.888695020228624">
        <ele>498.10000000000002</ele>
        <time>2025-04-28T07:17:47Z</time>
      </trkpt>
      <trkpt lat="42.645356012508273" lon="-2.888846984133124">
        <ele>497.62</ele>
        <time>2025-04-28T07:17:48Z</time>
      </trkpt>
      <trkpt lat="42.645336985588074" lon="-2.889010012149811">
        <ele>497.62</ele>
        <time>2025-04-28T07:17:49Z</time>
      </trkpt>
      <trkpt lat="42.645320976153016" lon="-2.889146972447634">
        <ele>497.13999999999999</ele>
        <time>2025-04-28T07:17:50Z</time>
      </trkpt>
      <trkpt lat="42.645337991416454" lon="-2.889300025999546">
        <ele>497.13999999999999</ele>
        <time>2025-04-28T07:17:51Z</time>
      </trkpt>
      <trkpt lat="42.645376967266202" lon="-2.889380995184183">
        <ele>496.66000000000003</ele>
        <time>2025-04-28T07:17:52Z</time>
      </trkpt>
      <trkpt lat="42.645449973642826" lon="-2.889469005167484">
        <ele>496.66000000000003</ele>
        <time>2025-04-28T07:17:53Z</time>
      </trkpt>
      <trkpt lat="42.645525997504592" lon="-2.889507981017232">
        <ele>496.18000000000001</ele>
        <time>2025-04-28T07:17:54Z</time>
      </trkpt>
      <trkpt lat="42.645645020529628" lon="-2.889569001272321">
        <ele>495.22000000000003</ele>
        <time>2025-04-28T07:17:55Z</time>
      </trkpt>
      <trkpt lat="42.645771000534296" lon="-2.8896339610219">
        <ele>494.25999999999999</ele>
        <time>2025-04-28T07:17:56Z</time>
      </trkpt>
      <trkpt lat="42.646112982183695" lon="-2.889809980988503">
        <ele>492.81</ele>
        <time>2025-04-28T07:17:59Z</time>
      </trkpt>
      <trkpt lat="42.64621096663177" lon="-2.889930009841919">
        <ele>492.81</ele>
        <time>2025-04-28T07:18:00Z</time>
      </trkpt>
      <trkpt lat="42.646284978836775" lon="-2.890066970139742">
        <ele>492.32999999999998</ele>
        <time>2025-04-28T07:18:01Z</time>
      </trkpt>
      <trkpt lat="42.647030968219042" lon="-2.891614018008113">
        <ele>490.88999999999999</ele>
        <time>2025-04-28T07:18:10Z</time>
      </trkpt>
      <trkpt lat="42.647267002612352" lon="-2.892225980758667">
        <ele>491.85000000000002</ele>
        <time>2025-04-28T07:18:14Z</time>
      </trkpt>
      <trkpt lat="42.647284017875791" lon="-2.892398983240128">
        <ele>491.85000000000002</ele>
        <time>2025-04-28T07:18:15Z</time>
      </trkpt>
      <trkpt lat="42.647340008988976" lon="-2.89293902926147">
        <ele>492.81</ele>
        <time>2025-04-28T07:18:18Z</time>
      </trkpt>
      <trkpt lat="42.647354006767273" lon="-2.893079007044435">
        <ele>492.81</ele>
        <time>2025-04-28T07:18:19Z</time>
      </trkpt>
      <trkpt lat="42.647403040900826" lon="-2.893169028684497">
        <ele>492.81</ele>
        <time>2025-04-28T07:18:20Z</time>
      </trkpt>
      <trkpt lat="42.647483004257083" lon="-2.893226025626063">
        <ele>492.81</ele>
        <time>2025-04-28T07:18:21Z</time>
      </trkpt>
      <trkpt lat="42.647579982876778" lon="-2.89326298981905">
        <ele>493.29000000000002</ele>
        <time>2025-04-28T07:18:22Z</time>
      </trkpt>
      <trkpt lat="42.647696994245052" lon="-2.893285034224391">
        <ele>493.29000000000002</ele>
        <time>2025-04-28T07:18:23Z</time>
      </trkpt>
      <trkpt lat="42.647823980078101" lon="-2.893259972333908">
        <ele>493.29000000000002</ele>
        <time>2025-04-28T07:18:24Z</time>
      </trkpt>
      <trkpt lat="42.647946020588279" lon="-2.893234994262457">
        <ele>493.29000000000002</ele>
        <time>2025-04-28T07:18:25Z</time>
      </trkpt>
      <trkpt lat="42.648054985329509" lon="-2.893214039504528">
        <ele>493.29000000000002</ele>
        <time>2025-04-28T07:18:26Z</time>
      </trkpt>
      <trkpt lat="42.6481659617275" lon="-2.893190989270806">
        <ele>493.76999999999998</ele>
        <time>2025-04-28T07:18:27Z</time>
      </trkpt>
      <trkpt lat="42.648281967267394" lon="-2.893223008140922">
        <ele>494.25999999999999</ele>
        <time>2025-04-28T07:18:28Z</time>
      </trkpt>
      <trkpt lat="42.648405013605952" lon="-2.893304983153939">
        <ele>494.74000000000001</ele>
        <time>2025-04-28T07:18:29Z</time>
      </trkpt>
      <trkpt lat="42.648536022752523" lon="-2.89339299313724">
        <ele>495.22000000000003</ele>
        <time>2025-04-28T07:18:30Z</time>
      </trkpt>
      <trkpt lat="42.648657979443669" lon="-2.893502041697502">
        <ele>495.69999999999999</ele>
        <time>2025-04-28T07:18:31Z</time>
      </trkpt>
      <trkpt lat="42.649083025753498" lon="-2.893925998359919">
        <ele>496.66000000000003</ele>
        <time>2025-04-28T07:18:35Z</time>
      </trkpt>
      <trkpt lat="42.649126024916768" lon="-2.894006967544556">
        <ele>496.66000000000003</ele>
        <time>2025-04-28T07:18:36Z</time>
      </trkpt>
      <trkpt lat="42.649151002988219" lon="-2.894126996397972">
        <ele>496.18000000000001</ele>
        <time>2025-04-28T07:18:37Z</time>
      </trkpt>
      <trkpt lat="42.649176986888051" lon="-2.894249958917499">
        <ele>495.69999999999999</ele>
        <time>2025-04-28T07:18:38Z</time>
      </trkpt>
      <trkpt lat="42.649201964959502" lon="-2.894368981942534">
        <ele>495.22000000000003</ele>
        <time>2025-04-28T07:18:39Z</time>
      </trkpt>
      <trkpt lat="42.649243958294392" lon="-2.894499991089106">
        <ele>494.74000000000001</ele>
        <time>2025-04-28T07:18:40Z</time>
      </trkpt>
      <trkpt lat="42.649327022954822" lon="-2.89455003105104">
        <ele>494.25999999999999</ele>
        <time>2025-04-28T07:18:41Z</time>
      </trkpt>
      <trkpt lat="42.649424001574516" lon="-2.89455397054553">
        <ele>493.29000000000002</ele>
        <time>2025-04-28T07:18:42Z</time>
      </trkpt>
      <trkpt lat="42.649507988244295" lon="-2.89455397054553">
        <ele>492.81</ele>
        <time>2025-04-28T07:18:43Z</time>
      </trkpt>
      <trkpt lat="42.649587029591203" lon="-2.89455397054553">
        <ele>492.81</ele>
        <time>2025-04-28T07:18:44Z</time>
      </trkpt>
      <trkpt lat="42.649637991562486" lon="-2.89459596388042">
        <ele>492.81</ele>
        <time>2025-04-28T07:18:45Z</time>
      </trkpt>
      <trkpt lat="42.649676967412233" lon="-2.894661007449031">
        <ele>493.29000000000002</ele>
        <time>2025-04-28T07:18:46Z</time>
      </trkpt>
      <trkpt lat="42.649676967412233" lon="-2.894791010767222">
        <ele>493.29000000000002</ele>
        <time>2025-04-28T07:18:47Z</time>
      </trkpt>
      <trkpt lat="42.649676967412233" lon="-2.894935011863709">
        <ele>493.29000000000002</ele>
        <time>2025-04-28T07:18:48Z</time>
      </trkpt>
      <trkpt lat="42.649654000997543" lon="-2.895082030445337">
        <ele>493.29000000000002</ele>
        <time>2025-04-28T07:18:49Z</time>
      </trkpt>
      <trkpt lat="42.649622987955809" lon="-2.895242040976882">
        <ele>492.81</ele>
        <time>2025-04-28T07:18:50Z</time>
      </trkpt>
      <trkpt lat="42.649592980742455" lon="-2.895399034023285">
        <ele>492.81</ele>
        <time>2025-04-28T07:18:51Z</time>
      </trkpt>
      <trkpt lat="42.649570014327765" lon="-2.89551998488605">
        <ele>492.81</ele>
        <time>2025-04-28T07:18:52Z</time>
      </trkpt>
      <trkpt lat="42.649607984349132" lon="-2.895660968497396">
        <ele>492.81</ele>
        <time>2025-04-28T07:18:53Z</time>
      </trkpt>
      <trkpt lat="42.649637991562486" lon="-2.895757025107741">
        <ele>492.81</ele>
        <time>2025-04-28T07:18:54Z</time>
      </trkpt>
      <trkpt lat="42.649714015424252" lon="-2.895788038149476">
        <ele>492.32999999999998</ele>
        <time>2025-04-28T07:18:55Z</time>
      </trkpt>
      <trkpt lat="42.649795990437269" lon="-2.89577697403729">
        <ele>492.32999999999998</ele>
        <time>2025-04-28T07:18:56Z</time>
      </trkpt>
      <trkpt lat="42.64988400042057" lon="-2.895716959610581">
        <ele>491.85000000000002</ele>
        <time>2025-04-28T07:18:57Z</time>
      </trkpt>
      <trkpt lat="42.649972010403872" lon="-2.895619980990887">
        <ele>491.85000000000002</ele>
        <time>2025-04-28T07:18:58Z</time>
      </trkpt>
      <trkpt lat="42.650244003161788" lon="-2.895318986847997">
        <ele>490.88999999999999</ele>
        <time>2025-04-28T07:19:01Z</time>
      </trkpt>
      <trkpt lat="42.650326984003186" lon="-2.895262995734811">
        <ele>490.88999999999999</ele>
        <time>2025-04-28T07:19:02Z</time>
      </trkpt>
      <trkpt lat="42.650411976501346" lon="-2.895268024876714">
        <ele>490.88999999999999</ele>
        <time>2025-04-28T07:19:03Z</time>
      </trkpt>
      <trkpt lat="42.650513984262943" lon="-2.895327033475041">
        <ele>490.41000000000003</ele>
        <time>2025-04-28T07:19:04Z</time>
      </trkpt>
      <trkpt lat="42.650568969547749" lon="-2.895426023751497">
        <ele>490.41000000000003</ele>
        <time>2025-04-28T07:19:05Z</time>
      </trkpt>
      <trkpt lat="42.650638036429882" lon="-2.895567007362843">
        <ele>490.41000000000003</ele>
        <time>2025-04-28T07:19:06Z</time>
      </trkpt>
      <trkpt lat="42.650696961209178" lon="-2.895731963217259">
        <ele>490.41000000000003</ele>
        <time>2025-04-28T07:19:07Z</time>
      </trkpt>
      <trkpt lat="42.651426019147038" lon="-2.897829031571746">
        <ele>489.44999999999999</ele>
        <time>2025-04-28T07:19:19Z</time>
      </trkpt>
      <trkpt lat="42.651737993583083" lon="-2.898616008460522">
        <ele>488.49000000000001</ele>
        <time>2025-04-28T07:19:24Z</time>
      </trkpt>
      <trkpt lat="42.651828015223145" lon="-2.898754980415106">
        <ele>488.49000000000001</ele>
        <time>2025-04-28T07:19:25Z</time>
      </trkpt>
      <trkpt lat="42.651936979964375" lon="-2.898857994005084">
        <ele>488.49000000000001</ele>
        <time>2025-04-28T07:19:26Z</time>
      </trkpt>
      <trkpt lat="42.652641981840134" lon="-2.89942997507751">
        <ele>490.41000000000003</ele>
        <time>2025-04-28T07:19:33Z</time>
      </trkpt>
      <trkpt lat="42.653313037008047" lon="-2.899990975856781">
        <ele>491.85000000000002</ele>
        <time>2025-04-28T07:19:42Z</time>
      </trkpt>
      <trkpt lat="42.653411021456122" lon="-2.900069011375308">
        <ele>492.32999999999998</ele>
        <time>2025-04-28T07:19:43Z</time>
      </trkpt>
      <trkpt lat="42.65347296372056" lon="-2.900131037458777">
        <ele>493.29000000000002</ele>
        <time>2025-04-28T07:19:44Z</time>
      </trkpt>
      <trkpt lat="42.653626017272472" lon="-2.900284007191658">
        <ele>494.25999999999999</ele>
        <time>2025-04-28T07:19:46Z</time>
      </trkpt>
      <trkpt lat="42.654013009741902" lon="-2.900695977732539">
        <ele>495.22000000000003</ele>
        <time>2025-04-28T07:19:52Z</time>
      </trkpt>
      <trkpt lat="42.654182994738221" lon="-2.900907034054399">
        <ele>495.69999999999999</ele>
        <time>2025-04-28T07:19:55Z</time>
      </trkpt>
      <trkpt lat="42.654268993064761" lon="-2.901012981310487">
        <ele>495.69999999999999</ele>
        <time>2025-04-28T07:19:56Z</time>
      </trkpt>
      <trkpt lat="42.654318027198315" lon="-2.901045000180602">
        <ele>496.18000000000001</ele>
        <time>2025-04-28T07:19:57Z</time>
      </trkpt>
      <trkpt lat="42.654476026073098" lon="-2.901146002113819">
        <ele>496.66000000000003</ele>
        <time>2025-04-28T07:19:59Z</time>
      </trkpt>
      <trkpt lat="42.654559006914496" lon="-2.901195036247373">
        <ele>496.66000000000003</ele>
        <time>2025-04-28T07:20:00Z</time>
      </trkpt>
      <trkpt lat="42.654725974425673" lon="-2.901295032352209">
        <ele>496.66000000000003</ele>
        <time>2025-04-28T07:20:02Z</time>
      </trkpt>
      <trkpt lat="42.654826976358891" lon="-2.901355968788266">
        <ele>496.66000000000003</ele>
        <time>2025-04-28T07:20:03Z</time>
      </trkpt>
      <trkpt lat="42.654878022149205" lon="-2.901416989043355">
        <ele>496.18000000000001</ele>
        <time>2025-04-28T07:20:04Z</time>
      </trkpt>
      <trkpt lat="42.654950022697449" lon="-2.901523020118475">
        <ele>496.18000000000001</ele>
        <time>2025-04-28T07:20:05Z</time>
      </trkpt>
      <trkpt lat="42.65499796718359" lon="-2.90164397098124">
        <ele>495.69999999999999</ele>
        <time>2025-04-28T07:20:06Z</time>
      </trkpt>
      <trkpt lat="42.655187984928489" lon="-2.902118973433971">
        <ele>494.74000000000001</ele>
        <time>2025-04-28T07:20:10Z</time>
      </trkpt>
      <trkpt lat="42.655269037932158" lon="-2.902227016165853">
        <ele>494.25999999999999</ele>
        <time>2025-04-28T07:20:11Z</time>
      </trkpt>
      <trkpt lat="42.655532984063029" lon="-2.902600010856986">
        <ele>491.85000000000002</ele>
        <time>2025-04-28T07:20:14Z</time>
      </trkpt>
      <trkpt lat="42.655609007924795" lon="-2.90275901556015">
        <ele>491.37</ele>
        <time>2025-04-28T07:20:15Z</time>
      </trkpt>
      <trkpt lat="42.655688971281052" lon="-2.902926988899708">
        <ele>490.41000000000003</ele>
        <time>2025-04-28T07:20:16Z</time>
      </trkpt>
      <trkpt lat="42.655759966000915" lon="-2.903112983331084">
        <ele>489.44999999999999</ele>
        <time>2025-04-28T07:20:17Z</time>
      </trkpt>
      <trkpt lat="42.655819980427623" lon="-2.903313981369138">
        <ele>488.97000000000003</ele>
        <time>2025-04-28T07:20:18Z</time>
      </trkpt>
      <trkpt lat="42.656253995373845" lon="-2.905140984803438">
        <ele>481.27999999999997</ele>
        <time>2025-04-28T07:20:27Z</time>
      </trkpt>
      <trkpt lat="42.656760010868311" lon="-2.906568003818393">
        <ele>477.43000000000001</ele>
        <time>2025-04-28T07:20:36Z</time>
      </trkpt>
      <trkpt lat="42.656829999759793" lon="-2.906663976609707">
        <ele>476.94999999999999</ele>
        <time>2025-04-28T07:20:37Z</time>
      </trkpt>
      <trkpt lat="42.656913986429572" lon="-2.906751986593008">
        <ele>476.94999999999999</ele>
        <time>2025-04-28T07:20:38Z</time>
      </trkpt>
      <trkpt lat="42.657005013898015" lon="-2.906786017119885">
        <ele>476.94999999999999</ele>
        <time>2025-04-28T07:20:39Z</time>
      </trkpt>
      <trkpt lat="42.657084977254272" lon="-2.906911997124553">
        <ele>476.94999999999999</ele>
        <time>2025-04-28T07:20:40Z</time>
      </trkpt>
      <trkpt lat="42.65712303109467" lon="-2.907063961029053">
        <ele>476.47000000000003</ele>
        <time>2025-04-28T07:20:41Z</time>
      </trkpt>
      <trkpt lat="42.65716603025794" lon="-2.907174015417695">
        <ele>476.47000000000003</ele>
        <time>2025-04-28T07:20:42Z</time>
      </trkpt>
      <trkpt lat="42.657711021602154" lon="-2.908574966713786">
        <ele>475.50999999999999</ele>
        <time>2025-04-28T07:20:52Z</time>
      </trkpt>
      <trkpt lat="42.658608974888921" lon="-2.910835985094309">
        <ele>471.18000000000001</ele>
        <time>2025-04-28T07:21:06Z</time>
      </trkpt>
      <trkpt lat="42.659823009744287" lon="-2.913894038647413">
        <ele>465.42000000000002</ele>
        <time>2025-04-28T07:21:24Z</time>
      </trkpt>
      <trkpt lat="42.660130960866809" lon="-2.914669029414654">
        <ele>464.93000000000001</ele>
        <time>2025-04-28T07:21:30Z</time>
      </trkpt>
      <trkpt lat="42.660513008013368" lon="-2.915513003244996">
        <ele>465.42000000000002</ele>
        <time>2025-04-28T07:21:37Z</time>
      </trkpt>
      <trkpt lat="42.661501988768578" lon="-2.917382000014186">
        <ele>466.86000000000001</ele>
        <time>2025-04-28T07:21:49Z</time>
      </trkpt>
      <trkpt lat="42.662750976160169" lon="-2.919741002842784">
        <ele>469.25999999999999</ele>
        <time>2025-04-28T07:22:03Z</time>
      </trkpt>
      <trkpt lat="42.663625963032246" lon="-2.921393997967243">
        <ele>472.13999999999999</ele>
        <time>2025-04-28T07:22:14Z</time>
      </trkpt>
      <trkpt lat="42.663754038512707" lon="-2.921633971855044">
        <ele>471.66000000000003</ele>
        <time>2025-04-28T07:22:17Z</time>
      </trkpt>
      <trkpt lat="42.663867026567459" lon="-2.921792976558209">
        <ele>471.66000000000003</ele>
        <time>2025-04-28T07:22:18Z</time>
      </trkpt>
      <trkpt lat="42.663879012688994" lon="-2.92192499153316">
        <ele>471.66000000000003</ele>
        <time>2025-04-28T07:22:19Z</time>
      </trkpt>
      <trkpt lat="42.663918994367123" lon="-2.922210982069373">
        <ele>471.66000000000003</ele>
        <time>2025-04-28T07:22:21Z</time>
      </trkpt>
      <trkpt lat="42.66395696438849" lon="-2.922352971509099">
        <ele>472.13999999999999</ele>
        <time>2025-04-28T07:22:22Z</time>
      </trkpt>
      <trkpt lat="42.664031982421875" lon="-2.922621024772525">
        <ele>472.13999999999999</ele>
        <time>2025-04-28T07:22:24Z</time>
      </trkpt>
      <trkpt lat="42.664054026827216" lon="-2.922819005325437">
        <ele>472.13999999999999</ele>
        <time>2025-04-28T07:22:25Z</time>
      </trkpt>
      <trkpt lat="42.664071964100003" lon="-2.922992007806897">
        <ele>472.63</ele>
        <time>2025-04-28T07:22:26Z</time>
      </trkpt>
      <trkpt lat="42.664366001263261" lon="-2.924959994852543">
        <ele>472.63</ele>
        <time>2025-04-28T07:22:36Z</time>
      </trkpt>
      <trkpt lat="42.664835974574089" lon="-2.926814993843436">
        <ele>471.66000000000003</ele>
        <time>2025-04-28T07:22:45Z</time>
      </trkpt>
      <trkpt lat="42.665105033665895" lon="-2.928981967270374">
        <ele>468.30000000000001</ele>
        <time>2025-04-28T07:22:55Z</time>
      </trkpt>
      <trkpt lat="42.665638960897923" lon="-2.930802013725042">
        <ele>468.30000000000001</ele>
        <time>2025-04-28T07:23:05Z</time>
      </trkpt>
      <trkpt lat="42.666394002735615" lon="-2.932325005531311">
        <ele>470.69999999999999</ele>
        <time>2025-04-28T07:23:15Z</time>
      </trkpt>
      <trkpt lat="42.666917033493519" lon="-2.933232011273503">
        <ele>472.13999999999999</ele>
        <time>2025-04-28T07:23:23Z</time>
      </trkpt>
      <trkpt lat="42.668057978153229" lon="-2.935038981959224">
        <ele>471.66000000000003</ele>
        <time>2025-04-28T07:23:38Z</time>
      </trkpt>
      <trkpt lat="42.668587965890765" lon="-2.935937019065023">
        <ele>470.22000000000003</ele>
        <time>2025-04-28T07:23:46Z</time>
      </trkpt>
      <trkpt lat="42.668658960610628" lon="-2.936080014333129">
        <ele>470.22000000000003</ele>
        <time>2025-04-28T07:23:47Z</time>
      </trkpt>
      <trkpt lat="42.6696050260216" lon="-2.937235962599516">
        <ele>467.33999999999997</ele>
        <time>2025-04-28T07:23:56Z</time>
      </trkpt>
      <trkpt lat="42.670675981789827" lon="-2.938227038830519">
        <ele>466.38</ele>
        <time>2025-04-28T07:24:07Z</time>
      </trkpt>
      <trkpt lat="42.672110963612795" lon="-2.939582979306579">
        <ele>465.89999999999998</ele>
        <time>2025-04-28T07:24:22Z</time>
      </trkpt>
      <trkpt lat="42.67323799431324" lon="-2.940699029713869">
        <ele>465.89999999999998</ele>
        <time>2025-04-28T07:24:34Z</time>
      </trkpt>
      <trkpt lat="42.674554036930203" lon="-2.942246999591589">
        <ele>466.86000000000001</ele>
        <time>2025-04-28T07:24:49Z</time>
      </trkpt>
      <trkpt lat="42.675574030727148" lon="-2.944171987473965">
        <ele>465.42000000000002</ele>
        <time>2025-04-28T07:25:04Z</time>
      </trkpt>
      <trkpt lat="42.67643803730607" lon="-2.945845015347004">
        <ele>464.44999999999999</ele>
        <time>2025-04-28T07:25:17Z</time>
      </trkpt>
      <trkpt lat="42.67716902308166" lon="-2.946808012202382">
        <ele>463.97000000000003</ele>
        <time>2025-04-28T07:25:26Z</time>
      </trkpt>
      <trkpt lat="42.677266001701355" lon="-2.94684698805213">
        <ele>463.49000000000001</ele>
        <time>2025-04-28T07:25:27Z</time>
      </trkpt>
      <trkpt lat="42.677359040826559" lon="-2.94684698805213">
        <ele>463.49000000000001</ele>
        <time>2025-04-28T07:25:28Z</time>
      </trkpt>
      <trkpt lat="42.677453001961112" lon="-2.94684698805213">
        <ele>463.49000000000001</ele>
        <time>2025-04-28T07:25:29Z</time>
      </trkpt>
      <trkpt lat="42.677544029429555" lon="-2.946873977780342">
        <ele>463.00999999999999</ele>
        <time>2025-04-28T07:25:30Z</time>
      </trkpt>
      <trkpt lat="42.677617035806179" lon="-2.946936003863812">
        <ele>463.00999999999999</ele>
        <time>2025-04-28T07:25:31Z</time>
      </trkpt>
      <trkpt lat="42.677689958363771" lon="-2.947014961391687">
        <ele>463.00999999999999</ele>
        <time>2025-04-28T07:25:32Z</time>
      </trkpt>
      <trkpt lat="42.677765982225537" lon="-2.947098026052117">
        <ele>463.00999999999999</ele>
        <time>2025-04-28T07:25:33Z</time>
      </trkpt>
      <trkpt lat="42.677935967221856" lon="-2.947258036583662">
        <ele>463.00999999999999</ele>
        <time>2025-04-28T07:25:35Z</time>
      </trkpt>
      <trkpt lat="42.678024983033538" lon="-2.947329031303525">
        <ele>463.00999999999999</ele>
        <time>2025-04-28T07:25:36Z</time>
      </trkpt>
      <trkpt lat="42.678116010501981" lon="-2.947373958304524">
        <ele>463.00999999999999</ele>
        <time>2025-04-28T07:25:37Z</time>
      </trkpt>
      <trkpt lat="42.678447011858225" lon="-2.947462974116206">
        <ele>462.52999999999997</ele>
        <time>2025-04-28T07:25:41Z</time>
      </trkpt>
      <trkpt lat="42.678512977436185" lon="-2.94749197550118">
        <ele>462.05000000000001</ele>
        <time>2025-04-28T07:25:42Z</time>
      </trkpt>
      <trkpt lat="42.678571986034513" lon="-2.947517037391663">
        <ele>462.05000000000001</ele>
        <time>2025-04-28T07:25:43Z</time>
      </trkpt>
      <trkpt lat="42.678812965750694" lon="-2.947605969384313">
        <ele>461.56999999999999</ele>
        <time>2025-04-28T07:25:47Z</time>
      </trkpt>
      <trkpt lat="42.678882032632828" lon="-2.947624996304512">
        <ele>461.56999999999999</ele>
        <time>2025-04-28T07:25:48Z</time>
      </trkpt>
      <trkpt lat="42.679589968174696" lon="-2.94781300239265">
        <ele>462.05000000000001</ele>
        <time>2025-04-28T07:25:57Z</time>
      </trkpt>
      <trkpt lat="42.680253982543945" lon="-2.947935964912176">
        <ele>463.49000000000001</ele>
        <time>2025-04-28T07:26:08Z</time>
      </trkpt>
      <trkpt lat="42.680373005568981" lon="-2.947949040681124">
        <ele>463.97000000000003</ele>
        <time>2025-04-28T07:26:10Z</time>
      </trkpt>
      <trkpt lat="42.681117989122868" lon="-2.947949962690473">
        <ele>464.44999999999999</ele>
        <time>2025-04-28T07:26:22Z</time>
      </trkpt>
      <trkpt lat="42.681870013475418" lon="-2.947940994054079">
        <ele>465.42000000000002</ele>
        <time>2025-04-28T07:26:34Z</time>
      </trkpt>
      <trkpt lat="42.682636035606265" lon="-2.947894977405667">
        <ele>465.42000000000002</ele>
        <time>2025-04-28T07:26:46Z</time>
      </trkpt>
      <trkpt lat="42.682703007012606" lon="-2.947891037911177">
        <ele>465.42000000000002</ele>
        <time>2025-04-28T07:26:47Z</time>
      </trkpt>
      <trkpt lat="42.682902999222279" lon="-2.947880979627371">
        <ele>465.42000000000002</ele>
        <time>2025-04-28T07:26:50Z</time>
      </trkpt>
      <trkpt lat="42.682964019477367" lon="-2.94787704013288">
        <ele>464.93000000000001</ele>
        <time>2025-04-28T07:26:51Z</time>
      </trkpt>
      <trkpt lat="42.683019004762173" lon="-2.9478760343045">
        <ele>464.93000000000001</ele>
        <time>2025-04-28T07:26:52Z</time>
      </trkpt>
      <trkpt lat="42.683166023343801" lon="-2.9478760343045">
        <ele>465.42000000000002</ele>
        <time>2025-04-28T07:26:55Z</time>
      </trkpt>
      <trkpt lat="42.683281023055315" lon="-2.947875028476119">
        <ele>465.42000000000002</ele>
        <time>2025-04-28T07:26:57Z</time>
      </trkpt>
      <trkpt lat="42.683342965319753" lon="-2.947873016819358">
        <ele>465.89999999999998</ele>
        <time>2025-04-28T07:26:58Z</time>
      </trkpt>
      <trkpt lat="42.683404991403222" lon="-2.947872010990977">
        <ele>465.89999999999998</ele>
        <time>2025-04-28T07:26:59Z</time>
      </trkpt>
      <trkpt lat="42.683513034135103" lon="-2.947868993505836">
        <ele>466.38</ele>
        <time>2025-04-28T07:27:01Z</time>
      </trkpt>
      <trkpt lat="42.683556033298373" lon="-2.947867987677455">
        <ele>466.86000000000001</ele>
        <time>2025-04-28T07:27:02Z</time>
      </trkpt>
      <trkpt lat="42.683596014976501" lon="-2.947866981849074">
        <ele>466.86000000000001</ele>
        <time>2025-04-28T07:27:03Z</time>
      </trkpt>
      <trkpt lat="42.683698022738099" lon="-2.947863964363933">
        <ele>467.81999999999999</ele>
        <time>2025-04-28T07:27:06Z</time>
      </trkpt>
      <trkpt lat="42.683739010244608" lon="-2.947862958535552">
        <ele>469.74000000000001</ele>
        <time>2025-04-28T07:27:15Z</time>
      </trkpt>
      <trkpt lat="42.683777986094356" lon="-2.947862036526203">
        <ele>470.22000000000003</ele>
        <time>2025-04-28T07:27:23Z</time>
      </trkpt>
      <trkpt lat="42.683797013014555" lon="-2.947862036526203">
        <ele>470.22000000000003</ele>
        <time>2025-04-28T07:27:24Z</time>
      </trkpt>
      <trkpt lat="42.683817967772484" lon="-2.947861030697823">
        <ele>470.22000000000003</ele>
        <time>2025-04-28T07:27:25Z</time>
      </trkpt>
      <trkpt lat="42.683943025767803" lon="-2.947858013212681">
        <ele>471.66000000000003</ele>
        <time>2025-04-28T07:27:35Z</time>
      </trkpt>
      <trkpt lat="42.684348961338401" lon="-2.947844015434384">
        <ele>473.11000000000001</ele>
        <time>2025-04-28T07:27:42Z</time>
      </trkpt>
      <trkpt lat="42.684416016563773" lon="-2.947840997949243">
        <ele>473.11000000000001</ele>
        <time>2025-04-28T07:27:43Z</time>
      </trkpt>
      <trkpt lat="42.684487011283636" lon="-2.947837980464101">
        <ele>473.58999999999997</ele>
        <time>2025-04-28T07:27:44Z</time>
      </trkpt>
      <trkpt lat="42.684749029576778" lon="-2.94783404096961">
        <ele>473.58999999999997</ele>
        <time>2025-04-28T07:27:48Z</time>
      </trkpt>
      <trkpt lat="42.684813989326358" lon="-2.94783404096961">
        <ele>473.58999999999997</ele>
        <time>2025-04-28T07:27:49Z</time>
      </trkpt>
      <trkpt lat="42.684871992096305" lon="-2.947838986292481">
        <ele>474.06999999999999</ele>
        <time>2025-04-28T07:27:50Z</time>
      </trkpt>
      <trkpt lat="42.684918008744717" lon="-2.947842003777623">
        <ele>474.06999999999999</ele>
        <time>2025-04-28T07:27:51Z</time>
      </trkpt>
      <trkpt lat="42.684956984594464" lon="-2.947845021262765">
        <ele>474.06999999999999</ele>
        <time>2025-04-28T07:27:52Z</time>
      </trkpt>
      <trkpt lat="42.685014987364411" lon="-2.947849966585636">
        <ele>474.55000000000001</ele>
        <time>2025-04-28T07:28:00Z</time>
      </trkpt>
      <trkpt lat="42.685081958770752" lon="-2.947854995727539">
        <ele>474.55000000000001</ele>
        <time>2025-04-28T07:28:34Z</time>
      </trkpt>
      <trkpt lat="42.685214979574084" lon="-2.947834962978959">
        <ele>476.47000000000003</ele>
        <time>2025-04-28T07:28:40Z</time>
      </trkpt>
      <trkpt lat="42.685259990394115" lon="-2.947828005999327">
        <ele>476.47000000000003</ele>
        <time>2025-04-28T07:28:41Z</time>
      </trkpt>
      <trkpt lat="42.685307012870908" lon="-2.947820965200663">
        <ele>476.47000000000003</ele>
        <time>2025-04-28T07:28:42Z</time>
      </trkpt>
      <trkpt lat="42.68548496067524" lon="-2.9477499704808">
        <ele>475.99000000000001</ele>
        <time>2025-04-28T07:28:46Z</time>
      </trkpt>
      <trkpt lat="42.685575988143682" lon="-2.947704959660769">
        <ele>475.50999999999999</ele>
        <time>2025-04-28T07:28:47Z</time>
      </trkpt>
      <trkpt lat="42.685603983700275" lon="-2.947723986580968">
        <ele>475.50999999999999</ele>
        <time>2025-04-28T07:28:48Z</time>
      </trkpt>
      <trkpt lat="42.685660980641842" lon="-2.947808979079127">
        <ele>475.02999999999997</ele>
        <time>2025-04-28T07:28:49Z</time>
      </trkpt>
      <trkpt lat="42.685642959550023" lon="-2.947907969355583">
        <ele>475.02999999999997</ele>
        <time>2025-04-28T07:28:50Z</time>
      </trkpt>
      <trkpt lat="42.685593003407121" lon="-2.947957003489137">
        <ele>474.55000000000001</ele>
        <time>2025-04-28T07:28:51Z</time>
      </trkpt>
      <trkpt lat="42.685556039214134" lon="-2.94798600487411">
        <ele>474.55000000000001</ele>
        <time>2025-04-28T07:28:52Z</time>
      </trkpt>
      <trkpt lat="42.685518991202116" lon="-2.948015006259084">
        <ele>474.06999999999999</ele>
        <time>2025-04-28T07:28:53Z</time>
      </trkpt>
      <trkpt lat="42.68535596318543" lon="-2.948144003748894">
        <ele>472.63</ele>
        <time>2025-04-28T07:28:57Z</time>
      </trkpt>
      <trkpt lat="42.685275999829173" lon="-2.948207035660744">
        <ele>472.13999999999999</ele>
        <time>2025-04-28T07:28:59Z</time>
      </trkpt>
      <trkpt lat="42.685240041464567" lon="-2.948236037045717">
        <ele>472.13999999999999</ele>
        <time>2025-04-28T07:29:00Z</time>
      </trkpt>
      <trkpt lat="42.685213973745704" lon="-2.948213992640376">
        <ele>472.13999999999999</ele>
        <time>2025-04-28T07:29:01Z</time>
      </trkpt>
      <trkpt lat="42.685190001502633" lon="-2.94817702844739">
        <ele>472.13999999999999</ele>
        <time>2025-04-28T07:29:02Z</time>
      </trkpt>
      <trkpt lat="42.685190001502633" lon="-2.94817702844739">
        <ele>471.66000000000003</ele>
        <time>2025-04-28T07:29:03Z</time>
      </trkpt>
      <trkpt lat="42.685190001502633" lon="-2.94817702844739">
        <ele>471.18000000000001</ele>
        <time>2025-04-28T07:29:04Z</time>
      </trkpt>
      <trkpt lat="42.685167035087943" lon="-2.947928002104163">
        <ele>471.18000000000001</ele>
        <time>2025-04-28T07:29:05Z</time>
      </trkpt>
      <trkpt lat="42.685126969590783" lon="-2.947893971577287">
        <ele>471.18000000000001</ele>
        <time>2025-04-28T07:29:06Z</time>
      </trkpt>
      <trkpt lat="42.685087993741035" lon="-2.947860024869442">
        <ele>470.69999999999999</ele>
        <time>2025-04-28T07:29:07Z</time>
      </trkpt>
      <trkpt lat="42.68500903621316" lon="-2.947848960757256">
        <ele>470.69999999999999</ele>
        <time>2025-04-28T07:29:08Z</time>
      </trkpt>
      <trkpt lat="42.684986991807818" lon="-2.947848038747907">
        <ele>470.22000000000003</ele>
        <time>2025-04-28T07:29:09Z</time>
      </trkpt>
      <trkpt lat="42.684938963502645" lon="-2.947844015434384">
        <ele>469.25999999999999</ele>
        <time>2025-04-28T07:29:12Z</time>
      </trkpt>
      <trkpt lat="42.684917002916336" lon="-2.947842003777623">
        <ele>469.25999999999999</ele>
        <time>2025-04-28T07:29:13Z</time>
      </trkpt>
      <trkpt lat="42.684888001531363" lon="-2.947839992120862">
        <ele>468.77999999999997</ele>
        <time>2025-04-28T07:29:14Z</time>
      </trkpt>
      <trkpt lat="42.684400007128716" lon="-2.947842003777623">
        <ele>464.44999999999999</ele>
        <time>2025-04-28T07:29:24Z</time>
      </trkpt>
      <trkpt lat="42.684351978823543" lon="-2.947843009606004">
        <ele>463.97000000000003</ele>
        <time>2025-04-28T07:29:25Z</time>
      </trkpt>
      <trkpt lat="42.684213006868958" lon="-2.947848960757256">
        <ele>463.97000000000003</ele>
        <time>2025-04-28T07:29:28Z</time>
      </trkpt>
      <trkpt lat="42.684166990220547" lon="-2.947850972414017">
        <ele>463.49000000000001</ele>
        <time>2025-04-28T07:29:29Z</time>
      </trkpt>
      <trkpt lat="42.684123991057277" lon="-2.947851978242397">
        <ele>463.49000000000001</ele>
        <time>2025-04-28T07:29:30Z</time>
      </trkpt>
      <trkpt lat="42.684090966358781" lon="-2.947853989899159">
        <ele>463.49000000000001</ele>
        <time>2025-04-28T07:29:31Z</time>
      </trkpt>
      <trkpt lat="42.684051990509033" lon="-2.947854995727539">
        <ele>463.49000000000001</ele>
        <time>2025-04-28T07:29:32Z</time>
      </trkpt>
      <trkpt lat="42.683974038809538" lon="-2.9478570073843">
        <ele>464.44999999999999</ele>
        <time>2025-04-28T07:29:36Z</time>
      </trkpt>
      <trkpt lat="42.683959035202861" lon="-2.9478570073843">
        <ele>464.44999999999999</ele>
        <time>2025-04-28T07:29:37Z</time>
      </trkpt>
      <trkpt lat="42.683955011889338" lon="-2.9478570073843">
        <ele>464.44999999999999</ele>
        <time>2025-04-28T07:29:38Z</time>
      </trkpt>
      <trkpt lat="42.683955011889338" lon="-2.9478570073843">
        <ele>464.93000000000001</ele>
        <time>2025-04-28T07:29:55Z</time>
      </trkpt>
      <trkpt lat="42.684033969417214" lon="-2.947850972414017">
        <ele>489.93000000000001</ele>
        <time>2025-04-28T07:51:12Z</time>
      </trkpt>
      <trkpt lat="42.683933973312378" lon="-2.947971001267433">
        <ele>462.05000000000001</ele>
        <time>2025-04-28T07:51:42Z</time>
      </trkpt>
      <trkpt lat="42.68391402438283" lon="-2.948038978502154">
        <ele>463.00999999999999</ele>
        <time>2025-04-28T07:52:13Z</time>
      </trkpt>
      <trkpt lat="42.683855015784502" lon="-2.947989022359252">
        <ele>465.42000000000002</ele>
        <time>2025-04-28T07:52:26Z</time>
      </trkpt>
      <trkpt lat="42.683826014399529" lon="-2.947861030697823">
        <ele>465.42000000000002</ele>
        <time>2025-04-28T07:52:29Z</time>
      </trkpt>
      <trkpt lat="42.68378796055913" lon="-2.947862036526203">
        <ele>465.42000000000002</ele>
        <time>2025-04-28T07:52:30Z</time>
      </trkpt>
      <trkpt lat="42.683568019419909" lon="-2.947866981849074">
        <ele>464.44999999999999</ele>
        <time>2025-04-28T07:52:34Z</time>
      </trkpt>
      <trkpt lat="42.683317987248302" lon="-2.947874022647739">
        <ele>463.49000000000001</ele>
        <time>2025-04-28T07:52:42Z</time>
      </trkpt>
      <trkpt lat="42.683312958106399" lon="-2.947874022647739">
        <ele>464.44999999999999</ele>
        <time>2025-04-28T07:52:44Z</time>
      </trkpt>
      <trkpt lat="42.683652006089687" lon="-2.947864970192313">
        <ele>466.38</ele>
        <time>2025-04-28T07:52:51Z</time>
      </trkpt>
      <trkpt lat="42.683784021064639" lon="-2.947862036526203">
        <ele>466.86000000000001</ele>
        <time>2025-04-28T07:52:58Z</time>
      </trkpt>
      <trkpt lat="42.683991976082325" lon="-2.9478570073843">
        <ele>466.38</ele>
        <time>2025-04-28T07:53:08Z</time>
      </trkpt>
      <trkpt lat="42.684282995760441" lon="-2.947846027091146">
        <ele>466.86000000000001</ele>
        <time>2025-04-28T07:53:12Z</time>
      </trkpt>
      <trkpt lat="42.684698989614844" lon="-2.94783404096961">
        <ele>467.33999999999997</ele>
        <time>2025-04-28T07:53:20Z</time>
      </trkpt>
      <trkpt lat="42.68475397489965" lon="-2.94783404096961">
        <ele>467.81999999999999</ele>
        <time>2025-04-28T07:53:21Z</time>
      </trkpt>
      <trkpt lat="42.684804014861584" lon="-2.94783404096961">
        <ele>467.81999999999999</ele>
        <time>2025-04-28T07:53:22Z</time>
      </trkpt>
      <trkpt lat="42.684940975159407" lon="-2.947844015434384">
        <ele>471.18000000000001</ele>
        <time>2025-04-28T07:53:32Z</time>
      </trkpt>
      <trkpt lat="42.685059998184443" lon="-2.947852984070778">
        <ele>474.55000000000001</ele>
        <time>2025-04-28T07:54:12Z</time>
      </trkpt>
      <trkpt lat="42.685110960155725" lon="-2.947850972414017">
        <ele>474.06999999999999</ele>
        <time>2025-04-28T07:54:13Z</time>
      </trkpt>
      <trkpt lat="42.685168962925673" lon="-2.947842003777623">
        <ele>474.06999999999999</ele>
        <time>2025-04-28T07:54:14Z</time>
      </trkpt>
      <trkpt lat="42.685228977352381" lon="-2.94783303514123">
        <ele>473.58999999999997</ele>
        <time>2025-04-28T07:54:15Z</time>
      </trkpt>
      <trkpt lat="42.685286980122328" lon="-2.947823982685804">
        <ele>473.11000000000001</ele>
        <time>2025-04-28T07:54:16Z</time>
      </trkpt>
      <trkpt lat="42.685402985662222" lon="-2.94779104180634">
        <ele>473.11000000000001</ele>
        <time>2025-04-28T07:54:17Z</time>
      </trkpt>
      <trkpt lat="42.685402985662222" lon="-2.94779104180634">
        <ele>473.58999999999997</ele>
        <time>2025-04-28T07:54:18Z</time>
      </trkpt>
      <trkpt lat="42.685499964281917" lon="-2.947743013501167">
        <ele>473.11000000000001</ele>
        <time>2025-04-28T07:54:19Z</time>
      </trkpt>
      <trkpt lat="42.685499964281917" lon="-2.947743013501167">
        <ele>473.11000000000001</ele>
        <time>2025-04-28T07:54:20Z</time>
      </trkpt>
      <trkpt lat="42.685540029779077" lon="-2.947722980752587">
        <ele>473.58999999999997</ele>
        <time>2025-04-28T07:54:21Z</time>
      </trkpt>
      <trkpt lat="42.685575988143682" lon="-2.947704959660769">
        <ele>473.58999999999997</ele>
        <time>2025-04-28T07:54:22Z</time>
      </trkpt>
      <trkpt lat="42.685618987306952" lon="-2.947733961045742">
        <ele>473.58999999999997</ele>
        <time>2025-04-28T07:54:23Z</time>
      </trkpt>
      <trkpt lat="42.685640025883913" lon="-2.947747958824039">
        <ele>474.06999999999999</ele>
        <time>2025-04-28T07:54:24Z</time>
      </trkpt>
      <trkpt lat="42.685713032260537" lon="-2.947805961593986">
        <ele>474.55000000000001</ele>
        <time>2025-04-28T07:54:25Z</time>
      </trkpt>
      <trkpt lat="42.685766005888581" lon="-2.947800010442734">
        <ele>475.02999999999997</ele>
        <time>2025-04-28T07:54:26Z</time>
      </trkpt>
      <trkpt lat="42.685821997001767" lon="-2.94779397547245">
        <ele>475.02999999999997</ele>
        <time>2025-04-28T07:54:27Z</time>
      </trkpt>
      <trkpt lat="42.686166996136308" lon="-2.947754999622703">
        <ele>476.94999999999999</ele>
        <time>2025-04-28T07:54:32Z</time>
      </trkpt>
      <trkpt lat="42.686270009726286" lon="-2.947743013501167">
        <ele>476.94999999999999</ele>
        <time>2025-04-28T07:54:34Z</time>
      </trkpt>
      <trkpt lat="42.68632298335433" lon="-2.947736978530884">
        <ele>476.94999999999999</ele>
        <time>2025-04-28T07:54:35Z</time>
      </trkpt>
      <trkpt lat="42.686445023864508" lon="-2.947797998785973">
        <ele>476.94999999999999</ele>
        <time>2025-04-28T07:54:36Z</time>
      </trkpt>
      <trkpt lat="42.686481988057494" lon="-2.947880979627371">
        <ele>476.47000000000003</ele>
        <time>2025-04-28T07:54:37Z</time>
      </trkpt>
      <trkpt lat="42.686521969735622" lon="-2.947961026802659">
        <ele>475.99000000000001</ele>
        <time>2025-04-28T07:54:38Z</time>
      </trkpt>
      <trkpt lat="42.686565974727273" lon="-2.948040990158916">
        <ele>475.99000000000001</ele>
        <time>2025-04-28T07:54:39Z</time>
      </trkpt>
      <trkpt lat="42.686565974727273" lon="-2.948040990158916">
        <ele>475.50999999999999</ele>
        <time>2025-04-28T07:54:40Z</time>
      </trkpt>
      <trkpt lat="42.686634035781026" lon="-2.948139980435371">
        <ele>475.02999999999997</ele>
        <time>2025-04-28T07:54:41Z</time>
      </trkpt>
      <trkpt lat="42.686724979430437" lon="-2.948231007903814">
        <ele>473.58999999999997</ele>
        <time>2025-04-28T07:54:48Z</time>
      </trkpt>
      <trkpt lat="42.686804020777345" lon="-2.948310971260071">
        <ele>472.63</ele>
        <time>2025-04-28T07:54:52Z</time>
      </trkpt>
      <trkpt lat="42.686834027990699" lon="-2.948338966816664">
        <ele>472.13999999999999</ele>
        <time>2025-04-28T07:54:53Z</time>
      </trkpt>
      <trkpt lat="42.686871998012066" lon="-2.94837299734354">
        <ele>471.66000000000003</ele>
        <time>2025-04-28T07:54:54Z</time>
      </trkpt>
      <trkpt lat="42.686918014660478" lon="-2.948412979021668">
        <ele>471.18000000000001</ele>
        <time>2025-04-28T07:54:55Z</time>
      </trkpt>
      <trkpt lat="42.686960007995367" lon="-2.948451032862067">
        <ele>471.18000000000001</ele>
        <time>2025-04-28T07:54:56Z</time>
      </trkpt>
      <trkpt lat="42.686996972188354" lon="-2.948483973741531">
        <ele>470.69999999999999</ele>
        <time>2025-04-28T07:54:57Z</time>
      </trkpt>
      <trkpt lat="42.687024967744946" lon="-2.948507023975253">
        <ele>470.69999999999999</ele>
        <time>2025-04-28T07:54:58Z</time>
      </trkpt>
      <trkpt lat="42.687052041292191" lon="-2.948527978733182">
        <ele>470.22000000000003</ele>
        <time>2025-04-28T07:54:59Z</time>
      </trkpt>
      <trkpt lat="42.687149019911885" lon="-2.948601990938187">
        <ele>468.77999999999997</ele>
        <time>2025-04-28T07:55:03Z</time>
      </trkpt>
      <trkpt lat="42.687233006581664" lon="-2.948667034506798">
        <ele>467.81999999999999</ele>
        <time>2025-04-28T07:55:05Z</time>
      </trkpt>
      <trkpt lat="42.68763299100101" lon="-2.948972973972559">
        <ele>466.38</ele>
        <time>2025-04-28T07:55:14Z</time>
      </trkpt>
      <trkpt lat="42.687650006264448" lon="-2.948985965922475">
        <ele>466.38</ele>
        <time>2025-04-28T07:55:15Z</time>
      </trkpt>
      <trkpt lat="42.687717983499169" lon="-2.949101971462369">
        <ele>466.38</ele>
        <time>2025-04-28T07:55:16Z</time>
      </trkpt>
      <trkpt lat="42.687704991549253" lon="-2.949126027524471">
        <ele>465.42000000000002</ele>
        <time>2025-04-28T07:55:17Z</time>
      </trkpt>
      <trkpt lat="42.687685964629054" lon="-2.949158968403935">
        <ele>464.93000000000001</ele>
        <time>2025-04-28T07:55:18Z</time>
      </trkpt>
      <trkpt lat="42.687664004042745" lon="-2.949200039729476">
        <ele>464.44999999999999</ele>
        <time>2025-04-28T07:55:19Z</time>
      </trkpt>
      <trkpt lat="42.687630979344249" lon="-2.949257958680391">
        <ele>463.49000000000001</ele>
        <time>2025-04-28T07:55:20Z</time>
      </trkpt>
      <trkpt lat="42.687430987134576" lon="-2.94961896724999">
        <ele>460.61000000000001</ele>
        <time>2025-04-28T07:55:25Z</time>
      </trkpt>
      <trkpt lat="42.687253039330244" lon="-2.949938988313079">
        <ele>455.31999999999999</ele>
        <time>2025-04-28T07:55:33Z</time>
      </trkpt>
      <trkpt lat="42.687238035723567" lon="-2.949966983869672">
        <ele>454.36000000000001</ele>
        <time>2025-04-28T07:55:34Z</time>
      </trkpt>
      <trkpt lat="42.687226971611381" lon="-2.949986010789871">
        <ele>451</ele>
        <time>2025-04-28T07:55:44Z</time>
      </trkpt>
      <trkpt lat="42.687181038782001" lon="-2.95006899163127">
        <ele>450.02999999999997</ele>
        <time>2025-04-28T07:55:46Z</time>
      </trkpt>
      <trkpt lat="42.687164023518562" lon="-2.950097993016243">
        <ele>450.02999999999997</ele>
        <time>2025-04-28T07:55:47Z</time>
      </trkpt>
      <trkpt lat="42.687130998820066" lon="-2.950250962749124">
        <ele>449.55000000000001</ele>
        <time>2025-04-28T07:55:49Z</time>
      </trkpt>
      <trkpt lat="42.687181038782001" lon="-2.95030795969069">
        <ele>449.55000000000001</ele>
        <time>2025-04-28T07:55:50Z</time>
      </trkpt>
      <trkpt lat="42.68735496327281" lon="-2.950500994920731">
        <ele>449.55000000000001</ele>
        <time>2025-04-28T07:55:53Z</time>
      </trkpt>
      <trkpt lat="42.68741799518466" lon="-2.950569977983832">
        <ele>450.02999999999997</ele>
        <time>2025-04-28T07:55:54Z</time>
      </trkpt>
      <trkpt lat="42.687827032059431" lon="-2.950985971838236">
        <ele>451.95999999999998</ele>
        <time>2025-04-28T07:56:00Z</time>
      </trkpt>
      <trkpt lat="42.688297005370259" lon="-2.951483018696308">
        <ele>451</ele>
        <time>2025-04-28T07:56:04Z</time>
      </trkpt>
      <trkpt lat="42.688373029232025" lon="-2.951568011194468">
        <ele>451.95999999999998</ele>
        <time>2025-04-28T07:56:06Z</time>
      </trkpt>
      <trkpt lat="42.688631024211645" lon="-2.951880991458893">
        <ele>457.72000000000003</ele>
        <time>2025-04-28T07:56:13Z</time>
      </trkpt>
      <trkpt lat="42.688672011718154" lon="-2.951929019764066">
        <ele>459.17000000000002</ele>
        <time>2025-04-28T07:56:15Z</time>
      </trkpt>
      <trkpt lat="42.688816012814641" lon="-2.951932037249208">
        <ele>460.13</ele>
        <time>2025-04-28T07:56:16Z</time>
      </trkpt>
      <trkpt lat="42.688816012814641" lon="-2.951932037249208">
        <ele>460.61000000000001</ele>
        <time>2025-04-28T07:56:17Z</time>
      </trkpt>
      <trkpt lat="42.688816012814641" lon="-2.951932037249208">
        <ele>461.08999999999997</ele>
        <time>2025-04-28T07:56:18Z</time>
      </trkpt>
      <trkpt lat="42.688816012814641" lon="-2.951932037249208">
        <ele>462.05000000000001</ele>
        <time>2025-04-28T07:56:19Z</time>
      </trkpt>
      <trkpt lat="42.68903000280261" lon="-2.951837992295623">
        <ele>462.52999999999997</ele>
        <time>2025-04-28T07:56:20Z</time>
      </trkpt>
      <trkpt lat="42.689055986702442" lon="-2.951752999797463">
        <ele>463.00999999999999</ele>
        <time>2025-04-28T07:56:21Z</time>
      </trkpt>
      <trkpt lat="42.689120024442673" lon="-2.95157203450799">
        <ele>463.49000000000001</ele>
        <time>2025-04-28T07:56:22Z</time>
      </trkpt>
      <trkpt lat="42.689120024442673" lon="-2.95157203450799">
        <ele>464.93000000000001</ele>
        <time>2025-04-28T07:56:23Z</time>
      </trkpt>
      <trkpt lat="42.689154976978898" lon="-2.951477989554405">
        <ele>465.89999999999998</ele>
        <time>2025-04-28T07:56:24Z</time>
      </trkpt>
      <trkpt lat="42.689597038552165" lon="-2.95022196136415">
        <ele>470.22000000000003</ele>
        <time>2025-04-28T07:56:34Z</time>
      </trkpt>
      <trkpt lat="42.690178994089365" lon="-2.948288004845381">
        <ele>471.18000000000001</ele>
        <time>2025-04-28T07:56:46Z</time>
      </trkpt>
      <trkpt lat="42.690601022914052" lon="-2.946842964738607">
        <ele>473.58999999999997</ele>
        <time>2025-04-28T07:56:55Z</time>
      </trkpt>
      <trkpt lat="42.690647961571813" lon="-2.946712961420417">
        <ele>473.58999999999997</ele>
        <time>2025-04-28T07:56:56Z</time>
      </trkpt>
      <trkpt lat="42.69070697017014" lon="-2.946602990850806">
        <ele>473.58999999999997</ele>
        <time>2025-04-28T07:56:57Z</time>
      </trkpt>
      <trkpt lat="42.690748041495681" lon="-2.946347007527947">
        <ele>473.58999999999997</ele>
        <time>2025-04-28T07:56:59Z</time>
      </trkpt>
      <trkpt lat="42.690763967111707" lon="-2.946236031129956">
        <ele>473.58999999999997</ele>
        <time>2025-04-28T07:57:00Z</time>
      </trkpt>
      <trkpt lat="42.69083496183157" lon="-2.946150032803416">
        <ele>473.58999999999997</ele>
        <time>2025-04-28T07:57:01Z</time>
      </trkpt>
      <trkpt lat="42.69087603315711" lon="-2.94611700810492">
        <ele>473.58999999999997</ele>
        <time>2025-04-28T07:57:02Z</time>
      </trkpt>
      <trkpt lat="42.690958008170128" lon="-2.946124970912933">
        <ele>474.06999999999999</ele>
        <time>2025-04-28T07:57:03Z</time>
      </trkpt>
      <trkpt lat="42.691034032031894" lon="-2.946133017539978">
        <ele>473.58999999999997</ele>
        <time>2025-04-28T07:57:04Z</time>
      </trkpt>
      <trkpt lat="42.691094968467951" lon="-2.946146009489894">
        <ele>473.58999999999997</ele>
        <time>2025-04-28T07:57:05Z</time>
      </trkpt>
      <trkpt lat="42.691166969016194" lon="-2.94633200392127">
        <ele>473.11000000000001</ele>
        <time>2025-04-28T07:57:06Z</time>
      </trkpt>
      <trkpt lat="42.691184990108013" lon="-2.946450021117926">
        <ele>473.11000000000001</ele>
        <time>2025-04-28T07:57:07Z</time>
      </trkpt>
      <trkpt lat="42.691205022856593" lon="-2.946568038314581">
        <ele>472.63</ele>
        <time>2025-04-28T07:57:08Z</time>
      </trkpt>
      <trkpt lat="42.691223965957761" lon="-2.946692006662488">
        <ele>472.13999999999999</ele>
        <time>2025-04-28T07:57:09Z</time>
      </trkpt>
      <trkpt lat="42.691240981221199" lon="-2.94684698805213">
        <ele>472.13999999999999</ele>
        <time>2025-04-28T07:57:10Z</time>
      </trkpt>
      <trkpt lat="42.691277023404837" lon="-2.94695402495563">
        <ele>471.66000000000003</ele>
        <time>2025-04-28T07:57:11Z</time>
      </trkpt>
      <trkpt lat="42.691683964803815" lon="-2.947936970740557">
        <ele>473.58999999999997</ele>
        <time>2025-04-28T07:57:20Z</time>
      </trkpt>
      <trkpt lat="42.692281007766724" lon="-2.9495769739151">
        <ele>474.55000000000001</ele>
        <time>2025-04-28T07:57:32Z</time>
      </trkpt>
      <trkpt lat="42.692816024646163" lon="-2.950967028737068">
        <ele>475.99000000000001</ele>
        <time>2025-04-28T07:57:43Z</time>
      </trkpt>
      <trkpt lat="42.693509040400386" lon="-2.952783973887563">
        <ele>475.99000000000001</ele>
        <time>2025-04-28T07:57:56Z</time>
      </trkpt>
      <trkpt lat="42.693954035639763" lon="-2.953903963789344">
        <ele>475.99000000000001</ele>
        <time>2025-04-28T07:58:05Z</time>
      </trkpt>
      <trkpt lat="42.694045985117555" lon="-2.954118037596345">
        <ele>476.47000000000003</ele>
        <time>2025-04-28T07:58:11Z</time>
      </trkpt>
      <trkpt lat="42.694181017577648" lon="-2.954142009839416">
        <ele>476.47000000000003</ele>
        <time>2025-04-28T07:58:12Z</time>
      </trkpt>
      <trkpt lat="42.694181017577648" lon="-2.954142009839416">
        <ele>476.47000000000003</ele>
        <time>2025-04-28T07:58:13Z</time>
      </trkpt>
      <trkpt lat="42.694225022569299" lon="-2.954179979860783">
        <ele>476.47000000000003</ele>
        <time>2025-04-28T07:58:14Z</time>
      </trkpt>
      <trkpt lat="42.694279002025723" lon="-2.954227002337575">
        <ele>476.47000000000003</ele>
        <time>2025-04-28T07:58:15Z</time>
      </trkpt>
      <trkpt lat="42.694341028109193" lon="-2.954307971522212">
        <ele>476.47000000000003</ele>
        <time>2025-04-28T07:58:16Z</time>
      </trkpt>
      <trkpt lat="42.694373968988657" lon="-2.954420959576964">
        <ele>475.50999999999999</ele>
        <time>2025-04-28T07:58:18Z</time>
      </trkpt>
      <trkpt lat="42.694285959005356" lon="-2.954703010618687">
        <ele>475.02999999999997</ele>
        <time>2025-04-28T07:58:19Z</time>
      </trkpt>
      <trkpt lat="42.694328036159277" lon="-2.954802000895143">
        <ele>474.55000000000001</ele>
        <time>2025-04-28T07:58:20Z</time>
      </trkpt>
      <trkpt lat="42.694376986473799" lon="-2.954915994778276">
        <ele>474.06999999999999</ele>
        <time>2025-04-28T07:58:21Z</time>
      </trkpt>
      <trkpt lat="42.694431971758604" lon="-2.955038035288453">
        <ele>473.58999999999997</ele>
        <time>2025-04-28T07:58:22Z</time>
      </trkpt>
      <trkpt lat="42.695072013884783" lon="-2.956504030153155">
        <ele>475.02999999999997</ele>
        <time>2025-04-28T07:58:32Z</time>
      </trkpt>
      <trkpt lat="42.696003997698426" lon="-2.958412002772093">
        <ele>474.55000000000001</ele>
        <time>2025-04-28T07:58:44Z</time>
      </trkpt>
      <trkpt lat="42.697160029783845" lon="-2.960107997059822">
        <ele>475.99000000000001</ele>
        <time>2025-04-28T07:58:55Z</time>
      </trkpt>
      <trkpt lat="42.69835202023387" lon="-2.961410963907838">
        <ele>476.94999999999999</ele>
        <time>2025-04-28T07:59:05Z</time>
      </trkpt>
      <trkpt lat="42.69945097155869" lon="-2.962589040398598">
        <ele>477.43000000000001</ele>
        <time>2025-04-28T07:59:17Z</time>
      </trkpt>
      <trkpt lat="42.699517020955682" lon="-2.962655005976558">
        <ele>477.43000000000001</ele>
        <time>2025-04-28T07:59:18Z</time>
      </trkpt>
      <trkpt lat="42.699645012617111" lon="-2.962664980441332">
        <ele>477.43000000000001</ele>
        <time>2025-04-28T07:59:19Z</time>
      </trkpt>
      <trkpt lat="42.699721958488226" lon="-2.962626004591584">
        <ele>476.94999999999999</ele>
        <time>2025-04-28T07:59:21Z</time>
      </trkpt>
      <trkpt lat="42.699811980128288" lon="-2.962606977671385">
        <ele>476.47000000000003</ele>
        <time>2025-04-28T07:59:22Z</time>
      </trkpt>
      <trkpt lat="42.69992396235466" lon="-2.962657017633319">
        <ele>475.50999999999999</ele>
        <time>2025-04-28T07:59:23Z</time>
      </trkpt>
      <trkpt lat="42.700006021186709" lon="-2.962798001244664">
        <ele>475.50999999999999</ele>
        <time>2025-04-28T07:59:24Z</time>
      </trkpt>
      <trkpt lat="42.700033010914922" lon="-2.962933033704758">
        <ele>475.02999999999997</ele>
        <time>2025-04-28T07:59:25Z</time>
      </trkpt>
      <trkpt lat="42.700038040056825" lon="-2.962961029261351">
        <ele>475.02999999999997</ele>
        <time>2025-04-28T07:59:26Z</time>
      </trkpt>
      <trkpt lat="42.700017001479864" lon="-2.963291024789214">
        <ele>475.02999999999997</ele>
        <time>2025-04-28T07:59:27Z</time>
      </trkpt>
      <trkpt lat="42.700124038383365" lon="-2.963411975651979">
        <ele>474.55000000000001</ele>
        <time>2025-04-28T07:59:28Z</time>
      </trkpt>
      <trkpt lat="42.700930964201689" lon="-2.964341025799513">
        <ele>475.50999999999999</ele>
        <time>2025-04-28T07:59:36Z</time>
      </trkpt>
      <trkpt lat="42.702043997123837" lon="-2.965652961283922">
        <ele>477.43000000000001</ele>
        <time>2025-04-28T07:59:44Z</time>
      </trkpt>
      <trkpt lat="42.703705038875341" lon="-2.967632012441754">
        <ele>479.35000000000002</ele>
        <time>2025-04-28T07:59:54Z</time>
      </trkpt>
      <trkpt lat="42.70510096102953" lon="-2.969429008662701">
        <ele>478.87</ele>
        <time>2025-04-28T08:00:05Z</time>
      </trkpt>
      <trkpt lat="42.706872979179025" lon="-2.972066039219499">
        <ele>480.80000000000001</ele>
        <time>2025-04-28T08:00:18Z</time>
      </trkpt>
      <trkpt lat="42.708531003445387" lon="-2.974428981542587">
        <ele>480.80000000000001</ele>
        <time>2025-04-28T08:00:29Z</time>
      </trkpt>
      <trkpt lat="42.710142005234957" lon="-2.976213991641998">
        <ele>476.94999999999999</ele>
        <time>2025-04-28T08:00:40Z</time>
      </trkpt>
      <trkpt lat="42.712668981403112" lon="-2.978724958375096">
        <ele>475.02999999999997</ele>
        <time>2025-04-28T08:00:58Z</time>
      </trkpt>
      <trkpt lat="42.71444602869451" lon="-2.980500999838114">
        <ele>475.50999999999999</ele>
        <time>2025-04-28T08:01:11Z</time>
      </trkpt>
      <trkpt lat="42.715311963111162" lon="-2.981345979496837">
        <ele>475.02999999999997</ele>
        <time>2025-04-28T08:01:20Z</time>
      </trkpt>
      <trkpt lat="42.71657302044332" lon="-2.982627991586924">
        <ele>475.99000000000001</ele>
        <time>2025-04-28T08:01:33Z</time>
      </trkpt>
      <trkpt lat="42.71676798351109" lon="-2.982823960483074">
        <ele>475.99000000000001</ele>
        <time>2025-04-28T08:01:35Z</time>
      </trkpt>
      <trkpt lat="42.716865967959166" lon="-2.982922028750181">
        <ele>475.99000000000001</ele>
        <time>2025-04-28T08:01:36Z</time>
      </trkpt>
      <trkpt lat="42.717870958149433" lon="-2.983804978430271">
        <ele>483.68000000000001</ele>
        <time>2025-04-28T08:01:46Z</time>
      </trkpt>
      <trkpt lat="42.719075018540025" lon="-2.984190965071321">
        <ele>486.56</ele>
        <time>2025-04-28T08:01:56Z</time>
      </trkpt>
      <trkpt lat="42.720737988129258" lon="-2.984793959185481">
        <ele>486.07999999999998</ele>
        <time>2025-04-28T08:02:08Z</time>
      </trkpt>
      <trkpt lat="42.722688959911466" lon="-2.985610021278262">
        <ele>485.60000000000002</ele>
        <time>2025-04-28T08:02:19Z</time>
      </trkpt>
      <trkpt lat="42.724339021369815" lon="-2.986824978142977">
        <ele>487.52999999999997</ele>
        <time>2025-04-28T08:02:28Z</time>
      </trkpt>
      <trkpt lat="42.725840974599123" lon="-2.988447966054082">
        <ele>488.97000000000003</ele>
        <time>2025-04-28T08:02:39Z</time>
      </trkpt>
      <trkpt lat="42.725942982360721" lon="-2.988611999899149">
        <ele>488.97000000000003</ele>
        <time>2025-04-28T08:02:41Z</time>
      </trkpt>
      <trkpt lat="42.726042978465557" lon="-2.988771004602313">
        <ele>488.97000000000003</ele>
        <time>2025-04-28T08:02:42Z</time>
      </trkpt>
      <trkpt lat="42.726152027025819" lon="-2.988946018740535">
        <ele>488.97000000000003</ele>
        <time>2025-04-28T08:02:43Z</time>
      </trkpt>
      <trkpt lat="42.72622000426054" lon="-2.98912899568677">
        <ele>488.49000000000001</ele>
        <time>2025-04-28T08:02:44Z</time>
      </trkpt>
      <trkpt lat="42.726292004808784" lon="-2.989325970411301">
        <ele>488.97000000000003</ele>
        <time>2025-04-28T08:02:45Z</time>
      </trkpt>
      <trkpt lat="42.726784022524953" lon="-2.991400994360447">
        <ele>486.07999999999998</ele>
        <time>2025-04-28T08:02:53Z</time>
      </trkpt>
      <trkpt lat="42.727565970271826" lon="-2.993387002497912">
        <ele>478.87</ele>
        <time>2025-04-28T08:03:03Z</time>
      </trkpt>
      <trkpt lat="42.729232963174582" lon="-2.996784020215273">
        <ele>479.35000000000002</ele>
        <time>2025-04-28T08:03:20Z</time>
      </trkpt>
      <trkpt lat="42.730972040444613" lon="-2.999756997451186">
        <ele>477.91000000000003</ele>
        <time>2025-04-28T08:03:35Z</time>
      </trkpt>
      <trkpt lat="42.733032982796431" lon="-3.002999033778906">
        <ele>477.91000000000003</ele>
        <time>2025-04-28T08:03:50Z</time>
      </trkpt>
      <trkpt lat="42.735198028385639" lon="-3.006312986835837">
        <ele>479.35000000000002</ele>
        <time>2025-04-28T08:04:07Z</time>
      </trkpt>
      <trkpt lat="42.73666201159358" lon="-3.008395973592997">
        <ele>481.75999999999999</ele>
        <time>2025-04-28T08:04:19Z</time>
      </trkpt>
      <trkpt lat="42.738178968429565" lon="-3.010359015315771">
        <ele>478.38999999999999</ele>
        <time>2025-04-28T08:04:31Z</time>
      </trkpt>
      <trkpt lat="42.739342041313648" lon="-3.012275034561753">
        <ele>477.91000000000003</ele>
        <time>2025-04-28T08:04:41Z</time>
      </trkpt>
      <trkpt lat="42.740907026454806" lon="-3.015152961015701">
        <ele>477.43000000000001</ele>
        <time>2025-04-28T08:04:54Z</time>
      </trkpt>
      <trkpt lat="42.741583026945591" lon="-3.016421981155872">
        <ele>478.38999999999999</ele>
        <time>2025-04-28T08:05:00Z</time>
      </trkpt>
      <trkpt lat="42.741674976423383" lon="-3.016632031649351">
        <ele>478.38999999999999</ele>
        <time>2025-04-28T08:05:01Z</time>
      </trkpt>
      <trkpt lat="42.741749994456768" lon="-3.016857001930475">
        <ele>478.87</ele>
        <time>2025-04-28T08:05:02Z</time>
      </trkpt>
      <trkpt lat="42.741810008883476" lon="-3.017095969989896">
        <ele>479.83999999999997</ele>
        <time>2025-04-28T08:05:03Z</time>
      </trkpt>
      <trkpt lat="42.74186298251152" lon="-3.017347007989883">
        <ele>480.80000000000001</ele>
        <time>2025-04-28T08:05:04Z</time>
      </trkpt>
      <trkpt lat="42.74229004047811" lon="-3.019421026110649">
        <ele>489.44999999999999</ele>
        <time>2025-04-28T08:05:12Z</time>
      </trkpt>
      <trkpt lat="42.742879036813974" lon="-3.021842977032065">
        <ele>493.76999999999998</ele>
        <time>2025-04-28T08:05:21Z</time>
      </trkpt>
      <trkpt lat="42.743331994861364" lon="-3.023396981880069">
        <ele>494.74000000000001</ele>
        <time>2025-04-28T08:05:27Z</time>
      </trkpt>
      <trkpt lat="42.743413969874382" lon="-3.023632010444999">
        <ele>494.74000000000001</ele>
        <time>2025-04-28T08:05:28Z</time>
      </trkpt>
      <trkpt lat="42.744028028100729" lon="-3.024927014485002">
        <ele>493.76999999999998</ele>
        <time>2025-04-28T08:05:34Z</time>
      </trkpt>
      <trkpt lat="42.744324998930097" lon="-3.025511987507343">
        <ele>492.32999999999998</ele>
        <time>2025-04-28T08:05:38Z</time>
      </trkpt>
      <trkpt lat="42.744391970336437" lon="-3.025639979168773">
        <ele>492.32999999999998</ele>
        <time>2025-04-28T08:05:39Z</time>
      </trkpt>
      <trkpt lat="42.744948025792837" lon="-3.026710012927651">
        <ele>492.32999999999998</ele>
        <time>2025-04-28T08:05:49Z</time>
      </trkpt>
      <trkpt lat="42.745269974693656" lon="-3.02735298871994">
        <ele>496.18000000000001</ele>
        <time>2025-04-28T08:05:58Z</time>
      </trkpt>
      <trkpt lat="42.745415987446904" lon="-3.027598997578025">
        <ele>497.62</ele>
        <time>2025-04-28T08:06:02Z</time>
      </trkpt>
      <trkpt lat="42.745464015752077" lon="-3.027678038924933">
        <ele>498.10000000000002</ele>
        <time>2025-04-28T08:06:03Z</time>
      </trkpt>
      <trkpt lat="42.745531992986798" lon="-3.027724977582693">
        <ele>498.57999999999998</ele>
        <time>2025-04-28T08:06:04Z</time>
      </trkpt>
      <trkpt lat="42.745607011020184" lon="-3.027777029201388">
        <ele>499.54000000000002</ele>
        <time>2025-04-28T08:06:05Z</time>
      </trkpt>
      <trkpt lat="42.745682029053569" lon="-3.027830002829433">
        <ele>500.01999999999998</ele>
        <time>2025-04-28T08:06:06Z</time>
      </trkpt>
      <trkpt lat="42.745754029601812" lon="-3.027878031134605">
        <ele>500.5</ele>
        <time>2025-04-28T08:06:07Z</time>
      </trkpt>
      <trkpt lat="42.745814966037869" lon="-3.027924969792366">
        <ele>500.98000000000002</ele>
        <time>2025-04-28T08:06:08Z</time>
      </trkpt>
      <trkpt lat="42.745865005999804" lon="-3.027999987825751">
        <ele>501.94999999999999</ele>
        <time>2025-04-28T08:06:09Z</time>
      </trkpt>
      <trkpt lat="42.745914962142706" lon="-3.028075005859137">
        <ele>502.43000000000001</ele>
        <time>2025-04-28T08:06:10Z</time>
      </trkpt>
      <trkpt lat="42.745955027639866" lon="-3.028143988922238">
        <ele>502.91000000000003</ele>
        <time>2025-04-28T08:06:11Z</time>
      </trkpt>
      <trkpt lat="42.745978999882936" lon="-3.028222024440765">
        <ele>503.38999999999999</ele>
        <time>2025-04-28T08:06:12Z</time>
      </trkpt>
      <trkpt lat="42.746002972126007" lon="-3.028310034424067">
        <ele>503.87</ele>
        <time>2025-04-28T08:06:13Z</time>
      </trkpt>
      <trkpt lat="42.746254010125995" lon="-3.029701011255384">
        <ele>503.38999999999999</ele>
        <time>2025-04-28T08:06:24Z</time>
      </trkpt>
      <trkpt lat="42.746524997055531" lon="-3.031353000551462">
        <ele>501.45999999999998</ele>
        <time>2025-04-28T08:06:33Z</time>
      </trkpt>
      <trkpt lat="42.747274003922939" lon="-3.035377990454435">
        <ele>503.38999999999999</ele>
        <time>2025-04-28T08:06:51Z</time>
      </trkpt>
      <trkpt lat="42.747667031362653" lon="-3.036468978971243">
        <ele>501.45999999999998</ele>
        <time>2025-04-28T08:06:56Z</time>
      </trkpt>
      <trkpt lat="42.74789996445179" lon="-3.036836022511125">
        <ele>500.01999999999998</ele>
        <time>2025-04-28T08:06:58Z</time>
      </trkpt>
      <trkpt lat="42.750101974233985" lon="-3.039325028657913">
        <ele>495.69999999999999</ele>
        <time>2025-04-28T08:07:13Z</time>
      </trkpt>
      <trkpt lat="42.752240030094981" lon="-3.041730970144272">
        <ele>491.85000000000002</ele>
        <time>2025-04-28T08:07:27Z</time>
      </trkpt>
      <trkpt lat="42.754340032115579" lon="-3.044069018214941">
        <ele>484.63999999999999</ele>
        <time>2025-04-28T08:07:41Z</time>
      </trkpt>
      <trkpt lat="42.75524795986712" lon="-3.045096974819899">
        <ele>482.72000000000003</ele>
        <time>2025-04-28T08:07:49Z</time>
      </trkpt>
      <trkpt lat="42.756422013044357" lon="-3.046411005780101">
        <ele>482.24000000000001</ele>
        <time>2025-04-28T08:08:02Z</time>
      </trkpt>
      <trkpt lat="42.756787966936827" lon="-3.046805039048195">
        <ele>481.75999999999999</ele>
        <time>2025-04-28T08:08:06Z</time>
      </trkpt>
      <trkpt lat="42.756876982748508" lon="-3.046901011839509">
        <ele>481.75999999999999</ele>
        <time>2025-04-28T08:08:07Z</time>
      </trkpt>
      <trkpt lat="42.756987037137151" lon="-3.046951973810792">
        <ele>481.75999999999999</ele>
        <time>2025-04-28T08:08:08Z</time>
      </trkpt>
      <trkpt lat="42.757092984393239" lon="-3.047001007944346">
        <ele>481.75999999999999</ele>
        <time>2025-04-28T08:08:09Z</time>
      </trkpt>
      <trkpt lat="42.757216030731797" lon="-3.046978041529656">
        <ele>481.27999999999997</ele>
        <time>2025-04-28T08:08:10Z</time>
      </trkpt>
      <trkpt lat="42.757332036271691" lon="-3.046938981860876">
        <ele>480.80000000000001</ele>
        <time>2025-04-28T08:08:11Z</time>
      </trkpt>
      <trkpt lat="42.758899033069611" lon="-3.046446964144707">
        <ele>479.35000000000002</ele>
        <time>2025-04-28T08:08:23Z</time>
      </trkpt>
      <trkpt lat="42.760478015989065" lon="-3.045975985005498">
        <ele>478.38999999999999</ele>
        <time>2025-04-28T08:08:33Z</time>
      </trkpt>
      <trkpt lat="42.762176021933556" lon="-3.045817986130714">
        <ele>476.94999999999999</ele>
        <time>2025-04-28T08:08:43Z</time>
      </trkpt>
      <trkpt lat="42.763900011777878" lon="-3.046190980821848">
        <ele>478.38999999999999</ele>
        <time>2025-04-28T08:08:53Z</time>
      </trkpt>
      <trkpt lat="42.765402970835567" lon="-3.046875027939677">
        <ele>478.38999999999999</ele>
        <time>2025-04-28T08:09:01Z</time>
      </trkpt>
      <trkpt lat="42.766214003786445" lon="-3.046995978802443">
        <ele>477.43000000000001</ele>
        <time>2025-04-28T08:09:08Z</time>
      </trkpt>
      <trkpt lat="42.766302013769746" lon="-3.047001007944346">
        <ele>477.43000000000001</ele>
        <time>2025-04-28T08:09:09Z</time>
      </trkpt>
      <trkpt lat="42.766373008489609" lon="-3.047005031257868">
        <ele>477.43000000000001</ele>
        <time>2025-04-28T08:09:10Z</time>
      </trkpt>
      <trkpt lat="42.766425982117653" lon="-3.047007964923978">
        <ele>477.43000000000001</ele>
        <time>2025-04-28T08:09:11Z</time>
      </trkpt>
      <trkpt lat="42.766470992937684" lon="-3.04722597822547">
        <ele>476.94999999999999</ele>
        <time>2025-04-28T08:09:12Z</time>
      </trkpt>
      <trkpt lat="42.766470992937684" lon="-3.04722597822547">
        <ele>476.94999999999999</ele>
        <time>2025-04-28T08:09:13Z</time>
      </trkpt>
      <trkpt lat="42.766449032351375" lon="-3.04741901345551">
        <ele>476.94999999999999</ele>
        <time>2025-04-28T08:09:14Z</time>
      </trkpt>
      <trkpt lat="42.766449032351375" lon="-3.04741901345551">
        <ele>476.47000000000003</ele>
        <time>2025-04-28T08:09:15Z</time>
      </trkpt>
      <trkpt lat="42.766435034573078" lon="-3.047514986246824">
        <ele>476.94999999999999</ele>
        <time>2025-04-28T08:09:16Z</time>
      </trkpt>
      <trkpt lat="42.766259014606476" lon="-3.048716029152274">
        <ele>478.38999999999999</ele>
        <time>2025-04-28T08:09:26Z</time>
      </trkpt>
      <trkpt lat="42.765916027128696" lon="-3.050842015072703">
        <ele>479.35000000000002</ele>
        <time>2025-04-28T08:09:37Z</time>
      </trkpt>
      <trkpt lat="42.765392996370792" lon="-3.053593961521983">
        <ele>480.80000000000001</ele>
        <time>2025-04-28T08:09:49Z</time>
      </trkpt>
      <trkpt lat="42.764599984511733" lon="-3.057502023875713">
        <ele>483.19999999999999</ele>
        <time>2025-04-28T08:10:05Z</time>
      </trkpt>
      <trkpt lat="42.763829017058015" lon="-3.061385024338961">
        <ele>483.19999999999999</ele>
        <time>2025-04-28T08:10:20Z</time>
      </trkpt>
      <trkpt lat="42.763234991580248" lon="-3.064753962680697">
        <ele>489.44999999999999</ele>
        <time>2025-04-28T08:10:33Z</time>
      </trkpt>
      <trkpt lat="42.763090990483761" lon="-3.067243974655867">
        <ele>494.25999999999999</ele>
        <time>2025-04-28T08:10:43Z</time>
      </trkpt>
      <trkpt lat="42.763079004362226" lon="-3.06819498538971">
        <ele>496.18000000000001</ele>
        <time>2025-04-28T08:10:48Z</time>
      </trkpt>
      <trkpt lat="42.763373041525483" lon="-3.070051996037364">
        <ele>497.62</ele>
        <time>2025-04-28T08:10:56Z</time>
      </trkpt>
      <trkpt lat="42.763416040688753" lon="-3.070270009338856">
        <ele>497.62</ele>
        <time>2025-04-28T08:10:57Z</time>
      </trkpt>
      <trkpt lat="42.763502039015293" lon="-3.070467989891768">
        <ele>497.62</ele>
        <time>2025-04-28T08:10:58Z</time>
      </trkpt>
      <trkpt lat="42.763599017634988" lon="-3.070662030950189">
        <ele>497.13999999999999</ele>
        <time>2025-04-28T08:10:59Z</time>
      </trkpt>
      <trkpt lat="42.763701025396585" lon="-3.070849031209946">
        <ele>497.13999999999999</ele>
        <time>2025-04-28T08:11:00Z</time>
      </trkpt>
      <trkpt lat="42.764778016135097" lon="-3.072474030777812">
        <ele>493.76999999999998</ele>
        <time>2025-04-28T08:11:10Z</time>
      </trkpt>
      <trkpt lat="42.764901984483004" lon="-3.072657007724047">
        <ele>492.81</ele>
        <time>2025-04-28T08:11:11Z</time>
      </trkpt>
      <trkpt lat="42.766347024589777" lon="-3.074809983372688">
        <ele>489.44999999999999</ele>
        <time>2025-04-28T08:11:22Z</time>
      </trkpt>
      <trkpt lat="42.76725796982646" lon="-3.076259968802333">
        <ele>488.49000000000001</ele>
        <time>2025-04-28T08:11:32Z</time>
      </trkpt>
      <trkpt lat="42.767612021416426" lon="-3.077513985335827">
        <ele>486.07999999999998</ele>
        <time>2025-04-28T08:11:38Z</time>
      </trkpt>
      <trkpt lat="42.767652003094554" lon="-3.077718000859022">
        <ele>485.60000000000002</ele>
        <time>2025-04-28T08:11:39Z</time>
      </trkpt>
      <trkpt lat="42.767659965902567" lon="-3.077937019988895">
        <ele>485.12</ele>
        <time>2025-04-28T08:11:40Z</time>
      </trkpt>
      <trkpt lat="42.767669018357992" lon="-3.07816500775516">
        <ele>484.63999999999999</ele>
        <time>2025-04-28T08:11:41Z</time>
      </trkpt>
      <trkpt lat="42.767673041671515" lon="-3.078398024663329">
        <ele>484.16000000000003</ele>
        <time>2025-04-28T08:11:42Z</time>
      </trkpt>
      <trkpt lat="42.767673041671515" lon="-3.078859029337764">
        <ele>483.19999999999999</ele>
        <time>2025-04-28T08:11:44Z</time>
      </trkpt>
      <trkpt lat="42.767673041671515" lon="-3.079077964648604">
        <ele>483.19999999999999</ele>
        <time>2025-04-28T08:11:45Z</time>
      </trkpt>
      <trkpt lat="42.767673041671515" lon="-3.079514997079969">
        <ele>483.19999999999999</ele>
        <time>2025-04-28T08:11:47Z</time>
      </trkpt>
      <trkpt lat="42.767673041671515" lon="-3.079727981239557">
        <ele>483.19999999999999</ele>
        <time>2025-04-28T08:11:48Z</time>
      </trkpt>
      <trkpt lat="42.767670024186373" lon="-3.079933002591133">
        <ele>483.68000000000001</ele>
        <time>2025-04-28T08:11:49Z</time>
      </trkpt>
      <trkpt lat="42.767655020579696" lon="-3.08014003559947">
        <ele>484.16000000000003</ele>
        <time>2025-04-28T08:11:50Z</time>
      </trkpt>
      <trkpt lat="42.767641022801399" lon="-3.080348996445537">
        <ele>484.63999999999999</ele>
        <time>2025-04-28T08:11:51Z</time>
      </trkpt>
      <trkpt lat="42.767614033073187" lon="-3.080551000311971">
        <ele>485.12</ele>
        <time>2025-04-28T08:11:52Z</time>
      </trkpt>
      <trkpt lat="42.767543960362673" lon="-3.080745963379741">
        <ele>485.12</ele>
        <time>2025-04-28T08:11:53Z</time>
      </trkpt>
      <trkpt lat="42.76747296564281" lon="-3.080944027751684">
        <ele>485.60000000000002</ele>
        <time>2025-04-28T08:11:54Z</time>
      </trkpt>
      <trkpt lat="42.767274985089898" lon="-3.081277962774038">
        <ele>485.60000000000002</ele>
        <time>2025-04-28T08:11:55Z</time>
      </trkpt>
      <trkpt lat="42.767274985089898" lon="-3.081277962774038">
        <ele>486.07999999999998</ele>
        <time>2025-04-28T08:11:56Z</time>
      </trkpt>
      <trkpt lat="42.767156967893243" lon="-3.081421963870525">
        <ele>486.56</ele>
        <time>2025-04-28T08:11:57Z</time>
      </trkpt>
      <trkpt lat="42.767011960968375" lon="-3.081539981067181">
        <ele>486.56</ele>
        <time>2025-04-28T08:11:58Z</time>
      </trkpt>
      <trkpt lat="42.766865026205778" lon="-3.081660009920597">
        <ele>487.05000000000001</ele>
        <time>2025-04-28T08:11:59Z</time>
      </trkpt>
      <trkpt lat="42.766579035669565" lon="-3.08188003487885">
        <ele>487.52999999999997</ele>
        <time>2025-04-28T08:12:00Z</time>
      </trkpt>
      <trkpt lat="42.766426987946033" lon="-3.081951029598713">
        <ele>488.00999999999999</ele>
        <time>2025-04-28T08:12:01Z</time>
      </trkpt>
      <trkpt lat="42.766426987946033" lon="-3.081951029598713">
        <ele>488.49000000000001</ele>
        <time>2025-04-28T08:12:02Z</time>
      </trkpt>
      <trkpt lat="42.765592988580465" lon="-3.082140041515231">
        <ele>489.44999999999999</ele>
        <time>2025-04-28T08:12:09Z</time>
      </trkpt>
      <trkpt lat="42.76450602337718" lon="-3.082248000428081">
        <ele>489.44999999999999</ele>
        <time>2025-04-28T08:12:18Z</time>
      </trkpt>
      <trkpt lat="42.763072969391942" lon="-3.08231296017766">
        <ele>488.97000000000003</ele>
        <time>2025-04-28T08:12:30Z</time>
      </trkpt>
      <trkpt lat="42.761638993397355" lon="-3.082485040649772">
        <ele>488.00999999999999</ele>
        <time>2025-04-28T08:12:42Z</time>
      </trkpt>
      <trkpt lat="42.761405976489186" lon="-3.082571960985661">
        <ele>487.52999999999997</ele>
        <time>2025-04-28T08:12:43Z</time>
      </trkpt>
      <trkpt lat="42.761405976489186" lon="-3.082571960985661">
        <ele>487.52999999999997</ele>
        <time>2025-04-28T08:12:44Z</time>
      </trkpt>
      <trkpt lat="42.761295000091195" lon="-3.082631975412369">
        <ele>487.52999999999997</ele>
        <time>2025-04-28T08:12:45Z</time>
      </trkpt>
      <trkpt lat="42.761187963187695" lon="-3.082700036466122">
        <ele>487.05000000000001</ele>
        <time>2025-04-28T08:12:46Z</time>
      </trkpt>
      <trkpt lat="42.761084027588367" lon="-3.082782011479139">
        <ele>487.05000000000001</ele>
        <time>2025-04-28T08:12:47Z</time>
      </trkpt>
      <trkpt lat="42.76098595932126" lon="-3.082879995927215">
        <ele>487.05000000000001</ele>
        <time>2025-04-28T08:12:48Z</time>
      </trkpt>
      <trkpt lat="42.760452032089233" lon="-3.083562031388283">
        <ele>487.05000000000001</ele>
        <time>2025-04-28T08:12:54Z</time>
      </trkpt>
      <trkpt lat="42.760355975478888" lon="-3.083646018058062">
        <ele>487.05000000000001</ele>
        <time>2025-04-28T08:12:55Z</time>
      </trkpt>
      <trkpt lat="42.76025203987956" lon="-3.083731010556221">
        <ele>487.05000000000001</ele>
        <time>2025-04-28T08:12:56Z</time>
      </trkpt>
      <trkpt lat="42.760150032117963" lon="-3.08381600305438">
        <ele>487.05000000000001</ele>
        <time>2025-04-28T08:12:57Z</time>
      </trkpt>
      <trkpt lat="42.760044001042843" lon="-3.083886997774243">
        <ele>487.52999999999997</ele>
        <time>2025-04-28T08:12:58Z</time>
      </trkpt>
      <trkpt lat="42.759812995791435" lon="-3.08396796695888">
        <ele>487.52999999999997</ele>
        <time>2025-04-28T08:13:00Z</time>
      </trkpt>
      <trkpt lat="42.759239003062248" lon="-3.084234008565545">
        <ele>487.52999999999997</ele>
        <time>2025-04-28T08:13:04Z</time>
      </trkpt>
      <trkpt lat="42.759239003062248" lon="-3.084234008565545">
        <ele>487.52999999999997</ele>
        <time>2025-04-28T08:13:05Z</time>
      </trkpt>
      <trkpt lat="42.759030964225531" lon="-3.084429977461696">
        <ele>487.05000000000001</ele>
        <time>2025-04-28T08:13:06Z</time>
      </trkpt>
      <trkpt lat="42.759030964225531" lon="-3.084429977461696">
        <ele>487.05000000000001</ele>
        <time>2025-04-28T08:13:07Z</time>
      </trkpt>
      <trkpt lat="42.758959969505668" lon="-3.084581019356847">
        <ele>486.56</ele>
        <time>2025-04-28T08:13:08Z</time>
      </trkpt>
      <trkpt lat="42.758903978392482" lon="-3.084743963554502">
        <ele>486.56</ele>
        <time>2025-04-28T08:13:09Z</time>
      </trkpt>
      <trkpt lat="42.758846981450915" lon="-3.084905985742807">
        <ele>486.07999999999998</ele>
        <time>2025-04-28T08:13:10Z</time>
      </trkpt>
      <trkpt lat="42.758819991722703" lon="-3.085086029022932">
        <ele>486.07999999999998</ele>
        <time>2025-04-28T08:13:11Z</time>
      </trkpt>
      <trkpt lat="42.758817980065942" lon="-3.085271017625928">
        <ele>486.07999999999998</ele>
        <time>2025-04-28T08:13:12Z</time>
      </trkpt>
      <trkpt lat="42.75883499532938" lon="-3.085457012057304">
        <ele>486.07999999999998</ele>
        <time>2025-04-28T08:13:13Z</time>
      </trkpt>
      <trkpt lat="42.758851004764438" lon="-3.085649041458964">
        <ele>486.07999999999998</ele>
        <time>2025-04-28T08:13:14Z</time>
      </trkpt>
      <trkpt lat="42.758929040282965" lon="-3.085821038112044">
        <ele>486.56</ele>
        <time>2025-04-28T08:13:15Z</time>
      </trkpt>
      <trkpt lat="42.759011015295982" lon="-3.085979036986828">
        <ele>487.05000000000001</ele>
        <time>2025-04-28T08:13:16Z</time>
      </trkpt>
      <trkpt lat="42.759111011400819" lon="-3.086170982569456">
        <ele>488.00999999999999</ele>
        <time>2025-04-28T08:13:17Z</time>
      </trkpt>
      <trkpt lat="42.75919902138412" lon="-3.086301991716027">
        <ele>488.49000000000001</ele>
        <time>2025-04-28T08:13:18Z</time>
      </trkpt>
      <trkpt lat="42.759798998013139" lon="-3.08718603104353">
        <ele>490.88999999999999</ele>
        <time>2025-04-28T08:13:24Z</time>
      </trkpt>
      <trkpt lat="42.759897988289595" lon="-3.087320979684591">
        <ele>491.37</ele>
        <time>2025-04-28T08:13:25Z</time>
      </trkpt>
      <trkpt lat="42.760136034339666" lon="-3.087518960237503">
        <ele>491.85000000000002</ele>
        <time>2025-04-28T08:13:27Z</time>
      </trkpt>
      <trkpt lat="42.761117974296212" lon="-3.088033022359014">
        <ele>494.25999999999999</ele>
        <time>2025-04-28T08:13:34Z</time>
      </trkpt>
      <trkpt lat="42.761246971786022" lon="-3.088135030120611">
        <ele>494.25999999999999</ele>
        <time>2025-04-28T08:13:35Z</time>
      </trkpt>
      <trkpt lat="42.761365994811058" lon="-3.088254975154996">
        <ele>494.25999999999999</ele>
        <time>2025-04-28T08:13:36Z</time>
      </trkpt>
      <trkpt lat="42.761879973113537" lon="-3.088939022272825">
        <ele>494.74000000000001</ele>
        <time>2025-04-28T08:13:40Z</time>
      </trkpt>
      <trkpt lat="42.761997990310192" lon="-3.089019991457462">
        <ele>494.74000000000001</ele>
        <time>2025-04-28T08:13:41Z</time>
      </trkpt>
      <trkpt lat="42.762132016941905" lon="-3.089086962863803">
        <ele>494.74000000000001</ele>
        <time>2025-04-28T08:13:42Z</time>
      </trkpt>
      <trkpt lat="42.763253012672067" lon="-3.089390974491835">
        <ele>496.66000000000003</ele>
        <time>2025-04-28T08:13:51Z</time>
      </trkpt>
      <trkpt lat="42.763516958802938" lon="-3.089464986696839">
        <ele>496.66000000000003</ele>
        <time>2025-04-28T08:13:53Z</time>
      </trkpt>
      <trkpt lat="42.763641010969877" lon="-3.089521983638406">
        <ele>496.66000000000003</ele>
        <time>2025-04-28T08:13:54Z</time>
      </trkpt>
      <trkpt lat="42.763762967661023" lon="-3.089576968923211">
        <ele>496.18000000000001</ele>
        <time>2025-04-28T08:13:55Z</time>
      </trkpt>
      <trkpt lat="42.764115007594228" lon="-3.089794982224703">
        <ele>495.69999999999999</ele>
        <time>2025-04-28T08:13:58Z</time>
      </trkpt>
      <trkpt lat="42.764881029725075" lon="-3.090149033814669">
        <ele>492.32999999999998</ele>
        <time>2025-04-28T08:14:05Z</time>
      </trkpt>
      <trkpt lat="42.764971973374486" lon="-3.090198989957571">
        <ele>491.85000000000002</ele>
        <time>2025-04-28T08:14:06Z</time>
      </trkpt>
      <trkpt lat="42.765070963650942" lon="-3.090253975242376">
        <ele>491.85000000000002</ele>
        <time>2025-04-28T08:14:07Z</time>
      </trkpt>
      <trkpt lat="42.765156961977482" lon="-3.090336034074426">
        <ele>491.85000000000002</ele>
        <time>2025-04-28T08:14:08Z</time>
      </trkpt>
      <trkpt lat="42.765251006931067" lon="-3.090441981330514">
        <ele>491.85000000000002</ele>
        <time>2025-04-28T08:14:09Z</time>
      </trkpt>
      <trkpt lat="42.765310015529394" lon="-3.090565027669072">
        <ele>491.85000000000002</ele>
        <time>2025-04-28T08:14:10Z</time>
      </trkpt>
      <trkpt lat="42.765817036852241" lon="-3.092009983956814">
        <ele>493.29000000000002</ele>
        <time>2025-04-28T08:14:20Z</time>
      </trkpt>
      <trkpt lat="42.766407039016485" lon="-3.094039997085929">
        <ele>501.94999999999999</ele>
        <time>2025-04-28T08:14:33Z</time>
      </trkpt>
      <trkpt lat="42.766445009037852" lon="-3.094188021495938">
        <ele>502.91000000000003</ele>
        <time>2025-04-28T08:14:34Z</time>
      </trkpt>
      <trkpt lat="42.7664839848876" lon="-3.094344008713961">
        <ele>503.87</ele>
        <time>2025-04-28T08:14:35Z</time>
      </trkpt>
      <trkpt lat="42.766527989879251" lon="-3.09451499953866">
        <ele>504.82999999999998</ele>
        <time>2025-04-28T08:14:36Z</time>
      </trkpt>
      <trkpt lat="42.766527989879251" lon="-3.09451499953866">
        <ele>505.79000000000002</ele>
        <time>2025-04-28T08:14:37Z</time>
      </trkpt>
      <trkpt lat="42.766622034832835" lon="-3.094882965087891">
        <ele>506.26999999999998</ele>
        <time>2025-04-28T08:14:38Z</time>
      </trkpt>
      <trkpt lat="42.766704009845853" lon="-3.095000982284546">
        <ele>506.75</ele>
        <time>2025-04-28T08:14:39Z</time>
      </trkpt>
      <trkpt lat="42.76680501177907" lon="-3.095117993652821">
        <ele>507.23000000000002</ele>
        <time>2025-04-28T08:14:40Z</time>
      </trkpt>
      <trkpt lat="42.766924034804106" lon="-3.095191000029445">
        <ele>507.70999999999998</ele>
        <time>2025-04-28T08:14:41Z</time>
      </trkpt>
      <trkpt lat="42.767050014808774" lon="-3.095267023891211">
        <ele>508.19</ele>
        <time>2025-04-28T08:14:42Z</time>
      </trkpt>
      <trkpt lat="42.76738503947854" lon="-3.095520995557308">
        <ele>510.12</ele>
        <time>2025-04-28T08:14:45Z</time>
      </trkpt>
      <trkpt lat="42.767479000613093" lon="-3.095598025247455">
        <ele>510.60000000000002</ele>
        <time>2025-04-28T08:14:46Z</time>
      </trkpt>
      <trkpt lat="42.76755603030324" lon="-3.095701038837433">
        <ele>511.07999999999998</ele>
        <time>2025-04-28T08:14:47Z</time>
      </trkpt>
      <trkpt lat="42.767618978396058" lon="-3.095827018842101">
        <ele>512.03999999999996</ele>
        <time>2025-04-28T08:14:48Z</time>
      </trkpt>
      <trkpt lat="42.767676981166005" lon="-3.095961967483163">
        <ele>512.51999999999998</ele>
        <time>2025-04-28T08:14:49Z</time>
      </trkpt>
      <trkpt lat="42.767698019742966" lon="-3.096119966357946">
        <ele>513.48000000000002</ele>
        <time>2025-04-28T08:14:50Z</time>
      </trkpt>
      <trkpt lat="42.767713023349643" lon="-3.096285006031394">
        <ele>513.96000000000004</ele>
        <time>2025-04-28T08:14:51Z</time>
      </trkpt>
      <trkpt lat="42.767692990601063" lon="-3.096444010734558">
        <ele>514.44000000000005</ele>
        <time>2025-04-28T08:14:52Z</time>
      </trkpt>
      <trkpt lat="42.767674969509244" lon="-3.096599997952581">
        <ele>514.91999999999996</ele>
        <time>2025-04-28T08:14:53Z</time>
      </trkpt>
      <trkpt lat="42.76764303445816" lon="-3.09739401564002">
        <ele>516.37</ele>
        <time>2025-04-28T08:14:58Z</time>
      </trkpt>
      <trkpt lat="42.767671030014753" lon="-3.097543967887759">
        <ele>516.85000000000002</ele>
        <time>2025-04-28T08:14:59Z</time>
      </trkpt>
      <trkpt lat="42.767700031399727" lon="-3.09769400395453">
        <ele>516.85000000000002</ele>
        <time>2025-04-28T08:15:00Z</time>
      </trkpt>
      <trkpt lat="42.767730038613081" lon="-3.09784697368741">
        <ele>516.85000000000002</ele>
        <time>2025-04-28T08:15:01Z</time>
      </trkpt>
      <trkpt lat="42.76777496561408" lon="-3.097992986440659">
        <ele>517.33000000000004</ele>
        <time>2025-04-28T08:15:02Z</time>
      </trkpt>
      <trkpt lat="42.767865993082523" lon="-3.098279982805252">
        <ele>517.80999999999995</ele>
        <time>2025-04-28T08:15:04Z</time>
      </trkpt>
      <trkpt lat="42.767999013885856" lon="-3.09889898635447">
        <ele>517.80999999999995</ele>
        <time>2025-04-28T08:15:08Z</time>
      </trkpt>
      <trkpt lat="42.768012005835772" lon="-3.099053967744112">
        <ele>517.33000000000004</ele>
        <time>2025-04-28T08:15:09Z</time>
      </trkpt>
      <trkpt lat="42.768023991957307" lon="-3.099208027124405">
        <ele>517.33000000000004</ele>
        <time>2025-04-28T08:15:10Z</time>
      </trkpt>
      <trkpt lat="42.768049975857139" lon="-3.09952000156045">
        <ele>517.33000000000004</ele>
        <time>2025-04-28T08:15:12Z</time>
      </trkpt>
      <trkpt lat="42.768049975857139" lon="-3.09952000156045">
        <ele>516.85000000000002</ele>
        <time>2025-04-28T08:15:13Z</time>
      </trkpt>
      <trkpt lat="42.768062967807055" lon="-3.099673977121711">
        <ele>516.85000000000002</ele>
        <time>2025-04-28T08:15:14Z</time>
      </trkpt>
      <trkpt lat="42.768080988898873" lon="-3.099883021786809">
        <ele>516.37</ele>
        <time>2025-04-28T08:15:15Z</time>
      </trkpt>
      <trkpt lat="42.768098004162312" lon="-3.100153002887964">
        <ele>516.37</ele>
        <time>2025-04-28T08:15:16Z</time>
      </trkpt>
      <trkpt lat="42.768107978627086" lon="-3.100308990105987">
        <ele>515.88</ele>
        <time>2025-04-28T08:15:17Z</time>
      </trkpt>
      <trkpt lat="42.768107978627086" lon="-3.100309995934367">
        <ele>515.88</ele>
        <time>2025-04-28T08:15:18Z</time>
      </trkpt>
      <trkpt lat="42.768118036910892" lon="-3.100462965667248">
        <ele>515.88</ele>
        <time>2025-04-28T08:15:19Z</time>
      </trkpt>
      <trkpt lat="42.767872028052807" lon="-3.102468000724912">
        <ele>515.39999999999998</ele>
        <time>2025-04-28T08:15:31Z</time>
      </trkpt>
      <trkpt lat="42.76781796477735" lon="-3.102570008486509">
        <ele>515.88</ele>
        <time>2025-04-28T08:15:32Z</time>
      </trkpt>
      <trkpt lat="42.767724003642797" lon="-3.102663969621062">
        <ele>515.88</ele>
        <time>2025-04-28T08:15:33Z</time>
      </trkpt>
      <trkpt lat="42.767629036679864" lon="-3.102759020403028">
        <ele>516.37</ele>
        <time>2025-04-28T08:15:34Z</time>
      </trkpt>
      <trkpt lat="42.767534991726279" lon="-3.102853987365961">
        <ele>516.37</ele>
        <time>2025-04-28T08:15:35Z</time>
      </trkpt>
      <trkpt lat="42.767343968153" lon="-3.10306697152555">
        <ele>516.37</ele>
        <time>2025-04-28T08:15:37Z</time>
      </trkpt>
      <trkpt lat="42.767264004796743" lon="-3.103180965408683">
        <ele>516.85000000000002</ele>
        <time>2025-04-28T08:15:38Z</time>
      </trkpt>
      <trkpt lat="42.766804005950689" lon="-3.104066010564566">
        <ele>518.28999999999996</ele>
        <time>2025-04-28T08:15:45Z</time>
      </trkpt>
      <trkpt lat="42.766740974038839" lon="-3.104192996397615">
        <ele>518.28999999999996</ele>
        <time>2025-04-28T08:15:46Z</time>
      </trkpt>
      <trkpt lat="42.766650030389428" lon="-3.104285029694438">
        <ele>518.76999999999998</ele>
        <time>2025-04-28T08:15:47Z</time>
      </trkpt>
      <trkpt lat="42.766548022627831" lon="-3.104373039677739">
        <ele>518.76999999999998</ele>
        <time>2025-04-28T08:15:48Z</time>
      </trkpt>
      <trkpt lat="42.766449032351375" lon="-3.104458032175899">
        <ele>518.76999999999998</ele>
        <time>2025-04-28T08:15:49Z</time>
      </trkpt>
      <trkpt lat="42.765602963045239" lon="-3.105274010449648">
        <ele>517.80999999999995</ele>
        <time>2025-04-28T08:15:58Z</time>
      </trkpt>
      <trkpt lat="42.765520988032222" lon="-3.105380041524768">
        <ele>517.80999999999995</ele>
        <time>2025-04-28T08:15:59Z</time>
      </trkpt>
      <trkpt lat="42.765441024675965" lon="-3.105482971295714">
        <ele>517.33000000000004</ele>
        <time>2025-04-28T08:16:00Z</time>
      </trkpt>
      <trkpt lat="42.765389978885651" lon="-3.105623032897711">
        <ele>516.85000000000002</ele>
        <time>2025-04-28T08:16:01Z</time>
      </trkpt>
      <trkpt lat="42.765338011085987" lon="-3.105763010680676">
        <ele>516.37</ele>
        <time>2025-04-28T08:16:02Z</time>
      </trkpt>
      <trkpt lat="42.765296017751098" lon="-3.105921009555459">
        <ele>515.88</ele>
        <time>2025-04-28T08:16:03Z</time>
      </trkpt>
      <trkpt lat="42.765319989994168" lon="-3.106071967631578">
        <ele>515.88</ele>
        <time>2025-04-28T08:16:04Z</time>
      </trkpt>
      <trkpt lat="42.765343962237239" lon="-3.106226027011871">
        <ele>515.39999999999998</ele>
        <time>2025-04-28T08:16:05Z</time>
      </trkpt>
      <trkpt lat="42.765419986099005" lon="-3.106705974787474">
        <ele>515.39999999999998</ele>
        <time>2025-04-28T08:16:08Z</time>
      </trkpt>
      <trkpt lat="42.765419986099005" lon="-3.106850981712341">
        <ele>515.39999999999998</ele>
        <time>2025-04-28T08:16:09Z</time>
      </trkpt>
      <trkpt lat="42.765400959178805" lon="-3.107962002977729">
        <ele>513.96000000000004</ele>
        <time>2025-04-28T08:16:16Z</time>
      </trkpt>
      <trkpt lat="42.765358965843916" lon="-3.108261991292238">
        <ele>513.48000000000002</ele>
        <time>2025-04-28T08:16:18Z</time>
      </trkpt>
      <trkpt lat="42.765294006094337" lon="-3.108549993485212">
        <ele>512.51999999999998</ele>
        <time>2025-04-28T08:16:20Z</time>
      </trkpt>
      <trkpt lat="42.765241032466292" lon="-3.108691982924938">
        <ele>512.51999999999998</ele>
        <time>2025-04-28T08:16:21Z</time>
      </trkpt>
      <trkpt lat="42.764849010854959" lon="-3.109844997525215">
        <ele>513</ele>
        <time>2025-04-28T08:16:29Z</time>
      </trkpt>
      <trkpt lat="42.764814980328083" lon="-3.11000500805676">
        <ele>513</ele>
        <time>2025-04-28T08:16:30Z</time>
      </trkpt>
      <trkpt lat="42.764741973951459" lon="-3.110309019684792">
        <ele>513</ele>
        <time>2025-04-28T08:16:32Z</time>
      </trkpt>
      <trkpt lat="42.764667961746454" lon="-3.110419996082783">
        <ele>512.51999999999998</ele>
        <time>2025-04-28T08:16:33Z</time>
      </trkpt>
      <trkpt lat="42.764581963419914" lon="-3.110527032986283">
        <ele>512.51999999999998</ele>
        <time>2025-04-28T08:16:34Z</time>
      </trkpt>
      <trkpt lat="42.7644859906286" lon="-3.110621999949217">
        <ele>512.51999999999998</ele>
        <time>2025-04-28T08:16:36Z</time>
      </trkpt>
      <trkpt lat="42.764389012008905" lon="-3.110719984397292">
        <ele>512.51999999999998</ele>
        <time>2025-04-28T08:16:37Z</time>
      </trkpt>
      <trkpt lat="42.764203017577529" lon="-3.110905978828669">
        <ele>512.03999999999996</ele>
        <time>2025-04-28T08:16:38Z</time>
      </trkpt>
      <trkpt lat="42.76411802507937" lon="-3.110990971326828">
        <ele>511.56</ele>
        <time>2025-04-28T08:16:39Z</time>
      </trkpt>
      <trkpt lat="42.764024985954165" lon="-3.111084010452032">
        <ele>511.56</ele>
        <time>2025-04-28T08:16:40Z</time>
      </trkpt>
      <trkpt lat="42.763286959379911" lon="-3.11206896789372">
        <ele>511.07999999999998</ele>
        <time>2025-04-28T08:16:49Z</time>
      </trkpt>
      <trkpt lat="42.763211019337177" lon="-3.112186985090375">
        <ele>511.56</ele>
        <time>2025-04-28T08:16:51Z</time>
      </trkpt>
      <trkpt lat="42.763085961341858" lon="-3.112452020868659">
        <ele>511.56</ele>
        <time>2025-04-28T08:16:52Z</time>
      </trkpt>
      <trkpt lat="42.763027036562562" lon="-3.112587975338101">
        <ele>512.03999999999996</ele>
        <time>2025-04-28T08:16:53Z</time>
      </trkpt>
      <trkpt lat="42.762906001880765" lon="-3.112861979752779">
        <ele>512.51999999999998</ele>
        <time>2025-04-28T08:16:55Z</time>
      </trkpt>
      <trkpt lat="42.762906001880765" lon="-3.112861979752779">
        <ele>513</ele>
        <time>2025-04-28T08:16:56Z</time>
      </trkpt>
      <trkpt lat="42.76276501826942" lon="-3.113102037459612">
        <ele>513.48000000000002</ele>
        <time>2025-04-28T08:16:57Z</time>
      </trkpt>
      <trkpt lat="42.76229596696794" lon="-3.113816007971764">
        <ele>514.44000000000005</ele>
        <time>2025-04-28T08:17:03Z</time>
      </trkpt>
      <trkpt lat="42.762203011661768" lon="-3.11389303766191">
        <ele>514.44000000000005</ele>
        <time>2025-04-28T08:17:04Z</time>
      </trkpt>
      <trkpt lat="42.762002013623714" lon="-3.114060005173087">
        <ele>515.39999999999998</ele>
        <time>2025-04-28T08:17:06Z</time>
      </trkpt>
      <trkpt lat="42.76169297285378" lon="-3.114272989332676">
        <ele>517.33000000000004</ele>
        <time>2025-04-28T08:17:09Z</time>
      </trkpt>
      <trkpt lat="42.76169297285378" lon="-3.114272989332676">
        <ele>517.80999999999995</ele>
        <time>2025-04-28T08:17:10Z</time>
      </trkpt>
      <trkpt lat="42.760664010420442" lon="-3.114873971790075">
        <ele>520.21000000000004</ele>
        <time>2025-04-28T08:17:18Z</time>
      </trkpt>
      <trkpt lat="42.760554039850831" lon="-3.114984026178718">
        <ele>520.21000000000004</ele>
        <time>2025-04-28T08:17:19Z</time>
      </trkpt>
      <trkpt lat="42.760468041524291" lon="-3.115084022283554">
        <ele>520.21000000000004</ele>
        <time>2025-04-28T08:17:20Z</time>
      </trkpt>
      <trkpt lat="42.76038397103548" lon="-3.115240009501576">
        <ele>520.21000000000004</ele>
        <time>2025-04-28T08:17:21Z</time>
      </trkpt>
      <trkpt lat="42.760298978537321" lon="-3.11539800837636">
        <ele>520.69000000000005</ele>
        <time>2025-04-28T08:17:22Z</time>
      </trkpt>
      <trkpt lat="42.760214991867542" lon="-3.115553995594382">
        <ele>520.69000000000005</ele>
        <time>2025-04-28T08:17:23Z</time>
      </trkpt>
      <trkpt lat="42.760163024067879" lon="-3.11572196893394">
        <ele>521.16999999999996</ele>
        <time>2025-04-28T08:17:24Z</time>
      </trkpt>
      <trkpt lat="42.760126981884241" lon="-3.115917015820742">
        <ele>521.64999999999998</ele>
        <time>2025-04-28T08:17:25Z</time>
      </trkpt>
      <trkpt lat="42.760091023519635" lon="-3.11610602773726">
        <ele>521.64999999999998</ele>
        <time>2025-04-28T08:17:26Z</time>
      </trkpt>
      <trkpt lat="42.759840991348028" lon="-3.118073008954525">
        <ele>521.64999999999998</ele>
        <time>2025-04-28T08:17:37Z</time>
      </trkpt>
      <trkpt lat="42.759852977469563" lon="-3.1184490211308">
        <ele>522.13</ele>
        <time>2025-04-28T08:17:39Z</time>
      </trkpt>
      <trkpt lat="42.759875021874905" lon="-3.118639038875699">
        <ele>522.13</ele>
        <time>2025-04-28T08:17:40Z</time>
      </trkpt>
      <trkpt lat="42.760025979951024" lon="-3.119518971070647">
        <ele>521.64999999999998</ele>
        <time>2025-04-28T08:17:45Z</time>
      </trkpt>
      <trkpt lat="42.760094041004777" lon="-3.119663977995515">
        <ele>521.64999999999998</ele>
        <time>2025-04-28T08:17:46Z</time>
      </trkpt>
      <trkpt lat="42.760169981047511" lon="-3.119798004627228">
        <ele>521.64999999999998</ele>
        <time>2025-04-28T08:17:47Z</time>
      </trkpt>
      <trkpt lat="42.760256985202432" lon="-3.119901018217206">
        <ele>522.13</ele>
        <time>2025-04-28T08:17:48Z</time>
      </trkpt>
      <trkpt lat="42.760364022105932" lon="-3.119988022372127">
        <ele>522.13</ele>
        <time>2025-04-28T08:17:49Z</time>
      </trkpt>
      <trkpt lat="42.76046996936202" lon="-3.120074020698667">
        <ele>522.61000000000001</ele>
        <time>2025-04-28T08:17:50Z</time>
      </trkpt>
      <trkpt lat="42.760549010708928" lon="-3.120138980448246">
        <ele>523.09000000000003</ele>
        <time>2025-04-28T08:17:51Z</time>
      </trkpt>
      <trkpt lat="42.760629979893565" lon="-3.120290022343397">
        <ele>523.58000000000004</ele>
        <time>2025-04-28T08:17:52Z</time>
      </trkpt>
      <trkpt lat="42.760696029290557" lon="-3.120410973206163">
        <ele>523.58000000000004</ele>
        <time>2025-04-28T08:17:53Z</time>
      </trkpt>
      <trkpt lat="42.760686976835132" lon="-3.120540976524353">
        <ele>524.05999999999995</ele>
        <time>2025-04-28T08:17:54Z</time>
      </trkpt>
      <trkpt lat="42.760666022077203" lon="-3.120657987892628">
        <ele>524.53999999999996</ele>
        <time>2025-04-28T08:17:55Z</time>
      </trkpt>
      <trkpt lat="42.760609025135636" lon="-3.120782962068915">
        <ele>525.5</ele>
        <time>2025-04-28T08:17:56Z</time>
      </trkpt>
      <trkpt lat="42.760545993223786" lon="-3.12092000618577">
        <ele>526.46000000000004</ele>
        <time>2025-04-28T08:17:57Z</time>
      </trkpt>
      <trkpt lat="42.76042403653264" lon="-3.121207002550364">
        <ele>528.86000000000001</ele>
        <time>2025-04-28T08:17:59Z</time>
      </trkpt>
      <trkpt lat="42.760377014055848" lon="-3.121369024738669">
        <ele>529.82000000000005</ele>
        <time>2025-04-28T08:18:00Z</time>
      </trkpt>
      <trkpt lat="42.760325968265533" lon="-3.121530041098595">
        <ele>531.26999999999998</ele>
        <time>2025-04-28T08:18:01Z</time>
      </trkpt>
      <trkpt lat="42.760254973545671" lon="-3.121675970032811">
        <ele>532.23000000000002</ele>
        <time>2025-04-28T08:18:02Z</time>
      </trkpt>
      <trkpt lat="42.760186996310949" lon="-3.121817037463188">
        <ele>533.19000000000005</ele>
        <time>2025-04-28T08:18:03Z</time>
      </trkpt>
      <trkpt lat="42.760052969679236" lon="-3.122093975543976">
        <ele>535.11000000000001</ele>
        <time>2025-04-28T08:18:05Z</time>
      </trkpt>
      <trkpt lat="42.75999597273767" lon="-3.122249040752649">
        <ele>536.07000000000005</ele>
        <time>2025-04-28T08:18:06Z</time>
      </trkpt>
      <trkpt lat="42.759883990511298" lon="-3.122735023498535">
        <ele>538.48000000000002</ele>
        <time>2025-04-28T08:18:09Z</time>
      </trkpt>
      <trkpt lat="42.759811989963055" lon="-3.122905008494854">
        <ele>538.96000000000004</ele>
        <time>2025-04-28T08:18:10Z</time>
      </trkpt>
      <trkpt lat="42.759574027732015" lon="-3.123573968186975">
        <ele>540.88</ele>
        <time>2025-04-28T08:18:14Z</time>
      </trkpt>
      <trkpt lat="42.759542008861899" lon="-3.12375501729548">
        <ele>541.84000000000003</ele>
        <time>2025-04-28T08:18:15Z</time>
      </trkpt>
      <trkpt lat="42.759548965841532" lon="-3.123945035040379">
        <ele>542.32000000000005</ele>
        <time>2025-04-28T08:18:16Z</time>
      </trkpt>
      <trkpt lat="42.759518958628178" lon="-3.124858997762203">
        <ele>543.75999999999999</ele>
        <time>2025-04-28T08:18:21Z</time>
      </trkpt>
      <trkpt lat="42.759530022740364" lon="-3.125038035213947">
        <ele>543.75999999999999</ele>
        <time>2025-04-28T08:18:22Z</time>
      </trkpt>
      <trkpt lat="42.759541003033519" lon="-3.125202991068363">
        <ele>543.27999999999997</ele>
        <time>2025-04-28T08:18:23Z</time>
      </trkpt>
      <trkpt lat="42.75958601385355" lon="-3.12534699216485">
        <ele>542.32000000000005</ele>
        <time>2025-04-28T08:18:24Z</time>
      </trkpt>
      <trkpt lat="42.759633036330342" lon="-3.12549501657486">
        <ele>541.84000000000003</ele>
        <time>2025-04-28T08:18:25Z</time>
      </trkpt>
      <trkpt lat="42.759687015786767" lon="-3.125645974650979">
        <ele>541.36000000000001</ele>
        <time>2025-04-28T08:18:26Z</time>
      </trkpt>
      <trkpt lat="42.759820036590099" lon="-3.12592601403594">
        <ele>539.44000000000005</ele>
        <time>2025-04-28T08:18:28Z</time>
      </trkpt>
      <trkpt lat="42.759888013824821" lon="-3.126068003475666">
        <ele>538.96000000000004</ele>
        <time>2025-04-28T08:18:29Z</time>
      </trkpt>
      <trkpt lat="42.760094963014126" lon="-3.126502018421888">
        <ele>537.50999999999999</ele>
        <time>2025-04-28T08:18:32Z</time>
      </trkpt>
      <trkpt lat="42.760123964399099" lon="-3.126646019518375">
        <ele>537.02999999999997</ele>
        <time>2025-04-28T08:18:33Z</time>
      </trkpt>
      <trkpt lat="42.760133016854525" lon="-3.126822039484978">
        <ele>537.02999999999997</ele>
        <time>2025-04-28T08:18:34Z</time>
      </trkpt>
      <trkpt lat="42.760140979662538" lon="-3.126983977854252">
        <ele>536.54999999999995</ele>
        <time>2025-04-28T08:18:35Z</time>
      </trkpt>
      <trkpt lat="42.76010200381279" lon="-3.127163015305996">
        <ele>536.54999999999995</ele>
        <time>2025-04-28T08:18:36Z</time>
      </trkpt>
      <trkpt lat="42.760063027963042" lon="-3.12734398059547">
        <ele>536.07000000000005</ele>
        <time>2025-04-28T08:18:37Z</time>
      </trkpt>
      <trkpt lat="42.760023968294263" lon="-3.127526035532355">
        <ele>536.07000000000005</ele>
        <time>2025-04-28T08:18:38Z</time>
      </trkpt>
      <trkpt lat="42.759983986616135" lon="-3.127710018306971">
        <ele>536.07000000000005</ele>
        <time>2025-04-28T08:18:39Z</time>
      </trkpt>
      <trkpt lat="42.759849037975073" lon="-3.128203963860869">
        <ele>535.11000000000001</ele>
        <time>2025-04-28T08:18:42Z</time>
      </trkpt>
      <trkpt lat="42.759797992184758" lon="-3.128359029069543">
        <ele>535.11000000000001</ele>
        <time>2025-04-28T08:18:43Z</time>
      </trkpt>
      <trkpt lat="42.759747030213475" lon="-3.128509987145662">
        <ele>534.63</ele>
        <time>2025-04-28T08:18:44Z</time>
      </trkpt>
      <trkpt lat="42.759697996079922" lon="-3.128655999898911">
        <ele>534.63</ele>
        <time>2025-04-28T08:18:45Z</time>
      </trkpt>
      <trkpt lat="42.759657008573413" lon="-3.128800000995398">
        <ele>534.63</ele>
        <time>2025-04-28T08:18:46Z</time>
      </trkpt>
      <trkpt lat="42.759624989703298" lon="-3.128947019577026">
        <ele>534.63</ele>
        <time>2025-04-28T08:18:47Z</time>
      </trkpt>
      <trkpt lat="42.759592970833182" lon="-3.129094960168004">
        <ele>534.63</ele>
        <time>2025-04-28T08:18:48Z</time>
      </trkpt>
      <trkpt lat="42.759529016911983" lon="-3.129391008988023">
        <ele>534.63</ele>
        <time>2025-04-28T08:18:50Z</time>
      </trkpt>
      <trkpt lat="42.759498003870249" lon="-3.129537021741271">
        <ele>534.63</ele>
        <time>2025-04-28T08:18:51Z</time>
      </trkpt>
      <trkpt lat="42.759437989443541" lon="-3.129669958725572">
        <ele>535.11000000000001</ele>
        <time>2025-04-28T08:18:52Z</time>
      </trkpt>
      <trkpt lat="42.759437989443541" lon="-3.129669958725572">
        <ele>535.11000000000001</ele>
        <time>2025-04-28T08:18:53Z</time>
      </trkpt>
      <trkpt lat="42.759361965581775" lon="-3.129783030599356">
        <ele>535.11000000000001</ele>
        <time>2025-04-28T08:18:54Z</time>
      </trkpt>
      <trkpt lat="42.759182006120682" lon="-3.129972964525223">
        <ele>535.11000000000001</ele>
        <time>2025-04-28T08:18:55Z</time>
      </trkpt>
      <trkpt lat="42.759097013622522" lon="-3.130062986165285">
        <ele>535.59000000000003</ele>
        <time>2025-04-28T08:18:57Z</time>
      </trkpt>
      <trkpt lat="42.759046973660588" lon="-3.130115959793329">
        <ele>535.11000000000001</ele>
        <time>2025-04-28T08:18:58Z</time>
      </trkpt>
      <trkpt lat="42.758987965062261" lon="-3.130250992253423">
        <ele>535.59000000000003</ele>
        <time>2025-04-28T08:18:59Z</time>
      </trkpt>
      <trkpt lat="42.758914958685637" lon="-3.13041896559298">
        <ele>535.59000000000003</ele>
        <time>2025-04-28T08:19:00Z</time>
      </trkpt>
      <trkpt lat="42.758897021412849" lon="-3.130483003333211">
        <ele>535.11000000000001</ele>
        <time>2025-04-28T08:19:01Z</time>
      </trkpt>
      <trkpt lat="42.758897021412849" lon="-3.13054502941668">
        <ele>535.11000000000001</ele>
        <time>2025-04-28T08:19:02Z</time>
      </trkpt>
      <trkpt lat="42.758897021412849" lon="-3.130599008873105">
        <ele>535.11000000000001</ele>
        <time>2025-04-28T08:19:03Z</time>
      </trkpt>
      <trkpt lat="42.758897021412849" lon="-3.130599008873105">
        <ele>534.63</ele>
        <time>2025-04-28T08:19:04Z</time>
      </trkpt>
      <trkpt lat="42.758897021412849" lon="-3.130723983049393">
        <ele>533.19000000000005</ele>
        <time>2025-04-28T08:19:07Z</time>
      </trkpt>
      <trkpt lat="42.758897021412849" lon="-3.130723983049393">
        <ele>530.78999999999996</ele>
        <time>2025-04-28T08:19:19Z</time>
      </trkpt>
      <trkpt lat="42.758905990049243" lon="-3.130829008296132">
        <ele>531.26999999999998</ele>
        <time>2025-04-28T08:25:13Z</time>
      </trkpt>
      <trkpt lat="42.758906995877624" lon="-3.130876030772924">
        <ele>486.56</ele>
        <time>2025-04-28T08:25:35Z</time>
      </trkpt>
      <trkpt lat="42.759029036387801" lon="-3.131122039631009">
        <ele>498.57999999999998</ele>
        <time>2025-04-28T08:25:43Z</time>
      </trkpt>
      <trkpt lat="42.759058037772775" lon="-3.131173001602292">
        <ele>499.06</ele>
        <time>2025-04-28T08:25:44Z</time>
      </trkpt>
      <trkpt lat="42.759261969476938" lon="-3.13153300434351">
        <ele>502.91000000000003</ele>
        <time>2025-04-28T08:25:50Z</time>
      </trkpt>
      <trkpt lat="42.759305974468589" lon="-3.131710030138493">
        <ele>504.35000000000002</ele>
        <time>2025-04-28T08:25:52Z</time>
      </trkpt>
      <trkpt lat="42.759326007217169" lon="-3.13179099932313">
        <ele>505.31</ele>
        <time>2025-04-28T08:25:53Z</time>
      </trkpt>
      <trkpt lat="42.759317038580775" lon="-3.132014963775873">
        <ele>506.26999999999998</ele>
        <time>2025-04-28T08:25:55Z</time>
      </trkpt>
      <trkpt lat="42.759257024154067" lon="-3.133413987234235">
        <ele>513</ele>
        <time>2025-04-28T08:26:04Z</time>
      </trkpt>
      <trkpt lat="42.759107993915677" lon="-3.135196985676885">
        <ele>519.25</ele>
        <time>2025-04-28T08:26:13Z</time>
      </trkpt>
      <trkpt lat="42.758860979229212" lon="-3.137148041278124">
        <ele>525.01999999999998</ele>
        <time>2025-04-28T08:26:22Z</time>
      </trkpt>
      <trkpt lat="42.758803982287645" lon="-3.137565962970257">
        <ele>525.98000000000002</ele>
        <time>2025-04-28T08:26:24Z</time>
      </trkpt>
      <trkpt lat="42.758757965639234" lon="-3.13774298876524">
        <ele>526.46000000000004</ele>
        <time>2025-04-28T08:26:25Z</time>
      </trkpt>
      <trkpt lat="42.758701974526048" lon="-3.137952033430338">
        <ele>526.46000000000004</ele>
        <time>2025-04-28T08:26:26Z</time>
      </trkpt>
      <trkpt lat="42.758628968149424" lon="-3.138123024255037">
        <ele>526.46000000000004</ele>
        <time>2025-04-28T08:26:27Z</time>
      </trkpt>
      <trkpt lat="42.758550010621548" lon="-3.138306001201272">
        <ele>526.94000000000005</ele>
        <time>2025-04-28T08:26:28Z</time>
      </trkpt>
      <trkpt lat="42.757995966821909" lon="-3.139601005241275">
        <ele>526.46000000000004</ele>
        <time>2025-04-28T08:26:36Z</time>
      </trkpt>
      <trkpt lat="42.757794968783855" lon="-3.141227010637522">
        <ele>527.41999999999996</ele>
        <time>2025-04-28T08:26:44Z</time>
      </trkpt>
      <trkpt lat="42.757745012640953" lon="-3.141399007290602">
        <ele>527.41999999999996</ele>
        <time>2025-04-28T08:26:45Z</time>
      </trkpt>
      <trkpt lat="42.757710982114077" lon="-3.141519958153367">
        <ele>526.94000000000005</ele>
        <time>2025-04-28T08:26:46Z</time>
      </trkpt>
      <trkpt lat="42.757675023749471" lon="-3.141647027805448">
        <ele>526.94000000000005</ele>
        <time>2025-04-28T08:26:47Z</time>
      </trkpt>
      <trkpt lat="42.757629007101059" lon="-3.141807038336992">
        <ele>526.94000000000005</ele>
        <time>2025-04-28T08:26:48Z</time>
      </trkpt>
      <trkpt lat="42.757608974352479" lon="-3.141875015571713">
        <ele>526.94000000000005</ele>
        <time>2025-04-28T08:26:49Z</time>
      </trkpt>
      <trkpt lat="42.757608974352479" lon="-3.142069978639484">
        <ele>526.94000000000005</ele>
        <time>2025-04-28T08:26:50Z</time>
      </trkpt>
      <trkpt lat="42.757608974352479" lon="-3.142291009426117">
        <ele>527.41999999999996</ele>
        <time>2025-04-28T08:26:51Z</time>
      </trkpt>
      <trkpt lat="42.75763101875782" lon="-3.144218008965254">
        <ele>532.71000000000004</ele>
        <time>2025-04-28T08:26:59Z</time>
      </trkpt>
      <trkpt lat="42.75763101875782" lon="-3.144450020045042">
        <ele>533.19000000000005</ele>
        <time>2025-04-28T08:27:00Z</time>
      </trkpt>
      <trkpt lat="42.757586007937789" lon="-3.144670967012644">
        <ele>533.19000000000005</ele>
        <time>2025-04-28T08:27:01Z</time>
      </trkpt>
      <trkpt lat="42.757538985460997" lon="-3.14489996060729">
        <ele>533.66999999999996</ele>
        <time>2025-04-28T08:27:02Z</time>
      </trkpt>
      <trkpt lat="42.757491962984204" lon="-3.145129038020968">
        <ele>533.66999999999996</ele>
        <time>2025-04-28T08:27:03Z</time>
      </trkpt>
      <trkpt lat="42.757445024326444" lon="-3.145359037443996">
        <ele>533.66999999999996</ele>
        <time>2025-04-28T08:27:04Z</time>
      </trkpt>
      <trkpt lat="42.757171019911766" lon="-3.147280002012849">
        <ele>534.63</ele>
        <time>2025-04-28T08:27:13Z</time>
      </trkpt>
      <trkpt lat="42.757100025191903" lon="-3.148108972236514">
        <ele>534.14999999999998</ele>
        <time>2025-04-28T08:27:18Z</time>
      </trkpt>
      <trkpt lat="42.757155010476708" lon="-3.148400997743011">
        <ele>534.14999999999998</ele>
        <time>2025-04-28T08:27:21Z</time>
      </trkpt>
      <trkpt lat="42.757163979113102" lon="-3.148537036031485">
        <ele>534.14999999999998</ele>
        <time>2025-04-28T08:27:22Z</time>
      </trkpt>
      <trkpt lat="42.757241008803248" lon="-3.149444963783026">
        <ele>533.66999999999996</ele>
        <time>2025-04-28T08:27:28Z</time>
      </trkpt>
      <trkpt lat="42.757665971294045" lon="-3.150947000831366">
        <ele>533.66999999999996</ele>
        <time>2025-04-28T08:27:36Z</time>
      </trkpt>
      <trkpt lat="42.758684959262609" lon="-3.15323299728334">
        <ele>531.75</ele>
        <time>2025-04-28T08:27:48Z</time>
      </trkpt>
      <trkpt lat="42.758759977295995" lon="-3.153421003371477">
        <ele>531.26999999999998</ele>
        <time>2025-04-28T08:27:49Z</time>
      </trkpt>
      <trkpt lat="42.759200027212501" lon="-3.154623974114656">
        <ele>528.38</ele>
        <time>2025-04-28T08:27:56Z</time>
      </trkpt>
      <trkpt lat="42.759297005832195" lon="-3.154721036553383">
        <ele>527.89999999999998</ele>
        <time>2025-04-28T08:27:57Z</time>
      </trkpt>
      <trkpt lat="42.759635969996452" lon="-3.155090007930994">
        <ele>527.89999999999998</ele>
        <time>2025-04-28T08:28:00Z</time>
      </trkpt>
      <trkpt lat="42.759749041870236" lon="-3.155228979885578">
        <ele>527.89999999999998</ele>
        <time>2025-04-28T08:28:01Z</time>
      </trkpt>
      <trkpt lat="42.759863035753369" lon="-3.155368035659194">
        <ele>527.89999999999998</ele>
        <time>2025-04-28T08:28:02Z</time>
      </trkpt>
      <trkpt lat="42.759944004938006" lon="-3.155537014827132">
        <ele>527.41999999999996</ele>
        <time>2025-04-28T08:28:03Z</time>
      </trkpt>
      <trkpt lat="42.760022962465882" lon="-3.15572602674365">
        <ele>527.41999999999996</ele>
        <time>2025-04-28T08:28:04Z</time>
      </trkpt>
      <trkpt lat="42.760103009641171" lon="-3.155918978154659">
        <ele>526.94000000000005</ele>
        <time>2025-04-28T08:28:05Z</time>
      </trkpt>
      <trkpt lat="42.760264026001096" lon="-3.156305970624089">
        <ele>526.46000000000004</ele>
        <time>2025-04-28T08:28:07Z</time>
      </trkpt>
      <trkpt lat="42.760841036215425" lon="-3.157414980232716">
        <ele>524.05999999999995</ele>
        <time>2025-04-28T08:28:13Z</time>
      </trkpt>
      <trkpt lat="42.760968022048473" lon="-3.157529979944229">
        <ele>523.58000000000004</ele>
        <time>2025-04-28T08:28:14Z</time>
      </trkpt>
      <trkpt lat="42.761131972074509" lon="-3.157567027956247">
        <ele>523.09000000000003</ele>
        <time>2025-04-28T08:28:15Z</time>
      </trkpt>
      <trkpt lat="42.761293994262815" lon="-3.157596029341221">
        <ele>522.61000000000001</ele>
        <time>2025-04-28T08:28:16Z</time>
      </trkpt>
      <trkpt lat="42.761448975652456" lon="-3.157623019069433">
        <ele>522.61000000000001</ele>
        <time>2025-04-28T08:28:17Z</time>
      </trkpt>
      <trkpt lat="42.761578978970647" lon="-3.157646991312504">
        <ele>523.09000000000003</ele>
        <time>2025-04-28T08:28:18Z</time>
      </trkpt>
      <trkpt lat="42.761741001158953" lon="-3.157772971317172">
        <ele>523.09000000000003</ele>
        <time>2025-04-28T08:28:19Z</time>
      </trkpt>
      <trkpt lat="42.761877961456776" lon="-3.157879002392292">
        <ele>523.09000000000003</ele>
        <time>2025-04-28T08:28:20Z</time>
      </trkpt>
      <trkpt lat="42.762003019452095" lon="-3.158000959083438">
        <ele>523.58000000000004</ele>
        <time>2025-04-28T08:28:21Z</time>
      </trkpt>
      <trkpt lat="42.762112990021706" lon="-3.158158035948873">
        <ele>524.05999999999995</ele>
        <time>2025-04-28T08:28:22Z</time>
      </trkpt>
      <trkpt lat="42.762180967256427" lon="-3.15834897570312">
        <ele>524.53999999999996</ele>
        <time>2025-04-28T08:28:23Z</time>
      </trkpt>
      <trkpt lat="42.76225003413856" lon="-3.158547040075064">
        <ele>525.01999999999998</ele>
        <time>2025-04-28T08:28:24Z</time>
      </trkpt>
      <trkpt lat="42.762321028858423" lon="-3.158748038113117">
        <ele>525.5</ele>
        <time>2025-04-28T08:28:25Z</time>
      </trkpt>
      <trkpt lat="42.763012032955885" lon="-3.160751983523369">
        <ele>527.89999999999998</ele>
        <time>2025-04-28T08:28:35Z</time>
      </trkpt>
      <trkpt lat="42.763085039332509" lon="-3.16094602458179">
        <ele>527.89999999999998</ele>
        <time>2025-04-28T08:28:36Z</time>
      </trkpt>
      <trkpt lat="42.763183023780584" lon="-3.161124978214502">
        <ele>527.89999999999998</ele>
        <time>2025-04-28T08:28:37Z</time>
      </trkpt>
      <trkpt lat="42.763297017663717" lon="-3.161287000402808">
        <ele>528.38</ele>
        <time>2025-04-28T08:28:38Z</time>
      </trkpt>
      <trkpt lat="42.763416040688753" lon="-3.161439970135689">
        <ele>528.38</ele>
        <time>2025-04-28T08:28:39Z</time>
      </trkpt>
      <trkpt lat="42.764279963448644" lon="-3.162550991401076">
        <ele>527.89999999999998</ele>
        <time>2025-04-28T08:28:46Z</time>
      </trkpt>
      <trkpt lat="42.764664022251964" lon="-3.163045020774007">
        <ele>527.89999999999998</ele>
        <time>2025-04-28T08:28:49Z</time>
      </trkpt>
      <trkpt lat="42.764776004478335" lon="-3.163221040740609">
        <ele>527.41999999999996</ele>
        <time>2025-04-28T08:28:50Z</time>
      </trkpt>
      <trkpt lat="42.764854962006211" lon="-3.16344098187983">
        <ele>526.46000000000004</ele>
        <time>2025-04-28T08:28:51Z</time>
      </trkpt>
      <trkpt lat="42.765484023839235" lon="-3.165368987247348">
        <ele>523.09000000000003</ele>
        <time>2025-04-28T08:29:00Z</time>
      </trkpt>
      <trkpt lat="42.765466002747416" lon="-3.165579959750176">
        <ele>523.09000000000003</ele>
        <time>2025-04-28T08:29:01Z</time>
      </trkpt>
      <trkpt lat="42.765446975827217" lon="-3.165797973051667">
        <ele>523.09000000000003</ele>
        <time>2025-04-28T08:29:02Z</time>
      </trkpt>
      <trkpt lat="42.765395008027554" lon="-3.16599695943296">
        <ele>523.09000000000003</ele>
        <time>2025-04-28T08:29:03Z</time>
      </trkpt>
      <trkpt lat="42.765324013307691" lon="-3.166198963299394">
        <ele>523.09000000000003</ele>
        <time>2025-04-28T08:29:04Z</time>
      </trkpt>
      <trkpt lat="42.765236003324389" lon="-3.166384035721421">
        <ele>522.61000000000001</ele>
        <time>2025-04-28T08:29:05Z</time>
      </trkpt>
      <trkpt lat="42.765129972249269" lon="-3.166556032374501">
        <ele>522.61000000000001</ele>
        <time>2025-04-28T08:29:06Z</time>
      </trkpt>
      <trkpt lat="42.764823026955128" lon="-3.167102029547095">
        <ele>522.13</ele>
        <time>2025-04-28T08:29:09Z</time>
      </trkpt>
      <trkpt lat="42.764736022800207" lon="-3.167276959866285">
        <ele>522.13</ele>
        <time>2025-04-28T08:29:10Z</time>
      </trkpt>
      <trkpt lat="42.764679025858641" lon="-3.167475024238229">
        <ele>522.13</ele>
        <time>2025-04-28T08:29:11Z</time>
      </trkpt>
      <trkpt lat="42.764633009210229" lon="-3.167685996741056">
        <ele>521.64999999999998</ele>
        <time>2025-04-28T08:29:12Z</time>
      </trkpt>
      <trkpt lat="42.764615993946791" lon="-3.167904010042548">
        <ele>521.16999999999996</ele>
        <time>2025-04-28T08:29:13Z</time>
      </trkpt>
      <trkpt lat="42.764647006988525" lon="-3.168135015293956">
        <ele>521.16999999999996</ele>
        <time>2025-04-28T08:29:14Z</time>
      </trkpt>
      <trkpt lat="42.76467802003026" lon="-3.168360991403461">
        <ele>520.69000000000005</ele>
        <time>2025-04-28T08:29:15Z</time>
      </trkpt>
      <trkpt lat="42.76470098644495" lon="-3.168530976399779">
        <ele>520.21000000000004</ele>
        <time>2025-04-28T08:29:16Z</time>
      </trkpt>
      <trkpt lat="42.764761000871658" lon="-3.168799029663205">
        <ele>518.76999999999998</ele>
        <time>2025-04-28T08:29:21Z</time>
      </trkpt>
      <trkpt lat="42.764815986156464" lon="-3.169005978852511">
        <ele>516.37</ele>
        <time>2025-04-28T08:29:26Z</time>
      </trkpt>
      <trkpt lat="42.764819003641605" lon="-3.169018970802426">
        <ele>515.88</ele>
        <time>2025-04-28T08:29:27Z</time>
      </trkpt>
      <trkpt lat="42.764862002804875" lon="-3.169103963300586">
        <ele>515.88</ele>
        <time>2025-04-28T08:29:28Z</time>
      </trkpt>
      <trkpt lat="42.764894021674991" lon="-3.169168001040816">
        <ele>515.88</ele>
        <time>2025-04-28T08:29:29Z</time>
      </trkpt>
      <trkpt lat="42.764926040545106" lon="-3.169232960790396">
        <ele>515.88</ele>
        <time>2025-04-28T08:29:30Z</time>
      </trkpt>
      <trkpt lat="42.764956969767809" lon="-3.169294986873865">
        <ele>515.88</ele>
        <time>2025-04-28T08:29:31Z</time>
      </trkpt>
      <trkpt lat="42.764986976981163" lon="-3.169356007128954">
        <ele>515.88</ele>
        <time>2025-04-28T08:29:32Z</time>
      </trkpt>
      <trkpt lat="42.765026958659291" lon="-3.169419039040804">
        <ele>515.39999999999998</ele>
        <time>2025-04-28T08:29:33Z</time>
      </trkpt>
      <trkpt lat="42.765086973085999" lon="-3.169472012668848">
        <ele>515.39999999999998</ele>
        <time>2025-04-28T08:29:34Z</time>
      </trkpt>
      <trkpt lat="42.765477988868952" lon="-3.16982296295464">
        <ele>513.96000000000004</ele>
        <time>2025-04-28T08:29:39Z</time>
      </trkpt>
      <trkpt lat="42.765573039650917" lon="-3.169908039271832">
        <ele>513.48000000000002</ele>
        <time>2025-04-28T08:29:40Z</time>
      </trkpt>
      <trkpt lat="42.766220960766077" lon="-3.171013025566936">
        <ele>511.07999999999998</ele>
        <time>2025-04-28T08:29:48Z</time>
      </trkpt>
      <trkpt lat="42.766420030966401" lon="-3.171961018815637">
        <ele>510.60000000000002</ele>
        <time>2025-04-28T08:29:53Z</time>
      </trkpt>
      <trkpt lat="42.766424976289272" lon="-3.172165034338832">
        <ele>510.60000000000002</ele>
        <time>2025-04-28T08:29:54Z</time>
      </trkpt>
      <trkpt lat="42.766405027359724" lon="-3.172381035983563">
        <ele>510.60000000000002</ele>
        <time>2025-04-28T08:29:55Z</time>
      </trkpt>
      <trkpt lat="42.76618299074471" lon="-3.174465028569102">
        <ele>510.60000000000002</ele>
        <time>2025-04-28T08:30:04Z</time>
      </trkpt>
      <trkpt lat="42.765901023522019" lon="-3.176706014201045">
        <ele>511.07999999999998</ele>
        <time>2025-04-28T08:30:14Z</time>
      </trkpt>
      <trkpt lat="42.765588965266943" lon="-3.178029013797641">
        <ele>513</ele>
        <time>2025-04-28T08:30:21Z</time>
      </trkpt>
      <trkpt lat="42.765498021617532" lon="-3.178403014317155">
        <ele>513</ele>
        <time>2025-04-28T08:30:23Z</time>
      </trkpt>
      <trkpt lat="42.765461979433894" lon="-3.178610969334841">
        <ele>513</ele>
        <time>2025-04-28T08:30:24Z</time>
      </trkpt>
      <trkpt lat="42.765458039939404" lon="-3.178827976807952">
        <ele>513</ele>
        <time>2025-04-28T08:30:25Z</time>
      </trkpt>
      <trkpt lat="42.765445969998837" lon="-3.180896965786815">
        <ele>509.16000000000003</ele>
        <time>2025-04-28T08:30:34Z</time>
      </trkpt>
      <trkpt lat="42.765659037977457" lon="-3.18284098058939">
        <ele>508.67000000000002</ele>
        <time>2025-04-28T08:30:43Z</time>
      </trkpt>
      <trkpt lat="42.766321040689945" lon="-3.184534963220358">
        <ele>510.12</ele>
        <time>2025-04-28T08:30:51Z</time>
      </trkpt>
      <trkpt lat="42.766588004305959" lon="-3.185191014781594">
        <ele>510.60000000000002</ele>
        <time>2025-04-28T08:30:54Z</time>
      </trkpt>
      <trkpt lat="42.766643995419145" lon="-3.185433000326157">
        <ele>511.07999999999998</ele>
        <time>2025-04-28T08:30:55Z</time>
      </trkpt>
      <trkpt lat="42.766694035381079" lon="-3.1856759916991">
        <ele>511.07999999999998</ele>
        <time>2025-04-28T08:30:56Z</time>
      </trkpt>
      <trkpt lat="42.767184963449836" lon="-3.18808201700449">
        <ele>513</ele>
        <time>2025-04-28T08:31:06Z</time>
      </trkpt>
      <trkpt lat="42.76781402528286" lon="-3.190197022631764">
        <ele>515.88</ele>
        <time>2025-04-28T08:31:15Z</time>
      </trkpt>
      <trkpt lat="42.767850989475846" lon="-3.190442025661469">
        <ele>516.37</ele>
        <time>2025-04-28T08:31:16Z</time>
      </trkpt>
      <trkpt lat="42.76787999086082" lon="-3.190690968185663">
        <ele>517.33000000000004</ele>
        <time>2025-04-28T08:31:17Z</time>
      </trkpt>
      <trkpt lat="42.767990967258811" lon="-3.192060990259051">
        <ele>519.25</ele>
        <time>2025-04-28T08:31:23Z</time>
      </trkpt>
      <trkpt lat="42.768014017492533" lon="-3.192258970811963">
        <ele>519.73000000000002</ele>
        <time>2025-04-28T08:31:24Z</time>
      </trkpt>
      <trkpt lat="42.768099009990692" lon="-3.192424010485411">
        <ele>519.73000000000002</ele>
        <time>2025-04-28T08:31:25Z</time>
      </trkpt>
      <trkpt lat="42.768190959468484" lon="-3.192584021016955">
        <ele>519.73000000000002</ele>
        <time>2025-04-28T08:31:26Z</time>
      </trkpt>
      <trkpt lat="42.768293973058462" lon="-3.192749982699752">
        <ele>520.21000000000004</ele>
        <time>2025-04-28T08:31:27Z</time>
      </trkpt>
      <trkpt lat="42.768423976376653" lon="-3.192879986017942">
        <ele>520.69000000000005</ele>
        <time>2025-04-28T08:31:28Z</time>
      </trkpt>
      <trkpt lat="42.768536964431405" lon="-3.193033961579204">
        <ele>520.69000000000005</ele>
        <time>2025-04-28T08:31:29Z</time>
      </trkpt>
      <trkpt lat="42.768630003556609" lon="-3.193221967667341">
        <ele>520.69000000000005</ele>
        <time>2025-04-28T08:31:30Z</time>
      </trkpt>
      <trkpt lat="42.76867501437664" lon="-3.193435035645962">
        <ele>520.69000000000005</ele>
        <time>2025-04-28T08:31:31Z</time>
      </trkpt>
      <trkpt lat="42.768723964691162" lon="-3.193674003705382">
        <ele>520.69000000000005</ele>
        <time>2025-04-28T08:31:32Z</time>
      </trkpt>
      <trkpt lat="42.768757995218039" lon="-3.193864021450281">
        <ele>520.69000000000005</ele>
        <time>2025-04-28T08:31:33Z</time>
      </trkpt>
      <trkpt lat="42.768832007423043" lon="-3.194274986162782">
        <ele>520.69000000000005</ele>
        <time>2025-04-28T08:31:35Z</time>
      </trkpt>
      <trkpt lat="42.768918005749583" lon="-3.194438014179468">
        <ele>520.69000000000005</ele>
        <time>2025-04-28T08:31:36Z</time>
      </trkpt>
      <trkpt lat="42.769102994352579" lon="-3.194794999435544">
        <ele>520.69000000000005</ele>
        <time>2025-04-28T08:31:38Z</time>
      </trkpt>
      <trkpt lat="42.769193015992641" lon="-3.194993985816836">
        <ele>520.21000000000004</ele>
        <time>2025-04-28T08:31:39Z</time>
      </trkpt>
      <trkpt lat="42.769861975684762" lon="-3.197044031694531">
        <ele>520.69000000000005</ele>
        <time>2025-04-28T08:31:48Z</time>
      </trkpt>
      <trkpt lat="42.770141009241343" lon="-3.197879958897829">
        <ele>522.13</ele>
        <time>2025-04-28T08:31:52Z</time>
      </trkpt>
      <trkpt lat="42.770253997296095" lon="-3.198064025491476">
        <ele>522.61000000000001</ele>
        <time>2025-04-28T08:31:53Z</time>
      </trkpt>
      <trkpt lat="42.770368997007608" lon="-3.198204003274441">
        <ele>523.09000000000003</ele>
        <time>2025-04-28T08:31:54Z</time>
      </trkpt>
      <trkpt lat="42.770503023639321" lon="-3.198311040177941">
        <ele>524.05999999999995</ele>
        <time>2025-04-28T08:31:55Z</time>
      </trkpt>
      <trkpt lat="42.770649958401918" lon="-3.198353033512831">
        <ele>524.53999999999996</ele>
        <time>2025-04-28T08:31:56Z</time>
      </trkpt>
      <trkpt lat="42.770794965326786" lon="-3.198357978835702">
        <ele>525.01999999999998</ele>
        <time>2025-04-28T08:31:57Z</time>
      </trkpt>
      <trkpt lat="42.77092999778688" lon="-3.198290001600981">
        <ele>525.5</ele>
        <time>2025-04-28T08:31:58Z</time>
      </trkpt>
      <trkpt lat="42.771069975569844" lon="-3.198220012709498">
        <ele>525.98000000000002</ele>
        <time>2025-04-28T08:31:59Z</time>
      </trkpt>
      <trkpt lat="42.771219005808234" lon="-3.198152035474777">
        <ele>526.46000000000004</ele>
        <time>2025-04-28T08:32:00Z</time>
      </trkpt>
      <trkpt lat="42.771372981369495" lon="-3.198087997734547">
        <ele>526.94000000000005</ele>
        <time>2025-04-28T08:32:01Z</time>
      </trkpt>
      <trkpt lat="42.771528968587518" lon="-3.198028989136219">
        <ele>526.94000000000005</ele>
        <time>2025-04-28T08:32:02Z</time>
      </trkpt>
      <trkpt lat="42.771699037402868" lon="-3.198014991357923">
        <ele>527.41999999999996</ele>
        <time>2025-04-28T08:32:03Z</time>
      </trkpt>
      <trkpt lat="42.772620040923357" lon="-3.198021026328206">
        <ele>528.86000000000001</ele>
        <time>2025-04-28T08:32:08Z</time>
      </trkpt>
      <trkpt lat="42.772801006212831" lon="-3.19805103354156">
        <ele>528.86000000000001</ele>
        <time>2025-04-28T08:32:09Z</time>
      </trkpt>
      <trkpt lat="42.772966967895627" lon="-3.198150023818016">
        <ele>528.86000000000001</ele>
        <time>2025-04-28T08:32:10Z</time>
      </trkpt>
      <trkpt lat="42.773137958720326" lon="-3.198251025751233">
        <ele>528.86000000000001</ele>
        <time>2025-04-28T08:32:11Z</time>
      </trkpt>
      <trkpt lat="42.773307021707296" lon="-3.19835202768445">
        <ele>528.38</ele>
        <time>2025-04-28T08:32:12Z</time>
      </trkpt>
      <trkpt lat="42.773472983390093" lon="-3.198451017960906">
        <ele>528.38</ele>
        <time>2025-04-28T08:32:13Z</time>
      </trkpt>
      <trkpt lat="42.773652020841837" lon="-3.198498040437698">
        <ele>528.38</ele>
        <time>2025-04-28T08:32:14Z</time>
      </trkpt>
      <trkpt lat="42.773828962817788" lon="-3.198539027944207">
        <ele>527.89999999999998</ele>
        <time>2025-04-28T08:32:15Z</time>
      </trkpt>
      <trkpt lat="42.774002971127629" lon="-3.198513966053724">
        <ele>527.89999999999998</ele>
        <time>2025-04-28T08:32:16Z</time>
      </trkpt>
      <trkpt lat="42.774179996922612" lon="-3.198475996032357">
        <ele>527.89999999999998</ele>
        <time>2025-04-28T08:32:17Z</time>
      </trkpt>
      <trkpt lat="42.774359034374356" lon="-3.198414975777268">
        <ele>527.41999999999996</ele>
        <time>2025-04-28T08:32:18Z</time>
      </trkpt>
      <trkpt lat="42.774536982178688" lon="-3.198336018249393">
        <ele>527.41999999999996</ele>
        <time>2025-04-28T08:32:19Z</time>
      </trkpt>
      <trkpt lat="42.775577008724213" lon="-3.197956988587976">
        <ele>526.46000000000004</ele>
        <time>2025-04-28T08:32:25Z</time>
      </trkpt>
      <trkpt lat="42.77574498206377" lon="-3.197953971102834">
        <ele>526.46000000000004</ele>
        <time>2025-04-28T08:32:26Z</time>
      </trkpt>
      <trkpt lat="42.775910021737218" lon="-3.197970986366272">
        <ele>526.46000000000004</ele>
        <time>2025-04-28T08:32:27Z</time>
      </trkpt>
      <trkpt lat="42.776228031143546" lon="-3.198063019663096">
        <ele>526.94000000000005</ele>
        <time>2025-04-28T08:32:29Z</time>
      </trkpt>
      <trkpt lat="42.77638703584671" lon="-3.1981370318681">
        <ele>526.94000000000005</ele>
        <time>2025-04-28T08:32:30Z</time>
      </trkpt>
      <trkpt lat="42.776544028893113" lon="-3.198209032416344">
        <ele>526.94000000000005</ele>
        <time>2025-04-28T08:32:31Z</time>
      </trkpt>
      <trkpt lat="42.7766880299896" lon="-3.19831196218729">
        <ele>527.41999999999996</ele>
        <time>2025-04-28T08:32:32Z</time>
      </trkpt>
      <trkpt lat="42.776822978630662" lon="-3.198445988819003">
        <ele>526.94000000000005</ele>
        <time>2025-04-28T08:32:33Z</time>
      </trkpt>
      <trkpt lat="42.776963040232658" lon="-3.198586972430348">
        <ele>526.94000000000005</ele>
        <time>2025-04-28T08:32:34Z</time>
      </trkpt>
      <trkpt lat="42.777101006358862" lon="-3.198728961870074">
        <ele>526.94000000000005</ele>
        <time>2025-04-28T08:32:35Z</time>
      </trkpt>
      <trkpt lat="42.777222963050008" lon="-3.198912022635341">
        <ele>526.46000000000004</ele>
        <time>2025-04-28T08:32:36Z</time>
      </trkpt>
      <trkpt lat="42.777348021045327" lon="-3.199099022895098">
        <ele>525.98000000000002</ele>
        <time>2025-04-28T08:32:37Z</time>
      </trkpt>
      <trkpt lat="42.77746100910008" lon="-3.199302032589912">
        <ele>525.98000000000002</ele>
        <time>2025-04-28T08:32:38Z</time>
      </trkpt>
      <trkpt lat="42.778629027307034" lon="-3.2017030287534">
        <ele>525.5</ele>
        <time>2025-04-28T08:32:49Z</time>
      </trkpt>
      <trkpt lat="42.778818039223552" lon="-3.202166967093945">
        <ele>525.5</ele>
        <time>2025-04-28T08:32:51Z</time>
      </trkpt>
      <trkpt lat="42.77888098731637" lon="-3.202424040064216">
        <ele>525.5</ele>
        <time>2025-04-28T08:32:52Z</time>
      </trkpt>
      <trkpt lat="42.779631000012159" lon="-3.20548402145505">
        <ele>526.46000000000004</ele>
        <time>2025-04-28T08:33:04Z</time>
      </trkpt>
      <trkpt lat="42.779693026095629" lon="-3.205729024484754">
        <ele>526.94000000000005</ele>
        <time>2025-04-28T08:33:05Z</time>
      </trkpt>
      <trkpt lat="42.779782963916659" lon="-3.2059580180794">
        <ele>527.89999999999998</ele>
        <time>2025-04-28T08:33:06Z</time>
      </trkpt>
      <trkpt lat="42.779881032183766" lon="-3.206174019724131">
        <ele>528.38</ele>
        <time>2025-04-28T08:33:07Z</time>
      </trkpt>
      <trkpt lat="42.779979016631842" lon="-3.206392033025622">
        <ele>529.34000000000003</ele>
        <time>2025-04-28T08:33:08Z</time>
      </trkpt>
      <trkpt lat="42.780047999694943" lon="-3.206629995256662">
        <ele>529.82000000000005</ele>
        <time>2025-04-28T08:33:09Z</time>
      </trkpt>
      <trkpt lat="42.780101979151368" lon="-3.206869969144464">
        <ele>530.29999999999995</ele>
        <time>2025-04-28T08:33:10Z</time>
      </trkpt>
      <trkpt lat="42.780392998829484" lon="-3.208156004548073">
        <ele>531.26999999999998</ele>
        <time>2025-04-28T08:33:17Z</time>
      </trkpt>
      <trkpt lat="42.780418982729316" lon="-3.208440989255905">
        <ele>530.29999999999995</ele>
        <time>2025-04-28T08:33:19Z</time>
      </trkpt>
      <trkpt lat="42.780418982729316" lon="-3.208593036979437">
        <ele>529.82000000000005</ele>
        <time>2025-04-28T08:33:20Z</time>
      </trkpt>
      <trkpt lat="42.780400961637497" lon="-3.208723962306976">
        <ele>529.34000000000003</ele>
        <time>2025-04-28T08:33:21Z</time>
      </trkpt>
      <trkpt lat="42.780352011322975" lon="-3.208861006423831">
        <ele>528.38</ele>
        <time>2025-04-28T08:33:22Z</time>
      </trkpt>
      <trkpt lat="42.780299037694931" lon="-3.208991009742022">
        <ele>527.41999999999996</ele>
        <time>2025-04-28T08:33:23Z</time>
      </trkpt>
      <trkpt lat="42.780215973034501" lon="-3.209111960604787">
        <ele>526.46000000000004</ele>
        <time>2025-04-28T08:33:24Z</time>
      </trkpt>
      <trkpt lat="42.780130980536342" lon="-3.209236012771726">
        <ele>525.5</ele>
        <time>2025-04-28T08:33:25Z</time>
      </trkpt>
      <trkpt lat="42.780043976381421" lon="-3.209360986948013">
        <ele>524.53999999999996</ele>
        <time>2025-04-28T08:33:26Z</time>
      </trkpt>
      <trkpt lat="42.779954960569739" lon="-3.209490990266204">
        <ele>524.05999999999995</ele>
        <time>2025-04-28T08:33:27Z</time>
      </trkpt>
      <trkpt lat="42.779873991385102" lon="-3.209628034383059">
        <ele>523.58000000000004</ele>
        <time>2025-04-28T08:33:28Z</time>
      </trkpt>
      <trkpt lat="42.779829986393452" lon="-3.209788966923952">
        <ele>523.09000000000003</ele>
        <time>2025-04-28T08:33:29Z</time>
      </trkpt>
      <trkpt lat="42.779785981401801" lon="-3.209948977455497">
        <ele>522.61000000000001</ele>
        <time>2025-04-28T08:33:30Z</time>
      </trkpt>
      <trkpt lat="42.779747005552053" lon="-3.210109993815422">
        <ele>522.61000000000001</ele>
        <time>2025-04-28T08:33:31Z</time>
      </trkpt>
      <trkpt lat="42.779325982555747" lon="-3.212738977745175">
        <ele>528.38</ele>
        <time>2025-04-28T08:33:46Z</time>
      </trkpt>
      <trkpt lat="42.779074022546411" lon="-3.214653991162777">
        <ele>529.82000000000005</ele>
        <time>2025-04-28T08:33:56Z</time>
      </trkpt>
      <trkpt lat="42.778907977044582" lon="-3.216407988220453">
        <ele>531.75</ele>
        <time>2025-04-28T08:34:05Z</time>
      </trkpt>
      <trkpt lat="42.778790965676308" lon="-3.217887980863452">
        <ele>532.71000000000004</ele>
        <time>2025-04-28T08:34:15Z</time>
      </trkpt>
      <trkpt lat="42.778617041185498" lon="-3.219897039234638">
        <ele>530.29999999999995</ele>
        <time>2025-04-28T08:34:28Z</time>
      </trkpt>
      <trkpt lat="42.778610000386834" lon="-3.220357960090041">
        <ele>529.82000000000005</ele>
        <time>2025-04-28T08:34:31Z</time>
      </trkpt>
      <trkpt lat="42.778633972629905" lon="-3.220513025298715">
        <ele>528.86000000000001</ele>
        <time>2025-04-28T08:34:32Z</time>
      </trkpt>
      <trkpt lat="42.778659034520388" lon="-3.220677981153131">
        <ele>528.86000000000001</ele>
        <time>2025-04-28T08:34:33Z</time>
      </trkpt>
      <trkpt lat="42.778693987056613" lon="-3.220854001119733">
        <ele>528.38</ele>
        <time>2025-04-28T08:34:34Z</time>
      </trkpt>
      <trkpt lat="42.778758024796844" lon="-3.221029015257955">
        <ele>527.89999999999998</ele>
        <time>2025-04-28T08:34:35Z</time>
      </trkpt>
      <trkpt lat="42.779457997530699" lon="-3.22293296456337">
        <ele>525.01999999999998</ele>
        <time>2025-04-28T08:34:44Z</time>
      </trkpt>
      <trkpt lat="42.780818967148662" lon="-3.226501978933811">
        <ele>526.94000000000005</ele>
        <time>2025-04-28T08:35:00Z</time>
      </trkpt>
      <trkpt lat="42.782131992280483" lon="-3.229960016906261">
        <ele>533.19000000000005</ele>
        <time>2025-04-28T08:35:15Z</time>
      </trkpt>
      <trkpt lat="42.783202026039362" lon="-3.232795028015971">
        <ele>534.63</ele>
        <time>2025-04-28T08:35:27Z</time>
      </trkpt>
      <trkpt lat="42.784451013430953" lon="-3.236107975244522">
        <ele>535.59000000000003</ele>
        <time>2025-04-28T08:35:40Z</time>
      </trkpt>
      <trkpt lat="42.785436976701021" lon="-3.238719021901488">
        <ele>536.54999999999995</ele>
        <time>2025-04-28T08:35:50Z</time>
      </trkpt>
      <trkpt lat="42.786920992657542" lon="-3.242666982114315">
        <ele>542.32000000000005</ele>
        <time>2025-04-28T08:36:06Z</time>
      </trkpt>
      <trkpt lat="42.788486983627081" lon="-3.246834967285395">
        <ele>552.40999999999997</ele>
        <time>2025-04-28T08:36:23Z</time>
      </trkpt>
      <trkpt lat="42.788680018857121" lon="-3.247529994696379">
        <ele>553.86000000000001</ele>
        <time>2025-04-28T08:36:26Z</time>
      </trkpt>
      <trkpt lat="42.788701979443431" lon="-3.247773991897702">
        <ele>554.34000000000003</ele>
        <time>2025-04-28T08:36:27Z</time>
      </trkpt>
      <trkpt lat="42.788701979443431" lon="-3.24802603572607">
        <ele>554.82000000000005</ele>
        <time>2025-04-28T08:36:28Z</time>
      </trkpt>
      <trkpt lat="42.788655962795019" lon="-3.24826399795711">
        <ele>555.29999999999995</ele>
        <time>2025-04-28T08:36:29Z</time>
      </trkpt>
      <trkpt lat="42.788583040237427" lon="-3.248502966016531">
        <ele>555.77999999999997</ele>
        <time>2025-04-28T08:36:30Z</time>
      </trkpt>
      <trkpt lat="42.788509028032422" lon="-3.248746963217855">
        <ele>556.25999999999999</ele>
        <time>2025-04-28T08:36:31Z</time>
      </trkpt>
      <trkpt lat="42.788406014442444" lon="-3.248975034803152">
        <ele>556.25999999999999</ele>
        <time>2025-04-28T08:36:32Z</time>
      </trkpt>
      <trkpt lat="42.788286991417408" lon="-3.249201010912657">
        <ele>556.74000000000001</ele>
        <time>2025-04-28T08:36:33Z</time>
      </trkpt>
      <trkpt lat="42.7870889659971" lon="-3.251550039276481">
        <ele>557.70000000000005</ele>
        <time>2025-04-28T08:36:44Z</time>
      </trkpt>
      <trkpt lat="42.787014031782746" lon="-3.251765035092831">
        <ele>558.17999999999995</ele>
        <time>2025-04-28T08:36:45Z</time>
      </trkpt>
      <trkpt lat="42.786967009305954" lon="-3.25200098566711">
        <ele>558.17999999999995</ele>
        <time>2025-04-28T08:36:46Z</time>
      </trkpt>
      <trkpt lat="42.786920992657542" lon="-3.252231990918517">
        <ele>558.17999999999995</ele>
        <time>2025-04-28T08:36:47Z</time>
      </trkpt>
      <trkpt lat="42.786920992657542" lon="-3.252493003383279">
        <ele>558.17999999999995</ele>
        <time>2025-04-28T08:36:48Z</time>
      </trkpt>
      <trkpt lat="42.786929039284587" lon="-3.252744963392615">
        <ele>558.17999999999995</ele>
        <time>2025-04-28T08:36:49Z</time>
      </trkpt>
      <trkpt lat="42.786956029012799" lon="-3.253001030534506">
        <ele>558.17999999999995</ele>
        <time>2025-04-28T08:36:50Z</time>
      </trkpt>
      <trkpt lat="42.787001961842179" lon="-3.253250978887081">
        <ele>557.70000000000005</ele>
        <time>2025-04-28T08:36:51Z</time>
      </trkpt>
      <trkpt lat="42.787055019289255" lon="-3.253501011058688">
        <ele>557.22000000000003</ele>
        <time>2025-04-28T08:36:52Z</time>
      </trkpt>
      <trkpt lat="42.787535972893238" lon="-3.255908964201808">
        <ele>550.97000000000003</ele>
        <time>2025-04-28T08:37:01Z</time>
      </trkpt>
      <trkpt lat="42.787889018654823" lon="-3.258981015533209">
        <ele>544.24000000000001</ele>
        <time>2025-04-28T08:37:12Z</time>
      </trkpt>
      <trkpt lat="42.788035031408072" lon="-3.261032989248633">
        <ele>543.27999999999997</ele>
        <time>2025-04-28T08:37:20Z</time>
      </trkpt>
      <trkpt lat="42.788143996149302" lon="-3.261479996144772">
        <ele>543.27999999999997</ele>
        <time>2025-04-28T08:37:22Z</time>
      </trkpt>
      <trkpt lat="42.788252960890532" lon="-3.261684011667967">
        <ele>543.27999999999997</ele>
        <time>2025-04-28T08:37:23Z</time>
      </trkpt>
      <trkpt lat="42.788357986137271" lon="-3.261877968907356">
        <ele>543.27999999999997</ele>
        <time>2025-04-28T08:37:24Z</time>
      </trkpt>
      <trkpt lat="42.789758015424013" lon="-3.263870012015104">
        <ele>541.84000000000003</ele>
        <time>2025-04-28T08:37:35Z</time>
      </trkpt>
      <trkpt lat="42.791082020848989" lon="-3.26570900157094">
        <ele>545.20000000000005</ele>
        <time>2025-04-28T08:37:47Z</time>
      </trkpt>
      <trkpt lat="42.791781993582845" lon="-3.266469994559884">
        <ele>545.69000000000005</ele>
        <time>2025-04-28T08:37:55Z</time>
      </trkpt>
      <trkpt lat="42.791873021051288" lon="-3.266562027856708">
        <ele>546.16999999999996</ele>
        <time>2025-04-28T08:37:56Z</time>
      </trkpt>
      <trkpt lat="42.791948039084673" lon="-3.266688007861376">
        <ele>546.16999999999996</ele>
        <time>2025-04-28T08:37:57Z</time>
      </trkpt>
      <trkpt lat="42.791996989399195" lon="-3.266827985644341">
        <ele>546.16999999999996</ele>
        <time>2025-04-28T08:37:58Z</time>
      </trkpt>
      <trkpt lat="42.792047029361129" lon="-3.266969975084066">
        <ele>546.16999999999996</ele>
        <time>2025-04-28T08:37:59Z</time>
      </trkpt>
      <trkpt lat="42.79247903265059" lon="-3.268234971910715">
        <ele>548.57000000000005</ele>
        <time>2025-04-28T08:38:08Z</time>
      </trkpt>
      <trkpt lat="42.792506022378802" lon="-3.268384002149105">
        <ele>549.04999999999995</ele>
        <time>2025-04-28T08:38:09Z</time>
      </trkpt>
      <trkpt lat="42.792519014328718" lon="-3.268538983538747">
        <ele>549.04999999999995</ele>
        <time>2025-04-28T08:38:10Z</time>
      </trkpt>
      <trkpt lat="42.792655974626541" lon="-3.270390965044498">
        <ele>550.49000000000001</ele>
        <time>2025-04-28T08:38:22Z</time>
      </trkpt>
      <trkpt lat="42.792695034295321" lon="-3.271462004631758">
        <ele>552.89999999999998</ele>
        <time>2025-04-28T08:38:29Z</time>
      </trkpt>
      <trkpt lat="42.79267399571836" lon="-3.271608017385006">
        <ele>553.38</ele>
        <time>2025-04-28T08:38:30Z</time>
      </trkpt>
      <trkpt lat="42.792649017646909" lon="-3.271756963804364">
        <ele>553.86000000000001</ele>
        <time>2025-04-28T08:38:31Z</time>
      </trkpt>
      <trkpt lat="42.792596966028214" lon="-3.272062987089157">
        <ele>554.34000000000003</ele>
        <time>2025-04-28T08:38:33Z</time>
      </trkpt>
      <trkpt lat="42.792570982128382" lon="-3.272213023155928">
        <ele>554.82000000000005</ele>
        <time>2025-04-28T08:38:34Z</time>
      </trkpt>
      <trkpt lat="42.792541980743408" lon="-3.272380996495485">
        <ele>554.82000000000005</ele>
        <time>2025-04-28T08:38:35Z</time>
      </trkpt>
      <trkpt lat="42.792493030428886" lon="-3.272504964843392">
        <ele>555.29999999999995</ele>
        <time>2025-04-28T08:38:36Z</time>
      </trkpt>
      <trkpt lat="42.792437039315701" lon="-3.272644020617008">
        <ele>555.29999999999995</ele>
        <time>2025-04-28T08:38:37Z</time>
      </trkpt>
      <trkpt lat="42.792380964383483" lon="-3.272779975086451">
        <ele>555.77999999999997</ele>
        <time>2025-04-28T08:38:38Z</time>
      </trkpt>
      <trkpt lat="42.792051974684" lon="-3.273597965016961">
        <ele>558.17999999999995</ele>
        <time>2025-04-28T08:38:44Z</time>
      </trkpt>
      <trkpt lat="42.792000006884336" lon="-3.273735009133816">
        <ele>558.65999999999997</ele>
        <time>2025-04-28T08:38:45Z</time>
      </trkpt>
      <trkpt lat="42.791646961122751" lon="-3.274523997679353">
        <ele>562.50999999999999</ele>
        <time>2025-04-28T08:38:51Z</time>
      </trkpt>
      <trkpt lat="42.790912035852671" lon="-3.275618003681302">
        <ele>565.38999999999999</ele>
        <time>2025-04-28T08:39:00Z</time>
      </trkpt>
      <trkpt lat="42.790826037526131" lon="-3.275750018656254">
        <ele>565.87</ele>
        <time>2025-04-28T08:39:01Z</time>
      </trkpt>
      <trkpt lat="42.790783038362861" lon="-3.275947999209166">
        <ele>566.35000000000002</ele>
        <time>2025-04-28T08:39:02Z</time>
      </trkpt>
      <trkpt lat="42.790742972865701" lon="-3.276136005297303">
        <ele>566.35000000000002</ele>
        <time>2025-04-28T08:39:03Z</time>
      </trkpt>
      <trkpt lat="42.790697040036321" lon="-3.276351001113653">
        <ele>566.83000000000004</ele>
        <time>2025-04-28T08:39:04Z</time>
      </trkpt>
      <trkpt lat="42.790697040036321" lon="-3.276541018858552">
        <ele>566.83000000000004</ele>
        <time>2025-04-28T08:39:05Z</time>
      </trkpt>
      <trkpt lat="42.790685975924134" lon="-3.276758026331663">
        <ele>567.32000000000005</ele>
        <time>2025-04-28T08:39:06Z</time>
      </trkpt>
      <trkpt lat="42.790726963430643" lon="-3.277686992660165">
        <ele>569.72000000000003</ele>
        <time>2025-04-28T08:39:10Z</time>
      </trkpt>
      <trkpt lat="42.790768034756184" lon="-3.277928978204727">
        <ele>570.67999999999995</ele>
        <time>2025-04-28T08:39:11Z</time>
      </trkpt>
      <trkpt lat="42.790902983397245" lon="-3.278665998950601">
        <ele>573.55999999999995</ele>
        <time>2025-04-28T08:39:14Z</time>
      </trkpt>
      <trkpt lat="42.79112895950675" lon="-3.281438983976841">
        <ele>582.22000000000003</ele>
        <time>2025-04-28T08:39:25Z</time>
      </trkpt>
      <trkpt lat="42.791093001142144" lon="-3.281642999500036">
        <ele>583.17999999999995</ele>
        <time>2025-04-28T08:39:26Z</time>
      </trkpt>
      <trkpt lat="42.791048996150494" lon="-3.281852966174483">
        <ele>583.65999999999997</ele>
        <time>2025-04-28T08:39:27Z</time>
      </trkpt>
      <trkpt lat="42.790966015309095" lon="-3.282055975869298">
        <ele>584.62</ele>
        <time>2025-04-28T08:39:28Z</time>
      </trkpt>
      <trkpt lat="42.790882028639317" lon="-3.282263008877635">
        <ele>585.10000000000002</ele>
        <time>2025-04-28T08:39:29Z</time>
      </trkpt>
      <trkpt lat="42.789789028465748" lon="-3.28493700362742">
        <ele>589.90999999999997</ele>
        <time>2025-04-28T08:39:41Z</time>
      </trkpt>
      <trkpt lat="42.789743011817336" lon="-3.285171026363969">
        <ele>590.38999999999999</ele>
        <time>2025-04-28T08:39:42Z</time>
      </trkpt>
      <trkpt lat="42.789720967411995" lon="-3.285414017736912">
        <ele>590.87</ele>
        <time>2025-04-28T08:39:43Z</time>
      </trkpt>
      <trkpt lat="42.789435982704163" lon="-3.288746997714043">
        <ele>594.71000000000004</ele>
        <time>2025-04-28T08:39:56Z</time>
      </trkpt>
      <trkpt lat="42.789161978289485" lon="-3.291661972180009">
        <ele>598.08000000000004</ele>
        <time>2025-04-28T08:40:07Z</time>
      </trkpt>
      <trkpt lat="42.788835000246763" lon="-3.295166026800871">
        <ele>594.23000000000002</ele>
        <time>2025-04-28T08:40:20Z</time>
      </trkpt>
      <trkpt lat="42.788597960025072" lon="-3.297826023772359">
        <ele>587.5</ele>
        <time>2025-04-28T08:40:31Z</time>
      </trkpt>
      <trkpt lat="42.788478014990687" lon="-3.299103006720543">
        <ele>587.98000000000002</ele>
        <time>2025-04-28T08:40:39Z</time>
      </trkpt>
      <trkpt lat="42.788416994735599" lon="-3.3005799818784">
        <ele>589.90999999999997</ele>
        <time>2025-04-28T08:40:48Z</time>
      </trkpt>
      <trkpt lat="42.788453958928585" lon="-3.300735969096422">
        <ele>590.38999999999999</ele>
        <time>2025-04-28T08:40:49Z</time>
      </trkpt>
      <trkpt lat="42.788938013836741" lon="-3.302421988919377">
        <ele>588.46000000000004</ele>
        <time>2025-04-28T08:40:58Z</time>
      </trkpt>
      <trkpt lat="42.78981601819396" lon="-3.305427990853787">
        <ele>586.05999999999995</ele>
        <time>2025-04-28T08:41:10Z</time>
      </trkpt>
      <trkpt lat="42.790789995342493" lon="-3.308770023286343">
        <ele>582.70000000000005</ele>
        <time>2025-04-28T08:41:23Z</time>
      </trkpt>
      <trkpt lat="42.790906000882387" lon="-3.30925902351737">
        <ele>582.70000000000005</ele>
        <time>2025-04-28T08:41:25Z</time>
      </trkpt>
      <trkpt lat="42.7909329906106" lon="-3.309476030990481">
        <ele>582.22000000000003</ele>
        <time>2025-04-28T08:41:26Z</time>
      </trkpt>
      <trkpt lat="42.790915975347161" lon="-3.309679040685296">
        <ele>581.73000000000002</ele>
        <time>2025-04-28T08:41:27Z</time>
      </trkpt>
      <trkpt lat="42.790866019204259" lon="-3.309880960732698">
        <ele>581.73000000000002</ele>
        <time>2025-04-28T08:41:28Z</time>
      </trkpt>
      <trkpt lat="42.79080399312079" lon="-3.310091011226177">
        <ele>581.25</ele>
        <time>2025-04-28T08:41:29Z</time>
      </trkpt>
      <trkpt lat="42.789958007633686" lon="-3.312122030183673">
        <ele>578.37</ele>
        <time>2025-04-28T08:41:38Z</time>
      </trkpt>
      <trkpt lat="42.78865504078567" lon="-3.315263986587524">
        <ele>570.20000000000005</ele>
        <time>2025-04-28T08:41:52Z</time>
      </trkpt>
      <trkpt lat="42.78818397782743" lon="-3.31639101728797">
        <ele>565.87</ele>
        <time>2025-04-28T08:42:00Z</time>
      </trkpt>
      <trkpt lat="42.787415022030473" lon="-3.31826101988554">
        <ele>563.47000000000003</ele>
        <time>2025-04-28T08:42:13Z</time>
      </trkpt>
      <trkpt lat="42.78665998019278" lon="-3.320133034139872">
        <ele>557.70000000000005</ele>
        <time>2025-04-28T08:42:26Z</time>
      </trkpt>
      <trkpt lat="42.786468034610152" lon="-3.32073301076889">
        <ele>555.77999999999997</ele>
        <time>2025-04-28T08:42:30Z</time>
      </trkpt>
      <trkpt lat="42.786426963284612" lon="-3.320896960794926">
        <ele>555.29999999999995</ele>
        <time>2025-04-28T08:42:31Z</time>
      </trkpt>
      <trkpt lat="42.786415982991457" lon="-3.32105697132647">
        <ele>555.29999999999995</ele>
        <time>2025-04-28T08:42:32Z</time>
      </trkpt>
      <trkpt lat="42.786328978836536" lon="-3.322844998911023">
        <ele>552.40999999999997</ele>
        <time>2025-04-28T08:42:41Z</time>
      </trkpt>
      <trkpt lat="42.786349011585116" lon="-3.325484963133931">
        <ele>546.16999999999996</ele>
        <time>2025-04-28T08:42:52Z</time>
      </trkpt>
      <trkpt lat="42.786781014874578" lon="-3.32814697176218">
        <ele>546.16999999999996</ele>
        <time>2025-04-28T08:43:02Z</time>
      </trkpt>
      <trkpt lat="42.787707969546318" lon="-3.331503001973033">
        <ele>549.52999999999997</ele>
        <time>2025-04-28T08:43:15Z</time>
      </trkpt>
      <trkpt lat="42.788772974163294" lon="-3.33510403521359">
        <ele>550.00999999999999</ele>
        <time>2025-04-28T08:43:29Z</time>
      </trkpt>
      <trkpt lat="42.7894720248878" lon="-3.337495978921652">
        <ele>544.24000000000001</ele>
        <time>2025-04-28T08:43:39Z</time>
      </trkpt>
      <trkpt lat="42.789667993783951" lon="-3.338115988299251">
        <ele>543.75999999999999</ele>
        <time>2025-04-28T08:43:42Z</time>
      </trkpt>
      <trkpt lat="42.789766984060407" lon="-3.338300976902247">
        <ele>543.27999999999997</ele>
        <time>2025-04-28T08:43:43Z</time>
      </trkpt>
      <trkpt lat="42.789887012913823" lon="-3.338454030454159">
        <ele>543.27999999999997</ele>
        <time>2025-04-28T08:43:44Z</time>
      </trkpt>
      <trkpt lat="42.791054025292397" lon="-3.340110965073109">
        <ele>543.27999999999997</ele>
        <time>2025-04-28T08:43:54Z</time>
      </trkpt>
      <trkpt lat="42.791465995833278" lon="-3.340814961120486">
        <ele>543.27999999999997</ele>
        <time>2025-04-28T08:43:58Z</time>
      </trkpt>
      <trkpt lat="42.792084999382496" lon="-3.342332001775503">
        <ele>541.84000000000003</ele>
        <time>2025-04-28T08:44:05Z</time>
      </trkpt>
      <trkpt lat="42.792718000710011" lon="-3.344786977395415">
        <ele>534.14999999999998</ele>
        <time>2025-04-28T08:44:15Z</time>
      </trkpt>
      <trkpt lat="42.792741972953081" lon="-3.345036003738642">
        <ele>533.66999999999996</ele>
        <time>2025-04-28T08:44:16Z</time>
      </trkpt>
      <trkpt lat="42.792750019580126" lon="-3.345275977626443">
        <ele>533.19000000000005</ele>
        <time>2025-04-28T08:44:17Z</time>
      </trkpt>
      <trkpt lat="42.792728981003165" lon="-3.345519974827766">
        <ele>532.71000000000004</ele>
        <time>2025-04-28T08:44:18Z</time>
      </trkpt>
      <trkpt lat="42.792709032073617" lon="-3.345764977857471">
        <ele>531.75</ele>
        <time>2025-04-28T08:44:19Z</time>
      </trkpt>
      <trkpt lat="42.792269987985492" lon="-3.347344966605306">
        <ele>530.29999999999995</ele>
        <time>2025-04-28T08:44:26Z</time>
      </trkpt>
      <trkpt lat="42.79106299392879" lon="-3.349225027486682">
        <ele>531.26999999999998</ele>
        <time>2025-04-28T08:44:36Z</time>
      </trkpt>
      <trkpt lat="42.789409998804331" lon="-3.351651001721621">
        <ele>530.29999999999995</ele>
        <time>2025-04-28T08:44:49Z</time>
      </trkpt>
      <trkpt lat="42.789305979385972" lon="-3.351865997537971">
        <ele>529.82000000000005</ele>
        <time>2025-04-28T08:44:50Z</time>
      </trkpt>
      <trkpt lat="42.789210006594658" lon="-3.352089961990714">
        <ele>529.34000000000003</ele>
        <time>2025-04-28T08:44:51Z</time>
      </trkpt>
      <trkpt lat="42.788788983598351" lon="-3.353192014619708">
        <ele>528.38</ele>
        <time>2025-04-28T08:44:56Z</time>
      </trkpt>
      <trkpt lat="42.78874296694994" lon="-3.353420002385974">
        <ele>528.38</ele>
        <time>2025-04-28T08:44:57Z</time>
      </trkpt>
      <trkpt lat="42.788709020242095" lon="-3.353666011244059">
        <ele>528.38</ele>
        <time>2025-04-28T08:44:58Z</time>
      </trkpt>
      <trkpt lat="42.788673983886838" lon="-3.353918977081776">
        <ele>528.38</ele>
        <time>2025-04-28T08:44:59Z</time>
      </trkpt>
      <trkpt lat="42.788664009422064" lon="-3.354178983718157">
        <ele>528.38</ele>
        <time>2025-04-28T08:45:00Z</time>
      </trkpt>
      <trkpt lat="42.788672978058457" lon="-3.354446031153202">
        <ele>528.38</ele>
        <time>2025-04-28T08:45:01Z</time>
      </trkpt>
      <trkpt lat="42.788682030513883" lon="-3.35472003556788">
        <ele>528.38</ele>
        <time>2025-04-28T08:45:02Z</time>
      </trkpt>
      <trkpt lat="42.788644982501864" lon="-3.357564015313983">
        <ele>530.78999999999996</ele>
        <time>2025-04-28T08:45:12Z</time>
      </trkpt>
      <trkpt lat="42.788560995832086" lon="-3.360399026423693">
        <ele>534.14999999999998</ele>
        <time>2025-04-28T08:45:23Z</time>
      </trkpt>
      <trkpt lat="42.788466028869152" lon="-3.361558998003602">
        <ele>536.54999999999995</ele>
        <time>2025-04-28T08:45:30Z</time>
      </trkpt>
      <trkpt lat="42.788049029186368" lon="-3.36305701173842">
        <ele>537.99000000000001</ele>
        <time>2025-04-28T08:45:40Z</time>
      </trkpt>
      <trkpt lat="42.788039976730943" lon="-3.363218028098345">
        <ele>538.48000000000002</ele>
        <time>2025-04-28T08:45:41Z</time>
      </trkpt>
      <trkpt lat="42.788051040843129" lon="-3.363365968689323">
        <ele>538.96000000000004</ele>
        <time>2025-04-28T08:45:42Z</time>
      </trkpt>
      <trkpt lat="42.788100996986032" lon="-3.363533020019531">
        <ele>539.44000000000005</ele>
        <time>2025-04-28T08:45:43Z</time>
      </trkpt>
      <trkpt lat="42.788157993927598" lon="-3.363648019731045">
        <ele>539.91999999999996</ele>
        <time>2025-04-28T08:45:44Z</time>
      </trkpt>
      <trkpt lat="42.788246003910899" lon="-3.363763019442558">
        <ele>540.39999999999998</ele>
        <time>2025-04-28T08:45:45Z</time>
      </trkpt>
      <trkpt lat="42.788329990580678" lon="-3.363890005275607">
        <ele>541.36000000000001</ele>
        <time>2025-04-28T08:45:46Z</time>
      </trkpt>
      <trkpt lat="42.788429986685514" lon="-3.363991007208824">
        <ele>541.36000000000001</ele>
        <time>2025-04-28T08:45:47Z</time>
      </trkpt>
      <trkpt lat="42.788530988618731" lon="-3.364083962514997">
        <ele>541.84000000000003</ele>
        <time>2025-04-28T08:45:48Z</time>
      </trkpt>
      <trkpt lat="42.788631990551949" lon="-3.364173984155059">
        <ele>542.79999999999995</ele>
        <time>2025-04-28T08:45:49Z</time>
      </trkpt>
      <trkpt lat="42.789038009941578" lon="-3.364534992724657">
        <ele>544.72000000000003</ele>
        <time>2025-04-28T08:45:53Z</time>
      </trkpt>
      <trkpt lat="42.789113027974963" lon="-3.364664996042848">
        <ele>545.20000000000005</ele>
        <time>2025-04-28T08:45:54Z</time>
      </trkpt>
      <trkpt lat="42.789158038794994" lon="-3.364811008796096">
        <ele>545.69000000000005</ele>
        <time>2025-04-28T08:45:55Z</time>
      </trkpt>
      <trkpt lat="42.789191985502839" lon="-3.364957021549344">
        <ele>546.16999999999996</ele>
        <time>2025-04-28T08:45:56Z</time>
      </trkpt>
      <trkpt lat="42.789177987724543" lon="-3.365113008767366">
        <ele>546.64999999999998</ele>
        <time>2025-04-28T08:45:57Z</time>
      </trkpt>
      <trkpt lat="42.789144041016698" lon="-3.365268995985389">
        <ele>547.13</ele>
        <time>2025-04-28T08:45:58Z</time>
      </trkpt>
      <trkpt lat="42.78908796608448" lon="-3.365463959053159">
        <ele>547.61000000000001</ele>
        <time>2025-04-28T08:45:59Z</time>
      </trkpt>
      <trkpt lat="42.789027029648423" lon="-3.365622041746974">
        <ele>548.57000000000005</ele>
        <time>2025-04-28T08:46:00Z</time>
      </trkpt>
      <trkpt lat="42.788598965853453" lon="-3.366857031360269">
        <ele>553.38</ele>
        <time>2025-04-28T08:46:06Z</time>
      </trkpt>
      <trkpt lat="42.788565019145608" lon="-3.367083007469773">
        <ele>553.86000000000001</ele>
        <time>2025-04-28T08:46:07Z</time>
      </trkpt>
      <trkpt lat="42.788551021367311" lon="-3.367309989407659">
        <ele>555.29999999999995</ele>
        <time>2025-04-28T08:46:08Z</time>
      </trkpt>
      <trkpt lat="42.788599971681833" lon="-3.36752800270915">
        <ele>556.25999999999999</ele>
        <time>2025-04-28T08:46:09Z</time>
      </trkpt>
      <trkpt lat="42.788659986108541" lon="-3.367752972990274">
        <ele>557.70000000000005</ele>
        <time>2025-04-28T08:46:10Z</time>
      </trkpt>
      <trkpt lat="42.788750007748604" lon="-3.367975009605289">
        <ele>558.65999999999997</ele>
        <time>2025-04-28T08:46:11Z</time>
      </trkpt>
      <trkpt lat="42.789818029850721" lon="-3.370544984936714">
        <ele>569.24000000000001</ele>
        <time>2025-04-28T08:46:22Z</time>
      </trkpt>
      <trkpt lat="42.789961025118828" lon="-3.37070700712502">
        <ele>569.72000000000003</ele>
        <time>2025-04-28T08:46:23Z</time>
      </trkpt>
      <trkpt lat="42.790120029821992" lon="-3.37085603736341">
        <ele>570.20000000000005</ele>
        <time>2025-04-28T08:46:24Z</time>
      </trkpt>
      <trkpt lat="42.791562974452972" lon="-3.372175013646483">
        <ele>569.24000000000001</ele>
        <time>2025-04-28T08:46:32Z</time>
      </trkpt>
      <trkpt lat="42.791881989687681" lon="-3.372502997517586">
        <ele>567.79999999999995</ele>
        <time>2025-04-28T08:46:34Z</time>
      </trkpt>
      <trkpt lat="42.792026996612549" lon="-3.372677005827427">
        <ele>567.32000000000005</ele>
        <time>2025-04-28T08:46:35Z</time>
      </trkpt>
      <trkpt lat="42.792131016030908" lon="-3.372902981936932">
        <ele>566.35000000000002</ele>
        <time>2025-04-28T08:46:36Z</time>
      </trkpt>
      <trkpt lat="42.792748007923365" lon="-3.374106036499143">
        <ele>560.59000000000003</ele>
        <time>2025-04-28T08:46:42Z</time>
      </trkpt>
      <trkpt lat="42.792882034555078" lon="-3.374247020110488">
        <ele>559.62</ele>
        <time>2025-04-28T08:46:43Z</time>
      </trkpt>
      <trkpt lat="42.793031986802816" lon="-3.37438196875155">
        <ele>559.13999999999999</ele>
        <time>2025-04-28T08:46:44Z</time>
      </trkpt>
      <trkpt lat="42.794609041884542" lon="-3.375662975013256">
        <ele>552.89999999999998</ele>
        <time>2025-04-28T08:46:54Z</time>
      </trkpt>
      <trkpt lat="42.796179978176951" lon="-3.37667902931571">
        <ele>548.09000000000003</ele>
        <time>2025-04-28T08:47:03Z</time>
      </trkpt>
      <trkpt lat="42.79634602367878" lon="-3.376825964078307">
        <ele>548.09000000000003</ele>
        <time>2025-04-28T08:47:04Z</time>
      </trkpt>
      <trkpt lat="42.79679898172617" lon="-3.377368021756411">
        <ele>547.61000000000001</ele>
        <time>2025-04-28T08:47:07Z</time>
      </trkpt>
      <trkpt lat="42.796926973387599" lon="-3.377567008137703">
        <ele>547.61000000000001</ele>
        <time>2025-04-28T08:47:08Z</time>
      </trkpt>
      <trkpt lat="42.797042978927493" lon="-3.377775968983769">
        <ele>547.61000000000001</ele>
        <time>2025-04-28T08:47:09Z</time>
      </trkpt>
      <trkpt lat="42.79821602627635" lon="-3.38046002201736">
        <ele>547.61000000000001</ele>
        <time>2025-04-28T08:47:21Z</time>
      </trkpt>
      <trkpt lat="42.799188997596502" lon="-3.38303703814745">
        <ele>549.04999999999995</ele>
        <time>2025-04-28T08:47:32Z</time>
      </trkpt>
      <trkpt lat="42.800115030258894" lon="-3.385320017114282">
        <ele>550.00999999999999</ele>
        <time>2025-04-28T08:47:42Z</time>
      </trkpt>
      <trkpt lat="42.80060201883316" lon="-3.386085033416748">
        <ele>551.92999999999995</ele>
        <time>2025-04-28T08:47:47Z</time>
      </trkpt>
      <trkpt lat="42.800700003281236" lon="-3.386172959581018">
        <ele>552.40999999999997</ele>
        <time>2025-04-28T08:47:48Z</time>
      </trkpt>
      <trkpt lat="42.800896978005767" lon="-3.386304974555969">
        <ele>553.38</ele>
        <time>2025-04-28T08:47:50Z</time>
      </trkpt>
      <trkpt lat="42.801340967416763" lon="-3.386600017547607">
        <ele>555.29999999999995</ele>
        <time>2025-04-28T08:47:54Z</time>
      </trkpt>
      <trkpt lat="42.801436018198729" lon="-3.386695990338922">
        <ele>555.77999999999997</ele>
        <time>2025-04-28T08:47:55Z</time>
      </trkpt>
      <trkpt lat="42.801510030403733" lon="-3.38681903667748">
        <ele>556.25999999999999</ele>
        <time>2025-04-28T08:47:56Z</time>
      </trkpt>
      <trkpt lat="42.801555963233113" lon="-3.386958008632064">
        <ele>556.74000000000001</ele>
        <time>2025-04-28T08:47:57Z</time>
      </trkpt>
      <trkpt lat="42.80159099958837" lon="-3.387112990021706">
        <ele>557.22000000000003</ele>
        <time>2025-04-28T08:47:58Z</time>
      </trkpt>
      <trkpt lat="42.801627041772008" lon="-3.387267971411347">
        <ele>557.22000000000003</ele>
        <time>2025-04-28T08:47:59Z</time>
      </trkpt>
      <trkpt lat="42.801659982651472" lon="-3.38742496445775">
        <ele>557.70000000000005</ele>
        <time>2025-04-28T08:48:00Z</time>
      </trkpt>
      <trkpt lat="42.801944967359304" lon="-3.389134034514427">
        <ele>560.59000000000003</ele>
        <time>2025-04-28T08:48:11Z</time>
      </trkpt>
      <trkpt lat="42.801962988451123" lon="-3.389245010912418">
        <ele>560.59000000000003</ele>
        <time>2025-04-28T08:48:12Z</time>
      </trkpt>
      <trkpt lat="42.801981009542942" lon="-3.389349030330777">
        <ele>560.59000000000003</ele>
        <time>2025-04-28T08:48:13Z</time>
      </trkpt>
      <trkpt lat="42.801999030634761" lon="-3.389454977586865">
        <ele>560.59000000000003</ele>
        <time>2025-04-28T08:48:14Z</time>
      </trkpt>
      <trkpt lat="42.802074970677495" lon="-3.389894021674991">
        <ele>560.59000000000003</ele>
        <time>2025-04-28T08:48:18Z</time>
      </trkpt>
      <trkpt lat="42.802112018689513" lon="-3.390063000842929">
        <ele>560.11000000000001</ele>
        <time>2025-04-28T08:48:20Z</time>
      </trkpt>
      <trkpt lat="42.802125010639429" lon="-3.39010700583458">
        <ele>560.11000000000001</ele>
        <time>2025-04-28T08:48:21Z</time>
      </trkpt>
      <trkpt lat="42.802133979275823" lon="-3.390141036361456">
        <ele>560.11000000000001</ele>
        <time>2025-04-28T08:48:22Z</time>
      </trkpt>
      <trkpt lat="42.802143031731248" lon="-3.390352008864284">
        <ele>560.11000000000001</ele>
        <time>2025-04-28T08:48:28Z</time>
      </trkpt>
      <trkpt lat="42.802113024517894" lon="-3.390404982492328">
        <ele>560.11000000000001</ele>
        <time>2025-04-28T08:48:29Z</time>
      </trkpt>
      <trkpt lat="42.802088968455791" lon="-3.390470026060939">
        <ele>560.11000000000001</ele>
        <time>2025-04-28T08:48:30Z</time>
      </trkpt>
      <trkpt lat="42.802033983170986" lon="-3.390501961112022">
        <ele>560.11000000000001</ele>
        <time>2025-04-28T08:48:31Z</time>
      </trkpt>
      <trkpt lat="42.801972040906549" lon="-3.390556024387479">
        <ele>560.11000000000001</ele>
        <time>2025-04-28T08:48:32Z</time>
      </trkpt>
      <trkpt lat="42.801909008994699" lon="-3.390615032985807">
        <ele>560.11000000000001</ele>
        <time>2025-04-28T08:48:33Z</time>
      </trkpt>
      <trkpt lat="42.8016999643296" lon="-3.390807984396815">
        <ele>558.65999999999997</ele>
        <time>2025-04-28T08:48:36Z</time>
      </trkpt>
      <trkpt lat="42.801616983488202" lon="-3.390880990773439">
        <ele>556.74000000000001</ele>
        <time>2025-04-28T08:48:37Z</time>
      </trkpt>
      <trkpt lat="42.801167964935303" lon="-3.391212997958064">
        <ele>549.52999999999997</ele>
        <time>2025-04-28T08:48:42Z</time>
      </trkpt>
      <trkpt lat="42.8010109718889" lon="-3.391259014606476">
        <ele>547.61000000000001</ele>
        <time>2025-04-28T08:48:44Z</time>
      </trkpt>
      <trkpt lat="42.800923967733979" lon="-3.391281981021166">
        <ele>546.64999999999998</ele>
        <time>2025-04-28T08:48:45Z</time>
      </trkpt>
      <trkpt lat="42.800833024084568" lon="-3.391293967142701">
        <ele>546.16999999999996</ele>
        <time>2025-04-28T08:48:46Z</time>
      </trkpt>
      <trkpt lat="42.800639988854527" lon="-3.391320034861565">
        <ele>545.20000000000005</ele>
        <time>2025-04-28T08:48:48Z</time>
      </trkpt>
      <trkpt lat="42.800281997770071" lon="-3.391327997669578">
        <ele>544.24000000000001</ele>
        <time>2025-04-28T08:48:52Z</time>
      </trkpt>
      <trkpt lat="42.80021502636373" lon="-3.391276029869914">
        <ele>543.75999999999999</ele>
        <time>2025-04-28T08:48:53Z</time>
      </trkpt>
      <trkpt lat="42.800173033028841" lon="-3.391172010451555">
        <ele>543.27999999999997</ele>
        <time>2025-04-28T08:48:54Z</time>
      </trkpt>
      <trkpt lat="42.800134979188442" lon="-3.391057010740042">
        <ele>542.79999999999995</ele>
        <time>2025-04-28T08:48:55Z</time>
      </trkpt>
      <trkpt lat="42.800117963925004" lon="-3.390914015471935">
        <ele>542.32000000000005</ele>
        <time>2025-04-28T08:48:56Z</time>
      </trkpt>
      <trkpt lat="42.800059961155057" lon="-3.390356032177806">
        <ele>539.44000000000005</ele>
        <time>2025-04-28T08:49:00Z</time>
      </trkpt>
      <trkpt lat="42.800035988911986" lon="-3.390247989445925">
        <ele>538.96000000000004</ele>
        <time>2025-04-28T08:49:01Z</time>
      </trkpt>
      <trkpt lat="42.799941021949053" lon="-3.390197027474642">
        <ele>538.96000000000004</ele>
        <time>2025-04-28T08:49:02Z</time>
      </trkpt>
      <trkpt lat="42.799859968945384" lon="-3.390213958919048">
        <ele>537.99000000000001</ele>
        <time>2025-04-28T08:49:03Z</time>
      </trkpt>
      <trkpt lat="42.79978503473103" lon="-3.390268022194505">
        <ele>537.50999999999999</ele>
        <time>2025-04-28T08:49:04Z</time>
      </trkpt>
      <trkpt lat="42.799714040011168" lon="-3.390358965843916">
        <ele>537.02999999999997</ele>
        <time>2025-04-28T08:49:05Z</time>
      </trkpt>
      <trkpt lat="42.799644973129034" lon="-3.390484023839235">
        <ele>536.54999999999995</ele>
        <time>2025-04-28T08:49:06Z</time>
      </trkpt>
      <trkpt lat="42.79959300532937" lon="-3.390602041035891">
        <ele>536.07000000000005</ele>
        <time>2025-04-28T08:49:07Z</time>
      </trkpt>
      <trkpt lat="42.798995040357113" lon="-3.392034005373716">
        <ele>534.63</ele>
        <time>2025-04-28T08:49:17Z</time>
      </trkpt>
      <trkpt lat="42.798343012109399" lon="-3.393505029380322">
        <ele>531.75</ele>
        <time>2025-04-28T08:49:25Z</time>
      </trkpt>
      <trkpt lat="42.797469031065702" lon="-3.394686039537191">
        <ele>528.38</ele>
        <time>2025-04-28T08:49:32Z</time>
      </trkpt>
      <trkpt lat="42.795941010117531" lon="-3.396268961951137">
        <ele>532.23000000000002</ele>
        <time>2025-04-28T08:49:43Z</time>
      </trkpt>
      <trkpt lat="42.794711971655488" lon="-3.397565977647901">
        <ele>531.75</ele>
        <time>2025-04-28T08:49:51Z</time>
      </trkpt>
      <trkpt lat="42.794484989717603" lon="-3.397933021187782">
        <ele>531.26999999999998</ele>
        <time>2025-04-28T08:49:53Z</time>
      </trkpt>
      <trkpt lat="42.793873026967049" lon="-3.399587022140622">
        <ele>530.78999999999996</ele>
        <time>2025-04-28T08:50:00Z</time>
      </trkpt>
      <trkpt lat="42.793258968740702" lon="-3.402365958318114">
        <ele>534.63</ele>
        <time>2025-04-28T08:50:10Z</time>
      </trkpt>
      <trkpt lat="42.793228039517999" lon="-3.40265597216785">
        <ele>534.63</ele>
        <time>2025-04-28T08:50:11Z</time>
      </trkpt>
      <trkpt lat="42.793218987062573" lon="-3.402932994067669">
        <ele>535.11000000000001</ele>
        <time>2025-04-28T08:50:12Z</time>
      </trkpt>
      <trkpt lat="42.793325018137693" lon="-3.405209016054869">
        <ele>535.11000000000001</ele>
        <time>2025-04-28T08:50:20Z</time>
      </trkpt>
      <trkpt lat="42.793364999815822" lon="-3.406353984028101">
        <ele>526.46000000000004</ele>
        <time>2025-04-28T08:50:24Z</time>
      </trkpt>
      <trkpt lat="42.793343961238861" lon="-3.406624970957637">
        <ele>524.05999999999995</ele>
        <time>2025-04-28T08:50:25Z</time>
      </trkpt>
      <trkpt lat="42.793287970125675" lon="-3.406896963715553">
        <ele>521.64999999999998</ele>
        <time>2025-04-28T08:50:26Z</time>
      </trkpt>
      <trkpt lat="42.793088983744383" lon="-3.407658962532878">
        <ele>517.33000000000004</ele>
        <time>2025-04-28T08:50:29Z</time>
      </trkpt>
      <trkpt lat="42.792986975982785" lon="-3.407873036339879">
        <ele>516.37</ele>
        <time>2025-04-28T08:50:30Z</time>
      </trkpt>
      <trkpt lat="42.792863007634878" lon="-3.408044027164578">
        <ele>515.39999999999998</ele>
        <time>2025-04-28T08:50:31Z</time>
      </trkpt>
      <trkpt lat="42.792704002931714" lon="-3.408214012160897">
        <ele>514.44000000000005</ele>
        <time>2025-04-28T08:50:32Z</time>
      </trkpt>
      <trkpt lat="42.792534017935395" lon="-3.40834703296423">
        <ele>513.48000000000002</ele>
        <time>2025-04-28T08:50:33Z</time>
      </trkpt>
      <trkpt lat="42.792339976876974" lon="-3.408474018797278">
        <ele>512.51999999999998</ele>
        <time>2025-04-28T08:50:34Z</time>
      </trkpt>
      <trkpt lat="42.792143002152443" lon="-3.408577032387257">
        <ele>511.56</ele>
        <time>2025-04-28T08:50:35Z</time>
      </trkpt>
      <trkpt lat="42.791929012164474" lon="-3.408647021278739">
        <ele>511.07999999999998</ele>
        <time>2025-04-28T08:50:36Z</time>
      </trkpt>
      <trkpt lat="42.790903989225626" lon="-3.409006018191576">
        <ele>507.23000000000002</ele>
        <time>2025-04-28T08:50:41Z</time>
      </trkpt>
      <trkpt lat="42.790710031986237" lon="-3.409120012074709">
        <ele>506.26999999999998</ele>
        <time>2025-04-28T08:50:42Z</time>
      </trkpt>
      <trkpt lat="42.790519008412957" lon="-3.409260995686054">
        <ele>505.79000000000002</ele>
        <time>2025-04-28T08:50:43Z</time>
      </trkpt>
      <trkpt lat="42.790148025378585" lon="-3.409536005929112">
        <ele>504.82999999999998</ele>
        <time>2025-04-28T08:50:45Z</time>
      </trkpt>
      <trkpt lat="42.789790034294128" lon="-3.409801041707397">
        <ele>503.38999999999999</ele>
        <time>2025-04-28T08:50:47Z</time>
      </trkpt>
      <trkpt lat="42.789619965478778" lon="-3.409967003390193">
        <ele>502.91000000000003</ele>
        <time>2025-04-28T08:50:48Z</time>
      </trkpt>
      <trkpt lat="42.788758976384997" lon="-3.411164022982121">
        <ele>500.5</ele>
        <time>2025-04-28T08:50:54Z</time>
      </trkpt>
      <trkpt lat="42.788647999987006" lon="-3.411408020183444">
        <ele>500.5</ele>
        <time>2025-04-28T08:50:55Z</time>
      </trkpt>
      <trkpt lat="42.788138967007399" lon="-3.412550976499915">
        <ele>499.06</ele>
        <time>2025-04-28T08:51:00Z</time>
      </trkpt>
      <trkpt lat="42.788104014471173" lon="-3.412795979529619">
        <ele>498.57999999999998</ele>
        <time>2025-04-28T08:51:01Z</time>
      </trkpt>
      <trkpt lat="42.788068978115916" lon="-3.413042994216085">
        <ele>498.10000000000002</ele>
        <time>2025-04-28T08:51:02Z</time>
      </trkpt>
      <trkpt lat="42.788069983944297" lon="-3.41326997615397">
        <ele>497.62</ele>
        <time>2025-04-28T08:51:03Z</time>
      </trkpt>
      <trkpt lat="42.788090016692877" lon="-3.413515985012054">
        <ele>497.13999999999999</ele>
        <time>2025-04-28T08:51:04Z</time>
      </trkpt>
      <trkpt lat="42.788110971450806" lon="-3.413767023012042">
        <ele>496.18000000000001</ele>
        <time>2025-04-28T08:51:05Z</time>
      </trkpt>
      <trkpt lat="42.788129998371005" lon="-3.414002973586321">
        <ele>497.13999999999999</ele>
        <time>2025-04-28T08:51:06Z</time>
      </trkpt>
      <trkpt lat="42.788150031119585" lon="-3.414242025464773">
        <ele>498.10000000000002</ele>
        <time>2025-04-28T08:51:07Z</time>
      </trkpt>
      <trkpt lat="42.788149025291204" lon="-3.414518041536212">
        <ele>499.06</ele>
        <time>2025-04-28T08:51:08Z</time>
      </trkpt>
      <trkpt lat="42.788099991157651" lon="-3.414776958525181">
        <ele>499.06</ele>
        <time>2025-04-28T08:51:09Z</time>
      </trkpt>
      <trkpt lat="42.788051962852478" lon="-3.415026990696788">
        <ele>499.54000000000002</ele>
        <time>2025-04-28T08:51:10Z</time>
      </trkpt>
      <trkpt lat="42.787992032244802" lon="-3.41528800316155">
        <ele>500.5</ele>
        <time>2025-04-28T08:51:11Z</time>
      </trkpt>
      <trkpt lat="42.787607973441482" lon="-3.41621202416718">
        <ele>500.98000000000002</ele>
        <time>2025-04-28T08:51:15Z</time>
      </trkpt>
      <trkpt lat="42.786958962678909" lon="-3.417204022407532">
        <ele>501.94999999999999</ele>
        <time>2025-04-28T08:51:20Z</time>
      </trkpt>
      <trkpt lat="42.786814961582422" lon="-3.417374007403851">
        <ele>501.94999999999999</ele>
        <time>2025-04-28T08:51:21Z</time>
      </trkpt>
      <trkpt lat="42.786672972142696" lon="-3.417539969086647">
        <ele>501.94999999999999</ele>
        <time>2025-04-28T08:51:22Z</time>
      </trkpt>
      <trkpt lat="42.786526037380099" lon="-3.417711965739727">
        <ele>501.45999999999998</ele>
        <time>2025-04-28T08:51:23Z</time>
      </trkpt>
      <trkpt lat="42.786373989656568" lon="-3.417898965999484">
        <ele>501.94999999999999</ele>
        <time>2025-04-28T08:51:24Z</time>
      </trkpt>
      <trkpt lat="42.785482993349433" lon="-3.419361021369696">
        <ele>500.98000000000002</ele>
        <time>2025-04-28T08:51:31Z</time>
      </trkpt>
      <trkpt lat="42.785398000851274" lon="-3.419604012742639">
        <ele>500.5</ele>
        <time>2025-04-28T08:51:32Z</time>
      </trkpt>
      <trkpt lat="42.78508803807199" lon="-3.420625012367964">
        <ele>498.10000000000002</ele>
        <time>2025-04-28T08:51:36Z</time>
      </trkpt>
      <trkpt lat="42.785062976181507" lon="-3.420908991247416">
        <ele>497.13999999999999</ele>
        <time>2025-04-28T08:51:37Z</time>
      </trkpt>
      <trkpt lat="42.784799030050635" lon="-3.423705026507378">
        <ele>487.52999999999997</ele>
        <time>2025-04-28T08:51:47Z</time>
      </trkpt>
      <trkpt lat="42.784464005380869" lon="-3.42588197439909">
        <ele>482.24000000000001</ele>
        <time>2025-04-28T08:51:55Z</time>
      </trkpt>
      <trkpt lat="42.784385969862342" lon="-3.426129994913936">
        <ele>481.75999999999999</ele>
        <time>2025-04-28T08:51:56Z</time>
      </trkpt>
      <trkpt lat="42.784279016777873" lon="-3.426344990730286">
        <ele>481.75999999999999</ele>
        <time>2025-04-28T08:51:57Z</time>
      </trkpt>
      <trkpt lat="42.784160999581218" lon="-3.426554035395384">
        <ele>481.27999999999997</ele>
        <time>2025-04-28T08:51:58Z</time>
      </trkpt>
      <trkpt lat="42.784040970727801" lon="-3.426727959886193">
        <ele>481.27999999999997</ele>
        <time>2025-04-28T08:51:59Z</time>
      </trkpt>
      <trkpt lat="42.783880960196257" lon="-3.426881013438106">
        <ele>480.80000000000001</ele>
        <time>2025-04-28T08:52:00Z</time>
      </trkpt>
      <trkpt lat="42.783721033483744" lon="-3.427033983170986">
        <ele>480.80000000000001</ele>
        <time>2025-04-28T08:52:01Z</time>
      </trkpt>
      <trkpt lat="42.783570997416973" lon="-3.427164992317557">
        <ele>480.80000000000001</ele>
        <time>2025-04-28T08:52:02Z</time>
      </trkpt>
      <trkpt lat="42.783380979672074" lon="-3.427246967330575">
        <ele>480.80000000000001</ele>
        <time>2025-04-28T08:52:03Z</time>
      </trkpt>
      <trkpt lat="42.783192973583937" lon="-3.427327014505863">
        <ele>480.80000000000001</ele>
        <time>2025-04-28T08:52:04Z</time>
      </trkpt>
      <trkpt lat="42.78300697915256" lon="-3.42740697786212">
        <ele>480.80000000000001</ele>
        <time>2025-04-28T08:52:05Z</time>
      </trkpt>
      <trkpt lat="42.781642992049456" lon="-3.427934031933546">
        <ele>480.31999999999999</ele>
        <time>2025-04-28T08:52:12Z</time>
      </trkpt>
      <trkpt lat="42.780267018824816" lon="-3.428284982219338">
        <ele>478.87</ele>
        <time>2025-04-28T08:52:19Z</time>
      </trkpt>
      <trkpt lat="42.779677016660571" lon="-3.428488997742534">
        <ele>478.87</ele>
        <time>2025-04-28T08:52:22Z</time>
      </trkpt>
      <trkpt lat="42.779465960338712" lon="-3.42850198969245">
        <ele>478.87</ele>
        <time>2025-04-28T08:52:23Z</time>
      </trkpt>
      <trkpt lat="42.779265968129039" lon="-3.428478017449379">
        <ele>479.83999999999997</ele>
        <time>2025-04-28T08:52:24Z</time>
      </trkpt>
      <trkpt lat="42.779060024768114" lon="-3.428429989144206">
        <ele>480.31999999999999</ele>
        <time>2025-04-28T08:52:25Z</time>
      </trkpt>
      <trkpt lat="42.77885802090168" lon="-3.428322030231357">
        <ele>481.75999999999999</ele>
        <time>2025-04-28T08:52:26Z</time>
      </trkpt>
      <trkpt lat="42.778659034520388" lon="-3.428204013034701">
        <ele>482.24000000000001</ele>
        <time>2025-04-28T08:52:27Z</time>
      </trkpt>
      <trkpt lat="42.778455018997192" lon="-3.428081972524524">
        <ele>483.68000000000001</ele>
        <time>2025-04-28T08:52:28Z</time>
      </trkpt>
      <trkpt lat="42.778248991817236" lon="-3.427960015833378">
        <ele>484.16000000000003</ele>
        <time>2025-04-28T08:52:29Z</time>
      </trkpt>
      <trkpt lat="42.777207037433982" lon="-3.427631026133895">
        <ele>486.07999999999998</ele>
        <time>2025-04-28T08:52:34Z</time>
      </trkpt>
      <trkpt lat="42.775305015966296" lon="-3.427431033924222">
        <ele>489.44999999999999</ele>
        <time>2025-04-28T08:52:43Z</time>
      </trkpt>
      <trkpt lat="42.773922001942992" lon="-3.427970996126533">
        <ele>490.41000000000003</ele>
        <time>2025-04-28T08:52:50Z</time>
      </trkpt>
      <trkpt lat="42.773564010858536" lon="-3.428291017189622">
        <ele>491.37</ele>
        <time>2025-04-28T08:52:52Z</time>
      </trkpt>
      <trkpt lat="42.773405006155372" lon="-3.428481034934521">
        <ele>491.85000000000002</ele>
        <time>2025-04-28T08:52:53Z</time>
      </trkpt>
      <trkpt lat="42.772923968732357" lon="-3.429055027663708">
        <ele>495.22000000000003</ele>
        <time>2025-04-28T08:52:56Z</time>
      </trkpt>
      <trkpt lat="42.772762030363083" lon="-3.429209003224969">
        <ele>496.66000000000003</ele>
        <time>2025-04-28T08:52:57Z</time>
      </trkpt>
      <trkpt lat="42.772578969597816" lon="-3.429338000714779">
        <ele>497.62</ele>
        <time>2025-04-28T08:52:58Z</time>
      </trkpt>
      <trkpt lat="42.772399010136724" lon="-3.429465992376208">
        <ele>499.06</ele>
        <time>2025-04-28T08:52:59Z</time>
      </trkpt>
      <trkpt lat="42.772208992391825" lon="-3.429559031501412">
        <ele>500.5</ele>
        <time>2025-04-28T08:53:00Z</time>
      </trkpt>
      <trkpt lat="42.772006988525391" lon="-3.429633965715766">
        <ele>501.45999999999998</ele>
        <time>2025-04-28T08:53:01Z</time>
      </trkpt>
      <trkpt lat="42.770358016714454" lon="-3.429891038686037">
        <ele>509.16000000000003</ele>
        <time>2025-04-28T08:53:09Z</time>
      </trkpt>
      <trkpt lat="42.769345985725522" lon="-3.429968990385532">
        <ele>518.76999999999998</ele>
        <time>2025-04-28T08:53:14Z</time>
      </trkpt>
      <trkpt lat="42.769160997122526" lon="-3.430021964013577">
        <ele>520.21000000000004</ele>
        <time>2025-04-28T08:53:15Z</time>
      </trkpt>
      <trkpt lat="42.769012972712517" lon="-3.430129000917077">
        <ele>521.16999999999996</ele>
        <time>2025-04-28T08:53:16Z</time>
      </trkpt>
      <trkpt lat="42.768858997151256" lon="-3.430257998406887">
        <ele>521.64999999999998</ele>
        <time>2025-04-28T08:53:17Z</time>
      </trkpt>
      <trkpt lat="42.768714996054769" lon="-3.430395964533091">
        <ele>522.61000000000001</ele>
        <time>2025-04-28T08:53:18Z</time>
      </trkpt>
      <trkpt lat="42.768585998564959" lon="-3.430582964792848">
        <ele>523.09000000000003</ele>
        <time>2025-04-28T08:53:19Z</time>
      </trkpt>
      <trkpt lat="42.768497988581657" lon="-3.430795026943088">
        <ele>523.58000000000004</ele>
        <time>2025-04-28T08:53:20Z</time>
      </trkpt>
      <trkpt lat="42.768419031053782" lon="-3.431031983345747">
        <ele>524.53999999999996</ele>
        <time>2025-04-28T08:53:21Z</time>
      </trkpt>
      <trkpt lat="42.768359016627073" lon="-3.431285033002496">
        <ele>525.01999999999998</ele>
        <time>2025-04-28T08:53:22Z</time>
      </trkpt>
      <trkpt lat="42.768304031342268" lon="-3.431543027982116">
        <ele>525.98000000000002</ele>
        <time>2025-04-28T08:53:23Z</time>
      </trkpt>
      <trkpt lat="42.768064979463816" lon="-3.432582970708609">
        <ele>528.86000000000001</ele>
        <time>2025-04-28T08:53:27Z</time>
      </trkpt>
      <trkpt lat="42.767988033592701" lon="-3.432836020365357">
        <ele>529.82000000000005</ele>
        <time>2025-04-28T08:53:28Z</time>
      </trkpt>
      <trkpt lat="42.767851995304227" lon="-3.433055961504579">
        <ele>530.29999999999995</ele>
        <time>2025-04-28T08:53:29Z</time>
      </trkpt>
      <trkpt lat="42.767716962844133" lon="-3.433245979249477">
        <ele>529.82000000000005</ele>
        <time>2025-04-28T08:53:30Z</time>
      </trkpt>
      <trkpt lat="42.767586959525943" lon="-3.433416970074177">
        <ele>529.34000000000003</ele>
        <time>2025-04-28T08:53:31Z</time>
      </trkpt>
      <trkpt lat="42.767431978136301" lon="-3.433540016412735">
        <ele>528.86000000000001</ele>
        <time>2025-04-28T08:53:32Z</time>
      </trkpt>
      <trkpt lat="42.767275990918279" lon="-3.433630038052797">
        <ele>528.86000000000001</ele>
        <time>2025-04-28T08:53:33Z</time>
      </trkpt>
      <trkpt lat="42.767121009528637" lon="-3.433706983923912">
        <ele>528.38</ele>
        <time>2025-04-28T08:53:34Z</time>
      </trkpt>
      <trkpt lat="42.766966028138995" lon="-3.433769010007381">
        <ele>527.89999999999998</ele>
        <time>2025-04-28T08:53:35Z</time>
      </trkpt>
      <trkpt lat="42.766814986243844" lon="-3.433785019442439">
        <ele>527.41999999999996</ele>
        <time>2025-04-28T08:53:36Z</time>
      </trkpt>
      <trkpt lat="42.766643995419145" lon="-3.433755012229085">
        <ele>526.94000000000005</ele>
        <time>2025-04-28T08:53:37Z</time>
      </trkpt>
      <trkpt lat="42.766469987109303" lon="-3.43372299335897">
        <ele>526.94000000000005</ele>
        <time>2025-04-28T08:53:38Z</time>
      </trkpt>
      <trkpt lat="42.766295978799462" lon="-3.433670019730926">
        <ele>526.94000000000005</ele>
        <time>2025-04-28T08:53:39Z</time>
      </trkpt>
      <trkpt lat="42.766128005459905" lon="-3.433561976999044">
        <ele>526.94000000000005</ele>
        <time>2025-04-28T08:53:40Z</time>
      </trkpt>
      <trkpt lat="42.765953997150064" lon="-3.433458963409066">
        <ele>527.41999999999996</ele>
        <time>2025-04-28T08:53:41Z</time>
      </trkpt>
      <trkpt lat="42.7657759655267" lon="-3.433362990617752">
        <ele>527.89999999999998</ele>
        <time>2025-04-28T08:53:42Z</time>
      </trkpt>
      <trkpt lat="42.765587959438562" lon="-3.433326026424766">
        <ele>527.89999999999998</ele>
        <time>2025-04-28T08:53:43Z</time>
      </trkpt>
      <trkpt lat="42.765390984714031" lon="-3.43329400755465">
        <ele>528.86000000000001</ele>
        <time>2025-04-28T08:53:44Z</time>
      </trkpt>
      <trkpt lat="42.765190992504358" lon="-3.43333700671792">
        <ele>528.38</ele>
        <time>2025-04-28T08:53:45Z</time>
      </trkpt>
      <trkpt lat="42.764993011951447" lon="-3.433381011709571">
        <ele>528.86000000000001</ele>
        <time>2025-04-28T08:53:46Z</time>
      </trkpt>
      <trkpt lat="42.764797965064645" lon="-3.43342300504446">
        <ele>530.78999999999996</ele>
        <time>2025-04-28T08:53:47Z</time>
      </trkpt>
      <trkpt lat="42.764466963708401" lon="-3.43359399586916">
        <ele>534.63</ele>
        <time>2025-04-28T08:53:49Z</time>
      </trkpt>
      <trkpt lat="42.764304019510746" lon="-3.433694997802377">
        <ele>536.54999999999995</ele>
        <time>2025-04-28T08:53:50Z</time>
      </trkpt>
      <trkpt lat="42.764179967343807" lon="-3.433838998898864">
        <ele>537.50999999999999</ele>
        <time>2025-04-28T08:53:51Z</time>
      </trkpt>
      <trkpt lat="42.764060022309422" lon="-3.434016024693847">
        <ele>538.96000000000004</ele>
        <time>2025-04-28T08:53:52Z</time>
      </trkpt>
      <trkpt lat="42.763958014547825" lon="-3.434193972498179">
        <ele>540.88</ele>
        <time>2025-04-28T08:53:53Z</time>
      </trkpt>
      <trkpt lat="42.763877967372537" lon="-3.434407962486148">
        <ele>542.79999999999995</ele>
        <time>2025-04-28T08:53:54Z</time>
      </trkpt>
      <trkpt lat="42.763789035379887" lon="-3.434643996879458">
        <ele>544.24000000000001</ele>
        <time>2025-04-28T08:53:55Z</time>
      </trkpt>
      <trkpt lat="42.763741007074714" lon="-3.434870978817344">
        <ele>545.69000000000005</ele>
        <time>2025-04-28T08:53:56Z</time>
      </trkpt>
      <trkpt lat="42.763724997639656" lon="-3.43512000516057">
        <ele>547.61000000000001</ele>
        <time>2025-04-28T08:53:57Z</time>
      </trkpt>
      <trkpt lat="42.763724997639656" lon="-3.43537800014019">
        <ele>549.04999999999995</ele>
        <time>2025-04-28T08:53:58Z</time>
      </trkpt>
      <trkpt lat="42.763763973489404" lon="-3.435619985684753">
        <ele>550.97000000000003</ele>
        <time>2025-04-28T08:53:59Z</time>
      </trkpt>
      <trkpt lat="42.763813007622957" lon="-3.435868006199598">
        <ele>552.89999999999998</ele>
        <time>2025-04-28T08:54:00Z</time>
      </trkpt>
      <trkpt lat="42.763862041756511" lon="-3.436120972037315">
        <ele>554.34000000000003</ele>
        <time>2025-04-28T08:54:01Z</time>
      </trkpt>
      <trkpt lat="42.76431399397552" lon="-3.438157020136714">
        <ele>571.15999999999997</ele>
        <time>2025-04-28T08:54:10Z</time>
      </trkpt>
      <trkpt lat="42.764667039737105" lon="-3.439106019213796">
        <ele>580.28999999999996</ele>
        <time>2025-04-28T08:54:17Z</time>
      </trkpt>
      <trkpt lat="42.764707021415234" lon="-3.439209032803774">
        <ele>581.25</ele>
        <time>2025-04-28T08:54:18Z</time>
      </trkpt>
      <trkpt lat="42.764733005315065" lon="-3.439313974231482">
        <ele>582.22000000000003</ele>
        <time>2025-04-28T08:54:19Z</time>
      </trkpt>
      <trkpt lat="42.764733005315065" lon="-3.439450012519956">
        <ele>582.70000000000005</ele>
        <time>2025-04-28T08:54:20Z</time>
      </trkpt>
      <trkpt lat="42.764713978394866" lon="-3.439479013904929">
        <ele>583.65999999999997</ele>
        <time>2025-04-28T08:54:21Z</time>
      </trkpt>
      <trkpt lat="42.764695035293698" lon="-3.439506003633142">
        <ele>584.62</ele>
        <time>2025-04-28T08:54:22Z</time>
      </trkpt>
      <trkpt lat="42.764682965353131" lon="-3.439522013068199">
        <ele>585.10000000000002</ele>
        <time>2025-04-28T08:54:23Z</time>
      </trkpt>
      <trkpt lat="42.764682965353131" lon="-3.439522013068199">
        <ele>585.58000000000004</ele>
        <time>2025-04-28T08:54:24Z</time>
      </trkpt>
      <trkpt lat="42.764664022251964" lon="-3.439550008624792">
        <ele>586.53999999999996</ele>
        <time>2025-04-28T08:54:25Z</time>
      </trkpt>
      <trkpt lat="42.764648012816906" lon="-3.439573980867863">
        <ele>587.01999999999998</ele>
        <time>2025-04-28T08:54:26Z</time>
      </trkpt>
      <trkpt lat="42.764625968411565" lon="-3.439605999737978">
        <ele>587.5</ele>
        <time>2025-04-28T08:54:27Z</time>
      </trkpt>
      <trkpt lat="42.764604007825255" lon="-3.439637012779713">
        <ele>587.98000000000002</ele>
        <time>2025-04-28T08:54:28Z</time>
      </trkpt>
      <trkpt lat="42.764496970921755" lon="-3.439643969759345">
        <ele>588.46000000000004</ele>
        <time>2025-04-28T08:54:29Z</time>
      </trkpt>
      <trkpt lat="42.764459000900388" lon="-3.43956702388823">
        <ele>588.95000000000005</ele>
        <time>2025-04-28T08:54:30Z</time>
      </trkpt>
      <trkpt lat="42.764406027272344" lon="-3.43945998698473">
        <ele>588.95000000000005</ele>
        <time>2025-04-28T08:54:31Z</time>
      </trkpt>
      <trkpt lat="42.764345007017255" lon="-3.439338030293584">
        <ele>589.42999999999995</ele>
        <time>2025-04-28T08:54:32Z</time>
      </trkpt>
      <trkpt lat="42.764288010075688" lon="-3.439196040853858">
        <ele>589.90999999999997</ele>
        <time>2025-04-28T08:54:33Z</time>
      </trkpt>
      <trkpt lat="42.76371099986136" lon="-3.437703978270292">
        <ele>592.78999999999996</ele>
        <time>2025-04-28T08:54:41Z</time>
      </trkpt>
      <trkpt lat="42.762755965813994" lon="-3.435821989551187">
        <ele>596.63999999999999</ele>
        <time>2025-04-28T08:54:50Z</time>
      </trkpt>
      <trkpt lat="42.762033026665449" lon="-3.434163965284824">
        <ele>601.91999999999996</ele>
        <time>2025-04-28T08:54:57Z</time>
      </trkpt>
      <trkpt lat="42.761959014460444" lon="-3.433899013325572">
        <ele>602.88</ele>
        <time>2025-04-28T08:54:58Z</time>
      </trkpt>
      <trkpt lat="42.761417040601373" lon="-3.431357033550739">
        <ele>612.01999999999998</ele>
        <time>2025-04-28T08:55:07Z</time>
      </trkpt>
      <trkpt lat="42.760946983471513" lon="-3.42976899817586">
        <ele>617.29999999999995</ele>
        <time>2025-04-28T08:55:13Z</time>
      </trkpt>
      <trkpt lat="42.760848999023438" lon="-3.429540004581213">
        <ele>617.77999999999997</ele>
        <time>2025-04-28T08:55:14Z</time>
      </trkpt>
      <trkpt lat="42.760699968785048" lon="-3.429363984614611">
        <ele>618.75</ele>
        <time>2025-04-28T08:55:15Z</time>
      </trkpt>
      <trkpt lat="42.760529983788729" lon="-3.42919098213315">
        <ele>619.23000000000002</ele>
        <time>2025-04-28T08:55:16Z</time>
      </trkpt>
      <trkpt lat="42.760355975478888" lon="-3.429012028500438">
        <ele>619.23000000000002</ele>
        <time>2025-04-28T08:55:17Z</time>
      </trkpt>
      <trkpt lat="42.759678969159722" lon="-3.428261009976268">
        <ele>618.75</ele>
        <time>2025-04-28T08:55:21Z</time>
      </trkpt>
      <trkpt lat="42.759544020518661" lon="-3.428054982796311">
        <ele>618.25999999999999</ele>
        <time>2025-04-28T08:55:22Z</time>
      </trkpt>
      <trkpt lat="42.759416028857231" lon="-3.427860019728541">
        <ele>617.77999999999997</ele>
        <time>2025-04-28T08:55:23Z</time>
      </trkpt>
      <trkpt lat="42.759278984740376" lon="-3.427725993096829">
        <ele>617.29999999999995</ele>
        <time>2025-04-28T08:55:24Z</time>
      </trkpt>
      <trkpt lat="42.759120985865593" lon="-3.427656004205346">
        <ele>617.29999999999995</ele>
        <time>2025-04-28T08:55:25Z</time>
      </trkpt>
      <trkpt lat="42.758956030011177" lon="-3.427584003657103">
        <ele>616.82000000000005</ele>
        <time>2025-04-28T08:55:26Z</time>
      </trkpt>
      <trkpt lat="42.758811023086309" lon="-3.427519965916872">
        <ele>616.34000000000003</ele>
        <time>2025-04-28T08:55:27Z</time>
      </trkpt>
      <trkpt lat="42.758633997291327" lon="-3.427387028932571">
        <ele>615.86000000000001</ele>
        <time>2025-04-28T08:55:28Z</time>
      </trkpt>
      <trkpt lat="42.758480021730065" lon="-3.427216960117221">
        <ele>615.38</ele>
        <time>2025-04-28T08:55:29Z</time>
      </trkpt>
      <trkpt lat="42.758338032290339" lon="-3.427003975957632">
        <ele>614.89999999999998</ele>
        <time>2025-04-28T08:55:30Z</time>
      </trkpt>
      <trkpt lat="42.758193025365472" lon="-3.426772970706224">
        <ele>613.94000000000005</ele>
        <time>2025-04-28T08:55:31Z</time>
      </trkpt>
      <trkpt lat="42.758051035925746" lon="-3.426529979333282">
        <ele>613.46000000000004</ele>
        <time>2025-04-28T08:55:32Z</time>
      </trkpt>
      <trkpt lat="42.757174959406257" lon="-3.425092985853553">
        <ele>607.21000000000004</ele>
        <time>2025-04-28T08:55:38Z</time>
      </trkpt>
      <trkpt lat="42.756082965061069" lon="-3.423071019351482">
        <ele>597.60000000000002</ele>
        <time>2025-04-28T08:55:46Z</time>
      </trkpt>
      <trkpt lat="42.755522970110178" lon="-3.421186013147235">
        <ele>589.90999999999997</ele>
        <time>2025-04-28T08:55:53Z</time>
      </trkpt>
      <trkpt lat="42.75533496402204" lon="-3.419787995517254">
        <ele>586.05999999999995</ele>
        <time>2025-04-28T08:55:58Z</time>
      </trkpt>
      <trkpt lat="42.755146035924554" lon="-3.41780299320817">
        <ele>582.22000000000003</ele>
        <time>2025-04-28T08:56:05Z</time>
      </trkpt>
      <trkpt lat="42.755079986527562" lon="-3.417526977136731">
        <ele>581.73000000000002</ele>
        <time>2025-04-28T08:56:06Z</time>
      </trkpt>
      <trkpt lat="42.754931962117553" lon="-3.416981985792518">
        <ele>580.76999999999998</ele>
        <time>2025-04-28T08:56:08Z</time>
      </trkpt>
      <trkpt lat="42.754819979891181" lon="-3.416727008298039">
        <ele>580.28999999999996</ele>
        <time>2025-04-28T08:56:09Z</time>
      </trkpt>
      <trkpt lat="42.754669021815062" lon="-3.416503965854645">
        <ele>580.28999999999996</ele>
        <time>2025-04-28T08:56:10Z</time>
      </trkpt>
      <trkpt lat="42.753723962232471" lon="-3.415254978463054">
        <ele>577.40999999999997</ele>
        <time>2025-04-28T08:56:16Z</time>
      </trkpt>
      <trkpt lat="42.753561018034816" lon="-3.415047023445368">
        <ele>576.45000000000005</ele>
        <time>2025-04-28T08:56:17Z</time>
      </trkpt>
      <trkpt lat="42.752184960991144" lon="-3.413534006103873">
        <ele>568.75999999999999</ele>
        <time>2025-04-28T08:56:25Z</time>
      </trkpt>
      <trkpt lat="42.751043010503054" lon="-3.412329023703933">
        <ele>564.42999999999995</ele>
        <time>2025-04-28T08:56:32Z</time>
      </trkpt>
      <trkpt lat="42.750921975821257" lon="-3.412116039544344">
        <ele>564.42999999999995</ele>
        <time>2025-04-28T08:56:33Z</time>
      </trkpt>
      <trkpt lat="42.750806976109743" lon="-3.411912024021149">
        <ele>563.95000000000005</ele>
        <time>2025-04-28T08:56:34Z</time>
      </trkpt>
      <trkpt lat="42.750485027208924" lon="-3.411353034898639">
        <ele>563.47000000000003</ele>
        <time>2025-04-28T08:56:37Z</time>
      </trkpt>
      <trkpt lat="42.750373966991901" lon="-3.411164022982121">
        <ele>563.47000000000003</ele>
        <time>2025-04-28T08:56:38Z</time>
      </trkpt>
      <trkpt lat="42.750229965895414" lon="-3.410994037985802">
        <ele>562.99000000000001</ele>
        <time>2025-04-28T08:56:39Z</time>
      </trkpt>
      <trkpt lat="42.750072972849011" lon="-3.410825980827212">
        <ele>562.99000000000001</ele>
        <time>2025-04-28T08:56:40Z</time>
      </trkpt>
      <trkpt lat="42.749906005337834" lon="-3.41066999360919">
        <ele>562.99000000000001</ele>
        <time>2025-04-28T08:56:41Z</time>
      </trkpt>
      <trkpt lat="42.7497230283916" lon="-3.410559017211199">
        <ele>562.99000000000001</ele>
        <time>2025-04-28T08:56:42Z</time>
      </trkpt>
      <trkpt lat="42.749184994027019" lon="-3.41041199862957">
        <ele>562.50999999999999</ele>
        <time>2025-04-28T08:56:45Z</time>
      </trkpt>
      <trkpt lat="42.748211016878486" lon="-3.410139000043273">
        <ele>561.07000000000005</ele>
        <time>2025-04-28T08:56:50Z</time>
      </trkpt>
      <trkpt lat="42.748087970539927" lon="-3.410069011151791">
        <ele>561.07000000000005</ele>
        <time>2025-04-28T08:56:51Z</time>
      </trkpt>
      <trkpt lat="42.747925026342273" lon="-3.409975972026587">
        <ele>560.59000000000003</ele>
        <time>2025-04-28T08:56:52Z</time>
      </trkpt>
      <trkpt lat="42.747527975589037" lon="-3.409553021192551">
        <ele>560.59000000000003</ele>
        <time>2025-04-28T08:56:55Z</time>
      </trkpt>
      <trkpt lat="42.74738498032093" lon="-3.409366020932794">
        <ele>560.59000000000003</ele>
        <time>2025-04-28T08:56:56Z</time>
      </trkpt>
      <trkpt lat="42.746687019243836" lon="-3.408459015190601">
        <ele>560.11000000000001</ele>
        <time>2025-04-28T08:57:01Z</time>
      </trkpt>
      <trkpt lat="42.746530026197433" lon="-3.408323982730508">
        <ele>560.11000000000001</ele>
        <time>2025-04-28T08:57:02Z</time>
      </trkpt>
      <trkpt lat="42.746371021494269" lon="-3.408188028261066">
        <ele>560.11000000000001</ele>
        <time>2025-04-28T08:57:03Z</time>
      </trkpt>
      <trkpt lat="42.746189972385764" lon="-3.408106975257397">
        <ele>560.11000000000001</ele>
        <time>2025-04-28T08:57:04Z</time>
      </trkpt>
      <trkpt lat="42.746001966297626" lon="-3.408034974709153">
        <ele>560.11000000000001</ele>
        <time>2025-04-28T08:57:05Z</time>
      </trkpt>
      <trkpt lat="42.745811026543379" lon="-3.40796297416091">
        <ele>560.59000000000003</ele>
        <time>2025-04-28T08:57:06Z</time>
      </trkpt>
      <trkpt lat="42.745451023802161" lon="-3.407871024683118">
        <ele>560.59000000000003</ele>
        <time>2025-04-28T08:57:08Z</time>
      </trkpt>
      <trkpt lat="42.745261006057262" lon="-3.407830959185958">
        <ele>560.59000000000003</ele>
        <time>2025-04-28T08:57:09Z</time>
      </trkpt>
      <trkpt lat="42.744626998901367" lon="-3.407864989712834">
        <ele>561.07000000000005</ele>
        <time>2025-04-28T08:57:13Z</time>
      </trkpt>
      <trkpt lat="42.743758969008923" lon="-3.408301016315818">
        <ele>563.95000000000005</ele>
        <time>2025-04-28T08:57:17Z</time>
      </trkpt>
      <trkpt lat="42.742407973855734" lon="-3.409378007054329">
        <ele>563.47000000000003</ele>
        <time>2025-04-28T08:57:25Z</time>
      </trkpt>
      <trkpt lat="42.742214016616344" lon="-3.409436009824276">
        <ele>563.47000000000003</ele>
        <time>2025-04-28T08:57:26Z</time>
      </trkpt>
      <trkpt lat="42.742022993043065" lon="-3.409493006765842">
        <ele>563.47000000000003</ele>
        <time>2025-04-28T08:57:27Z</time>
      </trkpt>
      <trkpt lat="42.74181998334825" lon="-3.40950801037252">
        <ele>562.99000000000001</ele>
        <time>2025-04-28T08:57:28Z</time>
      </trkpt>
      <trkpt lat="42.741632983088493" lon="-3.409493006765842">
        <ele>562.50999999999999</ele>
        <time>2025-04-28T08:57:29Z</time>
      </trkpt>
      <trkpt lat="42.74145201779902" lon="-3.409453025087714">
        <ele>562.50999999999999</ele>
        <time>2025-04-28T08:57:30Z</time>
      </trkpt>
      <trkpt lat="42.741070976480842" lon="-3.409369038417935">
        <ele>562.50999999999999</ele>
        <time>2025-04-28T08:57:32Z</time>
      </trkpt>
      <trkpt lat="42.740667974576354" lon="-3.409281028434634">
        <ele>562.50999999999999</ele>
        <time>2025-04-28T08:57:34Z</time>
      </trkpt>
      <trkpt lat="42.740277964621782" lon="-3.409258984029293">
        <ele>562.50999999999999</ele>
        <time>2025-04-28T08:57:36Z</time>
      </trkpt>
      <trkpt lat="42.740077972412109" lon="-3.409264013171196">
        <ele>562.50999999999999</ele>
        <time>2025-04-28T08:57:37Z</time>
      </trkpt>
      <trkpt lat="42.73988401517272" lon="-3.409308018162847">
        <ele>562.50999999999999</ele>
        <time>2025-04-28T08:57:38Z</time>
      </trkpt>
      <trkpt lat="42.739139031618834" lon="-3.409528965130448">
        <ele>562.50999999999999</ele>
        <time>2025-04-28T08:57:42Z</time>
      </trkpt>
      <trkpt lat="42.738963011652231" lon="-3.409596020355821">
        <ele>562.02999999999997</ele>
        <time>2025-04-28T08:57:43Z</time>
      </trkpt>
      <trkpt lat="42.738463031128049" lon="-3.409815039485693">
        <ele>562.02999999999997</ele>
        <time>2025-04-28T08:57:46Z</time>
      </trkpt>
      <trkpt lat="42.73833797313273" lon="-3.409901959821582">
        <ele>562.02999999999997</ele>
        <time>2025-04-28T08:57:47Z</time>
      </trkpt>
      <trkpt lat="42.738211993128061" lon="-3.409988963976502">
        <ele>561.54999999999995</ele>
        <time>2025-04-28T08:57:48Z</time>
      </trkpt>
      <trkpt lat="42.738129012286663" lon="-3.410059036687017">
        <ele>561.07000000000005</ele>
        <time>2025-04-28T08:57:49Z</time>
      </trkpt>
      <trkpt lat="42.738039996474981" lon="-3.41013397090137">
        <ele>561.07000000000005</ele>
        <time>2025-04-28T08:57:50Z</time>
      </trkpt>
      <trkpt lat="42.73745502345264" lon="-3.410855988040566">
        <ele>562.50999999999999</ele>
        <time>2025-04-28T08:57:57Z</time>
      </trkpt>
      <trkpt lat="42.737397020682693" lon="-3.410933017730713">
        <ele>562.99000000000001</ele>
        <time>2025-04-28T08:57:58Z</time>
      </trkpt>
      <trkpt lat="42.737141037359834" lon="-3.411187995225191">
        <ele>565.87</ele>
        <time>2025-04-28T08:58:02Z</time>
      </trkpt>
      <trkpt lat="42.737081022933125" lon="-3.411248009651899">
        <ele>566.35000000000002</ele>
        <time>2025-04-28T08:58:03Z</time>
      </trkpt>
      <trkpt lat="42.736796038225293" lon="-3.411419000476599">
        <ele>567.32000000000005</ele>
        <time>2025-04-28T08:58:07Z</time>
      </trkpt>
      <trkpt lat="42.73672403767705" lon="-3.411467028781772">
        <ele>566.83000000000004</ele>
        <time>2025-04-28T08:58:08Z</time>
      </trkpt>
      <trkpt lat="42.736063962802291" lon="-3.411900037899613">
        <ele>567.79999999999995</ele>
        <time>2025-04-28T08:58:17Z</time>
      </trkpt>
      <trkpt lat="42.735992968082428" lon="-3.411953011527658">
        <ele>568.27999999999997</ele>
        <time>2025-04-28T08:58:18Z</time>
      </trkpt>
      <trkpt lat="42.73586698807776" lon="-3.412098018452525">
        <ele>569.72000000000003</ele>
        <time>2025-04-28T08:58:20Z</time>
      </trkpt>
      <trkpt lat="42.735804039984941" lon="-3.412177981808782">
        <ele>570.67999999999995</ele>
        <time>2025-04-28T08:58:21Z</time>
      </trkpt>
      <trkpt lat="42.735701026394963" lon="-3.412305973470211">
        <ele>571.15999999999997</ele>
        <time>2025-04-28T08:58:22Z</time>
      </trkpt>
      <trkpt lat="42.735416041687131" lon="-3.412909973412752">
        <ele>572.12</ele>
        <time>2025-04-28T08:58:28Z</time>
      </trkpt>
      <trkpt lat="42.735362984240055" lon="-3.413026984781027">
        <ele>572.12</ele>
        <time>2025-04-28T08:58:29Z</time>
      </trkpt>
      <trkpt lat="42.735312022268772" lon="-3.413139972835779">
        <ele>572.12</ele>
        <time>2025-04-28T08:58:30Z</time>
      </trkpt>
      <trkpt lat="42.735213031992316" lon="-3.413502993062139">
        <ele>573.08000000000004</ele>
        <time>2025-04-28T08:58:33Z</time>
      </trkpt>
      <trkpt lat="42.735181013122201" lon="-3.413616986945272">
        <ele>573.55999999999995</ele>
        <time>2025-04-28T08:58:34Z</time>
      </trkpt>
      <trkpt lat="42.735148994252086" lon="-3.413732992485166">
        <ele>574.03999999999996</ele>
        <time>2025-04-28T08:58:35Z</time>
      </trkpt>
      <trkpt lat="42.735086968168616" lon="-3.41395896859467">
        <ele>575.00999999999999</ele>
        <time>2025-04-28T08:58:37Z</time>
      </trkpt>
      <trkpt lat="42.735013039782643" lon="-3.414179999381304">
        <ele>575.97000000000003</ele>
        <time>2025-04-28T08:58:39Z</time>
      </trkpt>
      <trkpt lat="42.734832996502519" lon="-3.414607979357243">
        <ele>578.37</ele>
        <time>2025-04-28T08:58:43Z</time>
      </trkpt>
      <trkpt lat="42.734783962368965" lon="-3.414711998775601">
        <ele>578.85000000000002</ele>
        <time>2025-04-28T08:58:44Z</time>
      </trkpt>
      <trkpt lat="42.734735012054443" lon="-3.41481501236558">
        <ele>579.33000000000004</ele>
        <time>2025-04-28T08:58:45Z</time>
      </trkpt>
      <trkpt lat="42.734688995406032" lon="-3.414931017905474">
        <ele>579.80999999999995</ele>
        <time>2025-04-28T08:58:46Z</time>
      </trkpt>
      <trkpt lat="42.734649013727903" lon="-3.415048029273748">
        <ele>579.33000000000004</ele>
        <time>2025-04-28T08:58:47Z</time>
      </trkpt>
      <trkpt lat="42.734610037878156" lon="-3.41516001150012">
        <ele>579.33000000000004</ele>
        <time>2025-04-28T08:58:48Z</time>
      </trkpt>
      <trkpt lat="42.734571984037757" lon="-3.415271993726492">
        <ele>579.33000000000004</ele>
        <time>2025-04-28T08:58:49Z</time>
      </trkpt>
      <trkpt lat="42.734530996531248" lon="-3.415389005094767">
        <ele>579.33000000000004</ele>
        <time>2025-04-28T08:58:50Z</time>
      </trkpt>
      <trkpt lat="42.73449101485312" lon="-3.415505010634661">
        <ele>579.33000000000004</ele>
        <time>2025-04-28T08:58:51Z</time>
      </trkpt>
      <trkpt lat="42.734452039003372" lon="-3.415617998689413">
        <ele>579.33000000000004</ele>
        <time>2025-04-28T08:58:52Z</time>
      </trkpt>
      <trkpt lat="42.734412979334593" lon="-3.415731992572546">
        <ele>579.33000000000004</ele>
        <time>2025-04-28T08:58:53Z</time>
      </trkpt>
      <trkpt lat="42.734332010149956" lon="-3.415967021137476">
        <ele>579.33000000000004</ele>
        <time>2025-04-28T08:58:55Z</time>
      </trkpt>
      <trkpt lat="42.734291022643447" lon="-3.416087972000241">
        <ele>579.33000000000004</ele>
        <time>2025-04-28T08:58:56Z</time>
      </trkpt>
      <trkpt lat="42.733777966350317" lon="-3.417562013491988">
        <ele>582.70000000000005</ele>
        <time>2025-04-28T08:59:08Z</time>
      </trkpt>
      <trkpt lat="42.733770003542304" lon="-3.41769402846694">
        <ele>582.70000000000005</ele>
        <time>2025-04-28T08:59:09Z</time>
      </trkpt>
      <trkpt lat="42.733830017969012" lon="-3.418826004490256">
        <ele>584.62</ele>
        <time>2025-04-28T08:59:17Z</time>
      </trkpt>
      <trkpt lat="42.734189014881849" lon="-3.420078009366989">
        <ele>583.17999999999995</ele>
        <time>2025-04-28T08:59:27Z</time>
      </trkpt>
      <trkpt lat="42.734365034848452" lon="-3.421171009540558">
        <ele>582.70000000000005</ele>
        <time>2025-04-28T08:59:36Z</time>
      </trkpt>
      <trkpt lat="42.734423959627748" lon="-3.42158398590982">
        <ele>582.22000000000003</ele>
        <time>2025-04-28T08:59:39Z</time>
      </trkpt>
      <trkpt lat="42.734454972669482" lon="-3.421725975349546">
        <ele>582.22000000000003</ele>
        <time>2025-04-28T08:59:40Z</time>
      </trkpt>
      <trkpt lat="42.734538037329912" lon="-3.42201397754252">
        <ele>582.22000000000003</ele>
        <time>2025-04-28T08:59:42Z</time>
      </trkpt>
      <trkpt lat="42.734597967937589" lon="-3.422152027487755">
        <ele>582.70000000000005</ele>
        <time>2025-04-28T08:59:43Z</time>
      </trkpt>
      <trkpt lat="42.735131978988647" lon="-3.423708966001868">
        <ele>588.95000000000005</ele>
        <time>2025-04-28T08:59:52Z</time>
      </trkpt>
      <trkpt lat="42.735165003687143" lon="-3.423957992345095">
        <ele>589.90999999999997</ele>
        <time>2025-04-28T08:59:53Z</time>
      </trkpt>
      <trkpt lat="42.735172966495156" lon="-3.424199977889657">
        <ele>590.87</ele>
        <time>2025-04-28T08:59:54Z</time>
      </trkpt>
      <trkpt lat="42.735183024778962" lon="-3.424461996182799">
        <ele>591.83000000000004</ele>
        <time>2025-04-28T08:59:55Z</time>
      </trkpt>
      <trkpt lat="42.735171038657427" lon="-3.424734994769096">
        <ele>592.30999999999995</ele>
        <time>2025-04-28T08:59:56Z</time>
      </trkpt>
      <trkpt lat="42.735146982595325" lon="-3.425015034154058">
        <ele>592.78999999999996</ele>
        <time>2025-04-28T08:59:57Z</time>
      </trkpt>
      <trkpt lat="42.734869038686156" lon="-3.427806962281466">
        <ele>593.26999999999998</ele>
        <time>2025-04-28T09:00:06Z</time>
      </trkpt>
      <trkpt lat="42.735036006197333" lon="-3.429644023999572">
        <ele>594.23000000000002</ele>
        <time>2025-04-28T09:00:12Z</time>
      </trkpt>
      <trkpt lat="42.735444037243724" lon="-3.431609999388456">
        <ele>593.75</ele>
        <time>2025-04-28T09:00:19Z</time>
      </trkpt>
      <trkpt lat="42.735441019758582" lon="-3.431905964389443">
        <ele>593.26999999999998</ele>
        <time>2025-04-28T09:00:20Z</time>
      </trkpt>
      <trkpt lat="42.735416041687131" lon="-3.432202013209462">
        <ele>592.78999999999996</ele>
        <time>2025-04-28T09:00:21Z</time>
      </trkpt>
      <trkpt lat="42.735377987846732" lon="-3.432494038715959">
        <ele>592.30999999999995</ele>
        <time>2025-04-28T09:00:22Z</time>
      </trkpt>
      <trkpt lat="42.735313028097153" lon="-3.432783968746662">
        <ele>592.30999999999995</ele>
        <time>2025-04-28T09:00:23Z</time>
      </trkpt>
      <trkpt lat="42.735237004235387" lon="-3.433065013960004">
        <ele>591.83000000000004</ele>
        <time>2025-04-28T09:00:24Z</time>
      </trkpt>
      <trkpt lat="42.73513600230217" lon="-3.433340024203062">
        <ele>591.35000000000002</ele>
        <time>2025-04-28T09:00:25Z</time>
      </trkpt>
      <trkpt lat="42.735016979277134" lon="-3.433601958677173">
        <ele>590.87</ele>
        <time>2025-04-28T09:00:26Z</time>
      </trkpt>
      <trkpt lat="42.734871972352266" lon="-3.433834975585342">
        <ele>590.87</ele>
        <time>2025-04-28T09:00:27Z</time>
      </trkpt>
      <trkpt lat="42.734711039811373" lon="-3.434053994715214">
        <ele>590.87</ele>
        <time>2025-04-28T09:00:28Z</time>
      </trkpt>
      <trkpt lat="42.734549017623067" lon="-3.434274019673467">
        <ele>590.87</ele>
        <time>2025-04-28T09:00:29Z</time>
      </trkpt>
      <trkpt lat="42.734388001263142" lon="-3.434487003833056">
        <ele>590.87</ele>
        <time>2025-04-28T09:00:30Z</time>
      </trkpt>
      <trkpt lat="42.732368968427181" lon="-3.436823962256312">
        <ele>593.75</ele>
        <time>2025-04-28T09:00:42Z</time>
      </trkpt>
      <trkpt lat="42.730739023536444" lon="-3.438322981819511">
        <ele>597.12</ele>
        <time>2025-04-28T09:00:51Z</time>
      </trkpt>
      <trkpt lat="42.729117041453719" lon="-3.439172990620136">
        <ele>596.63999999999999</ele>
        <time>2025-04-28T09:00:59Z</time>
      </trkpt>
      <trkpt lat="42.726619988679886" lon="-3.440063986927271">
        <ele>590.87</ele>
        <time>2025-04-28T09:01:11Z</time>
      </trkpt>
      <trkpt lat="42.724554017186165" lon="-3.441206021234393">
        <ele>590.87</ele>
        <time>2025-04-28T09:01:22Z</time>
      </trkpt>
      <trkpt lat="42.723465040326118" lon="-3.441854026168585">
        <ele>590.87</ele>
        <time>2025-04-28T09:01:30Z</time>
      </trkpt>
      <trkpt lat="42.723370995372534" lon="-3.441911023110151">
        <ele>590.87</ele>
        <time>2025-04-28T09:01:31Z</time>
      </trkpt>
      <trkpt lat="42.723288014531136" lon="-3.441961985081434">
        <ele>590.87</ele>
        <time>2025-04-28T09:01:32Z</time>
      </trkpt>
      <trkpt lat="42.723267981782556" lon="-3.442097017541528">
        <ele>590.87</ele>
        <time>2025-04-28T09:01:33Z</time>
      </trkpt>
      <trkpt lat="42.723281979560852" lon="-3.442221991717815">
        <ele>590.87</ele>
        <time>2025-04-28T09:01:34Z</time>
      </trkpt>
      <trkpt lat="42.72329899482429" lon="-3.442370016127825">
        <ele>590.87</ele>
        <time>2025-04-28T09:01:35Z</time>
      </trkpt>
      <trkpt lat="42.723317015916109" lon="-3.44253396615386">
        <ele>591.35000000000002</ele>
        <time>2025-04-28T09:01:36Z</time>
      </trkpt>
      <trkpt lat="42.723519019782543" lon="-3.444194002076984">
        <ele>592.30999999999995</ele>
        <time>2025-04-28T09:01:44Z</time>
      </trkpt>
      <trkpt lat="42.723578028380871" lon="-3.444782998412848">
        <ele>593.75</ele>
        <time>2025-04-28T09:01:47Z</time>
      </trkpt>
      <trkpt lat="42.723539974540472" lon="-3.444948038086295">
        <ele>594.23000000000002</ele>
        <time>2025-04-28T09:01:48Z</time>
      </trkpt>
      <trkpt lat="42.723479038104415" lon="-3.445105031132698">
        <ele>594.23000000000002</ele>
        <time>2025-04-28T09:01:49Z</time>
      </trkpt>
      <trkpt lat="42.723368983715773" lon="-3.445207038894296">
        <ele>594.71000000000004</ele>
        <time>2025-04-28T09:01:50Z</time>
      </trkpt>
      <trkpt lat="42.723247027024627" lon="-3.445320026949048">
        <ele>594.71000000000004</ele>
        <time>2025-04-28T09:01:51Z</time>
      </trkpt>
      <trkpt lat="42.723133033141494" lon="-3.445456987246871">
        <ele>595.19000000000005</ele>
        <time>2025-04-28T09:01:52Z</time>
      </trkpt>
      <trkpt lat="42.723031025379896" lon="-3.445621021091938">
        <ele>595.66999999999996</ele>
        <time>2025-04-28T09:01:53Z</time>
      </trkpt>
      <trkpt lat="42.722201971337199" lon="-3.447225987911224">
        <ele>599.51999999999998</ele>
        <time>2025-04-28T09:02:02Z</time>
      </trkpt>
      <trkpt lat="42.722130976617336" lon="-3.447379041463137">
        <ele>599.51999999999998</ele>
        <time>2025-04-28T09:02:03Z</time>
      </trkpt>
      <trkpt lat="42.722087977454066" lon="-3.447545003145933">
        <ele>599.51999999999998</ele>
        <time>2025-04-28T09:02:04Z</time>
      </trkpt>
      <trkpt lat="42.722047995775938" lon="-3.447700990363956">
        <ele>599.51999999999998</ele>
        <time>2025-04-28T09:02:05Z</time>
      </trkpt>
      <trkpt lat="42.72200901992619" lon="-3.447858989238739">
        <ele>599.51999999999998</ele>
        <time>2025-04-28T09:02:06Z</time>
      </trkpt>
      <trkpt lat="42.721990998834372" lon="-3.448026040568948">
        <ele>599.51999999999998</ele>
        <time>2025-04-28T09:02:07Z</time>
      </trkpt>
      <trkpt lat="42.721971971914172" lon="-3.448193008080125">
        <ele>599.03999999999996</ele>
        <time>2025-04-28T09:02:08Z</time>
      </trkpt>
      <trkpt lat="42.721911035478115" lon="-3.448340026661754">
        <ele>599.03999999999996</ele>
        <time>2025-04-28T09:02:09Z</time>
      </trkpt>
      <trkpt lat="42.721831994131207" lon="-3.44846298918128">
        <ele>598.55999999999995</ele>
        <time>2025-04-28T09:02:10Z</time>
      </trkpt>
      <trkpt lat="42.721723029389977" lon="-3.448543958365917">
        <ele>597.60000000000002</ele>
        <time>2025-04-28T09:02:11Z</time>
      </trkpt>
      <trkpt lat="42.721610041335225" lon="-3.448628028854728">
        <ele>597.12</ele>
        <time>2025-04-28T09:02:12Z</time>
      </trkpt>
      <trkpt lat="42.720599016174674" lon="-3.449326995760202">
        <ele>595.66999999999996</ele>
        <time>2025-04-28T09:02:22Z</time>
      </trkpt>
      <trkpt lat="42.720545958727598" lon="-3.449439983814955">
        <ele>595.19000000000005</ele>
        <time>2025-04-28T09:02:23Z</time>
      </trkpt>
      <trkpt lat="42.720563979819417" lon="-3.449525982141495">
        <ele>595.19000000000005</ele>
        <time>2025-04-28T09:02:24Z</time>
      </trkpt>
      <trkpt lat="42.720586024224758" lon="-3.449633019044995">
        <ele>595.19000000000005</ele>
        <time>2025-04-28T09:02:25Z</time>
      </trkpt>
      <trkpt lat="42.720609996467829" lon="-3.449751036241651">
        <ele>595.19000000000005</ele>
        <time>2025-04-28T09:02:26Z</time>
      </trkpt>
      <trkpt lat="42.72063497453928" lon="-3.449870981276035">
        <ele>595.19000000000005</ele>
        <time>2025-04-28T09:02:27Z</time>
      </trkpt>
      <trkpt lat="42.720680991187692" lon="-3.450097041204572">
        <ele>595.66999999999996</ele>
        <time>2025-04-28T09:02:29Z</time>
      </trkpt>
      <trkpt lat="42.720702029764652" lon="-3.450222015380859">
        <ele>595.66999999999996</ele>
        <time>2025-04-28T09:02:30Z</time>
      </trkpt>
      <trkpt lat="42.720747962594032" lon="-3.450324023142457">
        <ele>595.66999999999996</ele>
        <time>2025-04-28T09:02:31Z</time>
      </trkpt>
      <trkpt lat="42.720928005874157" lon="-3.450625017285347">
        <ele>596.14999999999998</ele>
        <time>2025-04-28T09:02:34Z</time>
      </trkpt>
      <trkpt lat="42.721003023907542" lon="-3.450736999511719">
        <ele>596.63999999999999</ele>
        <time>2025-04-28T09:02:35Z</time>
      </trkpt>
      <trkpt lat="42.721048034727573" lon="-3.450793996453285">
        <ele>597.12</ele>
        <time>2025-04-28T09:02:36Z</time>
      </trkpt>
      <trkpt lat="42.72110603749752" lon="-3.450867002829909">
        <ele>597.60000000000002</ele>
        <time>2025-04-28T09:02:37Z</time>
      </trkpt>
      <trkpt lat="42.721162028610706" lon="-3.450935985893011">
        <ele>598.08000000000004</ele>
        <time>2025-04-28T09:02:38Z</time>
      </trkpt>
      <trkpt lat="42.721252972260118" lon="-3.451077975332737">
        <ele>599.03999999999996</ele>
        <time>2025-04-28T09:02:40Z</time>
      </trkpt>
      <trkpt lat="42.721284991130233" lon="-3.451149975880981">
        <ele>599.51999999999998</ele>
        <time>2025-04-28T09:02:41Z</time>
      </trkpt>
      <trkpt lat="42.721297983080149" lon="-3.451242009177804">
        <ele>600</ele>
        <time>2025-04-28T09:02:42Z</time>
      </trkpt>
      <trkpt lat="42.721310975030065" lon="-3.451333036646247">
        <ele>600.48000000000002</ele>
        <time>2025-04-28T09:02:43Z</time>
      </trkpt>
      <trkpt lat="42.721325978636742" lon="-3.451433032751083">
        <ele>600.96000000000004</ele>
        <time>2025-04-28T09:02:44Z</time>
      </trkpt>
      <trkpt lat="42.721340982243419" lon="-3.451540991663933">
        <ele>601.44000000000005</ele>
        <time>2025-04-28T09:02:45Z</time>
      </trkpt>
      <trkpt lat="42.721394961699843" lon="-3.451759004965425">
        <ele>602.39999999999998</ele>
        <time>2025-04-28T09:02:47Z</time>
      </trkpt>
      <trkpt lat="42.721523037180305" lon="-3.452094029635191">
        <ele>603.85000000000002</ele>
        <time>2025-04-28T09:02:50Z</time>
      </trkpt>
      <trkpt lat="42.721577016636729" lon="-3.452199976891279">
        <ele>603.85000000000002</ele>
        <time>2025-04-28T09:02:51Z</time>
      </trkpt>
      <trkpt lat="42.721899971365929" lon="-3.452683025971055">
        <ele>605.28999999999996</ele>
        <time>2025-04-28T09:02:56Z</time>
      </trkpt>
      <trkpt lat="42.721963003277779" lon="-3.452774975448847">
        <ele>605.28999999999996</ele>
        <time>2025-04-28T09:02:57Z</time>
      </trkpt>
      <trkpt lat="42.722147991880774" lon="-3.453046968206763">
        <ele>605.76999999999998</ele>
        <time>2025-04-28T09:03:00Z</time>
      </trkpt>
      <trkpt lat="42.722211023792624" lon="-3.453141013160348">
        <ele>605.76999999999998</ele>
        <time>2025-04-28T09:03:01Z</time>
      </trkpt>
      <trkpt lat="42.722529033198953" lon="-3.453666977584362">
        <ele>605.28999999999996</ele>
        <time>2025-04-28T09:03:06Z</time>
      </trkpt>
      <trkpt lat="42.722922982648015" lon="-3.454488990828395">
        <ele>604.80999999999995</ele>
        <time>2025-04-28T09:03:12Z</time>
      </trkpt>
      <trkpt lat="42.723776008933783" lon="-3.45591701567173">
        <ele>605.28999999999996</ele>
        <time>2025-04-28T09:03:21Z</time>
      </trkpt>
      <trkpt lat="42.723972983658314" lon="-3.456210969015956">
        <ele>605.28999999999996</ele>
        <time>2025-04-28T09:03:23Z</time>
      </trkpt>
      <trkpt lat="42.724070968106389" lon="-3.456358993425965">
        <ele>605.28999999999996</ele>
        <time>2025-04-28T09:03:24Z</time>
      </trkpt>
      <trkpt lat="42.724790973588824" lon="-3.457320984452963">
        <ele>606.73000000000002</ele>
        <time>2025-04-28T09:03:33Z</time>
      </trkpt>
      <trkpt lat="42.725074030458927" lon="-3.457719041034579">
        <ele>605.76999999999998</ele>
        <time>2025-04-28T09:03:38Z</time>
      </trkpt>
      <trkpt lat="42.725390028208494" lon="-3.457993967458606">
        <ele>603.85000000000002</ele>
        <time>2025-04-28T09:03:43Z</time>
      </trkpt>
      <trkpt lat="42.725508967414498" lon="-3.458096981048584">
        <ele>603.36000000000001</ele>
        <time>2025-04-28T09:03:45Z</time>
      </trkpt>
      <trkpt lat="42.725548027083278" lon="-3.458194965496659">
        <ele>602.88</ele>
        <time>2025-04-28T09:03:46Z</time>
      </trkpt>
      <trkpt lat="42.725584991276264" lon="-3.458286998793483">
        <ele>602.88</ele>
        <time>2025-04-28T09:03:47Z</time>
      </trkpt>
      <trkpt lat="42.725606029853225" lon="-3.458383977413178">
        <ele>602.88</ele>
        <time>2025-04-28T09:03:48Z</time>
      </trkpt>
      <trkpt lat="42.725625978782773" lon="-3.458510041236877">
        <ele>602.39999999999998</ele>
        <time>2025-04-28T09:03:49Z</time>
      </trkpt>
      <trkpt lat="42.725647017359734" lon="-3.458642978221178">
        <ele>602.39999999999998</ele>
        <time>2025-04-28T09:03:50Z</time>
      </trkpt>
      <trkpt lat="42.725669983774424" lon="-3.45877599902451">
        <ele>601.91999999999996</ele>
        <time>2025-04-28T09:03:51Z</time>
      </trkpt>
      <trkpt lat="42.725696973502636" lon="-3.458917988464236">
        <ele>601.91999999999996</ele>
        <time>2025-04-28T09:03:52Z</time>
      </trkpt>
      <trkpt lat="42.72572698071599" lon="-3.45907598733902">
        <ele>601.91999999999996</ele>
        <time>2025-04-28T09:03:53Z</time>
      </trkpt>
      <trkpt lat="42.725775009021163" lon="-3.459241027012467">
        <ele>601.91999999999996</ele>
        <time>2025-04-28T09:03:54Z</time>
      </trkpt>
      <trkpt lat="42.725844997912645" lon="-3.459406988695264">
        <ele>601.91999999999996</ele>
        <time>2025-04-28T09:03:55Z</time>
      </trkpt>
      <trkpt lat="42.725918004289269" lon="-3.459580997005105">
        <ele>601.91999999999996</ele>
        <time>2025-04-28T09:03:56Z</time>
      </trkpt>
      <trkpt lat="42.726006014272571" lon="-3.459745030850172">
        <ele>601.44000000000005</ele>
        <time>2025-04-28T09:03:57Z</time>
      </trkpt>
      <trkpt lat="42.726431982591748" lon="-3.460414996370673">
        <ele>601.44000000000005</ele>
        <time>2025-04-28T09:04:02Z</time>
      </trkpt>
      <trkpt lat="42.726496020331979" lon="-3.460479034110904">
        <ele>601.44000000000005</ele>
        <time>2025-04-28T09:04:03Z</time>
      </trkpt>
      <trkpt lat="42.726496020331979" lon="-3.460479034110904">
        <ele>601.44000000000005</ele>
        <time>2025-04-28T09:04:04Z</time>
      </trkpt>
      <trkpt lat="42.726656030863523" lon="-3.460431005805731">
        <ele>600.96000000000004</ele>
        <time>2025-04-28T09:04:05Z</time>
      </trkpt>
      <trkpt lat="42.726744962856174" lon="-3.460404016077519">
        <ele>600.48000000000002</ele>
        <time>2025-04-28T09:04:06Z</time>
      </trkpt>
      <trkpt lat="42.726955013349652" lon="-3.460326986387372">
        <ele>599.51999999999998</ele>
        <time>2025-04-28T09:04:08Z</time>
      </trkpt>
      <trkpt lat="42.727074036374688" lon="-3.4602340310812">
        <ele>599.03999999999996</ele>
        <time>2025-04-28T09:04:09Z</time>
      </trkpt>
      <trkpt lat="42.727668983861804" lon="-3.459817031398416">
        <ele>598.55999999999995</ele>
        <time>2025-04-28T09:04:14Z</time>
      </trkpt>
      <trkpt lat="42.727750958874822" lon="-3.459834968671203">
        <ele>598.55999999999995</ele>
        <time>2025-04-28T09:04:15Z</time>
      </trkpt>
      <trkpt lat="42.727861013263464" lon="-3.459880985319614">
        <ele>599.03999999999996</ele>
        <time>2025-04-28T09:04:16Z</time>
      </trkpt>
      <trkpt lat="42.727909963577986" lon="-3.459968995302916">
        <ele>599.51999999999998</ele>
        <time>2025-04-28T09:04:17Z</time>
      </trkpt>
      <trkpt lat="42.727958997711539" lon="-3.460073014721274">
        <ele>600</ele>
        <time>2025-04-28T09:04:18Z</time>
      </trkpt>
      <trkpt lat="42.727984981611371" lon="-3.46021399833262">
        <ele>600.48000000000002</ele>
        <time>2025-04-28T09:04:19Z</time>
      </trkpt>
      <trkpt lat="42.728001996874809" lon="-3.460371997207403">
        <ele>600.48000000000002</ele>
        <time>2025-04-28T09:04:20Z</time>
      </trkpt>
      <trkpt lat="42.728009959682822" lon="-3.460523961111903">
        <ele>600.96000000000004</ele>
        <time>2025-04-28T09:04:21Z</time>
      </trkpt>
      <trkpt lat="42.728033009916544" lon="-3.460979014635086">
        <ele>602.39999999999998</ele>
        <time>2025-04-28T09:04:24Z</time>
      </trkpt>
      <trkpt lat="42.72804600186646" lon="-3.461142964661121">
        <ele>602.39999999999998</ele>
        <time>2025-04-28T09:04:25Z</time>
      </trkpt>
      <trkpt lat="42.72808900102973" lon="-3.461304986849427">
        <ele>602.88</ele>
        <time>2025-04-28T09:04:26Z</time>
      </trkpt>
      <trkpt lat="42.728382032364607" lon="-3.462791014462709">
        <ele>605.28999999999996</ele>
        <time>2025-04-28T09:04:34Z</time>
      </trkpt>
      <trkpt lat="42.728378009051085" lon="-3.462969968095422">
        <ele>605.76999999999998</ele>
        <time>2025-04-28T09:04:35Z</time>
      </trkpt>
      <trkpt lat="42.728365017101169" lon="-3.463514037430286">
        <ele>605.76999999999998</ele>
        <time>2025-04-28T09:04:38Z</time>
      </trkpt>
      <trkpt lat="42.728386977687478" lon="-3.463692991062999">
        <ele>605.76999999999998</ele>
        <time>2025-04-28T09:04:39Z</time>
      </trkpt>
      <trkpt lat="42.728566015139222" lon="-3.464481979608536">
        <ele>608.16999999999996</ele>
        <time>2025-04-28T09:04:44Z</time>
      </trkpt>
      <trkpt lat="42.728617982938886" lon="-3.464607037603855">
        <ele>609.13</ele>
        <time>2025-04-28T09:04:45Z</time>
      </trkpt>
      <trkpt lat="42.728708004578948" lon="-3.464723965153098">
        <ele>609.61000000000001</ele>
        <time>2025-04-28T09:04:46Z</time>
      </trkpt>
      <trkpt lat="42.728806994855404" lon="-3.46481398679316">
        <ele>610.09000000000003</ele>
        <time>2025-04-28T09:04:47Z</time>
      </trkpt>
      <trkpt lat="42.728899028152227" lon="-3.46489897929132">
        <ele>610.57000000000005</ele>
        <time>2025-04-28T09:04:48Z</time>
      </trkpt>
      <trkpt lat="42.729032970964909" lon="-3.464952958747745">
        <ele>611.05999999999995</ele>
        <time>2025-04-28T09:04:49Z</time>
      </trkpt>
      <trkpt lat="42.72918501868844" lon="-3.464987995103002">
        <ele>611.05999999999995</ele>
        <time>2025-04-28T09:04:50Z</time>
      </trkpt>
      <trkpt lat="42.729346035048366" lon="-3.464994030073285">
        <ele>611.05999999999995</ele>
        <time>2025-04-28T09:04:51Z</time>
      </trkpt>
      <trkpt lat="42.729509985074401" lon="-3.465000987052918">
        <ele>611.53999999999996</ele>
        <time>2025-04-28T09:04:52Z</time>
      </trkpt>
      <trkpt lat="42.73088101297617" lon="-3.465512031689286">
        <ele>614.41999999999996</ele>
        <time>2025-04-28T09:05:00Z</time>
      </trkpt>
      <trkpt lat="42.731185024604201" lon="-3.465769020840526">
        <ele>615.38</ele>
        <time>2025-04-28T09:05:02Z</time>
      </trkpt>
      <trkpt lat="42.731328019872308" lon="-3.465912016108632">
        <ele>615.86000000000001</ele>
        <time>2025-04-28T09:05:03Z</time>
      </trkpt>
      <trkpt lat="42.731448970735073" lon="-3.466091975569725">
        <ele>616.82000000000005</ele>
        <time>2025-04-28T09:05:04Z</time>
      </trkpt>
      <trkpt lat="42.732055988162756" lon="-3.467113981023431">
        <ele>621.14999999999998</ele>
        <time>2025-04-28T09:05:10Z</time>
      </trkpt>
      <trkpt lat="42.73215196095407" lon="-3.467229986563325">
        <ele>621.63</ele>
        <time>2025-04-28T09:05:11Z</time>
      </trkpt>
      <trkpt lat="42.732270983979106" lon="-3.467258987948299">
        <ele>622.59000000000003</ele>
        <time>2025-04-28T09:05:12Z</time>
      </trkpt>
      <trkpt lat="42.732383972033858" lon="-3.467258987948299">
        <ele>623.54999999999995</ele>
        <time>2025-04-28T09:05:13Z</time>
      </trkpt>
      <trkpt lat="42.732500983402133" lon="-3.467226969078183">
        <ele>624.02999999999997</ele>
        <time>2025-04-28T09:05:14Z</time>
      </trkpt>
      <trkpt lat="42.732599973678589" lon="-3.46717500127852">
        <ele>624.99000000000001</ele>
        <time>2025-04-28T09:05:15Z</time>
      </trkpt>
      <trkpt lat="42.732685972005129" lon="-3.467129990458489">
        <ele>625.96000000000004</ele>
        <time>2025-04-28T09:05:16Z</time>
      </trkpt>
      <trkpt lat="42.732765013352036" lon="-3.46708900295198">
        <ele>626.44000000000005</ele>
        <time>2025-04-28T09:05:17Z</time>
      </trkpt>
      <trkpt lat="42.732846988365054" lon="-3.467044997960329">
        <ele>627.39999999999998</ele>
        <time>2025-04-28T09:05:18Z</time>
      </trkpt>
      <trkpt lat="42.732927035540342" lon="-3.467056984081864">
        <ele>628.36000000000001</ele>
        <time>2025-04-28T09:05:19Z</time>
      </trkpt>
      <trkpt lat="42.733028037473559" lon="-3.467072993516922">
        <ele>628.84000000000003</ele>
        <time>2025-04-28T09:05:20Z</time>
      </trkpt>
      <trkpt lat="42.733437996357679" lon="-3.467106018215418">
        <ele>633.16999999999996</ele>
        <time>2025-04-28T09:05:25Z</time>
      </trkpt>
      <trkpt lat="42.733575962483883" lon="-3.46710903570056">
        <ele>635.09000000000003</ele>
        <time>2025-04-28T09:05:27Z</time>
      </trkpt>
      <trkpt lat="42.733727004379034" lon="-3.46710903570056">
        <ele>636.52999999999997</ele>
        <time>2025-04-28T09:05:29Z</time>
      </trkpt>
      <trkpt lat="42.73378299549222" lon="-3.467119010165334">
        <ele>637.49000000000001</ele>
        <time>2025-04-28T09:05:30Z</time>
      </trkpt>
      <trkpt lat="42.733881985768676" lon="-3.467137031257153">
        <ele>639.40999999999997</ele>
        <time>2025-04-28T09:05:32Z</time>
      </trkpt>
      <trkpt lat="42.733920039609075" lon="-3.467143988236785">
        <ele>640.38</ele>
        <time>2025-04-28T09:05:33Z</time>
      </trkpt>
      <trkpt lat="42.734008971601725" lon="-3.46715496852994">
        <ele>643.25999999999999</ele>
        <time>2025-04-28T09:05:36Z</time>
      </trkpt>
      <trkpt lat="42.734047025442123" lon="-3.467156980186701">
        <ele>643.74000000000001</ele>
        <time>2025-04-28T09:05:37Z</time>
      </trkpt>
      <trkpt lat="42.734094969928265" lon="-3.467158991843462">
        <ele>644.70000000000005</ele>
        <time>2025-04-28T09:05:38Z</time>
      </trkpt>
      <trkpt lat="42.734138974919915" lon="-3.467162009328604">
        <ele>645.65999999999997</ele>
        <time>2025-04-28T09:05:39Z</time>
      </trkpt>
      <trkpt lat="42.734192032366991" lon="-3.467165026813746">
        <ele>646.13999999999999</ele>
        <time>2025-04-28T09:05:40Z</time>
      </trkpt>
      <trkpt lat="42.734249029308558" lon="-3.467167960479856">
        <ele>647.10000000000002</ele>
        <time>2025-04-28T09:05:41Z</time>
      </trkpt>
      <trkpt lat="42.734309965744615" lon="-3.467170977964997">
        <ele>647.59000000000003</ele>
        <time>2025-04-28T09:05:42Z</time>
      </trkpt>
      <trkpt lat="42.734368974342942" lon="-3.467193022370338">
        <ele>648.07000000000005</ele>
        <time>2025-04-28T09:05:43Z</time>
      </trkpt>
      <trkpt lat="42.73442798294127" lon="-3.467252030968666">
        <ele>648.54999999999995</ele>
        <time>2025-04-28T09:05:44Z</time>
      </trkpt>
      <trkpt lat="42.734479028731585" lon="-3.467331994324923">
        <ele>649.02999999999997</ele>
        <time>2025-04-28T09:05:45Z</time>
      </trkpt>
      <trkpt lat="42.734586987644434" lon="-3.467508014291525">
        <ele>649.02999999999997</ele>
        <time>2025-04-28T09:05:47Z</time>
      </trkpt>
      <trkpt lat="42.734635015949607" lon="-3.46758596599102">
        <ele>648.54999999999995</ele>
        <time>2025-04-28T09:05:48Z</time>
      </trkpt>
      <trkpt lat="42.734682038426399" lon="-3.467667018994689">
        <ele>648.54999999999995</ele>
        <time>2025-04-28T09:05:49Z</time>
      </trkpt>
      <trkpt lat="42.734810030087829" lon="-3.46794999204576">
        <ele>647.10000000000002</ele>
        <time>2025-04-28T09:05:52Z</time>
      </trkpt>
      <trkpt lat="42.734951013699174" lon="-3.468488026410341">
        <ele>645.17999999999995</ele>
        <time>2025-04-28T09:05:57Z</time>
      </trkpt>
      <trkpt lat="42.73496501147747" lon="-3.468617023900151">
        <ele>645.17999999999995</ele>
        <time>2025-04-28T09:05:58Z</time>
      </trkpt>
      <trkpt lat="42.734956964850426" lon="-3.468746021389961">
        <ele>644.70000000000005</ele>
        <time>2025-04-28T09:05:59Z</time>
      </trkpt>
      <trkpt lat="42.734929975122213" lon="-3.468882981687784">
        <ele>644.22000000000003</ele>
        <time>2025-04-28T09:06:00Z</time>
      </trkpt>
      <trkpt lat="42.734898962080479" lon="-3.469014996662736">
        <ele>643.74000000000001</ele>
        <time>2025-04-28T09:06:01Z</time>
      </trkpt>
      <trkpt lat="42.734840959310532" lon="-3.469135025516152">
        <ele>642.77999999999997</ele>
        <time>2025-04-28T09:06:02Z</time>
      </trkpt>
      <trkpt lat="42.734783040359616" lon="-3.469254970550537">
        <ele>642.77999999999997</ele>
        <time>2025-04-28T09:06:03Z</time>
      </trkpt>
      <trkpt lat="42.734726965427399" lon="-3.469369970262051">
        <ele>642.77999999999997</ele>
        <time>2025-04-28T09:06:04Z</time>
      </trkpt>
      <trkpt lat="42.734670974314213" lon="-3.469484969973564">
        <ele>642.29999999999995</ele>
        <time>2025-04-28T09:06:05Z</time>
      </trkpt>
      <trkpt lat="42.734615989029408" lon="-3.469599969685078">
        <ele>641.82000000000005</ele>
        <time>2025-04-28T09:06:06Z</time>
      </trkpt>
      <trkpt lat="42.734504006803036" lon="-3.469844972714782">
        <ele>641.34000000000003</ele>
        <time>2025-04-28T09:06:08Z</time>
      </trkpt>
      <trkpt lat="42.734446004033089" lon="-3.469975981861353">
        <ele>640.86000000000001</ele>
        <time>2025-04-28T09:06:09Z</time>
      </trkpt>
      <trkpt lat="42.734414990991354" lon="-3.470130041241646">
        <ele>640.38</ele>
        <time>2025-04-28T09:06:10Z</time>
      </trkpt>
      <trkpt lat="42.734418008476496" lon="-3.47029197961092">
        <ele>640.38</ele>
        <time>2025-04-28T09:06:11Z</time>
      </trkpt>
      <trkpt lat="42.734420020133257" lon="-3.470467999577522">
        <ele>639.88999999999999</ele>
        <time>2025-04-28T09:06:12Z</time>
      </trkpt>
      <trkpt lat="42.734423037618399" lon="-3.470650976523757">
        <ele>639.40999999999997</ele>
        <time>2025-04-28T09:06:13Z</time>
      </trkpt>
      <trkpt lat="42.734419014304876" lon="-3.471588995307684">
        <ele>635.57000000000005</ele>
        <time>2025-04-28T09:06:18Z</time>
      </trkpt>
      <trkpt lat="42.734382972121239" lon="-3.472392987459898">
        <ele>631.72000000000003</ele>
        <time>2025-04-28T09:06:22Z</time>
      </trkpt>
      <trkpt lat="42.734420020133257" lon="-3.472593985497952">
        <ele>631.24000000000001</ele>
        <time>2025-04-28T09:06:23Z</time>
      </trkpt>
      <trkpt lat="42.734487997367978" lon="-3.472786014899612">
        <ele>630.75999999999999</ele>
        <time>2025-04-28T09:06:24Z</time>
      </trkpt>
      <trkpt lat="42.734881024807692" lon="-3.473753035068512">
        <ele>627.88</ele>
        <time>2025-04-28T09:06:29Z</time>
      </trkpt>
      <trkpt lat="42.734985966235399" lon="-3.473928971216083">
        <ele>627.39999999999998</ele>
        <time>2025-04-28T09:06:30Z</time>
      </trkpt>
      <trkpt lat="42.735090991482139" lon="-3.474132986739278">
        <ele>626.91999999999996</ele>
        <time>2025-04-28T09:06:31Z</time>
      </trkpt>
      <trkpt lat="42.735146982595325" lon="-3.474355023354292">
        <ele>625.96000000000004</ele>
        <time>2025-04-28T09:06:32Z</time>
      </trkpt>
      <trkpt lat="42.735215965658426" lon="-3.474563984200358">
        <ele>625.47000000000003</ele>
        <time>2025-04-28T09:06:33Z</time>
      </trkpt>
      <trkpt lat="42.7353520039469" lon="-3.474932033568621">
        <ele>625.47000000000003</ele>
        <time>2025-04-28T09:06:35Z</time>
      </trkpt>
      <trkpt lat="42.735421992838383" lon="-3.475031023845077">
        <ele>625.47000000000003</ele>
        <time>2025-04-28T09:06:36Z</time>
      </trkpt>
      <trkpt lat="42.735533975064754" lon="-3.475095983594656">
        <ele>624.99000000000001</ele>
        <time>2025-04-28T09:06:37Z</time>
      </trkpt>
      <trkpt lat="42.735660038888454" lon="-3.475169995799661">
        <ele>624.99000000000001</ele>
        <time>2025-04-28T09:06:38Z</time>
      </trkpt>
      <trkpt lat="42.735790964215994" lon="-3.475247025489807">
        <ele>624.99000000000001</ele>
        <time>2025-04-28T09:06:39Z</time>
      </trkpt>
      <trkpt lat="42.735921973362565" lon="-3.475323971360922">
        <ele>624.99000000000001</ele>
        <time>2025-04-28T09:06:40Z</time>
      </trkpt>
      <trkpt lat="42.736053988337517" lon="-3.475433019921184">
        <ele>624.50999999999999</ele>
        <time>2025-04-28T09:06:41Z</time>
      </trkpt>
      <trkpt lat="42.73616898804903" lon="-3.475570986047387">
        <ele>624.50999999999999</ele>
        <time>2025-04-28T09:06:42Z</time>
      </trkpt>
      <trkpt lat="42.736394964158535" lon="-3.475805008783937">
        <ele>624.02999999999997</ele>
        <time>2025-04-28T09:06:44Z</time>
      </trkpt>
      <trkpt lat="42.73651197552681" lon="-3.475885977968574">
        <ele>624.02999999999997</ele>
        <time>2025-04-28T09:06:45Z</time>
      </trkpt>
      <trkpt lat="42.736988989636302" lon="-3.476212034001946">
        <ele>623.54999999999995</ele>
        <time>2025-04-28T09:06:49Z</time>
      </trkpt>
      <trkpt lat="42.737216977402568" lon="-3.476431975141168">
        <ele>624.99000000000001</ele>
        <time>2025-04-28T09:06:51Z</time>
      </trkpt>
      <trkpt lat="42.737315967679024" lon="-3.476586034521461">
        <ele>625.47000000000003</ele>
        <time>2025-04-28T09:06:52Z</time>
      </trkpt>
      <trkpt lat="42.737385034561157" lon="-3.476764988154173">
        <ele>625.96000000000004</ele>
        <time>2025-04-28T09:06:53Z</time>
      </trkpt>
      <trkpt lat="42.737453011795878" lon="-3.476942013949156">
        <ele>626.44000000000005</ele>
        <time>2025-04-28T09:06:54Z</time>
      </trkpt>
      <trkpt lat="42.737525012344122" lon="-3.477130020037293">
        <ele>626.91999999999996</ele>
        <time>2025-04-28T09:06:55Z</time>
      </trkpt>
      <trkpt lat="42.737601958215237" lon="-3.477250970900059">
        <ele>627.39999999999998</ele>
        <time>2025-04-28T09:06:56Z</time>
      </trkpt>
      <trkpt lat="42.737852996215224" lon="-3.477708036080003">
        <ele>629.32000000000005</ele>
        <time>2025-04-28T09:06:59Z</time>
      </trkpt>
      <trkpt lat="42.737902030348778" lon="-3.477892018854618">
        <ele>629.32000000000005</ele>
        <time>2025-04-28T09:07:00Z</time>
      </trkpt>
      <trkpt lat="42.73792801424861" lon="-3.478082036599517">
        <ele>629.32000000000005</ele>
        <time>2025-04-28T09:07:01Z</time>
      </trkpt>
      <trkpt lat="42.737915022298694" lon="-3.478280017152429">
        <ele>629.32000000000005</ele>
        <time>2025-04-28T09:07:02Z</time>
      </trkpt>
      <trkpt lat="42.737854002043605" lon="-3.47845796495676">
        <ele>629.79999999999995</ele>
        <time>2025-04-28T09:07:03Z</time>
      </trkpt>
      <trkpt lat="42.737773032858968" lon="-3.478638008236885">
        <ele>629.79999999999995</ele>
        <time>2025-04-28T09:07:04Z</time>
      </trkpt>
      <trkpt lat="42.737688962370157" lon="-3.478826014325023">
        <ele>629.32000000000005</ele>
        <time>2025-04-28T09:07:05Z</time>
      </trkpt>
      <trkpt lat="42.737603969871998" lon="-3.47901301458478">
        <ele>628.84000000000003</ele>
        <time>2025-04-28T09:07:06Z</time>
      </trkpt>
      <trkpt lat="42.737525012344122" lon="-3.479190040379763">
        <ele>628.36000000000001</ele>
        <time>2025-04-28T09:07:07Z</time>
      </trkpt>
      <trkpt lat="42.73741202428937" lon="-3.479360025376082">
        <ele>628.36000000000001</ele>
        <time>2025-04-28T09:07:08Z</time>
      </trkpt>
      <trkpt lat="42.737299036234617" lon="-3.47952900454402">
        <ele>627.88</ele>
        <time>2025-04-28T09:07:09Z</time>
      </trkpt>
      <trkpt lat="42.737162997946143" lon="-3.479671999812126">
        <ele>627.39999999999998</ele>
        <time>2025-04-28T09:07:10Z</time>
      </trkpt>
      <trkpt lat="42.737021008506417" lon="-3.479804014787078">
        <ele>626.91999999999996</ele>
        <time>2025-04-28T09:07:11Z</time>
      </trkpt>
      <trkpt lat="42.736862003803253" lon="-3.479888001456857">
        <ele>626.44000000000005</ele>
        <time>2025-04-28T09:07:12Z</time>
      </trkpt>
      <trkpt lat="42.736698975786567" lon="-3.47995899617672">
        <ele>626.91999999999996</ele>
        <time>2025-04-28T09:07:13Z</time>
      </trkpt>
      <trkpt lat="42.736531002447009" lon="-3.480032002553344">
        <ele>626.91999999999996</ele>
        <time>2025-04-28T09:07:14Z</time>
      </trkpt>
      <trkpt lat="42.736227996647358" lon="-3.480190001428127">
        <ele>626.91999999999996</ele>
        <time>2025-04-28T09:07:16Z</time>
      </trkpt>
      <trkpt lat="42.736087013036013" lon="-3.48028396256268">
        <ele>626.91999999999996</ele>
        <time>2025-04-28T09:07:17Z</time>
      </trkpt>
      <trkpt lat="42.73597402498126" lon="-3.480440033599734">
        <ele>626.91999999999996</ele>
        <time>2025-04-28T09:07:18Z</time>
      </trkpt>
      <trkpt lat="42.735870005562901" lon="-3.480615969747305">
        <ele>626.91999999999996</ele>
        <time>2025-04-28T09:07:19Z</time>
      </trkpt>
      <trkpt lat="42.735777972266078" lon="-3.480811016634107">
        <ele>626.91999999999996</ele>
        <time>2025-04-28T09:07:20Z</time>
      </trkpt>
      <trkpt lat="42.735711000859737" lon="-3.481006985530257">
        <ele>626.91999999999996</ele>
        <time>2025-04-28T09:07:21Z</time>
      </trkpt>
      <trkpt lat="42.735677976161242" lon="-3.481230027973652">
        <ele>627.39999999999998</ele>
        <time>2025-04-28T09:07:22Z</time>
      </trkpt>
      <trkpt lat="42.735644029453397" lon="-3.48146203905344">
        <ele>627.39999999999998</ele>
        <time>2025-04-28T09:07:23Z</time>
      </trkpt>
      <trkpt lat="42.735636988654733" lon="-3.481689020991325">
        <ele>627.88</ele>
        <time>2025-04-28T09:07:24Z</time>
      </trkpt>
      <trkpt lat="42.735636988654733" lon="-3.482108032330871">
        <ele>627.88</ele>
        <time>2025-04-28T09:07:26Z</time>
      </trkpt>
      <trkpt lat="42.735678981989622" lon="-3.482250021770597">
        <ele>628.36000000000001</ele>
        <time>2025-04-28T09:07:27Z</time>
      </trkpt>
      <trkpt lat="42.735754000023007" lon="-3.482374995946884">
        <ele>628.36000000000001</ele>
        <time>2025-04-28T09:07:28Z</time>
      </trkpt>
      <trkpt lat="42.735862964764237" lon="-3.482477003708482">
        <ele>629.32000000000005</ele>
        <time>2025-04-28T09:07:29Z</time>
      </trkpt>
      <trkpt lat="42.736002020537853" lon="-3.482523020356894">
        <ele>629.79999999999995</ele>
        <time>2025-04-28T09:07:30Z</time>
      </trkpt>
      <trkpt lat="42.736152978613973" lon="-3.482572976499796">
        <ele>630.27999999999997</ele>
        <time>2025-04-28T09:07:31Z</time>
      </trkpt>
      <trkpt lat="42.737556025385857" lon="-3.48305300809443">
        <ele>635.09000000000003</ele>
        <time>2025-04-28T09:07:39Z</time>
      </trkpt>
      <trkpt lat="42.737875040620565" lon="-3.483188040554524">
        <ele>636.52999999999997</ele>
        <time>2025-04-28T09:07:41Z</time>
      </trkpt>
      <trkpt lat="42.738004960119724" lon="-3.483278984203935">
        <ele>637.00999999999999</ele>
        <time>2025-04-28T09:07:42Z</time>
      </trkpt>
      <trkpt lat="42.738076038658619" lon="-3.483408987522125">
        <ele>637.00999999999999</ele>
        <time>2025-04-28T09:07:43Z</time>
      </trkpt>
      <trkpt lat="42.738134963437915" lon="-3.483532033860683">
        <ele>637.49000000000001</ele>
        <time>2025-04-28T09:07:44Z</time>
      </trkpt>
      <trkpt lat="42.738188020884991" lon="-3.483643010258675">
        <ele>637.49000000000001</ele>
        <time>2025-04-28T09:07:45Z</time>
      </trkpt>
      <trkpt lat="42.738244011998177" lon="-3.483762033283711">
        <ele>637.49000000000001</ele>
        <time>2025-04-28T09:07:46Z</time>
      </trkpt>
      <trkpt lat="42.738307965919375" lon="-3.483895976096392">
        <ele>637.49000000000001</ele>
        <time>2025-04-28T09:07:47Z</time>
      </trkpt>
      <trkpt lat="42.738380972296" lon="-3.484048023819923">
        <ele>637.00999999999999</ele>
        <time>2025-04-28T09:07:48Z</time>
      </trkpt>
      <trkpt lat="42.738685989752412" lon="-3.48455797880888">
        <ele>637.00999999999999</ele>
        <time>2025-04-28T09:07:51Z</time>
      </trkpt>
      <trkpt lat="42.739014979451895" lon="-3.485146975144744">
        <ele>637.49000000000001</ele>
        <time>2025-04-28T09:07:54Z</time>
      </trkpt>
      <trkpt lat="42.739109024405479" lon="-3.4853720292449">
        <ele>637.49000000000001</ele>
        <time>2025-04-28T09:07:55Z</time>
      </trkpt>
      <trkpt lat="42.739203991368413" lon="-3.485599011182785">
        <ele>637.00999999999999</ele>
        <time>2025-04-28T09:07:56Z</time>
      </trkpt>
      <trkpt lat="42.739300969988108" lon="-3.485830016434193">
        <ele>637.00999999999999</ele>
        <time>2025-04-28T09:07:57Z</time>
      </trkpt>
      <trkpt lat="42.739398032426834" lon="-3.486063033342362">
        <ele>637.00999999999999</ele>
        <time>2025-04-28T09:07:58Z</time>
      </trkpt>
      <trkpt lat="42.740555992349982" lon="-3.488282980397344">
        <ele>641.82000000000005</ele>
        <time>2025-04-28T09:08:08Z</time>
      </trkpt>
      <trkpt lat="42.740661017596722" lon="-3.488484984263778">
        <ele>642.29999999999995</ele>
        <time>2025-04-28T09:08:09Z</time>
      </trkpt>
      <trkpt lat="42.740759002044797" lon="-3.488671984523535">
        <ele>642.29999999999995</ele>
        <time>2025-04-28T09:08:10Z</time>
      </trkpt>
      <trkpt lat="42.741080028936267" lon="-3.489263998344541">
        <ele>642.77999999999997</ele>
        <time>2025-04-28T09:08:13Z</time>
      </trkpt>
      <trkpt lat="42.742114020511508" lon="-3.490664027631283">
        <ele>644.22000000000003</ele>
        <time>2025-04-28T09:08:22Z</time>
      </trkpt>
      <trkpt lat="42.742170011624694" lon="-3.490763017907739">
        <ele>644.22000000000003</ele>
        <time>2025-04-28T09:08:23Z</time>
      </trkpt>
      <trkpt lat="42.742208987474442" lon="-3.490866031497717">
        <ele>644.22000000000003</ele>
        <time>2025-04-28T09:08:24Z</time>
      </trkpt>
      <trkpt lat="42.742391964420676" lon="-3.491434995085001">
        <ele>643.74000000000001</ele>
        <time>2025-04-28T09:08:29Z</time>
      </trkpt>
      <trkpt lat="42.742408979684114" lon="-3.491558041423559">
        <ele>644.22000000000003</ele>
        <time>2025-04-28T09:08:30Z</time>
      </trkpt>
      <trkpt lat="42.742425994947553" lon="-3.491677986457944">
        <ele>644.22000000000003</ele>
        <time>2025-04-28T09:08:31Z</time>
      </trkpt>
      <trkpt lat="42.742434041574597" lon="-3.491791980341077">
        <ele>644.22000000000003</ele>
        <time>2025-04-28T09:08:32Z</time>
      </trkpt>
      <trkpt lat="42.742415014654398" lon="-3.491908991709352">
        <ele>645.17999999999995</ele>
        <time>2025-04-28T09:08:33Z</time>
      </trkpt>
      <trkpt lat="42.742394981905818" lon="-3.492026003077626">
        <ele>645.17999999999995</ele>
        <time>2025-04-28T09:08:34Z</time>
      </trkpt>
      <trkpt lat="42.742318036034703" lon="-3.492491031065583">
        <ele>647.10000000000002</ele>
        <time>2025-04-28T09:08:38Z</time>
      </trkpt>
      <trkpt lat="42.742300014942884" lon="-3.492595972493291">
        <ele>647.59000000000003</ele>
        <time>2025-04-28T09:08:39Z</time>
      </trkpt>
      <trkpt lat="42.742267996072769" lon="-3.492790013551712">
        <ele>649.02999999999997</ele>
        <time>2025-04-28T09:08:41Z</time>
      </trkpt>
      <trkpt lat="42.742253998294473" lon="-3.492870982736349">
        <ele>649.50999999999999</ele>
        <time>2025-04-28T09:08:42Z</time>
      </trkpt>
      <trkpt lat="42.74224603548646" lon="-3.492949018254876">
        <ele>649.99000000000001</ele>
        <time>2025-04-28T09:08:43Z</time>
      </trkpt>
      <trkpt lat="42.74224603548646" lon="-3.493020012974739">
        <ele>650.47000000000003</ele>
        <time>2025-04-28T09:08:44Z</time>
      </trkpt>
      <trkpt lat="42.742304960265756" lon="-3.493085978552699">
        <ele>650.95000000000005</ele>
        <time>2025-04-28T09:08:45Z</time>
      </trkpt>
      <trkpt lat="42.742363968864083" lon="-3.493119003251195">
        <ele>651.42999999999995</ele>
        <time>2025-04-28T09:08:46Z</time>
      </trkpt>
      <trkpt lat="42.742429012432694" lon="-3.493155967444181">
        <ele>651.42999999999995</ele>
        <time>2025-04-28T09:08:47Z</time>
      </trkpt>
      <trkpt lat="42.74276596494019" lon="-3.49340801127255">
        <ele>652.38999999999999</ele>
        <time>2025-04-28T09:08:52Z</time>
      </trkpt>
      <trkpt lat="42.742830002680421" lon="-3.493468025699258">
        <ele>651.90999999999997</ele>
        <time>2025-04-28T09:08:53Z</time>
      </trkpt>
      <trkpt lat="42.74293502792716" lon="-3.493653014302254">
        <ele>651.90999999999997</ele>
        <time>2025-04-28T09:08:55Z</time>
      </trkpt>
      <trkpt lat="42.742986995726824" lon="-3.493744963780046">
        <ele>651.42999999999995</ele>
        <time>2025-04-28T09:08:56Z</time>
      </trkpt>
      <trkpt lat="42.74304298684001" lon="-3.493844037875533">
        <ele>650.95000000000005</ele>
        <time>2025-04-28T09:08:57Z</time>
      </trkpt>
      <trkpt lat="42.743225041776896" lon="-3.494145032018423">
        <ele>650.95000000000005</ele>
        <time>2025-04-28T09:09:00Z</time>
      </trkpt>
      <trkpt lat="42.74330098181963" lon="-3.494236981496215">
        <ele>650.95000000000005</ele>
        <time>2025-04-28T09:09:01Z</time>
      </trkpt>
      <trkpt lat="42.74347398430109" lon="-3.494437979534268">
        <ele>650.47000000000003</ele>
        <time>2025-04-28T09:09:03Z</time>
      </trkpt>
      <trkpt lat="42.743575992062688" lon="-3.494553985074163">
        <ele>649.99000000000001</ele>
        <time>2025-04-28T09:09:04Z</time>
      </trkpt>
      <trkpt lat="42.743670959025621" lon="-3.494659010320902">
        <ele>649.02999999999997</ele>
        <time>2025-04-28T09:09:05Z</time>
      </trkpt>
      <trkpt lat="42.744723977521062" lon="-3.49568503908813">
        <ele>645.65999999999997</ele>
        <time>2025-04-28T09:09:14Z</time>
      </trkpt>
      <trkpt lat="42.744989013299346" lon="-3.495781011879444">
        <ele>646.13999999999999</ele>
        <time>2025-04-28T09:09:16Z</time>
      </trkpt>
      <trkpt lat="42.745122034102678" lon="-3.495800960808992">
        <ele>646.13999999999999</ele>
        <time>2025-04-28T09:09:17Z</time>
      </trkpt>
      <trkpt lat="42.746126018464565" lon="-3.495924007147551">
        <ele>648.07000000000005</ele>
        <time>2025-04-28T09:09:25Z</time>
      </trkpt>
      <trkpt lat="42.747334018349648" lon="-3.496046969667077">
        <ele>650.47000000000003</ele>
        <time>2025-04-28T09:09:34Z</time>
      </trkpt>
      <trkpt lat="42.748859021812677" lon="-3.496404038742185">
        <ele>655.27999999999997</ele>
        <time>2025-04-28T09:09:44Z</time>
      </trkpt>
      <trkpt lat="42.749285995960236" lon="-3.496666979044676">
        <ele>655.75999999999999</ele>
        <time>2025-04-28T09:09:47Z</time>
      </trkpt>
      <trkpt lat="42.749414993450046" lon="-3.496755994856358">
        <ele>655.75999999999999</ele>
        <time>2025-04-28T09:09:48Z</time>
      </trkpt>
      <trkpt lat="42.749543990939856" lon="-3.496853979304433">
        <ele>656.24000000000001</ele>
        <time>2025-04-28T09:09:49Z</time>
      </trkpt>
      <trkpt lat="42.749666031450033" lon="-3.496948024258018">
        <ele>656.72000000000003</ele>
        <time>2025-04-28T09:09:50Z</time>
      </trkpt>
      <trkpt lat="42.749773990362883" lon="-3.497052965685725">
        <ele>656.72000000000003</ele>
        <time>2025-04-28T09:09:51Z</time>
      </trkpt>
      <trkpt lat="42.749867029488087" lon="-3.497181963175535">
        <ele>657.67999999999995</ele>
        <time>2025-04-28T09:09:52Z</time>
      </trkpt>
      <trkpt lat="42.749932995066047" lon="-3.497344991192222">
        <ele>658.15999999999997</ele>
        <time>2025-04-28T09:09:53Z</time>
      </trkpt>
      <trkpt lat="42.749968031421304" lon="-3.497544983401895">
        <ele>658.63999999999999</ele>
        <time>2025-04-28T09:09:54Z</time>
      </trkpt>
      <trkpt lat="42.749993009492755" lon="-3.497758973389864">
        <ele>659.60000000000002</ele>
        <time>2025-04-28T09:09:55Z</time>
      </trkpt>
      <trkpt lat="42.750098034739494" lon="-3.498577969148755">
        <ele>662.49000000000001</ele>
        <time>2025-04-28T09:09:59Z</time>
      </trkpt>
      <trkpt lat="42.750157965347171" lon="-3.498714007437229">
        <ele>662.97000000000003</ele>
        <time>2025-04-28T09:10:00Z</time>
      </trkpt>
      <trkpt lat="42.750225020572543" lon="-3.498861026018858">
        <ele>663.45000000000005</ele>
        <time>2025-04-28T09:10:01Z</time>
      </trkpt>
      <trkpt lat="42.750330967828631" lon="-3.498969990760088">
        <ele>663.92999999999995</ele>
        <time>2025-04-28T09:10:02Z</time>
      </trkpt>
      <trkpt lat="42.750458037480712" lon="-3.499095970764756">
        <ele>664.88999999999999</ele>
        <time>2025-04-28T09:10:03Z</time>
      </trkpt>
      <trkpt lat="42.750958018004894" lon="-3.49959603510797">
        <ele>667.28999999999996</ele>
        <time>2025-04-28T09:10:07Z</time>
      </trkpt>
      <trkpt lat="42.751064971089363" lon="-3.499757973477244">
        <ele>667.76999999999998</ele>
        <time>2025-04-28T09:10:08Z</time>
      </trkpt>
      <trkpt lat="42.751152981072664" lon="-3.499889988452196">
        <ele>667.76999999999998</ele>
        <time>2025-04-28T09:10:09Z</time>
      </trkpt>
      <trkpt lat="42.751190029084682" lon="-3.500032983720303">
        <ele>668.25</ele>
        <time>2025-04-28T09:10:10Z</time>
      </trkpt>
      <trkpt lat="42.751215007156134" lon="-3.500195005908608">
        <ele>668.25</ele>
        <time>2025-04-28T09:10:11Z</time>
      </trkpt>
      <trkpt lat="42.751244008541107" lon="-3.500383011996746">
        <ele>668.25</ele>
        <time>2025-04-28T09:10:12Z</time>
      </trkpt>
      <trkpt lat="42.751198997721076" lon="-3.500793976709247">
        <ele>668.25</ele>
        <time>2025-04-28T09:10:14Z</time>
      </trkpt>
      <trkpt lat="42.751116016879678" lon="-3.501246012747288">
        <ele>667.76999999999998</ele>
        <time>2025-04-28T09:10:16Z</time>
      </trkpt>
      <trkpt lat="42.751087015494704" lon="-3.501491015776992">
        <ele>666.80999999999995</ele>
        <time>2025-04-28T09:10:17Z</time>
      </trkpt>
      <trkpt lat="42.751064971089363" lon="-3.501698970794678">
        <ele>666.33000000000004</ele>
        <time>2025-04-28T09:10:18Z</time>
      </trkpt>
      <trkpt lat="42.751091038808227" lon="-3.501872979104519">
        <ele>665.85000000000002</ele>
        <time>2025-04-28T09:10:19Z</time>
      </trkpt>
      <trkpt lat="42.751107970252633" lon="-3.501978004351258">
        <ele>665.37</ele>
        <time>2025-04-28T09:10:20Z</time>
      </trkpt>
      <trkpt lat="42.751203021034598" lon="-3.502125022932887">
        <ele>664.88999999999999</ele>
        <time>2025-04-28T09:10:21Z</time>
      </trkpt>
      <trkpt lat="42.751301005482674" lon="-3.502277992665768">
        <ele>664.88999999999999</ele>
        <time>2025-04-28T09:10:22Z</time>
      </trkpt>
      <trkpt lat="42.751426985487342" lon="-3.502346975728869">
        <ele>664.40999999999997</ele>
        <time>2025-04-28T09:10:23Z</time>
      </trkpt>
      <trkpt lat="42.751584984362125" lon="-3.502424005419016">
        <ele>664.40999999999997</ele>
        <time>2025-04-28T09:10:24Z</time>
      </trkpt>
      <trkpt lat="42.751931995153427" lon="-3.502533975988627">
        <ele>663.92999999999995</ele>
        <time>2025-04-28T09:10:26Z</time>
      </trkpt>
      <trkpt lat="42.752116983756423" lon="-3.502525007352233">
        <ele>663.92999999999995</ele>
        <time>2025-04-28T09:10:27Z</time>
      </trkpt>
      <trkpt lat="42.752294009551406" lon="-3.502516038715839">
        <ele>662.97000000000003</ele>
        <time>2025-04-28T09:10:28Z</time>
      </trkpt>
      <trkpt lat="42.752454020082951" lon="-3.502543028444052">
        <ele>662.00999999999999</ele>
        <time>2025-04-28T09:10:29Z</time>
      </trkpt>
      <trkpt lat="42.752622999250889" lon="-3.502588961273432">
        <ele>661.03999999999996</ele>
        <time>2025-04-28T09:10:30Z</time>
      </trkpt>
      <trkpt lat="42.752770017832518" lon="-3.502699015662074">
        <ele>660.55999999999995</ele>
        <time>2025-04-28T09:10:31Z</time>
      </trkpt>
      <trkpt lat="42.753446018323302" lon="-3.50316496565938">
        <ele>660.55999999999995</ele>
        <time>2025-04-28T09:10:37Z</time>
      </trkpt>
      <trkpt lat="42.753511983901262" lon="-3.503202013671398">
        <ele>660.55999999999995</ele>
        <time>2025-04-28T09:10:38Z</time>
      </trkpt>
      <trkpt lat="42.753612985834479" lon="-3.503260016441345">
        <ele>660.55999999999995</ele>
        <time>2025-04-28T09:10:40Z</time>
      </trkpt>
      <trkpt lat="42.753651961684227" lon="-3.503282982856035">
        <ele>660.55999999999995</ele>
        <time>2025-04-28T09:10:41Z</time>
      </trkpt>
      <trkpt lat="42.753770984709263" lon="-3.503350960090756">
        <ele>661.03999999999996</ele>
        <time>2025-04-28T09:10:46Z</time>
      </trkpt>
      <trkpt lat="42.753770984709263" lon="-3.503350960090756">
        <ele>661.51999999999998</ele>
        <time>2025-04-28T09:10:47Z</time>
      </trkpt>
      <trkpt lat="42.753770984709263" lon="-3.503350960090756">
        <ele>661.51999999999998</ele>
        <time>2025-04-28T09:11:01Z</time>
      </trkpt>
      <trkpt lat="42.753749024122953" lon="-3.503419021144509">
        <ele>682.19000000000005</ele>
        <time>2025-04-28T09:19:26Z</time>
      </trkpt>
      <trkpt lat="42.753792023286223" lon="-3.503387002274394">
        <ele>673.53999999999996</ele>
        <time>2025-04-28T09:20:23Z</time>
      </trkpt>
      <trkpt lat="42.753777019679546" lon="-3.503381973132491">
        <ele>673.05999999999995</ele>
        <time>2025-04-28T09:21:21Z</time>
      </trkpt>
      <trkpt lat="42.753777019679546" lon="-3.503381973132491">
        <ele>673.05999999999995</ele>
        <time>2025-04-28T09:21:27Z</time>
      </trkpt>
      <trkpt lat="42.753809960559011" lon="-3.503374010324478">
        <ele>673.53999999999996</ele>
        <time>2025-04-28T09:21:29Z</time>
      </trkpt>
      <trkpt lat="42.753852959722281" lon="-3.503397982567549">
        <ele>673.53999999999996</ele>
        <time>2025-04-28T09:21:30Z</time>
      </trkpt>
      <trkpt lat="42.753909034654498" lon="-3.503430001437664">
        <ele>673.53999999999996</ele>
        <time>2025-04-28T09:21:31Z</time>
      </trkpt>
      <trkpt lat="42.753972988575697" lon="-3.503466965630651">
        <ele>673.53999999999996</ele>
        <time>2025-04-28T09:21:32Z</time>
      </trkpt>
      <trkpt lat="42.754690982401371" lon="-3.503952026367188">
        <ele>675.94000000000005</ele>
        <time>2025-04-28T09:21:40Z</time>
      </trkpt>
      <trkpt lat="42.755350973457098" lon="-3.504675971344113">
        <ele>679.30999999999995</ele>
        <time>2025-04-28T09:21:49Z</time>
      </trkpt>
      <trkpt lat="42.75597701780498" lon="-3.505825968459249">
        <ele>686.51999999999998</ele>
        <time>2025-04-28T09:21:58Z</time>
      </trkpt>
      <trkpt lat="42.756138034164906" lon="-3.50612604059279">
        <ele>687.96000000000004</ele>
        <time>2025-04-28T09:22:00Z</time>
      </trkpt>
      <trkpt lat="42.7562350127846" lon="-3.50625897757709">
        <ele>688.91999999999996</ele>
        <time>2025-04-28T09:22:01Z</time>
      </trkpt>
      <trkpt lat="42.756334003061056" lon="-3.506388980895281">
        <ele>689.39999999999998</ele>
        <time>2025-04-28T09:22:02Z</time>
      </trkpt>
      <trkpt lat="42.756442967802286" lon="-3.506508003920317">
        <ele>689.88</ele>
        <time>2025-04-28T09:22:03Z</time>
      </trkpt>
      <trkpt lat="42.756553022190928" lon="-3.506626021116972">
        <ele>690.36000000000001</ele>
        <time>2025-04-28T09:22:04Z</time>
      </trkpt>
      <trkpt lat="42.757464973255992" lon="-3.507712986320257">
        <ele>693.25</ele>
        <time>2025-04-28T09:22:12Z</time>
      </trkpt>
      <trkpt lat="42.757597994059324" lon="-3.507827986031771">
        <ele>693.25</ele>
        <time>2025-04-28T09:22:13Z</time>
      </trkpt>
      <trkpt lat="42.757849032059312" lon="-3.508067037910223">
        <ele>693.73000000000002</ele>
        <time>2025-04-28T09:22:15Z</time>
      </trkpt>
      <trkpt lat="42.757965037599206" lon="-3.50821296684444">
        <ele>693.25</ele>
        <time>2025-04-28T09:22:16Z</time>
      </trkpt>
      <trkpt lat="42.758199982345104" lon="-3.508510021492839">
        <ele>693.25</ele>
        <time>2025-04-28T09:22:18Z</time>
      </trkpt>
      <trkpt lat="42.758331997320056" lon="-3.508631978183985">
        <ele>692.76999999999998</ele>
        <time>2025-04-28T09:22:19Z</time>
      </trkpt>
      <trkpt lat="42.758838012814522" lon="-3.509087031707168">
        <ele>692.28999999999996</ele>
        <time>2025-04-28T09:22:23Z</time>
      </trkpt>
      <trkpt lat="42.758928034454584" lon="-3.509236983954907">
        <ele>691.80999999999995</ele>
        <time>2025-04-28T09:22:24Z</time>
      </trkpt>
      <trkpt lat="42.759852977469563" lon="-3.511174963787198">
        <ele>690.36000000000001</ele>
        <time>2025-04-28T09:22:35Z</time>
      </trkpt>
      <trkpt lat="42.760180961340666" lon="-3.511913996189833">
        <ele>688.91999999999996</ele>
        <time>2025-04-28T09:22:39Z</time>
      </trkpt>
      <trkpt lat="42.760298978537321" lon="-3.512062020599842">
        <ele>688.91999999999996</ele>
        <time>2025-04-28T09:22:40Z</time>
      </trkpt>
      <trkpt lat="42.760415989905596" lon="-3.51220803335309">
        <ele>688.91999999999996</ele>
        <time>2025-04-28T09:22:41Z</time>
      </trkpt>
      <trkpt lat="42.761074975132942" lon="-3.513053013011813">
        <ele>692.28999999999996</ele>
        <time>2025-04-28T09:22:47Z</time>
      </trkpt>
      <trkpt lat="42.761175977066159" lon="-3.513201959431171">
        <ele>692.28999999999996</ele>
        <time>2025-04-28T09:22:48Z</time>
      </trkpt>
      <trkpt lat="42.761216964572668" lon="-3.513399017974734">
        <ele>692.76999999999998</ele>
        <time>2025-04-28T09:22:49Z</time>
      </trkpt>
      <trkpt lat="42.761260969564319" lon="-3.513617031276226">
        <ele>693.25</ele>
        <time>2025-04-28T09:22:50Z</time>
      </trkpt>
      <trkpt lat="42.761307992041111" lon="-3.51384200155735">
        <ele>693.25</ele>
        <time>2025-04-28T09:22:51Z</time>
      </trkpt>
      <trkpt lat="42.761710993945599" lon="-3.51575399748981">
        <ele>697.09000000000003</ele>
        <time>2025-04-28T09:22:59Z</time>
      </trkpt>
      <trkpt lat="42.761807972565293" lon="-3.515967987477779">
        <ele>697.57000000000005</ele>
        <time>2025-04-28T09:23:00Z</time>
      </trkpt>
      <trkpt lat="42.762450026348233" lon="-3.517267014831305">
        <ele>699.98000000000002</ele>
        <time>2025-04-28T09:23:06Z</time>
      </trkpt>
      <trkpt lat="42.762643983587623" lon="-3.517977967858315">
        <ele>700.46000000000004</ele>
        <time>2025-04-28T09:23:09Z</time>
      </trkpt>
      <trkpt lat="42.76270198635757" lon="-3.518192041665316">
        <ele>700.94000000000005</ele>
        <time>2025-04-28T09:23:10Z</time>
      </trkpt>
      <trkpt lat="42.762806005775928" lon="-3.518368983641267">
        <ele>700.94000000000005</ele>
        <time>2025-04-28T09:23:11Z</time>
      </trkpt>
      <trkpt lat="42.762923017144203" lon="-3.518533017486334">
        <ele>701.41999999999996</ele>
        <time>2025-04-28T09:23:12Z</time>
      </trkpt>
      <trkpt lat="42.76304698549211" lon="-3.518707025796175">
        <ele>701.41999999999996</ele>
        <time>2025-04-28T09:23:13Z</time>
      </trkpt>
      <trkpt lat="42.763660037890077" lon="-3.519569020718336">
        <ele>703.34000000000003</ele>
        <time>2025-04-28T09:23:18Z</time>
      </trkpt>
      <trkpt lat="42.763748969882727" lon="-3.519745040684938">
        <ele>704.29999999999995</ele>
        <time>2025-04-28T09:23:19Z</time>
      </trkpt>
      <trkpt lat="42.763808984309435" lon="-3.519956013187766">
        <ele>705.25999999999999</ele>
        <time>2025-04-28T09:23:20Z</time>
      </trkpt>
      <trkpt lat="42.763866987079382" lon="-3.52017997764051">
        <ele>706.23000000000002</ele>
        <time>2025-04-28T09:23:21Z</time>
      </trkpt>
      <trkpt lat="42.763910992071033" lon="-3.520409977063537">
        <ele>707.19000000000005</ele>
        <time>2025-04-28T09:23:22Z</time>
      </trkpt>
      <trkpt lat="42.763954997062683" lon="-3.520636036992073">
        <ele>708.14999999999998</ele>
        <time>2025-04-28T09:23:23Z</time>
      </trkpt>
      <trkpt lat="42.763961032032967" lon="-3.5208660364151">
        <ele>709.11000000000001</ele>
        <time>2025-04-28T09:23:24Z</time>
      </trkpt>
      <trkpt lat="42.764006964862347" lon="-3.521814029663801">
        <ele>712.47000000000003</ele>
        <time>2025-04-28T09:23:28Z</time>
      </trkpt>
      <trkpt lat="42.764023980125785" lon="-3.522028019651771">
        <ele>712.95000000000005</ele>
        <time>2025-04-28T09:23:29Z</time>
      </trkpt>
      <trkpt lat="42.764090029522777" lon="-3.522226000204682">
        <ele>713.44000000000005</ele>
        <time>2025-04-28T09:23:30Z</time>
      </trkpt>
      <trkpt lat="42.764151971787214" lon="-3.522400008514524">
        <ele>713.91999999999996</ele>
        <time>2025-04-28T09:23:31Z</time>
      </trkpt>
      <trkpt lat="42.764278035610914" lon="-3.522498998790979">
        <ele>713.91999999999996</ele>
        <time>2025-04-28T09:23:32Z</time>
      </trkpt>
      <trkpt lat="42.764374008402228" lon="-3.522570999339223">
        <ele>714.88</ele>
        <time>2025-04-28T09:23:33Z</time>
      </trkpt>
      <trkpt lat="42.7644859906286" lon="-3.52260896936059">
        <ele>715.36000000000001</ele>
        <time>2025-04-28T09:23:34Z</time>
      </trkpt>
      <trkpt lat="42.76463401503861" lon="-3.522630007937551">
        <ele>716.32000000000005</ele>
        <time>2025-04-28T09:23:35Z</time>
      </trkpt>
      <trkpt lat="42.764792013913393" lon="-3.522652974352241">
        <ele>716.79999999999995</ele>
        <time>2025-04-28T09:23:36Z</time>
      </trkpt>
      <trkpt lat="42.765099965035915" lon="-3.522710977122188">
        <ele>718.24000000000001</ele>
        <time>2025-04-28T09:23:38Z</time>
      </trkpt>
      <trkpt lat="42.765250001102686" lon="-3.522765040397644">
        <ele>718.72000000000003</ele>
        <time>2025-04-28T09:23:39Z</time>
      </trkpt>
      <trkpt lat="42.765387967228889" lon="-3.522860007360578">
        <ele>718.72000000000003</ele>
        <time>2025-04-28T09:23:40Z</time>
      </trkpt>
      <trkpt lat="42.765769008547068" lon="-3.523204000666738">
        <ele>719.20000000000005</ele>
        <time>2025-04-28T09:23:43Z</time>
      </trkpt>
      <trkpt lat="42.765847966074944" lon="-3.523357976227999">
        <ele>719.20000000000005</ele>
        <time>2025-04-28T09:23:44Z</time>
      </trkpt>
      <trkpt lat="42.765914015471935" lon="-3.523499965667725">
        <ele>718.72000000000003</ele>
        <time>2025-04-28T09:23:45Z</time>
      </trkpt>
      <trkpt lat="42.765918960794806" lon="-3.523676991462708">
        <ele>718.72000000000003</ele>
        <time>2025-04-28T09:23:46Z</time>
      </trkpt>
      <trkpt lat="42.76592499576509" lon="-3.52385301142931">
        <ele>718.72000000000003</ele>
        <time>2025-04-28T09:23:47Z</time>
      </trkpt>
      <trkpt lat="42.765931030735373" lon="-3.524033976718783">
        <ele>719.20000000000005</ele>
        <time>2025-04-28T09:23:48Z</time>
      </trkpt>
      <trkpt lat="42.765903035178781" lon="-3.524403031915426">
        <ele>719.20000000000005</ele>
        <time>2025-04-28T09:23:50Z</time>
      </trkpt>
      <trkpt lat="42.765874033793807" lon="-3.524617021903396">
        <ele>719.67999999999995</ele>
        <time>2025-04-28T09:23:51Z</time>
      </trkpt>
      <trkpt lat="42.765734978020191" lon="-3.525715973228216">
        <ele>720.15999999999997</ele>
        <time>2025-04-28T09:23:56Z</time>
      </trkpt>
      <trkpt lat="42.765711005777121" lon="-3.525925017893314">
        <ele>720.64999999999998</ele>
        <time>2025-04-28T09:23:57Z</time>
      </trkpt>
      <trkpt lat="42.765731960535049" lon="-3.526135990396142">
        <ele>720.64999999999998</ele>
        <time>2025-04-28T09:23:58Z</time>
      </trkpt>
      <trkpt lat="42.765791974961758" lon="-3.526327013969421">
        <ele>720.64999999999998</ele>
        <time>2025-04-28T09:23:59Z</time>
      </trkpt>
      <trkpt lat="42.765872022137046" lon="-3.526507979258895">
        <ele>721.13</ele>
        <time>2025-04-28T09:24:00Z</time>
      </trkpt>
      <trkpt lat="42.765972018241882" lon="-3.526662960648537">
        <ele>721.61000000000001</ele>
        <time>2025-04-28T09:24:01Z</time>
      </trkpt>
      <trkpt lat="42.766070002689958" lon="-3.52681702002883">
        <ele>721.61000000000001</ele>
        <time>2025-04-28T09:24:02Z</time>
      </trkpt>
      <trkpt lat="42.766151977702975" lon="-3.526980970054865">
        <ele>721.61000000000001</ele>
        <time>2025-04-28T09:24:03Z</time>
      </trkpt>
      <trkpt lat="42.766193971037865" lon="-3.527150033041835">
        <ele>722.09000000000003</ele>
        <time>2025-04-28T09:24:04Z</time>
      </trkpt>
      <trkpt lat="42.76622598990798" lon="-3.527337033301592">
        <ele>722.09000000000003</ele>
        <time>2025-04-28T09:24:05Z</time>
      </trkpt>
      <trkpt lat="42.766257002949715" lon="-3.527531996369362">
        <ele>722.57000000000005</ele>
        <time>2025-04-28T09:24:06Z</time>
      </trkpt>
      <trkpt lat="42.766241999343038" lon="-3.528609992936254">
        <ele>722.57000000000005</ele>
        <time>2025-04-28T09:24:11Z</time>
      </trkpt>
      <trkpt lat="42.766191959381104" lon="-3.528817025944591">
        <ele>723.04999999999995</ele>
        <time>2025-04-28T09:24:12Z</time>
      </trkpt>
      <trkpt lat="42.766041001304984" lon="-3.529455978423357">
        <ele>723.52999999999997</ele>
        <time>2025-04-28T09:24:15Z</time>
      </trkpt>
      <trkpt lat="42.765845032408834" lon="-3.531129006296396">
        <ele>724.49000000000001</ele>
        <time>2025-04-28T09:24:22Z</time>
      </trkpt>
      <trkpt lat="42.765785017982125" lon="-3.5318040009588">
        <ele>721.61000000000001</ele>
        <time>2025-04-28T09:24:25Z</time>
      </trkpt>
      <trkpt lat="42.765802033245564" lon="-3.532076999545097">
        <ele>720.15999999999997</ele>
        <time>2025-04-28T09:24:26Z</time>
      </trkpt>
      <trkpt lat="42.765817036852241" lon="-3.532311022281647">
        <ele>719.20000000000005</ele>
        <time>2025-04-28T09:24:27Z</time>
      </trkpt>
      <trkpt lat="42.765844026580453" lon="-3.532530041411519">
        <ele>718.24000000000001</ele>
        <time>2025-04-28T09:24:28Z</time>
      </trkpt>
      <trkpt lat="42.76590496301651" lon="-3.532760962843895">
        <ele>717.27999999999997</ele>
        <time>2025-04-28T09:24:29Z</time>
      </trkpt>
      <trkpt lat="42.765964977443218" lon="-3.532988028600812">
        <ele>716.32000000000005</ele>
        <time>2025-04-28T09:24:30Z</time>
      </trkpt>
      <trkpt lat="42.766020968556404" lon="-3.533233031630516">
        <ele>715.36000000000001</ele>
        <time>2025-04-28T09:24:31Z</time>
      </trkpt>
      <trkpt lat="42.766020968556404" lon="-3.533461019396782">
        <ele>714.39999999999998</ele>
        <time>2025-04-28T09:24:32Z</time>
      </trkpt>
      <trkpt lat="42.766020968556404" lon="-3.533685989677906">
        <ele>713.91999999999996</ele>
        <time>2025-04-28T09:24:33Z</time>
      </trkpt>
      <trkpt lat="42.765976041555405" lon="-3.533921018242836">
        <ele>713.44000000000005</ele>
        <time>2025-04-28T09:24:34Z</time>
      </trkpt>
      <trkpt lat="42.765912003815174" lon="-3.534096032381058">
        <ele>713.44000000000005</ele>
        <time>2025-04-28T09:24:35Z</time>
      </trkpt>
      <trkpt lat="42.765805972740054" lon="-3.534249002113938">
        <ele>713.44000000000005</ele>
        <time>2025-04-28T09:24:36Z</time>
      </trkpt>
      <trkpt lat="42.765683010220528" lon="-3.534327959641814">
        <ele>713.44000000000005</ele>
        <time>2025-04-28T09:24:37Z</time>
      </trkpt>
      <trkpt lat="42.765554012730718" lon="-3.534407000988722">
        <ele>713.44000000000005</ele>
        <time>2025-04-28T09:24:38Z</time>
      </trkpt>
      <trkpt lat="42.765433983877301" lon="-3.534459974616766">
        <ele>713.44000000000005</ele>
        <time>2025-04-28T09:24:39Z</time>
      </trkpt>
      <trkpt lat="42.765328958630562" lon="-3.534505991265178">
        <ele>713.91999999999996</ele>
        <time>2025-04-28T09:24:40Z</time>
      </trkpt>
      <trkpt lat="42.765245977789164" lon="-3.534542033448815">
        <ele>714.39999999999998</ele>
        <time>2025-04-28T09:24:41Z</time>
      </trkpt>
      <trkpt lat="42.765236003324389" lon="-3.534649992361665">
        <ele>714.88</ele>
        <time>2025-04-28T09:24:42Z</time>
      </trkpt>
      <trkpt lat="42.765245977789164" lon="-3.534756023436785">
        <ele>715.36000000000001</ele>
        <time>2025-04-28T09:24:43Z</time>
      </trkpt>
      <trkpt lat="42.76525997556746" lon="-3.534893989562988">
        <ele>715.84000000000003</ele>
        <time>2025-04-28T09:24:44Z</time>
      </trkpt>
      <trkpt lat="42.765277996659279" lon="-3.535030027851462">
        <ele>716.79999999999995</ele>
        <time>2025-04-28T09:24:45Z</time>
      </trkpt>
      <trkpt lat="42.765325019136071" lon="-3.535186015069485">
        <ele>717.27999999999997</ele>
        <time>2025-04-28T09:24:46Z</time>
      </trkpt>
      <trkpt lat="42.765512019395828" lon="-3.535808958113194">
        <ele>721.13</ele>
        <time>2025-04-28T09:24:51Z</time>
      </trkpt>
      <trkpt lat="42.765547977760434" lon="-3.535891016945243">
        <ele>722.09000000000003</ele>
        <time>2025-04-28T09:24:52Z</time>
      </trkpt>
      <trkpt lat="42.765602041035891" lon="-3.535970980301499">
        <ele>723.04999999999995</ele>
        <time>2025-04-28T09:24:53Z</time>
      </trkpt>
      <trkpt lat="42.765656020492315" lon="-3.536053039133549">
        <ele>723.52999999999997</ele>
        <time>2025-04-28T09:24:54Z</time>
      </trkpt>
      <trkpt lat="42.765699019655585" lon="-3.536112969741225">
        <ele>724.97000000000003</ele>
        <time>2025-04-28T09:24:55Z</time>
      </trkpt>
      <trkpt lat="42.765735983848572" lon="-3.536165021359921">
        <ele>725.45000000000005</ele>
        <time>2025-04-28T09:24:56Z</time>
      </trkpt>
      <trkpt lat="42.765765991061926" lon="-3.536206008866429">
        <ele>726.40999999999997</ele>
        <time>2025-04-28T09:24:57Z</time>
      </trkpt>
      <trkpt lat="42.765799015760422" lon="-3.536252025514841">
        <ele>733.13999999999999</ele>
        <time>2025-04-28T09:25:05Z</time>
      </trkpt>
      <trkpt lat="42.765799015760422" lon="-3.536252025514841">
        <ele>736.50999999999999</ele>
        <time>2025-04-28T09:25:13Z</time>
      </trkpt>
      <trkpt lat="42.765585025772452" lon="-3.535947008058429">
        <ele>735.54999999999995</ele>
        <time>2025-04-28T09:25:21Z</time>
      </trkpt>
      <trkpt lat="42.765519982203841" lon="-3.535837037488818">
        <ele>735.07000000000005</ele>
        <time>2025-04-28T09:25:22Z</time>
      </trkpt>
      <trkpt lat="42.765478994697332" lon="-3.535697981715202">
        <ele>735.07000000000005</ele>
        <time>2025-04-28T09:25:23Z</time>
      </trkpt>
      <trkpt lat="42.765244971960783" lon="-3.534745965152979">
        <ele>726.88999999999999</ele>
        <time>2025-04-28T09:25:30Z</time>
      </trkpt>
      <trkpt lat="42.76523700915277" lon="-3.53466097265482">
        <ele>725.45000000000005</ele>
        <time>2025-04-28T09:25:31Z</time>
      </trkpt>
      <trkpt lat="42.765230974182487" lon="-3.534592995420098">
        <ele>724.00999999999999</ele>
        <time>2025-04-28T09:25:32Z</time>
      </trkpt>
      <trkpt lat="42.765125026926398" lon="-3.534519989043474">
        <ele>722.09000000000003</ele>
        <time>2025-04-28T09:25:33Z</time>
      </trkpt>
      <trkpt lat="42.765032993629575" lon="-3.534491993486881">
        <ele>720.64999999999998</ele>
        <time>2025-04-28T09:25:34Z</time>
      </trkpt>
      <trkpt lat="42.764916988089681" lon="-3.534457040950656">
        <ele>719.20000000000005</ele>
        <time>2025-04-28T09:25:35Z</time>
      </trkpt>
      <trkpt lat="42.764795031398535" lon="-3.534418987110257">
        <ele>717.75999999999999</ele>
        <time>2025-04-28T09:25:36Z</time>
      </trkpt>
      <trkpt lat="42.764679025858641" lon="-3.534408006817102">
        <ele>716.79999999999995</ele>
        <time>2025-04-28T09:25:37Z</time>
      </trkpt>
      <trkpt lat="42.764582969248295" lon="-3.534422004595399">
        <ele>715.84000000000003</ele>
        <time>2025-04-28T09:25:38Z</time>
      </trkpt>
      <trkpt lat="42.764514992013574" lon="-3.534524012356997">
        <ele>714.88</ele>
        <time>2025-04-28T09:25:39Z</time>
      </trkpt>
      <trkpt lat="42.764452965930104" lon="-3.534635994583368">
        <ele>714.39999999999998</ele>
        <time>2025-04-28T09:25:40Z</time>
      </trkpt>
      <trkpt lat="42.764443997293711" lon="-3.534764992073178">
        <ele>713.91999999999996</ele>
        <time>2025-04-28T09:25:41Z</time>
      </trkpt>
      <trkpt lat="42.764433017000556" lon="-3.534912010654807">
        <ele>713.44000000000005</ele>
        <time>2025-04-28T09:25:42Z</time>
      </trkpt>
      <trkpt lat="42.764432011172175" lon="-3.536550002172589">
        <ele>712.47000000000003</ele>
        <time>2025-04-28T09:25:51Z</time>
      </trkpt>
      <trkpt lat="42.764456989243627" lon="-3.536748988553882">
        <ele>712.47000000000003</ele>
        <time>2025-04-28T09:25:52Z</time>
      </trkpt>
      <trkpt lat="42.764601996168494" lon="-3.537737969309092">
        <ele>713.91999999999996</ele>
        <time>2025-04-28T09:25:57Z</time>
      </trkpt>
      <trkpt lat="42.764623034745455" lon="-3.537925975397229">
        <ele>714.39999999999998</ele>
        <time>2025-04-28T09:25:58Z</time>
      </trkpt>
      <trkpt lat="42.764600990340114" lon="-3.538122028112412">
        <ele>714.88</ele>
        <time>2025-04-28T09:25:59Z</time>
      </trkpt>
      <trkpt lat="42.76448498480022" lon="-3.539407979696989">
        <ele>716.32000000000005</ele>
        <time>2025-04-28T09:26:05Z</time>
      </trkpt>
      <trkpt lat="42.764496970921755" lon="-3.539615012705326">
        <ele>716.79999999999995</ele>
        <time>2025-04-28T09:26:06Z</time>
      </trkpt>
      <trkpt lat="42.764537958428264" lon="-3.539846017956734">
        <ele>717.27999999999997</ele>
        <time>2025-04-28T09:26:07Z</time>
      </trkpt>
      <trkpt lat="42.764744991436601" lon="-3.5414710175246">
        <ele>720.15999999999997</ele>
        <time>2025-04-28T09:26:15Z</time>
      </trkpt>
      <trkpt lat="42.764736022800207" lon="-3.541637985035777">
        <ele>721.13</ele>
        <time>2025-04-28T09:26:16Z</time>
      </trkpt>
      <trkpt lat="42.764666033908725" lon="-3.541788021102548">
        <ele>722.09000000000003</ele>
        <time>2025-04-28T09:26:17Z</time>
      </trkpt>
      <trkpt lat="42.764586992561817" lon="-3.54192104190588">
        <ele>723.52999999999997</ele>
        <time>2025-04-28T09:26:18Z</time>
      </trkpt>
      <trkpt lat="42.764504011720419" lon="-3.542061019688845">
        <ele>724.49000000000001</ele>
        <time>2025-04-28T09:26:19Z</time>
      </trkpt>
      <trkpt lat="42.764421030879021" lon="-3.542200997471809">
        <ele>725.45000000000005</ele>
        <time>2025-04-28T09:26:20Z</time>
      </trkpt>
      <trkpt lat="42.764319023117423" lon="-3.542309040203691">
        <ele>726.40999999999997</ele>
        <time>2025-04-28T09:26:21Z</time>
      </trkpt>
      <trkpt lat="42.764217015355825" lon="-3.542386991903186">
        <ele>727.86000000000001</ele>
        <time>2025-04-28T09:26:22Z</time>
      </trkpt>
      <trkpt lat="42.764110984280705" lon="-3.542468966916204">
        <ele>729.29999999999995</ele>
        <time>2025-04-28T09:26:23Z</time>
      </trkpt>
      <trkpt lat="42.764031020924449" lon="-3.542438959702849">
        <ele>730.25999999999999</ele>
        <time>2025-04-28T09:26:24Z</time>
      </trkpt>
      <trkpt lat="42.763931024819613" lon="-3.54239696636796">
        <ele>731.22000000000003</ele>
        <time>2025-04-28T09:26:25Z</time>
      </trkpt>
      <trkpt lat="42.763833962380886" lon="-3.542319014668465">
        <ele>732.17999999999995</ele>
        <time>2025-04-28T09:26:26Z</time>
      </trkpt>
      <trkpt lat="42.76373103260994" lon="-3.542236033827066">
        <ele>732.65999999999997</ele>
        <time>2025-04-28T09:26:27Z</time>
      </trkpt>
      <trkpt lat="42.763622989878058" lon="-3.542148023843765">
        <ele>733.62</ele>
        <time>2025-04-28T09:26:28Z</time>
      </trkpt>
      <trkpt lat="42.763397013768554" lon="-3.541965968906879">
        <ele>735.07000000000005</ele>
        <time>2025-04-28T09:26:30Z</time>
      </trkpt>
      <trkpt lat="42.763312021270394" lon="-3.54183797724545">
        <ele>736.02999999999997</ele>
        <time>2025-04-28T09:26:31Z</time>
      </trkpt>
      <trkpt lat="42.763232979923487" lon="-3.541689030826092">
        <ele>736.99000000000001</ele>
        <time>2025-04-28T09:26:32Z</time>
      </trkpt>
      <trkpt lat="42.763169026002288" lon="-3.541523991152644">
        <ele>737.47000000000003</ele>
        <time>2025-04-28T09:26:33Z</time>
      </trkpt>
      <trkpt lat="42.763102976605296" lon="-3.541353000327945">
        <ele>738.42999999999995</ele>
        <time>2025-04-28T09:26:34Z</time>
      </trkpt>
      <trkpt lat="42.762882029637694" lon="-3.540831981226802">
        <ele>740.35000000000002</ele>
        <time>2025-04-28T09:26:37Z</time>
      </trkpt>
      <trkpt lat="42.762792007997632" lon="-3.540660990402103">
        <ele>741.30999999999995</ele>
        <time>2025-04-28T09:26:38Z</time>
      </trkpt>
      <trkpt lat="42.762697041034698" lon="-3.540494022890925">
        <ele>742.27999999999997</ele>
        <time>2025-04-28T09:26:39Z</time>
      </trkpt>
      <trkpt lat="42.76257399469614" lon="-3.540359996259213">
        <ele>743.24000000000001</ele>
        <time>2025-04-28T09:26:40Z</time>
      </trkpt>
      <trkpt lat="42.762451032176614" lon="-3.54022404178977">
        <ele>744.20000000000005</ele>
        <time>2025-04-28T09:26:41Z</time>
      </trkpt>
      <trkpt lat="42.7620580047369" lon="-3.539852974936366">
        <ele>746.60000000000002</ele>
        <time>2025-04-28T09:26:44Z</time>
      </trkpt>
      <trkpt lat="42.761904029175639" lon="-3.539780974388123">
        <ele>747.55999999999995</ele>
        <time>2025-04-28T09:26:45Z</time>
      </trkpt>
      <trkpt lat="42.761750975623727" lon="-3.539721965789795">
        <ele>748.03999999999996</ele>
        <time>2025-04-28T09:26:46Z</time>
      </trkpt>
      <trkpt lat="42.761571016162634" lon="-3.53973101824522">
        <ele>748.51999999999998</ele>
        <time>2025-04-28T09:26:47Z</time>
      </trkpt>
      <trkpt lat="42.761397007852793" lon="-3.539738981053233">
        <ele>749.49000000000001</ele>
        <time>2025-04-28T09:26:48Z</time>
      </trkpt>
      <trkpt lat="42.760092029348016" lon="-3.539706962183118">
        <ele>757.17999999999995</ele>
        <time>2025-04-28T09:26:55Z</time>
      </trkpt>
      <trkpt lat="42.759924978017807" lon="-3.539726994931698">
        <ele>757.17999999999995</ele>
        <time>2025-04-28T09:26:56Z</time>
      </trkpt>
      <trkpt lat="42.759763961657882" lon="-3.539783991873264">
        <ele>758.13999999999999</ele>
        <time>2025-04-28T09:26:57Z</time>
      </trkpt>
      <trkpt lat="42.759605040773749" lon="-3.539875019341707">
        <ele>759.10000000000002</ele>
        <time>2025-04-28T09:26:58Z</time>
      </trkpt>
      <trkpt lat="42.759444024413824" lon="-3.53996797464788">
        <ele>760.53999999999996</ele>
        <time>2025-04-28T09:26:59Z</time>
      </trkpt>
      <trkpt lat="42.758852010592818" lon="-3.540280032902956">
        <ele>766.30999999999995</ele>
        <time>2025-04-28T09:27:03Z</time>
      </trkpt>
      <trkpt lat="42.758713038638234" lon="-3.540261005982757">
        <ele>767.75</ele>
        <time>2025-04-28T09:27:04Z</time>
      </trkpt>
      <trkpt lat="42.758557973429561" lon="-3.540239967405796">
        <ele>768.71000000000004</ele>
        <time>2025-04-28T09:27:05Z</time>
      </trkpt>
      <trkpt lat="42.758398968726397" lon="-3.540218006819487">
        <ele>769.66999999999996</ele>
        <time>2025-04-28T09:27:06Z</time>
      </trkpt>
      <trkpt lat="42.75825597345829" lon="-3.540243990719318">
        <ele>770.63</ele>
        <time>2025-04-28T09:27:07Z</time>
      </trkpt>
      <trkpt lat="42.758112978190184" lon="-3.540278021246195">
        <ele>771.60000000000002</ele>
        <time>2025-04-28T09:27:08Z</time>
      </trkpt>
      <trkpt lat="42.757982974871993" lon="-3.540344992652535">
        <ele>772.08000000000004</ele>
        <time>2025-04-28T09:27:09Z</time>
      </trkpt>
      <trkpt lat="42.757854983210564" lon="-3.540424033999443">
        <ele>773.03999999999996</ele>
        <time>2025-04-28T09:27:10Z</time>
      </trkpt>
      <trkpt lat="42.757744006812572" lon="-3.540572980418801">
        <ele>774.48000000000002</ele>
        <time>2025-04-28T09:27:11Z</time>
      </trkpt>
      <trkpt lat="42.757640993222594" lon="-3.540729973465204">
        <ele>775.91999999999996</ele>
        <time>2025-04-28T09:27:12Z</time>
      </trkpt>
      <trkpt lat="42.757549965754151" lon="-3.540902975946665">
        <ele>776.88</ele>
        <time>2025-04-28T09:27:13Z</time>
      </trkpt>
      <trkpt lat="42.757457010447979" lon="-3.54108301922679">
        <ele>778.32000000000005</ele>
        <time>2025-04-28T09:27:14Z</time>
      </trkpt>
      <trkpt lat="42.75717998854816" lon="-3.541596997529268">
        <ele>782.16999999999996</ele>
        <time>2025-04-28T09:27:17Z</time>
      </trkpt>
      <trkpt lat="42.757073035463691" lon="-3.541738986968994">
        <ele>783.13</ele>
        <time>2025-04-28T09:27:18Z</time>
      </trkpt>
      <trkpt lat="42.75694596581161" lon="-3.54181501083076">
        <ele>784.57000000000005</ele>
        <time>2025-04-28T09:27:19Z</time>
      </trkpt>
      <trkpt lat="42.756801964715123" lon="-3.541875025257468">
        <ele>785.04999999999995</ele>
        <time>2025-04-28T09:27:20Z</time>
      </trkpt>
      <trkpt lat="42.756648994982243" lon="-3.541895980015397">
        <ele>786.01999999999998</ele>
        <time>2025-04-28T09:27:21Z</time>
      </trkpt>
      <trkpt lat="42.756334003061056" lon="-3.541953982785344">
        <ele>787.94000000000005</ele>
        <time>2025-04-28T09:27:23Z</time>
      </trkpt>
      <trkpt lat="42.756174998357892" lon="-3.542021038010716">
        <ele>788.89999999999998</ele>
        <time>2025-04-28T09:27:24Z</time>
      </trkpt>
      <trkpt lat="42.755345022305846" lon="-3.542364025488496">
        <ele>793.22000000000003</ele>
        <time>2025-04-28T09:27:29Z</time>
      </trkpt>
      <trkpt lat="42.753952033817768" lon="-3.542438959702849">
        <ele>802.84000000000003</ele>
        <time>2025-04-28T09:27:37Z</time>
      </trkpt>
      <trkpt lat="42.753364965319633" lon="-3.542319014668465">
        <ele>808.61000000000001</ele>
        <time>2025-04-28T09:27:41Z</time>
      </trkpt>
      <trkpt lat="42.752981996163726" lon="-3.542334018275142">
        <ele>810.04999999999995</ele>
        <time>2025-04-28T09:27:44Z</time>
      </trkpt>
      <trkpt lat="42.752846041694283" lon="-3.542275009676814">
        <ele>810.04999999999995</ele>
        <time>2025-04-28T09:27:45Z</time>
      </trkpt>
      <trkpt lat="42.752664992585778" lon="-3.542124973610044">
        <ele>809.57000000000005</ele>
        <time>2025-04-28T09:27:47Z</time>
      </trkpt>
      <trkpt lat="42.752571031451225" lon="-3.542046016082168">
        <ele>809.57000000000005</ele>
        <time>2025-04-28T09:27:48Z</time>
      </trkpt>
      <trkpt lat="42.752459971234202" lon="-3.541953982785344">
        <ele>809.09000000000003</ele>
        <time>2025-04-28T09:27:49Z</time>
      </trkpt>
      <trkpt lat="42.752414038404822" lon="-3.541830014437437">
        <ele>809.09000000000003</ele>
        <time>2025-04-28T09:27:50Z</time>
      </trkpt>
      <trkpt lat="42.752359975129366" lon="-3.541684001684189">
        <ele>808.61000000000001</ele>
        <time>2025-04-28T09:27:51Z</time>
      </trkpt>
      <trkpt lat="42.752054035663605" lon="-3.540877997875214">
        <ele>804.75999999999999</ele>
        <time>2025-04-28T09:27:57Z</time>
      </trkpt>
      <trkpt lat="42.751982035115361" lon="-3.54078495875001">
        <ele>803.79999999999995</ele>
        <time>2025-04-28T09:27:58Z</time>
      </trkpt>
      <trkpt lat="42.751907017081976" lon="-3.540700972080231">
        <ele>803.32000000000005</ele>
        <time>2025-04-28T09:27:59Z</time>
      </trkpt>
      <trkpt lat="42.751806015148759" lon="-3.540674988180399">
        <ele>802.36000000000001</ele>
        <time>2025-04-28T09:28:00Z</time>
      </trkpt>
      <trkpt lat="42.751686992123723" lon="-3.540709018707275">
        <ele>801.39999999999998</ele>
        <time>2025-04-28T09:28:01Z</time>
      </trkpt>
      <trkpt lat="42.751620020717382" lon="-3.540757969021797">
        <ele>800.44000000000005</ele>
        <time>2025-04-28T09:28:02Z</time>
      </trkpt>
      <trkpt lat="42.751029012724757" lon="-3.541217967867851">
        <ele>795.63</ele>
        <time>2025-04-28T09:28:08Z</time>
      </trkpt>
      <trkpt lat="42.750951983034611" lon="-3.541316958144307">
        <ele>795.14999999999998</ele>
        <time>2025-04-28T09:28:09Z</time>
      </trkpt>
      <trkpt lat="42.750888029113412" lon="-3.541402034461498">
        <ele>794.66999999999996</ele>
        <time>2025-04-28T09:28:10Z</time>
      </trkpt>
      <trkpt lat="42.750829020515084" lon="-3.541480991989374">
        <ele>794.19000000000005</ele>
        <time>2025-04-28T09:28:11Z</time>
      </trkpt>
      <trkpt lat="42.750764982774854" lon="-3.541565984487534">
        <ele>793.71000000000004</ele>
        <time>2025-04-28T09:28:12Z</time>
      </trkpt>
      <trkpt lat="42.750693988054991" lon="-3.541623987257481">
        <ele>793.22000000000003</ele>
        <time>2025-04-28T09:28:13Z</time>
      </trkpt>
      <trkpt lat="42.750617964193225" lon="-3.541657011955977">
        <ele>793.22000000000003</ele>
        <time>2025-04-28T09:28:14Z</time>
      </trkpt>
      <trkpt lat="42.75052098557353" lon="-3.541666986420751">
        <ele>793.22000000000003</ele>
        <time>2025-04-28T09:28:15Z</time>
      </trkpt>
      <trkpt lat="42.750429036095738" lon="-3.541671009734273">
        <ele>793.71000000000004</ele>
        <time>2025-04-28T09:28:16Z</time>
      </trkpt>
      <trkpt lat="42.750331973657012" lon="-3.541645025834441">
        <ele>793.71000000000004</ele>
        <time>2025-04-28T09:28:17Z</time>
      </trkpt>
      <trkpt lat="42.750233989208937" lon="-3.541618036106229">
        <ele>794.19000000000005</ele>
        <time>2025-04-28T09:28:18Z</time>
      </trkpt>
      <trkpt lat="42.749821012839675" lon="-3.541504964232445">
        <ele>794.19000000000005</ele>
        <time>2025-04-28T09:28:22Z</time>
      </trkpt>
      <trkpt lat="42.74972696788609" lon="-3.541474035009742">
        <ele>794.66999999999996</ele>
        <time>2025-04-28T09:28:23Z</time>
      </trkpt>
      <trkpt lat="42.749644992873073" lon="-3.541391976177692">
        <ele>794.66999999999996</ele>
        <time>2025-04-28T09:28:24Z</time>
      </trkpt>
      <trkpt lat="42.749555977061391" lon="-3.541303966194391">
        <ele>794.66999999999996</ele>
        <time>2025-04-28T09:28:25Z</time>
      </trkpt>
      <trkpt lat="42.749463021755219" lon="-3.541210005059838">
        <ele>794.19000000000005</ele>
        <time>2025-04-28T09:28:26Z</time>
      </trkpt>
      <trkpt lat="42.749367970973253" lon="-3.541115038096905">
        <ele>793.71000000000004</ele>
        <time>2025-04-28T09:28:27Z</time>
      </trkpt>
      <trkpt lat="42.749270992353559" lon="-3.541014958173037">
        <ele>793.22000000000003</ele>
        <time>2025-04-28T09:28:28Z</time>
      </trkpt>
      <trkpt lat="42.749180970713496" lon="-3.540904987603426">
        <ele>792.74000000000001</ele>
        <time>2025-04-28T09:28:29Z</time>
      </trkpt>
      <trkpt lat="42.749091032892466" lon="-3.540796022862196">
        <ele>792.25999999999999</ele>
        <time>2025-04-28T09:28:30Z</time>
      </trkpt>
      <trkpt lat="42.7489959821105" lon="-3.540680017322302">
        <ele>792.25999999999999</ele>
        <time>2025-04-28T09:28:31Z</time>
      </trkpt>
      <trkpt lat="42.748698005452752" lon="-3.540306016802788">
        <ele>791.29999999999995</ele>
        <time>2025-04-28T09:28:34Z</time>
      </trkpt>
      <trkpt lat="42.748631034046412" lon="-3.54013997130096">
        <ele>791.29999999999995</ele>
        <time>2025-04-28T09:28:35Z</time>
      </trkpt>
      <trkpt lat="42.74856498464942" lon="-3.539975015446544">
        <ele>790.82000000000005</ele>
        <time>2025-04-28T09:28:36Z</time>
      </trkpt>
      <trkpt lat="42.74850002489984" lon="-3.539811987429857">
        <ele>790.82000000000005</ele>
        <time>2025-04-28T09:28:37Z</time>
      </trkpt>
      <trkpt lat="42.74843598715961" lon="-3.539650971069932">
        <ele>790.34000000000003</ele>
        <time>2025-04-28T09:28:38Z</time>
      </trkpt>
      <trkpt lat="42.748249992728233" lon="-3.539186026901007">
        <ele>790.34000000000003</ele>
        <time>2025-04-28T09:28:41Z</time>
      </trkpt>
      <trkpt lat="42.748219985514879" lon="-3.53900296613574">
        <ele>789.86000000000001</ele>
        <time>2025-04-28T09:28:42Z</time>
      </trkpt>
      <trkpt lat="42.748191989958286" lon="-3.538274997845292">
        <ele>789.86000000000001</ele>
        <time>2025-04-28T09:28:46Z</time>
      </trkpt>
      <trkpt lat="42.748160976916552" lon="-3.538140971213579">
        <ele>790.34000000000003</ele>
        <time>2025-04-28T09:28:47Z</time>
      </trkpt>
      <trkpt lat="42.748098028823733" lon="-3.538014991208911">
        <ele>790.34000000000003</ele>
        <time>2025-04-28T09:28:48Z</time>
      </trkpt>
      <trkpt lat="42.748010018840432" lon="-3.537893034517765">
        <ele>790.82000000000005</ele>
        <time>2025-04-28T09:28:49Z</time>
      </trkpt>
      <trkpt lat="42.747908011078835" lon="-3.537763031199575">
        <ele>790.82000000000005</ele>
        <time>2025-04-28T09:28:50Z</time>
      </trkpt>
      <trkpt lat="42.747010979801416" lon="-3.536656033247709">
        <ele>791.29999999999995</ele>
        <time>2025-04-28T09:28:58Z</time>
      </trkpt>
      <trkpt lat="42.746905032545328" lon="-3.536562994122505">
        <ele>791.29999999999995</ele>
        <time>2025-04-28T09:28:59Z</time>
      </trkpt>
      <trkpt lat="42.746782992035151" lon="-3.53652804158628">
        <ele>791.29999999999995</ele>
        <time>2025-04-28T09:29:00Z</time>
      </trkpt>
      <trkpt lat="42.746651982888579" lon="-3.536562994122505">
        <ele>791.29999999999995</ele>
        <time>2025-04-28T09:29:01Z</time>
      </trkpt>
      <trkpt lat="42.746507981792092" lon="-3.536609010770917">
        <ele>790.82000000000005</ele>
        <time>2025-04-28T09:29:02Z</time>
      </trkpt>
      <trkpt lat="42.746365992352366" lon="-3.536654021590948">
        <ele>790.34000000000003</ele>
        <time>2025-04-28T09:29:03Z</time>
      </trkpt>
      <trkpt lat="42.746193995699286" lon="-3.536641029641032">
        <ele>789.86000000000001</ele>
        <time>2025-04-28T09:29:04Z</time>
      </trkpt>
      <trkpt lat="42.746034990996122" lon="-3.536629965528846">
        <ele>788.41999999999996</ele>
        <time>2025-04-28T09:29:05Z</time>
      </trkpt>
      <trkpt lat="42.745881015434861" lon="-3.536623008549213">
        <ele>787.46000000000004</ele>
        <time>2025-04-28T09:29:06Z</time>
      </trkpt>
      <trkpt lat="42.745569963008165" lon="-3.536632983013988">
        <ele>785.04999999999995</ele>
        <time>2025-04-28T09:29:08Z</time>
      </trkpt>
      <trkpt lat="42.745417999103665" lon="-3.536709006875753">
        <ele>783.61000000000001</ele>
        <time>2025-04-28T09:29:09Z</time>
      </trkpt>
      <trkpt lat="42.745270980522037" lon="-3.536782013252378">
        <ele>781.69000000000005</ele>
        <time>2025-04-28T09:29:10Z</time>
      </trkpt>
      <trkpt lat="42.745110969990492" lon="-3.536858959123492">
        <ele>780.25</ele>
        <time>2025-04-28T09:29:11Z</time>
      </trkpt>
      <trkpt lat="42.744965963065624" lon="-3.536928026005626">
        <ele>778.80999999999995</ele>
        <time>2025-04-28T09:29:12Z</time>
      </trkpt>
      <trkpt lat="42.744821039959788" lon="-3.536997009068728">
        <ele>777.84000000000003</ele>
        <time>2025-04-28T09:29:13Z</time>
      </trkpt>
      <trkpt lat="42.744666980579495" lon="-3.537014024332166">
        <ele>777.36000000000001</ele>
        <time>2025-04-28T09:29:14Z</time>
      </trkpt>
      <trkpt lat="42.744507975876331" lon="-3.537031961604953">
        <ele>775.91999999999996</ele>
        <time>2025-04-28T09:29:15Z</time>
      </trkpt>
      <trkpt lat="42.74420103058219" lon="-3.537008995190263">
        <ele>774.48000000000002</ele>
        <time>2025-04-28T09:29:17Z</time>
      </trkpt>
      <trkpt lat="42.744050994515419" lon="-3.53695803321898">
        <ele>774</ele>
        <time>2025-04-28T09:29:18Z</time>
      </trkpt>
      <trkpt lat="42.743905987590551" lon="-3.536865999922156">
        <ele>773.51999999999998</ele>
        <time>2025-04-28T09:29:19Z</time>
      </trkpt>
      <trkpt lat="42.743757041171193" lon="-3.536772038787603">
        <ele>773.03999999999996</ele>
        <time>2025-04-28T09:29:20Z</time>
      </trkpt>
      <trkpt lat="42.743604993447661" lon="-3.536674976348877">
        <ele>772.55999999999995</ele>
        <time>2025-04-28T09:29:21Z</time>
      </trkpt>
      <trkpt lat="42.742393976077437" lon="-3.535823961719871">
        <ele>773.51999999999998</ele>
        <time>2025-04-28T09:29:29Z</time>
      </trkpt>
      <trkpt lat="42.741972031071782" lon="-3.535492960363627">
        <ele>776.39999999999998</ele>
        <time>2025-04-28T09:29:32Z</time>
      </trkpt>
      <trkpt lat="42.741720993071795" lon="-3.535244017839432">
        <ele>778.80999999999995</ele>
        <time>2025-04-28T09:29:34Z</time>
      </trkpt>
      <trkpt lat="42.741573974490166" lon="-3.535174028947949">
        <ele>779.76999999999998</ele>
        <time>2025-04-28T09:29:35Z</time>
      </trkpt>
      <trkpt lat="42.741427961736917" lon="-3.535104962065816">
        <ele>781.21000000000004</ele>
        <time>2025-04-28T09:29:36Z</time>
      </trkpt>
      <trkpt lat="42.741272980347276" lon="-3.535008989274502">
        <ele>783.13</ele>
        <time>2025-04-28T09:29:37Z</time>
      </trkpt>
      <trkpt lat="42.741153035312891" lon="-3.534858031198382">
        <ele>784.57000000000005</ele>
        <time>2025-04-28T09:29:38Z</time>
      </trkpt>
      <trkpt lat="42.741032000631094" lon="-3.534706989303231">
        <ele>786.01999999999998</ele>
        <time>2025-04-28T09:29:39Z</time>
      </trkpt>
      <trkpt lat="42.740907026454806" lon="-3.534587966278195">
        <ele>787.46000000000004</ele>
        <time>2025-04-28T09:29:40Z</time>
      </trkpt>
      <trkpt lat="42.740763025358319" lon="-3.534513032063842">
        <ele>788.89999999999998</ele>
        <time>2025-04-28T09:29:41Z</time>
      </trkpt>
      <trkpt lat="42.740622041746974" lon="-3.534439019858837">
        <ele>790.82000000000005</ele>
        <time>2025-04-28T09:29:42Z</time>
      </trkpt>
      <trkpt lat="42.740507964044809" lon="-3.534379005432129">
        <ele>792.74000000000001</ele>
        <time>2025-04-28T09:29:43Z</time>
      </trkpt>
      <trkpt lat="42.740354994311929" lon="-3.534206002950668">
        <ele>794.66999999999996</ele>
        <time>2025-04-28T09:29:44Z</time>
      </trkpt>
      <trkpt lat="42.740222979336977" lon="-3.534055966883898">
        <ele>796.11000000000001</ele>
        <time>2025-04-28T09:29:45Z</time>
      </trkpt>
      <trkpt lat="42.739964984357357" lon="-3.533797971904278">
        <ele>799.47000000000003</ele>
        <time>2025-04-28T09:29:47Z</time>
      </trkpt>
      <trkpt lat="42.739824000746012" lon="-3.533708034083247">
        <ele>800.91999999999996</ele>
        <time>2025-04-28T09:29:48Z</time>
      </trkpt>
      <trkpt lat="42.739681005477905" lon="-3.533617006614804">
        <ele>802.36000000000001</ele>
        <time>2025-04-28T09:29:49Z</time>
      </trkpt>
      <trkpt lat="42.739031994715333" lon="-3.533379966393113">
        <ele>810.52999999999997</ele>
        <time>2025-04-28T09:29:54Z</time>
      </trkpt>
      <trkpt lat="42.73889503441751" lon="-3.533392958343029">
        <ele>811.97000000000003</ele>
        <time>2025-04-28T09:29:55Z</time>
      </trkpt>
      <trkpt lat="42.738750027492642" lon="-3.533440986648202">
        <ele>813.40999999999997</ele>
        <time>2025-04-28T09:29:56Z</time>
      </trkpt>
      <trkpt lat="42.738447021692991" lon="-3.533541988581419">
        <ele>815.34000000000003</ele>
        <time>2025-04-28T09:29:58Z</time>
      </trkpt>
      <trkpt lat="42.738320035859942" lon="-3.533552968874574">
        <ele>816.29999999999995</ele>
        <time>2025-04-28T09:29:59Z</time>
      </trkpt>
      <trkpt lat="42.738199001178145" lon="-3.533533019945025">
        <ele>817.25999999999999</ele>
        <time>2025-04-28T09:30:00Z</time>
      </trkpt>
      <trkpt lat="42.738125994801521" lon="-3.53352103382349">
        <ele>817.74000000000001</ele>
        <time>2025-04-28T09:30:01Z</time>
      </trkpt>
      <trkpt lat="42.738046031445265" lon="-3.533408967778087">
        <ele>818.70000000000005</ele>
        <time>2025-04-28T09:30:02Z</time>
      </trkpt>
      <trkpt lat="42.738012000918388" lon="-3.533322969451547">
        <ele>819.17999999999995</ele>
        <time>2025-04-28T09:30:03Z</time>
      </trkpt>
      <trkpt lat="42.737990040332079" lon="-3.53315700776875">
        <ele>819.17999999999995</ele>
        <time>2025-04-28T09:30:04Z</time>
      </trkpt>
      <trkpt lat="42.737964978441596" lon="-3.532965984195471">
        <ele>819.65999999999997</ele>
        <time>2025-04-28T09:30:05Z</time>
      </trkpt>
      <trkpt lat="42.737906975671649" lon="-3.532539010047913">
        <ele>819.17999999999995</ele>
        <time>2025-04-28T09:30:07Z</time>
      </trkpt>
      <trkpt lat="42.737766997888684" lon="-3.532095020636916">
        <ele>818.70000000000005</ele>
        <time>2025-04-28T09:30:09Z</time>
      </trkpt>
      <trkpt lat="42.737030982971191" lon="-3.530537998303771">
        <ele>813.88999999999999</ele>
        <time>2025-04-28T09:30:17Z</time>
      </trkpt>
      <trkpt lat="42.73689896799624" lon="-3.530424004420638">
        <ele>812.92999999999995</ele>
        <time>2025-04-28T09:30:18Z</time>
      </trkpt>
      <trkpt lat="42.73679100908339" lon="-3.530331971123815">
        <ele>811.97000000000003</ele>
        <time>2025-04-28T09:30:19Z</time>
      </trkpt>
      <trkpt lat="42.736673997715116" lon="-3.530268017202616">
        <ele>811.49000000000001</ele>
        <time>2025-04-28T09:30:20Z</time>
      </trkpt>
      <trkpt lat="42.736537959426641" lon="-3.530239015817642">
        <ele>811.00999999999999</ele>
        <time>2025-04-28T09:30:21Z</time>
      </trkpt>
      <trkpt lat="42.736399993300438" lon="-3.530230969190598">
        <ele>810.52999999999997</ele>
        <time>2025-04-28T09:30:22Z</time>
      </trkpt>
      <trkpt lat="42.736273007467389" lon="-3.530295006930828">
        <ele>810.04999999999995</ele>
        <time>2025-04-28T09:30:23Z</time>
      </trkpt>
      <trkpt lat="42.73614501580596" lon="-3.530358960852027">
        <ele>810.04999999999995</ele>
        <time>2025-04-28T09:30:24Z</time>
      </trkpt>
      <trkpt lat="42.736006965860724" lon="-3.530366001650691">
        <ele>809.09000000000003</ele>
        <time>2025-04-28T09:30:25Z</time>
      </trkpt>
      <trkpt lat="42.735877968370914" lon="-3.530339011922479">
        <ele>809.09000000000003</ele>
        <time>2025-04-28T09:30:26Z</time>
      </trkpt>
      <trkpt lat="42.735746037214994" lon="-3.530275980010629">
        <ele>808.61000000000001</ele>
        <time>2025-04-28T09:30:27Z</time>
      </trkpt>
      <trkpt lat="42.735603963956237" lon="-3.530210014432669">
        <ele>808.61000000000001</ele>
        <time>2025-04-28T09:30:28Z</time>
      </trkpt>
      <trkpt lat="42.735452000051737" lon="-3.53016902692616">
        <ele>808.13</ele>
        <time>2025-04-28T09:30:29Z</time>
      </trkpt>
      <trkpt lat="42.735296012833714" lon="-3.530136002227664">
        <ele>808.13</ele>
        <time>2025-04-28T09:30:30Z</time>
      </trkpt>
      <trkpt lat="42.735148994252086" lon="-3.530051009729505">
        <ele>808.13</ele>
        <time>2025-04-28T09:30:31Z</time>
      </trkpt>
      <trkpt lat="42.735002981498837" lon="-3.529957970604301">
        <ele>808.13</ele>
        <time>2025-04-28T09:30:32Z</time>
      </trkpt>
      <trkpt lat="42.734860992059112" lon="-3.529866021126509">
        <ele>808.13</ele>
        <time>2025-04-28T09:30:33Z</time>
      </trkpt>
      <trkpt lat="42.734725037589669" lon="-3.529779016971588">
        <ele>808.13</ele>
        <time>2025-04-28T09:30:34Z</time>
      </trkpt>
      <trkpt lat="42.734581036493182" lon="-3.529740041121841">
        <ele>807.63999999999999</ele>
        <time>2025-04-28T09:30:35Z</time>
      </trkpt>
      <trkpt lat="42.734443992376328" lon="-3.529733000323176">
        <ele>807.15999999999997</ele>
        <time>2025-04-28T09:30:36Z</time>
      </trkpt>
      <trkpt lat="42.734306026250124" lon="-3.529725959524512">
        <ele>806.67999999999995</ele>
        <time>2025-04-28T09:30:37Z</time>
      </trkpt>
      <trkpt lat="42.734156996011734" lon="-3.529720008373261">
        <ele>806.20000000000005</ele>
        <time>2025-04-28T09:30:38Z</time>
      </trkpt>
      <trkpt lat="42.733830017969012" lon="-3.529707016423345">
        <ele>803.79999999999995</ele>
        <time>2025-04-28T09:30:40Z</time>
      </trkpt>
      <trkpt lat="42.733242027461529" lon="-3.529742974787951">
        <ele>799.47000000000003</ele>
        <time>2025-04-28T09:30:44Z</time>
      </trkpt>
      <trkpt lat="42.733118981122971" lon="-3.529809024184942">
        <ele>798.50999999999999</ele>
        <time>2025-04-28T09:30:45Z</time>
      </trkpt>
      <trkpt lat="42.732991995289922" lon="-3.529883958399296">
        <ele>797.54999999999995</ele>
        <time>2025-04-28T09:30:46Z</time>
      </trkpt>
      <trkpt lat="42.732724025845528" lon="-3.530011028051376">
        <ele>794.19000000000005</ele>
        <time>2025-04-28T09:30:48Z</time>
      </trkpt>
      <trkpt lat="42.73260198533535" lon="-3.529998958110809">
        <ele>792.74000000000001</ele>
        <time>2025-04-28T09:30:49Z</time>
      </trkpt>
      <trkpt lat="42.732500983402133" lon="-3.529931986704469">
        <ele>791.29999999999995</ele>
        <time>2025-04-28T09:30:50Z</time>
      </trkpt>
      <trkpt lat="42.732397969812155" lon="-3.529824027791619">
        <ele>789.86000000000001</ele>
        <time>2025-04-28T09:30:51Z</time>
      </trkpt>
      <trkpt lat="42.732294034212828" lon="-3.529714979231358">
        <ele>788.89999999999998</ele>
        <time>2025-04-28T09:30:52Z</time>
      </trkpt>
      <trkpt lat="42.732193032279611" lon="-3.529609031975269">
        <ele>788.41999999999996</ele>
        <time>2025-04-28T09:30:53Z</time>
      </trkpt>
      <trkpt lat="42.732118014246225" lon="-3.529529990628362">
        <ele>787.46000000000004</ele>
        <time>2025-04-28T09:30:54Z</time>
      </trkpt>
      <trkpt lat="42.731978036463261" lon="-3.529487997293472">
        <ele>786.98000000000002</ele>
        <time>2025-04-28T09:30:55Z</time>
      </trkpt>
      <trkpt lat="42.731859013438225" lon="-3.529468970373273">
        <ele>786.5</ele>
        <time>2025-04-28T09:30:56Z</time>
      </trkpt>
      <trkpt lat="42.731730015948415" lon="-3.529479028657079">
        <ele>785.52999999999997</ele>
        <time>2025-04-28T09:30:57Z</time>
      </trkpt>
      <trkpt lat="42.73158903233707" lon="-3.529492020606995">
        <ele>784.57000000000005</ele>
        <time>2025-04-28T09:30:58Z</time>
      </trkpt>
      <trkpt lat="42.731317039579153" lon="-3.529550023376942">
        <ele>783.13</ele>
        <time>2025-04-28T09:31:00Z</time>
      </trkpt>
      <trkpt lat="42.731192987412214" lon="-3.529598973691464">
        <ele>782.16999999999996</ele>
        <time>2025-04-28T09:31:01Z</time>
      </trkpt>
      <trkpt lat="42.730876989662647" lon="-3.529754960909486">
        <ele>779.28999999999996</ele>
        <time>2025-04-28T09:31:04Z</time>
      </trkpt>
      <trkpt lat="42.730820998549461" lon="-3.52980500087142">
        <ele>777.84000000000003</ele>
        <time>2025-04-28T09:31:05Z</time>
      </trkpt>
      <trkpt lat="42.730743968859315" lon="-3.529872978106141">
        <ele>776.88</ele>
        <time>2025-04-28T09:31:06Z</time>
      </trkpt>
      <trkpt lat="42.730735000222921" lon="-3.529897034168243">
        <ele>775.91999999999996</ele>
        <time>2025-04-28T09:31:07Z</time>
      </trkpt>
      <trkpt lat="42.730800965800881" lon="-3.529972974210978">
        <ele>774.96000000000004</ele>
        <time>2025-04-28T09:31:08Z</time>
      </trkpt>
      <trkpt lat="42.730833990499377" lon="-3.530031982809305">
        <ele>774.48000000000002</ele>
        <time>2025-04-28T09:31:09Z</time>
      </trkpt>
      <trkpt lat="42.730877995491028" lon="-3.530110018327832">
        <ele>773.51999999999998</ele>
        <time>2025-04-28T09:31:10Z</time>
      </trkpt>
      <trkpt lat="42.730938009917736" lon="-3.530218983069062">
        <ele>773.03999999999996</ele>
        <time>2025-04-28T09:31:11Z</time>
      </trkpt>
      <trkpt lat="42.730949996039271" lon="-3.530343035236001">
        <ele>772.55999999999995</ele>
        <time>2025-04-28T09:31:12Z</time>
      </trkpt>
      <trkpt lat="42.730962987989187" lon="-3.53047102689743">
        <ele>772.55999999999995</ele>
        <time>2025-04-28T09:31:13Z</time>
      </trkpt>
      <trkpt lat="42.730975979939103" lon="-3.530602036044002">
        <ele>772.08000000000004</ele>
        <time>2025-04-28T09:31:14Z</time>
      </trkpt>
      <trkpt lat="42.73094798438251" lon="-3.530742013826966">
        <ele>771.60000000000002</ele>
        <time>2025-04-28T09:31:15Z</time>
      </trkpt>
      <trkpt lat="42.730906996876001" lon="-3.530865982174873">
        <ele>771.11000000000001</ele>
        <time>2025-04-28T09:31:16Z</time>
      </trkpt>
      <trkpt lat="42.73086198605597" lon="-3.531001014634967">
        <ele>770.63</ele>
        <time>2025-04-28T09:31:17Z</time>
      </trkpt>
      <trkpt lat="42.730815969407558" lon="-3.53113898076117">
        <ele>769.66999999999996</ele>
        <time>2025-04-28T09:31:18Z</time>
      </trkpt>
      <trkpt lat="42.730637015774846" lon="-3.531500995159149">
        <ele>766.78999999999996</ele>
        <time>2025-04-28T09:31:21Z</time>
      </trkpt>
      <trkpt lat="42.730574989691377" lon="-3.531617000699043">
        <ele>766.30999999999995</ele>
        <time>2025-04-28T09:31:22Z</time>
      </trkpt>
      <trkpt lat="42.730514975264668" lon="-3.531726971268654">
        <ele>765.35000000000002</ele>
        <time>2025-04-28T09:31:23Z</time>
      </trkpt>
      <trkpt lat="42.730477005243301" lon="-3.531836019828916">
        <ele>764.87</ele>
        <time>2025-04-28T09:31:24Z</time>
      </trkpt>
      <trkpt lat="42.730444986373186" lon="-3.531939033418894">
        <ele>764.38999999999999</ele>
        <time>2025-04-28T09:31:25Z</time>
      </trkpt>
      <trkpt lat="42.730341972783208" lon="-3.532367013394833">
        <ele>763.89999999999998</ele>
        <time>2025-04-28T09:31:29Z</time>
      </trkpt>
      <trkpt lat="42.730349013581872" lon="-3.532493999227881">
        <ele>763.89999999999998</ele>
        <time>2025-04-28T09:31:30Z</time>
      </trkpt>
      <trkpt lat="42.730328980833292" lon="-3.533863015472889">
        <ele>767.26999999999998</ele>
        <time>2025-04-28T09:31:38Z</time>
      </trkpt>
      <trkpt lat="42.730228984728456" lon="-3.535566972568631">
        <ele>777.84000000000003</ele>
        <time>2025-04-28T09:31:47Z</time>
      </trkpt>
      <trkpt lat="42.730251029133797" lon="-3.536525024101138">
        <ele>783.13</ele>
        <time>2025-04-28T09:31:52Z</time>
      </trkpt>
      <trkpt lat="42.730218004435301" lon="-3.536674976348877">
        <ele>784.09000000000003</ele>
        <time>2025-04-28T09:31:53Z</time>
      </trkpt>
      <trkpt lat="42.730176011100411" lon="-3.536860970780253">
        <ele>785.04999999999995</ele>
        <time>2025-04-28T09:31:54Z</time>
      </trkpt>
      <trkpt lat="42.730135023593903" lon="-3.537045959383249">
        <ele>786.01999999999998</ele>
        <time>2025-04-28T09:31:55Z</time>
      </trkpt>
      <trkpt lat="42.730094036087394" lon="-3.537229020148516">
        <ele>787.46000000000004</ele>
        <time>2025-04-28T09:31:56Z</time>
      </trkpt>
      <trkpt lat="42.730079032480717" lon="-3.537428006529808">
        <ele>788.89999999999998</ele>
        <time>2025-04-28T09:31:57Z</time>
      </trkpt>
      <trkpt lat="42.730079032480717" lon="-3.537618024274707">
        <ele>790.34000000000003</ele>
        <time>2025-04-28T09:31:58Z</time>
      </trkpt>
      <trkpt lat="42.730079032480717" lon="-3.537803012877703">
        <ele>791.77999999999997</ele>
        <time>2025-04-28T09:31:59Z</time>
      </trkpt>
      <trkpt lat="42.730079032480717" lon="-3.537989007309079">
        <ele>793.22000000000003</ele>
        <time>2025-04-28T09:32:00Z</time>
      </trkpt>
      <trkpt lat="42.730079032480717" lon="-3.538351021707058">
        <ele>796.59000000000003</ele>
        <time>2025-04-28T09:32:02Z</time>
      </trkpt>
      <trkpt lat="42.730056988075376" lon="-3.538503991439939">
        <ele>798.02999999999997</ele>
        <time>2025-04-28T09:32:03Z</time>
      </trkpt>
      <trkpt lat="42.73002203553915" lon="-3.538652015849948">
        <ele>799.95000000000005</ele>
        <time>2025-04-28T09:32:04Z</time>
      </trkpt>
      <trkpt lat="42.729990016669035" lon="-3.53878797031939">
        <ele>801.39999999999998</ele>
        <time>2025-04-28T09:32:05Z</time>
      </trkpt>
      <trkpt lat="42.72997903637588" lon="-3.53891596198082">
        <ele>802.84000000000003</ele>
        <time>2025-04-28T09:32:06Z</time>
      </trkpt>
      <trkpt lat="42.729996973648667" lon="-3.539056023582816">
        <ele>804.27999999999997</ele>
        <time>2025-04-28T09:32:07Z</time>
      </trkpt>
      <trkpt lat="42.730079032480717" lon="-3.540219012647867">
        <ele>813.40999999999997</ele>
        <time>2025-04-28T09:32:13Z</time>
      </trkpt>
      <trkpt lat="42.730028992518783" lon="-3.541015964001417">
        <ele>820.62</ele>
        <time>2025-04-28T09:32:17Z</time>
      </trkpt>
      <trkpt lat="42.729947017505765" lon="-3.541876031085849">
        <ele>829.26999999999998</ele>
        <time>2025-04-28T09:32:22Z</time>
      </trkpt>
      <trkpt lat="42.729932013899088" lon="-3.54207300581038">
        <ele>835.03999999999996</ele>
        <time>2025-04-28T09:32:26Z</time>
      </trkpt>
      <trkpt lat="42.729932013899088" lon="-3.54207300581038">
        <ele>839.85000000000002</ele>
        <time>2025-04-28T09:32:43Z</time>
      </trkpt>
      <trkpt lat="42.729932013899088" lon="-3.54207300581038">
        <ele>839.85000000000002</ele>
        <time>2025-04-28T09:33:07Z</time>
      </trkpt>
      <trkpt lat="42.729928996413946" lon="-3.542104018852115">
        <ele>841.76999999999998</ele>
        <time>2025-04-28T09:33:19Z</time>
      </trkpt>
      <trkpt lat="42.729928996413946" lon="-3.542104018852115">
        <ele>843.21000000000004</ele>
        <time>2025-04-28T09:33:20Z</time>
      </trkpt>
      <trkpt lat="42.729928996413946" lon="-3.542104018852115">
        <ele>844.17999999999995</ele>
        <time>2025-04-28T09:33:21Z</time>
      </trkpt>
      <trkpt lat="42.72995799779892" lon="-3.542126985266805">
        <ele>845.13999999999999</ele>
        <time>2025-04-28T09:33:22Z</time>
      </trkpt>
      <trkpt lat="42.73002102971077" lon="-3.542177025228739">
        <ele>845.62</ele>
        <time>2025-04-28T09:33:23Z</time>
      </trkpt>
      <trkpt lat="42.730113985016942" lon="-3.542251959443092">
        <ele>845.62</ele>
        <time>2025-04-28T09:33:24Z</time>
      </trkpt>
      <trkpt lat="42.730213981121778" lon="-3.542332006618381">
        <ele>846.10000000000002</ele>
        <time>2025-04-28T09:33:25Z</time>
      </trkpt>
      <trkpt lat="42.730310959741473" lon="-3.542409036308527">
        <ele>846.58000000000004</ele>
        <time>2025-04-28T09:33:26Z</time>
      </trkpt>
      <trkpt lat="42.730391006916761" lon="-3.542504003271461">
        <ele>847.05999999999995</ele>
        <time>2025-04-28T09:33:27Z</time>
      </trkpt>
      <trkpt lat="42.730456972494721" lon="-3.542615985497832">
        <ele>848.01999999999998</ele>
        <time>2025-04-28T09:33:28Z</time>
      </trkpt>
      <trkpt lat="42.730518998578191" lon="-3.542735008522868">
        <ele>848.98000000000002</ele>
        <time>2025-04-28T09:33:29Z</time>
      </trkpt>
      <trkpt lat="42.730569038540125" lon="-3.542872974649072">
        <ele>849.94000000000005</ele>
        <time>2025-04-28T09:33:30Z</time>
      </trkpt>
      <trkpt lat="42.730643972754478" lon="-3.543181009590626">
        <ele>851.38</ele>
        <time>2025-04-28T09:33:32Z</time>
      </trkpt>
      <trkpt lat="42.730684038251638" lon="-3.543375972658396">
        <ele>851.38</ele>
        <time>2025-04-28T09:33:33Z</time>
      </trkpt>
      <trkpt lat="42.730726031586528" lon="-3.54357797652483">
        <ele>851.87</ele>
        <time>2025-04-28T09:33:34Z</time>
      </trkpt>
      <trkpt lat="42.730770036578178" lon="-3.54379003867507">
        <ele>851.87</ele>
        <time>2025-04-28T09:33:35Z</time>
      </trkpt>
      <trkpt lat="42.730814963579178" lon="-3.544006962329149">
        <ele>851.87</ele>
        <time>2025-04-28T09:33:36Z</time>
      </trkpt>
      <trkpt lat="42.730913031846285" lon="-3.544234028086066">
        <ele>851.87</ele>
        <time>2025-04-28T09:33:37Z</time>
      </trkpt>
      <trkpt lat="42.73101001046598" lon="-3.544417005032301">
        <ele>851.87</ele>
        <time>2025-04-28T09:33:38Z</time>
      </trkpt>
      <trkpt lat="42.731905030086637" lon="-3.545888029038906">
        <ele>852.83000000000004</ele>
        <time>2025-04-28T09:33:47Z</time>
      </trkpt>
      <trkpt lat="42.732721008360386" lon="-3.547021010890603">
        <ele>859.55999999999995</ele>
        <time>2025-04-28T09:33:55Z</time>
      </trkpt>
      <trkpt lat="42.732878001406789" lon="-3.547460976988077">
        <ele>866.28999999999996</ele>
        <time>2025-04-28T09:33:57Z</time>
      </trkpt>
      <trkpt lat="42.732946984469891" lon="-3.547684019431472">
        <ele>868.21000000000004</ele>
        <time>2025-04-28T09:33:58Z</time>
      </trkpt>
      <trkpt lat="42.733184024691582" lon="-3.548522964119911">
        <ele>870.13</ele>
        <time>2025-04-28T09:34:02Z</time>
      </trkpt>
      <trkpt lat="42.733249990269542" lon="-3.548720022663474">
        <ele>870.13</ele>
        <time>2025-04-28T09:34:03Z</time>
      </trkpt>
      <trkpt lat="42.733316039666533" lon="-3.548919009044766">
        <ele>870.61000000000001</ele>
        <time>2025-04-28T09:34:04Z</time>
      </trkpt>
      <trkpt lat="42.733359038829803" lon="-3.549135010689497">
        <ele>870.61000000000001</ele>
        <time>2025-04-28T09:34:05Z</time>
      </trkpt>
      <trkpt lat="42.733397008851171" lon="-3.549337014555931">
        <ele>870.61000000000001</ele>
        <time>2025-04-28T09:34:06Z</time>
      </trkpt>
      <trkpt lat="42.733431961387396" lon="-3.549525020644069">
        <ele>871.09000000000003</ele>
        <time>2025-04-28T09:34:07Z</time>
      </trkpt>
      <trkpt lat="42.733464986085892" lon="-3.549698023125529">
        <ele>871.57000000000005</ele>
        <time>2025-04-28T09:34:08Z</time>
      </trkpt>
      <trkpt lat="42.733532963320613" lon="-3.549841018393636">
        <ele>872.04999999999995</ele>
        <time>2025-04-28T09:34:09Z</time>
      </trkpt>
      <trkpt lat="42.733609993010759" lon="-3.549985019490123">
        <ele>872.04999999999995</ele>
        <time>2025-04-28T09:34:10Z</time>
      </trkpt>
      <trkpt lat="42.733822977170348" lon="-3.550420962274075">
        <ele>873.00999999999999</ele>
        <time>2025-04-28T09:34:13Z</time>
      </trkpt>
      <trkpt lat="42.733851978555322" lon="-3.550578961148858">
        <ele>873.5</ele>
        <time>2025-04-28T09:34:14Z</time>
      </trkpt>
      <trkpt lat="42.733863964676857" lon="-3.550740983337164">
        <ele>873.98000000000002</ele>
        <time>2025-04-28T09:34:15Z</time>
      </trkpt>
      <trkpt lat="42.733877040445805" lon="-3.550943993031979">
        <ele>874.94000000000005</ele>
        <time>2025-04-28T09:34:17Z</time>
      </trkpt>
      <trkpt lat="42.733946023508906" lon="-3.55101297609508">
        <ele>876.38</ele>
        <time>2025-04-28T09:34:18Z</time>
      </trkpt>
      <trkpt lat="42.734049037098885" lon="-3.551115989685059">
        <ele>877.34000000000003</ele>
        <time>2025-04-28T09:34:19Z</time>
      </trkpt>
      <trkpt lat="42.734075020998716" lon="-3.551127975806594">
        <ele>877.82000000000005</ele>
        <time>2025-04-28T09:34:20Z</time>
      </trkpt>
      <trkpt lat="42.734171999618411" lon="-3.551171980798245">
        <ele>878.29999999999995</ele>
        <time>2025-04-28T09:34:21Z</time>
      </trkpt>
      <trkpt lat="42.734275013208389" lon="-3.551219003275037">
        <ele>879.25999999999999</ele>
        <time>2025-04-28T09:34:22Z</time>
      </trkpt>
      <trkpt lat="42.734391018748283" lon="-3.551271976903081">
        <ele>879.74000000000001</ele>
        <time>2025-04-28T09:34:23Z</time>
      </trkpt>
      <trkpt lat="42.734786979854107" lon="-3.551469035446644">
        <ele>881.66999999999996</ele>
        <time>2025-04-28T09:34:26Z</time>
      </trkpt>
      <trkpt lat="42.734893010929227" lon="-3.551583029329777">
        <ele>882.14999999999998</ele>
        <time>2025-04-28T09:34:27Z</time>
      </trkpt>
      <trkpt lat="42.734995018690825" lon="-3.551691994071007">
        <ele>883.11000000000001</ele>
        <time>2025-04-28T09:34:28Z</time>
      </trkpt>
      <trkpt lat="42.735096020624042" lon="-3.551847981289029">
        <ele>884.07000000000005</ele>
        <time>2025-04-28T09:34:29Z</time>
      </trkpt>
      <trkpt lat="42.735129967331886" lon="-3.551987037062645">
        <ele>884.07000000000005</ele>
        <time>2025-04-28T09:34:30Z</time>
      </trkpt>
      <trkpt lat="42.735114963725209" lon="-3.552156016230583">
        <ele>884.54999999999995</ele>
        <time>2025-04-28T09:34:31Z</time>
      </trkpt>
      <trkpt lat="42.735081017017365" lon="-3.552302028983831">
        <ele>884.54999999999995</ele>
        <time>2025-04-28T09:34:32Z</time>
      </trkpt>
      <trkpt lat="42.735042041167617" lon="-3.552462039515376">
        <ele>885.02999999999997</ele>
        <time>2025-04-28T09:34:33Z</time>
      </trkpt>
      <trkpt lat="42.735036006197333" lon="-3.552612997591496">
        <ele>885.50999999999999</ele>
        <time>2025-04-28T09:34:34Z</time>
      </trkpt>
      <trkpt lat="42.735036006197333" lon="-3.552767978981137">
        <ele>885.99000000000001</ele>
        <time>2025-04-28T09:34:35Z</time>
      </trkpt>
      <trkpt lat="42.7350739762187" lon="-3.552891025319696">
        <ele>886.47000000000003</ele>
        <time>2025-04-28T09:34:36Z</time>
      </trkpt>
      <trkpt lat="42.735128039494157" lon="-3.553066039457917">
        <ele>886.47000000000003</ele>
        <time>2025-04-28T09:34:37Z</time>
      </trkpt>
      <trkpt lat="42.735184030607343" lon="-3.553248010575771">
        <ele>886.95000000000005</ele>
        <time>2025-04-28T09:34:38Z</time>
      </trkpt>
      <trkpt lat="42.73571896366775" lon="-3.555113989859819">
        <ele>888.39999999999998</ele>
        <time>2025-04-28T09:34:47Z</time>
      </trkpt>
      <trkpt lat="42.735799010843039" lon="-3.5552669595927">
        <ele>888.39999999999998</ele>
        <time>2025-04-28T09:34:48Z</time>
      </trkpt>
      <trkpt lat="42.735892971977592" lon="-3.555435016751289">
        <ele>888.88</ele>
        <time>2025-04-28T09:34:49Z</time>
      </trkpt>
      <trkpt lat="42.735994979739189" lon="-3.555618999525905">
        <ele>888.88</ele>
        <time>2025-04-28T09:34:50Z</time>
      </trkpt>
      <trkpt lat="42.736950013786554" lon="-3.557326979935169">
        <ele>889.84000000000003</ele>
        <time>2025-04-28T09:34:59Z</time>
      </trkpt>
      <trkpt lat="42.737285038456321" lon="-3.558057965710759">
        <ele>890.79999999999995</ele>
        <time>2025-04-28T09:35:03Z</time>
      </trkpt>
      <trkpt lat="42.73732703179121" lon="-3.558246977627277">
        <ele>890.79999999999995</ele>
        <time>2025-04-28T09:35:04Z</time>
      </trkpt>
      <trkpt lat="42.737400038167834" lon="-3.558632964268327">
        <ele>891.27999999999997</ele>
        <time>2025-04-28T09:35:06Z</time>
      </trkpt>
      <trkpt lat="42.737481007352471" lon="-3.558794986456633">
        <ele>891.27999999999997</ele>
        <time>2025-04-28T09:35:07Z</time>
      </trkpt>
      <trkpt lat="42.738271001726389" lon="-3.560147993266583">
        <ele>891.75999999999999</ele>
        <time>2025-04-28T09:35:15Z</time>
      </trkpt>
      <trkpt lat="42.738296985626221" lon="-3.560193004086614">
        <ele>891.75999999999999</ele>
        <time>2025-04-28T09:35:16Z</time>
      </trkpt>
      <trkpt lat="42.738432018086314" lon="-3.560252012684941">
        <ele>891.75999999999999</ele>
        <time>2025-04-28T09:35:17Z</time>
      </trkpt>
      <trkpt lat="42.738522039726377" lon="-3.56029199436307">
        <ele>891.75999999999999</ele>
        <time>2025-04-28T09:35:18Z</time>
      </trkpt>
      <trkpt lat="42.738618012517691" lon="-3.56033499352634">
        <ele>891.75999999999999</ele>
        <time>2025-04-28T09:35:19Z</time>
      </trkpt>
      <trkpt lat="42.738713985309005" lon="-3.560424009338021">
        <ele>892.24000000000001</ele>
        <time>2025-04-28T09:35:20Z</time>
      </trkpt>
      <trkpt lat="42.738775005564094" lon="-3.560546971857548">
        <ele>892.24000000000001</ele>
        <time>2025-04-28T09:35:21Z</time>
      </trkpt>
      <trkpt lat="42.738840971142054" lon="-3.560687033459544">
        <ele>892.72000000000003</ele>
        <time>2025-04-28T09:35:22Z</time>
      </trkpt>
      <trkpt lat="42.738913977518678" lon="-3.560854000970721">
        <ele>893.20000000000005</ele>
        <time>2025-04-28T09:35:23Z</time>
      </trkpt>
      <trkpt lat="42.738992013037205" lon="-3.561033038422465">
        <ele>893.67999999999995</ele>
        <time>2025-04-28T09:35:24Z</time>
      </trkpt>
      <trkpt lat="42.739340029656887" lon="-3.56173200532794">
        <ele>896.09000000000003</ele>
        <time>2025-04-28T09:35:28Z</time>
      </trkpt>
      <trkpt lat="42.739450000226498" lon="-3.561847005039454">
        <ele>896.09000000000003</ele>
        <time>2025-04-28T09:35:29Z</time>
      </trkpt>
      <trkpt lat="42.739687040448189" lon="-3.562094019725919">
        <ele>897.04999999999995</ele>
        <time>2025-04-28T09:35:31Z</time>
      </trkpt>
      <trkpt lat="42.739787036553025" lon="-3.562231985852122">
        <ele>897.52999999999997</ele>
        <time>2025-04-28T09:35:32Z</time>
      </trkpt>
      <trkpt lat="42.739869011566043" lon="-3.562408005818725">
        <ele>897.52999999999997</ele>
        <time>2025-04-28T09:35:33Z</time>
      </trkpt>
      <trkpt lat="42.739928020164371" lon="-3.562582014128566">
        <ele>898.00999999999999</ele>
        <time>2025-04-28T09:35:34Z</time>
      </trkpt>
      <trkpt lat="42.739971019327641" lon="-3.562773959711194">
        <ele>898.00999999999999</ele>
        <time>2025-04-28T09:35:35Z</time>
      </trkpt>
      <trkpt lat="42.739956015720963" lon="-3.562985016033053">
        <ele>898.49000000000001</ele>
        <time>2025-04-28T09:35:36Z</time>
      </trkpt>
      <trkpt lat="42.739943023771048" lon="-3.563184002414346">
        <ele>898.49000000000001</ele>
        <time>2025-04-28T09:35:37Z</time>
      </trkpt>
      <trkpt lat="42.739929025992751" lon="-3.563378965482116">
        <ele>898.49000000000001</ele>
        <time>2025-04-28T09:35:38Z</time>
      </trkpt>
      <trkpt lat="42.739960039034486" lon="-3.56358096934855">
        <ele>898.49000000000001</ele>
        <time>2025-04-28T09:35:39Z</time>
      </trkpt>
      <trkpt lat="42.740117032080889" lon="-3.564413962885737">
        <ele>899.45000000000005</ele>
        <time>2025-04-28T09:35:43Z</time>
      </trkpt>
      <trkpt lat="42.740167994052172" lon="-3.564623007550836">
        <ele>899.92999999999995</ele>
        <time>2025-04-28T09:35:44Z</time>
      </trkpt>
      <trkpt lat="42.740252986550331" lon="-3.564832974225283">
        <ele>900.40999999999997</ele>
        <time>2025-04-28T09:35:45Z</time>
      </trkpt>
      <trkpt lat="42.740364968776703" lon="-3.565026009455323">
        <ele>900.88999999999999</ele>
        <time>2025-04-28T09:35:46Z</time>
      </trkpt>
      <trkpt lat="42.74048700928688" lon="-3.565194988623262">
        <ele>901.37</ele>
        <time>2025-04-28T09:35:47Z</time>
      </trkpt>
      <trkpt lat="42.740608965978026" lon="-3.5653639677912">
        <ele>901.37</ele>
        <time>2025-04-28T09:35:48Z</time>
      </trkpt>
      <trkpt lat="42.74085103534162" lon="-3.565698992460966">
        <ele>902.33000000000004</ele>
        <time>2025-04-28T09:35:50Z</time>
      </trkpt>
      <trkpt lat="42.740920018404722" lon="-3.565898984670639">
        <ele>902.33000000000004</ele>
        <time>2025-04-28T09:35:51Z</time>
      </trkpt>
      <trkpt lat="42.74098196066916" lon="-3.566122027114034">
        <ele>901.85000000000002</ele>
        <time>2025-04-28T09:35:52Z</time>
      </trkpt>
      <trkpt lat="42.741464003920555" lon="-3.567927991971374">
        <ele>902.33000000000004</ele>
        <time>2025-04-28T09:36:00Z</time>
      </trkpt>
      <trkpt lat="42.741585038602352" lon="-3.568333005532622">
        <ele>901.85000000000002</ele>
        <time>2025-04-28T09:36:02Z</time>
      </trkpt>
      <trkpt lat="42.741599958389997" lon="-3.56856401078403">
        <ele>901.37</ele>
        <time>2025-04-28T09:36:03Z</time>
      </trkpt>
      <trkpt lat="42.741630971431732" lon="-3.569028032943606">
        <ele>901.37</ele>
        <time>2025-04-28T09:36:05Z</time>
      </trkpt>
      <trkpt lat="42.741648992523551" lon="-3.569257026538253">
        <ele>900.88999999999999</ele>
        <time>2025-04-28T09:36:06Z</time>
      </trkpt>
      <trkpt lat="42.74173297919333" lon="-3.569440003484488">
        <ele>900.88999999999999</ele>
        <time>2025-04-28T09:36:07Z</time>
      </trkpt>
      <trkpt lat="42.741813026368618" lon="-3.56961602345109">
        <ele>900.88999999999999</ele>
        <time>2025-04-28T09:36:08Z</time>
      </trkpt>
      <trkpt lat="42.741893995553255" lon="-3.569792965427041">
        <ele>900.88999999999999</ele>
        <time>2025-04-28T09:36:09Z</time>
      </trkpt>
      <trkpt lat="42.741975970566273" lon="-3.569972002878785">
        <ele>901.37</ele>
        <time>2025-04-28T09:36:10Z</time>
      </trkpt>
      <trkpt lat="42.742013018578291" lon="-3.570179035887122">
        <ele>901.37</ele>
        <time>2025-04-28T09:36:11Z</time>
      </trkpt>
      <trkpt lat="42.742042019963264" lon="-3.570397971197963">
        <ele>901.37</ele>
        <time>2025-04-28T09:36:12Z</time>
      </trkpt>
      <trkpt lat="42.742347959429026" lon="-3.572495961561799">
        <ele>904.74000000000001</ele>
        <time>2025-04-28T09:36:21Z</time>
      </trkpt>
      <trkpt lat="42.742582987993956" lon="-3.573299031704664">
        <ele>906.17999999999995</ele>
        <time>2025-04-28T09:36:25Z</time>
      </trkpt>
      <trkpt lat="42.742672003805637" lon="-3.573474967852235">
        <ele>907.13999999999999</ele>
        <time>2025-04-28T09:36:26Z</time>
      </trkpt>
      <trkpt lat="42.743699038401246" lon="-3.574710041284561">
        <ele>913.87</ele>
        <time>2025-04-28T09:36:34Z</time>
      </trkpt>
      <trkpt lat="42.743808003142476" lon="-3.57490299269557">
        <ele>915.30999999999995</ele>
        <time>2025-04-28T09:36:35Z</time>
      </trkpt>
      <trkpt lat="42.743897018954158" lon="-3.575110025703907">
        <ele>916.75</ele>
        <time>2025-04-28T09:36:36Z</time>
      </trkpt>
      <trkpt lat="42.743977988138795" lon="-3.575317980721593">
        <ele>918.20000000000005</ele>
        <time>2025-04-28T09:36:37Z</time>
      </trkpt>
      <trkpt lat="42.744047977030277" lon="-3.575513027608395">
        <ele>919.63999999999999</ele>
        <time>2025-04-28T09:36:38Z</time>
      </trkpt>
      <trkpt lat="42.744083013385534" lon="-3.575760964304209">
        <ele>921.08000000000004</ele>
        <time>2025-04-28T09:36:39Z</time>
      </trkpt>
      <trkpt lat="42.74411603808403" lon="-3.576004961505532">
        <ele>922.51999999999998</ele>
        <time>2025-04-28T09:36:40Z</time>
      </trkpt>
      <trkpt lat="42.744149984791875" lon="-3.576248036697507">
        <ele>923.48000000000002</ele>
        <time>2025-04-28T09:36:41Z</time>
      </trkpt>
      <trkpt lat="42.744262972846627" lon="-3.578603016212583">
        <ele>935.01999999999998</ele>
        <time>2025-04-28T09:36:51Z</time>
      </trkpt>
      <trkpt lat="42.744090976193547" lon="-3.579646982252598">
        <ele>938.38</ele>
        <time>2025-04-28T09:36:57Z</time>
      </trkpt>
      <trkpt lat="42.744021993130445" lon="-3.579979995265603">
        <ele>938.86000000000001</ele>
        <time>2025-04-28T09:37:00Z</time>
      </trkpt>
      <trkpt lat="42.74396600201726" lon="-3.580290041863918">
        <ele>938.86000000000001</ele>
        <time>2025-04-28T09:37:03Z</time>
      </trkpt>
      <trkpt lat="42.743695015087724" lon="-3.581243986263871">
        <ele>937.89999999999998</ele>
        <time>2025-04-28T09:37:13Z</time>
      </trkpt>
      <trkpt lat="42.743677999824286" lon="-3.581328978762031">
        <ele>938.38</ele>
        <time>2025-04-28T09:37:14Z</time>
      </trkpt>
      <trkpt lat="42.743667019531131" lon="-3.58143400400877">
        <ele>938.38</ele>
        <time>2025-04-28T09:37:15Z</time>
      </trkpt>
      <trkpt lat="42.743656039237976" lon="-3.581539029255509">
        <ele>938.38</ele>
        <time>2025-04-28T09:37:16Z</time>
      </trkpt>
      <trkpt lat="42.74364598095417" lon="-3.581643970683217">
        <ele>938.86000000000001</ele>
        <time>2025-04-28T09:37:17Z</time>
      </trkpt>
      <trkpt lat="42.743636006489396" lon="-3.581750001758337">
        <ele>939.35000000000002</ele>
        <time>2025-04-28T09:37:18Z</time>
      </trkpt>
      <trkpt lat="42.743626032024622" lon="-3.581856032833457">
        <ele>940.30999999999995</ele>
        <time>2025-04-28T09:37:19Z</time>
      </trkpt>
      <trkpt lat="42.743611028417945" lon="-3.581963991746306">
        <ele>940.78999999999996</ele>
        <time>2025-04-28T09:37:20Z</time>
      </trkpt>
      <trkpt lat="42.74334498681128" lon="-3.583140978589654">
        <ele>940.78999999999996</ele>
        <time>2025-04-28T09:37:29Z</time>
      </trkpt>
      <trkpt lat="42.742968974635005" lon="-3.584944009780884">
        <ele>938.86000000000001</ele>
        <time>2025-04-28T09:37:39Z</time>
      </trkpt>
      <trkpt lat="42.742648031562567" lon="-3.585936008021236">
        <ele>939.35000000000002</ele>
        <time>2025-04-28T09:37:44Z</time>
      </trkpt>
      <trkpt lat="42.742567984387279" lon="-3.586645033210516">
        <ele>938.86000000000001</ele>
        <time>2025-04-28T09:37:47Z</time>
      </trkpt>
      <trkpt lat="42.742567984387279" lon="-3.586895987391472">
        <ele>938.86000000000001</ele>
        <time>2025-04-28T09:37:48Z</time>
      </trkpt>
      <trkpt lat="42.742579970508814" lon="-3.587141996249557">
        <ele>939.35000000000002</ele>
        <time>2025-04-28T09:37:49Z</time>
      </trkpt>
      <trkpt lat="42.742627998813987" lon="-3.587389010936022">
        <ele>939.35000000000002</ele>
        <time>2025-04-28T09:37:50Z</time>
      </trkpt>
      <trkpt lat="42.74267602711916" lon="-3.587638037279248">
        <ele>939.83000000000004</ele>
        <time>2025-04-28T09:37:51Z</time>
      </trkpt>
      <trkpt lat="42.742896974086761" lon="-3.588305991142988">
        <ele>940.30999999999995</ele>
        <time>2025-04-28T09:37:54Z</time>
      </trkpt>
      <trkpt lat="42.742995964363217" lon="-3.588501960039139">
        <ele>940.78999999999996</ele>
        <time>2025-04-28T09:37:55Z</time>
      </trkpt>
      <trkpt lat="42.743095960468054" lon="-3.588684014976025">
        <ele>940.78999999999996</ele>
        <time>2025-04-28T09:37:56Z</time>
      </trkpt>
      <trkpt lat="42.74319302290678" lon="-3.588848970830441">
        <ele>940.78999999999996</ele>
        <time>2025-04-28T09:37:57Z</time>
      </trkpt>
      <trkpt lat="42.743313973769546" lon="-3.589006969705224">
        <ele>941.26999999999998</ele>
        <time>2025-04-28T09:37:58Z</time>
      </trkpt>
      <trkpt lat="42.743443977087736" lon="-3.589175026863813">
        <ele>941.75</ele>
        <time>2025-04-28T09:37:59Z</time>
      </trkpt>
      <trkpt lat="42.74357900954783" lon="-3.589349035173655">
        <ele>941.75</ele>
        <time>2025-04-28T09:38:00Z</time>
      </trkpt>
      <trkpt lat="42.744001960381866" lon="-3.589822025969625">
        <ele>943.19000000000005</ele>
        <time>2025-04-28T09:38:03Z</time>
      </trkpt>
      <trkpt lat="42.744155013933778" lon="-3.589976001530886">
        <ele>944.14999999999998</ele>
        <time>2025-04-28T09:38:04Z</time>
      </trkpt>
      <trkpt lat="42.744291974231601" lon="-3.59002604149282">
        <ele>944.63</ele>
        <time>2025-04-28T09:38:05Z</time>
      </trkpt>
      <trkpt lat="42.744775023311377" lon="-3.590202983468771">
        <ele>946.07000000000005</ele>
        <time>2025-04-28T09:38:08Z</time>
      </trkpt>
      <trkpt lat="42.744903014972806" lon="-3.590198960155249">
        <ele>946.07000000000005</ele>
        <time>2025-04-28T09:38:09Z</time>
      </trkpt>
      <trkpt lat="42.745018014684319" lon="-3.590184962376952">
        <ele>946.07000000000005</ele>
        <time>2025-04-28T09:38:10Z</time>
      </trkpt>
      <trkpt lat="42.74607396684587" lon="-3.589861001819372">
        <ele>947.03999999999996</ele>
        <time>2025-04-28T09:38:17Z</time>
      </trkpt>
      <trkpt lat="42.746862033382058" lon="-3.589195981621742">
        <ele>948</ele>
        <time>2025-04-28T09:38:22Z</time>
      </trkpt>
      <trkpt lat="42.746991030871868" lon="-3.589037982746959">
        <ele>948</ele>
        <time>2025-04-28T09:38:23Z</time>
      </trkpt>
      <trkpt lat="42.747777001932263" lon="-3.588071968406439">
        <ele>949.44000000000005</ele>
        <time>2025-04-28T09:38:29Z</time>
      </trkpt>
      <trkpt lat="42.747913040220737" lon="-3.588042967021465">
        <ele>949.91999999999996</ele>
        <time>2025-04-28T09:38:30Z</time>
      </trkpt>
      <trkpt lat="42.748055029660463" lon="-3.588027963414788">
        <ele>949.91999999999996</ele>
        <time>2025-04-28T09:38:31Z</time>
      </trkpt>
      <trkpt lat="42.748212022706866" lon="-3.588049001991749">
        <ele>950.39999999999998</ele>
        <time>2025-04-28T09:38:32Z</time>
      </trkpt>
      <trkpt lat="42.748379996046424" lon="-3.588070962578058">
        <ele>950.88</ele>
        <time>2025-04-28T09:38:33Z</time>
      </trkpt>
      <trkpt lat="42.749236039817333" lon="-3.588242959231138">
        <ele>953.76999999999998</ele>
        <time>2025-04-28T09:38:38Z</time>
      </trkpt>
      <trkpt lat="42.749392027035356" lon="-3.588314037770033">
        <ele>954.25</ele>
        <time>2025-04-28T09:38:39Z</time>
      </trkpt>
      <trkpt lat="42.749549020081758" lon="-3.588415961712599">
        <ele>954.73000000000002</ele>
        <time>2025-04-28T09:38:40Z</time>
      </trkpt>
      <trkpt lat="42.750695999711752" lon="-3.589658997952938">
        <ele>960.49000000000001</ele>
        <time>2025-04-28T09:38:48Z</time>
      </trkpt>
      <trkpt lat="42.751215007156134" lon="-3.590447986498475">
        <ele>965.77999999999997</ele>
        <time>2025-04-28T09:38:53Z</time>
      </trkpt>
      <trkpt lat="42.751204026862979" lon="-3.590534990653396">
        <ele>966.25999999999999</ele>
        <time>2025-04-28T09:38:54Z</time>
      </trkpt>
      <trkpt lat="42.751181982457638" lon="-3.590642027556896">
        <ele>966.74000000000001</ele>
        <time>2025-04-28T09:38:55Z</time>
      </trkpt>
      <trkpt lat="42.751109981909394" lon="-3.590777982026339">
        <ele>966.74000000000001</ele>
        <time>2025-04-28T09:38:56Z</time>
      </trkpt>
      <trkpt lat="42.75103303603828" lon="-3.590925000607967">
        <ele>966.25999999999999</ele>
        <time>2025-04-28T09:38:57Z</time>
      </trkpt>
      <trkpt lat="42.750901021063328" lon="-3.591211996972561">
        <ele>966.25999999999999</ele>
        <time>2025-04-28T09:38:59Z</time>
      </trkpt>
      <trkpt lat="42.750573959201574" lon="-3.592102993279696">
        <ele>968.17999999999995</ele>
        <time>2025-04-28T09:39:06Z</time>
      </trkpt>
      <trkpt lat="42.750420989468694" lon="-3.592916037887335">
        <ele>971.07000000000005</ele>
        <time>2025-04-28T09:39:12Z</time>
      </trkpt>
      <trkpt lat="42.750471029430628" lon="-3.593330020084977">
        <ele>972.02999999999997</ele>
        <time>2025-04-28T09:39:15Z</time>
      </trkpt>
      <trkpt lat="42.750491984188557" lon="-3.593475027009845">
        <ele>972.02999999999997</ele>
        <time>2025-04-28T09:39:16Z</time>
      </trkpt>
      <trkpt lat="42.750599021092057" lon="-3.594339033588767">
        <ele>975.38999999999999</ele>
        <time>2025-04-28T09:39:21Z</time>
      </trkpt>
      <trkpt lat="42.750614024698734" lon="-3.594739018008113">
        <ele>977.32000000000005</ele>
        <time>2025-04-28T09:39:23Z</time>
      </trkpt>
      <trkpt lat="42.750657023862004" lon="-3.594944961369038">
        <ele>978.27999999999997</ele>
        <time>2025-04-28T09:39:24Z</time>
      </trkpt>
      <trkpt lat="42.750701028853655" lon="-3.595158029347658">
        <ele>979.72000000000003</ele>
        <time>2025-04-28T09:39:25Z</time>
      </trkpt>
      <trkpt lat="42.75075500831008" lon="-3.595376964658499">
        <ele>981.15999999999997</ele>
        <time>2025-04-28T09:39:26Z</time>
      </trkpt>
      <trkpt lat="42.750813011080027" lon="-3.595597995445132">
        <ele>983.09000000000003</ele>
        <time>2025-04-28T09:39:27Z</time>
      </trkpt>
      <trkpt lat="42.751109981909394" lon="-3.597273034974933">
        <ele>992.22000000000003</ele>
        <time>2025-04-28T09:39:34Z</time>
      </trkpt>
      <trkpt lat="42.751887990161777" lon="-3.599785007536411">
        <ele>1003.75</ele>
        <time>2025-04-28T09:39:44Z</time>
      </trkpt>
      <trkpt lat="42.752139028161764" lon="-3.600463019683957">
        <ele>1008.08</ele>
        <time>2025-04-28T09:39:47Z</time>
      </trkpt>
      <trkpt lat="42.752251010388136" lon="-3.600654965266585">
        <ele>1009.52</ele>
        <time>2025-04-28T09:39:48Z</time>
      </trkpt>
      <trkpt lat="42.752392999827862" lon="-3.60081497579813">
        <ele>1010.48</ele>
        <time>2025-04-28T09:39:49Z</time>
      </trkpt>
      <trkpt lat="42.752840006724" lon="-3.601316967979074">
        <ele>1014.33</ele>
        <time>2025-04-28T09:39:52Z</time>
      </trkpt>
      <trkpt lat="42.752957018092275" lon="-3.601529030129314">
        <ele>1015.29</ele>
        <time>2025-04-28T09:39:53Z</time>
      </trkpt>
      <trkpt lat="42.754146996885538" lon="-3.603861965239048">
        <ele>1027.3099999999999</ele>
        <time>2025-04-28T09:40:03Z</time>
      </trkpt>
      <trkpt lat="42.754326034337282" lon="-3.60423001460731">
        <ele>1030.1900000000001</ele>
        <time>2025-04-28T09:40:05Z</time>
      </trkpt>
      <trkpt lat="42.754369033500552" lon="-3.604374015703797">
        <ele>1031.6300000000001</ele>
        <time>2025-04-28T09:40:06Z</time>
      </trkpt>
      <trkpt lat="42.75432301685214" lon="-3.604557998478413">
        <ele>1032.5899999999999</ele>
        <time>2025-04-28T09:40:07Z</time>
      </trkpt>
      <trkpt lat="42.754282029345632" lon="-3.60472303815186">
        <ele>1034.04</ele>
        <time>2025-04-28T09:40:08Z</time>
      </trkpt>
      <trkpt lat="42.7542370185256" lon="-3.604902997612953">
        <ele>1035</ele>
        <time>2025-04-28T09:40:09Z</time>
      </trkpt>
      <trkpt lat="42.754188990220428" lon="-3.605093015357852">
        <ele>1036.4400000000001</ele>
        <time>2025-04-28T09:40:10Z</time>
      </trkpt>
      <trkpt lat="42.754179015755653" lon="-3.605298958718777">
        <ele>1037.8800000000001</ele>
        <time>2025-04-28T09:40:11Z</time>
      </trkpt>
      <trkpt lat="42.754183039069176" lon="-3.605523006990552">
        <ele>1039.3199999999999</ele>
        <time>2025-04-28T09:40:12Z</time>
      </trkpt>
      <trkpt lat="42.754238024353981" lon="-3.607716970145702">
        <ele>1049.4200000000001</ele>
        <time>2025-04-28T09:40:21Z</time>
      </trkpt>
      <trkpt lat="42.7541299816221" lon="-3.609725022688508">
        <ele>1056.6300000000001</ele>
        <time>2025-04-28T09:40:30Z</time>
      </trkpt>
      <trkpt lat="42.753996960818768" lon="-3.611211972311139">
        <ele>1060.95</ele>
        <time>2025-04-28T09:40:38Z</time>
      </trkpt>
      <trkpt lat="42.753707030788064" lon="-3.612859016284347">
        <ele>1054.7</ele>
        <time>2025-04-28T09:40:49Z</time>
      </trkpt>
      <trkpt lat="42.753694960847497" lon="-3.612949037924409">
        <ele>1054.22</ele>
        <time>2025-04-28T09:40:50Z</time>
      </trkpt>
      <trkpt lat="42.753683980554342" lon="-3.613027995452285">
        <ele>1053.74</ele>
        <time>2025-04-28T09:40:51Z</time>
      </trkpt>
      <trkpt lat="42.753675011917949" lon="-3.613094966858625">
        <ele>1052.78</ele>
        <time>2025-04-28T09:40:52Z</time>
      </trkpt>
      <trkpt lat="42.753797974437475" lon="-3.613199992105365">
        <ele>1052.78</ele>
        <time>2025-04-28T09:40:53Z</time>
      </trkpt>
      <trkpt lat="42.753855977207422" lon="-3.613203009590507">
        <ele>1052.3</ele>
        <time>2025-04-28T09:40:54Z</time>
      </trkpt>
      <trkpt lat="42.753948010504246" lon="-3.613207032904029">
        <ele>1052.3</ele>
        <time>2025-04-28T09:40:55Z</time>
      </trkpt>
      <trkpt lat="42.754068961367011" lon="-3.613212984055281">
        <ele>1051.3399999999999</ele>
        <time>2025-04-28T09:40:56Z</time>
      </trkpt>
      <trkpt lat="42.75500999763608" lon="-3.613367965444922">
        <ele>1047.97</ele>
        <time>2025-04-28T09:41:02Z</time>
      </trkpt>
      <trkpt lat="42.75703095830977" lon="-3.61394195817411">
        <ele>1047.49</ele>
        <time>2025-04-28T09:41:12Z</time>
      </trkpt>
      <trkpt lat="42.759935036301613" lon="-3.614838989451528">
        <ele>1041.73</ele>
        <time>2025-04-28T09:41:25Z</time>
      </trkpt>
      <trkpt lat="42.763659032061696" lon="-3.615992004051805">
        <ele>1022.98</ele>
        <time>2025-04-28T09:41:41Z</time>
      </trkpt>
      <trkpt lat="42.765497015789151" lon="-3.616432975977659">
        <ele>1021.0599999999999</ele>
        <time>2025-04-28T09:41:50Z</time>
      </trkpt>
      <trkpt lat="42.765672029927373" lon="-3.616458959877491">
        <ele>1020.58</ele>
        <time>2025-04-28T09:41:51Z</time>
      </trkpt>
      <trkpt lat="42.766150971874595" lon="-3.616444962099195">
        <ele>1018.17</ele>
        <time>2025-04-28T09:41:55Z</time>
      </trkpt>
      <trkpt lat="42.766196988523006" lon="-3.616440016776323">
        <ele>1017.6900000000001</ele>
        <time>2025-04-28T09:41:56Z</time>
      </trkpt>
      <trkpt lat="42.766264965757728" lon="-3.616574965417385">
        <ele>1017.6900000000001</ele>
        <time>2025-04-28T09:41:57Z</time>
      </trkpt>
      <trkpt lat="42.766257002949715" lon="-3.616662975400686">
        <ele>1017.21</ele>
        <time>2025-04-28T09:41:58Z</time>
      </trkpt>
      <trkpt lat="42.766247028484941" lon="-3.616780992597342">
        <ele>1016.73</ele>
        <time>2025-04-28T09:41:59Z</time>
      </trkpt>
      <trkpt lat="42.766233030706644" lon="-3.616929017007351">
        <ele>1016.73</ele>
        <time>2025-04-28T09:42:00Z</time>
      </trkpt>
      <trkpt lat="42.766104033216834" lon="-3.618374979123473">
        <ele>1016.25</ele>
        <time>2025-04-28T09:42:07Z</time>
      </trkpt>
      <trkpt lat="42.765821982175112" lon="-3.621661020442843">
        <ele>1022.02</ele>
        <time>2025-04-28T09:42:20Z</time>
      </trkpt>
      <trkpt lat="42.76566700078547" lon="-3.623783988878131">
        <ele>1024.9000000000001</ele>
        <time>2025-04-28T09:42:28Z</time>
      </trkpt>
      <trkpt lat="42.765675969421864" lon="-3.624005019664764">
        <ele>1025.3800000000001</ele>
        <time>2025-04-28T09:42:29Z</time>
      </trkpt>
      <trkpt lat="42.765717040747404" lon="-3.624224960803986">
        <ele>1025.8599999999999</ele>
        <time>2025-04-28T09:42:30Z</time>
      </trkpt>
      <trkpt lat="42.76624602265656" lon="-3.626494025811553">
        <ele>1028.27</ele>
        <time>2025-04-28T09:42:39Z</time>
      </trkpt>
      <trkpt lat="42.766609964892268" lon="-3.628121959045529">
        <ele>1027.3099999999999</ele>
        <time>2025-04-28T09:42:46Z</time>
      </trkpt>
      <trkpt lat="42.766640977934003" lon="-3.628291022032499">
        <ele>1026.8299999999999</ele>
        <time>2025-04-28T09:42:47Z</time>
      </trkpt>
      <trkpt lat="42.766619017347693" lon="-3.628432005643845">
        <ele>1026.8299999999999</ele>
        <time>2025-04-28T09:42:48Z</time>
      </trkpt>
      <trkpt lat="42.766584986820817" lon="-3.6285500228405">
        <ele>1026.3399999999999</ele>
        <time>2025-04-28T09:42:49Z</time>
      </trkpt>
      <trkpt lat="42.766508040949702" lon="-3.628626968711615">
        <ele>1025.8599999999999</ele>
        <time>2025-04-28T09:42:50Z</time>
      </trkpt>
      <trkpt lat="42.766430005431175" lon="-3.628668962046504">
        <ele>1025.3800000000001</ele>
        <time>2025-04-28T09:42:51Z</time>
      </trkpt>
      <trkpt lat="42.766300002112985" lon="-3.628685977309942">
        <ele>1024.9000000000001</ele>
        <time>2025-04-28T09:42:52Z</time>
      </trkpt>
      <trkpt lat="42.766193971037865" lon="-3.628659993410111">
        <ele>1023.9400000000001</ele>
        <time>2025-04-28T09:42:53Z</time>
      </trkpt>
      <trkpt lat="42.766046030446887" lon="-3.628623029217124">
        <ele>1023.46</ele>
        <time>2025-04-28T09:42:54Z</time>
      </trkpt>
      <trkpt lat="42.765093008056283" lon="-3.628429993987083">
        <ele>1016.73</ele>
        <time>2025-04-28T09:43:00Z</time>
      </trkpt>
      <trkpt lat="42.764968033879995" lon="-3.628471987321973">
        <ele>1015.77</ele>
        <time>2025-04-28T09:43:01Z</time>
      </trkpt>
      <trkpt lat="42.764860996976495" lon="-3.628554968163371">
        <ele>1014.8099999999999</ele>
        <time>2025-04-28T09:43:02Z</time>
      </trkpt>
      <trkpt lat="42.764772986993194" lon="-3.628681031987071">
        <ele>1014.33</ele>
        <time>2025-04-28T09:43:03Z</time>
      </trkpt>
      <trkpt lat="42.764702998101711" lon="-3.628843976184726">
        <ele>1013.37</ele>
        <time>2025-04-28T09:43:04Z</time>
      </trkpt>
      <trkpt lat="42.764625968411565" lon="-3.629050003364682">
        <ele>1012.41</ele>
        <time>2025-04-28T09:43:05Z</time>
      </trkpt>
      <trkpt lat="42.764577018097043" lon="-3.629231974482536">
        <ele>1011.9299999999999</ele>
        <time>2025-04-28T09:43:06Z</time>
      </trkpt>
      <trkpt lat="42.764521026983857" lon="-3.629440013319254">
        <ele>1010.96</ele>
        <time>2025-04-28T09:43:07Z</time>
      </trkpt>
      <trkpt lat="42.76446302421391" lon="-3.629652997478843">
        <ele>1010</ele>
        <time>2025-04-28T09:43:08Z</time>
      </trkpt>
      <trkpt lat="42.764404015615582" lon="-3.62986396998167">
        <ele>1009.04</ele>
        <time>2025-04-28T09:43:09Z</time>
      </trkpt>
      <trkpt lat="42.764331009238958" lon="-3.630069997161627">
        <ele>1008.08</ele>
        <time>2025-04-28T09:43:10Z</time>
      </trkpt>
      <trkpt lat="42.763762967661023" lon="-3.631659038364887">
        <ele>999.90999999999997</ele>
        <time>2025-04-28T09:43:17Z</time>
      </trkpt>
      <trkpt lat="42.763628019019961" lon="-3.632099004462361">
        <ele>997.01999999999998</ele>
        <time>2025-04-28T09:43:19Z</time>
      </trkpt>
      <trkpt lat="42.763596000149846" lon="-3.632321041077375">
        <ele>995.10000000000002</ele>
        <time>2025-04-28T09:43:20Z</time>
      </trkpt>
      <trkpt lat="42.763596000149846" lon="-3.632556991651654">
        <ele>993.65999999999997</ele>
        <time>2025-04-28T09:43:21Z</time>
      </trkpt>
      <trkpt lat="42.7636260073632" lon="-3.633496016263962">
        <ele>986.45000000000005</ele>
        <time>2025-04-28T09:43:25Z</time>
      </trkpt>
      <trkpt lat="42.763673029839993" lon="-3.63368796184659">
        <ele>985.00999999999999</ele>
        <time>2025-04-28T09:43:26Z</time>
      </trkpt>
      <trkpt lat="42.763793980702758" lon="-3.634181991219521">
        <ele>980.67999999999995</ele>
        <time>2025-04-28T09:43:29Z</time>
      </trkpt>
      <trkpt lat="42.763810995966196" lon="-3.634286010637879">
        <ele>979.72000000000003</ele>
        <time>2025-04-28T09:43:30Z</time>
      </trkpt>
      <trkpt lat="42.763764979317784" lon="-3.634377038106322">
        <ele>978.75999999999999</ele>
        <time>2025-04-28T09:43:31Z</time>
      </trkpt>
      <trkpt lat="42.763724997639656" lon="-3.634458007290959">
        <ele>977.79999999999995</ele>
        <time>2025-04-28T09:43:32Z</time>
      </trkpt>
      <trkpt lat="42.763687027618289" lon="-3.634448032826185">
        <ele>977.32000000000005</ele>
        <time>2025-04-28T09:43:33Z</time>
      </trkpt>
      <trkpt lat="42.763606980443001" lon="-3.634428000077605">
        <ele>976.84000000000003</ele>
        <time>2025-04-28T09:43:34Z</time>
      </trkpt>
      <trkpt lat="42.763523999601603" lon="-3.634392041712999">
        <ele>975.88</ele>
        <time>2025-04-28T09:43:35Z</time>
      </trkpt>
      <trkpt lat="42.763425009325147" lon="-3.634314006194472">
        <ele>975.38999999999999</ele>
        <time>2025-04-28T09:43:36Z</time>
      </trkpt>
      <trkpt lat="42.763319984078407" lon="-3.634231025353074">
        <ele>974.90999999999997</ele>
        <time>2025-04-28T09:43:37Z</time>
      </trkpt>
      <trkpt lat="42.762685976922512" lon="-3.633751999586821">
        <ele>971.07000000000005</ele>
        <time>2025-04-28T09:43:42Z</time>
      </trkpt>
      <trkpt lat="42.762533007189631" lon="-3.633677987381816">
        <ele>970.11000000000001</ele>
        <time>2025-04-28T09:43:43Z</time>
      </trkpt>
      <trkpt lat="42.762053981423378" lon="-3.633528035134077">
        <ele>966.74000000000001</ele>
        <time>2025-04-28T09:43:46Z</time>
      </trkpt>
      <trkpt lat="42.761882990598679" lon="-3.633501967415214">
        <ele>965.29999999999995</ele>
        <time>2025-04-28T09:43:47Z</time>
      </trkpt>
      <trkpt lat="42.761535979807377" lon="-3.63344899378717">
        <ele>962.41999999999996</ele>
        <time>2025-04-28T09:43:49Z</time>
      </trkpt>
      <trkpt lat="42.761374041438103" lon="-3.633376993238926">
        <ele>960.98000000000002</ele>
        <time>2025-04-28T09:43:50Z</time>
      </trkpt>
      <trkpt lat="42.761211013421416" lon="-3.633304992690682">
        <ele>959.52999999999997</ele>
        <time>2025-04-28T09:43:51Z</time>
      </trkpt>
      <trkpt lat="42.761052008718252" lon="-3.63323399797082">
        <ele>958.09000000000003</ele>
        <time>2025-04-28T09:43:52Z</time>
      </trkpt>
      <trkpt lat="42.760895015671849" lon="-3.633164009079337">
        <ele>956.16999999999996</ele>
        <time>2025-04-28T09:43:53Z</time>
      </trkpt>
      <trkpt lat="42.760764006525278" lon="-3.63310600630939">
        <ele>954.73000000000002</ele>
        <time>2025-04-28T09:43:54Z</time>
      </trkpt>
      <trkpt lat="42.760597039014101" lon="-3.633069964125752">
        <ele>953.76999999999998</ele>
        <time>2025-04-28T09:43:55Z</time>
      </trkpt>
      <trkpt lat="42.760463012382388" lon="-3.633040962740779">
        <ele>952.32000000000005</ele>
        <time>2025-04-28T09:43:56Z</time>
      </trkpt>
      <trkpt lat="42.7603380382061" lon="-3.633040962740779">
        <ele>950.88</ele>
        <time>2025-04-28T09:43:57Z</time>
      </trkpt>
      <trkpt lat="42.760238964110613" lon="-3.63308597356081">
        <ele>949.44000000000005</ele>
        <time>2025-04-28T09:43:58Z</time>
      </trkpt>
      <trkpt lat="42.760170986875892" lon="-3.633167026564479">
        <ele>948</ele>
        <time>2025-04-28T09:43:59Z</time>
      </trkpt>
      <trkpt lat="42.760119019076228" lon="-3.633268028497696">
        <ele>946.55999999999995</ele>
        <time>2025-04-28T09:44:00Z</time>
      </trkpt>
      <trkpt lat="42.760103009641171" lon="-3.6334059946239">
        <ele>945.11000000000001</ele>
        <time>2025-04-28T09:44:01Z</time>
      </trkpt>
      <trkpt lat="42.760118013247848" lon="-3.633545972406864">
        <ele>944.14999999999998</ele>
        <time>2025-04-28T09:44:02Z</time>
      </trkpt>
      <trkpt lat="42.760156989097595" lon="-3.633691985160112">
        <ele>943.19000000000005</ele>
        <time>2025-04-28T09:44:03Z</time>
      </trkpt>
      <trkpt lat="42.760226977989078" lon="-3.633818970993161">
        <ele>942.71000000000004</ele>
        <time>2025-04-28T09:44:04Z</time>
      </trkpt>
      <trkpt lat="42.760327979922295" lon="-3.633917961269617">
        <ele>942.23000000000002</ele>
        <time>2025-04-28T09:44:05Z</time>
      </trkpt>
      <trkpt lat="42.760441973805428" lon="-3.634006977081299">
        <ele>942.23000000000002</ele>
        <time>2025-04-28T09:44:06Z</time>
      </trkpt>
      <trkpt lat="42.760566025972366" lon="-3.634066991508007">
        <ele>942.23000000000002</ele>
        <time>2025-04-28T09:44:07Z</time>
      </trkpt>
      <trkpt lat="42.760695023462176" lon="-3.634129017591476">
        <ele>942.71000000000004</ele>
        <time>2025-04-28T09:44:08Z</time>
      </trkpt>
      <trkpt lat="42.760825026780367" lon="-3.634190959855914">
        <ele>943.66999999999996</ele>
        <time>2025-04-28T09:44:09Z</time>
      </trkpt>
      <trkpt lat="42.761572021991014" lon="-3.634721031412482">
        <ele>948.96000000000004</ele>
        <time>2025-04-28T09:44:15Z</time>
      </trkpt>
      <trkpt lat="42.761687021702528" lon="-3.634854974225164">
        <ele>950.39999999999998</ele>
        <time>2025-04-28T09:44:16Z</time>
      </trkpt>
      <trkpt lat="42.762548010796309" lon="-3.63602802157402">
        <ele>957.13</ele>
        <time>2025-04-28T09:44:24Z</time>
      </trkpt>
      <trkpt lat="42.762620011344552" lon="-3.636155007407069">
        <ele>957.13</ele>
        <time>2025-04-28T09:44:25Z</time>
      </trkpt>
      <trkpt lat="42.762736016884446" lon="-3.636194989085197">
        <ele>957.61000000000001</ele>
        <time>2025-04-28T09:44:26Z</time>
      </trkpt>
      <trkpt lat="42.762854034081101" lon="-3.636218961328268">
        <ele>958.09000000000003</ele>
        <time>2025-04-28T09:44:27Z</time>
      </trkpt>
      <trkpt lat="42.762983031570911" lon="-3.636245029047132">
        <ele>958.57000000000005</ele>
        <time>2025-04-28T09:44:28Z</time>
      </trkpt>
      <trkpt lat="42.763112029060721" lon="-3.636299008503556">
        <ele>959.04999999999995</ele>
        <time>2025-04-28T09:44:29Z</time>
      </trkpt>
      <trkpt lat="42.763230968266726" lon="-3.636389030143619">
        <ele>959.52999999999997</ele>
        <time>2025-04-28T09:44:30Z</time>
      </trkpt>
      <trkpt lat="42.763315960764885" lon="-3.636545017361641">
        <ele>960.49000000000001</ele>
        <time>2025-04-28T09:44:31Z</time>
      </trkpt>
      <trkpt lat="42.763401037082076" lon="-3.636703016236424">
        <ele>961.94000000000005</ele>
        <time>2025-04-28T09:44:32Z</time>
      </trkpt>
      <trkpt lat="42.763489969074726" lon="-3.636865960434079">
        <ele>963.38</ele>
        <time>2025-04-28T09:44:33Z</time>
      </trkpt>
      <trkpt lat="42.764307959005237" lon="-3.638998987153173">
        <ele>978.27999999999997</ele>
        <time>2025-04-28T09:44:43Z</time>
      </trkpt>
      <trkpt lat="42.764578023925424" lon="-3.639865005388856">
        <ele>984.52999999999997</ele>
        <time>2025-04-28T09:44:47Z</time>
      </trkpt>
      <trkpt lat="42.764625968411565" lon="-3.640068015083671">
        <ele>985.97000000000003</ele>
        <time>2025-04-28T09:44:48Z</time>
      </trkpt>
      <trkpt lat="42.764616999775171" lon="-3.640276975929737">
        <ele>987.88999999999999</ele>
        <time>2025-04-28T09:44:49Z</time>
      </trkpt>
      <trkpt lat="42.764609036967158" lon="-3.640490965917707">
        <ele>989.33000000000004</ele>
        <time>2025-04-28T09:44:50Z</time>
      </trkpt>
      <trkpt lat="42.764599984511733" lon="-3.640715014189482">
        <ele>991.25999999999999</ele>
        <time>2025-04-28T09:44:51Z</time>
      </trkpt>
      <trkpt lat="42.764481967315078" lon="-3.643216006457806">
        <ele>1004.23</ele>
        <time>2025-04-28T09:45:01Z</time>
      </trkpt>
      <trkpt lat="42.764481967315078" lon="-3.64344198256731">
        <ele>1005.2</ele>
        <time>2025-04-28T09:45:02Z</time>
      </trkpt>
      <trkpt lat="42.764556985348463" lon="-3.643629988655448">
        <ele>1005.6799999999999</ele>
        <time>2025-04-28T09:45:03Z</time>
      </trkpt>
      <trkpt lat="42.765275985002518" lon="-3.645376022905111">
        <ele>1013.37</ele>
        <time>2025-04-28T09:45:11Z</time>
      </trkpt>
      <trkpt lat="42.765404982492328" lon="-3.645735019817948">
        <ele>1014.33</ele>
        <time>2025-04-28T09:45:13Z</time>
      </trkpt>
      <trkpt lat="42.765417974442244" lon="-3.645897964015603">
        <ele>1015.29</ele>
        <time>2025-04-28T09:45:14Z</time>
      </trkpt>
      <trkpt lat="42.765391990542412" lon="-3.646074989810586">
        <ele>1015.77</ele>
        <time>2025-04-28T09:45:15Z</time>
      </trkpt>
      <trkpt lat="42.765356032177806" lon="-3.646281016990542">
        <ele>1016.25</ele>
        <time>2025-04-28T09:45:16Z</time>
      </trkpt>
      <trkpt lat="42.765301968902349" lon="-3.646464999765158">
        <ele>1016.73</ele>
        <time>2025-04-28T09:45:17Z</time>
      </trkpt>
      <trkpt lat="42.764733005315065" lon="-3.648533988744021">
        <ele>1024.4200000000001</ele>
        <time>2025-04-28T09:45:26Z</time>
      </trkpt>
      <trkpt lat="42.764414995908737" lon="-3.649637969210744">
        <ele>1028.27</ele>
        <time>2025-04-28T09:45:31Z</time>
      </trkpt>
      <trkpt lat="42.76435598731041" lon="-3.649816000834107">
        <ele>1029.23</ele>
        <time>2025-04-28T09:45:32Z</time>
      </trkpt>
      <trkpt lat="42.76424802839756" lon="-3.649931000545621">
        <ele>1030.1900000000001</ele>
        <time>2025-04-28T09:45:33Z</time>
      </trkpt>
      <trkpt lat="42.764112995937467" lon="-3.650024039670825">
        <ele>1031.1500000000001</ele>
        <time>2025-04-28T09:45:34Z</time>
      </trkpt>
      <trkpt lat="42.76397000066936" lon="-3.650123029947281">
        <ele>1032.1099999999999</ele>
        <time>2025-04-28T09:45:35Z</time>
      </trkpt>
      <trkpt lat="42.7635189704597" lon="-3.650436010211706">
        <ele>1035.48</ele>
        <time>2025-04-28T09:45:38Z</time>
      </trkpt>
      <trkpt lat="42.763391984626651" lon="-3.650582022964954">
        <ele>1036.4400000000001</ele>
        <time>2025-04-28T09:45:39Z</time>
      </trkpt>
      <trkpt lat="42.763286959379911" lon="-3.650771034881473">
        <ele>1037.4000000000001</ele>
        <time>2025-04-28T09:45:40Z</time>
      </trkpt>
      <trkpt lat="42.763177994638681" lon="-3.650967003777623">
        <ele>1038.8399999999999</ele>
        <time>2025-04-28T09:45:41Z</time>
      </trkpt>
      <trkpt lat="42.763070035725832" lon="-3.651160961017013">
        <ele>1040.28</ele>
        <time>2025-04-28T09:45:42Z</time>
      </trkpt>
      <trkpt lat="42.762872977182269" lon="-3.651514006778598">
        <ele>1043.1700000000001</ele>
        <time>2025-04-28T09:45:44Z</time>
      </trkpt>
      <trkpt lat="42.762752026319504" lon="-3.651655996218324">
        <ele>1045.0899999999999</ele>
        <time>2025-04-28T09:45:45Z</time>
      </trkpt>
      <trkpt lat="42.762609031051397" lon="-3.651764038950205">
        <ele>1047.01</ele>
        <time>2025-04-28T09:45:46Z</time>
      </trkpt>
      <trkpt lat="42.76083399541676" lon="-3.653099024668336">
        <ele>1059.03</ele>
        <time>2025-04-28T09:45:57Z</time>
      </trkpt>
      <trkpt lat="42.759087961167097" lon="-3.654362009838224">
        <ele>1060.95</ele>
        <time>2025-04-28T09:46:07Z</time>
      </trkpt>
      <trkpt lat="42.758890986442566" lon="-3.654420012608171">
        <ele>1060.95</ele>
        <time>2025-04-28T09:46:08Z</time>
      </trkpt>
      <trkpt lat="42.757442006841302" lon="-3.654894009232521">
        <ele>1066.24</ele>
        <time>2025-04-28T09:46:16Z</time>
      </trkpt>
      <trkpt lat="42.757336981594563" lon="-3.655012026429176">
        <ele>1066.24</ele>
        <time>2025-04-28T09:46:17Z</time>
      </trkpt>
      <trkpt lat="42.757234973832965" lon="-3.655148986726999">
        <ele>1066.72</ele>
        <time>2025-04-28T09:46:18Z</time>
      </trkpt>
      <trkpt lat="42.757141012698412" lon="-3.655302962288261">
        <ele>1066.72</ele>
        <time>2025-04-28T09:46:19Z</time>
      </trkpt>
      <trkpt lat="42.757073035463691" lon="-3.655503038316965">
        <ele>1066.72</ele>
        <time>2025-04-28T09:46:20Z</time>
      </trkpt>
      <trkpt lat="42.756999023258686" lon="-3.655719961971045">
        <ele>1066.72</ele>
        <time>2025-04-28T09:46:21Z</time>
      </trkpt>
      <trkpt lat="42.7563869766891" lon="-3.65757898427546">
        <ele>1062.8699999999999</ele>
        <time>2025-04-28T09:46:28Z</time>
      </trkpt>
      <trkpt lat="42.755387015640736" lon="-3.660677019506693">
        <ele>1059.03</ele>
        <time>2025-04-28T09:46:38Z</time>
      </trkpt>
      <trkpt lat="42.755036987364292" lon="-3.661760967224836">
        <ele>1059.99</ele>
        <time>2025-04-28T09:46:43Z</time>
      </trkpt>
      <trkpt lat="42.754479004070163" lon="-3.663489986211062">
        <ele>1063.3599999999999</ele>
        <time>2025-04-28T09:46:50Z</time>
      </trkpt>
      <trkpt lat="42.753336969763041" lon="-3.666993035003543">
        <ele>1074.8900000000001</ele>
        <time>2025-04-28T09:47:03Z</time>
      </trkpt>
      <trkpt lat="42.752373972907662" lon="-3.668936965987086">
        <ele>1077.29</ele>
        <time>2025-04-28T09:47:11Z</time>
      </trkpt>
      <trkpt lat="42.750417971983552" lon="-3.672722987830639">
        <ele>1072.01</ele>
        <time>2025-04-28T09:47:26Z</time>
      </trkpt>
      <trkpt lat="42.748771011829376" lon="-3.675685990601778">
        <ele>1068.1600000000001</ele>
        <time>2025-04-28T09:47:38Z</time>
      </trkpt>
      <trkpt lat="42.74693101644516" lon="-3.678599037230015">
        <ele>1057.1099999999999</ele>
        <time>2025-04-28T09:47:50Z</time>
      </trkpt>
      <trkpt lat="42.745079034939408" lon="-3.681500013917685">
        <ele>1046.05</ele>
        <time>2025-04-28T09:48:02Z</time>
      </trkpt>
      <trkpt lat="42.744219973683357" lon="-3.682819996029139">
        <ele>1043.6500000000001</ele>
        <time>2025-04-28T09:48:09Z</time>
      </trkpt>
      <trkpt lat="42.744110003113747" lon="-3.682969026267529">
        <ele>1043.1700000000001</ele>
        <time>2025-04-28T09:48:10Z</time>
      </trkpt>
      <trkpt lat="42.743970025330782" lon="-3.683066004887223">
        <ele>1042.6900000000001</ele>
        <time>2025-04-28T09:48:11Z</time>
      </trkpt>
      <trkpt lat="42.743829041719437" lon="-3.683164995163679">
        <ele>1042.21</ele>
        <time>2025-04-28T09:48:12Z</time>
      </trkpt>
      <trkpt lat="42.743684034794569" lon="-3.683259962126613">
        <ele>1042.21</ele>
        <time>2025-04-28T09:48:13Z</time>
      </trkpt>
      <trkpt lat="42.743527963757515" lon="-3.68331503123045">
        <ele>1042.21</ele>
        <time>2025-04-28T09:48:14Z</time>
      </trkpt>
      <trkpt lat="42.74143198505044" lon="-3.684088010340929">
        <ele>1040.76</ele>
        <time>2025-04-28T09:48:26Z</time>
      </trkpt>
      <trkpt lat="42.740784985944629" lon="-3.684438038617373">
        <ele>1039.3199999999999</ele>
        <time>2025-04-28T09:48:30Z</time>
      </trkpt>
      <trkpt lat="42.740652970969677" lon="-3.684555971994996">
        <ele>1039.3199999999999</ele>
        <time>2025-04-28T09:48:31Z</time>
      </trkpt>
      <trkpt lat="42.740538977086544" lon="-3.684717994183302">
        <ele>1038.8399999999999</ele>
        <time>2025-04-28T09:48:32Z</time>
      </trkpt>
      <trkpt lat="42.740421965718269" lon="-3.68488303385675">
        <ele>1038.3599999999999</ele>
        <time>2025-04-28T09:48:33Z</time>
      </trkpt>
      <trkpt lat="42.740371003746986" lon="-3.685073973610997">
        <ele>1038.3599999999999</ele>
        <time>2025-04-28T09:48:34Z</time>
      </trkpt>
      <trkpt lat="42.740313000977039" lon="-3.685288969427347">
        <ele>1037.8800000000001</ele>
        <time>2025-04-28T09:48:35Z</time>
      </trkpt>
      <trkpt lat="42.740253992378712" lon="-3.685511006042361">
        <ele>1037.8800000000001</ele>
        <time>2025-04-28T09:48:36Z</time>
      </trkpt>
      <trkpt lat="42.739946041256189" lon="-3.686662008985877">
        <ele>1037.4000000000001</ele>
        <time>2025-04-28T09:48:41Z</time>
      </trkpt>
      <trkpt lat="42.739845039322972" lon="-3.686863007023931">
        <ele>1036.9200000000001</ele>
        <time>2025-04-28T09:48:42Z</time>
      </trkpt>
      <trkpt lat="42.739729033783078" lon="-3.687051013112068">
        <ele>1036.9200000000001</ele>
        <time>2025-04-28T09:48:43Z</time>
      </trkpt>
      <trkpt lat="42.738661011680961" lon="-3.688734015449882">
        <ele>1033.0699999999999</ele>
        <time>2025-04-28T09:48:52Z</time>
      </trkpt>
      <trkpt lat="42.738421037793159" lon="-3.68900902569294">
        <ele>1032.1099999999999</ele>
        <time>2025-04-28T09:48:54Z</time>
      </trkpt>
      <trkpt lat="42.738081989809871" lon="-3.689347989857197">
        <ele>1030.1900000000001</ele>
        <time>2025-04-28T09:48:57Z</time>
      </trkpt>
      <trkpt lat="42.738017030060291" lon="-3.689463995397091">
        <ele>1029.71</ele>
        <time>2025-04-28T09:48:58Z</time>
      </trkpt>
      <trkpt lat="42.737996997311711" lon="-3.689582012593746">
        <ele>1029.23</ele>
        <time>2025-04-28T09:48:59Z</time>
      </trkpt>
      <trkpt lat="42.738021975383162" lon="-3.689710004255176">
        <ele>1028.27</ele>
        <time>2025-04-28T09:49:00Z</time>
      </trkpt>
      <trkpt lat="42.738070003688335" lon="-3.68982701562345">
        <ele>1027.3099999999999</ele>
        <time>2025-04-28T09:49:01Z</time>
      </trkpt>
      <trkpt lat="42.738174023106694" lon="-3.689931035041809">
        <ele>1026.8299999999999</ele>
        <time>2025-04-28T09:49:02Z</time>
      </trkpt>
      <trkpt lat="42.738286005333066" lon="-3.690043017268181">
        <ele>1025.8599999999999</ele>
        <time>2025-04-28T09:49:03Z</time>
      </trkpt>
      <trkpt lat="42.738405028358102" lon="-3.690162040293217">
        <ele>1024.9000000000001</ele>
        <time>2025-04-28T09:49:04Z</time>
      </trkpt>
      <trkpt lat="42.738892016932368" lon="-3.690670989453793">
        <ele>1022.02</ele>
        <time>2025-04-28T09:49:08Z</time>
      </trkpt>
      <trkpt lat="42.738963011652231" lon="-3.690791018307209">
        <ele>1021.0599999999999</ele>
        <time>2025-04-28T09:49:09Z</time>
      </trkpt>
      <trkpt lat="42.738978015258908" lon="-3.690938036888838">
        <ele>1020.58</ele>
        <time>2025-04-28T09:49:10Z</time>
      </trkpt>
      <trkpt lat="42.738953959196806" lon="-3.69107399135828">
        <ele>1019.62</ele>
        <time>2025-04-28T09:49:11Z</time>
      </trkpt>
      <trkpt lat="42.738896962255239" lon="-3.691214974969626">
        <ele>1019.13</ele>
        <time>2025-04-28T09:49:12Z</time>
      </trkpt>
      <trkpt lat="42.738800989463925" lon="-3.69133098050952">
        <ele>1018.17</ele>
        <time>2025-04-28T09:49:13Z</time>
      </trkpt>
      <trkpt lat="42.738075032830238" lon="-3.692207979038358">
        <ele>1011.4400000000001</ele>
        <time>2025-04-28T09:49:19Z</time>
      </trkpt>
      <trkpt lat="42.737975958734751" lon="-3.692329013720155">
        <ele>1010.48</ele>
        <time>2025-04-28T09:49:20Z</time>
      </trkpt>
      <trkpt lat="42.737814020365477" lon="-3.692392967641354">
        <ele>1009.04</ele>
        <time>2025-04-28T09:49:21Z</time>
      </trkpt>
      <trkpt lat="42.737690974026918" lon="-3.692443007603288">
        <ele>1008.08</ele>
        <time>2025-04-28T09:49:22Z</time>
      </trkpt>
      <trkpt lat="42.737573962658644" lon="-3.692432027310133">
        <ele>1006.64</ele>
        <time>2025-04-28T09:49:23Z</time>
      </trkpt>
      <trkpt lat="42.737439014017582" lon="-3.692388022318482">
        <ele>1005.6799999999999</ele>
        <time>2025-04-28T09:49:24Z</time>
      </trkpt>
      <trkpt lat="42.737289983779192" lon="-3.69233999401331">
        <ele>1004.72</ele>
        <time>2025-04-28T09:49:25Z</time>
      </trkpt>
      <trkpt lat="42.736974991858006" lon="-3.692237986251712">
        <ele>1002.79</ele>
        <time>2025-04-28T09:49:27Z</time>
      </trkpt>
      <trkpt lat="42.736816992983222" lon="-3.692221976816654">
        <ele>1001.83</ele>
        <time>2025-04-28T09:49:28Z</time>
      </trkpt>
      <trkpt lat="42.736663017421961" lon="-3.692230023443699">
        <ele>1000.87</ele>
        <time>2025-04-28T09:49:29Z</time>
      </trkpt>
      <trkpt lat="42.736514993011951" lon="-3.692281991243362">
        <ele>999.90999999999997</ele>
        <time>2025-04-28T09:49:30Z</time>
      </trkpt>
      <trkpt lat="42.736369986087084" lon="-3.692333037033677">
        <ele>998.95000000000005</ele>
        <time>2025-04-28T09:49:31Z</time>
      </trkpt>
      <trkpt lat="42.736244006082416" lon="-3.692368995398283">
        <ele>997.99000000000001</ele>
        <time>2025-04-28T09:49:32Z</time>
      </trkpt>
      <trkpt lat="42.736119031906128" lon="-3.692338988184929">
        <ele>997.50999999999999</ele>
        <time>2025-04-28T09:49:33Z</time>
      </trkpt>
      <trkpt lat="42.735531041398644" lon="-3.692201022058725">
        <ele>993.17999999999995</ele>
        <time>2025-04-28T09:49:37Z</time>
      </trkpt>
      <trkpt lat="42.735369019210339" lon="-3.692223988473415">
        <ele>991.74000000000001</ele>
        <time>2025-04-28T09:49:38Z</time>
      </trkpt>
      <trkpt lat="42.734875995665789" lon="-3.692299006506801">
        <ele>986.92999999999995</ele>
        <time>2025-04-28T09:49:41Z</time>
      </trkpt>
      <trkpt lat="42.734719002619386" lon="-3.692352985963225">
        <ele>985.49000000000001</ele>
        <time>2025-04-28T09:49:42Z</time>
      </trkpt>
      <trkpt lat="42.734294962137938" lon="-3.692543003708124">
        <ele>980.67999999999995</ele>
        <time>2025-04-28T09:49:45Z</time>
      </trkpt>
      <trkpt lat="42.734163030982018" lon="-3.692578040063381">
        <ele>978.75999999999999</ele>
        <time>2025-04-28T09:49:46Z</time>
      </trkpt>
      <trkpt lat="42.734031016007066" lon="-3.692546021193266">
        <ele>976.84000000000003</ele>
        <time>2025-04-28T09:49:47Z</time>
      </trkpt>
      <trkpt lat="42.733896989375353" lon="-3.692514002323151">
        <ele>975.38999999999999</ele>
        <time>2025-04-28T09:49:48Z</time>
      </trkpt>
      <trkpt lat="42.733765980228782" lon="-3.692482989281416">
        <ele>973.95000000000005</ele>
        <time>2025-04-28T09:49:49Z</time>
      </trkpt>
      <trkpt lat="42.733646035194397" lon="-3.692462034523487">
        <ele>972.50999999999999</ele>
        <time>2025-04-28T09:49:50Z</time>
      </trkpt>
      <trkpt lat="42.733534974977374" lon="-3.69249296374619">
        <ele>971.07000000000005</ele>
        <time>2025-04-28T09:49:51Z</time>
      </trkpt>
      <trkpt lat="42.733421986922622" lon="-3.692535040900111">
        <ele>969.63</ele>
        <time>2025-04-28T09:49:52Z</time>
      </trkpt>
      <trkpt lat="42.733384016901255" lon="-3.692638976499438">
        <ele>968.17999999999995</ele>
        <time>2025-04-28T09:49:53Z</time>
      </trkpt>
      <trkpt lat="42.733344035223126" lon="-3.6927480250597">
        <ele>967.22000000000003</ele>
        <time>2025-04-28T09:49:54Z</time>
      </trkpt>
      <trkpt lat="42.733360966667533" lon="-3.692900994792581">
        <ele>966.25999999999999</ele>
        <time>2025-04-28T09:49:55Z</time>
      </trkpt>
      <trkpt lat="42.733384016901255" lon="-3.693058993667364">
        <ele>965.29999999999995</ele>
        <time>2025-04-28T09:49:56Z</time>
      </trkpt>
      <trkpt lat="42.733450988307595" lon="-3.693225961178541">
        <ele>964.34000000000003</ele>
        <time>2025-04-28T09:49:57Z</time>
      </trkpt>
      <trkpt lat="42.733512008562684" lon="-3.693380020558834">
        <ele>963.38</ele>
        <time>2025-04-28T09:49:58Z</time>
      </trkpt>
      <trkpt lat="42.733616027981043" lon="-3.693507006391883">
        <ele>962.41999999999996</ele>
        <time>2025-04-28T09:49:59Z</time>
      </trkpt>
      <trkpt lat="42.733728010207415" lon="-3.693643966689706">
        <ele>961.46000000000004</ele>
        <time>2025-04-28T09:50:00Z</time>
      </trkpt>
      <trkpt lat="42.73384703323245" lon="-3.693788973614574">
        <ele>960.98000000000002</ele>
        <time>2025-04-28T09:50:01Z</time>
      </trkpt>
      <trkpt lat="42.733951974660158" lon="-3.693958036601543">
        <ele>960.00999999999999</ele>
        <time>2025-04-28T09:50:02Z</time>
      </trkpt>
      <trkpt lat="42.73404099047184" lon="-3.694136990234256">
        <ele>959.04999999999995</ele>
        <time>2025-04-28T09:50:03Z</time>
      </trkpt>
      <trkpt lat="42.734111985191703" lon="-3.694331031292677">
        <ele>958.09000000000003</ele>
        <time>2025-04-28T09:50:04Z</time>
      </trkpt>
      <trkpt lat="42.734160013496876" lon="-3.694550972431898">
        <ele>956.64999999999998</ele>
        <time>2025-04-28T09:50:05Z</time>
      </trkpt>
      <trkpt lat="42.734209969639778" lon="-3.694779966026545">
        <ele>955.69000000000005</ele>
        <time>2025-04-28T09:50:06Z</time>
      </trkpt>
      <trkpt lat="42.734284987673163" lon="-3.69537097401917">
        <ele>950.88</ele>
        <time>2025-04-28T09:50:09Z</time>
      </trkpt>
      <trkpt lat="42.734284987673163" lon="-3.69554397650063">
        <ele>948.96000000000004</ele>
        <time>2025-04-28T09:50:10Z</time>
      </trkpt>
      <trkpt lat="42.734207035973668" lon="-3.695681020617485">
        <ele>947.03999999999996</ele>
        <time>2025-04-28T09:50:11Z</time>
      </trkpt>
      <trkpt lat="42.73412799462676" lon="-3.695814963430166">
        <ele>945.11000000000001</ele>
        <time>2025-04-28T09:50:12Z</time>
      </trkpt>
      <trkpt lat="42.734029004350305" lon="-3.695931974798441">
        <ele>943.19000000000005</ele>
        <time>2025-04-28T09:50:13Z</time>
      </trkpt>
      <trkpt lat="42.733892966061831" lon="-3.695995006710291">
        <ele>941.26999999999998</ele>
        <time>2025-04-28T09:50:14Z</time>
      </trkpt>
      <trkpt lat="42.733746031299233" lon="-3.696063989773393">
        <ele>939.35000000000002</ele>
        <time>2025-04-28T09:50:15Z</time>
      </trkpt>
      <trkpt lat="42.733589960262179" lon="-3.696138001978397">
        <ele>937.89999999999998</ele>
        <time>2025-04-28T09:50:16Z</time>
      </trkpt>
      <trkpt lat="42.733427016064525" lon="-3.696214025840163">
        <ele>936.46000000000004</ele>
        <time>2025-04-28T09:50:17Z</time>
      </trkpt>
      <trkpt lat="42.733269017189741" lon="-3.696329025551677">
        <ele>935.01999999999998</ele>
        <time>2025-04-28T09:50:18Z</time>
      </trkpt>
      <trkpt lat="42.732477011159062" lon="-3.69700200855732">
        <ele>927.80999999999995</ele>
        <time>2025-04-28T09:50:23Z</time>
      </trkpt>
      <trkpt lat="42.732356982305646" lon="-3.697177022695541">
        <ele>926.85000000000002</ele>
        <time>2025-04-28T09:50:24Z</time>
      </trkpt>
      <trkpt lat="42.732240976765752" lon="-3.697375003248453">
        <ele>925.40999999999997</ele>
        <time>2025-04-28T09:50:25Z</time>
      </trkpt>
      <trkpt lat="42.731890026479959" lon="-3.698017979040742">
        <ele>921.08000000000004</ele>
        <time>2025-04-28T09:50:28Z</time>
      </trkpt>
      <trkpt lat="42.73174200206995" lon="-3.698210008442402">
        <ele>919.15999999999997</ele>
        <time>2025-04-28T09:50:29Z</time>
      </trkpt>
      <trkpt lat="42.73159003816545" lon="-3.698408994823694">
        <ele>917.72000000000003</ele>
        <time>2025-04-28T09:50:30Z</time>
      </trkpt>
      <trkpt lat="42.731436984613538" lon="-3.698607981204987">
        <ele>915.78999999999996</ele>
        <time>2025-04-28T09:50:31Z</time>
      </trkpt>
      <trkpt lat="42.731302035972476" lon="-3.698815014213324">
        <ele>913.87</ele>
        <time>2025-04-28T09:50:32Z</time>
      </trkpt>
      <trkpt lat="42.731169015169144" lon="-3.699020035564899">
        <ele>912.42999999999995</ele>
        <time>2025-04-28T09:50:33Z</time>
      </trkpt>
      <trkpt lat="42.730742963030934" lon="-3.699604002758861">
        <ele>906.65999999999997</ele>
        <time>2025-04-28T09:50:36Z</time>
      </trkpt>
      <trkpt lat="42.730575995519757" lon="-3.699770970270038">
        <ele>904.74000000000001</ele>
        <time>2025-04-28T09:50:37Z</time>
      </trkpt>
      <trkpt lat="42.730402993038297" lon="-3.699913965538144">
        <ele>902.82000000000005</ele>
        <time>2025-04-28T09:50:38Z</time>
      </trkpt>
      <trkpt lat="42.730254968628287" lon="-3.700026031583548">
        <ele>900.88999999999999</ele>
        <time>2025-04-28T09:50:39Z</time>
      </trkpt>
      <trkpt lat="42.730149021372199" lon="-3.700107000768185">
        <ele>898.97000000000003</ele>
        <time>2025-04-28T09:50:40Z</time>
      </trkpt>
      <trkpt lat="42.729993034154177" lon="-3.70022501796484">
        <ele>894.63999999999999</ele>
        <time>2025-04-28T09:50:45Z</time>
      </trkpt>
      <trkpt lat="42.729942994192243" lon="-3.700239015743136">
        <ele>891.75999999999999</ele>
        <time>2025-04-28T09:50:57Z</time>
      </trkpt>
      <trkpt lat="42.729776026681066" lon="-3.700283020734787">
        <ele>889.84000000000003</ele>
        <time>2025-04-28T09:51:01Z</time>
      </trkpt>
      <trkpt lat="42.729205973446369" lon="-3.700396008789539">
        <ele>884.07000000000005</ele>
        <time>2025-04-28T09:51:08Z</time>
      </trkpt>
      <trkpt lat="42.728921994566917" lon="-3.700461974367499">
        <ele>880.71000000000004</ele>
        <time>2025-04-28T09:51:12Z</time>
      </trkpt>
      <trkpt lat="42.728818980976939" lon="-3.700516037642956">
        <ele>880.71000000000004</ele>
        <time>2025-04-28T09:51:13Z</time>
      </trkpt>
      <trkpt lat="42.728244988247752" lon="-3.700818037614226">
        <ele>877.34000000000003</ele>
        <time>2025-04-28T09:51:18Z</time>
      </trkpt>
      <trkpt lat="42.72811003960669" lon="-3.700874028727412">
        <ele>876.86000000000001</ele>
        <time>2025-04-28T09:51:19Z</time>
      </trkpt>
      <trkpt lat="42.727490030229092" lon="-3.700948962941766">
        <ele>873.98000000000002</ele>
        <time>2025-04-28T09:51:23Z</time>
      </trkpt>
      <trkpt lat="42.727189036086202" lon="-3.701032027602196">
        <ele>872.04999999999995</ele>
        <time>2025-04-28T09:51:25Z</time>
      </trkpt>
      <trkpt lat="42.727060960605741" lon="-3.701120037585497">
        <ele>871.57000000000005</ele>
        <time>2025-04-28T09:51:26Z</time>
      </trkpt>
      <trkpt lat="42.726338021457195" lon="-3.701748009771109">
        <ele>867.73000000000002</ele>
        <time>2025-04-28T09:51:32Z</time>
      </trkpt>
      <trkpt lat="42.726253028959036" lon="-3.70187901891768">
        <ele>867.25</ele>
        <time>2025-04-28T09:51:33Z</time>
      </trkpt>
      <trkpt lat="42.726205000653863" lon="-3.702058978378773">
        <ele>866.76999999999998</ele>
        <time>2025-04-28T09:51:34Z</time>
      </trkpt>
      <trkpt lat="42.726157978177071" lon="-3.702257964760065">
        <ele>865.79999999999995</ele>
        <time>2025-04-28T09:51:35Z</time>
      </trkpt>
      <trkpt lat="42.726107016205788" lon="-3.702473966404796">
        <ele>865.32000000000005</ele>
        <time>2025-04-28T09:51:36Z</time>
      </trkpt>
      <trkpt lat="42.725564958527684" lon="-3.70426501147449">
        <ele>860.03999999999996</ele>
        <time>2025-04-28T09:51:44Z</time>
      </trkpt>
      <trkpt lat="42.725320039317012" lon="-3.705043019726872">
        <ele>858.11000000000001</ele>
        <time>2025-04-28T09:51:48Z</time>
      </trkpt>
      <trkpt lat="42.725244015455246" lon="-3.70518702082336">
        <ele>857.63</ele>
        <time>2025-04-28T09:51:49Z</time>
      </trkpt>
      <trkpt lat="42.725172014907002" lon="-3.705322975292802">
        <ele>857.14999999999998</ele>
        <time>2025-04-28T09:51:50Z</time>
      </trkpt>
      <trkpt lat="42.725138990208507" lon="-3.705474017187953">
        <ele>856.66999999999996</ele>
        <time>2025-04-28T09:51:51Z</time>
      </trkpt>
      <trkpt lat="42.725131027400494" lon="-3.705638973042369">
        <ele>856.66999999999996</ele>
        <time>2025-04-28T09:51:52Z</time>
      </trkpt>
      <trkpt lat="42.725122980773449" lon="-3.705808036029339">
        <ele>856.19000000000005</ele>
        <time>2025-04-28T09:51:53Z</time>
      </trkpt>
      <trkpt lat="42.725115017965436" lon="-3.705977015197277">
        <ele>856.19000000000005</ele>
        <time>2025-04-28T09:51:54Z</time>
      </trkpt>
      <trkpt lat="42.725107977166772" lon="-3.706129984930158">
        <ele>855.71000000000004</ele>
        <time>2025-04-28T09:51:55Z</time>
      </trkpt>
      <trkpt lat="42.725098002701998" lon="-3.706283960491419">
        <ele>855.23000000000002</ele>
        <time>2025-04-28T09:51:56Z</time>
      </trkpt>
      <trkpt lat="42.725048968568444" lon="-3.706426033750176">
        <ele>854.75</ele>
        <time>2025-04-28T09:51:57Z</time>
      </trkpt>
      <trkpt lat="42.724992977455258" lon="-3.706585960462689">
        <ele>853.78999999999996</ele>
        <time>2025-04-28T09:51:58Z</time>
      </trkpt>
      <trkpt lat="42.72492902353406" lon="-3.706771032884717">
        <ele>853.78999999999996</ele>
        <time>2025-04-28T09:51:59Z</time>
      </trkpt>
      <trkpt lat="42.724835984408855" lon="-3.706947974860668">
        <ele>853.30999999999995</ele>
        <time>2025-04-28T09:52:00Z</time>
      </trkpt>
      <trkpt lat="42.724583018571138" lon="-3.707559015601873">
        <ele>851.87</ele>
        <time>2025-04-28T09:52:03Z</time>
      </trkpt>
      <trkpt lat="42.724525015801191" lon="-3.707799995318055">
        <ele>851.38</ele>
        <time>2025-04-28T09:52:04Z</time>
      </trkpt>
      <trkpt lat="42.724274983629584" lon="-3.70873399078846">
        <ele>847.53999999999996</ele>
        <time>2025-04-28T09:52:08Z</time>
      </trkpt>
      <trkpt lat="42.724193008616567" lon="-3.708944041281939">
        <ele>846.58000000000004</ele>
        <time>2025-04-28T09:52:09Z</time>
      </trkpt>
      <trkpt lat="42.724084965884686" lon="-3.709134981036186">
        <ele>845.62</ele>
        <time>2025-04-28T09:52:10Z</time>
      </trkpt>
      <trkpt lat="42.723974995315075" lon="-3.709329022094607">
        <ele>845.13999999999999</ele>
        <time>2025-04-28T09:52:11Z</time>
      </trkpt>
      <trkpt lat="42.723859995603561" lon="-3.709532031789422">
        <ele>844.17999999999995</ele>
        <time>2025-04-28T09:52:12Z</time>
      </trkpt>
      <trkpt lat="42.723134038969874" lon="-3.711015963926911">
        <ele>837.45000000000005</ele>
        <time>2025-04-28T09:52:19Z</time>
      </trkpt>
      <trkpt lat="42.72308399900794" lon="-3.711193995550275">
        <ele>836.48000000000002</ele>
        <time>2025-04-28T09:52:20Z</time>
      </trkpt>
      <trkpt lat="42.723049968481064" lon="-3.711372027173638">
        <ele>835.51999999999998</ele>
        <time>2025-04-28T09:52:21Z</time>
      </trkpt>
      <trkpt lat="42.72301803342998" lon="-3.711540000513196">
        <ele>834.08000000000004</ele>
        <time>2025-04-28T09:52:22Z</time>
      </trkpt>
      <trkpt lat="42.722968999296427" lon="-3.711681989952922">
        <ele>833.12</ele>
        <time>2025-04-28T09:52:23Z</time>
      </trkpt>
      <trkpt lat="42.722881995141506" lon="-3.71180796995759">
        <ele>831.67999999999995</ele>
        <time>2025-04-28T09:52:24Z</time>
      </trkpt>
      <trkpt lat="42.722773030400276" lon="-3.711921041831374">
        <ele>830.72000000000003</ele>
        <time>2025-04-28T09:52:25Z</time>
      </trkpt>
      <trkpt lat="42.722645960748196" lon="-3.712032018229365">
        <ele>829.75999999999999</ele>
        <time>2025-04-28T09:52:26Z</time>
      </trkpt>
      <trkpt lat="42.722400035709143" lon="-3.712290013208985">
        <ele>828.30999999999995</ele>
        <time>2025-04-28T09:52:28Z</time>
      </trkpt>
      <trkpt lat="42.722285035997629" lon="-3.712435020133853">
        <ele>827.35000000000002</ele>
        <time>2025-04-28T09:52:29Z</time>
      </trkpt>
      <trkpt lat="42.722199037671089" lon="-3.712617997080088">
        <ele>826.87</ele>
        <time>2025-04-28T09:52:30Z</time>
      </trkpt>
      <trkpt lat="42.722127959132195" lon="-3.712809020653367">
        <ele>825.90999999999997</ele>
        <time>2025-04-28T09:52:31Z</time>
      </trkpt>
      <trkpt lat="42.722076997160912" lon="-3.713026028126478">
        <ele>825.42999999999995</ele>
        <time>2025-04-28T09:52:32Z</time>
      </trkpt>
      <trkpt lat="42.722026035189629" lon="-3.71324697509408">
        <ele>824.47000000000003</ele>
        <time>2025-04-28T09:52:33Z</time>
      </trkpt>
      <trkpt lat="42.721974989399314" lon="-3.713465994223952">
        <ele>823.99000000000001</ele>
        <time>2025-04-28T09:52:34Z</time>
      </trkpt>
      <trkpt lat="42.721530999988317" lon="-3.715208005160093">
        <ele>816.77999999999997</ele>
        <time>2025-04-28T09:52:42Z</time>
      </trkpt>
      <trkpt lat="42.721443995833397" lon="-3.715619975700975">
        <ele>814.85000000000002</ele>
        <time>2025-04-28T09:52:44Z</time>
      </trkpt>
      <trkpt lat="42.721418011933565" lon="-3.715791972354055">
        <ele>814.37</ele>
        <time>2025-04-28T09:52:45Z</time>
      </trkpt>
      <trkpt lat="42.721395967528224" lon="-3.715970003977418">
        <ele>813.40999999999997</ele>
        <time>2025-04-28T09:52:46Z</time>
      </trkpt>
      <trkpt lat="42.721376018598676" lon="-3.716137977316976">
        <ele>812.92999999999995</ele>
        <time>2025-04-28T09:52:47Z</time>
      </trkpt>
      <trkpt lat="42.721333019435406" lon="-3.716305028647184">
        <ele>812.45000000000005</ele>
        <time>2025-04-28T09:52:48Z</time>
      </trkpt>
      <trkpt lat="42.721270993351936" lon="-3.716463027521968">
        <ele>811.49000000000001</ele>
        <time>2025-04-28T09:52:49Z</time>
      </trkpt>
      <trkpt lat="42.721179965883493" lon="-3.716605016961694">
        <ele>811.00999999999999</ele>
        <time>2025-04-28T09:52:50Z</time>
      </trkpt>
      <trkpt lat="42.721087010577321" lon="-3.716751029714942">
        <ele>810.52999999999997</ele>
        <time>2025-04-28T09:52:51Z</time>
      </trkpt>
      <trkpt lat="42.720607984811068" lon="-3.717598021030426">
        <ele>807.15999999999997</ele>
        <time>2025-04-28T09:52:58Z</time>
      </trkpt>
      <trkpt lat="42.720256028696895" lon="-3.718353984877467">
        <ele>806.20000000000005</ele>
        <time>2025-04-28T09:53:06Z</time>
      </trkpt>
      <trkpt lat="42.720206994563341" lon="-3.718452975153923">
        <ele>806.20000000000005</ele>
        <time>2025-04-28T09:53:07Z</time>
      </trkpt>
      <trkpt lat="42.719668038189411" lon="-3.719645971432328">
        <ele>802.84000000000003</ele>
        <time>2025-04-28T09:53:19Z</time>
      </trkpt>
      <trkpt lat="42.719444995746017" lon="-3.720322977751494">
        <ele>802.84000000000003</ele>
        <time>2025-04-28T09:53:26Z</time>
      </trkpt>
      <trkpt lat="42.719293031841516" lon="-3.720778031274676">
        <ele>803.32000000000005</ele>
        <time>2025-04-28T09:53:31Z</time>
      </trkpt>
      <trkpt lat="42.719262018799782" lon="-3.720861012116075">
        <ele>803.32000000000005</ele>
        <time>2025-04-28T09:53:32Z</time>
      </trkpt>
      <trkpt lat="42.719227988272905" lon="-3.720951033756137">
        <ele>803.32000000000005</ele>
        <time>2025-04-28T09:53:33Z</time>
      </trkpt>
      <trkpt lat="42.719192029908299" lon="-3.721048012375832">
        <ele>802.84000000000003</ele>
        <time>2025-04-28T09:53:34Z</time>
      </trkpt>
      <trkpt lat="42.719151964411139" lon="-3.721153037622571">
        <ele>802.36000000000001</ele>
        <time>2025-04-28T09:53:35Z</time>
      </trkpt>
      <trkpt lat="42.719068983569741" lon="-3.721374990418553">
        <ele>801.88</ele>
        <time>2025-04-28T09:53:37Z</time>
      </trkpt>
      <trkpt lat="42.71902397274971" lon="-3.721494013443589">
        <ele>801.88</ele>
        <time>2025-04-28T09:53:38Z</time>
      </trkpt>
      <trkpt lat="42.718982985243201" lon="-3.721612030640245">
        <ele>801.39999999999998</ele>
        <time>2025-04-28T09:53:39Z</time>
      </trkpt>
      <trkpt lat="42.718963958323002" lon="-3.721747985109687">
        <ele>800.91999999999996</ele>
        <time>2025-04-28T09:53:40Z</time>
      </trkpt>
      <trkpt lat="42.718944009393454" lon="-3.721891986206174">
        <ele>800.91999999999996</ele>
        <time>2025-04-28T09:53:41Z</time>
      </trkpt>
      <trkpt lat="42.718867985531688" lon="-3.722552983090282">
        <ele>799.95000000000005</ele>
        <time>2025-04-28T09:53:45Z</time>
      </trkpt>
      <trkpt lat="42.718823980540037" lon="-3.722727997228503">
        <ele>799.47000000000003</ele>
        <time>2025-04-28T09:53:46Z</time>
      </trkpt>
      <trkpt lat="42.718758014962077" lon="-3.722889013588429">
        <ele>799.47000000000003</ele>
        <time>2025-04-28T09:53:47Z</time>
      </trkpt>
      <trkpt lat="42.718675034120679" lon="-3.723054975271225">
        <ele>798.99000000000001</ele>
        <time>2025-04-28T09:53:48Z</time>
      </trkpt>
      <trkpt lat="42.718566991388798" lon="-3.72319201938808">
        <ele>798.50999999999999</ele>
        <time>2025-04-28T09:53:49Z</time>
      </trkpt>
      <trkpt lat="42.718457020819187" lon="-3.723333002999425">
        <ele>798.02999999999997</ele>
        <time>2025-04-28T09:53:50Z</time>
      </trkpt>
      <trkpt lat="42.718345960602164" lon="-3.72347398661077">
        <ele>797.54999999999995</ele>
        <time>2025-04-28T09:53:51Z</time>
      </trkpt>
      <trkpt lat="42.71824898198247" lon="-3.723624022677541">
        <ele>797.54999999999995</ele>
        <time>2025-04-28T09:53:52Z</time>
      </trkpt>
      <trkpt lat="42.718060975894332" lon="-3.723951000720263">
        <ele>797.07000000000005</ele>
        <time>2025-04-28T09:53:54Z</time>
      </trkpt>
      <trkpt lat="42.717980006709695" lon="-3.724144035950303">
        <ele>796.59000000000003</ele>
        <time>2025-04-28T09:53:55Z</time>
      </trkpt>
      <trkpt lat="42.717897025868297" lon="-3.724345033988357">
        <ele>796.59000000000003</ele>
        <time>2025-04-28T09:53:56Z</time>
      </trkpt>
      <trkpt lat="42.71749896928668" lon="-3.725306019186974">
        <ele>795.63</ele>
        <time>2025-04-28T09:54:01Z</time>
      </trkpt>
      <trkpt lat="42.717396961525083" lon="-3.72547198086977">
        <ele>795.63</ele>
        <time>2025-04-28T09:54:02Z</time>
      </trkpt>
      <trkpt lat="42.716923970729113" lon="-3.726042034104466">
        <ele>794.66999999999996</ele>
        <time>2025-04-28T09:54:06Z</time>
      </trkpt>
      <trkpt lat="42.716844007372856" lon="-3.726201960816979">
        <ele>794.19000000000005</ele>
        <time>2025-04-28T09:54:07Z</time>
      </trkpt>
      <trkpt lat="42.716805031523108" lon="-3.726397007703781">
        <ele>793.71000000000004</ele>
        <time>2025-04-28T09:54:08Z</time>
      </trkpt>
      <trkpt lat="42.716435976326466" lon="-3.728075986728072">
        <ele>788.89999999999998</ele>
        <time>2025-04-28T09:54:15Z</time>
      </trkpt>
      <trkpt lat="42.715852009132504" lon="-3.730462985113263">
        <ele>782.16999999999996</ele>
        <time>2025-04-28T09:54:24Z</time>
      </trkpt>
      <trkpt lat="42.715766010805964" lon="-3.730690972879529">
        <ele>782.16999999999996</ele>
        <time>2025-04-28T09:54:25Z</time>
      </trkpt>
      <trkpt lat="42.715128986164927" lon="-3.732619984075427">
        <ele>776.39999999999998</ele>
        <time>2025-04-28T09:54:33Z</time>
      </trkpt>
      <trkpt lat="42.714801002293825" lon="-3.734042979776859">
        <ele>770.63</ele>
        <time>2025-04-28T09:54:39Z</time>
      </trkpt>
      <trkpt lat="42.714822962880135" lon="-3.734325030818582">
        <ele>769.66999999999996</ele>
        <time>2025-04-28T09:54:40Z</time>
      </trkpt>
      <trkpt lat="42.714851964265108" lon="-3.734584031626582">
        <ele>769.19000000000005</ele>
        <time>2025-04-28T09:54:41Z</time>
      </trkpt>
      <trkpt lat="42.714988002553582" lon="-3.735791025683284">
        <ele>767.26999999999998</ele>
        <time>2025-04-28T09:54:46Z</time>
      </trkpt>
      <trkpt lat="42.714965958148241" lon="-3.736008033156395">
        <ele>767.75</ele>
        <time>2025-04-28T09:54:47Z</time>
      </trkpt>
      <trkpt lat="42.714931005612016" lon="-3.736202996224165">
        <ele>767.75</ele>
        <time>2025-04-28T09:54:48Z</time>
      </trkpt>
      <trkpt lat="42.71485598757863" lon="-3.736383961513639">
        <ele>768.23000000000002</ele>
        <time>2025-04-28T09:54:49Z</time>
      </trkpt>
      <trkpt lat="42.714779041707516" lon="-3.736561993137002">
        <ele>768.23000000000002</ele>
        <time>2025-04-28T09:54:50Z</time>
      </trkpt>
      <trkpt lat="42.71470301784575" lon="-3.736741030588746">
        <ele>767.75</ele>
        <time>2025-04-28T09:54:51Z</time>
      </trkpt>
      <trkpt lat="42.714659012854099" lon="-3.736930964514613">
        <ele>767.26999999999998</ele>
        <time>2025-04-28T09:54:52Z</time>
      </trkpt>
      <trkpt lat="42.714637974277139" lon="-3.737126011401415">
        <ele>766.78999999999996</ele>
        <time>2025-04-28T09:54:53Z</time>
      </trkpt>
      <trkpt lat="42.714637974277139" lon="-3.737304965034127">
        <ele>766.78999999999996</ele>
        <time>2025-04-28T09:54:54Z</time>
      </trkpt>
      <trkpt lat="42.714652977883816" lon="-3.73748199082911">
        <ele>766.30999999999995</ele>
        <time>2025-04-28T09:54:55Z</time>
      </trkpt>
      <trkpt lat="42.714708968997002" lon="-3.737661028280854">
        <ele>766.30999999999995</ele>
        <time>2025-04-28T09:54:56Z</time>
      </trkpt>
      <trkpt lat="42.714765965938568" lon="-3.737842999398708">
        <ele>766.30999999999995</ele>
        <time>2025-04-28T09:54:57Z</time>
      </trkpt>
      <trkpt lat="42.714994037523866" lon="-3.738569961860776">
        <ele>766.30999999999995</ele>
        <time>2025-04-28T09:55:01Z</time>
      </trkpt>
      <trkpt lat="42.715095039457083" lon="-3.739663967862725">
        <ele>765.83000000000004</ele>
        <time>2025-04-28T09:55:07Z</time>
      </trkpt>
      <trkpt lat="42.715229988098145" lon="-3.740984033793211">
        <ele>762.46000000000004</ele>
        <time>2025-04-28T09:55:15Z</time>
      </trkpt>
      <trkpt lat="42.715229988098145" lon="-3.741108002141118">
        <ele>761.98000000000002</ele>
        <time>2025-04-28T09:55:16Z</time>
      </trkpt>
      <trkpt lat="42.715229988098145" lon="-3.741604965180159">
        <ele>759.10000000000002</ele>
        <time>2025-04-28T09:55:20Z</time>
      </trkpt>
      <trkpt lat="42.715229988098145" lon="-3.741722982376814">
        <ele>758.62</ele>
        <time>2025-04-28T09:55:21Z</time>
      </trkpt>
      <trkpt lat="42.715229988098145" lon="-3.741833958774805">
        <ele>757.65999999999997</ele>
        <time>2025-04-28T09:55:22Z</time>
      </trkpt>
      <trkpt lat="42.715208027511835" lon="-3.742119027301669">
        <ele>755.25</ele>
        <time>2025-04-28T09:55:25Z</time>
      </trkpt>
      <trkpt lat="42.71515698172152" lon="-3.742491016164422">
        <ele>752.37</ele>
        <time>2025-04-28T09:55:29Z</time>
      </trkpt>
      <trkpt lat="42.71517600864172" lon="-3.742578020319343">
        <ele>751.88999999999999</ele>
        <time>2025-04-28T09:55:30Z</time>
      </trkpt>
      <trkpt lat="42.715197969228029" lon="-3.742678016424179">
        <ele>750.92999999999995</ele>
        <time>2025-04-28T09:55:31Z</time>
      </trkpt>
      <trkpt lat="42.715221019461751" lon="-3.742783963680267">
        <ele>750.45000000000005</ele>
        <time>2025-04-28T09:55:32Z</time>
      </trkpt>
      <trkpt lat="42.715245997533202" lon="-3.742898041382432">
        <ele>750.45000000000005</ele>
        <time>2025-04-28T09:55:33Z</time>
      </trkpt>
      <trkpt lat="42.715343981981277" lon="-3.743248991668224">
        <ele>749.97000000000003</ele>
        <time>2025-04-28T09:55:36Z</time>
      </trkpt>
      <trkpt lat="42.715387986972928" lon="-3.743366003036499">
        <ele>749.49000000000001</ele>
        <time>2025-04-28T09:55:37Z</time>
      </trkpt>
      <trkpt lat="42.716015037149191" lon="-3.744536032900214">
        <ele>748.03999999999996</ele>
        <time>2025-04-28T09:55:49Z</time>
      </trkpt>
      <trkpt lat="42.71605895832181" lon="-3.744609961286187">
        <ele>748.03999999999996</ele>
        <time>2025-04-28T09:55:50Z</time>
      </trkpt>
      <trkpt lat="42.71610296331346" lon="-3.744681961834431">
        <ele>748.03999999999996</ele>
        <time>2025-04-28T09:55:51Z</time>
      </trkpt>
      <trkpt lat="42.716131964698434" lon="-3.744728984311223">
        <ele>748.03999999999996</ele>
        <time>2025-04-28T09:55:52Z</time>
      </trkpt>
      <trkpt lat="42.716153003275394" lon="-3.744856975972652">
        <ele>748.03999999999996</ele>
        <time>2025-04-28T09:55:53Z</time>
      </trkpt>
      <trkpt lat="42.716174963861704" lon="-3.744985973462462">
        <ele>748.51999999999998</ele>
        <time>2025-04-28T09:55:54Z</time>
      </trkpt>
      <trkpt lat="42.716169012710452" lon="-3.745056968182325">
        <ele>748.51999999999998</ele>
        <time>2025-04-28T09:55:55Z</time>
      </trkpt>
      <trkpt lat="42.716160966083407" lon="-3.745171967893839">
        <ele>748.51999999999998</ele>
        <time>2025-04-28T09:55:56Z</time>
      </trkpt>
      <trkpt lat="42.716151997447014" lon="-3.745288979262114">
        <ele>748.03999999999996</ele>
        <time>2025-04-28T09:55:57Z</time>
      </trkpt>
      <trkpt lat="42.716128025203943" lon="-3.745630960911512">
        <ele>746.12</ele>
        <time>2025-04-28T09:56:00Z</time>
      </trkpt>
      <trkpt lat="42.716116961091757" lon="-3.745975960046053">
        <ele>744.67999999999995</ele>
        <time>2025-04-28T09:56:03Z</time>
      </trkpt>
      <trkpt lat="42.716125007718801" lon="-3.74609699472785">
        <ele>744.20000000000005</ele>
        <time>2025-04-28T09:56:04Z</time>
      </trkpt>
      <trkpt lat="42.716145040467381" lon="-3.746245019137859">
        <ele>743.72000000000003</ele>
        <time>2025-04-28T09:56:05Z</time>
      </trkpt>
      <trkpt lat="42.716188039630651" lon="-3.746367981657386">
        <ele>743.24000000000001</ele>
        <time>2025-04-28T09:56:06Z</time>
      </trkpt>
      <trkpt lat="42.716233972460032" lon="-3.746496979147196">
        <ele>743.24000000000001</ele>
        <time>2025-04-28T09:56:07Z</time>
      </trkpt>
      <trkpt lat="42.716308990493417" lon="-3.746610973030329">
        <ele>742.75999999999999</ele>
        <time>2025-04-28T09:56:08Z</time>
      </trkpt>
      <trkpt lat="42.716384008526802" lon="-3.746720021590591">
        <ele>742.27999999999997</ele>
        <time>2025-04-28T09:56:09Z</time>
      </trkpt>
      <trkpt lat="42.716461960226297" lon="-3.746833009645343">
        <ele>741.78999999999996</ele>
        <time>2025-04-28T09:56:10Z</time>
      </trkpt>
      <trkpt lat="42.716542007401586" lon="-3.746949015185237">
        <ele>741.30999999999995</ele>
        <time>2025-04-28T09:56:11Z</time>
      </trkpt>
      <trkpt lat="42.716693971306086" lon="-3.747185971587896">
        <ele>740.83000000000004</ele>
        <time>2025-04-28T09:56:13Z</time>
      </trkpt>
      <trkpt lat="42.716754991561174" lon="-3.747313041239977">
        <ele>740.35000000000002</ele>
        <time>2025-04-28T09:56:14Z</time>
      </trkpt>
      <trkpt lat="42.717102002352476" lon="-3.748315013945103">
        <ele>736.99000000000001</ele>
        <time>2025-04-28T09:56:23Z</time>
      </trkpt>
      <trkpt lat="42.717306017875671" lon="-3.749209027737379">
        <ele>737.95000000000005</ele>
        <time>2025-04-28T09:56:33Z</time>
      </trkpt>
      <trkpt lat="42.717364020645618" lon="-3.749264013022184">
        <ele>738.42999999999995</ele>
        <time>2025-04-28T09:56:34Z</time>
      </trkpt>
      <trkpt lat="42.717414982616901" lon="-3.749292008578777">
        <ele>738.42999999999995</ele>
        <time>2025-04-28T09:56:35Z</time>
      </trkpt>
      <trkpt lat="42.717686975374818" lon="-3.749462999403477">
        <ele>738.90999999999997</ele>
        <time>2025-04-28T09:56:39Z</time>
      </trkpt>
      <trkpt lat="42.717771967872977" lon="-3.749519996345043">
        <ele>738.42999999999995</ele>
        <time>2025-04-28T09:56:40Z</time>
      </trkpt>
      <trkpt lat="42.717876993119717" lon="-3.74955696053803">
        <ele>738.42999999999995</ele>
        <time>2025-04-28T09:56:41Z</time>
      </trkpt>
      <trkpt lat="42.717983024194837" lon="-3.74955696053803">
        <ele>738.42999999999995</ele>
        <time>2025-04-28T09:56:42Z</time>
      </trkpt>
      <trkpt lat="42.718103975057602" lon="-3.749548997730017">
        <ele>737.95000000000005</ele>
        <time>2025-04-28T09:56:43Z</time>
      </trkpt>
      <trkpt lat="42.718213023617864" lon="-3.749502981081605">
        <ele>737.95000000000005</ele>
        <time>2025-04-28T09:56:44Z</time>
      </trkpt>
      <trkpt lat="42.718324000015855" lon="-3.749456964433193">
        <ele>737.47000000000003</ele>
        <time>2025-04-28T09:56:45Z</time>
      </trkpt>
      <trkpt lat="42.719099996611476" lon="-3.749219002202153">
        <ele>736.99000000000001</ele>
        <time>2025-04-28T09:56:52Z</time>
      </trkpt>
      <trkpt lat="42.719207033514977" lon="-3.749193018302321">
        <ele>736.99000000000001</ele>
        <time>2025-04-28T09:56:53Z</time>
      </trkpt>
      <trkpt lat="42.719331001862884" lon="-3.74921003356576">
        <ele>736.99000000000001</ele>
        <time>2025-04-28T09:56:54Z</time>
      </trkpt>
      <trkpt lat="42.720942003652453" lon="-3.749510021880269">
        <ele>736.50999999999999</ele>
        <time>2025-04-28T09:57:06Z</time>
      </trkpt>
      <trkpt lat="42.722269026562572" lon="-3.750064987689257">
        <ele>734.58000000000004</ele>
        <time>2025-04-28T09:57:16Z</time>
      </trkpt>
      <trkpt lat="42.722497014328837" lon="-3.750201025977731">
        <ele>734.10000000000002</ele>
        <time>2025-04-28T09:57:18Z</time>
      </trkpt>
      <trkpt lat="42.723369989544153" lon="-3.75097400508821">
        <ele>738.42999999999995</ele>
        <time>2025-04-28T09:57:27Z</time>
      </trkpt>
      <trkpt lat="42.724253023043275" lon="-3.751349011436105">
        <ele>739.87</ele>
        <time>2025-04-28T09:57:34Z</time>
      </trkpt>
      <trkpt lat="42.724402975291014" lon="-3.751439033076167">
        <ele>740.35000000000002</ele>
        <time>2025-04-28T09:57:35Z</time>
      </trkpt>
      <trkpt lat="42.72454597055912" lon="-3.751551015302539">
        <ele>740.83000000000004</ele>
        <time>2025-04-28T09:57:36Z</time>
      </trkpt>
      <trkpt lat="42.725591026246548" lon="-3.752416027709842">
        <ele>739.38999999999999</ele>
        <time>2025-04-28T09:57:43Z</time>
      </trkpt>
      <trkpt lat="42.725728992372751" lon="-3.752587018534541">
        <ele>738.90999999999997</ele>
        <time>2025-04-28T09:57:44Z</time>
      </trkpt>
      <trkpt lat="42.725867964327335" lon="-3.752759015187621">
        <ele>738.42999999999995</ele>
        <time>2025-04-28T09:57:45Z</time>
      </trkpt>
      <trkpt lat="42.726528961211443" lon="-3.753738021478057">
        <ele>735.54999999999995</ele>
        <time>2025-04-28T09:57:50Z</time>
      </trkpt>
      <trkpt lat="42.726646978408098" lon="-3.753962991759181">
        <ele>734.58000000000004</ele>
        <time>2025-04-28T09:57:51Z</time>
      </trkpt>
      <trkpt lat="42.726749991998076" lon="-3.754205983132124">
        <ele>734.10000000000002</ele>
        <time>2025-04-28T09:57:52Z</time>
      </trkpt>
      <trkpt lat="42.727338988333941" lon="-3.756328029558063">
        <ele>730.74000000000001</ele>
        <time>2025-04-28T09:58:00Z</time>
      </trkpt>
      <trkpt lat="42.727613998576999" lon="-3.757538041099906">
        <ele>731.22000000000003</ele>
        <time>2025-04-28T09:58:05Z</time>
      </trkpt>
      <trkpt lat="42.727706031873822" lon="-3.757765023037791">
        <ele>731.22000000000003</ele>
        <time>2025-04-28T09:58:06Z</time>
      </trkpt>
      <trkpt lat="42.728300979360938" lon="-3.759122975170612">
        <ele>731.70000000000005</ele>
        <time>2025-04-28T09:58:12Z</time>
      </trkpt>
      <trkpt lat="42.728340961039066" lon="-3.759361021220684">
        <ele>731.70000000000005</ele>
        <time>2025-04-28T09:58:13Z</time>
      </trkpt>
      <trkpt lat="42.728332998231053" lon="-3.759605018422008">
        <ele>731.22000000000003</ele>
        <time>2025-04-28T09:58:14Z</time>
      </trkpt>
      <trkpt lat="42.728244988247752" lon="-3.760890970006585">
        <ele>728.34000000000003</ele>
        <time>2025-04-28T09:58:19Z</time>
      </trkpt>
      <trkpt lat="42.728252029046416" lon="-3.761123986914754">
        <ele>727.86000000000001</ele>
        <time>2025-04-28T09:58:20Z</time>
      </trkpt>
      <trkpt lat="42.728312965482473" lon="-3.761343006044626">
        <ele>727.86000000000001</ele>
        <time>2025-04-28T09:58:21Z</time>
      </trkpt>
      <trkpt lat="42.728384966030717" lon="-3.76156697049737">
        <ele>727.37</ele>
        <time>2025-04-28T09:58:22Z</time>
      </trkpt>
      <trkpt lat="42.728467024862766" lon="-3.761795964092016">
        <ele>726.88999999999999</ele>
        <time>2025-04-28T09:58:23Z</time>
      </trkpt>
      <trkpt lat="42.72884395904839" lon="-3.762978985905647">
        <ele>725.45000000000005</ele>
        <time>2025-04-28T09:58:28Z</time>
      </trkpt>
      <trkpt lat="42.728850999847054" lon="-3.763224994763732">
        <ele>724.97000000000003</ele>
        <time>2025-04-28T09:58:29Z</time>
      </trkpt>
      <trkpt lat="42.728844964876771" lon="-3.763475026935339">
        <ele>724.97000000000003</ele>
        <time>2025-04-28T09:58:30Z</time>
      </trkpt>
      <trkpt lat="42.728748992085457" lon="-3.764684032648802">
        <ele>724.97000000000003</ele>
        <time>2025-04-28T09:58:35Z</time>
      </trkpt>
      <trkpt lat="42.728657964617014" lon="-3.764911014586687">
        <ele>724.97000000000003</ele>
        <time>2025-04-28T09:58:36Z</time>
      </trkpt>
      <trkpt lat="42.728571966290474" lon="-3.765123998746276">
        <ele>724.97000000000003</ele>
        <time>2025-04-28T09:58:37Z</time>
      </trkpt>
      <trkpt lat="42.727496987208724" lon="-3.767210002988577">
        <ele>722.57000000000005</ele>
        <time>2025-04-28T09:58:47Z</time>
      </trkpt>
      <trkpt lat="42.727138996124268" lon="-3.767923973500729">
        <ele>722.57000000000005</ele>
        <time>2025-04-28T09:58:51Z</time>
      </trkpt>
      <trkpt lat="42.727118041366339" lon="-3.768186997622252">
        <ele>722.09000000000003</ele>
        <time>2025-04-28T09:58:52Z</time>
      </trkpt>
      <trkpt lat="42.72710002027452" lon="-3.768395958468318">
        <ele>722.09000000000003</ele>
        <time>2025-04-28T09:58:53Z</time>
      </trkpt>
      <trkpt lat="42.727120975032449" lon="-3.768601985648274">
        <ele>722.09000000000003</ele>
        <time>2025-04-28T09:58:54Z</time>
      </trkpt>
      <trkpt lat="42.727152993902564" lon="-3.76882703974843">
        <ele>722.09000000000003</ele>
        <time>2025-04-28T09:58:55Z</time>
      </trkpt>
      <trkpt lat="42.72718702442944" lon="-3.769057961180806">
        <ele>721.61000000000001</ele>
        <time>2025-04-28T09:58:56Z</time>
      </trkpt>
      <trkpt lat="42.727255001664162" lon="-3.769269017502666">
        <ele>721.61000000000001</ele>
        <time>2025-04-28T09:58:57Z</time>
      </trkpt>
      <trkpt lat="42.727360026910901" lon="-3.769474038854241">
        <ele>721.61000000000001</ele>
        <time>2025-04-28T09:58:58Z</time>
      </trkpt>
      <trkpt lat="42.727464968338609" lon="-3.769680988043547">
        <ele>721.61000000000001</ele>
        <time>2025-04-28T09:58:59Z</time>
      </trkpt>
      <trkpt lat="42.727666972205043" lon="-3.770076027140021">
        <ele>720.64999999999998</ele>
        <time>2025-04-28T09:59:01Z</time>
      </trkpt>
      <trkpt lat="42.727723969146609" lon="-3.770295968279243">
        <ele>720.15999999999997</ele>
        <time>2025-04-28T09:59:02Z</time>
      </trkpt>
      <trkpt lat="42.727744001895189" lon="-3.770528985187411">
        <ele>719.67999999999995</ele>
        <time>2025-04-28T09:59:03Z</time>
      </trkpt>
      <trkpt lat="42.727750036865473" lon="-3.770771976560354">
        <ele>719.20000000000005</ele>
        <time>2025-04-28T09:59:04Z</time>
      </trkpt>
      <trkpt lat="42.727755988016725" lon="-3.771017985418439">
        <ele>718.72000000000003</ele>
        <time>2025-04-28T09:59:05Z</time>
      </trkpt>
      <trkpt lat="42.727790018543601" lon="-3.772715991362929">
        <ele>716.32000000000005</ele>
        <time>2025-04-28T09:59:12Z</time>
      </trkpt>
      <trkpt lat="42.72791801020503" lon="-3.773680999875069">
        <ele>715.36000000000001</ele>
        <time>2025-04-28T09:59:16Z</time>
      </trkpt>
      <trkpt lat="42.727932007983327" lon="-3.773922985419631">
        <ele>714.88</ele>
        <time>2025-04-28T09:59:17Z</time>
      </trkpt>
      <trkpt lat="42.727699996903539" lon="-3.776179980486631">
        <ele>712.47000000000003</ele>
        <time>2025-04-28T09:59:26Z</time>
      </trkpt>
      <trkpt lat="42.727664038538933" lon="-3.778230026364327">
        <ele>712.95000000000005</ele>
        <time>2025-04-28T09:59:34Z</time>
      </trkpt>
      <trkpt lat="42.727762022987008" lon="-3.781756041571498">
        <ele>713.44000000000005</ele>
        <time>2025-04-28T09:59:47Z</time>
      </trkpt>
      <trkpt lat="42.727762022987008" lon="-3.782010013237596">
        <ele>713.91999999999996</ele>
        <time>2025-04-28T09:59:48Z</time>
      </trkpt>
      <trkpt lat="42.727730004116893" lon="-3.782998993992806">
        <ele>713.44000000000005</ele>
        <time>2025-04-28T09:59:52Z</time>
      </trkpt>
      <trkpt lat="42.72776897996664" lon="-3.783237962052226">
        <ele>712.95000000000005</ele>
        <time>2025-04-28T09:59:53Z</time>
      </trkpt>
      <trkpt lat="42.727819019928575" lon="-3.78347902558744">
        <ele>712.95000000000005</ele>
        <time>2025-04-28T09:59:54Z</time>
      </trkpt>
      <trkpt lat="42.728052036836743" lon="-3.784675039350987">
        <ele>711.50999999999999</ele>
        <time>2025-04-28T09:59:59Z</time>
      </trkpt>
      <trkpt lat="42.728065028786659" lon="-3.784931022673845">
        <ele>711.02999999999997</ele>
        <time>2025-04-28T10:00:00Z</time>
      </trkpt>
      <trkpt lat="42.728287987411022" lon="-3.78730502910912">
        <ele>709.59000000000003</ele>
        <time>2025-04-28T10:00:09Z</time>
      </trkpt>
      <trkpt lat="42.728298967704177" lon="-3.789108982309699">
        <ele>708.63</ele>
        <time>2025-04-28T10:00:16Z</time>
      </trkpt>
      <trkpt lat="42.728274995461106" lon="-3.789363037794828">
        <ele>708.14999999999998</ele>
        <time>2025-04-28T10:00:17Z</time>
      </trkpt>
      <trkpt lat="42.727891020476818" lon="-3.791485000401735">
        <ele>705.75</ele>
        <time>2025-04-28T10:00:26Z</time>
      </trkpt>
      <trkpt lat="42.727929996326566" lon="-3.791653979569674">
        <ele>705.25999999999999</ele>
        <time>2025-04-28T10:00:27Z</time>
      </trkpt>
      <trkpt lat="42.727976012974977" lon="-3.791850032284856">
        <ele>704.29999999999995</ele>
        <time>2025-04-28T10:00:28Z</time>
      </trkpt>
      <trkpt lat="42.728040972724557" lon="-3.791967965662479">
        <ele>703.82000000000005</ele>
        <time>2025-04-28T10:00:29Z</time>
      </trkpt>
      <trkpt lat="42.728129988536239" lon="-3.792116995900869">
        <ele>703.34000000000003</ele>
        <time>2025-04-28T10:00:30Z</time>
      </trkpt>
      <trkpt lat="42.7282390370965" lon="-3.792254962027073">
        <ele>703.34000000000003</ele>
        <time>2025-04-28T10:00:31Z</time>
      </trkpt>
      <trkpt lat="42.728560985997319" lon="-3.792704986408353">
        <ele>701.41999999999996</ele>
        <time>2025-04-28T10:00:34Z</time>
      </trkpt>
      <trkpt lat="42.728834990411997" lon="-3.793136989697814">
        <ele>699.5</ele>
        <time>2025-04-28T10:00:37Z</time>
      </trkpt>
      <trkpt lat="42.728954013437033" lon="-3.793205972760916">
        <ele>699.01999999999998</ele>
        <time>2025-04-28T10:00:38Z</time>
      </trkpt>
      <trkpt lat="42.729219971224666" lon="-3.793366989120841">
        <ele>697.57000000000005</ele>
        <time>2025-04-28T10:00:40Z</time>
      </trkpt>
      <trkpt lat="42.730484968051314" lon="-3.794496031478047">
        <ele>693.73000000000002</ele>
        <time>2025-04-28T10:00:49Z</time>
      </trkpt>
      <trkpt lat="42.73103398270905" lon="-3.795064995065332">
        <ele>692.28999999999996</ele>
        <time>2025-04-28T10:00:53Z</time>
      </trkpt>
      <trkpt lat="42.731165997684002" lon="-3.795205978676677">
        <ele>692.28999999999996</ele>
        <time>2025-04-28T10:00:54Z</time>
      </trkpt>
      <trkpt lat="42.731282003223896" lon="-3.795371018350124">
        <ele>691.80999999999995</ele>
        <time>2025-04-28T10:00:55Z</time>
      </trkpt>
      <trkpt lat="42.731512002646923" lon="-3.795908968895674">
        <ele>691.80999999999995</ele>
        <time>2025-04-28T10:00:58Z</time>
      </trkpt>
      <trkpt lat="42.731560030952096" lon="-3.796097980812192">
        <ele>691.33000000000004</ele>
        <time>2025-04-28T10:00:59Z</time>
      </trkpt>
      <trkpt lat="42.731576040387154" lon="-3.796278024092317">
        <ele>691.33000000000004</ele>
        <time>2025-04-28T10:01:00Z</time>
      </trkpt>
      <trkpt lat="42.73156899958849" lon="-3.796472987160087">
        <ele>691.80999999999995</ele>
        <time>2025-04-28T10:01:01Z</time>
      </trkpt>
      <trkpt lat="42.731551984325051" lon="-3.796655964106321">
        <ele>691.80999999999995</ele>
        <time>2025-04-28T10:01:02Z</time>
      </trkpt>
      <trkpt lat="42.731537986546755" lon="-3.796806000173092">
        <ele>691.33000000000004</ele>
        <time>2025-04-28T10:01:03Z</time>
      </trkpt>
      <trkpt lat="42.73156899958849" lon="-3.797010015696287">
        <ele>690.84000000000003</ele>
        <time>2025-04-28T10:01:04Z</time>
      </trkpt>
      <trkpt lat="42.731621973216534" lon="-3.797197015956044">
        <ele>689.88</ele>
        <time>2025-04-28T10:01:05Z</time>
      </trkpt>
      <trkpt lat="42.7316979970783" lon="-3.797357026487589">
        <ele>689.39999999999998</ele>
        <time>2025-04-28T10:01:06Z</time>
      </trkpt>
      <trkpt lat="42.731800004839897" lon="-3.79751100204885">
        <ele>689.39999999999998</ele>
        <time>2025-04-28T10:01:07Z</time>
      </trkpt>
      <trkpt lat="42.73197895847261" lon="-3.797818031162024">
        <ele>687.96000000000004</ele>
        <time>2025-04-28T10:01:09Z</time>
      </trkpt>
      <trkpt lat="42.732037967070937" lon="-3.79800695925951">
        <ele>687.48000000000002</ele>
        <time>2025-04-28T10:01:10Z</time>
      </trkpt>
      <trkpt lat="42.732084989547729" lon="-3.798194965347648">
        <ele>687</ele>
        <time>2025-04-28T10:01:11Z</time>
      </trkpt>
      <trkpt lat="42.732121031731367" lon="-3.798386994749308">
        <ele>686.51999999999998</ele>
        <time>2025-04-28T10:01:12Z</time>
      </trkpt>
      <trkpt lat="42.732157995924354" lon="-3.798586986958981">
        <ele>685.55999999999995</ele>
        <time>2025-04-28T10:01:13Z</time>
      </trkpt>
      <trkpt lat="42.732289005070925" lon="-3.799171037971973">
        <ele>684.12</ele>
        <time>2025-04-28T10:01:16Z</time>
      </trkpt>
      <trkpt lat="42.732484973967075" lon="-3.799987016245723">
        <ele>682.66999999999996</ele>
        <time>2025-04-28T10:01:20Z</time>
      </trkpt>
      <trkpt lat="42.732573989778757" lon="-3.80058498121798">
        <ele>681.71000000000004</ele>
        <time>2025-04-28T10:01:23Z</time>
      </trkpt>
      <trkpt lat="42.732629980891943" lon="-3.800783967599273">
        <ele>681.23000000000002</ele>
        <time>2025-04-28T10:01:24Z</time>
      </trkpt>
      <trkpt lat="42.732861991971731" lon="-3.801373969763517">
        <ele>681.23000000000002</ele>
        <time>2025-04-28T10:01:27Z</time>
      </trkpt>
      <trkpt lat="42.73292301222682" lon="-3.80157396197319">
        <ele>681.23000000000002</ele>
        <time>2025-04-28T10:01:28Z</time>
      </trkpt>
      <trkpt lat="42.732954025268555" lon="-3.801787029951811">
        <ele>681.71000000000004</ele>
        <time>2025-04-28T10:01:29Z</time>
      </trkpt>
      <trkpt lat="42.733012028038502" lon="-3.802206041291356">
        <ele>682.66999999999996</ele>
        <time>2025-04-28T10:01:31Z</time>
      </trkpt>
      <trkpt lat="42.733045974746346" lon="-3.802422964945436">
        <ele>683.14999999999998</ele>
        <time>2025-04-28T10:01:32Z</time>
      </trkpt>
      <trkpt lat="42.733118981122971" lon="-3.802618011832237">
        <ele>683.63</ele>
        <time>2025-04-28T10:01:33Z</time>
      </trkpt>
      <trkpt lat="42.73341603577137" lon="-3.803537003695965">
        <ele>686.51999999999998</ele>
        <time>2025-04-28T10:01:39Z</time>
      </trkpt>
      <trkpt lat="42.733427016064525" lon="-3.803607998415828">
        <ele>687.48000000000002</ele>
        <time>2025-04-28T10:01:41Z</time>
      </trkpt>
      <trkpt lat="42.733498010784388" lon="-3.803818970918655">
        <ele>687.96000000000004</ele>
        <time>2025-04-28T10:01:42Z</time>
      </trkpt>
      <trkpt lat="42.733533969148993" lon="-3.803822994232178">
        <ele>688.44000000000005</ele>
        <time>2025-04-28T10:01:43Z</time>
      </trkpt>
      <trkpt lat="42.733617033809423" lon="-3.803822994232178">
        <ele>688.91999999999996</ele>
        <time>2025-04-28T10:01:44Z</time>
      </trkpt>
      <trkpt lat="42.73369699716568" lon="-3.803822994232178">
        <ele>689.39999999999998</ele>
        <time>2025-04-28T10:01:45Z</time>
      </trkpt>
      <trkpt lat="42.733788024634123" lon="-3.803822994232178">
        <ele>689.88</ele>
        <time>2025-04-28T10:01:46Z</time>
      </trkpt>
      <trkpt lat="42.73389196023345" lon="-3.803822994232178">
        <ele>690.36000000000001</ele>
        <time>2025-04-28T10:01:47Z</time>
      </trkpt>
      <trkpt lat="42.734011989086866" lon="-3.803822994232178">
        <ele>690.84000000000003</ele>
        <time>2025-04-28T10:01:48Z</time>
      </trkpt>
      <trkpt lat="42.734695030376315" lon="-3.803563993424177">
        <ele>692.28999999999996</ele>
        <time>2025-04-28T10:01:53Z</time>
      </trkpt>
      <trkpt lat="42.735784007236362" lon="-3.802372002974153">
        <ele>691.80999999999995</ele>
        <time>2025-04-28T10:02:03Z</time>
      </trkpt>
      <trkpt lat="42.736263033002615" lon="-3.801426021382213">
        <ele>691.80999999999995</ele>
        <time>2025-04-28T10:02:11Z</time>
      </trkpt>
      <trkpt lat="42.736369986087084" lon="-3.801202978938818">
        <ele>692.28999999999996</ele>
        <time>2025-04-28T10:02:13Z</time>
      </trkpt>
      <trkpt lat="42.73642597720027" lon="-3.80110097117722">
        <ele>692.76999999999998</ele>
        <time>2025-04-28T10:02:14Z</time>
      </trkpt>
      <trkpt lat="42.7365090418607" lon="-3.800998041406274">
        <ele>693.25</ele>
        <time>2025-04-28T10:02:15Z</time>
      </trkpt>
      <trkpt lat="42.736591016873717" lon="-3.800916988402605">
        <ele>693.73000000000002</ele>
        <time>2025-04-28T10:02:16Z</time>
      </trkpt>
      <trkpt lat="42.736675003543496" lon="-3.800839958712459">
        <ele>694.21000000000004</ele>
        <time>2025-04-28T10:02:17Z</time>
      </trkpt>
      <trkpt lat="42.736764019355178" lon="-3.800774998962879">
        <ele>694.69000000000005</ele>
        <time>2025-04-28T10:02:18Z</time>
      </trkpt>
      <trkpt lat="42.736858986318111" lon="-3.800706015899777">
        <ele>694.69000000000005</ele>
        <time>2025-04-28T10:02:19Z</time>
      </trkpt>
      <trkpt lat="42.737846961244941" lon="-3.80019698292017">
        <ele>696.13</ele>
        <time>2025-04-28T10:02:27Z</time>
      </trkpt>
      <trkpt lat="42.738003032281995" lon="-3.800180973485112">
        <ele>696.61000000000001</ele>
        <time>2025-04-28T10:02:28Z</time>
      </trkpt>
      <trkpt lat="42.738142004236579" lon="-3.800183990970254">
        <ele>696.61000000000001</ele>
        <time>2025-04-28T10:02:29Z</time>
      </trkpt>
      <trkpt lat="42.738289022818208" lon="-3.800200000405312">
        <ele>696.61000000000001</ele>
        <time>2025-04-28T10:02:30Z</time>
      </trkpt>
      <trkpt lat="42.738448027521372" lon="-3.80021802149713">
        <ele>697.09000000000003</ele>
        <time>2025-04-28T10:02:31Z</time>
      </trkpt>
      <trkpt lat="42.738582976162434" lon="-3.800278035923839">
        <ele>697.09000000000003</ele>
        <time>2025-04-28T10:02:32Z</time>
      </trkpt>
      <trkpt lat="42.738727983087301" lon="-3.800371997058392">
        <ele>697.57000000000005</ele>
        <time>2025-04-28T10:02:33Z</time>
      </trkpt>
      <trkpt lat="42.738871984183788" lon="-3.800485990941525">
        <ele>697.57000000000005</ele>
        <time>2025-04-28T10:02:34Z</time>
      </trkpt>
      <trkpt lat="42.739006010815501" lon="-3.800623035058379">
        <ele>698.04999999999995</ele>
        <time>2025-04-28T10:02:35Z</time>
      </trkpt>
      <trkpt lat="42.739121010527015" lon="-3.800794025883079">
        <ele>698.04999999999995</ele>
        <time>2025-04-28T10:02:36Z</time>
      </trkpt>
      <trkpt lat="42.73921899497509" lon="-3.800997035577893">
        <ele>698.04999999999995</ele>
        <time>2025-04-28T10:02:37Z</time>
      </trkpt>
      <trkpt lat="42.739318991079926" lon="-3.801204990595579">
        <ele>698.52999999999997</ele>
        <time>2025-04-28T10:02:38Z</time>
      </trkpt>
      <trkpt lat="42.74018500931561" lon="-3.803323013707995">
        <ele>699.01999999999998</ele>
        <time>2025-04-28T10:02:47Z</time>
      </trkpt>
      <trkpt lat="42.740780040621758" lon="-3.80444903858006">
        <ele>698.04999999999995</ele>
        <time>2025-04-28T10:02:52Z</time>
      </trkpt>
      <trkpt lat="42.740910965949297" lon="-3.804651964455843">
        <ele>697.57000000000005</ele>
        <time>2025-04-28T10:02:53Z</time>
      </trkpt>
      <trkpt lat="42.741055972874165" lon="-3.804837958887219">
        <ele>697.09000000000003</ele>
        <time>2025-04-28T10:02:54Z</time>
      </trkpt>
      <trkpt lat="42.742707040160894" lon="-3.806334966793656">
        <ele>692.28999999999996</ele>
        <time>2025-04-28T10:03:04Z</time>
      </trkpt>
      <trkpt lat="42.743403995409608" lon="-3.806783985346556">
        <ele>690.36000000000001</ele>
        <time>2025-04-28T10:03:08Z</time>
      </trkpt>
      <trkpt lat="42.743785036727786" lon="-3.806849028915167">
        <ele>689.88</ele>
        <time>2025-04-28T10:03:10Z</time>
      </trkpt>
      <trkpt lat="42.743984023109078" lon="-3.806849028915167">
        <ele>689.39999999999998</ele>
        <time>2025-04-28T10:03:11Z</time>
      </trkpt>
      <trkpt lat="42.744177980348468" lon="-3.806787002831698">
        <ele>688.91999999999996</ele>
        <time>2025-04-28T10:03:12Z</time>
      </trkpt>
      <trkpt lat="42.744369003921747" lon="-3.806726988404989">
        <ele>688.44000000000005</ele>
        <time>2025-04-28T10:03:13Z</time>
      </trkpt>
      <trkpt lat="42.74454502388835" lon="-3.806625986471772">
        <ele>687.96000000000004</ele>
        <time>2025-04-28T10:03:14Z</time>
      </trkpt>
      <trkpt lat="42.744721965864301" lon="-3.806518027558923">
        <ele>687.48000000000002</ele>
        <time>2025-04-28T10:03:15Z</time>
      </trkpt>
      <trkpt lat="42.744874013587832" lon="-3.8063620403409">
        <ele>687.48000000000002</ele>
        <time>2025-04-28T10:03:16Z</time>
      </trkpt>
      <trkpt lat="42.745020026341081" lon="-3.806177973747253">
        <ele>687</ele>
        <time>2025-04-28T10:03:17Z</time>
      </trkpt>
      <trkpt lat="42.745165033265948" lon="-3.805993990972638">
        <ele>687</ele>
        <time>2025-04-28T10:03:18Z</time>
      </trkpt>
      <trkpt lat="42.745276009663939" lon="-3.805771032348275">
        <ele>687</ele>
        <time>2025-04-28T10:03:19Z</time>
      </trkpt>
      <trkpt lat="42.745381034910679" lon="-3.805539021268487">
        <ele>687</ele>
        <time>2025-04-28T10:03:20Z</time>
      </trkpt>
      <trkpt lat="42.745484970510006" lon="-3.805312039330602">
        <ele>687</ele>
        <time>2025-04-28T10:03:21Z</time>
      </trkpt>
      <trkpt lat="42.745871962979436" lon="-3.804418025538325">
        <ele>686.51999999999998</ele>
        <time>2025-04-28T10:03:25Z</time>
      </trkpt>
      <trkpt lat="42.745926026254892" lon="-3.804182996973395">
        <ele>686.51999999999998</ele>
        <time>2025-04-28T10:03:26Z</time>
      </trkpt>
      <trkpt lat="42.745980005711317" lon="-3.803947968408465">
        <ele>686.51999999999998</ele>
        <time>2025-04-28T10:03:27Z</time>
      </trkpt>
      <trkpt lat="42.746205981820822" lon="-3.801890965551138">
        <ele>687.96000000000004</ele>
        <time>2025-04-28T10:03:35Z</time>
      </trkpt>
      <trkpt lat="42.746272031217813" lon="-3.801639005541802">
        <ele>687.96000000000004</ele>
        <time>2025-04-28T10:03:36Z</time>
      </trkpt>
      <trkpt lat="42.746349982917309" lon="-3.801392996683717">
        <ele>687.48000000000002</ele>
        <time>2025-04-28T10:03:37Z</time>
      </trkpt>
      <trkpt lat="42.746472023427486" lon="-3.801171965897083">
        <ele>687.48000000000002</ele>
        <time>2025-04-28T10:03:38Z</time>
      </trkpt>
      <trkpt lat="42.746594985947013" lon="-3.800951018929482">
        <ele>687.48000000000002</ele>
        <time>2025-04-28T10:03:39Z</time>
      </trkpt>
      <trkpt lat="42.746742004528642" lon="-3.80075697787106">
        <ele>687.48000000000002</ele>
        <time>2025-04-28T10:03:40Z</time>
      </trkpt>
      <trkpt lat="42.746906038373709" lon="-3.800580035895109">
        <ele>687.48000000000002</ele>
        <time>2025-04-28T10:03:41Z</time>
      </trkpt>
      <trkpt lat="42.747085997834802" lon="-3.800437962636352">
        <ele>687.48000000000002</ele>
        <time>2025-04-28T10:03:42Z</time>
      </trkpt>
      <trkpt lat="42.747267968952656" lon="-3.800298990681768">
        <ele>687.48000000000002</ele>
        <time>2025-04-28T10:03:43Z</time>
      </trkpt>
      <trkpt lat="42.747980011627078" lon="-3.79978702403605">
        <ele>687</ele>
        <time>2025-04-28T10:03:47Z</time>
      </trkpt>
      <trkpt lat="42.748173968866467" lon="-3.799722986295819">
        <ele>687</ele>
        <time>2025-04-28T10:03:48Z</time>
      </trkpt>
      <trkpt lat="42.748552998527884" lon="-3.799613015726209">
        <ele>687</ele>
        <time>2025-04-28T10:03:50Z</time>
      </trkpt>
      <trkpt lat="42.749529993161559" lon="-3.799729021266103">
        <ele>686.51999999999998</ele>
        <time>2025-04-28T10:03:55Z</time>
      </trkpt>
      <trkpt lat="42.749710036441684" lon="-3.799825999885798">
        <ele>686.51999999999998</ele>
        <time>2025-04-28T10:03:56Z</time>
      </trkpt>
      <trkpt lat="42.749884966760874" lon="-3.79993898794055">
        <ele>686.51999999999998</ele>
        <time>2025-04-28T10:03:57Z</time>
      </trkpt>
      <trkpt lat="42.750062998384237" lon="-3.800052981823683">
        <ele>686.03999999999996</ele>
        <time>2025-04-28T10:03:58Z</time>
      </trkpt>
      <trkpt lat="42.750231977552176" lon="-3.800192959606648">
        <ele>686.03999999999996</ele>
        <time>2025-04-28T10:03:59Z</time>
      </trkpt>
      <trkpt lat="42.751215007156134" lon="-3.80114103667438">
        <ele>685.08000000000004</ele>
        <time>2025-04-28T10:04:06Z</time>
      </trkpt>
      <trkpt lat="42.7518539596349" lon="-3.801860958337784">
        <ele>683.63</ele>
        <time>2025-04-28T10:04:13Z</time>
      </trkpt>
      <trkpt lat="42.751928977668285" lon="-3.801939999684691">
        <ele>683.63</ele>
        <time>2025-04-28T10:04:14Z</time>
      </trkpt>
      <trkpt lat="42.752336002886295" lon="-3.802368985489011">
        <ele>683.14999999999998</ele>
        <time>2025-04-28T10:04:19Z</time>
      </trkpt>
      <trkpt lat="42.752610007300973" lon="-3.802642989903688">
        <ele>682.66999999999996</ele>
        <time>2025-04-28T10:04:22Z</time>
      </trkpt>
      <trkpt lat="42.75271100923419" lon="-3.802693029865623">
        <ele>682.19000000000005</ele>
        <time>2025-04-28T10:04:23Z</time>
      </trkpt>
      <trkpt lat="42.752835983410478" lon="-3.802734017372131">
        <ele>681.71000000000004</ele>
        <time>2025-04-28T10:04:24Z</time>
      </trkpt>
      <trkpt lat="42.752956012263894" lon="-3.802746003493667">
        <ele>681.23000000000002</ele>
        <time>2025-04-28T10:04:25Z</time>
      </trkpt>
      <trkpt lat="42.753073023632169" lon="-3.802757989615202">
        <ele>681.23000000000002</ele>
        <time>2025-04-28T10:04:26Z</time>
      </trkpt>
      <trkpt lat="42.753190035000443" lon="-3.802768969908357">
        <ele>681.23000000000002</ele>
        <time>2025-04-28T10:04:27Z</time>
      </trkpt>
      <trkpt lat="42.753662019968033" lon="-3.802738962695003">
        <ele>680.75</ele>
        <time>2025-04-28T10:04:31Z</time>
      </trkpt>
      <trkpt lat="42.753986986353993" lon="-3.802614994347096">
        <ele>680.75</ele>
        <time>2025-04-28T10:04:34Z</time>
      </trkpt>
      <trkpt lat="42.754312958568335" lon="-3.802450960502029">
        <ele>680.75</ele>
        <time>2025-04-28T10:04:37Z</time>
      </trkpt>
      <trkpt lat="42.755295988172293" lon="-3.801989033818245">
        <ele>681.71000000000004</ele>
        <time>2025-04-28T10:04:46Z</time>
      </trkpt>
      <trkpt lat="42.755678035318851" lon="-3.801805973052979">
        <ele>683.14999999999998</ele>
        <time>2025-04-28T10:04:50Z</time>
      </trkpt>
      <trkpt lat="42.755739977583289" lon="-3.801803961396217">
        <ele>683.14999999999998</ele>
        <time>2025-04-28T10:04:51Z</time>
      </trkpt>
      <trkpt lat="42.75578498840332" lon="-3.801888031885028">
        <ele>683.14999999999998</ele>
        <time>2025-04-28T10:04:52Z</time>
      </trkpt>
      <trkpt lat="42.755766967311502" lon="-3.8019809871912">
        <ele>683.14999999999998</ele>
        <time>2025-04-28T10:04:53Z</time>
      </trkpt>
      <trkpt lat="42.755728997290134" lon="-3.802076037973166">
        <ele>683.14999999999998</ele>
        <time>2025-04-28T10:04:54Z</time>
      </trkpt>
      <trkpt lat="42.755681974813342" lon="-3.802178967744112">
        <ele>683.63</ele>
        <time>2025-04-28T10:04:55Z</time>
      </trkpt>
      <trkpt lat="42.755619026720524" lon="-3.802287010475993">
        <ele>684.12</ele>
        <time>2025-04-28T10:04:56Z</time>
      </trkpt>
      <trkpt lat="42.755549037829041" lon="-3.80240703932941">
        <ele>684.60000000000002</ele>
        <time>2025-04-28T10:04:57Z</time>
      </trkpt>
      <trkpt lat="42.755464967340231" lon="-3.802498988807201">
        <ele>685.08000000000004</ele>
        <time>2025-04-28T10:04:58Z</time>
      </trkpt>
      <trkpt lat="42.755373017862439" lon="-3.802598984912038">
        <ele>686.03999999999996</ele>
        <time>2025-04-28T10:04:59Z</time>
      </trkpt>
      <trkpt lat="42.755277967080474" lon="-3.802701998502016">
        <ele>687</ele>
        <time>2025-04-28T10:05:00Z</time>
      </trkpt>
      <trkpt lat="42.755178976804018" lon="-3.802810041233897">
        <ele>687.96000000000004</ele>
        <time>2025-04-28T10:05:01Z</time>
      </trkpt>
      <trkpt lat="42.75423601269722" lon="-3.803825005888939">
        <ele>699.01999999999998</ele>
        <time>2025-04-28T10:05:10Z</time>
      </trkpt>
      <trkpt lat="42.753002028912306" lon="-3.804597984999418">
        <ele>710.54999999999995</ele>
        <time>2025-04-28T10:05:19Z</time>
      </trkpt>
      <trkpt lat="42.752459971234202" lon="-3.804874001070857">
        <ele>715.36000000000001</ele>
        <time>2025-04-28T10:05:23Z</time>
      </trkpt>
      <trkpt lat="42.752328962087631" lon="-3.804856985807419">
        <ele>716.32000000000005</ele>
        <time>2025-04-28T10:05:24Z</time>
      </trkpt>
      <trkpt lat="42.752194013446569" lon="-3.8048389647156">
        <ele>717.27999999999997</ele>
        <time>2025-04-28T10:05:25Z</time>
      </trkpt>
      <trkpt lat="42.752065015956759" lon="-3.804788002744317">
        <ele>718.24000000000001</ele>
        <time>2025-04-28T10:05:26Z</time>
      </trkpt>
      <trkpt lat="42.751923026517034" lon="-3.804703010246158">
        <ele>719.67999999999995</ele>
        <time>2025-04-28T10:05:27Z</time>
      </trkpt>
      <trkpt lat="42.751814983785152" lon="-3.804608965292573">
        <ele>720.64999999999998</ele>
        <time>2025-04-28T10:05:28Z</time>
      </trkpt>
      <trkpt lat="42.751709958538413" lon="-3.80449396558106">
        <ele>722.09000000000003</ele>
        <time>2025-04-28T10:05:29Z</time>
      </trkpt>
      <trkpt lat="42.751617003232241" lon="-3.804362034425139">
        <ele>723.04999999999995</ele>
        <time>2025-04-28T10:05:30Z</time>
      </trkpt>
      <trkpt lat="42.751526981592178" lon="-3.804233036935329">
        <ele>724.00999999999999</ele>
        <time>2025-04-28T10:05:31Z</time>
      </trkpt>
      <trkpt lat="42.750909989699721" lon="-3.803103994578123">
        <ele>734.10000000000002</ele>
        <time>2025-04-28T10:05:40Z</time>
      </trkpt>
      <trkpt lat="42.750815022736788" lon="-3.80286100320518">
        <ele>736.02999999999997</ele>
        <time>2025-04-28T10:05:42Z</time>
      </trkpt>
      <trkpt lat="42.750438004732132" lon="-3.801916027441621">
        <ele>744.67999999999995</ele>
        <time>2025-04-28T10:05:52Z</time>
      </trkpt>
      <trkpt lat="42.750334991142154" lon="-3.801726009696722">
        <ele>749.49000000000001</ele>
        <time>2025-04-28T10:06:00Z</time>
      </trkpt>
      <trkpt lat="42.750334991142154" lon="-3.801726009696722">
        <ele>749.97000000000003</ele>
        <time>2025-04-28T10:06:01Z</time>
      </trkpt>
      <trkpt lat="42.750228038057685" lon="-3.801547978073359">
        <ele>730.25999999999999</ele>
        <time>2025-04-28T10:08:17Z</time>
      </trkpt>
      <trkpt lat="42.750318981707096" lon="-3.801624001935124">
        <ele>746.12</ele>
        <time>2025-04-28T10:08:53Z</time>
      </trkpt>
      <trkpt lat="42.75030598975718" lon="-3.801600029692054">
        <ele>742.75999999999999</ele>
        <time>2025-04-28T10:09:42Z</time>
      </trkpt>
      <trkpt lat="42.750321999192238" lon="-3.801629031077027">
        <ele>744.20000000000005</ele>
        <time>2025-04-28T10:10:31Z</time>
      </trkpt>
      <trkpt lat="42.750308001413941" lon="-3.801629031077027">
        <ele>743.24000000000001</ele>
        <time>2025-04-28T10:11:31Z</time>
      </trkpt>
      <trkpt lat="42.750308001413941" lon="-3.801630958914757">
        <ele>743.72000000000003</ele>
        <time>2025-04-28T10:12:19Z</time>
      </trkpt>
      <trkpt lat="42.750310013070703" lon="-3.801633976399899">
        <ele>743.72000000000003</ele>
        <time>2025-04-28T10:13:16Z</time>
      </trkpt>
      <trkpt lat="42.75030598975718" lon="-3.801633976399899">
        <ele>743.24000000000001</ele>
        <time>2025-04-28T10:14:14Z</time>
      </trkpt>
      <trkpt lat="42.750266008079052" lon="-3.80174595862627">
        <ele>743.72000000000003</ele>
        <time>2025-04-28T10:14:45Z</time>
      </trkpt>
      <trkpt lat="42.750205993652344" lon="-3.801762973889709">
        <ele>743.72000000000003</ele>
        <time>2025-04-28T10:14:46Z</time>
      </trkpt>
      <trkpt lat="42.750205993652344" lon="-3.8018290232867">
        <ele>743.72000000000003</ele>
        <time>2025-04-28T10:14:47Z</time>
      </trkpt>
      <trkpt lat="42.750205993652344" lon="-3.801934970542789">
        <ele>744.20000000000005</ele>
        <time>2025-04-28T10:14:48Z</time>
      </trkpt>
      <trkpt lat="42.750259973108768" lon="-3.802052987739444">
        <ele>744.67999999999995</ele>
        <time>2025-04-28T10:14:49Z</time>
      </trkpt>
      <trkpt lat="42.750314036384225" lon="-3.80217201076448">
        <ele>745.15999999999997</ele>
        <time>2025-04-28T10:14:50Z</time>
      </trkpt>
      <trkpt lat="42.750372961163521" lon="-3.80230100825429">
        <ele>745.15999999999997</ele>
        <time>2025-04-28T10:14:51Z</time>
      </trkpt>
      <trkpt lat="42.750466000288725" lon="-3.802607031539083">
        <ele>746.60000000000002</ele>
        <time>2025-04-28T10:14:53Z</time>
      </trkpt>
      <trkpt lat="42.750502964481711" lon="-3.802768969908357">
        <ele>747.08000000000004</ele>
        <time>2025-04-28T10:14:54Z</time>
      </trkpt>
      <trkpt lat="42.750936979427934" lon="-3.804706027731299">
        <ele>756.69000000000005</ele>
        <time>2025-04-28T10:15:05Z</time>
      </trkpt>
      <trkpt lat="42.751067988574505" lon="-3.805230986326933">
        <ele>759.58000000000004</ele>
        <time>2025-04-28T10:15:08Z</time>
      </trkpt>
      <trkpt lat="42.75112297385931" lon="-3.805383034050465">
        <ele>761.01999999999998</ele>
        <time>2025-04-28T10:15:09Z</time>
      </trkpt>
      <trkpt lat="42.751844990998507" lon="-3.80687803030014">
        <ele>771.11000000000001</ele>
        <time>2025-04-28T10:15:18Z</time>
      </trkpt>
      <trkpt lat="42.752140033990145" lon="-3.807366024702787">
        <ele>775.44000000000005</ele>
        <time>2025-04-28T10:15:21Z</time>
      </trkpt>
      <trkpt lat="42.752255033701658" lon="-3.807454034686089">
        <ele>776.88</ele>
        <time>2025-04-28T10:15:22Z</time>
      </trkpt>
      <trkpt lat="42.752392999827862" lon="-3.807475995272398">
        <ele>777.84000000000003</ele>
        <time>2025-04-28T10:15:23Z</time>
      </trkpt>
      <trkpt lat="42.753616003319621" lon="-3.807722004130483">
        <ele>786.98000000000002</ele>
        <time>2025-04-28T10:15:30Z</time>
      </trkpt>
      <trkpt lat="42.754518985748291" lon="-3.808115031570196">
        <ele>795.63</ele>
        <time>2025-04-28T10:15:36Z</time>
      </trkpt>
      <trkpt lat="42.754608001559973" lon="-3.808070020750165">
        <ele>796.59000000000003</ele>
        <time>2025-04-28T10:15:37Z</time>
      </trkpt>
      <trkpt lat="42.754668015986681" lon="-3.807989973574877">
        <ele>798.02999999999997</ele>
        <time>2025-04-28T10:15:38Z</time>
      </trkpt>
      <trkpt lat="42.754713026806712" lon="-3.807857036590576">
        <ele>798.99000000000001</ele>
        <time>2025-04-28T10:15:39Z</time>
      </trkpt>
      <trkpt lat="42.754713026806712" lon="-3.807724015787244">
        <ele>799.95000000000005</ele>
        <time>2025-04-28T10:15:40Z</time>
      </trkpt>
      <trkpt lat="42.754713026806712" lon="-3.807542966678739">
        <ele>800.91999999999996</ele>
        <time>2025-04-28T10:15:41Z</time>
      </trkpt>
      <trkpt lat="42.754724007099867" lon="-3.807341968640685">
        <ele>801.88</ele>
        <time>2025-04-28T10:15:42Z</time>
      </trkpt>
      <trkpt lat="42.754778992384672" lon="-3.807144993916154">
        <ele>802.84000000000003</ele>
        <time>2025-04-28T10:15:43Z</time>
      </trkpt>
      <trkpt lat="42.754847975447774" lon="-3.806953970342875">
        <ele>803.79999999999995</ele>
        <time>2025-04-28T10:15:44Z</time>
      </trkpt>
      <trkpt lat="42.754958029836416" lon="-3.806778034195304">
        <ele>805.24000000000001</ele>
        <time>2025-04-28T10:15:45Z</time>
      </trkpt>
      <trkpt lat="42.75507596321404" lon="-3.806614000350237">
        <ele>806.67999999999995</ele>
        <time>2025-04-28T10:15:46Z</time>
      </trkpt>
      <trkpt lat="42.755220970138907" lon="-3.806468993425369">
        <ele>808.13</ele>
        <time>2025-04-28T10:15:47Z</time>
      </trkpt>
      <trkpt lat="42.755378969013691" lon="-3.806335972622037">
        <ele>809.57000000000005</ele>
        <time>2025-04-28T10:15:48Z</time>
      </trkpt>
      <trkpt lat="42.755550965666771" lon="-3.806220972910523">
        <ele>810.52999999999997</ele>
        <time>2025-04-28T10:15:49Z</time>
      </trkpt>
      <trkpt lat="42.755721034482121" lon="-3.806098010390997">
        <ele>811.49000000000001</ele>
        <time>2025-04-28T10:15:50Z</time>
      </trkpt>
      <trkpt lat="42.755880961194634" lon="-3.805917967110872">
        <ele>812.45000000000005</ele>
        <time>2025-04-28T10:15:51Z</time>
      </trkpt>
      <trkpt lat="42.756040971726179" lon="-3.805738007649779">
        <ele>813.40999999999997</ele>
        <time>2025-04-28T10:15:52Z</time>
      </trkpt>
      <trkpt lat="42.757384004071355" lon="-3.804372008889914">
        <ele>825.42999999999995</ele>
        <time>2025-04-28T10:16:00Z</time>
      </trkpt>
      <trkpt lat="42.758555039763451" lon="-3.803645968437195">
        <ele>836</ele>
        <time>2025-04-28T10:16:07Z</time>
      </trkpt>
      <trkpt lat="42.758692000061274" lon="-3.80361101590097">
        <ele>837.45000000000005</ele>
        <time>2025-04-28T10:16:08Z</time>
      </trkpt>
      <trkpt lat="42.758842958137393" lon="-3.803619984537363">
        <ele>838.40999999999997</ele>
        <time>2025-04-28T10:16:09Z</time>
      </trkpt>
      <trkpt lat="42.759013026952744" lon="-3.803629959002137">
        <ele>839.85000000000002</ele>
        <time>2025-04-28T10:16:10Z</time>
      </trkpt>
      <trkpt lat="42.759197009727359" lon="-3.803640017285943">
        <ele>840.80999999999995</ele>
        <time>2025-04-28T10:16:11Z</time>
      </trkpt>
      <trkpt lat="42.759385015815496" lon="-3.803650997579098">
        <ele>842.25</ele>
        <time>2025-04-28T10:16:12Z</time>
      </trkpt>
      <trkpt lat="42.759567992761731" lon="-3.803703971207142">
        <ele>843.21000000000004</ele>
        <time>2025-04-28T10:16:13Z</time>
      </trkpt>
      <trkpt lat="42.75973797775805" lon="-3.803754011169076">
        <ele>844.65999999999997</ele>
        <time>2025-04-28T10:16:14Z</time>
      </trkpt>
      <trkpt lat="42.759886002168059" lon="-3.803842021152377">
        <ele>846.10000000000002</ele>
        <time>2025-04-28T10:16:15Z</time>
      </trkpt>
      <trkpt lat="42.760034026578069" lon="-3.80393598228693">
        <ele>847.53999999999996</ele>
        <time>2025-04-28T10:16:16Z</time>
      </trkpt>
      <trkpt lat="42.760184984654188" lon="-3.804032038897276">
        <ele>848.98000000000002</ele>
        <time>2025-04-28T10:16:17Z</time>
      </trkpt>
      <trkpt lat="42.760846987366676" lon="-3.804523972794414">
        <ele>855.23000000000002</ele>
        <time>2025-04-28T10:16:22Z</time>
      </trkpt>
      <trkpt lat="42.760927034541965" lon="-3.804670991376042">
        <ele>856.66999999999996</ele>
        <time>2025-04-28T10:16:23Z</time>
      </trkpt>
      <trkpt lat="42.760989982634783" lon="-3.804842988029122">
        <ele>857.63</ele>
        <time>2025-04-28T10:16:24Z</time>
      </trkpt>
      <trkpt lat="42.761020995676517" lon="-3.80505396053195">
        <ele>859.08000000000004</ele>
        <time>2025-04-28T10:16:25Z</time>
      </trkpt>
      <trkpt lat="42.761056032031775" lon="-3.805280020460486">
        <ele>860.51999999999998</ele>
        <time>2025-04-28T10:16:26Z</time>
      </trkpt>
      <trkpt lat="42.761190980672836" lon="-3.806012012064457">
        <ele>864.36000000000001</ele>
        <time>2025-04-28T10:16:29Z</time>
      </trkpt>
      <trkpt lat="42.761279996484518" lon="-3.806247040629387">
        <ele>865.79999999999995</ele>
        <time>2025-04-28T10:16:30Z</time>
      </trkpt>
      <trkpt lat="42.761372029781342" lon="-3.80649003200233">
        <ele>867.25</ele>
        <time>2025-04-28T10:16:31Z</time>
      </trkpt>
      <trkpt lat="42.76197100058198" lon="-3.807915961369872">
        <ele>876.38</ele>
        <time>2025-04-28T10:16:37Z</time>
      </trkpt>
      <trkpt lat="42.76208097115159" lon="-3.808114025741816">
        <ele>877.82000000000005</ele>
        <time>2025-04-28T10:16:38Z</time>
      </trkpt>
      <trkpt lat="42.762275012210011" lon="-3.808465981855989">
        <ele>880.22000000000003</ele>
        <time>2025-04-28T10:16:40Z</time>
      </trkpt>
      <trkpt lat="42.762345001101494" lon="-3.808643007650971">
        <ele>881.19000000000005</ele>
        <time>2025-04-28T10:16:41Z</time>
      </trkpt>
      <trkpt lat="42.76238196529448" lon="-3.808844005689025">
        <ele>882.14999999999998</ele>
        <time>2025-04-28T10:16:42Z</time>
      </trkpt>
      <trkpt lat="42.762394035235047" lon="-3.809060007333756">
        <ele>883.11000000000001</ele>
        <time>2025-04-28T10:16:43Z</time>
      </trkpt>
      <trkpt lat="42.762394035235047" lon="-3.809296041727066">
        <ele>883.59000000000003</ele>
        <time>2025-04-28T10:16:44Z</time>
      </trkpt>
      <trkpt lat="42.762299990281463" lon="-3.810288961976767">
        <ele>885.99000000000001</ele>
        <time>2025-04-28T10:16:48Z</time>
      </trkpt>
      <trkpt lat="42.76195197366178" lon="-3.812182014808059">
        <ele>886.95000000000005</ele>
        <time>2025-04-28T10:16:55Z</time>
      </trkpt>
      <trkpt lat="42.762052975594997" lon="-3.814027039334178">
        <ele>889.36000000000001</ele>
        <time>2025-04-28T10:17:02Z</time>
      </trkpt>
      <trkpt lat="42.762076025828719" lon="-3.814691975712776">
        <ele>890.32000000000005</ele>
        <time>2025-04-28T10:17:05Z</time>
      </trkpt>
      <trkpt lat="42.762041995301843" lon="-3.814919963479042">
        <ele>890.79999999999995</ele>
        <time>2025-04-28T10:17:06Z</time>
      </trkpt>
      <trkpt lat="42.761974018067122" lon="-3.815146023407579">
        <ele>891.75999999999999</ele>
        <time>2025-04-28T10:17:07Z</time>
      </trkpt>
      <trkpt lat="42.761887013912201" lon="-3.815370993688703">
        <ele>892.24000000000001</ele>
        <time>2025-04-28T10:17:08Z</time>
      </trkpt>
      <trkpt lat="42.761793974786997" lon="-3.815610967576504">
        <ele>892.24000000000001</ele>
        <time>2025-04-28T10:17:09Z</time>
      </trkpt>
      <trkpt lat="42.761357026174664" lon="-3.817199002951384">
        <ele>891.27999999999997</ele>
        <time>2025-04-28T10:17:15Z</time>
      </trkpt>
      <trkpt lat="42.761292988434434" lon="-3.817443000152707">
        <ele>890.79999999999995</ele>
        <time>2025-04-28T10:17:16Z</time>
      </trkpt>
      <trkpt lat="42.761193998157978" lon="-3.817669982090592">
        <ele>890.32000000000005</ele>
        <time>2025-04-28T10:17:17Z</time>
      </trkpt>
      <trkpt lat="42.760998029261827" lon="-3.818120006471872">
        <ele>889.36000000000001</ele>
        <time>2025-04-28T10:17:19Z</time>
      </trkpt>
      <trkpt lat="42.76091898791492" lon="-3.818352017551661">
        <ele>888.88</ele>
        <time>2025-04-28T10:17:20Z</time>
      </trkpt>
      <trkpt lat="42.76089702732861" lon="-3.818583022803068">
        <ele>888.39999999999998</ele>
        <time>2025-04-28T10:17:21Z</time>
      </trkpt>
      <trkpt lat="42.760910019278526" lon="-3.818808998912573">
        <ele>887.90999999999997</ele>
        <time>2025-04-28T10:17:22Z</time>
      </trkpt>
      <trkpt lat="42.76094296015799" lon="-3.819035980850458">
        <ele>887.42999999999995</ele>
        <time>2025-04-28T10:17:23Z</time>
      </trkpt>
      <trkpt lat="42.760986965149641" lon="-3.819264974445105">
        <ele>886.95000000000005</ele>
        <time>2025-04-28T10:17:24Z</time>
      </trkpt>
      <trkpt lat="42.761038010939956" lon="-3.819679040461779">
        <ele>886.47000000000003</ele>
        <time>2025-04-28T10:17:26Z</time>
      </trkpt>
      <trkpt lat="42.761086039245129" lon="-3.819809965789318">
        <ele>886.47000000000003</ele>
        <time>2025-04-28T10:17:27Z</time>
      </trkpt>
      <trkpt lat="42.761128032580018" lon="-3.819872997701168">
        <ele>886.47000000000003</ele>
        <time>2025-04-28T10:17:28Z</time>
      </trkpt>
      <trkpt lat="42.761200033128262" lon="-3.819866962730885">
        <ele>885.99000000000001</ele>
        <time>2025-04-28T10:17:29Z</time>
      </trkpt>
      <trkpt lat="42.761279996484518" lon="-3.819860005751252">
        <ele>885.50999999999999</ele>
        <time>2025-04-28T10:17:30Z</time>
      </trkpt>
      <trkpt lat="42.761379992589355" lon="-3.819847013801336">
        <ele>885.02999999999997</ele>
        <time>2025-04-28T10:17:31Z</time>
      </trkpt>
      <trkpt lat="42.761814007535577" lon="-3.819745006039739">
        <ele>882.14999999999998</ele>
        <time>2025-04-28T10:17:35Z</time>
      </trkpt>
      <trkpt lat="42.761861030012369" lon="-3.819802002981305">
        <ele>881.66999999999996</ele>
        <time>2025-04-28T10:17:36Z</time>
      </trkpt>
      <trkpt lat="42.761900005862117" lon="-3.81985698826611">
        <ele>880.71000000000004</ele>
        <time>2025-04-28T10:17:37Z</time>
      </trkpt>
      <trkpt lat="42.761888019740582" lon="-3.819979028776288">
        <ele>879.25999999999999</ele>
        <time>2025-04-28T10:17:38Z</time>
      </trkpt>
      <trkpt lat="42.761872010305524" lon="-3.820125041529536">
        <ele>878.77999999999997</ele>
        <time>2025-04-28T10:17:39Z</time>
      </trkpt>
      <trkpt lat="42.761854995042086" lon="-3.820289997383952">
        <ele>877.82000000000005</ele>
        <time>2025-04-28T10:17:40Z</time>
      </trkpt>
      <trkpt lat="42.761835968121886" lon="-3.820469034835696">
        <ele>876.86000000000001</ele>
        <time>2025-04-28T10:17:41Z</time>
      </trkpt>
      <trkpt lat="42.761816019192338" lon="-3.820663997903466">
        <ele>875.41999999999996</ele>
        <time>2025-04-28T10:17:42Z</time>
      </trkpt>
      <trkpt lat="42.761847032234073" lon="-3.820858038961887">
        <ele>874.46000000000004</ele>
        <time>2025-04-28T10:17:43Z</time>
      </trkpt>
      <trkpt lat="42.761881984770298" lon="-3.821066999807954">
        <ele>873.00999999999999</ele>
        <time>2025-04-28T10:17:44Z</time>
      </trkpt>
      <trkpt lat="42.761917021125555" lon="-3.821277972310782">
        <ele>872.04999999999995</ele>
        <time>2025-04-28T10:17:45Z</time>
      </trkpt>
      <trkpt lat="42.762045012786984" lon="-3.821933018043637">
        <ele>870.13</ele>
        <time>2025-04-28T10:17:48Z</time>
      </trkpt>
      <trkpt lat="42.762093041092157" lon="-3.822141978889704">
        <ele>869.64999999999998</ele>
        <time>2025-04-28T10:17:49Z</time>
      </trkpt>
      <trkpt lat="42.762408033013344" lon="-3.822897020727396">
        <ele>868.21000000000004</ele>
        <time>2025-04-28T10:17:53Z</time>
      </trkpt>
      <trkpt lat="42.762514986097813" lon="-3.823050996288657">
        <ele>867.73000000000002</ele>
        <time>2025-04-28T10:17:54Z</time>
      </trkpt>
      <trkpt lat="42.762642977759242" lon="-3.823197009041905">
        <ele>867.25</ele>
        <time>2025-04-28T10:17:55Z</time>
      </trkpt>
      <trkpt lat="42.762773986905813" lon="-3.823343021795154">
        <ele>867.25</ele>
        <time>2025-04-28T10:17:56Z</time>
      </trkpt>
      <trkpt lat="42.762913964688778" lon="-3.823482999578118">
        <ele>867.25</ele>
        <time>2025-04-28T10:17:57Z</time>
      </trkpt>
      <trkpt lat="42.763366000726819" lon="-3.823805032297969">
        <ele>867.25</ele>
        <time>2025-04-28T10:18:00Z</time>
      </trkpt>
      <trkpt lat="42.763504972681403" lon="-3.823891030624509">
        <ele>867.25</ele>
        <time>2025-04-28T10:18:01Z</time>
      </trkpt>
      <trkpt lat="42.763651991263032" lon="-3.823884995654225">
        <ele>867.25</ele>
        <time>2025-04-28T10:18:02Z</time>
      </trkpt>
      <trkpt lat="42.763794986531138" lon="-3.823857000097632">
        <ele>867.25</ele>
        <time>2025-04-28T10:18:03Z</time>
      </trkpt>
      <trkpt lat="42.763931024819613" lon="-3.823831016197801">
        <ele>867.25</ele>
        <time>2025-04-28T10:18:04Z</time>
      </trkpt>
      <trkpt lat="42.764050969853997" lon="-3.823849037289619">
        <ele>867.25</ele>
        <time>2025-04-28T10:18:05Z</time>
      </trkpt>
      <trkpt lat="42.764159012585878" lon="-3.823925983160734">
        <ele>867.73000000000002</ele>
        <time>2025-04-28T10:18:06Z</time>
      </trkpt>
      <trkpt lat="42.764274012297392" lon="-3.824027990922332">
        <ele>867.73000000000002</ele>
        <time>2025-04-28T10:18:07Z</time>
      </trkpt>
      <trkpt lat="42.764365961775184" lon="-3.824171992018819">
        <ele>867.73000000000002</ele>
        <time>2025-04-28T10:18:08Z</time>
      </trkpt>
      <trkpt lat="42.76446302421391" lon="-3.824333008378744">
        <ele>868.21000000000004</ele>
        <time>2025-04-28T10:18:09Z</time>
      </trkpt>
      <trkpt lat="42.76454801671207" lon="-3.824513973668218">
        <ele>868.69000000000005</ele>
        <time>2025-04-28T10:18:10Z</time>
      </trkpt>
      <trkpt lat="42.764727976173162" lon="-3.824844975024462">
        <ele>868.69000000000005</ele>
        <time>2025-04-28T10:18:12Z</time>
      </trkpt>
      <trkpt lat="42.764830989763141" lon="-3.824989981949329">
        <ele>868.69000000000005</ele>
        <time>2025-04-28T10:18:13Z</time>
      </trkpt>
      <trkpt lat="42.764957975596189" lon="-3.825111016631126">
        <ele>868.69000000000005</ele>
        <time>2025-04-28T10:18:14Z</time>
      </trkpt>
      <trkpt lat="42.765218988060951" lon="-3.825361970812082">
        <ele>869.16999999999996</ele>
        <time>2025-04-28T10:18:16Z</time>
      </trkpt>
      <trkpt lat="42.765332981944084" lon="-3.825504966080189">
        <ele>869.64999999999998</ele>
        <time>2025-04-28T10:18:17Z</time>
      </trkpt>
      <trkpt lat="42.765414034947753" lon="-3.825677968561649">
        <ele>870.13</ele>
        <time>2025-04-28T10:18:18Z</time>
      </trkpt>
      <trkpt lat="42.765469020232558" lon="-3.825852982699871">
        <ele>870.61000000000001</ele>
        <time>2025-04-28T10:18:19Z</time>
      </trkpt>
      <trkpt lat="42.765498021617532" lon="-3.826038977131248">
        <ele>871.09000000000003</ele>
        <time>2025-04-28T10:18:20Z</time>
      </trkpt>
      <trkpt lat="42.765518976375461" lon="-3.826237041503191">
        <ele>871.57000000000005</ele>
        <time>2025-04-28T10:18:21Z</time>
      </trkpt>
      <trkpt lat="42.765540014952421" lon="-3.826438961550593">
        <ele>872.04999999999995</ele>
        <time>2025-04-28T10:18:22Z</time>
      </trkpt>
      <trkpt lat="42.765539009124041" lon="-3.82664498873055">
        <ele>872.52999999999997</ele>
        <time>2025-04-28T10:18:23Z</time>
      </trkpt>
      <trkpt lat="42.765521993860602" lon="-3.826844980940223">
        <ele>873.5</ele>
        <time>2025-04-28T10:18:24Z</time>
      </trkpt>
      <trkpt lat="42.765503972768784" lon="-3.827043967321515">
        <ele>873.98000000000002</ele>
        <time>2025-04-28T10:18:25Z</time>
      </trkpt>
      <trkpt lat="42.765429960563779" lon="-3.827233985066414">
        <ele>874.46000000000004</ele>
        <time>2025-04-28T10:18:26Z</time>
      </trkpt>
      <trkpt lat="42.765352008864284" lon="-3.827430959790945">
        <ele>874.94000000000005</ele>
        <time>2025-04-28T10:18:27Z</time>
      </trkpt>
      <trkpt lat="42.765012960880995" lon="-3.828293038532138">
        <ele>876.86000000000001</ele>
        <time>2025-04-28T10:18:31Z</time>
      </trkpt>
      <trkpt lat="42.764926040545106" lon="-3.828778015449643">
        <ele>877.34000000000003</ele>
        <time>2025-04-28T10:18:33Z</time>
      </trkpt>
      <trkpt lat="42.764806011691689" lon="-3.829340022057295">
        <ele>878.29999999999995</ele>
        <time>2025-04-28T10:18:36Z</time>
      </trkpt>
      <trkpt lat="42.764716995880008" lon="-3.82947999984026">
        <ele>878.77999999999997</ele>
        <time>2025-04-28T10:18:37Z</time>
      </trkpt>
      <trkpt lat="42.76461498811841" lon="-3.829607991501689">
        <ele>879.25999999999999</ele>
        <time>2025-04-28T10:18:38Z</time>
      </trkpt>
      <trkpt lat="42.764500994235277" lon="-3.829730032011867">
        <ele>879.25999999999999</ele>
        <time>2025-04-28T10:18:39Z</time>
      </trkpt>
      <trkpt lat="42.764363028109074" lon="-3.829832039773464">
        <ele>879.74000000000001</ele>
        <time>2025-04-28T10:18:40Z</time>
      </trkpt>
      <trkpt lat="42.763771014288068" lon="-3.830313999205828">
        <ele>880.22000000000003</ele>
        <time>2025-04-28T10:18:44Z</time>
      </trkpt>
      <trkpt lat="42.763652997091413" lon="-3.830479038879275">
        <ele>880.22000000000003</ele>
        <time>2025-04-28T10:18:45Z</time>
      </trkpt>
      <trkpt lat="42.763534979894757" lon="-3.830643994733691">
        <ele>880.71000000000004</ele>
        <time>2025-04-28T10:18:46Z</time>
      </trkpt>
      <trkpt lat="42.762571983039379" lon="-3.832277040928602">
        <ele>884.07000000000005</ele>
        <time>2025-04-28T10:18:55Z</time>
      </trkpt>
      <trkpt lat="42.762423036620021" lon="-3.83261701092124">
        <ele>885.02999999999997</ele>
        <time>2025-04-28T10:18:57Z</time>
      </trkpt>
      <trkpt lat="42.762332009151578" lon="-3.832738967612386">
        <ele>885.99000000000001</ele>
        <time>2025-04-28T10:18:58Z</time>
      </trkpt>
      <trkpt lat="42.762202005833387" lon="-3.832806022837758">
        <ele>886.95000000000005</ele>
        <time>2025-04-28T10:18:59Z</time>
      </trkpt>
      <trkpt lat="42.762045012786984" lon="-3.832860002294183">
        <ele>887.42999999999995</ele>
        <time>2025-04-28T10:19:00Z</time>
      </trkpt>
      <trkpt lat="42.761878967285156" lon="-3.832916999235749">
        <ele>888.39999999999998</ele>
        <time>2025-04-28T10:19:01Z</time>
      </trkpt>
      <trkpt lat="42.76158501394093" lon="-3.833072986453772">
        <ele>889.84000000000003</ele>
        <time>2025-04-28T10:19:03Z</time>
      </trkpt>
      <trkpt lat="42.761515025049448" lon="-3.83313400670886">
        <ele>890.32000000000005</ele>
        <time>2025-04-28T10:19:04Z</time>
      </trkpt>
      <trkpt lat="42.761445036157966" lon="-3.833316983655095">
        <ele>890.79999999999995</ele>
        <time>2025-04-28T10:19:05Z</time>
      </trkpt>
      <trkpt lat="42.761405976489186" lon="-3.833428965881467">
        <ele>891.27999999999997</ele>
        <time>2025-04-28T10:19:06Z</time>
      </trkpt>
      <trkpt lat="42.76139298453927" lon="-3.833604985848069">
        <ele>891.75999999999999</ele>
        <time>2025-04-28T10:19:07Z</time>
      </trkpt>
      <trkpt lat="42.761377980932593" lon="-3.83379902690649">
        <ele>891.75999999999999</ele>
        <time>2025-04-28T10:19:08Z</time>
      </trkpt>
      <trkpt lat="42.761355014517903" lon="-3.834922034293413">
        <ele>893.20000000000005</ele>
        <time>2025-04-28T10:19:13Z</time>
      </trkpt>
      <trkpt lat="42.761336993426085" lon="-3.835126971825957">
        <ele>893.20000000000005</ele>
        <time>2025-04-28T10:19:14Z</time>
      </trkpt>
      <trkpt lat="42.76130698621273" lon="-3.835335010662675">
        <ele>893.67999999999995</ele>
        <time>2025-04-28T10:19:15Z</time>
      </trkpt>
      <trkpt lat="42.761230040341616" lon="-3.835513964295387">
        <ele>894.15999999999997</ele>
        <time>2025-04-28T10:19:16Z</time>
      </trkpt>
      <trkpt lat="42.761128032580018" lon="-3.835752010345459">
        <ele>894.63999999999999</ele>
        <time>2025-04-28T10:19:17Z</time>
      </trkpt>
      <trkpt lat="42.76102602481842" lon="-3.835871033370495">
        <ele>895.61000000000001</ele>
        <time>2025-04-28T10:19:18Z</time>
      </trkpt>
      <trkpt lat="42.760868025943637" lon="-3.835979998111725">
        <ele>896.57000000000005</ele>
        <time>2025-04-28T10:19:19Z</time>
      </trkpt>
      <trkpt lat="42.760700974613428" lon="-3.8360779825598">
        <ele>897.52999999999997</ele>
        <time>2025-04-28T10:19:20Z</time>
      </trkpt>
      <trkpt lat="42.760221026837826" lon="-3.836391968652606">
        <ele>899.45000000000005</ele>
        <time>2025-04-28T10:19:23Z</time>
      </trkpt>
      <trkpt lat="42.760080965235829" lon="-3.83654803968966">
        <ele>899.92999999999995</ele>
        <time>2025-04-28T10:19:24Z</time>
      </trkpt>
      <trkpt lat="42.759847026318312" lon="-3.836920028552413">
        <ele>900.88999999999999</ele>
        <time>2025-04-28T10:19:26Z</time>
      </trkpt>
      <trkpt lat="42.759744012728333" lon="-3.837125971913338">
        <ele>901.85000000000002</ele>
        <time>2025-04-28T10:19:27Z</time>
      </trkpt>
      <trkpt lat="42.759570004418492" lon="-3.837560992687941">
        <ele>902.33000000000004</ele>
        <time>2025-04-28T10:19:29Z</time>
      </trkpt>
      <trkpt lat="42.759509989991784" lon="-3.837802978232503">
        <ele>902.82000000000005</ele>
        <time>2025-04-28T10:19:30Z</time>
      </trkpt>
      <trkpt lat="42.759283008053899" lon="-3.839007960632443">
        <ele>904.25999999999999</ele>
        <time>2025-04-28T10:19:35Z</time>
      </trkpt>
      <trkpt lat="42.759283008053899" lon="-3.839242989197373">
        <ele>904.25999999999999</ele>
        <time>2025-04-28T10:19:36Z</time>
      </trkpt>
      <trkpt lat="42.759283008053899" lon="-3.839478017762303">
        <ele>904.25999999999999</ele>
        <time>2025-04-28T10:19:37Z</time>
      </trkpt>
      <trkpt lat="42.75930798612535" lon="-3.839712040498853">
        <ele>904.25999999999999</ele>
        <time>2025-04-28T10:19:38Z</time>
      </trkpt>
      <trkpt lat="42.759359031915665" lon="-3.839919995516539">
        <ele>904.25999999999999</ele>
        <time>2025-04-28T10:19:39Z</time>
      </trkpt>
      <trkpt lat="42.75941401720047" lon="-3.840111019089818">
        <ele>904.25999999999999</ele>
        <time>2025-04-28T10:19:40Z</time>
      </trkpt>
      <trkpt lat="42.759464979171753" lon="-3.840284021571279">
        <ele>904.25999999999999</ele>
        <time>2025-04-28T10:19:41Z</time>
      </trkpt>
      <trkpt lat="42.759551983326674" lon="-3.840422993525863">
        <ele>904.25999999999999</ele>
        <time>2025-04-28T10:19:42Z</time>
      </trkpt>
      <trkpt lat="42.759637981653214" lon="-3.840537993237376">
        <ele>904.25999999999999</ele>
        <time>2025-04-28T10:19:43Z</time>
      </trkpt>
      <trkpt lat="42.759753987193108" lon="-3.840621979907155">
        <ele>904.25999999999999</ele>
        <time>2025-04-28T10:19:44Z</time>
      </trkpt>
      <trkpt lat="42.759879967197776" lon="-3.840686017647386">
        <ele>904.74000000000001</ele>
        <time>2025-04-28T10:19:45Z</time>
      </trkpt>
      <trkpt lat="42.760024974122643" lon="-3.840684005990624">
        <ele>905.22000000000003</ele>
        <time>2025-04-28T10:19:46Z</time>
      </trkpt>
      <trkpt lat="42.760170986875892" lon="-3.840647963806987">
        <ele>905.70000000000005</ele>
        <time>2025-04-28T10:19:47Z</time>
      </trkpt>
      <trkpt lat="42.760312976315618" lon="-3.840612005442381">
        <ele>905.70000000000005</ele>
        <time>2025-04-28T10:19:48Z</time>
      </trkpt>
      <trkpt lat="42.760441973805428" lon="-3.840594990178943">
        <ele>906.17999999999995</ele>
        <time>2025-04-28T10:19:49Z</time>
      </trkpt>
      <trkpt lat="42.760572982951999" lon="-3.840586021542549">
        <ele>907.13999999999999</ele>
        <time>2025-04-28T10:19:50Z</time>
      </trkpt>
      <trkpt lat="42.760687982663512" lon="-3.840598007664084">
        <ele>908.10000000000002</ele>
        <time>2025-04-28T10:19:51Z</time>
      </trkpt>
      <trkpt lat="42.760808011516929" lon="-3.840663973242044">
        <ele>908.58000000000004</ele>
        <time>2025-04-28T10:19:52Z</time>
      </trkpt>
      <trkpt lat="42.760907001793385" lon="-3.8407819904387">
        <ele>909.53999999999996</ele>
        <time>2025-04-28T10:19:53Z</time>
      </trkpt>
      <trkpt lat="42.760999035090208" lon="-3.84093496017158">
        <ele>910.02999999999997</ele>
        <time>2025-04-28T10:19:54Z</time>
      </trkpt>
      <trkpt lat="42.761096013709903" lon="-3.841095976531506">
        <ele>910.99000000000001</ele>
        <time>2025-04-28T10:19:55Z</time>
      </trkpt>
      <trkpt lat="42.761512007564306" lon="-3.841734007000923">
        <ele>914.35000000000002</ele>
        <time>2025-04-28T10:19:59Z</time>
      </trkpt>
      <trkpt lat="42.761632958427072" lon="-3.84187700226903">
        <ele>914.83000000000004</ele>
        <time>2025-04-28T10:20:00Z</time>
      </trkpt>
      <trkpt lat="42.761774025857449" lon="-3.841973980888724">
        <ele>915.78999999999996</ele>
        <time>2025-04-28T10:20:01Z</time>
      </trkpt>
      <trkpt lat="42.76190503500402" lon="-3.842057967558503">
        <ele>916.75</ele>
        <time>2025-04-28T10:20:02Z</time>
      </trkpt>
      <trkpt lat="42.762031015008688" lon="-3.842127034440637">
        <ele>917.24000000000001</ele>
        <time>2025-04-28T10:20:03Z</time>
      </trkpt>
      <trkpt lat="42.762178033590317" lon="-3.842142960056663">
        <ele>918.20000000000005</ele>
        <time>2025-04-28T10:20:04Z</time>
      </trkpt>
      <trkpt lat="42.762346006929874" lon="-3.842160981148481">
        <ele>918.67999999999995</ele>
        <time>2025-04-28T10:20:05Z</time>
      </trkpt>
      <trkpt lat="42.763630030676723" lon="-3.842315040528774">
        <ele>923</ele>
        <time>2025-04-28T10:20:12Z</time>
      </trkpt>
      <trkpt lat="42.763771014288068" lon="-3.842391986399889">
        <ele>923.96000000000004</ele>
        <time>2025-04-28T10:20:13Z</time>
      </trkpt>
      <trkpt lat="42.763918032869697" lon="-3.842489970847964">
        <ele>924.45000000000005</ele>
        <time>2025-04-28T10:20:14Z</time>
      </trkpt>
      <trkpt lat="42.764031020924449" lon="-3.842668002471328">
        <ele>924.92999999999995</ele>
        <time>2025-04-28T10:20:15Z</time>
      </trkpt>
      <trkpt lat="42.764150965958834" lon="-3.842858020216227">
        <ele>925.88999999999999</ele>
        <time>2025-04-28T10:20:16Z</time>
      </trkpt>
      <trkpt lat="42.764278035610914" lon="-3.84305901825428">
        <ele>926.37</ele>
        <time>2025-04-28T10:20:17Z</time>
      </trkpt>
      <trkpt lat="42.764394041150808" lon="-3.843286000192165">
        <ele>927.33000000000004</ele>
        <time>2025-04-28T10:20:18Z</time>
      </trkpt>
      <trkpt lat="42.764843981713057" lon="-3.844173979014158">
        <ele>929.25</ele>
        <time>2025-04-28T10:20:22Z</time>
      </trkpt>
      <trkpt lat="42.764969961717725" lon="-3.84434899315238">
        <ele>929.73000000000002</ele>
        <time>2025-04-28T10:20:23Z</time>
      </trkpt>
      <trkpt lat="42.765095019713044" lon="-3.844483019784093">
        <ele>930.21000000000004</ele>
        <time>2025-04-28T10:20:24Z</time>
      </trkpt>
      <trkpt lat="42.765213958919048" lon="-3.844526018947363">
        <ele>930.69000000000005</ele>
        <time>2025-04-28T10:20:25Z</time>
      </trkpt>
      <trkpt lat="42.765333987772465" lon="-3.844549991190434">
        <ele>931.64999999999998</ele>
        <time>2025-04-28T10:20:26Z</time>
      </trkpt>
      <trkpt lat="42.765446975827217" lon="-3.844497017562389">
        <ele>932.62</ele>
        <time>2025-04-28T10:20:27Z</time>
      </trkpt>
      <trkpt lat="42.765586031600833" lon="-3.844431973993778">
        <ele>933.58000000000004</ele>
        <time>2025-04-28T10:20:28Z</time>
      </trkpt>
      <trkpt lat="42.765717962756753" lon="-3.844356033951044">
        <ele>934.53999999999996</ele>
        <time>2025-04-28T10:20:29Z</time>
      </trkpt>
      <trkpt lat="42.76583899743855" lon="-3.844271041452885">
        <ele>935.5</ele>
        <time>2025-04-28T10:20:30Z</time>
      </trkpt>
      <trkpt lat="42.765972018241882" lon="-3.844238016754389">
        <ele>936.94000000000005</ele>
        <time>2025-04-28T10:20:31Z</time>
      </trkpt>
      <trkpt lat="42.766063967719674" lon="-3.844227958470583">
        <ele>937.89999999999998</ele>
        <time>2025-04-28T10:20:32Z</time>
      </trkpt>
      <trkpt lat="42.766169998794794" lon="-3.844323009252548">
        <ele>938.86000000000001</ele>
        <time>2025-04-28T10:20:33Z</time>
      </trkpt>
      <trkpt lat="42.766265971586108" lon="-3.844410013407469">
        <ele>939.83000000000004</ele>
        <time>2025-04-28T10:20:34Z</time>
      </trkpt>
      <trkpt lat="42.766278041526675" lon="-3.844420993700624">
        <ele>940.78999999999996</ele>
        <time>2025-04-28T10:20:35Z</time>
      </trkpt>
      <trkpt lat="42.766320034861565" lon="-3.844656022265554">
        <ele>941.26999999999998</ele>
        <time>2025-04-28T10:20:36Z</time>
      </trkpt>
      <trkpt lat="42.766343001276255" lon="-3.844786025583744">
        <ele>942.23000000000002</ele>
        <time>2025-04-28T10:20:37Z</time>
      </trkpt>
      <trkpt lat="42.766350964084268" lon="-3.844998003914952">
        <ele>943.19000000000005</ele>
        <time>2025-04-28T10:20:38Z</time>
      </trkpt>
      <trkpt lat="42.766359010711312" lon="-3.845212999731302">
        <ele>943.66999999999996</ele>
        <time>2025-04-28T10:20:39Z</time>
      </trkpt>
      <trkpt lat="42.766343001276255" lon="-3.845435036346316">
        <ele>944.14999999999998</ele>
        <time>2025-04-28T10:20:40Z</time>
      </trkpt>
      <trkpt lat="42.766283992677927" lon="-3.845694959163666">
        <ele>945.11000000000001</ele>
        <time>2025-04-28T10:20:41Z</time>
      </trkpt>
      <trkpt lat="42.766228001564741" lon="-3.84593996219337">
        <ele>946.07000000000005</ele>
        <time>2025-04-28T10:20:42Z</time>
      </trkpt>
      <trkpt lat="42.766191959381104" lon="-3.846180019900203">
        <ele>947.03999999999996</ele>
        <time>2025-04-28T10:20:43Z</time>
      </trkpt>
      <trkpt lat="42.766191959381104" lon="-3.846372971311212">
        <ele>947.51999999999998</ele>
        <time>2025-04-28T10:20:44Z</time>
      </trkpt>
      <trkpt lat="42.766230013221502" lon="-3.846553014591336">
        <ele>948.48000000000002</ele>
        <time>2025-04-28T10:20:45Z</time>
      </trkpt>
      <trkpt lat="42.766278041526675" lon="-3.846673965454102">
        <ele>949.44000000000005</ele>
        <time>2025-04-28T10:20:46Z</time>
      </trkpt>
      <trkpt lat="42.766386000439525" lon="-3.846787959337235">
        <ele>950.88</ele>
        <time>2025-04-28T10:20:47Z</time>
      </trkpt>
      <trkpt lat="42.766517009586096" lon="-3.846872029826045">
        <ele>951.84000000000003</ele>
        <time>2025-04-28T10:20:48Z</time>
      </trkpt>
      <trkpt lat="42.766663022339344" lon="-3.846964985132217">
        <ele>952.79999999999995</ele>
        <time>2025-04-28T10:20:49Z</time>
      </trkpt>
      <trkpt lat="42.766816997900605" lon="-3.847057018429041">
        <ele>953.76999999999998</ele>
        <time>2025-04-28T10:20:50Z</time>
      </trkpt>
      <trkpt lat="42.766965022310615" lon="-3.847218034788966">
        <ele>954.73000000000002</ele>
        <time>2025-04-28T10:20:51Z</time>
      </trkpt>
      <trkpt lat="42.767105000093579" lon="-3.847406962886453">
        <ele>955.69000000000005</ele>
        <time>2025-04-28T10:20:52Z</time>
      </trkpt>
      <trkpt lat="42.767202984541655" lon="-3.847623970359564">
        <ele>956.64999999999998</ele>
        <time>2025-04-28T10:20:53Z</time>
      </trkpt>
      <trkpt lat="42.767311027273536" lon="-3.847868973389268">
        <ele>957.61000000000001</ele>
        <time>2025-04-28T10:20:54Z</time>
      </trkpt>
      <trkpt lat="42.767357965931296" lon="-3.848123028874397">
        <ele>958.57000000000005</ele>
        <time>2025-04-28T10:20:55Z</time>
      </trkpt>
      <trkpt lat="42.767404988408089" lon="-3.848373983055353">
        <ele>960.00999999999999</ele>
        <time>2025-04-28T10:20:56Z</time>
      </trkpt>
      <trkpt lat="42.767415968701243" lon="-3.848648993298411">
        <ele>961.46000000000004</ele>
        <time>2025-04-28T10:20:57Z</time>
      </trkpt>
      <trkpt lat="42.767415968701243" lon="-3.848907994106412">
        <ele>962.89999999999998</ele>
        <time>2025-04-28T10:20:58Z</time>
      </trkpt>
      <trkpt lat="42.767415968701243" lon="-3.849169006571174">
        <ele>964.82000000000005</ele>
        <time>2025-04-28T10:20:59Z</time>
      </trkpt>
      <trkpt lat="42.767388978973031" lon="-3.84944099932909">
        <ele>967.22000000000003</ele>
        <time>2025-04-28T10:21:00Z</time>
      </trkpt>
      <trkpt lat="42.767343968153" lon="-3.849695976823568">
        <ele>968.66999999999996</ele>
        <time>2025-04-28T10:21:01Z</time>
      </trkpt>
      <trkpt lat="42.767297029495239" lon="-3.849954977631569">
        <ele>970.59000000000003</ele>
        <time>2025-04-28T10:21:02Z</time>
      </trkpt>
      <trkpt lat="42.767111035063863" lon="-3.851663041859865">
        <ele>980.20000000000005</ele>
        <time>2025-04-28T10:21:09Z</time>
      </trkpt>
      <trkpt lat="42.767126960679889" lon="-3.851884994655848">
        <ele>981.63999999999999</ele>
        <time>2025-04-28T10:21:10Z</time>
      </trkpt>
      <trkpt lat="42.767486041411757" lon="-3.853940991684794">
        <ele>990.29999999999995</ele>
        <time>2025-04-28T10:21:18Z</time>
      </trkpt>
      <trkpt lat="42.76783799752593" lon="-3.855226021260023">
        <ele>995.10000000000002</ele>
        <time>2025-04-28T10:21:23Z</time>
      </trkpt>
      <trkpt lat="42.767877979204059" lon="-3.855493990704417">
        <ele>995.58000000000004</ele>
        <time>2025-04-28T10:21:24Z</time>
      </trkpt>
      <trkpt lat="42.768058022484183" lon="-3.857721984386444">
        <ele>995.10000000000002</ele>
        <time>2025-04-28T10:21:31Z</time>
      </trkpt>
      <trkpt lat="42.768265977501869" lon="-3.860951028764248">
        <ele>997.99000000000001</ele>
        <time>2025-04-28T10:21:40Z</time>
      </trkpt>
      <trkpt lat="42.768579963594675" lon="-3.86581202968955">
        <ele>1010.96</ele>
        <time>2025-04-28T10:21:54Z</time>
      </trkpt>
      <trkpt lat="42.76871801353991" lon="-3.86783198453486">
        <ele>1010</ele>
        <time>2025-04-28T10:22:02Z</time>
      </trkpt>
      <trkpt lat="42.768798982724547" lon="-3.869188008829951">
        <ele>1010.48</ele>
        <time>2025-04-28T10:22:10Z</time>
      </trkpt>
      <trkpt lat="42.768913982436061" lon="-3.870478989556432">
        <ele>1011.9299999999999</ele>
        <time>2025-04-28T10:22:20Z</time>
      </trkpt>
      <trkpt lat="42.768903002142906" lon="-3.870593989267945">
        <ele>1011.9299999999999</ele>
        <time>2025-04-28T10:22:21Z</time>
      </trkpt>
      <trkpt lat="42.768882969394326" lon="-3.870704965665937">
        <ele>1011.9299999999999</ele>
        <time>2025-04-28T10:22:22Z</time>
      </trkpt>
      <trkpt lat="42.768840976059437" lon="-3.87079699896276">
        <ele>1012.41</ele>
        <time>2025-04-28T10:22:23Z</time>
      </trkpt>
      <trkpt lat="42.76878397911787" lon="-3.870876040309668">
        <ele>1012.41</ele>
        <time>2025-04-28T10:22:24Z</time>
      </trkpt>
      <trkpt lat="42.768725976347923" lon="-3.870958015322685">
        <ele>1012.41</ele>
        <time>2025-04-28T10:22:25Z</time>
      </trkpt>
      <trkpt lat="42.768665039911866" lon="-3.871042001992464">
        <ele>1012.89</ele>
        <time>2025-04-28T10:22:26Z</time>
      </trkpt>
      <trkpt lat="42.768604019656777" lon="-3.871129006147385">
        <ele>1012.89</ele>
        <time>2025-04-28T10:22:27Z</time>
      </trkpt>
      <trkpt lat="42.767715035006404" lon="-3.872167021036148">
        <ele>1016.25</ele>
        <time>2025-04-28T10:22:39Z</time>
      </trkpt>
      <trkpt lat="42.767457962036133" lon="-3.872401965782046">
        <ele>1015.77</ele>
        <time>2025-04-28T10:22:42Z</time>
      </trkpt>
      <trkpt lat="42.767345979809761" lon="-3.872458040714264">
        <ele>1015.29</ele>
        <time>2025-04-28T10:22:43Z</time>
      </trkpt>
      <trkpt lat="42.767225028946996" lon="-3.87251403182745">
        <ele>1014.8099999999999</ele>
        <time>2025-04-28T10:22:44Z</time>
      </trkpt>
      <trkpt lat="42.767091002315283" lon="-3.872545966878533">
        <ele>1014.33</ele>
        <time>2025-04-28T10:22:45Z</time>
      </trkpt>
      <trkpt lat="42.766950018703938" lon="-3.87257999740541">
        <ele>1013.37</ele>
        <time>2025-04-28T10:22:46Z</time>
      </trkpt>
      <trkpt lat="42.766666961833835" lon="-3.872647974640131">
        <ele>1011.4400000000001</ele>
        <time>2025-04-28T10:22:48Z</time>
      </trkpt>
      <trkpt lat="42.766543999314308" lon="-3.872736990451813">
        <ele>1010.48</ele>
        <time>2025-04-28T10:22:49Z</time>
      </trkpt>
      <trkpt lat="42.766434028744698" lon="-3.872863976284862">
        <ele>1009.52</ele>
        <time>2025-04-28T10:22:50Z</time>
      </trkpt>
      <trkpt lat="42.766349036246538" lon="-3.873038990423083">
        <ele>1008.5599999999999</ele>
        <time>2025-04-28T10:22:51Z</time>
      </trkpt>
      <trkpt lat="42.766255997121334" lon="-3.873232025653124">
        <ele>1008.08</ele>
        <time>2025-04-28T10:22:52Z</time>
      </trkpt>
      <trkpt lat="42.765755010768771" lon="-3.874630965292454">
        <ele>1008.08</ele>
        <time>2025-04-28T10:22:59Z</time>
      </trkpt>
      <trkpt lat="42.765128966420889" lon="-3.876757035031915">
        <ele>1008.08</ele>
        <time>2025-04-28T10:23:09Z</time>
      </trkpt>
      <trkpt lat="42.764370990917087" lon="-3.879416026175022">
        <ele>1005.2</ele>
        <time>2025-04-28T10:23:18Z</time>
      </trkpt>
      <trkpt lat="42.763438001275063" lon="-3.882669964805245">
        <ele>1004.23</ele>
        <time>2025-04-28T10:23:28Z</time>
      </trkpt>
      <trkpt lat="42.763181012123823" lon="-3.883488960564137">
        <ele>1006.16</ele>
        <time>2025-04-28T10:23:31Z</time>
      </trkpt>
      <trkpt lat="42.763074981048703" lon="-3.883714014664292">
        <ele>1006.64</ele>
        <time>2025-04-28T10:23:32Z</time>
      </trkpt>
      <trkpt lat="42.762939026579261" lon="-3.883928004652262">
        <ele>1007.12</ele>
        <time>2025-04-28T10:23:33Z</time>
      </trkpt>
      <trkpt lat="42.761451993137598" lon="-3.88613797724247">
        <ele>1007.12</ele>
        <time>2025-04-28T10:23:43Z</time>
      </trkpt>
      <trkpt lat="42.759794974699616" lon="-3.888568980619311">
        <ele>1009.04</ele>
        <time>2025-04-28T10:23:55Z</time>
      </trkpt>
      <trkpt lat="42.759062983095646" lon="-3.889571959152818">
        <ele>1009.52</ele>
        <time>2025-04-28T10:24:01Z</time>
      </trkpt>
      <trkpt lat="42.758921999484301" lon="-3.889726018533111">
        <ele>1010</ele>
        <time>2025-04-28T10:24:02Z</time>
      </trkpt>
      <trkpt lat="42.75728601962328" lon="-3.891277005895972">
        <ele>1011.4400000000001</ele>
        <time>2025-04-28T10:24:12Z</time>
      </trkpt>
      <trkpt lat="42.756467023864388" lon="-3.89204696752131">
        <ele>1013.37</ele>
        <time>2025-04-28T10:24:18Z</time>
      </trkpt>
      <trkpt lat="42.756393011659384" lon="-3.892117040231824">
        <ele>1013.85</ele>
        <time>2025-04-28T10:24:19Z</time>
      </trkpt>
      <trkpt lat="42.756395023316145" lon="-3.892212007194758">
        <ele>1013.85</ele>
        <time>2025-04-28T10:24:20Z</time>
      </trkpt>
      <trkpt lat="42.756423018872738" lon="-3.892275961115956">
        <ele>1013.37</ele>
        <time>2025-04-28T10:24:21Z</time>
      </trkpt>
      <trkpt lat="42.756459983065724" lon="-3.892362965270877">
        <ele>1012.89</ele>
        <time>2025-04-28T10:24:22Z</time>
      </trkpt>
      <trkpt lat="42.756508011370897" lon="-3.892473019659519">
        <ele>1012.89</ele>
        <time>2025-04-28T10:24:23Z</time>
      </trkpt>
      <trkpt lat="42.75698896497488" lon="-3.893462000414729">
        <ele>1012.41</ele>
        <time>2025-04-28T10:24:29Z</time>
      </trkpt>
      <trkpt lat="42.758173998445272" lon="-3.89591203071177">
        <ele>1019.62</ele>
        <time>2025-04-28T10:24:40Z</time>
      </trkpt>
      <trkpt lat="42.7583849709481" lon="-3.896312015131116">
        <ele>1021.54</ele>
        <time>2025-04-28T10:24:42Z</time>
      </trkpt>
      <trkpt lat="42.75851396843791" lon="-3.896459033712745">
        <ele>1022.98</ele>
        <time>2025-04-28T10:24:43Z</time>
      </trkpt>
      <trkpt lat="42.758637014776468" lon="-3.896598005667329">
        <ele>1023.9400000000001</ele>
        <time>2025-04-28T10:24:44Z</time>
      </trkpt>
      <trkpt lat="42.758789984509349" lon="-3.896693978458643">
        <ele>1025.3800000000001</ele>
        <time>2025-04-28T10:24:45Z</time>
      </trkpt>
      <trkpt lat="42.758946977555752" lon="-3.896760027855635">
        <ele>1026.3399999999999</ele>
        <time>2025-04-28T10:24:46Z</time>
      </trkpt>
      <trkpt lat="42.760776998475194" lon="-3.89752596616745">
        <ele>1035</ele>
        <time>2025-04-28T10:24:56Z</time>
      </trkpt>
      <trkpt lat="42.76216302998364" lon="-3.898131977766752">
        <ele>1041.25</ele>
        <time>2025-04-28T10:25:03Z</time>
      </trkpt>
      <trkpt lat="42.762328991666436" lon="-3.898257035762072">
        <ele>1042.6900000000001</ele>
        <time>2025-04-28T10:25:04Z</time>
      </trkpt>
      <trkpt lat="42.762469975277781" lon="-3.898422997444868">
        <ele>1043.6500000000001</ele>
        <time>2025-04-28T10:25:05Z</time>
      </trkpt>
      <trkpt lat="42.762582041323185" lon="-3.898618966341019">
        <ele>1045.5699999999999</ele>
        <time>2025-04-28T10:25:06Z</time>
      </trkpt>
      <trkpt lat="42.7626399602741" lon="-3.898864975199103">
        <ele>1047.01</ele>
        <time>2025-04-28T10:25:07Z</time>
      </trkpt>
      <trkpt lat="42.762674996629357" lon="-3.89911500737071">
        <ele>1048.9400000000001</ele>
        <time>2025-04-28T10:25:08Z</time>
      </trkpt>
      <trkpt lat="42.762684971094131" lon="-3.899377025663853">
        <ele>1050.8599999999999</ele>
        <time>2025-04-28T10:25:09Z</time>
      </trkpt>
      <trkpt lat="42.762695029377937" lon="-3.899653041735292">
        <ele>1052.78</ele>
        <time>2025-04-28T10:25:10Z</time>
      </trkpt>
      <trkpt lat="42.762691006064415" lon="-3.899910030886531">
        <ele>1054.7</ele>
        <time>2025-04-28T10:25:11Z</time>
      </trkpt>
      <trkpt lat="42.762641971930861" lon="-3.90371298417449">
        <ele>1068.6400000000001</ele>
        <time>2025-04-28T10:25:24Z</time>
      </trkpt>
      <trkpt lat="42.76261598803103" lon="-3.908543977886438">
        <ele>1076.3299999999999</ele>
        <time>2025-04-28T10:25:40Z</time>
      </trkpt>
      <trkpt lat="42.762725036591291" lon="-3.90906197950244">
        <ele>1077.29</ele>
        <time>2025-04-28T10:25:42Z</time>
      </trkpt>
      <trkpt lat="42.762795025482774" lon="-3.909312011674047">
        <ele>1077.78</ele>
        <time>2025-04-28T10:25:43Z</time>
      </trkpt>
      <trkpt lat="42.76360304094851" lon="-3.911851979792118">
        <ele>1080.6600000000001</ele>
        <time>2025-04-28T10:25:52Z</time>
      </trkpt>
      <trkpt lat="42.764432011172175" lon="-3.914488004520536">
        <ele>1080.1800000000001</ele>
        <time>2025-04-28T10:26:01Z</time>
      </trkpt>
      <trkpt lat="42.765636993572116" lon="-3.918270003050566">
        <ele>1076.8099999999999</ele>
        <time>2025-04-28T10:26:15Z</time>
      </trkpt>
      <trkpt lat="42.766449032351375" lon="-3.920824974775314">
        <ele>1073.45</ele>
        <time>2025-04-28T10:26:25Z</time>
      </trkpt>
      <trkpt lat="42.766624968498945" lon="-3.921382036060095">
        <ele>1072.01</ele>
        <time>2025-04-28T10:26:30Z</time>
      </trkpt>
      <trkpt lat="42.766624968498945" lon="-3.921382036060095">
        <ele>1071.53</ele>
        <time>2025-04-28T10:26:31Z</time>
      </trkpt>
      <trkpt lat="42.766624968498945" lon="-3.921382036060095">
        <ele>1071.05</ele>
        <time>2025-04-28T10:26:44Z</time>
      </trkpt>
      <trkpt lat="42.766624968498945" lon="-3.921382036060095">
        <ele>1070.5699999999999</ele>
        <time>2025-04-28T10:27:17Z</time>
      </trkpt>
      <trkpt lat="42.766737034544349" lon="-3.921733992174268">
        <ele>1067.6800000000001</ele>
        <time>2025-04-28T10:27:37Z</time>
      </trkpt>
      <trkpt lat="42.767113968729973" lon="-3.922922965139151">
        <ele>1064.3199999999999</ele>
        <time>2025-04-28T10:27:44Z</time>
      </trkpt>
      <trkpt lat="42.767853001132607" lon="-3.925252966582775">
        <ele>1063.3599999999999</ele>
        <time>2025-04-28T10:27:54Z</time>
      </trkpt>
      <trkpt lat="42.768151983618736" lon="-3.926263991743326">
        <ele>1063.8399999999999</ele>
        <time>2025-04-28T10:27:58Z</time>
      </trkpt>
      <trkpt lat="42.768176039680839" lon="-3.926543025299907">
        <ele>1063.8399999999999</ele>
        <time>2025-04-28T10:27:59Z</time>
      </trkpt>
      <trkpt lat="42.768501006066799" lon="-3.930457960814238">
        <ele>1063.8399999999999</ele>
        <time>2025-04-28T10:28:12Z</time>
      </trkpt>
      <trkpt lat="42.768992017954588" lon="-3.936425037682056">
        <ele>1064.8</ele>
        <time>2025-04-28T10:28:31Z</time>
      </trkpt>
      <trkpt lat="42.769423015415668" lon="-3.941629026085138">
        <ele>1065.76</ele>
        <time>2025-04-28T10:28:47Z</time>
      </trkpt>
      <trkpt lat="42.76957699097693" lon="-3.943480001762509">
        <ele>1066.72</ele>
        <time>2025-04-28T10:28:55Z</time>
      </trkpt>
      <trkpt lat="42.769660977646708" lon="-3.944222973659635">
        <ele>1066.24</ele>
        <time>2025-04-28T10:28:59Z</time>
      </trkpt>
      <trkpt lat="42.769689979031682" lon="-3.944327998906374">
        <ele>1066.24</ele>
        <time>2025-04-28T10:29:00Z</time>
      </trkpt>
      <trkpt lat="42.769804978743196" lon="-3.944458002224565">
        <ele>1065.76</ele>
        <time>2025-04-28T10:29:01Z</time>
      </trkpt>
      <trkpt lat="42.769885025918484" lon="-3.944531008601189">
        <ele>1065.76</ele>
        <time>2025-04-28T10:29:02Z</time>
      </trkpt>
      <trkpt lat="42.769976975396276" lon="-3.944570990279317">
        <ele>1065.76</ele>
        <time>2025-04-28T10:29:03Z</time>
      </trkpt>
      <trkpt lat="42.770079988986254" lon="-3.944563027471304">
        <ele>1065.28</ele>
        <time>2025-04-28T10:29:04Z</time>
      </trkpt>
      <trkpt lat="42.770175961777568" lon="-3.944507036358118">
        <ele>1065.28</ele>
        <time>2025-04-28T10:29:05Z</time>
      </trkpt>
      <trkpt lat="42.770262965932488" lon="-3.944421038031578">
        <ele>1065.76</ele>
        <time>2025-04-28T10:29:06Z</time>
      </trkpt>
      <trkpt lat="42.770356005057693" lon="-3.944325987249613">
        <ele>1066.24</ele>
        <time>2025-04-28T10:29:07Z</time>
      </trkpt>
      <trkpt lat="42.770420964807272" lon="-3.94418902695179">
        <ele>1066.24</ele>
        <time>2025-04-28T10:29:08Z</time>
      </trkpt>
      <trkpt lat="42.770488020032644" lon="-3.944047959521413">
        <ele>1066.72</ele>
        <time>2025-04-28T10:29:09Z</time>
      </trkpt>
      <trkpt lat="42.770554991438985" lon="-3.943907981738448">
        <ele>1067.2</ele>
        <time>2025-04-28T10:29:10Z</time>
      </trkpt>
      <trkpt lat="42.77060997672379" lon="-3.943750988692045">
        <ele>1067.2</ele>
        <time>2025-04-28T10:29:11Z</time>
      </trkpt>
      <trkpt lat="42.770980959758162" lon="-3.942453972995281">
        <ele>1062.3900000000001</ele>
        <time>2025-04-28T10:29:20Z</time>
      </trkpt>
      <trkpt lat="42.771301986649632" lon="-3.941346975043416">
        <ele>1051.8199999999999</ele>
        <time>2025-04-28T10:29:27Z</time>
      </trkpt>
      <trkpt lat="42.771325958892703" lon="-3.941175984218717">
        <ele>1050.3800000000001</ele>
        <time>2025-04-28T10:29:28Z</time>
      </trkpt>
      <trkpt lat="42.771450011059642" lon="-3.93978601321578">
        <ele>1038.8399999999999</ele>
        <time>2025-04-28T10:29:36Z</time>
      </trkpt>
      <trkpt lat="42.771497033536434" lon="-3.939626002684236">
        <ele>1037.4000000000001</ele>
        <time>2025-04-28T10:29:37Z</time>
      </trkpt>
      <trkpt lat="42.771573979407549" lon="-3.939488036558032">
        <ele>1035.96</ele>
        <time>2025-04-28T10:29:38Z</time>
      </trkpt>
      <trkpt lat="42.771656038239598" lon="-3.939343029633164">
        <ele>1034.52</ele>
        <time>2025-04-28T10:29:39Z</time>
      </trkpt>
      <trkpt lat="42.771738013252616" lon="-3.939197016879916">
        <ele>1033.0699999999999</ele>
        <time>2025-04-28T10:29:40Z</time>
      </trkpt>
      <trkpt lat="42.772219972684979" lon="-3.93858103081584">
        <ele>1025.8599999999999</ele>
        <time>2025-04-28T10:29:45Z</time>
      </trkpt>
      <trkpt lat="42.772336984053254" lon="-3.938530990853906">
        <ele>1024.4200000000001</ele>
        <time>2025-04-28T10:29:46Z</time>
      </trkpt>
      <trkpt lat="42.772450977936387" lon="-3.938482040539384">
        <ele>1022.98</ele>
        <time>2025-04-28T10:29:47Z</time>
      </trkpt>
      <trkpt lat="42.77256497181952" lon="-3.938427977263928">
        <ele>1021.0599999999999</ele>
        <time>2025-04-28T10:29:48Z</time>
      </trkpt>
      <trkpt lat="42.772675026208162" lon="-3.938372991979122">
        <ele>1019.13</ele>
        <time>2025-04-28T10:29:49Z</time>
      </trkpt>
      <trkpt lat="42.772891027852893" lon="-3.938269978389144">
        <ele>1015.29</ele>
        <time>2025-04-28T10:29:51Z</time>
      </trkpt>
      <trkpt lat="42.772998986765742" lon="-3.938219016417861">
        <ele>1012.89</ele>
        <time>2025-04-28T10:29:52Z</time>
      </trkpt>
      <trkpt lat="42.773096971213818" lon="-3.938171993941069">
        <ele>1011.4400000000001</ele>
        <time>2025-04-28T10:29:53Z</time>
      </trkpt>
      <trkpt lat="42.77318699285388" lon="-3.938179034739733">
        <ele>1009.52</ele>
        <time>2025-04-28T10:29:54Z</time>
      </trkpt>
      <trkpt lat="42.773266034200788" lon="-3.938188003376126">
        <ele>1008.08</ele>
        <time>2025-04-28T10:29:55Z</time>
      </trkpt>
      <trkpt lat="42.773335017263889" lon="-3.938198983669281">
        <ele>1006.64</ele>
        <time>2025-04-28T10:29:56Z</time>
      </trkpt>
      <trkpt lat="42.773572979494929" lon="-3.938251035287976">
        <ele>1001.35</ele>
        <time>2025-04-28T10:30:00Z</time>
      </trkpt>
      <trkpt lat="42.773709017783403" lon="-3.938207030296326">
        <ele>998.95000000000005</ele>
        <time>2025-04-28T10:30:02Z</time>
      </trkpt>
      <trkpt lat="42.773778000846505" lon="-3.938177023082972">
        <ele>997.50999999999999</ele>
        <time>2025-04-28T10:30:03Z</time>
      </trkpt>
      <trkpt lat="42.773851007223129" lon="-3.938146010041237">
        <ele>996.05999999999995</ele>
        <time>2025-04-28T10:30:04Z</time>
      </trkpt>
      <trkpt lat="42.773920996114612" lon="-3.93808901309967">
        <ele>995.10000000000002</ele>
        <time>2025-04-28T10:30:05Z</time>
      </trkpt>
      <trkpt lat="42.773980004712939" lon="-3.938004020601511">
        <ele>994.13999999999999</ele>
        <time>2025-04-28T10:30:06Z</time>
      </trkpt>
      <trkpt lat="42.774040019139647" lon="-3.93791601061821">
        <ele>993.17999999999995</ele>
        <time>2025-04-28T10:30:07Z</time>
      </trkpt>
      <trkpt lat="42.774103973060846" lon="-3.937821965664625">
        <ele>992.22000000000003</ele>
        <time>2025-04-28T10:30:08Z</time>
      </trkpt>
      <trkpt lat="42.774169016629457" lon="-3.937726998701692">
        <ele>991.25999999999999</ele>
        <time>2025-04-28T10:30:09Z</time>
      </trkpt>
      <trkpt lat="42.774182008579373" lon="-3.937606969848275">
        <ele>990.29999999999995</ele>
        <time>2025-04-28T10:30:10Z</time>
      </trkpt>
      <trkpt lat="42.774189971387386" lon="-3.937477972358465">
        <ele>988.85000000000002</ele>
        <time>2025-04-28T10:30:11Z</time>
      </trkpt>
      <trkpt lat="42.77419600635767" lon="-3.937375964596868">
        <ele>987.88999999999999</ele>
        <time>2025-04-28T10:30:12Z</time>
      </trkpt>
      <trkpt lat="42.774144038558006" lon="-3.937189970165491">
        <ele>986.92999999999995</ele>
        <time>2025-04-28T10:30:13Z</time>
      </trkpt>
      <trkpt lat="42.774088969454169" lon="-3.936997018754482">
        <ele>985.97000000000003</ele>
        <time>2025-04-28T10:30:14Z</time>
      </trkpt>
      <trkpt lat="42.774030966684222" lon="-3.936791997402906">
        <ele>984.52999999999997</ele>
        <time>2025-04-28T10:30:15Z</time>
      </trkpt>
      <trkpt lat="42.773914039134979" lon="-3.936357982456684">
        <ele>981.63999999999999</ele>
        <time>2025-04-28T10:30:17Z</time>
      </trkpt>
      <trkpt lat="42.773890988901258" lon="-3.936162013560534">
        <ele>980.67999999999995</ele>
        <time>2025-04-28T10:30:18Z</time>
      </trkpt>
      <trkpt lat="42.773900041356683" lon="-3.935930002480745">
        <ele>979.24000000000001</ele>
        <time>2025-04-28T10:30:19Z</time>
      </trkpt>
      <trkpt lat="42.773951003327966" lon="-3.935750965029001">
        <ele>978.27999999999997</ele>
        <time>2025-04-28T10:30:20Z</time>
      </trkpt>
      <trkpt lat="42.774002971127629" lon="-3.935562958940864">
        <ele>976.84000000000003</ele>
        <time>2025-04-28T10:30:21Z</time>
      </trkpt>
      <trkpt lat="42.774105984717607" lon="-3.935375958681107">
        <ele>975.38999999999999</ele>
        <time>2025-04-28T10:30:22Z</time>
      </trkpt>
      <trkpt lat="42.77421603910625" lon="-3.935223994776607">
        <ele>973.95000000000005</ele>
        <time>2025-04-28T10:30:23Z</time>
      </trkpt>
      <trkpt lat="42.774330032989383" lon="-3.935067001730204">
        <ele>972.99000000000001</ele>
        <time>2025-04-28T10:30:24Z</time>
      </trkpt>
      <trkpt lat="42.774445032700896" lon="-3.93490900285542">
        <ele>971.07000000000005</ele>
        <time>2025-04-28T10:30:25Z</time>
      </trkpt>
      <trkpt lat="42.775252964347601" lon="-3.933797981590033">
        <ele>960.00999999999999</ele>
        <time>2025-04-28T10:30:32Z</time>
      </trkpt>
      <trkpt lat="42.775348015129566" lon="-3.933667978271842">
        <ele>958.09000000000003</ele>
        <time>2025-04-28T10:30:33Z</time>
      </trkpt>
      <trkpt lat="42.77546402066946" lon="-3.933593966066837">
        <ele>956.16999999999996</ele>
        <time>2025-04-28T10:30:34Z</time>
      </trkpt>
      <trkpt lat="42.775577008724213" lon="-3.933586003258824">
        <ele>954.25</ele>
        <time>2025-04-28T10:30:35Z</time>
      </trkpt>
      <trkpt lat="42.775697959586978" lon="-3.933578040450811">
        <ele>952.79999999999995</ele>
        <time>2025-04-28T10:30:36Z</time>
      </trkpt>
      <trkpt lat="42.775797033682466" lon="-3.933601006865501">
        <ele>951.36000000000001</ele>
        <time>2025-04-28T10:30:37Z</time>
      </trkpt>
      <trkpt lat="42.775903986766934" lon="-3.933627996593714">
        <ele>949.91999999999996</ele>
        <time>2025-04-28T10:30:38Z</time>
      </trkpt>
      <trkpt lat="42.776115965098143" lon="-3.933678958564997">
        <ele>947.51999999999998</ele>
        <time>2025-04-28T10:30:40Z</time>
      </trkpt>
      <trkpt lat="42.77621403336525" lon="-3.933703014627099">
        <ele>946.07000000000005</ele>
        <time>2025-04-28T10:30:41Z</time>
      </trkpt>
      <trkpt lat="42.776301959529519" lon="-3.933723969385028">
        <ele>944.63</ele>
        <time>2025-04-28T10:30:42Z</time>
      </trkpt>
      <trkpt lat="42.776405978947878" lon="-3.933749031275511">
        <ele>943.66999999999996</ele>
        <time>2025-04-28T10:30:43Z</time>
      </trkpt>
      <trkpt lat="42.77647596783936" lon="-3.933720029890537">
        <ele>942.23000000000002</ele>
        <time>2025-04-28T10:30:44Z</time>
      </trkpt>
      <trkpt lat="42.776771010830998" lon="-3.93359899520874">
        <ele>938.38</ele>
        <time>2025-04-28T10:30:48Z</time>
      </trkpt>
      <trkpt lat="42.776799006387591" lon="-3.933616010472179">
        <ele>937.41999999999996</ele>
        <time>2025-04-28T10:30:49Z</time>
      </trkpt>
      <trkpt lat="42.776857009157538" lon="-3.933712989091873">
        <ele>935.98000000000002</ele>
        <time>2025-04-28T10:30:50Z</time>
      </trkpt>
      <trkpt lat="42.776835970580578" lon="-3.933763029053807">
        <ele>935.01999999999998</ele>
        <time>2025-04-28T10:30:51Z</time>
      </trkpt>
      <trkpt lat="42.776788026094437" lon="-3.93383301794529">
        <ele>934.05999999999995</ele>
        <time>2025-04-28T10:30:52Z</time>
      </trkpt>
      <trkpt lat="42.776728011667728" lon="-3.933878028765321">
        <ele>933.10000000000002</ele>
        <time>2025-04-28T10:30:53Z</time>
      </trkpt>
      <trkpt lat="42.776652993634343" lon="-3.933934019878507">
        <ele>932.13999999999999</ele>
        <time>2025-04-28T10:30:54Z</time>
      </trkpt>
      <trkpt lat="42.776565989479423" lon="-3.933995962142944">
        <ele>931.16999999999996</ele>
        <time>2025-04-28T10:30:55Z</time>
      </trkpt>
      <trkpt lat="42.776249991729856" lon="-3.934191009029746">
        <ele>927.80999999999995</ele>
        <time>2025-04-28T10:30:58Z</time>
      </trkpt>
      <trkpt lat="42.776120994240046" lon="-3.934226967394352">
        <ele>926.85000000000002</ele>
        <time>2025-04-28T10:30:59Z</time>
      </trkpt>
      <trkpt lat="42.775854030624032" lon="-3.934257980436087">
        <ele>924.92999999999995</ele>
        <time>2025-04-28T10:31:01Z</time>
      </trkpt>
      <trkpt lat="42.775728972628713" lon="-3.934310032054782">
        <ele>923.96000000000004</ele>
        <time>2025-04-28T10:31:02Z</time>
      </trkpt>
      <trkpt lat="42.775625037029386" lon="-3.9343729801476">
        <ele>923</ele>
        <time>2025-04-28T10:31:03Z</time>
      </trkpt>
      <trkpt lat="42.775591006502509" lon="-3.934502983465791">
        <ele>922.03999999999996</ele>
        <time>2025-04-28T10:31:04Z</time>
      </trkpt>
      <trkpt lat="42.775591006502509" lon="-3.934637010097504">
        <ele>921.08000000000004</ele>
        <time>2025-04-28T10:31:05Z</time>
      </trkpt>
      <trkpt lat="42.77559201233089" lon="-3.934783022850752">
        <ele>920.12</ele>
        <time>2025-04-28T10:31:06Z</time>
      </trkpt>
      <trkpt lat="42.775637023150921" lon="-3.934942027553916">
        <ele>918.67999999999995</ele>
        <time>2025-04-28T10:31:07Z</time>
      </trkpt>
      <trkpt lat="42.775689996778965" lon="-3.9351000264287">
        <ele>916.75</ele>
        <time>2025-04-28T10:31:08Z</time>
      </trkpt>
      <trkpt lat="42.77578404173255" lon="-3.935245033353567">
        <ele>915.30999999999995</ele>
        <time>2025-04-28T10:31:09Z</time>
      </trkpt>
      <trkpt lat="42.775881020352244" lon="-3.935394985601306">
        <ele>913.38999999999999</ele>
        <time>2025-04-28T10:31:10Z</time>
      </trkpt>
      <trkpt lat="42.7759800106287" lon="-3.935548039153218">
        <ele>911.47000000000003</ele>
        <time>2025-04-28T10:31:11Z</time>
      </trkpt>
      <trkpt lat="42.776203975081444" lon="-3.935840986669064">
        <ele>906.65999999999997</ele>
        <time>2025-04-28T10:31:13Z</time>
      </trkpt>
      <trkpt lat="42.776348982006311" lon="-3.935917010530829">
        <ele>904.25999999999999</ele>
        <time>2025-04-28T10:31:14Z</time>
      </trkpt>
      <trkpt lat="42.776789031922817" lon="-3.936258992180228">
        <ele>894.63999999999999</ele>
        <time>2025-04-28T10:31:17Z</time>
      </trkpt>
      <trkpt lat="42.776939989998937" lon="-3.936393018811941">
        <ele>891.75999999999999</ele>
        <time>2025-04-28T10:31:18Z</time>
      </trkpt>
      <trkpt lat="42.778121000155807" lon="-3.937341012060642">
        <ele>868.21000000000004</ele>
        <time>2025-04-28T10:31:25Z</time>
      </trkpt>
      <trkpt lat="42.778311017900705" lon="-3.937434973195195">
        <ele>865.32000000000005</ele>
        <time>2025-04-28T10:31:26Z</time>
      </trkpt>
      <trkpt lat="42.780311023816466" lon="-3.938001003116369">
        <ele>841.76999999999998</ele>
        <time>2025-04-28T10:31:35Z</time>
      </trkpt>
      <trkpt lat="42.782193012535572" lon="-3.938406016677618">
        <ele>821.58000000000004</ele>
        <time>2025-04-28T10:31:44Z</time>
      </trkpt>
      <trkpt lat="42.782600037753582" lon="-3.93836997449398">
        <ele>817.74000000000001</ele>
        <time>2025-04-28T10:31:46Z</time>
      </trkpt>
      <trkpt lat="42.782797012478113" lon="-3.93832697533071">
        <ele>815.82000000000005</ele>
        <time>2025-04-28T10:31:47Z</time>
      </trkpt>
      <trkpt lat="42.782991975545883" lon="-3.938250029459596">
        <ele>813.88999999999999</ele>
        <time>2025-04-28T10:31:48Z</time>
      </trkpt>
      <trkpt lat="42.783173024654388" lon="-3.938108962029219">
        <ele>812.45000000000005</ele>
        <time>2025-04-28T10:31:49Z</time>
      </trkpt>
      <trkpt lat="42.783358013257384" lon="-3.937964960932732">
        <ele>810.52999999999997</ele>
        <time>2025-04-28T10:31:50Z</time>
      </trkpt>
      <trkpt lat="42.78392999432981" lon="-3.937596995383501">
        <ele>804.27999999999997</ele>
        <time>2025-04-28T10:31:53Z</time>
      </trkpt>
      <trkpt lat="42.784120012074709" lon="-3.937513008713722">
        <ele>802.36000000000001</ele>
        <time>2025-04-28T10:31:54Z</time>
      </trkpt>
      <trkpt lat="42.785093989223242" lon="-3.937212014570832">
        <ele>792.74000000000001</ele>
        <time>2025-04-28T10:31:59Z</time>
      </trkpt>
      <trkpt lat="42.785256011411548" lon="-3.937104977667332">
        <ele>791.29999999999995</ele>
        <time>2025-04-28T10:32:00Z</time>
      </trkpt>
      <trkpt lat="42.785373022779822" lon="-3.936938010156155">
        <ele>789.86000000000001</ele>
        <time>2025-04-28T10:32:01Z</time>
      </trkpt>
      <trkpt lat="42.785488022491336" lon="-3.936773976311088">
        <ele>788.41999999999996</ele>
        <time>2025-04-28T10:32:02Z</time>
      </trkpt>
      <trkpt lat="42.785587012767792" lon="-3.936602985486388">
        <ele>786.98000000000002</ele>
        <time>2025-04-28T10:32:03Z</time>
      </trkpt>
      <trkpt lat="42.785670999437571" lon="-3.936420008540154">
        <ele>786.01999999999998</ele>
        <time>2025-04-28T10:32:04Z</time>
      </trkpt>
      <trkpt lat="42.785732019692659" lon="-3.936225967481732">
        <ele>785.04999999999995</ele>
        <time>2025-04-28T10:32:05Z</time>
      </trkpt>
      <trkpt lat="42.785790022462606" lon="-3.936036033555865">
        <ele>784.09000000000003</ele>
        <time>2025-04-28T10:32:06Z</time>
      </trkpt>
      <trkpt lat="42.785952966660261" lon="-3.935500010848045">
        <ele>781.69000000000005</ele>
        <time>2025-04-28T10:32:09Z</time>
      </trkpt>
      <trkpt lat="42.786017004400492" lon="-3.935341006144881">
        <ele>781.21000000000004</ele>
        <time>2025-04-28T10:32:10Z</time>
      </trkpt>
      <trkpt lat="42.786113983020186" lon="-3.93518895842135">
        <ele>780.25</ele>
        <time>2025-04-28T10:32:11Z</time>
      </trkpt>
      <trkpt lat="42.786239963024855" lon="-3.935108995065093">
        <ele>779.76999999999998</ele>
        <time>2025-04-28T10:32:12Z</time>
      </trkpt>
      <trkpt lat="42.786384969949722" lon="-3.93503699451685">
        <ele>779.28999999999996</ele>
        <time>2025-04-28T10:32:13Z</time>
      </trkpt>
      <trkpt lat="42.786534000188112" lon="-3.934987038373947">
        <ele>778.80999999999995</ele>
        <time>2025-04-28T10:32:14Z</time>
      </trkpt>
      <trkpt lat="42.786683030426502" lon="-3.934936998412013">
        <ele>778.32000000000005</ele>
        <time>2025-04-28T10:32:15Z</time>
      </trkpt>
      <trkpt lat="42.786825019866228" lon="-3.934862986207008">
        <ele>777.84000000000003</ele>
        <time>2025-04-28T10:32:16Z</time>
      </trkpt>
      <trkpt lat="42.786970026791096" lon="-3.934783022850752">
        <ele>777.36000000000001</ele>
        <time>2025-04-28T10:32:17Z</time>
      </trkpt>
      <trkpt lat="42.787116961553693" lon="-3.934698030352593">
        <ele>776.88</ele>
        <time>2025-04-28T10:32:18Z</time>
      </trkpt>
      <trkpt lat="42.788469968363643" lon="-3.933912981301546">
        <ele>772.55999999999995</ele>
        <time>2025-04-28T10:32:27Z</time>
      </trkpt>
      <trkpt lat="42.788602989166975" lon="-3.933773003518581">
        <ele>772.08000000000004</ele>
        <time>2025-04-28T10:32:28Z</time>
      </trkpt>
      <trkpt lat="42.788736009970307" lon="-3.933634031563997">
        <ele>771.11000000000001</ele>
        <time>2025-04-28T10:32:29Z</time>
      </trkpt>
      <trkpt lat="42.789776036515832" lon="-3.932666005566716">
        <ele>762.46000000000004</ele>
        <time>2025-04-28T10:32:36Z</time>
      </trkpt>
      <trkpt lat="42.789925988763571" lon="-3.932550000026822">
        <ele>760.53999999999996</ele>
        <time>2025-04-28T10:32:37Z</time>
      </trkpt>
      <trkpt lat="42.79009597375989" lon="-3.932418990880251">
        <ele>759.10000000000002</ele>
        <time>2025-04-28T10:32:38Z</time>
      </trkpt>
      <trkpt lat="42.790228994563222" lon="-3.932372974231839">
        <ele>757.17999999999995</ele>
        <time>2025-04-28T10:32:39Z</time>
      </trkpt>
      <trkpt lat="42.791215041652322" lon="-3.932208018377423">
        <ele>747.08000000000004</ele>
        <time>2025-04-28T10:32:46Z</time>
      </trkpt>
      <trkpt lat="42.791313026100397" lon="-3.932182034477592">
        <ele>745.63999999999999</ele>
        <time>2025-04-28T10:32:47Z</time>
      </trkpt>
      <trkpt lat="42.791405981406569" lon="-3.932145992293954">
        <ele>744.20000000000005</ele>
        <time>2025-04-28T10:32:48Z</time>
      </trkpt>
      <trkpt lat="42.791491979733109" lon="-3.932112967595458">
        <ele>743.24000000000001</ele>
        <time>2025-04-28T10:32:49Z</time>
      </trkpt>
      <trkpt lat="42.79157898388803" lon="-3.932057982310653">
        <ele>742.27999999999997</ele>
        <time>2025-04-28T10:32:50Z</time>
      </trkpt>
      <trkpt lat="42.791659031063318" lon="-3.931990005075932">
        <ele>741.30999999999995</ele>
        <time>2025-04-28T10:32:51Z</time>
      </trkpt>
      <trkpt lat="42.791733965277672" lon="-3.931897971779108">
        <ele>740.35000000000002</ele>
        <time>2025-04-28T10:32:52Z</time>
      </trkpt>
      <trkpt lat="42.791801020503044" lon="-3.931791018694639">
        <ele>739.87</ele>
        <time>2025-04-28T10:32:53Z</time>
      </trkpt>
      <trkpt lat="42.791838990524411" lon="-3.931675013154745">
        <ele>738.90999999999997</ele>
        <time>2025-04-28T10:32:54Z</time>
      </trkpt>
      <trkpt lat="42.791877966374159" lon="-3.93155699595809">
        <ele>737.95000000000005</ele>
        <time>2025-04-28T10:32:55Z</time>
      </trkpt>
      <trkpt lat="42.791918031871319" lon="-3.931436967104673">
        <ele>737.47000000000003</ele>
        <time>2025-04-28T10:32:56Z</time>
      </trkpt>
      <trkpt lat="42.791951978579164" lon="-3.931318027898669">
        <ele>736.50999999999999</ele>
        <time>2025-04-28T10:32:57Z</time>
      </trkpt>
      <trkpt lat="42.791977040469646" lon="-3.931200010702014">
        <ele>735.54999999999995</ele>
        <time>2025-04-28T10:32:58Z</time>
      </trkpt>
      <trkpt lat="42.792003024369478" lon="-3.931075958535075">
        <ele>734.58000000000004</ele>
        <time>2025-04-28T10:32:59Z</time>
      </trkpt>
      <trkpt lat="42.792032025754452" lon="-3.930951990187168">
        <ele>734.10000000000002</ele>
        <time>2025-04-28T10:33:00Z</time>
      </trkpt>
      <trkpt lat="42.792089022696018" lon="-3.930837996304035">
        <ele>733.13999999999999</ele>
        <time>2025-04-28T10:33:01Z</time>
      </trkpt>
      <trkpt lat="42.792179966345429" lon="-3.930750992149115">
        <ele>732.17999999999995</ele>
        <time>2025-04-28T10:33:02Z</time>
      </trkpt>
      <trkpt lat="42.792280968278646" lon="-3.930695001035929">
        <ele>731.22000000000003</ele>
        <time>2025-04-28T10:33:03Z</time>
      </trkpt>
      <trkpt lat="42.792380964383483" lon="-3.930639009922743">
        <ele>730.25999999999999</ele>
        <time>2025-04-28T10:33:04Z</time>
      </trkpt>
      <trkpt lat="42.792499987408519" lon="-3.930573966354132">
        <ele>729.77999999999997</ele>
        <time>2025-04-28T10:33:05Z</time>
      </trkpt>
      <trkpt lat="42.792594032362103" lon="-3.930544964969158">
        <ele>728.82000000000005</ele>
        <time>2025-04-28T10:33:06Z</time>
      </trkpt>
      <trkpt lat="42.79370698146522" lon="-3.930188985541463">
        <ele>719.20000000000005</ele>
        <time>2025-04-28T10:33:18Z</time>
      </trkpt>
      <trkpt lat="42.794504016637802" lon="-3.929852033033967">
        <ele>716.79999999999995</ele>
        <time>2025-04-28T10:33:27Z</time>
      </trkpt>
      <trkpt lat="42.7945869974792" lon="-3.9298399630934">
        <ele>716.79999999999995</ele>
        <time>2025-04-28T10:33:28Z</time>
      </trkpt>
      <trkpt lat="42.794670984148979" lon="-3.929827976971865">
        <ele>716.79999999999995</ele>
        <time>2025-04-28T10:33:29Z</time>
      </trkpt>
      <trkpt lat="42.794768968597054" lon="-3.929870976135135">
        <ele>717.27999999999997</ele>
        <time>2025-04-28T10:33:30Z</time>
      </trkpt>
      <trkpt lat="42.794849015772343" lon="-3.929936019703746">
        <ele>717.27999999999997</ele>
        <time>2025-04-28T10:33:31Z</time>
      </trkpt>
      <trkpt lat="42.794931996613741" lon="-3.930002991110086">
        <ele>717.27999999999997</ele>
        <time>2025-04-28T10:33:32Z</time>
      </trkpt>
      <trkpt lat="42.7950169891119" lon="-3.930071974173188">
        <ele>717.27999999999997</ele>
        <time>2025-04-28T10:33:33Z</time>
      </trkpt>
      <trkpt lat="42.79510198161006" lon="-3.930142968893051">
        <ele>717.27999999999997</ele>
        <time>2025-04-28T10:33:34Z</time>
      </trkpt>
      <trkpt lat="42.795190997421741" lon="-3.930219998583198">
        <ele>717.27999999999997</ele>
        <time>2025-04-28T10:33:35Z</time>
      </trkpt>
      <trkpt lat="42.795400964096189" lon="-3.930317983031273">
        <ele>717.27999999999997</ele>
        <time>2025-04-28T10:33:37Z</time>
      </trkpt>
      <trkpt lat="42.795634986832738" lon="-3.930388977751136">
        <ele>716.79999999999995</ele>
        <time>2025-04-28T10:33:39Z</time>
      </trkpt>
      <trkpt lat="42.795740012079477" lon="-3.930358970537782">
        <ele>716.32000000000005</ele>
        <time>2025-04-28T10:33:40Z</time>
      </trkpt>
      <trkpt lat="42.795862974599004" lon="-3.930297028273344">
        <ele>715.84000000000003</ele>
        <time>2025-04-28T10:33:41Z</time>
      </trkpt>
      <trkpt lat="42.796265976503491" lon="-3.930184962227941">
        <ele>715.36000000000001</ele>
        <time>2025-04-28T10:33:44Z</time>
      </trkpt>
      <trkpt lat="42.797456961125135" lon="-3.929543998092413">
        <ele>714.88</ele>
        <time>2025-04-28T10:33:52Z</time>
      </trkpt>
      <trkpt lat="42.798975007608533" lon="-3.928461978211999">
        <ele>715.84000000000003</ele>
        <time>2025-04-28T10:34:02Z</time>
      </trkpt>
      <trkpt lat="42.799282958731055" lon="-3.928286964073777">
        <ele>715.84000000000003</ele>
        <time>2025-04-28T10:34:04Z</time>
      </trkpt>
      <trkpt lat="42.79944003559649" lon="-3.928230972960591">
        <ele>715.84000000000003</ele>
        <time>2025-04-28T10:34:05Z</time>
      </trkpt>
      <trkpt lat="42.800040012225509" lon="-3.928004996851087">
        <ele>716.32000000000005</ele>
        <time>2025-04-28T10:34:09Z</time>
      </trkpt>
      <trkpt lat="42.800202034413815" lon="-3.92792402766645">
        <ele>716.79999999999995</ele>
        <time>2025-04-28T10:34:10Z</time>
      </trkpt>
      <trkpt lat="42.800361039116979" lon="-3.927843980491161">
        <ele>716.32000000000005</ele>
        <time>2025-04-28T10:34:11Z</time>
      </trkpt>
      <trkpt lat="42.800517026335001" lon="-3.927777009084821">
        <ele>716.32000000000005</ele>
        <time>2025-04-28T10:34:12Z</time>
      </trkpt>
      <trkpt lat="42.800672007724643" lon="-3.927742978557944">
        <ele>715.36000000000001</ele>
        <time>2025-04-28T10:34:13Z</time>
      </trkpt>
      <trkpt lat="42.800830006599426" lon="-3.927738033235073">
        <ele>714.39999999999998</ele>
        <time>2025-04-28T10:34:14Z</time>
      </trkpt>
      <trkpt lat="42.800979036837816" lon="-3.92779603600502">
        <ele>713.44000000000005</ele>
        <time>2025-04-28T10:34:15Z</time>
      </trkpt>
      <trkpt lat="42.801134018227458" lon="-3.927855966612697">
        <ele>711.99000000000001</ele>
        <time>2025-04-28T10:34:16Z</time>
      </trkpt>
      <trkpt lat="42.801575995981693" lon="-3.928026035428047">
        <ele>708.14999999999998</ele>
        <time>2025-04-28T10:34:19Z</time>
      </trkpt>
      <trkpt lat="42.801726032048464" lon="-3.928084038197994">
        <ele>706.71000000000004</ele>
        <time>2025-04-28T10:34:20Z</time>
      </trkpt>
      <trkpt lat="42.801854023709893" lon="-3.928060987964273">
        <ele>705.75</ele>
        <time>2025-04-28T10:34:21Z</time>
      </trkpt>
      <trkpt lat="42.801986960694194" lon="-3.928036009892821">
        <ele>704.77999999999997</ele>
        <time>2025-04-28T10:34:22Z</time>
      </trkpt>
      <trkpt lat="42.802128028124571" lon="-3.92792696133256">
        <ele>703.82000000000005</ele>
        <time>2025-04-28T10:34:23Z</time>
      </trkpt>
      <trkpt lat="42.802218971773982" lon="-3.927783966064453">
        <ele>703.34000000000003</ele>
        <time>2025-04-28T10:34:24Z</time>
      </trkpt>
      <trkpt lat="42.802307987585664" lon="-3.927643988281488">
        <ele>702.86000000000001</ele>
        <time>2025-04-28T10:34:25Z</time>
      </trkpt>
      <trkpt lat="42.802393985912204" lon="-3.927507027983666">
        <ele>702.38</ele>
        <time>2025-04-28T10:34:26Z</time>
      </trkpt>
      <trkpt lat="42.802548967301846" lon="-3.927256995812058">
        <ele>701.89999999999998</ele>
        <time>2025-04-28T10:34:28Z</time>
      </trkpt>
      <trkpt lat="42.802605964243412" lon="-3.927163034677506">
        <ele>701.41999999999996</ele>
        <time>2025-04-28T10:34:29Z</time>
      </trkpt>
      <trkpt lat="42.802671007812023" lon="-3.927053986117244">
        <ele>701.41999999999996</ele>
        <time>2025-04-28T10:34:30Z</time>
      </trkpt>
      <trkpt lat="42.802768992260098" lon="-3.927137972787023">
        <ele>700.94000000000005</ele>
        <time>2025-04-28T10:34:31Z</time>
      </trkpt>
      <trkpt lat="42.80281500890851" lon="-3.927177032455802">
        <ele>700.94000000000005</ele>
        <time>2025-04-28T10:34:32Z</time>
      </trkpt>
      <trkpt lat="42.802865970879793" lon="-3.927220031619072">
        <ele>700.46000000000004</ele>
        <time>2025-04-28T10:34:33Z</time>
      </trkpt>
      <trkpt lat="42.802918022498488" lon="-3.927264958620071">
        <ele>699.98000000000002</ele>
        <time>2025-04-28T10:34:34Z</time>
      </trkpt>
      <trkpt lat="42.802973007783294" lon="-3.927311981096864">
        <ele>699.5</ele>
        <time>2025-04-28T10:34:35Z</time>
      </trkpt>
      <trkpt lat="42.80303000472486" lon="-3.927360009402037">
        <ele>699.01999999999998</ele>
        <time>2025-04-28T10:34:36Z</time>
      </trkpt>
      <trkpt lat="42.803084990009665" lon="-3.927407031878829">
        <ele>698.52999999999997</ele>
        <time>2025-04-28T10:34:37Z</time>
      </trkpt>
      <trkpt lat="42.803442981094122" lon="-3.927891002967954">
        <ele>696.13</ele>
        <time>2025-04-28T10:34:45Z</time>
      </trkpt>
      <trkpt lat="42.803445998579264" lon="-3.927917992696166">
        <ele>696.13</ele>
        <time>2025-04-28T10:34:46Z</time>
      </trkpt>
      <trkpt lat="42.803457984700799" lon="-3.928004996851087">
        <ele>695.64999999999998</ele>
        <time>2025-04-28T10:34:47Z</time>
      </trkpt>
      <trkpt lat="42.803472988307476" lon="-3.928110022097826">
        <ele>695.16999999999996</ele>
        <time>2025-04-28T10:34:48Z</time>
      </trkpt>
      <trkpt lat="42.803487991914153" lon="-3.928224015980959">
        <ele>695.16999999999996</ele>
        <time>2025-04-28T10:34:49Z</time>
      </trkpt>
      <trkpt lat="42.803521016612649" lon="-3.928472036495805">
        <ele>694.69000000000005</ele>
        <time>2025-04-28T10:34:51Z</time>
      </trkpt>
      <trkpt lat="42.803800972178578" lon="-3.929586997255683">
        <ele>696.13</ele>
        <time>2025-04-28T10:35:01Z</time>
      </trkpt>
      <trkpt lat="42.803858974948525" lon="-3.929674001410604">
        <ele>696.13</ele>
        <time>2025-04-28T10:35:02Z</time>
      </trkpt>
      <trkpt lat="42.803916977718472" lon="-3.929761005565524">
        <ele>697.09000000000003</ele>
        <time>2025-04-28T10:35:03Z</time>
      </trkpt>
      <trkpt lat="42.803979003801942" lon="-3.929835017770529">
        <ele>697.57000000000005</ele>
        <time>2025-04-28T10:35:04Z</time>
      </trkpt>
      <trkpt lat="42.804054021835327" lon="-3.929877011105418">
        <ele>698.04999999999995</ele>
        <time>2025-04-28T10:35:05Z</time>
      </trkpt>
      <trkpt lat="42.804126022383571" lon="-3.929919004440308">
        <ele>698.52999999999997</ele>
        <time>2025-04-28T10:35:06Z</time>
      </trkpt>
      <trkpt lat="42.804191987961531" lon="-3.929955968633294">
        <ele>699.01999999999998</ele>
        <time>2025-04-28T10:35:07Z</time>
      </trkpt>
      <trkpt lat="42.804264994338155" lon="-3.929992010816932">
        <ele>699.5</ele>
        <time>2025-04-28T10:35:08Z</time>
      </trkpt>
      <trkpt lat="42.804311010986567" lon="-3.929973989725113">
        <ele>699.98000000000002</ele>
        <time>2025-04-28T10:35:09Z</time>
      </trkpt>
      <trkpt lat="42.804391980171204" lon="-3.929943982511759">
        <ele>701.41999999999996</ele>
        <time>2025-04-28T10:35:12Z</time>
      </trkpt>
      <trkpt lat="42.804437996819615" lon="-3.929984970018268">
        <ele>701.41999999999996</ele>
        <time>2025-04-28T10:35:13Z</time>
      </trkpt>
      <trkpt lat="42.804446965456009" lon="-3.93005202524364">
        <ele>701.89999999999998</ele>
        <time>2025-04-28T10:35:14Z</time>
      </trkpt>
      <trkpt lat="42.804450988769531" lon="-3.930137017741799">
        <ele>701.89999999999998</ele>
        <time>2025-04-28T10:35:15Z</time>
      </trkpt>
      <trkpt lat="42.804458029568195" lon="-3.930240031331778">
        <ele>702.38</ele>
        <time>2025-04-28T10:35:16Z</time>
      </trkpt>
      <trkpt lat="42.804527012631297" lon="-3.930553011596203">
        <ele>702.38</ele>
        <time>2025-04-28T10:35:19Z</time>
      </trkpt>
      <trkpt lat="42.804767992347479" lon="-3.93170602619648">
        <ele>703.34000000000003</ele>
        <time>2025-04-28T10:35:27Z</time>
      </trkpt>
      <trkpt lat="42.805072003975511" lon="-3.933389028534293">
        <ele>709.11000000000001</ele>
        <time>2025-04-28T10:35:38Z</time>
      </trkpt>
      <trkpt lat="42.805207036435604" lon="-3.934046002104878">
        <ele>711.02999999999997</ele>
        <time>2025-04-28T10:35:44Z</time>
      </trkpt>
      <trkpt lat="42.80522002838552" lon="-3.934095036238432">
        <ele>711.02999999999997</ele>
        <time>2025-04-28T10:35:45Z</time>
      </trkpt>
      <trkpt lat="42.805231008678675" lon="-3.934138035401702">
        <ele>711.02999999999997</ele>
        <time>2025-04-28T10:35:46Z</time>
      </trkpt>
      <trkpt lat="42.805239977315068" lon="-3.934172987937927">
        <ele>711.02999999999997</ele>
        <time>2025-04-28T10:35:47Z</time>
      </trkpt>
      <trkpt lat="42.805249029770494" lon="-3.934209030121565">
        <ele>711.50999999999999</ele>
        <time>2025-04-28T10:35:48Z</time>
      </trkpt>
      <trkpt lat="42.805256992578506" lon="-3.93424297682941">
        <ele>711.50999999999999</ele>
        <time>2025-04-28T10:35:49Z</time>
      </trkpt>
      <trkpt lat="42.8052659612149" lon="-3.934274995699525">
        <ele>711.50999999999999</ele>
        <time>2025-04-28T10:35:50Z</time>
      </trkpt>
      <trkpt lat="42.805273002013564" lon="-3.934302991256118">
        <ele>711.99000000000001</ele>
        <time>2025-04-28T10:35:51Z</time>
      </trkpt>
      <trkpt lat="42.805279036983848" lon="-3.93432897515595">
        <ele>711.99000000000001</ele>
        <time>2025-04-28T10:35:52Z</time>
      </trkpt>
      <trkpt lat="42.805283982306719" lon="-3.934345990419388">
        <ele>711.99000000000001</ele>
        <time>2025-04-28T10:35:53Z</time>
      </trkpt>
      <trkpt lat="42.805210975930095" lon="-3.934355964884162">
        <ele>712.95000000000005</ele>
        <time>2025-04-28T10:36:00Z</time>
      </trkpt>
      <trkpt lat="42.805169988423586" lon="-3.934258986264467">
        <ele>715.36000000000001</ele>
        <time>2025-04-28T10:36:11Z</time>
      </trkpt>
      <trkpt lat="42.805169988423586" lon="-3.934258986264467">
        <ele>715.36000000000001</ele>
        <time>2025-04-28T10:36:27Z</time>
      </trkpt>
      <trkpt lat="42.80509396456182" lon="-3.934303997084498">
        <ele>711.99000000000001</ele>
        <time>2025-04-28T10:36:48Z</time>
      </trkpt>
      <trkpt lat="42.80509396456182" lon="-3.934303997084498">
        <ele>711.99000000000001</ele>
        <time>2025-04-28T10:37:03Z</time>
      </trkpt>
      <trkpt lat="42.805235031992197" lon="-3.934154966846108">
        <ele>711.50999999999999</ele>
        <time>2025-04-28T10:37:06Z</time>
      </trkpt>
      <trkpt lat="42.805203013122082" lon="-3.93402798101306">
        <ele>712.95000000000005</ele>
        <time>2025-04-28T10:37:07Z</time>
      </trkpt>
      <trkpt lat="42.80522002838552" lon="-3.934095958247781">
        <ele>713.44000000000005</ele>
        <time>2025-04-28T10:37:10Z</time>
      </trkpt>
      <trkpt lat="42.805231008678675" lon="-3.934139963239431">
        <ele>713.91999999999996</ele>
        <time>2025-04-28T10:37:11Z</time>
      </trkpt>
      <trkpt lat="42.805251041427255" lon="-3.934219004586339">
        <ele>713.44000000000005</ele>
        <time>2025-04-28T10:37:12Z</time>
      </trkpt>
      <trkpt lat="42.805275013670325" lon="-3.934312965720892">
        <ele>712.95000000000005</ele>
        <time>2025-04-28T10:37:13Z</time>
      </trkpt>
      <trkpt lat="42.805568967014551" lon="-3.935462040826678">
        <ele>710.54999999999995</ele>
        <time>2025-04-28T10:37:21Z</time>
      </trkpt>
      <trkpt lat="42.805976998060942" lon="-3.937152000144124">
        <ele>710.54999999999995</ele>
        <time>2025-04-28T10:37:32Z</time>
      </trkpt>
      <trkpt lat="42.805997030809522" lon="-3.937278985977173">
        <ele>711.02999999999997</ele>
        <time>2025-04-28T10:37:33Z</time>
      </trkpt>
      <trkpt lat="42.805938022211194" lon="-3.938757972791791">
        <ele>712.47000000000003</ele>
        <time>2025-04-28T10:37:45Z</time>
      </trkpt>
      <trkpt lat="42.805925030261278" lon="-3.938876995816827">
        <ele>712.95000000000005</ele>
        <time>2025-04-28T10:37:46Z</time>
      </trkpt>
      <trkpt lat="42.80586501583457" lon="-3.939231969416142">
        <ele>713.44000000000005</ele>
        <time>2025-04-28T10:37:49Z</time>
      </trkpt>
      <trkpt lat="42.805842971429229" lon="-3.939324002712965">
        <ele>714.39999999999998</ele>
        <time>2025-04-28T10:37:50Z</time>
      </trkpt>
      <trkpt lat="42.80577901750803" lon="-3.93967897631228">
        <ele>717.75999999999999</ele>
        <time>2025-04-28T10:37:54Z</time>
      </trkpt>
      <trkpt lat="42.805772982537746" lon="-3.939882991835475">
        <ele>719.67999999999995</ele>
        <time>2025-04-28T10:37:56Z</time>
      </trkpt>
      <trkpt lat="42.805769965052605" lon="-3.939987011253834">
        <ele>720.15999999999997</ele>
        <time>2025-04-28T10:37:57Z</time>
      </trkpt>
      <trkpt lat="42.805759990587831" lon="-3.940478023141623">
        <ele>722.57000000000005</ele>
        <time>2025-04-28T10:38:02Z</time>
      </trkpt>
      <trkpt lat="42.805759990587831" lon="-3.940695030614734">
        <ele>723.04999999999995</ele>
        <time>2025-04-28T10:38:04Z</time>
      </trkpt>
      <trkpt lat="42.805746998637915" lon="-3.940796032547951">
        <ele>723.52999999999997</ele>
        <time>2025-04-28T10:38:05Z</time>
      </trkpt>
      <trkpt lat="42.805674998089671" lon="-3.941173972561956">
        <ele>724.00999999999999</ele>
        <time>2025-04-28T10:38:09Z</time>
      </trkpt>
      <trkpt lat="42.805634010583162" lon="-3.941269023343921">
        <ele>724.00999999999999</ele>
        <time>2025-04-28T10:38:10Z</time>
      </trkpt>
      <trkpt lat="42.805563015863299" lon="-3.94143900834024">
        <ele>724.00999999999999</ele>
        <time>2025-04-28T10:38:12Z</time>
      </trkpt>
      <trkpt lat="42.805450027808547" lon="-3.941669007763267">
        <ele>722.57000000000005</ele>
        <time>2025-04-28T10:38:15Z</time>
      </trkpt>
      <trkpt lat="42.805300997570157" lon="-3.941923985257745">
        <ele>722.09000000000003</ele>
        <time>2025-04-28T10:38:18Z</time>
      </trkpt>
      <trkpt lat="42.805267972871661" lon="-3.942039990797639">
        <ele>722.09000000000003</ele>
        <time>2025-04-28T10:38:19Z</time>
      </trkpt>
      <trkpt lat="42.805241988971829" lon="-3.942157002165914">
        <ele>721.61000000000001</ele>
        <time>2025-04-28T10:38:20Z</time>
      </trkpt>
      <trkpt lat="42.805216005071998" lon="-3.942280970513821">
        <ele>721.13</ele>
        <time>2025-04-28T10:38:21Z</time>
      </trkpt>
      <trkpt lat="42.805189015343785" lon="-3.942405022680759">
        <ele>720.64999999999998</ele>
        <time>2025-04-28T10:38:22Z</time>
      </trkpt>
      <trkpt lat="42.804973013699055" lon="-3.944050977006555">
        <ele>717.27999999999997</ele>
        <time>2025-04-28T10:38:33Z</time>
      </trkpt>
      <trkpt lat="42.804877962917089" lon="-3.944998970255256">
        <ele>715.36000000000001</ele>
        <time>2025-04-28T10:38:39Z</time>
      </trkpt>
      <trkpt lat="42.804830018430948" lon="-3.945182031020522">
        <ele>714.88</ele>
        <time>2025-04-28T10:38:40Z</time>
      </trkpt>
      <trkpt lat="42.804777966812253" lon="-3.945375988259912">
        <ele>714.39999999999998</ele>
        <time>2025-04-28T10:38:41Z</time>
      </trkpt>
      <trkpt lat="42.804428022354841" lon="-3.947084974497557">
        <ele>711.02999999999997</ele>
        <time>2025-04-28T10:38:48Z</time>
      </trkpt>
      <trkpt lat="42.804423999041319" lon="-3.949076011776924">
        <ele>707.66999999999996</ele>
        <time>2025-04-28T10:38:55Z</time>
      </trkpt>
      <trkpt lat="42.804473033174872" lon="-3.949618991464376">
        <ele>707.19000000000005</ele>
        <time>2025-04-28T10:38:57Z</time>
      </trkpt>
      <trkpt lat="42.804473033174872" lon="-3.949899030849338">
        <ele>707.19000000000005</ele>
        <time>2025-04-28T10:38:58Z</time>
      </trkpt>
      <trkpt lat="42.804454006254673" lon="-3.950185021385551">
        <ele>707.19000000000005</ele>
        <time>2025-04-28T10:38:59Z</time>
      </trkpt>
      <trkpt lat="42.804392985999584" lon="-3.95046497695148">
        <ele>707.19000000000005</ele>
        <time>2025-04-28T10:39:00Z</time>
      </trkpt>
      <trkpt lat="42.804330037906766" lon="-3.950748033821583">
        <ele>707.66999999999996</ele>
        <time>2025-04-28T10:39:01Z</time>
      </trkpt>
      <trkpt lat="42.804028959944844" lon="-3.951871041208506">
        <ele>708.14999999999998</ele>
        <time>2025-04-28T10:39:05Z</time>
      </trkpt>
      <trkpt lat="42.803928963840008" lon="-3.952131969854236">
        <ele>708.63</ele>
        <time>2025-04-28T10:39:06Z</time>
      </trkpt>
      <trkpt lat="42.803807007148862" lon="-3.952386025339365">
        <ele>709.11000000000001</ele>
        <time>2025-04-28T10:39:07Z</time>
      </trkpt>
      <trkpt lat="42.802949035540223" lon="-3.95403097383678">
        <ele>709.11000000000001</ele>
        <time>2025-04-28T10:39:14Z</time>
      </trkpt>
      <trkpt lat="42.802349980920553" lon="-3.955333018675447">
        <ele>709.59000000000003</ele>
        <time>2025-04-28T10:39:20Z</time>
      </trkpt>
      <trkpt lat="42.802104977890849" lon="-3.955754963681102">
        <ele>709.11000000000001</ele>
        <time>2025-04-28T10:39:22Z</time>
      </trkpt>
      <trkpt lat="42.801978997886181" lon="-3.955967025831342">
        <ele>709.11000000000001</ele>
        <time>2025-04-28T10:39:23Z</time>
      </trkpt>
      <trkpt lat="42.801855029538274" lon="-3.956172969192267">
        <ele>709.11000000000001</ele>
        <time>2025-04-28T10:39:24Z</time>
      </trkpt>
      <trkpt lat="42.80176199041307" lon="-3.956415960565209">
        <ele>709.11000000000001</ele>
        <time>2025-04-28T10:39:25Z</time>
      </trkpt>
      <trkpt lat="42.801669035106897" lon="-3.956655012443662">
        <ele>709.11000000000001</ele>
        <time>2025-04-28T10:39:26Z</time>
      </trkpt>
      <trkpt lat="42.80161103233695" lon="-3.956915019080043">
        <ele>709.59000000000003</ele>
        <time>2025-04-28T10:39:27Z</time>
      </trkpt>
      <trkpt lat="42.80156803317368" lon="-3.957186006009579">
        <ele>709.59000000000003</ele>
        <time>2025-04-28T10:39:28Z</time>
      </trkpt>
      <trkpt lat="42.80152402818203" lon="-3.957460010424256">
        <ele>709.59000000000003</ele>
        <time>2025-04-28T10:39:29Z</time>
      </trkpt>
      <trkpt lat="42.801207024604082" lon="-3.959451969712973">
        <ele>709.11000000000001</ele>
        <time>2025-04-28T10:39:37Z</time>
      </trkpt>
      <trkpt lat="42.801170982420444" lon="-3.959677023813129">
        <ele>709.11000000000001</ele>
        <time>2025-04-28T10:39:38Z</time>
      </trkpt>
      <trkpt lat="42.801071992143989" lon="-3.959871986880899">
        <ele>708.63</ele>
        <time>2025-04-28T10:39:39Z</time>
      </trkpt>
      <trkpt lat="42.800963027402759" lon="-3.960074996575713">
        <ele>709.11000000000001</ele>
        <time>2025-04-28T10:39:40Z</time>
      </trkpt>
      <trkpt lat="42.800510991364717" lon="-3.960945960134268">
        <ele>710.54999999999995</ele>
        <time>2025-04-28T10:39:44Z</time>
      </trkpt>
      <trkpt lat="42.800445025786757" lon="-3.961204960942268">
        <ele>711.50999999999999</ele>
        <time>2025-04-28T10:39:45Z</time>
      </trkpt>
      <trkpt lat="42.800157023593783" lon="-3.962240964174271">
        <ele>711.50999999999999</ele>
        <time>2025-04-28T10:39:49Z</time>
      </trkpt>
      <trkpt lat="42.800060966983438" lon="-3.962473981082439">
        <ele>711.50999999999999</ele>
        <time>2025-04-28T10:39:50Z</time>
      </trkpt>
      <trkpt lat="42.799926018342376" lon="-3.962654024362564">
        <ele>711.02999999999997</ele>
        <time>2025-04-28T10:39:51Z</time>
      </trkpt>
      <trkpt lat="42.79976500198245" lon="-3.962819986045361">
        <ele>710.54999999999995</ele>
        <time>2025-04-28T10:39:52Z</time>
      </trkpt>
      <trkpt lat="42.799602979794145" lon="-3.962986031547189">
        <ele>710.54999999999995</ele>
        <time>2025-04-28T10:39:53Z</time>
      </trkpt>
      <trkpt lat="42.798166992142797" lon="-3.964328980073333">
        <ele>708.63</ele>
        <time>2025-04-28T10:40:02Z</time>
      </trkpt>
      <trkpt lat="42.797441035509109" lon="-3.964662998914719">
        <ele>708.63</ele>
        <time>2025-04-28T10:40:08Z</time>
      </trkpt>
      <trkpt lat="42.796459011733532" lon="-3.965043034404516">
        <ele>708.63</ele>
        <time>2025-04-28T10:40:17Z</time>
      </trkpt>
      <trkpt lat="42.796149970963597" lon="-3.965251995250583">
        <ele>710.07000000000005</ele>
        <time>2025-04-28T10:40:20Z</time>
      </trkpt>
      <trkpt lat="42.796003958210349" lon="-3.965452993288636">
        <ele>710.54999999999995</ele>
        <time>2025-04-28T10:40:22Z</time>
      </trkpt>
      <trkpt lat="42.79594000428915" lon="-3.965564975515008">
        <ele>711.02999999999997</ele>
        <time>2025-04-28T10:40:23Z</time>
      </trkpt>
      <trkpt lat="42.795400964096189" lon="-3.967149993404746">
        <ele>717.75999999999999</ele>
        <time>2025-04-28T10:40:34Z</time>
      </trkpt>
      <trkpt lat="42.795118996873498" lon="-3.968604002147913">
        <ele>718.24000000000001</ele>
        <time>2025-04-28T10:40:43Z</time>
      </trkpt>
      <trkpt lat="42.795132994651794" lon="-3.96881396882236">
        <ele>718.24000000000001</ele>
        <time>2025-04-28T10:40:44Z</time>
      </trkpt>
      <trkpt lat="42.795151015743613" lon="-3.969032987952232">
        <ele>718.72000000000003</ele>
        <time>2025-04-28T10:40:45Z</time>
      </trkpt>
      <trkpt lat="42.795190997421741" lon="-3.969264999032021">
        <ele>718.72000000000003</ele>
        <time>2025-04-28T10:40:46Z</time>
      </trkpt>
      <trkpt lat="42.795254029333591" lon="-3.969492986798286">
        <ele>718.72000000000003</ele>
        <time>2025-04-28T10:40:47Z</time>
      </trkpt>
      <trkpt lat="42.79531697742641" lon="-3.969722986221314">
        <ele>718.24000000000001</ele>
        <time>2025-04-28T10:40:48Z</time>
      </trkpt>
      <trkpt lat="42.795429965481162" lon="-3.969930019229651">
        <ele>718.24000000000001</ele>
        <time>2025-04-28T10:40:49Z</time>
      </trkpt>
      <trkpt lat="42.79555200599134" lon="-3.970120036974549">
        <ele>717.75999999999999</ele>
        <time>2025-04-28T10:40:50Z</time>
      </trkpt>
      <trkpt lat="42.79568200930953" lon="-3.970319023355842">
        <ele>717.27999999999997</ele>
        <time>2025-04-28T10:40:51Z</time>
      </trkpt>
      <trkpt lat="42.795846965163946" lon="-3.970454977825284">
        <ele>717.27999999999997</ele>
        <time>2025-04-28T10:40:52Z</time>
      </trkpt>
      <trkpt lat="42.796012004837394" lon="-3.970590010285378">
        <ele>716.79999999999995</ele>
        <time>2025-04-28T10:40:53Z</time>
      </trkpt>
      <trkpt lat="42.796190958470106" lon="-3.970700986683369">
        <ele>716.32000000000005</ele>
        <time>2025-04-28T10:40:54Z</time>
      </trkpt>
      <trkpt lat="42.796382987871766" lon="-3.970787990838289">
        <ele>715.84000000000003</ele>
        <time>2025-04-28T10:40:55Z</time>
      </trkpt>
      <trkpt lat="42.796582980081439" lon="-3.970843981951475">
        <ele>715.36000000000001</ele>
        <time>2025-04-28T10:40:56Z</time>
      </trkpt>
      <trkpt lat="42.798268999904394" lon="-3.971162997186184">
        <ele>712.95000000000005</ele>
        <time>2025-04-28T10:41:04Z</time>
      </trkpt>
      <trkpt lat="42.79995996505022" lon="-3.971312027424574">
        <ele>713.44000000000005</ele>
        <time>2025-04-28T10:41:12Z</time>
      </trkpt>
      <trkpt lat="42.800970990210772" lon="-3.971466002985835">
        <ele>712.95000000000005</ele>
        <time>2025-04-28T10:41:17Z</time>
      </trkpt>
      <trkpt lat="42.801156984642148" lon="-3.971555018797517">
        <ele>712.95000000000005</ele>
        <time>2025-04-28T10:41:18Z</time>
      </trkpt>
      <trkpt lat="42.801335016265512" lon="-3.971650991588831">
        <ele>712.95000000000005</ele>
        <time>2025-04-28T10:41:19Z</time>
      </trkpt>
      <trkpt lat="42.802633959800005" lon="-3.972953036427498">
        <ele>711.50999999999999</ele>
        <time>2025-04-28T10:41:27Z</time>
      </trkpt>
      <trkpt lat="42.803582036867738" lon="-3.973995996639133">
        <ele>711.50999999999999</ele>
        <time>2025-04-28T10:41:33Z</time>
      </trkpt>
      <trkpt lat="42.803708016872406" lon="-3.974219039082527">
        <ele>711.99000000000001</ele>
        <time>2025-04-28T10:41:34Z</time>
      </trkpt>
      <trkpt lat="42.803812036290765" lon="-3.974458007141948">
        <ele>711.99000000000001</ele>
        <time>2025-04-28T10:41:35Z</time>
      </trkpt>
      <trkpt lat="42.803894011303782" lon="-3.974668979644775">
        <ele>712.47000000000003</ele>
        <time>2025-04-28T10:41:36Z</time>
      </trkpt>
      <trkpt lat="42.803943967446685" lon="-3.974971985444427">
        <ele>712.47000000000003</ele>
        <time>2025-04-28T10:41:37Z</time>
      </trkpt>
      <trkpt lat="42.803988978266716" lon="-3.975240038707852">
        <ele>712.95000000000005</ele>
        <time>2025-04-28T10:41:38Z</time>
      </trkpt>
      <trkpt lat="42.804000964388251" lon="-3.975511025637388">
        <ele>712.95000000000005</ele>
        <time>2025-04-28T10:41:39Z</time>
      </trkpt>
      <trkpt lat="42.803999958559871" lon="-3.975790981203318">
        <ele>712.95000000000005</ele>
        <time>2025-04-28T10:41:40Z</time>
      </trkpt>
      <trkpt lat="42.803954025730491" lon="-3.976060040295124">
        <ele>712.95000000000005</ele>
        <time>2025-04-28T10:41:41Z</time>
      </trkpt>
      <trkpt lat="42.80390901491046" lon="-3.976330021396279">
        <ele>712.95000000000005</ele>
        <time>2025-04-28T10:41:42Z</time>
      </trkpt>
      <trkpt lat="42.803784962743521" lon="-3.977138036862016">
        <ele>712.47000000000003</ele>
        <time>2025-04-28T10:41:45Z</time>
      </trkpt>
      <trkpt lat="42.80378001742065" lon="-3.977415980771184">
        <ele>712.47000000000003</ele>
        <time>2025-04-28T10:41:46Z</time>
      </trkpt>
      <trkpt lat="42.803663006052375" lon="-3.979088002815843">
        <ele>712.47000000000003</ele>
        <time>2025-04-28T10:41:52Z</time>
      </trkpt>
      <trkpt lat="42.803597040474415" lon="-3.979352032765746">
        <ele>712.47000000000003</ele>
        <time>2025-04-28T10:41:53Z</time>
      </trkpt>
      <trkpt lat="42.803527973592281" lon="-3.979626959189773">
        <ele>712.95000000000005</ele>
        <time>2025-04-28T10:41:54Z</time>
      </trkpt>
      <trkpt lat="42.803404005244374" lon="-3.979850001633167">
        <ele>712.95000000000005</ele>
        <time>2025-04-28T10:41:55Z</time>
      </trkpt>
      <trkpt lat="42.803279031068087" lon="-3.980075977742672">
        <ele>712.95000000000005</ele>
        <time>2025-04-28T10:41:56Z</time>
      </trkpt>
      <trkpt lat="42.803137041628361" lon="-3.980276975780726">
        <ele>712.95000000000005</ele>
        <time>2025-04-28T10:41:57Z</time>
      </trkpt>
      <trkpt lat="42.802974013611674" lon="-3.980446960777044">
        <ele>712.95000000000005</ele>
        <time>2025-04-28T10:41:58Z</time>
      </trkpt>
      <trkpt lat="42.802807968109846" lon="-3.980617029592395">
        <ele>712.95000000000005</ele>
        <time>2025-04-28T10:41:59Z</time>
      </trkpt>
      <trkpt lat="42.80264200642705" lon="-3.980789026245475">
        <ele>712.47000000000003</ele>
        <time>2025-04-28T10:42:00Z</time>
      </trkpt>
      <trkpt lat="42.801136029884219" lon="-3.982333978638053">
        <ele>711.02999999999997</ele>
        <time>2025-04-28T10:42:09Z</time>
      </trkpt>
      <trkpt lat="42.80025701969862" lon="-3.983050966635346">
        <ele>710.54999999999995</ele>
        <time>2025-04-28T10:42:14Z</time>
      </trkpt>
      <trkpt lat="42.800069013610482" lon="-3.983150962740183">
        <ele>711.02999999999997</ele>
        <time>2025-04-28T10:42:15Z</time>
      </trkpt>
      <trkpt lat="42.798806028440595" lon="-3.983461009338498">
        <ele>711.50999999999999</ele>
        <time>2025-04-28T10:42:22Z</time>
      </trkpt>
      <trkpt lat="42.797787040472031" lon="-3.983676005154848">
        <ele>713.44000000000005</ele>
        <time>2025-04-28T10:42:30Z</time>
      </trkpt>
      <trkpt lat="42.796567976474762" lon="-3.983823023736477">
        <ele>714.88</ele>
        <time>2025-04-28T10:42:40Z</time>
      </trkpt>
      <trkpt lat="42.79561897739768" lon="-3.983825035393238">
        <ele>714.88</ele>
        <time>2025-04-28T10:42:48Z</time>
      </trkpt>
      <trkpt lat="42.795501966029406" lon="-3.983829980716109">
        <ele>714.88</ele>
        <time>2025-04-28T10:42:49Z</time>
      </trkpt>
      <trkpt lat="42.795388977974653" lon="-3.983878009021282">
        <ele>714.39999999999998</ele>
        <time>2025-04-28T10:42:50Z</time>
      </trkpt>
      <trkpt lat="42.795268027111888" lon="-3.983939029276371">
        <ele>714.88</ele>
        <time>2025-04-28T10:42:51Z</time>
      </trkpt>
      <trkpt lat="42.795170964673162" lon="-3.984010023996234">
        <ele>714.39999999999998</ele>
        <time>2025-04-28T10:42:52Z</time>
      </trkpt>
      <trkpt lat="42.794115012511611" lon="-3.984844023361802">
        <ele>717.27999999999997</ele>
        <time>2025-04-28T10:43:02Z</time>
      </trkpt>
      <trkpt lat="42.793181017041206" lon="-3.985842978581786">
        <ele>718.72000000000003</ele>
        <time>2025-04-28T10:43:11Z</time>
      </trkpt>
      <trkpt lat="42.792049963027239" lon="-3.986671026796103">
        <ele>719.67999999999995</ele>
        <time>2025-04-28T10:43:18Z</time>
      </trkpt>
      <trkpt lat="42.790387999266386" lon="-3.987959995865822">
        <ele>720.64999999999998</ele>
        <time>2025-04-28T10:43:27Z</time>
      </trkpt>
      <trkpt lat="42.788929967209697" lon="-3.989291964098811">
        <ele>721.13</ele>
        <time>2025-04-28T10:43:35Z</time>
      </trkpt>
      <trkpt lat="42.788792001083493" lon="-3.989512994885445">
        <ele>721.13</ele>
        <time>2025-04-28T10:43:36Z</time>
      </trkpt>
      <trkpt lat="42.788673983886838" lon="-3.989762021228671">
        <ele>721.61000000000001</ele>
        <time>2025-04-28T10:43:37Z</time>
      </trkpt>
      <trkpt lat="42.787822969257832" lon="-3.992138961330056">
        <ele>720.64999999999998</ele>
        <time>2025-04-28T10:43:46Z</time>
      </trkpt>
      <trkpt lat="42.78777401894331" lon="-3.99242402985692">
        <ele>720.64999999999998</ele>
        <time>2025-04-28T10:43:47Z</time>
      </trkpt>
      <trkpt lat="42.787784999236465" lon="-3.992715971544385">
        <ele>720.15999999999997</ele>
        <time>2025-04-28T10:43:48Z</time>
      </trkpt>
      <trkpt lat="42.787825986742973" lon="-3.993003973737359">
        <ele>719.67999999999995</ele>
        <time>2025-04-28T10:43:49Z</time>
      </trkpt>
      <trkpt lat="42.787869991734624" lon="-3.993286024779081">
        <ele>719.67999999999995</ele>
        <time>2025-04-28T10:43:50Z</time>
      </trkpt>
      <trkpt lat="42.787974011152983" lon="-3.99354200810194">
        <ele>719.20000000000005</ele>
        <time>2025-04-28T10:43:51Z</time>
      </trkpt>
      <trkpt lat="42.788078030571342" lon="-3.993795979768038">
        <ele>719.20000000000005</ele>
        <time>2025-04-28T10:43:52Z</time>
      </trkpt>
      <trkpt lat="42.788223959505558" lon="-3.994006030261517">
        <ele>718.72000000000003</ele>
        <time>2025-04-28T10:43:53Z</time>
      </trkpt>
      <trkpt lat="42.788381036370993" lon="-3.994203004986048">
        <ele>718.72000000000003</ele>
        <time>2025-04-28T10:43:54Z</time>
      </trkpt>
      <trkpt lat="42.788556972518563" lon="-3.994355974718928">
        <ele>718.24000000000001</ele>
        <time>2025-04-28T10:43:55Z</time>
      </trkpt>
      <trkpt lat="42.788746990263462" lon="-3.994482960551977">
        <ele>718.24000000000001</ele>
        <time>2025-04-28T10:43:56Z</time>
      </trkpt>
      <trkpt lat="42.788941031321883" lon="-3.994598966091871">
        <ele>717.75999999999999</ele>
        <time>2025-04-28T10:43:57Z</time>
      </trkpt>
      <trkpt lat="42.790276017040014" lon="-3.995127025991678">
        <ele>717.75999999999999</ele>
        <time>2025-04-28T10:44:04Z</time>
      </trkpt>
      <trkpt lat="42.792302006855607" lon="-3.995274966582656">
        <ele>715.36000000000001</ele>
        <time>2025-04-28T10:44:13Z</time>
      </trkpt>
      <trkpt lat="42.794354986399412" lon="-3.995035998523235">
        <ele>715.36000000000001</ele>
        <time>2025-04-28T10:44:22Z</time>
      </trkpt>
      <trkpt lat="42.795135006308556" lon="-3.995005991309881">
        <ele>715.84000000000003</ele>
        <time>2025-04-28T10:44:26Z</time>
      </trkpt>
      <trkpt lat="42.795311026275158" lon="-3.995031975209713">
        <ele>716.32000000000005</ele>
        <time>2025-04-28T10:44:27Z</time>
      </trkpt>
      <trkpt lat="42.795459972694516" lon="-3.995173964649439">
        <ele>716.32000000000005</ele>
        <time>2025-04-28T10:44:28Z</time>
      </trkpt>
      <trkpt lat="42.7956179715693" lon="-3.995326012372971">
        <ele>715.84000000000003</ele>
        <time>2025-04-28T10:44:29Z</time>
      </trkpt>
      <trkpt lat="42.795773958787322" lon="-3.995474958792329">
        <ele>715.84000000000003</ele>
        <time>2025-04-28T10:44:30Z</time>
      </trkpt>
      <trkpt lat="42.796080987900496" lon="-3.995788022875786">
        <ele>715.84000000000003</ele>
        <time>2025-04-28T10:44:32Z</time>
      </trkpt>
      <trkpt lat="42.796257007867098" lon="-3.995903022587299">
        <ele>716.32000000000005</ele>
        <time>2025-04-28T10:44:33Z</time>
      </trkpt>
      <trkpt lat="42.796437973156571" lon="-3.996021039783955">
        <ele>716.32000000000005</ele>
        <time>2025-04-28T10:44:34Z</time>
      </trkpt>
      <trkpt lat="42.796640982851386" lon="-3.996094968169928">
        <ele>716.32000000000005</ele>
        <time>2025-04-28T10:44:35Z</time>
      </trkpt>
      <trkpt lat="42.796846004202962" lon="-3.996161017566919">
        <ele>716.79999999999995</ele>
        <time>2025-04-28T10:44:36Z</time>
      </trkpt>
      <trkpt lat="42.797058988362551" lon="-3.996191024780273">
        <ele>716.79999999999995</ele>
        <time>2025-04-28T10:44:37Z</time>
      </trkpt>
      <trkpt lat="42.797280019149184" lon="-3.996187001466751">
        <ele>716.79999999999995</ele>
        <time>2025-04-28T10:44:38Z</time>
      </trkpt>
      <trkpt lat="42.797496020793915" lon="-3.996161017566919">
        <ele>716.79999999999995</ele>
        <time>2025-04-28T10:44:39Z</time>
      </trkpt>
      <trkpt lat="42.797706993296742" lon="-3.996136039495468">
        <ele>716.32000000000005</ele>
        <time>2025-04-28T10:44:40Z</time>
      </trkpt>
      <trkpt lat="42.798343012109399" lon="-3.996064038947225">
        <ele>716.32000000000005</ele>
        <time>2025-04-28T10:44:43Z</time>
      </trkpt>
      <trkpt lat="42.798552978783846" lon="-3.996107038110495">
        <ele>715.84000000000003</ele>
        <time>2025-04-28T10:44:44Z</time>
      </trkpt>
      <trkpt lat="42.798763029277325" lon="-3.996150959283114">
        <ele>715.84000000000003</ele>
        <time>2025-04-28T10:44:45Z</time>
      </trkpt>
      <trkpt lat="42.800414012745023" lon="-3.996662003919482">
        <ele>714.39999999999998</ele>
        <time>2025-04-28T10:44:53Z</time>
      </trkpt>
      <trkpt lat="42.801405005156994" lon="-3.99755802936852">
        <ele>711.50999999999999</ele>
        <time>2025-04-28T10:44:59Z</time>
      </trkpt>
      <trkpt lat="42.801943961530924" lon="-3.99822698906064">
        <ele>710.07000000000005</ele>
        <time>2025-04-28T10:45:03Z</time>
      </trkpt>
      <trkpt lat="42.802032977342606" lon="-3.998409966006875">
        <ele>709.59000000000003</ele>
        <time>2025-04-28T10:45:04Z</time>
      </trkpt>
      <trkpt lat="42.802119981497526" lon="-3.998607024550438">
        <ele>709.11000000000001</ele>
        <time>2025-04-28T10:45:05Z</time>
      </trkpt>
      <trkpt lat="42.802161974832416" lon="-3.998820008710027">
        <ele>709.11000000000001</ele>
        <time>2025-04-28T10:45:06Z</time>
      </trkpt>
      <trkpt lat="42.802176978439093" lon="-3.99904296733439">
        <ele>709.11000000000001</ele>
        <time>2025-04-28T10:45:07Z</time>
      </trkpt>
      <trkpt lat="42.802176978439093" lon="-3.999259974807501">
        <ele>709.11000000000001</ele>
        <time>2025-04-28T10:45:08Z</time>
      </trkpt>
      <trkpt lat="42.802100032567978" lon="-3.999468013644218">
        <ele>709.11000000000001</ele>
        <time>2025-04-28T10:45:09Z</time>
      </trkpt>
      <trkpt lat="42.802027026191354" lon="-3.999667000025511">
        <ele>709.11000000000001</ele>
        <time>2025-04-28T10:45:10Z</time>
      </trkpt>
      <trkpt lat="42.801901968196034" lon="-3.999803038313985">
        <ele>709.59000000000003</ele>
        <time>2025-04-28T10:45:11Z</time>
      </trkpt>
      <trkpt lat="42.801770037040114" lon="-3.999946033582091">
        <ele>710.07000000000005</ele>
        <time>2025-04-28T10:45:12Z</time>
      </trkpt>
      <trkpt lat="42.801628969609737" lon="-4.000100009143353">
        <ele>710.54999999999995</ele>
        <time>2025-04-28T10:45:13Z</time>
      </trkpt>
      <trkpt lat="42.801483040675521" lon="-4.000258008018136">
        <ele>711.50999999999999</ele>
        <time>2025-04-28T10:45:14Z</time>
      </trkpt>
      <trkpt lat="42.800907958298922" lon="-4.000810040161014">
        <ele>713.91999999999996</ele>
        <time>2025-04-28T10:45:18Z</time>
      </trkpt>
      <trkpt lat="42.800757000222802" lon="-4.000873994082212">
        <ele>714.88</ele>
        <time>2025-04-28T10:45:19Z</time>
      </trkpt>
      <trkpt lat="42.800591960549355" lon="-4.00093300268054">
        <ele>714.88</ele>
        <time>2025-04-28T10:45:20Z</time>
      </trkpt>
      <trkpt lat="42.798853972926736" lon="-4.001489980146289">
        <ele>713.91999999999996</ele>
        <time>2025-04-28T10:45:30Z</time>
      </trkpt>
      <trkpt lat="42.798695974051952" lon="-4.001610008999705">
        <ele>713.91999999999996</ele>
        <time>2025-04-28T10:45:31Z</time>
      </trkpt>
      <trkpt lat="42.798537975177169" lon="-4.001732971519232">
        <ele>713.44000000000005</ele>
        <time>2025-04-28T10:45:32Z</time>
      </trkpt>
      <trkpt lat="42.79742200858891" lon="-4.002667972818017">
        <ele>712.95000000000005</ele>
        <time>2025-04-28T10:45:39Z</time>
      </trkpt>
      <trkpt lat="42.797290999442339" lon="-4.002848016098142">
        <ele>712.47000000000003</ele>
        <time>2025-04-28T10:45:40Z</time>
      </trkpt>
      <trkpt lat="42.797191003337502" lon="-4.003088995814323">
        <ele>712.47000000000003</ele>
        <time>2025-04-28T10:45:41Z</time>
      </trkpt>
      <trkpt lat="42.797107016667724" lon="-4.003323018550873">
        <ele>712.47000000000003</ele>
        <time>2025-04-28T10:45:42Z</time>
      </trkpt>
      <trkpt lat="42.79703501611948" lon="-4.003568021580577">
        <ele>711.99000000000001</ele>
        <time>2025-04-28T10:45:43Z</time>
      </trkpt>
      <trkpt lat="42.79699201695621" lon="-4.003827022388578">
        <ele>711.99000000000001</ele>
        <time>2025-04-28T10:45:44Z</time>
      </trkpt>
      <trkpt lat="42.796947006136179" lon="-4.004099015146494">
        <ele>711.50999999999999</ele>
        <time>2025-04-28T10:45:45Z</time>
      </trkpt>
      <trkpt lat="42.796435039490461" lon="-4.007812030613422">
        <ele>711.99000000000001</ele>
        <time>2025-04-28T10:45:59Z</time>
      </trkpt>
      <trkpt lat="42.796591026708484" lon="-4.009253969416022">
        <ele>712.47000000000003</ele>
        <time>2025-04-28T10:46:06Z</time>
      </trkpt>
      <trkpt lat="42.796613993123174" lon="-4.009404005482793">
        <ele>712.47000000000003</ele>
        <time>2025-04-28T10:46:07Z</time>
      </trkpt>
      <trkpt lat="42.796681970357895" lon="-4.009786974638701">
        <ele>712.95000000000005</ele>
        <time>2025-04-28T10:46:10Z</time>
      </trkpt>
      <trkpt lat="42.796724969521165" lon="-4.009908009320498">
        <ele>712.95000000000005</ele>
        <time>2025-04-28T10:46:11Z</time>
      </trkpt>
      <trkpt lat="42.796765035018325" lon="-4.01002200320363">
        <ele>712.95000000000005</ele>
        <time>2025-04-28T10:46:12Z</time>
      </trkpt>
      <trkpt lat="42.796805016696453" lon="-4.010121999308467">
        <ele>713.44000000000005</ele>
        <time>2025-04-28T10:46:13Z</time>
      </trkpt>
      <trkpt lat="42.796866036951542" lon="-4.0102359931916">
        <ele>713.44000000000005</ele>
        <time>2025-04-28T10:46:14Z</time>
      </trkpt>
      <trkpt lat="42.797433994710445" lon="-4.011381966993213">
        <ele>715.84000000000003</ele>
        <time>2025-04-28T10:46:24Z</time>
      </trkpt>
      <trkpt lat="42.79759299941361" lon="-4.011597968637943">
        <ele>715.36000000000001</ele>
        <time>2025-04-28T10:46:26Z</time>
      </trkpt>
      <trkpt lat="42.797682015225291" lon="-4.01171799749136">
        <ele>715.36000000000001</ele>
        <time>2025-04-28T10:46:27Z</time>
      </trkpt>
      <trkpt lat="42.797787040472031" lon="-4.01182696223259">
        <ele>715.84000000000003</ele>
        <time>2025-04-28T10:46:28Z</time>
      </trkpt>
      <trkpt lat="42.797911008819938" lon="-4.01191396638751">
        <ele>715.84000000000003</ele>
        <time>2025-04-28T10:46:29Z</time>
      </trkpt>
      <trkpt lat="42.798042017966509" lon="-4.012004993855953">
        <ele>716.32000000000005</ele>
        <time>2025-04-28T10:46:30Z</time>
      </trkpt>
      <trkpt lat="42.798561025410891" lon="-4.012432973831892">
        <ele>717.27999999999997</ele>
        <time>2025-04-28T10:46:34Z</time>
      </trkpt>
      <trkpt lat="42.799556041136384" lon="-4.013341991230846">
        <ele>717.75999999999999</ele>
        <time>2025-04-28T10:46:41Z</time>
      </trkpt>
      <trkpt lat="42.800762029364705" lon="-4.014039030298591">
        <ele>718.72000000000003</ele>
        <time>2025-04-28T10:46:48Z</time>
      </trkpt>
      <trkpt lat="42.800939977169037" lon="-4.014135003089905">
        <ele>718.72000000000003</ele>
        <time>2025-04-28T10:46:49Z</time>
      </trkpt>
      <trkpt lat="42.801131000742316" lon="-4.014147995039821">
        <ele>718.24000000000001</ele>
        <time>2025-04-28T10:46:50Z</time>
      </trkpt>
      <trkpt lat="42.801316995173693" lon="-4.014135003089905">
        <ele>718.24000000000001</ele>
        <time>2025-04-28T10:46:51Z</time>
      </trkpt>
      <trkpt lat="42.801507012918591" lon="-4.014122011139989">
        <ele>718.24000000000001</ele>
        <time>2025-04-28T10:46:52Z</time>
      </trkpt>
      <trkpt lat="42.803065041080117" lon="-4.014055039733648">
        <ele>717.27999999999997</ele>
        <time>2025-04-28T10:47:00Z</time>
      </trkpt>
      <trkpt lat="42.805082984268665" lon="-4.014086974784732">
        <ele>719.20000000000005</ele>
        <time>2025-04-28T10:47:10Z</time>
      </trkpt>
      <trkpt lat="42.806548979133368" lon="-4.014279004186392">
        <ele>720.64999999999998</ele>
        <time>2025-04-28T10:47:18Z</time>
      </trkpt>
      <trkpt lat="42.806695997714996" lon="-4.014371037483215">
        <ele>720.64999999999998</ele>
        <time>2025-04-28T10:47:19Z</time>
      </trkpt>
      <trkpt lat="42.806839998811483" lon="-4.014463992789388">
        <ele>720.64999999999998</ele>
        <time>2025-04-28T10:47:20Z</time>
      </trkpt>
      <trkpt lat="42.806967990472913" lon="-4.014586033299565">
        <ele>721.13</ele>
        <time>2025-04-28T10:47:21Z</time>
      </trkpt>
      <trkpt lat="42.807095982134342" lon="-4.014716958627105">
        <ele>721.13</ele>
        <time>2025-04-28T10:47:22Z</time>
      </trkpt>
      <trkpt lat="42.807211987674236" lon="-4.014884009957314">
        <ele>721.61000000000001</ele>
        <time>2025-04-28T10:47:23Z</time>
      </trkpt>
      <trkpt lat="42.807322964072227" lon="-4.015058018267155">
        <ele>721.61000000000001</ele>
        <time>2025-04-28T10:47:24Z</time>
      </trkpt>
      <trkpt lat="42.807410974055529" lon="-4.01526203379035">
        <ele>721.61000000000001</ele>
        <time>2025-04-28T10:47:25Z</time>
      </trkpt>
      <trkpt lat="42.807468976825476" lon="-4.015491027384996">
        <ele>722.09000000000003</ele>
        <time>2025-04-28T10:47:26Z</time>
      </trkpt>
      <trkpt lat="42.807526979595423" lon="-4.015725972130895">
        <ele>722.09000000000003</ele>
        <time>2025-04-28T10:47:27Z</time>
      </trkpt>
      <trkpt lat="42.80756302177906" lon="-4.015977010130882">
        <ele>722.09000000000003</ele>
        <time>2025-04-28T10:47:28Z</time>
      </trkpt>
      <trkpt lat="42.807892011478543" lon="-4.01842201128602">
        <ele>723.04999999999995</ele>
        <time>2025-04-28T10:47:37Z</time>
      </trkpt>
      <trkpt lat="42.807927969843149" lon="-4.020988969132304">
        <ele>723.04999999999995</ele>
        <time>2025-04-28T10:47:46Z</time>
      </trkpt>
      <trkpt lat="42.807805007323623" lon="-4.024314992129803">
        <ele>727.86000000000001</ele>
        <time>2025-04-28T10:47:59Z</time>
      </trkpt>
      <trkpt lat="42.807205030694604" lon="-4.025751985609531">
        <ele>729.29999999999995</ele>
        <time>2025-04-28T10:48:06Z</time>
      </trkpt>
      <trkpt lat="42.806678982451558" lon="-4.026406025514007">
        <ele>728.34000000000003</ele>
        <time>2025-04-28T10:48:10Z</time>
      </trkpt>
      <trkpt lat="42.805423038080335" lon="-4.027405986562371">
        <ele>726.40999999999997</ele>
        <time>2025-04-28T10:48:18Z</time>
      </trkpt>
      <trkpt lat="42.804456017911434" lon="-4.028714988380671">
        <ele>724.49000000000001</ele>
        <time>2025-04-28T10:48:26Z</time>
      </trkpt>
      <trkpt lat="42.804347975179553" lon="-4.02888597920537">
        <ele>724.49000000000001</ele>
        <time>2025-04-28T10:48:27Z</time>
      </trkpt>
      <trkpt lat="42.804260971024632" lon="-4.029073985293508">
        <ele>724.00999999999999</ele>
        <time>2025-04-28T10:48:28Z</time>
      </trkpt>
      <trkpt lat="42.803476005792618" lon="-4.03109704144299">
        <ele>724.00999999999999</ele>
        <time>2025-04-28T10:48:38Z</time>
      </trkpt>
      <trkpt lat="42.803227985277772" lon="-4.033319000154734">
        <ele>725.45000000000005</ele>
        <time>2025-04-28T10:48:48Z</time>
      </trkpt>
      <trkpt lat="42.803227985277772" lon="-4.033533995971084">
        <ele>725.92999999999995</ele>
        <time>2025-04-28T10:48:49Z</time>
      </trkpt>
      <trkpt lat="42.803263021633029" lon="-4.033734994009137">
        <ele>725.92999999999995</ele>
        <time>2025-04-28T10:48:50Z</time>
      </trkpt>
      <trkpt lat="42.80330803245306" lon="-4.033945966511965">
        <ele>725.92999999999995</ele>
        <time>2025-04-28T10:48:51Z</time>
      </trkpt>
      <trkpt lat="42.80335295945406" lon="-4.034156017005444">
        <ele>725.45000000000005</ele>
        <time>2025-04-28T10:48:52Z</time>
      </trkpt>
      <trkpt lat="42.803414985537529" lon="-4.034356009215117">
        <ele>725.45000000000005</ele>
        <time>2025-04-28T10:48:53Z</time>
      </trkpt>
      <trkpt lat="42.80350299552083" lon="-4.034539991989732">
        <ele>725.45000000000005</ele>
        <time>2025-04-28T10:48:54Z</time>
      </trkpt>
      <trkpt lat="42.803594022989273" lon="-4.034717017784715">
        <ele>724.97000000000003</ele>
        <time>2025-04-28T10:48:55Z</time>
      </trkpt>
      <trkpt lat="42.803709022700787" lon="-4.034873005002737">
        <ele>724.97000000000003</ele>
        <time>2025-04-28T10:48:56Z</time>
      </trkpt>
      <trkpt lat="42.803825028240681" lon="-4.035021029412746">
        <ele>724.49000000000001</ele>
        <time>2025-04-28T10:48:57Z</time>
      </trkpt>
      <trkpt lat="42.803961988538504" lon="-4.035123037174344">
        <ele>724.97000000000003</ele>
        <time>2025-04-28T10:48:58Z</time>
      </trkpt>
      <trkpt lat="42.804095009341836" lon="-4.035223033279181">
        <ele>724.97000000000003</ele>
        <time>2025-04-28T10:48:59Z</time>
      </trkpt>
      <trkpt lat="42.805448016151786" lon="-4.035973967984319">
        <ele>726.40999999999997</ele>
        <time>2025-04-28T10:49:09Z</time>
      </trkpt>
      <trkpt lat="42.806200040504336" lon="-4.036772008985281">
        <ele>726.40999999999997</ele>
        <time>2025-04-28T10:49:16Z</time>
      </trkpt>
      <trkpt lat="42.806265000253916" lon="-4.036926990374923">
        <ele>726.88999999999999</ele>
        <time>2025-04-28T10:49:17Z</time>
      </trkpt>
      <trkpt lat="42.806325014680624" lon="-4.037081971764565">
        <ele>726.88999999999999</ele>
        <time>2025-04-28T10:49:18Z</time>
      </trkpt>
      <trkpt lat="42.806376982480288" lon="-4.037241982296109">
        <ele>727.37</ele>
        <time>2025-04-28T10:49:19Z</time>
      </trkpt>
      <trkpt lat="42.806415036320686" lon="-4.037408027797937">
        <ele>727.37</ele>
        <time>2025-04-28T10:49:20Z</time>
      </trkpt>
      <trkpt lat="42.806453006342053" lon="-4.037574995309115">
        <ele>727.86000000000001</ele>
        <time>2025-04-28T10:49:21Z</time>
      </trkpt>
      <trkpt lat="42.806775961071253" lon="-4.039053982123733">
        <ele>729.29999999999995</ele>
        <time>2025-04-28T10:49:30Z</time>
      </trkpt>
      <trkpt lat="42.806830024346709" lon="-4.039165964350104">
        <ele>728.82000000000005</ele>
        <time>2025-04-28T10:49:31Z</time>
      </trkpt>
      <trkpt lat="42.806919040158391" lon="-4.039299990981817">
        <ele>728.82000000000005</ele>
        <time>2025-04-28T10:49:32Z</time>
      </trkpt>
      <trkpt lat="42.807035967707634" lon="-4.039396969601512">
        <ele>729.29999999999995</ele>
        <time>2025-04-28T10:49:34Z</time>
      </trkpt>
      <trkpt lat="42.807056000456214" lon="-4.039510041475296">
        <ele>729.29999999999995</ele>
        <time>2025-04-28T10:49:35Z</time>
      </trkpt>
      <trkpt lat="42.807063963264227" lon="-4.039621017873287">
        <ele>729.77999999999997</ele>
        <time>2025-04-28T10:49:36Z</time>
      </trkpt>
      <trkpt lat="42.807048037648201" lon="-4.039711961522698">
        <ele>729.77999999999997</ele>
        <time>2025-04-28T10:49:37Z</time>
      </trkpt>
      <trkpt lat="42.80698399990797" lon="-4.039787985384464">
        <ele>729.77999999999997</ele>
        <time>2025-04-28T10:49:38Z</time>
      </trkpt>
      <trkpt lat="42.806907976046205" lon="-4.039823021739721">
        <ele>729.77999999999997</ele>
        <time>2025-04-28T10:49:39Z</time>
      </trkpt>
      <trkpt lat="42.806803034618497" lon="-4.039855962619185">
        <ele>729.77999999999997</ele>
        <time>2025-04-28T10:49:40Z</time>
      </trkpt>
      <trkpt lat="42.806716030463576" lon="-4.039911031723023">
        <ele>729.77999999999997</ele>
        <time>2025-04-28T10:49:41Z</time>
      </trkpt>
      <trkpt lat="42.806622991338372" lon="-4.039970962330699">
        <ele>729.77999999999997</ele>
        <time>2025-04-28T10:49:42Z</time>
      </trkpt>
      <trkpt lat="42.806514026597142" lon="-4.040062995627523">
        <ele>729.77999999999997</ele>
        <time>2025-04-28T10:49:43Z</time>
      </trkpt>
      <trkpt lat="42.806439008563757" lon="-4.040200961753726">
        <ele>729.77999999999997</ele>
        <time>2025-04-28T10:49:44Z</time>
      </trkpt>
      <trkpt lat="42.806371031329036" lon="-4.040364995598793">
        <ele>730.25999999999999</ele>
        <time>2025-04-28T10:49:45Z</time>
      </trkpt>
      <trkpt lat="42.806314034387469" lon="-4.040536992251873">
        <ele>730.25999999999999</ele>
        <time>2025-04-28T10:49:46Z</time>
      </trkpt>
      <trkpt lat="42.806257037445903" lon="-4.040717035531998">
        <ele>730.25999999999999</ele>
        <time>2025-04-28T10:49:47Z</time>
      </trkpt>
      <trkpt lat="42.80567298643291" lon="-4.042706983163953">
        <ele>730.74000000000001</ele>
        <time>2025-04-28T10:49:58Z</time>
      </trkpt>
      <trkpt lat="42.805109973996878" lon="-4.044307004660368">
        <ele>730.25999999999999</ele>
        <time>2025-04-28T10:50:08Z</time>
      </trkpt>
      <trkpt lat="42.804787019267678" lon="-4.044937994331121">
        <ele>729.29999999999995</ele>
        <time>2025-04-28T10:50:13Z</time>
      </trkpt>
      <trkpt lat="42.804743014276028" lon="-4.045056011527777">
        <ele>729.29999999999995</ele>
        <time>2025-04-28T10:50:14Z</time>
      </trkpt>
      <trkpt lat="42.804695991799235" lon="-4.0453000087291">
        <ele>729.77999999999997</ele>
        <time>2025-04-28T10:50:16Z</time>
      </trkpt>
      <trkpt lat="42.804671013727784" lon="-4.04542800039053">
        <ele>729.29999999999995</ele>
        <time>2025-04-28T10:50:17Z</time>
      </trkpt>
      <trkpt lat="42.804647963494062" lon="-4.045549035072327">
        <ele>729.29999999999995</ele>
        <time>2025-04-28T10:50:18Z</time>
      </trkpt>
      <trkpt lat="42.804602030664682" lon="-4.045646013692021">
        <ele>729.77999999999997</ele>
        <time>2025-04-28T10:50:19Z</time>
      </trkpt>
      <trkpt lat="42.804550984874368" lon="-4.045741986483336">
        <ele>729.77999999999997</ele>
        <time>2025-04-28T10:50:20Z</time>
      </trkpt>
      <trkpt lat="42.804499017074704" lon="-4.045839970931411">
        <ele>730.25999999999999</ele>
        <time>2025-04-28T10:50:21Z</time>
      </trkpt>
      <trkpt lat="42.804445959627628" lon="-4.045946002006531">
        <ele>730.74000000000001</ele>
        <time>2025-04-28T10:50:22Z</time>
      </trkpt>
      <trkpt lat="42.804406983777881" lon="-4.046068964526057">
        <ele>731.22000000000003</ele>
        <time>2025-04-28T10:50:23Z</time>
      </trkpt>
      <trkpt lat="42.804368007928133" lon="-4.046192010864615">
        <ele>731.70000000000005</ele>
        <time>2025-04-28T10:50:24Z</time>
      </trkpt>
      <trkpt lat="42.804289972409606" lon="-4.046433996409178">
        <ele>732.65999999999997</ele>
        <time>2025-04-28T10:50:26Z</time>
      </trkpt>
      <trkpt lat="42.804234987124801" lon="-4.046536004170775">
        <ele>733.62</ele>
        <time>2025-04-28T10:50:27Z</time>
      </trkpt>
      <trkpt lat="42.804172039031982" lon="-4.046633988618851">
        <ele>734.10000000000002</ele>
        <time>2025-04-28T10:50:28Z</time>
      </trkpt>
      <trkpt lat="42.804106995463371" lon="-4.046733984723687">
        <ele>734.58000000000004</ele>
        <time>2025-04-28T10:50:29Z</time>
      </trkpt>
      <trkpt lat="42.804037006571889" lon="-4.046832975000143">
        <ele>734.58000000000004</ele>
        <time>2025-04-28T10:50:30Z</time>
      </trkpt>
      <trkpt lat="42.803913960233331" lon="-4.047042019665241">
        <ele>735.54999999999995</ele>
        <time>2025-04-28T10:50:32Z</time>
      </trkpt>
      <trkpt lat="42.803864004090428" lon="-4.047159031033516">
        <ele>736.02999999999997</ele>
        <time>2025-04-28T10:50:33Z</time>
      </trkpt>
      <trkpt lat="42.803828967735171" lon="-4.047294985502958">
        <ele>736.50999999999999</ele>
        <time>2025-04-28T10:50:34Z</time>
      </trkpt>
      <trkpt lat="42.803828967735171" lon="-4.047436974942684">
        <ele>736.99000000000001</ele>
        <time>2025-04-28T10:50:35Z</time>
      </trkpt>
      <trkpt lat="42.803818993270397" lon="-4.047586005181074">
        <ele>737.47000000000003</ele>
        <time>2025-04-28T10:50:36Z</time>
      </trkpt>
      <trkpt lat="42.803798038512468" lon="-4.047737969085574">
        <ele>737.47000000000003</ele>
        <time>2025-04-28T10:50:37Z</time>
      </trkpt>
      <trkpt lat="42.80375998467207" lon="-4.047888005152345">
        <ele>737.95000000000005</ele>
        <time>2025-04-28T10:50:38Z</time>
      </trkpt>
      <trkpt lat="42.803295962512493" lon="-4.049306977540255">
        <ele>739.87</ele>
        <time>2025-04-28T10:50:47Z</time>
      </trkpt>
      <trkpt lat="42.803301997482777" lon="-4.049475034698844">
        <ele>739.87</ele>
        <time>2025-04-28T10:50:48Z</time>
      </trkpt>
      <trkpt lat="42.803311971947551" lon="-4.049646025523543">
        <ele>739.87</ele>
        <time>2025-04-28T10:50:49Z</time>
      </trkpt>
      <trkpt lat="42.803322030231357" lon="-4.049821039661765">
        <ele>739.87</ele>
        <time>2025-04-28T10:50:50Z</time>
      </trkpt>
      <trkpt lat="42.803333010524511" lon="-4.050002004951239">
        <ele>739.87</ele>
        <time>2025-04-28T10:50:51Z</time>
      </trkpt>
      <trkpt lat="42.803507018834352" lon="-4.052090020850301">
        <ele>741.30999999999995</ele>
        <time>2025-04-28T10:51:01Z</time>
      </trkpt>
      <trkpt lat="42.803528979420662" lon="-4.052559994161129">
        <ele>741.78999999999996</ele>
        <time>2025-04-28T10:51:03Z</time>
      </trkpt>
      <trkpt lat="42.803474999964237" lon="-4.052795022726059">
        <ele>741.78999999999996</ele>
        <time>2025-04-28T10:51:04Z</time>
      </trkpt>
      <trkpt lat="42.803399981930852" lon="-4.05301203019917">
        <ele>741.78999999999996</ele>
        <time>2025-04-28T10:51:05Z</time>
      </trkpt>
      <trkpt lat="42.803163025528193" lon="-4.053684007376432">
        <ele>742.27999999999997</ele>
        <time>2025-04-28T10:51:08Z</time>
      </trkpt>
      <trkpt lat="42.803106028586626" lon="-4.053922975435853">
        <ele>742.27999999999997</ele>
        <time>2025-04-28T10:51:09Z</time>
      </trkpt>
      <trkpt lat="42.803068980574608" lon="-4.054167978465557">
        <ele>742.27999999999997</ele>
        <time>2025-04-28T10:51:10Z</time>
      </trkpt>
      <trkpt lat="42.803050959482789" lon="-4.054424967616797">
        <ele>742.27999999999997</ele>
        <time>2025-04-28T10:51:11Z</time>
      </trkpt>
      <trkpt lat="42.803033022210002" lon="-4.054682962596417">
        <ele>741.78999999999996</ele>
        <time>2025-04-28T10:51:12Z</time>
      </trkpt>
      <trkpt lat="42.802892960608006" lon="-4.05627703294158">
        <ele>740.83000000000004</ele>
        <time>2025-04-28T10:51:18Z</time>
      </trkpt>
      <trkpt lat="42.802825989201665" lon="-4.056533016264439">
        <ele>740.83000000000004</ele>
        <time>2025-04-28T10:51:19Z</time>
      </trkpt>
      <trkpt lat="42.802717024460435" lon="-4.056741977110505">
        <ele>740.35000000000002</ele>
        <time>2025-04-28T10:51:20Z</time>
      </trkpt>
      <trkpt lat="42.802571011707187" lon="-4.05692595988512">
        <ele>740.35000000000002</ele>
        <time>2025-04-28T10:51:21Z</time>
      </trkpt>
      <trkpt lat="42.802417958155274" lon="-4.057092005386949">
        <ele>740.35000000000002</ele>
        <time>2025-04-28T10:51:22Z</time>
      </trkpt>
      <trkpt lat="42.802245039492846" lon="-4.057231983169913">
        <ele>740.35000000000002</ele>
        <time>2025-04-28T10:51:23Z</time>
      </trkpt>
      <trkpt lat="42.802072037011385" lon="-4.057371038943529">
        <ele>740.35000000000002</ele>
        <time>2025-04-28T10:51:24Z</time>
      </trkpt>
      <trkpt lat="42.801723014563322" lon="-4.057652000337839">
        <ele>740.35000000000002</ele>
        <time>2025-04-28T10:51:26Z</time>
      </trkpt>
      <trkpt lat="42.801563004031777" lon="-4.057806981727481">
        <ele>740.35000000000002</ele>
        <time>2025-04-28T10:51:27Z</time>
      </trkpt>
      <trkpt lat="42.801440041512251" lon="-4.058006973937154">
        <ele>740.83000000000004</ele>
        <time>2025-04-28T10:51:28Z</time>
      </trkpt>
      <trkpt lat="42.800447959452868" lon="-4.06048801727593">
        <ele>740.83000000000004</ele>
        <time>2025-04-28T10:51:38Z</time>
      </trkpt>
      <trkpt lat="42.799900034442544" lon="-4.062687009572983">
        <ele>741.78999999999996</ele>
        <time>2025-04-28T10:51:46Z</time>
      </trkpt>
      <trkpt lat="42.799455039203167" lon="-4.066435983404517">
        <ele>746.60000000000002</ele>
        <time>2025-04-28T10:51:59Z</time>
      </trkpt>
      <trkpt lat="42.799167037010193" lon="-4.069676008075476">
        <ele>748.03999999999996</ele>
        <time>2025-04-28T10:52:10Z</time>
      </trkpt>
      <trkpt lat="42.798789013177156" lon="-4.072652002796531">
        <ele>751.40999999999997</ele>
        <time>2025-04-28T10:52:20Z</time>
      </trkpt>
      <trkpt lat="42.798421969637275" lon="-4.075069008395076">
        <ele>751.88999999999999</ele>
        <time>2025-04-28T10:52:29Z</time>
      </trkpt>
      <trkpt lat="42.798236981034279" lon="-4.076413968577981">
        <ele>752.85000000000002</ele>
        <time>2025-04-28T10:52:37Z</time>
      </trkpt>
      <trkpt lat="42.798120975494385" lon="-4.078531991690397">
        <ele>754.76999999999998</ele>
        <time>2025-04-28T10:52:49Z</time>
      </trkpt>
      <trkpt lat="42.798051992431283" lon="-4.080951008945704">
        <ele>756.21000000000004</ele>
        <time>2025-04-28T10:52:59Z</time>
      </trkpt>
      <trkpt lat="42.798057021573186" lon="-4.082772983238101">
        <ele>754.28999999999996</ele>
        <time>2025-04-28T10:53:06Z</time>
      </trkpt>
      <trkpt lat="42.798123992979527" lon="-4.084697971120477">
        <ele>753.80999999999995</ele>
        <time>2025-04-28T10:53:13Z</time>
      </trkpt>
      <trkpt lat="42.798060961067677" lon="-4.087788965553045">
        <ele>757.17999999999995</ele>
        <time>2025-04-28T10:53:24Z</time>
      </trkpt>
      <trkpt lat="42.797819981351495" lon="-4.090579971671104">
        <ele>763.89999999999998</ele>
        <time>2025-04-28T10:53:34Z</time>
      </trkpt>
      <trkpt lat="42.797337016090751" lon="-4.093129998072982">
        <ele>770.14999999999998</ele>
        <time>2025-04-28T10:53:43Z</time>
      </trkpt>
      <trkpt lat="42.797327963635325" lon="-4.093411965295672">
        <ele>770.63</ele>
        <time>2025-04-28T10:53:44Z</time>
      </trkpt>
      <trkpt lat="42.797339027747512" lon="-4.093686975538731">
        <ele>771.60000000000002</ele>
        <time>2025-04-28T10:53:45Z</time>
      </trkpt>
      <trkpt lat="42.79735797084868" lon="-4.093952011317015">
        <ele>772.08000000000004</ele>
        <time>2025-04-28T10:53:46Z</time>
      </trkpt>
      <trkpt lat="42.797374986112118" lon="-4.094212017953396">
        <ele>773.03999999999996</ele>
        <time>2025-04-28T10:53:47Z</time>
      </trkpt>
      <trkpt lat="42.797428965568542" lon="-4.094983991235495">
        <ele>774.96000000000004</ele>
        <time>2025-04-28T10:53:50Z</time>
      </trkpt>
      <trkpt lat="42.797456039115787" lon="-4.096127031370997">
        <ele>777.36000000000001</ele>
        <time>2025-04-28T10:53:55Z</time>
      </trkpt>
      <trkpt lat="42.797495014965534" lon="-4.09630699083209">
        <ele>777.84000000000003</ele>
        <time>2025-04-28T10:53:56Z</time>
      </trkpt>
      <trkpt lat="42.797543965280056" lon="-4.096462978050113">
        <ele>778.32000000000005</ele>
        <time>2025-04-28T10:53:57Z</time>
      </trkpt>
      <trkpt lat="42.79761403799057" lon="-4.096588036045432">
        <ele>778.80999999999995</ele>
        <time>2025-04-28T10:53:58Z</time>
      </trkpt>
      <trkpt lat="42.797682015225291" lon="-4.096712004393339">
        <ele>779.28999999999996</ele>
        <time>2025-04-28T10:53:59Z</time>
      </trkpt>
      <trkpt lat="42.797899022698402" lon="-4.097105031833053">
        <ele>781.21000000000004</ele>
        <time>2025-04-28T10:54:02Z</time>
      </trkpt>
      <trkpt lat="42.797971023246646" lon="-4.097235035151243">
        <ele>782.16999999999996</ele>
        <time>2025-04-28T10:54:03Z</time>
      </trkpt>
      <trkpt lat="42.798004969954491" lon="-4.097386999055743">
        <ele>782.64999999999998</ele>
        <time>2025-04-28T10:54:04Z</time>
      </trkpt>
      <trkpt lat="42.798039000481367" lon="-4.097540974617004">
        <ele>783.61000000000001</ele>
        <time>2025-04-28T10:54:05Z</time>
      </trkpt>
      <trkpt lat="42.798057021573186" lon="-4.097697967663407">
        <ele>784.57000000000005</ele>
        <time>2025-04-28T10:54:06Z</time>
      </trkpt>
      <trkpt lat="42.798057021573186" lon="-4.097862001508474">
        <ele>785.52999999999997</ele>
        <time>2025-04-28T10:54:07Z</time>
      </trkpt>
      <trkpt lat="42.798042017966509" lon="-4.09802402369678">
        <ele>786.01999999999998</ele>
        <time>2025-04-28T10:54:08Z</time>
      </trkpt>
      <trkpt lat="42.797841019928455" lon="-4.099855972453952">
        <ele>789.38</ele>
        <time>2025-04-28T10:54:18Z</time>
      </trkpt>
      <trkpt lat="42.797763990238309" lon="-4.100480005145073">
        <ele>789.38</ele>
        <time>2025-04-28T10:54:21Z</time>
      </trkpt>
      <trkpt lat="42.797781005501747" lon="-4.100683014839888">
        <ele>789.38</ele>
        <time>2025-04-28T10:54:22Z</time>
      </trkpt>
      <trkpt lat="42.797814030200243" lon="-4.100880995392799">
        <ele>789.86000000000001</ele>
        <time>2025-04-28T10:54:23Z</time>
      </trkpt>
      <trkpt lat="42.797854011878371" lon="-4.101075958460569">
        <ele>789.86000000000001</ele>
        <time>2025-04-28T10:54:24Z</time>
      </trkpt>
      <trkpt lat="42.797898016870022" lon="-4.101274022832513">
        <ele>790.34000000000003</ele>
        <time>2025-04-28T10:54:25Z</time>
      </trkpt>
      <trkpt lat="42.798160035163164" lon="-4.103043023496866">
        <ele>794.19000000000005</ele>
        <time>2025-04-28T10:54:34Z</time>
      </trkpt>
      <trkpt lat="42.798143019899726" lon="-4.103235974907875">
        <ele>794.66999999999996</ele>
        <time>2025-04-28T10:54:35Z</time>
      </trkpt>
      <trkpt lat="42.798115024343133" lon="-4.103420041501522">
        <ele>795.63</ele>
        <time>2025-04-28T10:54:36Z</time>
      </trkpt>
      <trkpt lat="42.798064984381199" lon="-4.103595977649093">
        <ele>796.11000000000001</ele>
        <time>2025-04-28T10:54:37Z</time>
      </trkpt>
      <trkpt lat="42.797990972176194" lon="-4.103752970695496">
        <ele>797.07000000000005</ele>
        <time>2025-04-28T10:54:38Z</time>
      </trkpt>
      <trkpt lat="42.79791503213346" lon="-4.10391298122704">
        <ele>798.02999999999997</ele>
        <time>2025-04-28T10:54:39Z</time>
      </trkpt>
      <trkpt lat="42.797835990786552" lon="-4.104072991758585">
        <ele>798.99000000000001</ele>
        <time>2025-04-28T10:54:40Z</time>
      </trkpt>
      <trkpt lat="42.797192009165883" lon="-4.105337988585234">
        <ele>806.20000000000005</ele>
        <time>2025-04-28T10:54:48Z</time>
      </trkpt>
      <trkpt lat="42.797136018052697" lon="-4.105519037693739">
        <ele>806.67999999999995</ele>
        <time>2025-04-28T10:54:49Z</time>
      </trkpt>
      <trkpt lat="42.797098970040679" lon="-4.10571500658989">
        <ele>807.63999999999999</ele>
        <time>2025-04-28T10:54:50Z</time>
      </trkpt>
      <trkpt lat="42.797116991132498" lon="-4.105922039598227">
        <ele>808.61000000000001</ele>
        <time>2025-04-28T10:54:51Z</time>
      </trkpt>
      <trkpt lat="42.797169964760542" lon="-4.106108034029603">
        <ele>809.09000000000003</ele>
        <time>2025-04-28T10:54:52Z</time>
      </trkpt>
      <trkpt lat="42.797254035249352" lon="-4.106284976005554">
        <ele>810.04999999999995</ele>
        <time>2025-04-28T10:54:53Z</time>
      </trkpt>
      <trkpt lat="42.79733601026237" lon="-4.106449009850621">
        <ele>810.52999999999997</ele>
        <time>2025-04-28T10:54:54Z</time>
      </trkpt>
      <trkpt lat="42.7974640019238" lon="-4.106577001512051">
        <ele>811.97000000000003</ele>
        <time>2025-04-28T10:54:55Z</time>
      </trkpt>
      <trkpt lat="42.797600040212274" lon="-4.106713039800525">
        <ele>812.92999999999995</ele>
        <time>2025-04-28T10:54:56Z</time>
      </trkpt>
      <trkpt lat="42.797737000510097" lon="-4.106850000098348">
        <ele>813.40999999999997</ele>
        <time>2025-04-28T10:54:57Z</time>
      </trkpt>
      <trkpt lat="42.797862980514765" lon="-4.106997018679977">
        <ele>814.37</ele>
        <time>2025-04-28T10:54:58Z</time>
      </trkpt>
      <trkpt lat="42.797956019639969" lon="-4.107182007282972">
        <ele>815.34000000000003</ele>
        <time>2025-04-28T10:54:59Z</time>
      </trkpt>
      <trkpt lat="42.798049980774522" lon="-4.10737001337111">
        <ele>816.29999999999995</ele>
        <time>2025-04-28T10:55:00Z</time>
      </trkpt>
      <trkpt lat="42.798133967444301" lon="-4.10756497643888">
        <ele>817.74000000000001</ele>
        <time>2025-04-28T10:55:01Z</time>
      </trkpt>
      <trkpt lat="42.798189036548138" lon="-4.107789024710655">
        <ele>818.70000000000005</ele>
        <time>2025-04-28T10:55:02Z</time>
      </trkpt>
      <trkpt lat="42.798244021832943" lon="-4.108017012476921">
        <ele>819.65999999999997</ele>
        <time>2025-04-28T10:55:03Z</time>
      </trkpt>
      <trkpt lat="42.79836799018085" lon="-4.108700975775719">
        <ele>823.02999999999997</ele>
        <time>2025-04-28T10:55:06Z</time>
      </trkpt>
      <trkpt lat="42.798363966867328" lon="-4.108934998512268">
        <ele>823.99000000000001</ele>
        <time>2025-04-28T10:55:07Z</time>
      </trkpt>
      <trkpt lat="42.798338988795877" lon="-4.109162986278534">
        <ele>824.95000000000005</ele>
        <time>2025-04-28T10:55:08Z</time>
      </trkpt>
      <trkpt lat="42.798280986025929" lon="-4.109380999580026">
        <ele>825.42999999999995</ele>
        <time>2025-04-28T10:55:09Z</time>
      </trkpt>
      <trkpt lat="42.798218037933111" lon="-4.109601024538279">
        <ele>825.90999999999997</ele>
        <time>2025-04-28T10:55:10Z</time>
      </trkpt>
      <trkpt lat="42.798155006021261" lon="-4.1098209656775">
        <ele>826.87</ele>
        <time>2025-04-28T10:55:11Z</time>
      </trkpt>
      <trkpt lat="42.798090968281031" lon="-4.110045013949275">
        <ele>827.35000000000002</ele>
        <time>2025-04-28T10:55:12Z</time>
      </trkpt>
      <trkpt lat="42.797604985535145" lon="-4.112201007083058">
        <ele>831.67999999999995</ele>
        <time>2025-04-28T10:55:21Z</time>
      </trkpt>
      <trkpt lat="42.797532984986901" lon="-4.112425977364183">
        <ele>831.67999999999995</ele>
        <time>2025-04-28T10:55:22Z</time>
      </trkpt>
      <trkpt lat="42.797442963346839" lon="-4.112642984837294">
        <ele>832.15999999999997</ele>
        <time>2025-04-28T10:55:23Z</time>
      </trkpt>
      <trkpt lat="42.797312960028648" lon="-4.112821016460657">
        <ele>832.15999999999997</ele>
        <time>2025-04-28T10:55:24Z</time>
      </trkpt>
      <trkpt lat="42.797181028872728" lon="-4.112991001456976">
        <ele>832.63999999999999</ele>
        <time>2025-04-28T10:55:25Z</time>
      </trkpt>
      <trkpt lat="42.797069968655705" lon="-4.113135002553463">
        <ele>833.12</ele>
        <time>2025-04-28T10:55:26Z</time>
      </trkpt>
      <trkpt lat="42.796966033056378" lon="-4.113360978662968">
        <ele>833.12</ele>
        <time>2025-04-28T10:55:27Z</time>
      </trkpt>
      <trkpt lat="42.796919010579586" lon="-4.113582009449601">
        <ele>833.12</ele>
        <time>2025-04-28T10:55:28Z</time>
      </trkpt>
      <trkpt lat="42.796889003366232" lon="-4.11381502635777">
        <ele>833.12</ele>
        <time>2025-04-28T10:55:29Z</time>
      </trkpt>
      <trkpt lat="42.79690501280129" lon="-4.114049971103668">
        <ele>832.63999999999999</ele>
        <time>2025-04-28T10:55:30Z</time>
      </trkpt>
      <trkpt lat="42.796952035278082" lon="-4.114280976355076">
        <ele>832.63999999999999</ele>
        <time>2025-04-28T10:55:31Z</time>
      </trkpt>
      <trkpt lat="42.796988999471068" lon="-4.114516004920006">
        <ele>832.63999999999999</ele>
        <time>2025-04-28T10:55:32Z</time>
      </trkpt>
      <trkpt lat="42.797004003077745" lon="-4.11476100794971">
        <ele>832.63999999999999</ele>
        <time>2025-04-28T10:55:33Z</time>
      </trkpt>
      <trkpt lat="42.796953963115811" lon="-4.115008022636175">
        <ele>832.63999999999999</ele>
        <time>2025-04-28T10:55:34Z</time>
      </trkpt>
      <trkpt lat="42.796886991709471" lon="-4.115250008180738">
        <ele>833.12</ele>
        <time>2025-04-28T10:55:35Z</time>
      </trkpt>
      <trkpt lat="42.796806022524834" lon="-4.11549299955368">
        <ele>833.12</ele>
        <time>2025-04-28T10:55:36Z</time>
      </trkpt>
      <trkpt lat="42.79649798758328" lon="-4.116493966430426">
        <ele>834.55999999999995</ele>
        <time>2025-04-28T10:55:40Z</time>
      </trkpt>
      <trkpt lat="42.796452976763248" lon="-4.11675900220871">
        <ele>834.55999999999995</ele>
        <time>2025-04-28T10:55:41Z</time>
      </trkpt>
      <trkpt lat="42.796410983428359" lon="-4.117025965824723">
        <ele>834.55999999999995</ele>
        <time>2025-04-28T10:55:42Z</time>
      </trkpt>
      <trkpt lat="42.796147037297487" lon="-4.120297003537417">
        <ele>842.73000000000002</ele>
        <time>2025-04-28T10:55:54Z</time>
      </trkpt>
      <trkpt lat="42.796247033402324" lon="-4.122268008068204">
        <ele>842.73000000000002</ele>
        <time>2025-04-28T10:56:02Z</time>
      </trkpt>
      <trkpt lat="42.796276034787297" lon="-4.122898997738957">
        <ele>840.33000000000004</ele>
        <time>2025-04-28T10:56:05Z</time>
      </trkpt>
      <trkpt lat="42.796244015917182" lon="-4.1231419891119">
        <ele>839.37</ele>
        <time>2025-04-28T10:56:06Z</time>
      </trkpt>
      <trkpt lat="42.796216020360589" lon="-4.123362014070153">
        <ele>838.40999999999997</ele>
        <time>2025-04-28T10:56:07Z</time>
      </trkpt>
      <trkpt lat="42.796161035075784" lon="-4.12354901432991">
        <ele>837.92999999999995</ele>
        <time>2025-04-28T10:56:08Z</time>
      </trkpt>
      <trkpt lat="42.796103032305837" lon="-4.123729979619384">
        <ele>837.45000000000005</ele>
        <time>2025-04-28T10:56:09Z</time>
      </trkpt>
      <trkpt lat="42.795978980138898" lon="-4.124233983457089">
        <ele>835.51999999999998</ele>
        <time>2025-04-28T10:56:12Z</time>
      </trkpt>
      <trkpt lat="42.795955007895827" lon="-4.124399023130536">
        <ele>835.03999999999996</ele>
        <time>2025-04-28T10:56:13Z</time>
      </trkpt>
      <trkpt lat="42.79593899846077" lon="-4.126022011041641">
        <ele>837.92999999999995</ele>
        <time>2025-04-28T10:56:23Z</time>
      </trkpt>
      <trkpt lat="42.795900022611022" lon="-4.126173974946141">
        <ele>837.92999999999995</ele>
        <time>2025-04-28T10:56:24Z</time>
      </trkpt>
      <trkpt lat="42.795840008184314" lon="-4.126312024891377">
        <ele>837.92999999999995</ele>
        <time>2025-04-28T10:56:25Z</time>
      </trkpt>
      <trkpt lat="42.795760966837406" lon="-4.126436999067664">
        <ele>837.92999999999995</ele>
        <time>2025-04-28T10:56:26Z</time>
      </trkpt>
      <trkpt lat="42.79568100348115" lon="-4.126563984900713">
        <ele>837.92999999999995</ele>
        <time>2025-04-28T10:56:27Z</time>
      </trkpt>
      <trkpt lat="42.795611014589667" lon="-4.126674961298704">
        <ele>837.92999999999995</ele>
        <time>2025-04-28T10:56:28Z</time>
      </trkpt>
      <trkpt lat="42.795562986284494" lon="-4.126866990700364">
        <ele>837.45000000000005</ele>
        <time>2025-04-28T10:56:29Z</time>
      </trkpt>
      <trkpt lat="42.795521998777986" lon="-4.127030018717051">
        <ele>836.96000000000004</ele>
        <time>2025-04-28T10:56:30Z</time>
      </trkpt>
      <trkpt lat="42.795516969636083" lon="-4.127209978178144">
        <ele>836.48000000000002</ele>
        <time>2025-04-28T10:56:31Z</time>
      </trkpt>
      <trkpt lat="42.795540019869804" lon="-4.127392033115029">
        <ele>836</ele>
        <time>2025-04-28T10:56:32Z</time>
      </trkpt>
      <trkpt lat="42.795562986284494" lon="-4.127580961212516">
        <ele>835.51999999999998</ele>
        <time>2025-04-28T10:56:33Z</time>
      </trkpt>
      <trkpt lat="42.795609002932906" lon="-4.127983041107655">
        <ele>834.08000000000004</ele>
        <time>2025-04-28T10:56:35Z</time>
      </trkpt>
      <trkpt lat="42.795588970184326" lon="-4.128184039145708">
        <ele>833.12</ele>
        <time>2025-04-28T10:56:36Z</time>
      </trkpt>
      <trkpt lat="42.795568015426397" lon="-4.128391994163394">
        <ele>832.63999999999999</ele>
        <time>2025-04-28T10:56:37Z</time>
      </trkpt>
      <trkpt lat="42.795508000999689" lon="-4.128601038828492">
        <ele>831.67999999999995</ele>
        <time>2025-04-28T10:56:38Z</time>
      </trkpt>
      <trkpt lat="42.795448992401361" lon="-4.128806982189417">
        <ele>830.72000000000003</ele>
        <time>2025-04-28T10:56:39Z</time>
      </trkpt>
      <trkpt lat="42.795356959104538" lon="-4.128992976620793">
        <ele>830.72000000000003</ele>
        <time>2025-04-28T10:56:40Z</time>
      </trkpt>
      <trkpt lat="42.795256962999701" lon="-4.129174025729299">
        <ele>830.24000000000001</ele>
        <time>2025-04-28T10:56:41Z</time>
      </trkpt>
      <trkpt lat="42.795155961066484" lon="-4.129358008503914">
        <ele>830.24000000000001</ele>
        <time>2025-04-28T10:56:42Z</time>
      </trkpt>
      <trkpt lat="42.794430004432797" lon="-4.13123999722302">
        <ele>833.12</ele>
        <time>2025-04-28T10:56:51Z</time>
      </trkpt>
      <trkpt lat="42.79426496475935" lon="-4.132974967360497">
        <ele>836.48000000000002</ele>
        <time>2025-04-28T10:56:58Z</time>
      </trkpt>
      <trkpt lat="42.794485995545983" lon="-4.135776031762362">
        <ele>838.88999999999999</ele>
        <time>2025-04-28T10:57:09Z</time>
      </trkpt>
      <trkpt lat="42.79469302855432" lon="-4.13674003444612">
        <ele>842.25</ele>
        <time>2025-04-28T10:57:13Z</time>
      </trkpt>
      <trkpt lat="42.794708032160997" lon="-4.136982019990683">
        <ele>843.69000000000005</ele>
        <time>2025-04-28T10:57:14Z</time>
      </trkpt>
      <trkpt lat="42.794722029939294" lon="-4.137221993878484">
        <ele>844.65999999999997</ele>
        <time>2025-04-28T10:57:15Z</time>
      </trkpt>
      <trkpt lat="42.794723035767674" lon="-4.137462973594666">
        <ele>845.62</ele>
        <time>2025-04-28T10:57:16Z</time>
      </trkpt>
      <trkpt lat="42.794700991362333" lon="-4.137687021866441">
        <ele>846.58000000000004</ele>
        <time>2025-04-28T10:57:17Z</time>
      </trkpt>
      <trkpt lat="42.794680036604404" lon="-4.137896988540888">
        <ele>847.53999999999996</ele>
        <time>2025-04-28T10:57:18Z</time>
      </trkpt>
      <trkpt lat="42.794393040239811" lon="-4.139630030840635">
        <ele>852.83000000000004</ele>
        <time>2025-04-28T10:57:28Z</time>
      </trkpt>
      <trkpt lat="42.794358003884554" lon="-4.139775959774852">
        <ele>853.30999999999995</ele>
        <time>2025-04-28T10:57:29Z</time>
      </trkpt>
      <trkpt lat="42.794312993064523" lon="-4.139914009720087">
        <ele>853.78999999999996</ele>
        <time>2025-04-28T10:57:30Z</time>
      </trkpt>
      <trkpt lat="42.794261025264859" lon="-4.140051975846291">
        <ele>854.26999999999998</ele>
        <time>2025-04-28T10:57:31Z</time>
      </trkpt>
      <trkpt lat="42.794099003076553" lon="-4.140483979135752">
        <ele>855.23000000000002</ele>
        <time>2025-04-28T10:57:34Z</time>
      </trkpt>
      <trkpt lat="42.794076036661863" lon="-4.140652036294341">
        <ele>855.23000000000002</ele>
        <time>2025-04-28T10:57:35Z</time>
      </trkpt>
      <trkpt lat="42.794062038883567" lon="-4.140821015462279">
        <ele>855.23000000000002</ele>
        <time>2025-04-28T10:57:36Z</time>
      </trkpt>
      <trkpt lat="42.79404804110527" lon="-4.140986977145076">
        <ele>854.75</ele>
        <time>2025-04-28T10:57:37Z</time>
      </trkpt>
      <trkpt lat="42.794052986428142" lon="-4.141156040132046">
        <ele>854.75</ele>
        <time>2025-04-28T10:57:38Z</time>
      </trkpt>
      <trkpt lat="42.794064972549677" lon="-4.141327030956745">
        <ele>854.26999999999998</ele>
        <time>2025-04-28T10:57:39Z</time>
      </trkpt>
      <trkpt lat="42.794076958671212" lon="-4.141501039266586">
        <ele>854.26999999999998</ele>
        <time>2025-04-28T10:57:40Z</time>
      </trkpt>
      <trkpt lat="42.794079976156354" lon="-4.141680998727679">
        <ele>854.26999999999998</ele>
        <time>2025-04-28T10:57:41Z</time>
      </trkpt>
      <trkpt lat="42.794033037498593" lon="-4.141849977895618">
        <ele>853.78999999999996</ele>
        <time>2025-04-28T10:57:42Z</time>
      </trkpt>
      <trkpt lat="42.79398500919342" lon="-4.142021974548698">
        <ele>853.30999999999995</ele>
        <time>2025-04-28T10:57:43Z</time>
      </trkpt>
      <trkpt lat="42.793934969231486" lon="-4.142195982858539">
        <ele>853.30999999999995</ele>
        <time>2025-04-28T10:57:44Z</time>
      </trkpt>
      <trkpt lat="42.793887024745345" lon="-4.142365967854857">
        <ele>853.30999999999995</ele>
        <time>2025-04-28T10:57:45Z</time>
      </trkpt>
      <trkpt lat="42.793854000046849" lon="-4.142533019185066">
        <ele>853.30999999999995</ele>
        <time>2025-04-28T10:57:46Z</time>
      </trkpt>
      <trkpt lat="42.793866991996765" lon="-4.142712978646159">
        <ele>853.30999999999995</ele>
        <time>2025-04-28T10:57:47Z</time>
      </trkpt>
      <trkpt lat="42.79391803778708" lon="-4.142881035804749">
        <ele>852.83000000000004</ele>
        <time>2025-04-28T10:57:48Z</time>
      </trkpt>
      <trkpt lat="42.794002024456859" lon="-4.143046997487545">
        <ele>852.83000000000004</ele>
        <time>2025-04-28T10:57:49Z</time>
      </trkpt>
      <trkpt lat="42.794094979763031" lon="-4.143179012462497">
        <ele>852.35000000000002</ele>
        <time>2025-04-28T10:57:50Z</time>
      </trkpt>
      <trkpt lat="42.794287009164691" lon="-4.143500961363316">
        <ele>851.87</ele>
        <time>2025-04-28T10:57:52Z</time>
      </trkpt>
      <trkpt lat="42.79437099583447" lon="-4.143683016300201">
        <ele>851.38</ele>
        <time>2025-04-28T10:57:53Z</time>
      </trkpt>
      <trkpt lat="42.794454982504249" lon="-4.143865993246436">
        <ele>851.38</ele>
        <time>2025-04-28T10:57:54Z</time>
      </trkpt>
      <trkpt lat="42.794504016637802" lon="-4.144079983234406">
        <ele>851.38</ele>
        <time>2025-04-28T10:57:55Z</time>
      </trkpt>
      <trkpt lat="42.794539975002408" lon="-4.144295984879136">
        <ele>851.38</ele>
        <time>2025-04-28T10:57:56Z</time>
      </trkpt>
      <trkpt lat="42.794576017186046" lon="-4.144504023715854">
        <ele>851.38</ele>
        <time>2025-04-28T10:57:57Z</time>
      </trkpt>
      <trkpt lat="42.794776009395719" lon="-4.14552703499794">
        <ele>850.41999999999996</ele>
        <time>2025-04-28T10:58:02Z</time>
      </trkpt>
      <trkpt lat="42.794850021600723" lon="-4.145724009722471">
        <ele>849.94000000000005</ele>
        <time>2025-04-28T10:58:03Z</time>
      </trkpt>
      <trkpt lat="42.794935014098883" lon="-4.145890977233648">
        <ele>849.94000000000005</ele>
        <time>2025-04-28T10:58:04Z</time>
      </trkpt>
      <trkpt lat="42.795010032132268" lon="-4.146030033007264">
        <ele>850.41999999999996</ele>
        <time>2025-04-28T10:58:05Z</time>
      </trkpt>
      <trkpt lat="42.795120002701879" lon="-4.146130029112101">
        <ele>850.41999999999996</ele>
        <time>2025-04-28T10:58:06Z</time>
      </trkpt>
      <trkpt lat="42.795216981321573" lon="-4.146218039095402">
        <ele>850.89999999999998</ele>
        <time>2025-04-28T10:58:07Z</time>
      </trkpt>
      <trkpt lat="42.795319994911551" lon="-4.146276041865349">
        <ele>850.89999999999998</ele>
        <time>2025-04-28T10:58:08Z</time>
      </trkpt>
      <trkpt lat="42.795429965481162" lon="-4.146316023543477">
        <ele>851.38</ele>
        <time>2025-04-28T10:58:09Z</time>
      </trkpt>
      <trkpt lat="42.795548988506198" lon="-4.146339995786548">
        <ele>851.87</ele>
        <time>2025-04-28T10:58:10Z</time>
      </trkpt>
      <trkpt lat="42.795669017359614" lon="-4.146362962201238">
        <ele>852.35000000000002</ele>
        <time>2025-04-28T10:58:11Z</time>
      </trkpt>
      <trkpt lat="42.795826010406017" lon="-4.146394981071353">
        <ele>852.83000000000004</ele>
        <time>2025-04-28T10:58:12Z</time>
      </trkpt>
      <trkpt lat="42.795911002904177" lon="-4.146388024091721">
        <ele>853.30999999999995</ele>
        <time>2025-04-28T10:58:13Z</time>
      </trkpt>
      <trkpt lat="42.796333031728864" lon="-4.146352987736464">
        <ele>855.71000000000004</ele>
        <time>2025-04-28T10:58:17Z</time>
      </trkpt>
      <trkpt lat="42.796414000913501" lon="-4.146415013819933">
        <ele>856.19000000000005</ele>
        <time>2025-04-28T10:58:18Z</time>
      </trkpt>
      <trkpt lat="42.796492036432028" lon="-4.146481985226274">
        <ele>856.66999999999996</ele>
        <time>2025-04-28T10:58:19Z</time>
      </trkpt>
      <trkpt lat="42.796576023101807" lon="-4.146553985774517">
        <ele>857.14999999999998</ele>
        <time>2025-04-28T10:58:20Z</time>
      </trkpt>
      <trkpt lat="42.796654980629683" lon="-4.146635038778186">
        <ele>857.63</ele>
        <time>2025-04-28T10:58:21Z</time>
      </trkpt>
      <trkpt lat="42.796717006713152" lon="-4.146750038489699">
        <ele>858.59000000000003</ele>
        <time>2025-04-28T10:58:22Z</time>
      </trkpt>
      <trkpt lat="42.796780960634351" lon="-4.146865960210562">
        <ele>859.55999999999995</ele>
        <time>2025-04-28T10:58:23Z</time>
      </trkpt>
      <trkpt lat="42.796847010031343" lon="-4.146985989063978">
        <ele>860.03999999999996</ele>
        <time>2025-04-28T10:58:24Z</time>
      </trkpt>
      <trkpt lat="42.797568021342158" lon="-4.148065997287631">
        <ele>866.28999999999996</ele>
        <time>2025-04-28T10:58:33Z</time>
      </trkpt>
      <trkpt lat="42.797629963606596" lon="-4.148225001990795">
        <ele>866.76999999999998</ele>
        <time>2025-04-28T10:58:34Z</time>
      </trkpt>
      <trkpt lat="42.797687966376543" lon="-4.148399010300636">
        <ele>867.25</ele>
        <time>2025-04-28T10:58:35Z</time>
      </trkpt>
      <trkpt lat="42.797892987728119" lon="-4.148949030786753">
        <ele>867.25</ele>
        <time>2025-04-28T10:58:38Z</time>
      </trkpt>
      <trkpt lat="42.797990972176194" lon="-4.149118009954691">
        <ele>866.76999999999998</ele>
        <time>2025-04-28T10:58:39Z</time>
      </trkpt>
      <trkpt lat="42.798101026564837" lon="-4.14928900077939">
        <ele>866.76999999999998</ele>
        <time>2025-04-28T10:58:40Z</time>
      </trkpt>
      <trkpt lat="42.798237986862659" lon="-4.149399977177382">
        <ele>867.25</ele>
        <time>2025-04-28T10:58:41Z</time>
      </trkpt>
      <trkpt lat="42.798376958817244" lon="-4.149513971060515">
        <ele>867.25</ele>
        <time>2025-04-28T10:58:42Z</time>
      </trkpt>
      <trkpt lat="42.798519032076001" lon="-4.149628970772028">
        <ele>867.73000000000002</ele>
        <time>2025-04-28T10:58:43Z</time>
      </trkpt>
      <trkpt lat="42.798936031758785" lon="-4.149998025968671">
        <ele>869.16999999999996</ele>
        <time>2025-04-28T10:58:46Z</time>
      </trkpt>
      <trkpt lat="42.799052037298679" lon="-4.150167005136609">
        <ele>869.16999999999996</ele>
        <time>2025-04-28T10:58:47Z</time>
      </trkpt>
      <trkpt lat="42.799170976504683" lon="-4.150342019274831">
        <ele>869.64999999999998</ele>
        <time>2025-04-28T10:58:48Z</time>
      </trkpt>
      <trkpt lat="42.799280025064945" lon="-4.150544023141265">
        <ele>869.64999999999998</ele>
        <time>2025-04-28T10:58:49Z</time>
      </trkpt>
      <trkpt lat="42.799351019784808" lon="-4.150779973715544">
        <ele>869.16999999999996</ele>
        <time>2025-04-28T10:58:50Z</time>
      </trkpt>
      <trkpt lat="42.799424026161432" lon="-4.151021037250757">
        <ele>868.69000000000005</ele>
        <time>2025-04-28T10:58:51Z</time>
      </trkpt>
      <trkpt lat="42.799486974254251" lon="-4.151272997260094">
        <ele>868.21000000000004</ele>
        <time>2025-04-28T10:58:52Z</time>
      </trkpt>
      <trkpt lat="42.799671040847898" lon="-4.152330961078405">
        <ele>866.28999999999996</ele>
        <time>2025-04-28T10:58:56Z</time>
      </trkpt>
      <trkpt lat="42.799675986170769" lon="-4.152611000463367">
        <ele>866.28999999999996</ele>
        <time>2025-04-28T10:58:57Z</time>
      </trkpt>
      <trkpt lat="42.799681015312672" lon="-4.152883999049664">
        <ele>865.79999999999995</ele>
        <time>2025-04-28T10:58:58Z</time>
      </trkpt>
      <trkpt lat="42.79965796507895" lon="-4.154489971697331">
        <ele>865.32000000000005</ele>
        <time>2025-04-28T10:59:05Z</time>
      </trkpt>
      <trkpt lat="42.799701970070601" lon="-4.154654005542398">
        <ele>865.32000000000005</ele>
        <time>2025-04-28T10:59:06Z</time>
      </trkpt>
      <trkpt lat="42.799758967012167" lon="-4.154804041609168">
        <ele>865.79999999999995</ele>
        <time>2025-04-28T10:59:07Z</time>
      </trkpt>
      <trkpt lat="42.799845971167088" lon="-4.154928009957075">
        <ele>865.79999999999995</ele>
        <time>2025-04-28T10:59:08Z</time>
      </trkpt>
      <trkpt lat="42.799952002242208" lon="-4.155007973313332">
        <ele>866.28999999999996</ele>
        <time>2025-04-28T10:59:09Z</time>
      </trkpt>
      <trkpt lat="42.800074964761734" lon="-4.155061030760407">
        <ele>866.76999999999998</ele>
        <time>2025-04-28T10:59:10Z</time>
      </trkpt>
      <trkpt lat="42.800200022757053" lon="-4.155106963589788">
        <ele>867.25</ele>
        <time>2025-04-28T10:59:11Z</time>
      </trkpt>
      <trkpt lat="42.800332037732005" lon="-4.155106963589788">
        <ele>868.69000000000005</ele>
        <time>2025-04-28T10:59:12Z</time>
      </trkpt>
      <trkpt lat="42.800468998029828" lon="-4.155106963589788">
        <ele>869.64999999999998</ele>
        <time>2025-04-28T10:59:13Z</time>
      </trkpt>
      <trkpt lat="42.800608975812793" lon="-4.155106963589788">
        <ele>870.13</ele>
        <time>2025-04-28T10:59:14Z</time>
      </trkpt>
      <trkpt lat="42.800750965252519" lon="-4.155172007158399">
        <ele>871.09000000000003</ele>
        <time>2025-04-28T10:59:15Z</time>
      </trkpt>
      <trkpt lat="42.800893038511276" lon="-4.155238978564739">
        <ele>872.04999999999995</ele>
        <time>2025-04-28T10:59:16Z</time>
      </trkpt>
      <trkpt lat="42.801629975438118" lon="-4.155865022912622">
        <ele>877.34000000000003</ele>
        <time>2025-04-28T10:59:23Z</time>
      </trkpt>
      <trkpt lat="42.80195502564311" lon="-4.156175991520286">
        <ele>878.29999999999995</ele>
        <time>2025-04-28T10:59:27Z</time>
      </trkpt>
      <trkpt lat="42.80210598371923" lon="-4.156373972073197">
        <ele>878.29999999999995</ele>
        <time>2025-04-28T10:59:29Z</time>
      </trkpt>
      <trkpt lat="42.80216901563108" lon="-4.156494000926614">
        <ele>878.29999999999995</ele>
        <time>2025-04-28T10:59:30Z</time>
      </trkpt>
      <trkpt lat="42.802231963723898" lon="-4.15661302395165">
        <ele>878.29999999999995</ele>
        <time>2025-04-28T10:59:31Z</time>
      </trkpt>
      <trkpt lat="42.802265994250774" lon="-4.156763982027769">
        <ele>877.82000000000005</ele>
        <time>2025-04-28T10:59:32Z</time>
      </trkpt>
      <trkpt lat="42.802297007292509" lon="-4.156924998387694">
        <ele>877.34000000000003</ele>
        <time>2025-04-28T10:59:33Z</time>
      </trkpt>
      <trkpt lat="42.802327014505863" lon="-4.157092971727252">
        <ele>876.86000000000001</ele>
        <time>2025-04-28T10:59:34Z</time>
      </trkpt>
      <trkpt lat="42.802357021719217" lon="-4.157267985865474">
        <ele>876.38</ele>
        <time>2025-04-28T10:59:35Z</time>
      </trkpt>
      <trkpt lat="42.802391974255443" lon="-4.157466972246766">
        <ele>875.41999999999996</ele>
        <time>2025-04-28T10:59:36Z</time>
      </trkpt>
      <trkpt lat="42.802447965368629" lon="-4.157822029665113">
        <ele>873.98000000000002</ele>
        <time>2025-04-28T10:59:38Z</time>
      </trkpt>
      <trkpt lat="42.802496999502182" lon="-4.158186977729201">
        <ele>872.52999999999997</ele>
        <time>2025-04-28T10:59:40Z</time>
      </trkpt>
      <trkpt lat="42.802517032250762" lon="-4.158374983817339">
        <ele>872.04999999999995</ele>
        <time>2025-04-28T10:59:41Z</time>
      </trkpt>
      <trkpt lat="42.80253698118031" lon="-4.158558966591954">
        <ele>871.57000000000005</ele>
        <time>2025-04-28T10:59:42Z</time>
      </trkpt>
      <trkpt lat="42.802611999213696" lon="-4.158710008487105">
        <ele>871.09000000000003</ele>
        <time>2025-04-28T10:59:43Z</time>
      </trkpt>
      <trkpt lat="42.802697997540236" lon="-4.158839005976915">
        <ele>870.61000000000001</ele>
        <time>2025-04-28T10:59:44Z</time>
      </trkpt>
      <trkpt lat="42.802802016958594" lon="-4.158931961283088">
        <ele>870.61000000000001</ele>
        <time>2025-04-28T10:59:45Z</time>
      </trkpt>
      <trkpt lat="42.802919028326869" lon="-4.158947970718145">
        <ele>870.13</ele>
        <time>2025-04-28T10:59:46Z</time>
      </trkpt>
      <trkpt lat="42.803036961704493" lon="-4.158962974324822">
        <ele>869.64999999999998</ele>
        <time>2025-04-28T10:59:47Z</time>
      </trkpt>
      <trkpt lat="42.803151039406657" lon="-4.158942019566894">
        <ele>869.64999999999998</ele>
        <time>2025-04-28T10:59:48Z</time>
      </trkpt>
      <trkpt lat="42.803269978612661" lon="-4.158898014575243">
        <ele>869.64999999999998</ele>
        <time>2025-04-28T10:59:49Z</time>
      </trkpt>
      <trkpt lat="42.8033940307796" lon="-4.158853003755212">
        <ele>870.13</ele>
        <time>2025-04-28T10:59:50Z</time>
      </trkpt>
      <trkpt lat="42.803784040734172" lon="-4.158734986558557">
        <ele>871.09000000000003</ele>
        <time>2025-04-28T10:59:53Z</time>
      </trkpt>
      <trkpt lat="42.803915971890092" lon="-4.15869802236557">
        <ele>871.57000000000005</ele>
        <time>2025-04-28T10:59:54Z</time>
      </trkpt>
      <trkpt lat="42.804057961329818" lon="-4.158678995445371">
        <ele>871.57000000000005</ele>
        <time>2025-04-28T10:59:55Z</time>
      </trkpt>
      <trkpt lat="42.80418997630477" lon="-4.158718977123499">
        <ele>871.57000000000005</ele>
        <time>2025-04-28T10:59:56Z</time>
      </trkpt>
      <trkpt lat="42.804325008764863" lon="-4.158758958801627">
        <ele>871.57000000000005</ele>
        <time>2025-04-28T10:59:57Z</time>
      </trkpt>
      <trkpt lat="42.804455012083054" lon="-4.158798018470407">
        <ele>871.57000000000005</ele>
        <time>2025-04-28T10:59:58Z</time>
      </trkpt>
      <trkpt lat="42.805033028125763" lon="-4.158991975709796">
        <ele>872.04999999999995</ele>
        <time>2025-04-28T11:00:03Z</time>
      </trkpt>
      <trkpt lat="42.805121960118413" lon="-4.159076968207955">
        <ele>872.04999999999995</ele>
        <time>2025-04-28T11:00:04Z</time>
      </trkpt>
      <trkpt lat="42.805214999243617" lon="-4.159155003726482">
        <ele>872.04999999999995</ele>
        <time>2025-04-28T11:00:05Z</time>
      </trkpt>
      <trkpt lat="42.805302003398538" lon="-4.159256005659699">
        <ele>872.04999999999995</ele>
        <time>2025-04-28T11:00:06Z</time>
      </trkpt>
      <trkpt lat="42.805376015603542" lon="-4.159380979835987">
        <ele>871.57000000000005</ele>
        <time>2025-04-28T11:00:07Z</time>
      </trkpt>
      <trkpt lat="42.805442987009883" lon="-4.1595150064677">
        <ele>871.09000000000003</ele>
        <time>2025-04-28T11:00:08Z</time>
      </trkpt>
      <trkpt lat="42.805512975901365" lon="-4.159653978422284">
        <ele>870.61000000000001</ele>
        <time>2025-04-28T11:00:09Z</time>
      </trkpt>
      <trkpt lat="42.805581036955118" lon="-4.159796973690391">
        <ele>870.13</ele>
        <time>2025-04-28T11:00:10Z</time>
      </trkpt>
      <trkpt lat="42.805641973391175" lon="-4.159952960908413">
        <ele>869.16999999999996</ele>
        <time>2025-04-28T11:00:11Z</time>
      </trkpt>
      <trkpt lat="42.806369019672275" lon="-4.161242013797164">
        <ele>864.36000000000001</ele>
        <time>2025-04-28T11:00:19Z</time>
      </trkpt>
      <trkpt lat="42.80769201926887" lon="-4.163028029724956">
        <ele>864.84000000000003</ele>
        <time>2025-04-28T11:00:31Z</time>
      </trkpt>
      <trkpt lat="42.808687034994364" lon="-4.16460600681603">
        <ele>870.13</ele>
        <time>2025-04-28T11:00:41Z</time>
      </trkpt>
      <trkpt lat="42.809249963611364" lon="-4.165532039478421">
        <ele>873.00999999999999</ele>
        <time>2025-04-28T11:00:48Z</time>
      </trkpt>
      <trkpt lat="42.809277959167957" lon="-4.16557596065104">
        <ele>873.00999999999999</ele>
        <time>2025-04-28T11:00:54Z</time>
      </trkpt>
      <trkpt lat="42.809277959167957" lon="-4.16557596065104">
        <ele>873.00999999999999</ele>
        <time>2025-04-28T11:01:29Z</time>
      </trkpt>
      <trkpt lat="42.809277959167957" lon="-4.16557596065104">
        <ele>873.98000000000002</ele>
        <time>2025-04-28T11:02:18Z</time>
      </trkpt>
      <trkpt lat="42.809305032715201" lon="-4.165618037804961">
        <ele>873.98000000000002</ele>
        <time>2025-04-28T11:02:47Z</time>
      </trkpt>
      <trkpt lat="42.809322969987988" lon="-4.165645027533174">
        <ele>874.46000000000004</ele>
        <time>2025-04-28T11:02:48Z</time>
      </trkpt>
      <trkpt lat="42.809350965544581" lon="-4.165689032524824">
        <ele>874.46000000000004</ele>
        <time>2025-04-28T11:02:49Z</time>
      </trkpt>
      <trkpt lat="42.809390025213361" lon="-4.165750974789262">
        <ele>874.94000000000005</ele>
        <time>2025-04-28T11:02:50Z</time>
      </trkpt>
      <trkpt lat="42.809439981356263" lon="-4.165828004479408">
        <ele>874.94000000000005</ele>
        <time>2025-04-28T11:02:51Z</time>
      </trkpt>
      <trkpt lat="42.81003300100565" lon="-4.166778009384871">
        <ele>874.94000000000005</ele>
        <time>2025-04-28T11:02:59Z</time>
      </trkpt>
      <trkpt lat="42.811178974807262" lon="-4.168620016425848">
        <ele>876.86000000000001</ele>
        <time>2025-04-28T11:03:11Z</time>
      </trkpt>
      <trkpt lat="42.811981961131096" lon="-4.170049969106913">
        <ele>883.59000000000003</ele>
        <time>2025-04-28T11:03:20Z</time>
      </trkpt>
      <trkpt lat="42.81312701292336" lon="-4.172807028517127">
        <ele>886.95000000000005</ele>
        <time>2025-04-28T11:03:36Z</time>
      </trkpt>
      <trkpt lat="42.813505958765745" lon="-4.173558969050646">
        <ele>890.32000000000005</ele>
        <time>2025-04-28T11:03:41Z</time>
      </trkpt>
      <trkpt lat="42.81355801038444" lon="-4.173728032037616">
        <ele>890.79999999999995</ele>
        <time>2025-04-28T11:03:42Z</time>
      </trkpt>
      <trkpt lat="42.814119011163712" lon="-4.175717979669571">
        <ele>891.27999999999997</ele>
        <time>2025-04-28T11:03:52Z</time>
      </trkpt>
      <trkpt lat="42.814752012491226" lon="-4.177608015015721">
        <ele>894.15999999999997</ele>
        <time>2025-04-28T11:04:01Z</time>
      </trkpt>
      <trkpt lat="42.815823974087834" lon="-4.18082901276648">
        <ele>901.85000000000002</ele>
        <time>2025-04-28T11:04:14Z</time>
      </trkpt>
      <trkpt lat="42.816856959834695" lon="-4.184290990233421">
        <ele>909.05999999999995</ele>
        <time>2025-04-28T11:04:27Z</time>
      </trkpt>
      <trkpt lat="42.817290974780917" lon="-4.186261994764209">
        <ele>915.30999999999995</ele>
        <time>2025-04-28T11:04:36Z</time>
      </trkpt>
      <trkpt lat="42.817538995295763" lon="-4.188593002036214">
        <ele>912.42999999999995</ele>
        <time>2025-04-28T11:04:45Z</time>
      </trkpt>
      <trkpt lat="42.817904027178884" lon="-4.192836005240679">
        <ele>904.74000000000001</ele>
        <time>2025-04-28T11:05:00Z</time>
      </trkpt>
      <trkpt lat="42.818441977724433" lon="-4.197083031758666">
        <ele>903.77999999999997</ele>
        <time>2025-04-28T11:05:16Z</time>
      </trkpt>
      <trkpt lat="42.818787982687354" lon="-4.198300000280142">
        <ele>902.33000000000004</ele>
        <time>2025-04-28T11:05:24Z</time>
      </trkpt>
      <trkpt lat="42.819362981244922" lon="-4.199418984353542">
        <ele>903.29999999999995</ele>
        <time>2025-04-28T11:05:34Z</time>
      </trkpt>
      <trkpt lat="42.819436993449926" lon="-4.199548987671733">
        <ele>903.77999999999997</ele>
        <time>2025-04-28T11:05:35Z</time>
      </trkpt>
      <trkpt lat="42.819459959864616" lon="-4.199685025960207">
        <ele>904.25999999999999</ele>
        <time>2025-04-28T11:05:36Z</time>
      </trkpt>
      <trkpt lat="42.819483010098338" lon="-4.199818968772888">
        <ele>904.74000000000001</ele>
        <time>2025-04-28T11:05:37Z</time>
      </trkpt>
      <trkpt lat="42.819504970684648" lon="-4.199943020939827">
        <ele>905.70000000000005</ele>
        <time>2025-04-28T11:05:38Z</time>
      </trkpt>
      <trkpt lat="42.819525003433228" lon="-4.200063971802592">
        <ele>906.17999999999995</ele>
        <time>2025-04-28T11:05:39Z</time>
      </trkpt>
      <trkpt lat="42.819761037826538" lon="-4.201532984152436">
        <ele>907.13999999999999</ele>
        <time>2025-04-28T11:05:50Z</time>
      </trkpt>
      <trkpt lat="42.819919036701322" lon="-4.202765040099621">
        <ele>911.47000000000003</ele>
        <time>2025-04-28T11:05:58Z</time>
      </trkpt>
      <trkpt lat="42.819904033094645" lon="-4.202919015660882">
        <ele>911.47000000000003</ele>
        <time>2025-04-28T11:05:59Z</time>
      </trkpt>
      <trkpt lat="42.819890035316348" lon="-4.203081037849188">
        <ele>911.95000000000005</ele>
        <time>2025-04-28T11:06:00Z</time>
      </trkpt>
      <trkpt lat="42.819862039759755" lon="-4.203241970390081">
        <ele>911.95000000000005</ele>
        <time>2025-04-28T11:06:01Z</time>
      </trkpt>
      <trkpt lat="42.819804958999157" lon="-4.203398963436484">
        <ele>911.95000000000005</ele>
        <time>2025-04-28T11:06:02Z</time>
      </trkpt>
      <trkpt lat="42.8197249956429" lon="-4.203528966754675">
        <ele>911.95000000000005</ele>
        <time>2025-04-28T11:06:03Z</time>
      </trkpt>
      <trkpt lat="42.819631034508348" lon="-4.20366601087153">
        <ele>911.47000000000003</ele>
        <time>2025-04-28T11:06:04Z</time>
      </trkpt>
      <trkpt lat="42.819535983726382" lon="-4.203792996704578">
        <ele>911.47000000000003</ele>
        <time>2025-04-28T11:06:05Z</time>
      </trkpt>
      <trkpt lat="42.819416960701346" lon="-4.20390397310257">
        <ele>910.99000000000001</ele>
        <time>2025-04-28T11:06:06Z</time>
      </trkpt>
      <trkpt lat="42.819295004010201" lon="-4.204017966985703">
        <ele>910.50999999999999</ele>
        <time>2025-04-28T11:06:07Z</time>
      </trkpt>
      <trkpt lat="42.818002011626959" lon="-4.205148015171289">
        <ele>905.70000000000005</ele>
        <time>2025-04-28T11:06:16Z</time>
      </trkpt>
      <trkpt lat="42.817545030266047" lon="-4.205554034560919">
        <ele>906.65999999999997</ele>
        <time>2025-04-28T11:06:19Z</time>
      </trkpt>
      <trkpt lat="42.817396000027657" lon="-4.205653024837375">
        <ele>907.13999999999999</ele>
        <time>2025-04-28T11:06:20Z</time>
      </trkpt>
      <trkpt lat="42.81723297201097" lon="-4.205729970708489">
        <ele>907.13999999999999</ele>
        <time>2025-04-28T11:06:21Z</time>
      </trkpt>
      <trkpt lat="42.817069021984935" lon="-4.205789985135198">
        <ele>907.13999999999999</ele>
        <time>2025-04-28T11:06:22Z</time>
      </trkpt>
      <trkpt lat="42.816894007846713" lon="-4.205775987356901">
        <ele>907.13999999999999</ele>
        <time>2025-04-28T11:06:23Z</time>
      </trkpt>
      <trkpt lat="42.816718993708491" lon="-4.205762995406985">
        <ele>907.62</ele>
        <time>2025-04-28T11:06:24Z</time>
      </trkpt>
      <trkpt lat="42.816546997055411" lon="-4.205750003457069">
        <ele>908.10000000000002</ele>
        <time>2025-04-28T11:06:25Z</time>
      </trkpt>
      <trkpt lat="42.816377012059093" lon="-4.205746985971928">
        <ele>909.05999999999995</ele>
        <time>2025-04-28T11:06:26Z</time>
      </trkpt>
      <trkpt lat="42.81622102484107" lon="-4.205746985971928">
        <ele>909.53999999999996</ele>
        <time>2025-04-28T11:06:27Z</time>
      </trkpt>
      <trkpt lat="42.816078029572964" lon="-4.205746985971928">
        <ele>910.50999999999999</ele>
        <time>2025-04-28T11:06:28Z</time>
      </trkpt>
      <trkpt lat="42.815948026254773" lon="-4.205787973478437">
        <ele>910.99000000000001</ele>
        <time>2025-04-28T11:06:29Z</time>
      </trkpt>
      <trkpt lat="42.815832020714879" lon="-4.205857962369919">
        <ele>911.95000000000005</ele>
        <time>2025-04-28T11:06:30Z</time>
      </trkpt>
      <trkpt lat="42.815746022388339" lon="-4.206007998436689">
        <ele>912.90999999999997</ele>
        <time>2025-04-28T11:06:31Z</time>
      </trkpt>
      <trkpt lat="42.81568500213325" lon="-4.206148982048035">
        <ele>913.87</ele>
        <time>2025-04-28T11:06:32Z</time>
      </trkpt>
      <trkpt lat="42.815660024061799" lon="-4.20628703199327">
        <ele>914.35000000000002</ele>
        <time>2025-04-28T11:06:33Z</time>
      </trkpt>
      <trkpt lat="42.815665975213051" lon="-4.206421980634332">
        <ele>914.83000000000004</ele>
        <time>2025-04-28T11:06:34Z</time>
      </trkpt>
      <trkpt lat="42.81570503488183" lon="-4.20659095980227">
        <ele>915.78999999999996</ele>
        <time>2025-04-28T11:06:35Z</time>
      </trkpt>
      <trkpt lat="42.815789021551609" lon="-4.20665399171412">
        <ele>916.26999999999998</ele>
        <time>2025-04-28T11:06:36Z</time>
      </trkpt>
      <trkpt lat="42.815870996564627" lon="-4.206734960898757">
        <ele>916.26999999999998</ele>
        <time>2025-04-28T11:06:37Z</time>
      </trkpt>
      <trkpt lat="42.815893962979317" lon="-4.206874016672373">
        <ele>916.75</ele>
        <time>2025-04-28T11:06:38Z</time>
      </trkpt>
      <trkpt lat="42.81587703153491" lon="-4.207024974748492">
        <ele>916.75</ele>
        <time>2025-04-28T11:06:39Z</time>
      </trkpt>
      <trkpt lat="42.815811987966299" lon="-4.207133017480373">
        <ele>916.75</ele>
        <time>2025-04-28T11:06:40Z</time>
      </trkpt>
      <trkpt lat="42.815802013501525" lon="-4.207338038831949">
        <ele>916.75</ele>
        <time>2025-04-28T11:06:41Z</time>
      </trkpt>
      <trkpt lat="42.815824979916215" lon="-4.207506012171507">
        <ele>917.24000000000001</ele>
        <time>2025-04-28T11:06:42Z</time>
      </trkpt>
      <trkpt lat="42.815851969644427" lon="-4.20768697746098">
        <ele>917.24000000000001</ele>
        <time>2025-04-28T11:06:43Z</time>
      </trkpt>
      <trkpt lat="42.815891029313207" lon="-4.207870960235596">
        <ele>917.72000000000003</ele>
        <time>2025-04-28T11:06:44Z</time>
      </trkpt>
      <trkpt lat="42.815928999334574" lon="-4.208055026829243">
        <ele>918.20000000000005</ele>
        <time>2025-04-28T11:06:45Z</time>
      </trkpt>
      <trkpt lat="42.816060008481145" lon="-4.208601024001837">
        <ele>917.72000000000003</ele>
        <time>2025-04-28T11:06:48Z</time>
      </trkpt>
      <trkpt lat="42.816115999594331" lon="-4.209107961505652">
        <ele>918.20000000000005</ele>
        <time>2025-04-28T11:06:51Z</time>
      </trkpt>
      <trkpt lat="42.816090015694499" lon="-4.20929697342217">
        <ele>918.67999999999995</ele>
        <time>2025-04-28T11:06:52Z</time>
      </trkpt>
      <trkpt lat="42.816022038459778" lon="-4.209461007267237">
        <ele>919.63999999999999</ele>
        <time>2025-04-28T11:06:53Z</time>
      </trkpt>
      <trkpt lat="42.815937967970967" lon="-4.209611965343356">
        <ele>921.08000000000004</ele>
        <time>2025-04-28T11:06:54Z</time>
      </trkpt>
      <trkpt lat="42.815848030149937" lon="-4.209751021116972">
        <ele>922.03999999999996</ele>
        <time>2025-04-28T11:06:55Z</time>
      </trkpt>
      <trkpt lat="42.815757002681494" lon="-4.209892004728317">
        <ele>923.48000000000002</ele>
        <time>2025-04-28T11:06:56Z</time>
      </trkpt>
      <trkpt lat="42.814529975876212" lon="-4.211611971259117">
        <ele>937.41999999999996</ele>
        <time>2025-04-28T11:07:08Z</time>
      </trkpt>
      <trkpt lat="42.814450012519956" lon="-4.211790002882481">
        <ele>938.86000000000001</ele>
        <time>2025-04-28T11:07:09Z</time>
      </trkpt>
      <trkpt lat="42.814250020310283" lon="-4.212342035025358">
        <ele>942.71000000000004</ele>
        <time>2025-04-28T11:07:12Z</time>
      </trkpt>
      <trkpt lat="42.814205009490252" lon="-4.212536998093128">
        <ele>944.14999999999998</ele>
        <time>2025-04-28T11:07:13Z</time>
      </trkpt>
      <trkpt lat="42.81415999867022" lon="-4.212733972817659">
        <ele>945.59000000000003</ele>
        <time>2025-04-28T11:07:14Z</time>
      </trkpt>
      <trkpt lat="42.814121022820473" lon="-4.214139031246305">
        <ele>953.27999999999997</ele>
        <time>2025-04-28T11:07:21Z</time>
      </trkpt>
      <trkpt lat="42.814155975356698" lon="-4.214270962402225">
        <ele>953.76999999999998</ele>
        <time>2025-04-28T11:07:22Z</time>
      </trkpt>
      <trkpt lat="42.814205009490252" lon="-4.214374981820583">
        <ele>955.21000000000004</ele>
        <time>2025-04-28T11:07:23Z</time>
      </trkpt>
      <trkpt lat="42.814257983118296" lon="-4.214447988197208">
        <ele>956.16999999999996</ele>
        <time>2025-04-28T11:07:24Z</time>
      </trkpt>
      <trkpt lat="42.814389998093247" lon="-4.21451898291707">
        <ele>957.13</ele>
        <time>2025-04-28T11:07:25Z</time>
      </trkpt>
      <trkpt lat="42.814451018348336" lon="-4.214457962661982">
        <ele>958.57000000000005</ele>
        <time>2025-04-28T11:07:26Z</time>
      </trkpt>
      <trkpt lat="42.814554031938314" lon="-4.214407000690699">
        <ele>959.52999999999997</ele>
        <time>2025-04-28T11:07:27Z</time>
      </trkpt>
      <trkpt lat="42.814651010558009" lon="-4.214440025389195">
        <ele>960.49000000000001</ele>
        <time>2025-04-28T11:07:28Z</time>
      </trkpt>
      <trkpt lat="42.814750000834465" lon="-4.214514037594199">
        <ele>960.49000000000001</ele>
        <time>2025-04-28T11:07:29Z</time>
      </trkpt>
      <trkpt lat="42.814823007211089" lon="-4.214612022042275">
        <ele>960.98000000000002</ele>
        <time>2025-04-28T11:07:30Z</time>
      </trkpt>
      <trkpt lat="42.81484697945416" lon="-4.214759962633252">
        <ele>961.46000000000004</ele>
        <time>2025-04-28T11:07:31Z</time>
      </trkpt>
      <trkpt lat="42.814857037737966" lon="-4.214888960123062">
        <ele>961.46000000000004</ele>
        <time>2025-04-28T11:07:32Z</time>
      </trkpt>
      <trkpt lat="42.814809009432793" lon="-4.214992979541421">
        <ele>961.94000000000005</ele>
        <time>2025-04-28T11:07:33Z</time>
      </trkpt>
      <trkpt lat="42.814752012491226" lon="-4.215091969817877">
        <ele>961.94000000000005</ele>
        <time>2025-04-28T11:07:34Z</time>
      </trkpt>
      <trkpt lat="42.814708007499576" lon="-4.215166987851262">
        <ele>962.41999999999996</ele>
        <time>2025-04-28T11:07:35Z</time>
      </trkpt>
      <trkpt lat="42.814586972817779" lon="-4.215176962316036">
        <ele>962.41999999999996</ele>
        <time>2025-04-28T11:07:36Z</time>
      </trkpt>
      <trkpt lat="42.81435202807188" lon="-4.215409979224205">
        <ele>962.41999999999996</ele>
        <time>2025-04-28T11:07:38Z</time>
      </trkpt>
      <trkpt lat="42.814282039180398" lon="-4.215564038604498">
        <ele>962.89999999999998</ele>
        <time>2025-04-28T11:07:39Z</time>
      </trkpt>
      <trkpt lat="42.813418032601476" lon="-4.216977981850505">
        <ele>962.89999999999998</ele>
        <time>2025-04-28T11:07:47Z</time>
      </trkpt>
      <trkpt lat="42.811991013586521" lon="-4.21924302354455">
        <ele>961.46000000000004</ele>
        <time>2025-04-28T11:07:58Z</time>
      </trkpt>
      <trkpt lat="42.811007983982563" lon="-4.221731023862958">
        <ele>956.64999999999998</ele>
        <time>2025-04-28T11:08:08Z</time>
      </trkpt>
      <trkpt lat="42.810342963784933" lon="-4.223796995356679">
        <ele>943.66999999999996</ele>
        <time>2025-04-28T11:08:17Z</time>
      </trkpt>
      <trkpt lat="42.810254031792283" lon="-4.224132020026445">
        <ele>942.23000000000002</ele>
        <time>2025-04-28T11:08:19Z</time>
      </trkpt>
      <trkpt lat="42.810218995437026" lon="-4.224265040829778">
        <ele>941.75</ele>
        <time>2025-04-28T11:08:20Z</time>
      </trkpt>
      <trkpt lat="42.810209020972252" lon="-4.224517000839114">
        <ele>940.78999999999996</ele>
        <time>2025-04-28T11:08:22Z</time>
      </trkpt>
      <trkpt lat="42.810134002938867" lon="-4.224656978622079">
        <ele>940.78999999999996</ele>
        <time>2025-04-28T11:08:23Z</time>
      </trkpt>
      <trkpt lat="42.810050016269088" lon="-4.224708024412394">
        <ele>940.78999999999996</ele>
        <time>2025-04-28T11:08:24Z</time>
      </trkpt>
      <trkpt lat="42.809955971315503" lon="-4.22476502135396">
        <ele>940.78999999999996</ele>
        <time>2025-04-28T11:08:25Z</time>
      </trkpt>
      <trkpt lat="42.809852035716176" lon="-4.224838027730584">
        <ele>940.78999999999996</ele>
        <time>2025-04-28T11:08:26Z</time>
      </trkpt>
      <trkpt lat="42.809740975499153" lon="-4.224921008571982">
        <ele>940.78999999999996</ele>
        <time>2025-04-28T11:08:27Z</time>
      </trkpt>
      <trkpt lat="42.809636034071445" lon="-4.225050006061792">
        <ele>940.78999999999996</ele>
        <time>2025-04-28T11:08:28Z</time>
      </trkpt>
      <trkpt lat="42.808667002245784" lon="-4.226126996800304">
        <ele>936.46000000000004</ele>
        <time>2025-04-28T11:08:35Z</time>
      </trkpt>
      <trkpt lat="42.8076490201056" lon="-4.227325022220612">
        <ele>938.86000000000001</ele>
        <time>2025-04-28T11:08:42Z</time>
      </trkpt>
      <trkpt lat="42.807552041485906" lon="-4.22751696780324">
        <ele>939.35000000000002</ele>
        <time>2025-04-28T11:08:43Z</time>
      </trkpt>
      <trkpt lat="42.807461014017463" lon="-4.227716038003564">
        <ele>940.30999999999995</ele>
        <time>2025-04-28T11:08:44Z</time>
      </trkpt>
      <trkpt lat="42.807365963235497" lon="-4.22792499884963">
        <ele>940.30999999999995</ele>
        <time>2025-04-28T11:08:45Z</time>
      </trkpt>
      <trkpt lat="42.807298991829157" lon="-4.228149969130755">
        <ele>940.30999999999995</ele>
        <time>2025-04-28T11:08:46Z</time>
      </trkpt>
      <trkpt lat="42.806746959686279" lon="-4.230015026405454">
        <ele>938.86000000000001</ele>
        <time>2025-04-28T11:08:54Z</time>
      </trkpt>
      <trkpt lat="42.806656016036868" lon="-4.230198003351688">
        <ele>937.89999999999998</ele>
        <time>2025-04-28T11:08:55Z</time>
      </trkpt>
      <trkpt lat="42.80550098977983" lon="-4.231952000409365">
        <ele>927.80999999999995</ele>
        <time>2025-04-28T11:09:04Z</time>
      </trkpt>
      <trkpt lat="42.803685972467065" lon="-4.234547959640622">
        <ele>912.90999999999997</ele>
        <time>2025-04-28T11:09:17Z</time>
      </trkpt>
      <trkpt lat="42.800884991884232" lon="-4.238440012559295">
        <ele>902.82000000000005</ele>
        <time>2025-04-28T11:09:36Z</time>
      </trkpt>
      <trkpt lat="42.79896997846663" lon="-4.241007976233959">
        <ele>903.29999999999995</ele>
        <time>2025-04-28T11:09:49Z</time>
      </trkpt>
      <trkpt lat="42.797129983082414" lon="-4.243626985698938">
        <ele>908.58000000000004</ele>
        <time>2025-04-28T11:10:03Z</time>
      </trkpt>
      <trkpt lat="42.795458966866136" lon="-4.245692035183311">
        <ele>906.65999999999997</ele>
        <time>2025-04-28T11:10:15Z</time>
      </trkpt>
      <trkpt lat="42.793732965365052" lon="-4.24708996899426">
        <ele>906.17999999999995</ele>
        <time>2025-04-28T11:10:26Z</time>
      </trkpt>
      <trkpt lat="42.792525971308351" lon="-4.247786002233625">
        <ele>906.17999999999995</ele>
        <time>2025-04-28T11:10:36Z</time>
      </trkpt>
      <trkpt lat="42.790904995054007" lon="-4.248516988009214">
        <ele>907.62</ele>
        <time>2025-04-28T11:10:47Z</time>
      </trkpt>
      <trkpt lat="42.788780014961958" lon="-4.249149989336729">
        <ele>910.02999999999997</ele>
        <time>2025-04-28T11:11:01Z</time>
      </trkpt>
      <trkpt lat="42.787266997620463" lon="-4.24994601868093">
        <ele>904.74000000000001</ele>
        <time>2025-04-28T11:11:11Z</time>
      </trkpt>
      <trkpt lat="42.786470968276262" lon="-4.250945979729295">
        <ele>899.92999999999995</ele>
        <time>2025-04-28T11:11:19Z</time>
      </trkpt>
      <trkpt lat="42.786259995773435" lon="-4.251346969977021">
        <ele>898.49000000000001</ele>
        <time>2025-04-28T11:11:22Z</time>
      </trkpt>
      <trkpt lat="42.786225965246558" lon="-4.251485019922257">
        <ele>898.49000000000001</ele>
        <time>2025-04-28T11:11:23Z</time>
      </trkpt>
      <trkpt lat="42.786192018538713" lon="-4.251629021018744">
        <ele>898.00999999999999</ele>
        <time>2025-04-28T11:11:24Z</time>
      </trkpt>
      <trkpt lat="42.786211967468262" lon="-4.251785008236766">
        <ele>898.00999999999999</ele>
        <time>2025-04-28T11:11:25Z</time>
      </trkpt>
      <trkpt lat="42.786233006045222" lon="-4.251948958262801">
        <ele>897.52999999999997</ele>
        <time>2025-04-28T11:11:26Z</time>
      </trkpt>
      <trkpt lat="42.786254966631532" lon="-4.252117015421391">
        <ele>897.52999999999997</ele>
        <time>2025-04-28T11:11:27Z</time>
      </trkpt>
      <trkpt lat="42.786225965246558" lon="-4.252295969054103">
        <ele>897.52999999999997</ele>
        <time>2025-04-28T11:11:28Z</time>
      </trkpt>
      <trkpt lat="42.786196041852236" lon="-4.252470983192325">
        <ele>898.00999999999999</ele>
        <time>2025-04-28T11:11:29Z</time>
      </trkpt>
      <trkpt lat="42.786148013547063" lon="-4.252642979845405">
        <ele>897.52999999999997</ele>
        <time>2025-04-28T11:11:30Z</time>
      </trkpt>
      <trkpt lat="42.786095039919019" lon="-4.252817993983626">
        <ele>897.52999999999997</ele>
        <time>2025-04-28T11:11:31Z</time>
      </trkpt>
      <trkpt lat="42.786039970815182" lon="-4.25299703143537">
        <ele>898.00999999999999</ele>
        <time>2025-04-28T11:11:32Z</time>
      </trkpt>
      <trkpt lat="42.785842996090651" lon="-4.253697004169226">
        <ele>897.52999999999997</ele>
        <time>2025-04-28T11:11:36Z</time>
      </trkpt>
      <trkpt lat="42.785839978605509" lon="-4.253863971680403">
        <ele>897.52999999999997</ele>
        <time>2025-04-28T11:11:37Z</time>
      </trkpt>
      <trkpt lat="42.785870991647243" lon="-4.25402901135385">
        <ele>897.52999999999997</ele>
        <time>2025-04-28T11:11:38Z</time>
      </trkpt>
      <trkpt lat="42.785933017730713" lon="-4.25417996942997">
        <ele>897.04999999999995</ele>
        <time>2025-04-28T11:11:39Z</time>
      </trkpt>
      <trkpt lat="42.786031002178788" lon="-4.25428600050509">
        <ele>897.04999999999995</ele>
        <time>2025-04-28T11:11:40Z</time>
      </trkpt>
      <trkpt lat="42.786128986626863" lon="-4.25439203158021">
        <ele>897.52999999999997</ele>
        <time>2025-04-28T11:11:41Z</time>
      </trkpt>
      <trkpt lat="42.786255972459912" lon="-4.254419021308422">
        <ele>898.00999999999999</ele>
        <time>2025-04-28T11:11:42Z</time>
      </trkpt>
      <trkpt lat="42.786382958292961" lon="-4.254426984116435">
        <ele>898.00999999999999</ele>
        <time>2025-04-28T11:11:43Z</time>
      </trkpt>
      <trkpt lat="42.786491001024842" lon="-4.254434024915099">
        <ele>898.49000000000001</ele>
        <time>2025-04-28T11:11:44Z</time>
      </trkpt>
      <trkpt lat="42.786613963544369" lon="-4.254488004371524">
        <ele>898.97000000000003</ele>
        <time>2025-04-28T11:11:45Z</time>
      </trkpt>
      <trkpt lat="42.786714965477586" lon="-4.25454500131309">
        <ele>899.45000000000005</ele>
        <time>2025-04-28T11:11:46Z</time>
      </trkpt>
      <trkpt lat="42.786813033744693" lon="-4.254658995196223">
        <ele>899.92999999999995</ele>
        <time>2025-04-28T11:11:47Z</time>
      </trkpt>
      <trkpt lat="42.786863995715976" lon="-4.254786986857653">
        <ele>899.92999999999995</ele>
        <time>2025-04-28T11:11:48Z</time>
      </trkpt>
      <trkpt lat="42.786886962130666" lon="-4.254941968247294">
        <ele>899.92999999999995</ele>
        <time>2025-04-28T11:11:49Z</time>
      </trkpt>
      <trkpt lat="42.786897020414472" lon="-4.255066020414233">
        <ele>899.92999999999995</ele>
        <time>2025-04-28T11:11:50Z</time>
      </trkpt>
      <trkpt lat="42.78687397018075" lon="-4.255170961841941">
        <ele>899.92999999999995</ele>
        <time>2025-04-28T11:11:51Z</time>
      </trkpt>
      <trkpt lat="42.786846980452538" lon="-4.255243968218565">
        <ele>899.92999999999995</ele>
        <time>2025-04-28T11:11:52Z</time>
      </trkpt>
      <trkpt lat="42.786823008209467" lon="-4.255314040929079">
        <ele>899.45000000000005</ele>
        <time>2025-04-28T11:11:53Z</time>
      </trkpt>
      <trkpt lat="42.786727035418153" lon="-4.255357040092349">
        <ele>899.92999999999995</ele>
        <time>2025-04-28T11:11:54Z</time>
      </trkpt>
      <trkpt lat="42.786651011556387" lon="-4.255312029272318">
        <ele>899.92999999999995</ele>
        <time>2025-04-28T11:11:55Z</time>
      </trkpt>
      <trkpt lat="42.786556966602802" lon="-4.255256038159132">
        <ele>900.40999999999997</ele>
        <time>2025-04-28T11:11:56Z</time>
      </trkpt>
      <trkpt lat="42.786454958841205" lon="-4.255196023732424">
        <ele>900.88999999999999</ele>
        <time>2025-04-28T11:11:57Z</time>
      </trkpt>
      <trkpt lat="42.786351023241878" lon="-4.255135003477335">
        <ele>901.37</ele>
        <time>2025-04-28T11:11:58Z</time>
      </trkpt>
      <trkpt lat="42.785261040553451" lon="-4.25426697358489">
        <ele>906.65999999999997</ele>
        <time>2025-04-28T11:12:07Z</time>
      </trkpt>
      <trkpt lat="42.784447995945811" lon="-4.253665991127491">
        <ele>902.33000000000004</ele>
        <time>2025-04-28T11:12:15Z</time>
      </trkpt>
      <trkpt lat="42.784393010661006" lon="-4.253629026934505">
        <ele>901.37</ele>
        <time>2025-04-28T11:12:16Z</time>
      </trkpt>
      <trkpt lat="42.784162005409598" lon="-4.253699015825987">
        <ele>899.45000000000005</ele>
        <time>2025-04-28T11:12:19Z</time>
      </trkpt>
      <trkpt lat="42.784097967669368" lon="-4.253640007227659">
        <ele>898.97000000000003</ele>
        <time>2025-04-28T11:12:20Z</time>
      </trkpt>
      <trkpt lat="42.784067038446665" lon="-4.253597008064389">
        <ele>898.49000000000001</ele>
        <time>2025-04-28T11:12:21Z</time>
      </trkpt>
      <trkpt lat="42.784067038446665" lon="-4.253475973382592">
        <ele>898.00999999999999</ele>
        <time>2025-04-28T11:12:22Z</time>
      </trkpt>
      <trkpt lat="42.784067038446665" lon="-4.253391986712813">
        <ele>897.52999999999997</ele>
        <time>2025-04-28T11:12:23Z</time>
      </trkpt>
      <trkpt lat="42.784096961840987" lon="-4.253321997821331">
        <ele>897.04999999999995</ele>
        <time>2025-04-28T11:12:24Z</time>
      </trkpt>
      <trkpt lat="42.784159993752837" lon="-4.253274975344539">
        <ele>896.57000000000005</ele>
        <time>2025-04-28T11:12:25Z</time>
      </trkpt>
      <trkpt lat="42.784240962937474" lon="-4.253274975344539">
        <ele>896.57000000000005</ele>
        <time>2025-04-28T11:12:26Z</time>
      </trkpt>
      <trkpt lat="42.784332996234298" lon="-4.253274975344539">
        <ele>896.09000000000003</ele>
        <time>2025-04-28T11:12:27Z</time>
      </trkpt>
      <trkpt lat="42.784436009824276" lon="-4.253274975344539">
        <ele>896.09000000000003</ele>
        <time>2025-04-28T11:12:28Z</time>
      </trkpt>
      <trkpt lat="42.784543968737125" lon="-4.253274975344539">
        <ele>896.09000000000003</ele>
        <time>2025-04-28T11:12:29Z</time>
      </trkpt>
      <trkpt lat="42.784669026732445" lon="-4.253237005323172">
        <ele>896.09000000000003</ele>
        <time>2025-04-28T11:12:30Z</time>
      </trkpt>
      <trkpt lat="42.784761982038617" lon="-4.253157963976264">
        <ele>896.09000000000003</ele>
        <time>2025-04-28T11:12:31Z</time>
      </trkpt>
      <trkpt lat="42.784844040870667" lon="-4.253017986193299">
        <ele>896.57000000000005</ele>
        <time>2025-04-28T11:12:32Z</time>
      </trkpt>
      <trkpt lat="42.784925010055304" lon="-4.252868033945561">
        <ele>896.57000000000005</ele>
        <time>2025-04-28T11:12:33Z</time>
      </trkpt>
      <trkpt lat="42.784990975633264" lon="-4.252701988443732">
        <ele>896.57000000000005</ele>
        <time>2025-04-28T11:12:34Z</time>
      </trkpt>
      <trkpt lat="42.785128019750118" lon="-4.252360006794334">
        <ele>897.04999999999995</ele>
        <time>2025-04-28T11:12:36Z</time>
      </trkpt>
      <trkpt lat="42.785231033340096" lon="-4.252251964062452">
        <ele>897.04999999999995</ele>
        <time>2025-04-28T11:12:37Z</time>
      </trkpt>
      <trkpt lat="42.785334968939424" lon="-4.252173006534576">
        <ele>896.57000000000005</ele>
        <time>2025-04-28T11:12:38Z</time>
      </trkpt>
      <trkpt lat="42.785456003621221" lon="-4.252130007371306">
        <ele>896.57000000000005</ele>
        <time>2025-04-28T11:12:39Z</time>
      </trkpt>
      <trkpt lat="42.785588018596172" lon="-4.252081979066134">
        <ele>896.57000000000005</ele>
        <time>2025-04-28T11:12:40Z</time>
      </trkpt>
      <trkpt lat="42.785705029964447" lon="-4.251990029588342">
        <ele>896.57000000000005</ele>
        <time>2025-04-28T11:12:41Z</time>
      </trkpt>
      <trkpt lat="42.785831009969115" lon="-4.251877963542938">
        <ele>896.09000000000003</ele>
        <time>2025-04-28T11:12:42Z</time>
      </trkpt>
      <trkpt lat="42.786019016057253" lon="-4.251708984375">
        <ele>896.57000000000005</ele>
        <time>2025-04-28T11:12:43Z</time>
      </trkpt>
      <trkpt lat="42.786086993291974" lon="-4.251585016027093">
        <ele>896.57000000000005</ele>
        <time>2025-04-28T11:12:44Z</time>
      </trkpt>
      <trkpt lat="42.78698000125587" lon="-4.250233015045524">
        <ele>899.45000000000005</ele>
        <time>2025-04-28T11:12:51Z</time>
      </trkpt>
      <trkpt lat="42.788157993927598" lon="-4.249374959617853">
        <ele>905.22000000000003</ele>
        <time>2025-04-28T11:12:58Z</time>
      </trkpt>
      <trkpt lat="42.789863040670753" lon="-4.248831979930401">
        <ele>912.42999999999995</ele>
        <time>2025-04-28T11:13:08Z</time>
      </trkpt>
      <trkpt lat="42.790342988446355" lon="-4.248522017151117">
        <ele>913.38999999999999</ele>
        <time>2025-04-28T11:13:12Z</time>
      </trkpt>
      <trkpt lat="42.790436027571559" lon="-4.248429983854294">
        <ele>913.87</ele>
        <time>2025-04-28T11:13:13Z</time>
      </trkpt>
      <trkpt lat="42.790493024513125" lon="-4.248363012447953">
        <ele>913.87</ele>
        <time>2025-04-28T11:13:14Z</time>
      </trkpt>
      <trkpt lat="42.790567958727479" lon="-4.248210964724422">
        <ele>914.35000000000002</ele>
        <time>2025-04-28T11:13:15Z</time>
      </trkpt>
      <trkpt lat="42.790570976212621" lon="-4.248172994703054">
        <ele>914.35000000000002</ele>
        <time>2025-04-28T11:13:16Z</time>
      </trkpt>
      <trkpt lat="42.790579022839665" lon="-4.248048020526767">
        <ele>914.83000000000004</ele>
        <time>2025-04-28T11:13:17Z</time>
      </trkpt>
      <trkpt lat="42.79059000313282" lon="-4.247890021651983">
        <ele>915.30999999999995</ele>
        <time>2025-04-28T11:13:18Z</time>
      </trkpt>
      <trkpt lat="42.79056703671813" lon="-4.247812991961837">
        <ele>915.78999999999996</ele>
        <time>2025-04-28T11:13:19Z</time>
      </trkpt>
      <trkpt lat="42.790535017848015" lon="-4.247706960886717">
        <ele>916.26999999999998</ele>
        <time>2025-04-28T11:13:20Z</time>
      </trkpt>
      <trkpt lat="42.790500987321138" lon="-4.247592967003584">
        <ele>916.26999999999998</ele>
        <time>2025-04-28T11:13:21Z</time>
      </trkpt>
      <trkpt lat="42.78985801152885" lon="-4.246431989595294">
        <ele>910.99000000000001</ele>
        <time>2025-04-28T11:13:30Z</time>
      </trkpt>
      <trkpt lat="42.789692971855402" lon="-4.245902001857758">
        <ele>908.10000000000002</ele>
        <time>2025-04-28T11:13:34Z</time>
      </trkpt>
      <trkpt lat="42.789677968248725" lon="-4.245767975226045">
        <ele>907.62</ele>
        <time>2025-04-28T11:13:35Z</time>
      </trkpt>
      <trkpt lat="42.789663970470428" lon="-4.245635038241744">
        <ele>907.62</ele>
        <time>2025-04-28T11:13:36Z</time>
      </trkpt>
      <trkpt lat="42.789631029590964" lon="-4.245371008291841">
        <ele>907.13999999999999</ele>
        <time>2025-04-28T11:13:38Z</time>
      </trkpt>
      <trkpt lat="42.789608985185623" lon="-4.245232958346605">
        <ele>907.13999999999999</ele>
        <time>2025-04-28T11:13:39Z</time>
      </trkpt>
      <trkpt lat="42.789589036256075" lon="-4.245107984170318">
        <ele>907.13999999999999</ele>
        <time>2025-04-28T11:13:40Z</time>
      </trkpt>
      <trkpt lat="42.789545031264424" lon="-4.24500597640872">
        <ele>907.13999999999999</ele>
        <time>2025-04-28T11:13:41Z</time>
      </trkpt>
      <trkpt lat="42.789488034322858" lon="-4.244927018880844">
        <ele>907.13999999999999</ele>
        <time>2025-04-28T11:13:42Z</time>
      </trkpt>
      <trkpt lat="42.789430031552911" lon="-4.244878990575671">
        <ele>906.65999999999997</ele>
        <time>2025-04-28T11:13:43Z</time>
      </trkpt>
      <trkpt lat="42.789373034611344" lon="-4.244844038039446">
        <ele>907.13999999999999</ele>
        <time>2025-04-28T11:13:44Z</time>
      </trkpt>
      <trkpt lat="42.789302039891481" lon="-4.244800033047795">
        <ele>907.13999999999999</ele>
        <time>2025-04-28T11:13:45Z</time>
      </trkpt>
      <trkpt lat="42.789259040728211" lon="-4.244792992249131">
        <ele>906.65999999999997</ele>
        <time>2025-04-28T11:13:46Z</time>
      </trkpt>
      <trkpt lat="42.789135994389653" lon="-4.244860969483852">
        <ele>906.65999999999997</ele>
        <time>2025-04-28T11:13:47Z</time>
      </trkpt>
      <trkpt lat="42.789094001054764" lon="-4.244954008609057">
        <ele>906.65999999999997</ele>
        <time>2025-04-28T11:13:48Z</time>
      </trkpt>
      <trkpt lat="42.789066005498171" lon="-4.245014023035765">
        <ele>906.65999999999997</ele>
        <time>2025-04-28T11:13:49Z</time>
      </trkpt>
      <trkpt lat="42.788945976644754" lon="-4.245262965559959">
        <ele>906.17999999999995</ele>
        <time>2025-04-28T11:13:51Z</time>
      </trkpt>
      <trkpt lat="42.788940025493503" lon="-4.245364973321557">
        <ele>906.65999999999997</ele>
        <time>2025-04-28T11:13:52Z</time>
      </trkpt>
      <trkpt lat="42.788939019665122" lon="-4.245473016053438">
        <ele>907.13999999999999</ele>
        <time>2025-04-28T11:13:53Z</time>
      </trkpt>
      <trkpt lat="42.788940025493503" lon="-4.24558499827981">
        <ele>907.13999999999999</ele>
        <time>2025-04-28T11:13:54Z</time>
      </trkpt>
      <trkpt lat="42.788942037150264" lon="-4.245696980506182">
        <ele>907.13999999999999</ele>
        <time>2025-04-28T11:13:55Z</time>
      </trkpt>
      <trkpt lat="42.788943964987993" lon="-4.245805023238063">
        <ele>907.13999999999999</ele>
        <time>2025-04-28T11:13:56Z</time>
      </trkpt>
      <trkpt lat="42.788957040756941" lon="-4.246642040088773">
        <ele>908.10000000000002</ele>
        <time>2025-04-28T11:14:05Z</time>
      </trkpt>
      <trkpt lat="42.788947988301516" lon="-4.246753016486764">
        <ele>908.10000000000002</ele>
        <time>2025-04-28T11:14:06Z</time>
      </trkpt>
      <trkpt lat="42.788904989138246" lon="-4.246755028143525">
        <ele>908.10000000000002</ele>
        <time>2025-04-28T11:14:07Z</time>
      </trkpt>
      <trkpt lat="42.788842963054776" lon="-4.246757961809635">
        <ele>908.10000000000002</ele>
        <time>2025-04-28T11:14:08Z</time>
      </trkpt>
      <trkpt lat="42.788781020790339" lon="-4.246760979294777">
        <ele>908.10000000000002</ele>
        <time>2025-04-28T11:14:09Z</time>
      </trkpt>
      <trkpt lat="42.788716983050108" lon="-4.246763996779919">
        <ele>908.58000000000004</ele>
        <time>2025-04-28T11:14:10Z</time>
      </trkpt>
      <trkpt lat="42.7886120416224" lon="-4.246769025921822">
        <ele>908.58000000000004</ele>
        <time>2025-04-28T11:14:12Z</time>
      </trkpt>
      <trkpt lat="42.788581028580666" lon="-4.246771037578583">
        <ele>908.58000000000004</ele>
        <time>2025-04-28T11:14:13Z</time>
      </trkpt>
      <trkpt lat="42.788586979731917" lon="-4.246962983161211">
        <ele>908.58000000000004</ele>
        <time>2025-04-28T11:14:16Z</time>
      </trkpt>
      <trkpt lat="42.788601983338594" lon="-4.246987039223313">
        <ele>908.58000000000004</ele>
        <time>2025-04-28T11:14:23Z</time>
      </trkpt>
      <trkpt lat="42.788704996928573" lon="-4.247073959559202">
        <ele>910.02999999999997</ele>
        <time>2025-04-28T11:14:39Z</time>
      </trkpt>
      <trkpt lat="42.788709020242095" lon="-4.24706700257957">
        <ele>910.02999999999997</ele>
        <time>2025-04-28T11:15:24Z</time>
      </trkpt>
      <trkpt lat="42.788713965564966" lon="-4.247073959559202">
        <ele>910.02999999999997</ele>
        <time>2025-04-28T11:16:16Z</time>
      </trkpt>
      <trkpt lat="42.788711031898856" lon="-4.247077982872725">
        <ele>910.50999999999999</ele>
        <time>2025-04-28T11:17:16Z</time>
      </trkpt>
      <trkpt lat="42.78878697194159" lon="-4.246958959847689">
        <ele>913.87</ele>
        <time>2025-04-28T16:19:11Z</time>
      </trkpt>
      <trkpt lat="42.788710026070476" lon="-4.247069014236331">
        <ele>906.17999999999995</ele>
        <time>2025-04-28T16:19:48Z</time>
      </trkpt>
      <trkpt lat="42.78874397277832" lon="-4.247032972052693">
        <ele>904.74000000000001</ele>
        <time>2025-04-28T16:20:39Z</time>
      </trkpt>
      <trkpt lat="42.788970032706857" lon="-4.247171021997929">
        <ele>903.77999999999997</ele>
        <time>2025-04-28T16:20:59Z</time>
      </trkpt>
      <trkpt lat="42.788880011066794" lon="-4.247190970927477">
        <ele>906.65999999999997</ele>
        <time>2025-04-28T16:21:03Z</time>
      </trkpt>
      <trkpt lat="42.788967015221715" lon="-4.247073959559202">
        <ele>909.05999999999995</ele>
        <time>2025-04-28T16:21:08Z</time>
      </trkpt>
      <trkpt lat="42.788966009393334" lon="-4.247010005638003">
        <ele>909.05999999999995</ele>
        <time>2025-04-28T16:21:09Z</time>
      </trkpt>
      <trkpt lat="42.78895896859467" lon="-4.246752010658383">
        <ele>909.05999999999995</ele>
        <time>2025-04-28T16:21:10Z</time>
      </trkpt>
      <trkpt lat="42.788945976644754" lon="-4.245926979929209">
        <ele>906.65999999999997</ele>
        <time>2025-04-28T16:21:20Z</time>
      </trkpt>
      <trkpt lat="42.788938013836741" lon="-4.245401015505195">
        <ele>904.74000000000001</ele>
        <time>2025-04-28T16:21:25Z</time>
      </trkpt>
      <trkpt lat="42.788943964987993" lon="-4.245298001915216">
        <ele>904.74000000000001</ele>
        <time>2025-04-28T16:21:26Z</time>
      </trkpt>
      <trkpt lat="42.788951005786657" lon="-4.245189037173986">
        <ele>904.25999999999999</ele>
        <time>2025-04-28T16:21:27Z</time>
      </trkpt>
      <trkpt lat="42.788774985820055" lon="-4.244845965877175">
        <ele>903.29999999999995</ele>
        <time>2025-04-28T16:21:30Z</time>
      </trkpt>
      <trkpt lat="42.788761993870139" lon="-4.244718980044127">
        <ele>903.77999999999997</ele>
        <time>2025-04-28T16:21:31Z</time>
      </trkpt>
      <trkpt lat="42.788794012740254" lon="-4.244614038616419">
        <ele>903.77999999999997</ele>
        <time>2025-04-28T16:21:32Z</time>
      </trkpt>
      <trkpt lat="42.788846986368299" lon="-4.244541032239795">
        <ele>904.25999999999999</ele>
        <time>2025-04-28T16:21:33Z</time>
      </trkpt>
      <trkpt lat="42.7889159694314" lon="-4.244499038904905">
        <ele>904.74000000000001</ele>
        <time>2025-04-28T16:21:34Z</time>
      </trkpt>
      <trkpt lat="42.788994004949927" lon="-4.244480011984706">
        <ele>905.22000000000003</ele>
        <time>2025-04-28T16:21:35Z</time>
      </trkpt>
      <trkpt lat="42.789048990234733" lon="-4.24453298561275">
        <ele>905.22000000000003</ele>
        <time>2025-04-28T16:21:36Z</time>
      </trkpt>
      <trkpt lat="42.789113027974963" lon="-4.244608003646135">
        <ele>905.22000000000003</ele>
        <time>2025-04-28T16:21:37Z</time>
      </trkpt>
      <trkpt lat="42.78913096524775" lon="-4.244628036394715">
        <ele>905.22000000000003</ele>
        <time>2025-04-28T16:21:38Z</time>
      </trkpt>
      <trkpt lat="42.789302039891481" lon="-4.244800033047795">
        <ele>905.22000000000003</ele>
        <time>2025-04-28T16:21:39Z</time>
      </trkpt>
      <trkpt lat="42.789598004892468" lon="-4.245162969455123">
        <ele>905.22000000000003</ele>
        <time>2025-04-28T16:21:44Z</time>
      </trkpt>
      <trkpt lat="42.789598004892468" lon="-4.245162969455123">
        <ele>905.22000000000003</ele>
        <time>2025-04-28T16:21:45Z</time>
      </trkpt>
      <trkpt lat="42.789656007662416" lon="-4.245563037693501">
        <ele>905.22000000000003</ele>
        <time>2025-04-28T16:21:47Z</time>
      </trkpt>
      <trkpt lat="42.789671011269093" lon="-4.245705027133226">
        <ele>905.22000000000003</ele>
        <time>2025-04-28T16:21:48Z</time>
      </trkpt>
      <trkpt lat="42.78968702070415" lon="-4.245850034058094">
        <ele>905.22000000000003</ele>
        <time>2025-04-28T16:21:49Z</time>
      </trkpt>
      <trkpt lat="42.789703030139208" lon="-4.245998980477452">
        <ele>905.22000000000003</ele>
        <time>2025-04-28T16:21:50Z</time>
      </trkpt>
      <trkpt lat="42.789741000160575" lon="-4.246152034029365">
        <ele>905.22000000000003</ele>
        <time>2025-04-28T16:21:51Z</time>
      </trkpt>
      <trkpt lat="42.789790034294128" lon="-4.246288994327188">
        <ele>905.22000000000003</ele>
        <time>2025-04-28T16:21:52Z</time>
      </trkpt>
      <trkpt lat="42.789857005700469" lon="-4.246429977938533">
        <ele>904.74000000000001</ele>
        <time>2025-04-28T16:21:53Z</time>
      </trkpt>
      <trkpt lat="42.790898038074374" lon="-4.248297968879342">
        <ele>912.42999999999995</ele>
        <time>2025-04-28T16:22:07Z</time>
      </trkpt>
      <trkpt lat="42.791153015568852" lon="-4.248767020180821">
        <ele>913.38999999999999</ele>
        <time>2025-04-28T16:22:11Z</time>
      </trkpt>
      <trkpt lat="42.791263991966844" lon="-4.248833991587162">
        <ele>913.38999999999999</ele>
        <time>2025-04-28T16:22:12Z</time>
      </trkpt>
      <trkpt lat="42.791354013606906" lon="-4.248861987143755">
        <ele>913.87</ele>
        <time>2025-04-28T16:22:13Z</time>
      </trkpt>
      <trkpt lat="42.791399024426937" lon="-4.248963994905353">
        <ele>913.87</ele>
        <time>2025-04-28T16:22:14Z</time>
      </trkpt>
      <trkpt lat="42.79142701998353" lon="-4.249027026817203">
        <ele>913.87</ele>
        <time>2025-04-28T16:22:15Z</time>
      </trkpt>
      <trkpt lat="42.791404975578189" lon="-4.249133979901671">
        <ele>913.87</ele>
        <time>2025-04-28T16:22:16Z</time>
      </trkpt>
      <trkpt lat="42.791404975578189" lon="-4.249133979901671">
        <ele>913.87</ele>
        <time>2025-04-28T16:22:17Z</time>
      </trkpt>
      <trkpt lat="42.791375974193215" lon="-4.249404966831207">
        <ele>913.87</ele>
        <time>2025-04-28T16:22:18Z</time>
      </trkpt>
      <trkpt lat="42.791415033861995" lon="-4.24951502121985">
        <ele>913.87</ele>
        <time>2025-04-28T16:22:19Z</time>
      </trkpt>
      <trkpt lat="42.791457027196884" lon="-4.249636977910996">
        <ele>913.87</ele>
        <time>2025-04-28T16:22:20Z</time>
      </trkpt>
      <trkpt lat="42.791501032188535" lon="-4.249765975400806">
        <ele>913.87</ele>
        <time>2025-04-28T16:22:21Z</time>
      </trkpt>
      <trkpt lat="42.791543025523424" lon="-4.249898996204138">
        <ele>913.87</ele>
        <time>2025-04-28T16:22:22Z</time>
      </trkpt>
      <trkpt lat="42.792019033804536" lon="-4.251371026039124">
        <ele>913.87</ele>
        <time>2025-04-28T16:22:34Z</time>
      </trkpt>
      <trkpt lat="42.792053986340761" lon="-4.251490971073508">
        <ele>913.87</ele>
        <time>2025-04-28T16:22:35Z</time>
      </trkpt>
      <trkpt lat="42.792635019868612" lon="-4.253302970901132">
        <ele>911.95000000000005</ele>
        <time>2025-04-28T16:22:50Z</time>
      </trkpt>
      <trkpt lat="42.793208006769419" lon="-4.254906009882689">
        <ele>905.70000000000005</ele>
        <time>2025-04-28T16:23:03Z</time>
      </trkpt>
      <trkpt lat="42.793316971510649" lon="-4.255201974883676">
        <ele>905.22000000000003</ele>
        <time>2025-04-28T16:23:06Z</time>
      </trkpt>
      <trkpt lat="42.793559962883592" lon="-4.256036980077624">
        <ele>906.17999999999995</ele>
        <time>2025-04-28T16:23:15Z</time>
      </trkpt>
      <trkpt lat="42.793670017272234" lon="-4.256505025550723">
        <ele>906.65999999999997</ele>
        <time>2025-04-28T16:23:21Z</time>
      </trkpt>
      <trkpt lat="42.793686026707292" lon="-4.256574008613825">
        <ele>906.65999999999997</ele>
        <time>2025-04-28T16:23:22Z</time>
      </trkpt>
      <trkpt lat="42.793700024485588" lon="-4.256639974191785">
        <ele>907.13999999999999</ele>
        <time>2025-04-28T16:23:23Z</time>
      </trkpt>
      <trkpt lat="42.793707987293601" lon="-4.256696971133351">
        <ele>907.13999999999999</ele>
        <time>2025-04-28T16:23:24Z</time>
      </trkpt>
      <trkpt lat="42.793715028092265" lon="-4.256753968074918">
        <ele>907.13999999999999</ele>
        <time>2025-04-28T16:23:25Z</time>
      </trkpt>
      <trkpt lat="42.793720979243517" lon="-4.256806019693613">
        <ele>907.13999999999999</ele>
        <time>2025-04-28T16:23:26Z</time>
      </trkpt>
      <trkpt lat="42.793722990900278" lon="-4.256815994158387">
        <ele>906.65999999999997</ele>
        <time>2025-04-28T16:23:27Z</time>
      </trkpt>
      <trkpt lat="42.793693989515305" lon="-4.25684398971498">
        <ele>906.65999999999997</ele>
        <time>2025-04-28T16:23:28Z</time>
      </trkpt>
      <trkpt lat="42.793679991737008" lon="-4.256858993321657">
        <ele>906.65999999999997</ele>
        <time>2025-04-28T16:23:29Z</time>
      </trkpt>
      <trkpt lat="42.793651996180415" lon="-4.256858993321657">
        <ele>906.65999999999997</ele>
        <time>2025-04-28T16:23:30Z</time>
      </trkpt>
      <trkpt lat="42.793636992573738" lon="-4.256858993321657">
        <ele>906.65999999999997</ele>
        <time>2025-04-28T16:23:31Z</time>
      </trkpt>
      <trkpt lat="42.793636992573738" lon="-4.256858993321657">
        <ele>906.17999999999995</ele>
        <time>2025-04-28T16:23:32Z</time>
      </trkpt>
      <trkpt lat="42.793503971770406" lon="-4.256857987493277">
        <ele>906.17999999999995</ele>
        <time>2025-04-28T16:23:33Z</time>
      </trkpt>
      <trkpt lat="42.793487040325999" lon="-4.256880031898618">
        <ele>906.17999999999995</ele>
        <time>2025-04-28T16:23:34Z</time>
      </trkpt>
      <trkpt lat="42.793473964557052" lon="-4.256980028003454">
        <ele>905.70000000000005</ele>
        <time>2025-04-28T16:23:35Z</time>
      </trkpt>
      <trkpt lat="42.79346901923418" lon="-4.25701598636806">
        <ele>905.22000000000003</ele>
        <time>2025-04-28T16:23:36Z</time>
      </trkpt>
      <trkpt lat="42.793463990092278" lon="-4.257054040208459">
        <ele>905.22000000000003</ele>
        <time>2025-04-28T16:23:37Z</time>
      </trkpt>
      <trkpt lat="42.793459966778755" lon="-4.257086981087923">
        <ele>904.74000000000001</ele>
        <time>2025-04-28T16:23:38Z</time>
      </trkpt>
      <trkpt lat="42.793456027284265" lon="-4.257118999958038">
        <ele>904.74000000000001</ele>
        <time>2025-04-28T16:23:39Z</time>
      </trkpt>
      <trkpt lat="42.793450998142362" lon="-4.257154958322644">
        <ele>904.25999999999999</ele>
        <time>2025-04-28T16:23:40Z</time>
      </trkpt>
      <trkpt lat="42.793446974828839" lon="-4.25718798302114">
        <ele>904.25999999999999</ele>
        <time>2025-04-28T16:23:41Z</time>
      </trkpt>
      <trkpt lat="42.793443035334349" lon="-4.257217990234494">
        <ele>903.77999999999997</ele>
        <time>2025-04-28T16:23:42Z</time>
      </trkpt>
      <trkpt lat="42.793439012020826" lon="-4.25725101493299">
        <ele>903.77999999999997</ele>
        <time>2025-04-28T16:23:43Z</time>
      </trkpt>
      <trkpt lat="42.793433982878923" lon="-4.257286973297596">
        <ele>903.29999999999995</ele>
        <time>2025-04-28T16:23:44Z</time>
      </trkpt>
      <trkpt lat="42.793401964008808" lon="-4.257538011297584">
        <ele>901.85000000000002</ele>
        <time>2025-04-28T16:23:51Z</time>
      </trkpt>
      <trkpt lat="42.793400958180428" lon="-4.257545974105597">
        <ele>901.37</ele>
        <time>2025-04-28T16:23:52Z</time>
      </trkpt>
      <trkpt lat="42.793400958180428" lon="-4.257545974105597">
        <ele>901.37</ele>
        <time>2025-04-28T16:23:53Z</time>
      </trkpt>
      <trkpt lat="42.79327598400414" lon="-4.257768010720611">
        <ele>900.40999999999997</ele>
        <time>2025-04-28T16:23:59Z</time>
      </trkpt>
      <trkpt lat="42.79325402341783" lon="-4.257806986570358">
        <ele>900.40999999999997</ele>
        <time>2025-04-28T16:24:00Z</time>
      </trkpt>
      <trkpt lat="42.793229967355728" lon="-4.257848979905248">
        <ele>899.92999999999995</ele>
        <time>2025-04-28T16:24:01Z</time>
      </trkpt>
      <trkpt lat="42.793208006769419" lon="-4.257888961583376">
        <ele>899.92999999999995</ele>
        <time>2025-04-28T16:24:02Z</time>
      </trkpt>
      <trkpt lat="42.793198032304645" lon="-4.257910000160337">
        <ele>899.92999999999995</ele>
        <time>2025-04-28T16:24:03Z</time>
      </trkpt>
      <trkpt lat="42.793185040354729" lon="-4.257940007373691">
        <ele>899.92999999999995</ele>
        <time>2025-04-28T16:24:04Z</time>
      </trkpt>
      <trkpt lat="42.793170036748052" lon="-4.257971020415425">
        <ele>899.92999999999995</ele>
        <time>2025-04-28T16:24:05Z</time>
      </trkpt>
      <trkpt lat="42.793154027312994" lon="-4.258006978780031">
        <ele>899.92999999999995</ele>
        <time>2025-04-28T16:24:06Z</time>
      </trkpt>
      <trkpt lat="42.793022012338042" lon="-4.258319959044457">
        <ele>897.04999999999995</ele>
        <time>2025-04-28T16:24:16Z</time>
      </trkpt>
      <trkpt lat="42.792977001518011" lon="-4.258434036746621">
        <ele>895.61000000000001</ele>
        <time>2025-04-28T16:24:20Z</time>
      </trkpt>
      <trkpt lat="42.792960992082953" lon="-4.258474018424749">
        <ele>895.12</ele>
        <time>2025-04-28T16:24:21Z</time>
      </trkpt>
      <trkpt lat="42.792940037325025" lon="-4.258525986224413">
        <ele>894.63999999999999</ele>
        <time>2025-04-28T16:24:22Z</time>
      </trkpt>
      <trkpt lat="42.792885974049568" lon="-4.258661018684506">
        <ele>894.15999999999997</ele>
        <time>2025-04-28T16:24:23Z</time>
      </trkpt>
      <trkpt lat="42.792885974049568" lon="-4.258661018684506">
        <ele>893.67999999999995</ele>
        <time>2025-04-28T16:24:24Z</time>
      </trkpt>
      <trkpt lat="42.792885974049568" lon="-4.258661018684506">
        <ele>893.20000000000005</ele>
        <time>2025-04-28T16:24:25Z</time>
      </trkpt>
      <trkpt lat="42.792855966836214" lon="-4.258649032562971">
        <ele>893.20000000000005</ele>
        <time>2025-04-28T16:24:26Z</time>
      </trkpt>
      <trkpt lat="42.792829982936382" lon="-4.258636962622404">
        <ele>893.20000000000005</ele>
        <time>2025-04-28T16:24:27Z</time>
      </trkpt>
      <trkpt lat="42.792829982936382" lon="-4.258636962622404">
        <ele>895.61000000000001</ele>
        <time>2025-04-28T16:24:38Z</time>
      </trkpt>
    </trkseg>
  </trk>

</gpx>